<?xml version="1.0" encoding="UTF-8" standalone="no" ?>
<gpx xmlns="http://www.topografix.com/GPX/1/1" xmlns:xsi="http://www.w3.org/2001/XMLSchema-instance" xsi:schemaLocation="http://www.topografix.com/GPX/1/1 http://www.topografix.com/GPX/1/1/gpx.xsd" version="1.1" creator="VisuGPX - https://www.visugpx.com">
  <metadata>
    <name>BOIS DE ROCHEFORT 5</name>
  </metadata>
  <trk>
    <name><![CDATA[BOIS DE ROCHEFORT 5]]></name>
    <trkseg>
      <trkpt lat="48.5917" lon="1.96606">
        <ele>104.44</ele>
        <time>2020-08-27T07:04:32Z</time>
      </trkpt>
      <trkpt lat="48.59175" lon="1.96602">
        <ele>127.99</ele>
        <time>2020-08-27T07:05:30Z</time>
      </trkpt>
      <trkpt lat="48.59174" lon="1.96602">
        <ele>128.47</ele>
        <time>2020-08-27T07:05:31Z</time>
      </trkpt>
      <trkpt lat="48.59176" lon="1.96606">
        <ele>129.43</ele>
        <time>2020-08-27T07:05:40Z</time>
      </trkpt>
      <trkpt lat="48.59176" lon="1.96606">
        <ele>129.43</ele>
        <time>2020-08-27T07:05:41Z</time>
      </trkpt>
      <trkpt lat="48.59177" lon="1.96606">
        <ele>129.43</ele>
        <time>2020-08-27T07:05:44Z</time>
      </trkpt>
      <trkpt lat="48.59177" lon="1.96605">
        <ele>129.43</ele>
        <time>2020-08-27T07:05:45Z</time>
      </trkpt>
      <trkpt lat="48.59178" lon="1.96607">
        <ele>129.43</ele>
        <time>2020-08-27T07:05:48Z</time>
      </trkpt>
      <trkpt lat="48.59179" lon="1.96608">
        <ele>129.43</ele>
        <time>2020-08-27T07:05:49Z</time>
      </trkpt>
      <trkpt lat="48.59181" lon="1.96609">
        <ele>129.43</ele>
        <time>2020-08-27T07:06:05Z</time>
      </trkpt>
      <trkpt lat="48.59181" lon="1.96609">
        <ele>129.43</ele>
        <time>2020-08-27T07:06:06Z</time>
      </trkpt>
      <trkpt lat="48.59181" lon="1.96609">
        <ele>129.43</ele>
        <time>2020-08-27T07:06:07Z</time>
      </trkpt>
      <trkpt lat="48.59181" lon="1.96609">
        <ele>129.43</ele>
        <time>2020-08-27T07:06:08Z</time>
      </trkpt>
      <trkpt lat="48.5918" lon="1.96607">
        <ele>129.43</ele>
        <time>2020-08-27T07:06:16Z</time>
      </trkpt>
      <trkpt lat="48.5918" lon="1.96606">
        <ele>129.43</ele>
        <time>2020-08-27T07:06:17Z</time>
      </trkpt>
      <trkpt lat="48.5918" lon="1.96605">
        <ele>128.95</ele>
        <time>2020-08-27T07:06:21Z</time>
      </trkpt>
      <trkpt lat="48.5918" lon="1.96607">
        <ele>129.92</ele>
        <time>2020-08-27T07:06:22Z</time>
      </trkpt>
      <trkpt lat="48.59181" lon="1.966">
        <ele>129.43</ele>
        <time>2020-08-27T07:13:01Z</time>
      </trkpt>
      <trkpt lat="48.59181" lon="1.966">
        <ele>129.92</ele>
        <time>2020-08-27T07:13:02Z</time>
      </trkpt>
      <trkpt lat="48.59182" lon="1.96601">
        <ele>129.92</ele>
        <time>2020-08-27T07:13:10Z</time>
      </trkpt>
      <trkpt lat="48.59182" lon="1.96602">
        <ele>129.43</ele>
        <time>2020-08-27T07:13:11Z</time>
      </trkpt>
      <trkpt lat="48.59182" lon="1.96602">
        <ele>129.43</ele>
        <time>2020-08-27T07:13:12Z</time>
      </trkpt>
      <trkpt lat="48.59182" lon="1.96602">
        <ele>129.43</ele>
        <time>2020-08-27T07:13:15Z</time>
      </trkpt>
      <trkpt lat="48.59182" lon="1.96602">
        <ele>129.92</ele>
        <time>2020-08-27T07:13:16Z</time>
      </trkpt>
      <trkpt lat="48.59182" lon="1.96603">
        <ele>129.92</ele>
        <time>2020-08-27T07:13:17Z</time>
      </trkpt>
      <trkpt lat="48.59182" lon="1.96603">
        <ele>129.92</ele>
        <time>2020-08-27T07:13:18Z</time>
      </trkpt>
      <trkpt lat="48.59182" lon="1.96603">
        <ele>130.4</ele>
        <time>2020-08-27T07:13:21Z</time>
      </trkpt>
      <trkpt lat="48.59182" lon="1.96603">
        <ele>129.92</ele>
        <time>2020-08-27T07:13:22Z</time>
      </trkpt>
      <trkpt lat="48.59182" lon="1.96604">
        <ele>129.92</ele>
        <time>2020-08-27T07:13:30Z</time>
      </trkpt>
      <trkpt lat="48.59182" lon="1.96604">
        <ele>129.92</ele>
        <time>2020-08-27T07:13:31Z</time>
      </trkpt>
      <trkpt lat="48.59182" lon="1.96605">
        <ele>129.92</ele>
        <time>2020-08-27T07:13:32Z</time>
      </trkpt>
      <trkpt lat="48.59183" lon="1.96604">
        <ele>129.92</ele>
        <time>2020-08-27T07:13:33Z</time>
      </trkpt>
      <trkpt lat="48.59183" lon="1.96605">
        <ele>129.92</ele>
        <time>2020-08-27T07:13:34Z</time>
      </trkpt>
      <trkpt lat="48.59183" lon="1.96605">
        <ele>129.92</ele>
        <time>2020-08-27T07:13:35Z</time>
      </trkpt>
      <trkpt lat="48.59183" lon="1.96605">
        <ele>129.92</ele>
        <time>2020-08-27T07:13:36Z</time>
      </trkpt>
      <trkpt lat="48.59184" lon="1.96607">
        <ele>129.92</ele>
        <time>2020-08-27T07:13:49Z</time>
      </trkpt>
      <trkpt lat="48.59184" lon="1.96607">
        <ele>129.92</ele>
        <time>2020-08-27T07:13:50Z</time>
      </trkpt>
      <trkpt lat="48.59184" lon="1.96608">
        <ele>129.92</ele>
        <time>2020-08-27T07:13:51Z</time>
      </trkpt>
      <trkpt lat="48.59183" lon="1.96609">
        <ele>129.92</ele>
        <time>2020-08-27T07:13:52Z</time>
      </trkpt>
      <trkpt lat="48.59183" lon="1.96609">
        <ele>129.92</ele>
        <time>2020-08-27T07:13:53Z</time>
      </trkpt>
      <trkpt lat="48.59183" lon="1.96609">
        <ele>129.92</ele>
        <time>2020-08-27T07:13:54Z</time>
      </trkpt>
      <trkpt lat="48.59184" lon="1.96609">
        <ele>129.92</ele>
        <time>2020-08-27T07:13:55Z</time>
      </trkpt>
      <trkpt lat="48.59184" lon="1.96609">
        <ele>129.43</ele>
        <time>2020-08-27T07:13:56Z</time>
      </trkpt>
      <trkpt lat="48.59184" lon="1.96609">
        <ele>129.43</ele>
        <time>2020-08-27T07:13:58Z</time>
      </trkpt>
      <trkpt lat="48.59184" lon="1.96608">
        <ele>128.95</ele>
        <time>2020-08-27T07:13:59Z</time>
      </trkpt>
      <trkpt lat="48.59184" lon="1.96607">
        <ele>129.43</ele>
        <time>2020-08-27T07:14:00Z</time>
      </trkpt>
      <trkpt lat="48.59184" lon="1.96607">
        <ele>129.43</ele>
        <time>2020-08-27T07:14:01Z</time>
      </trkpt>
      <trkpt lat="48.59184" lon="1.96607">
        <ele>129.43</ele>
        <time>2020-08-27T07:14:02Z</time>
      </trkpt>
      <trkpt lat="48.59184" lon="1.96607">
        <ele>129.43</ele>
        <time>2020-08-27T07:14:03Z</time>
      </trkpt>
      <trkpt lat="48.59186" lon="1.96609">
        <ele>129.43</ele>
        <time>2020-08-27T07:14:24Z</time>
      </trkpt>
      <trkpt lat="48.59186" lon="1.96608">
        <ele>129.92</ele>
        <time>2020-08-27T07:14:25Z</time>
      </trkpt>
      <trkpt lat="48.59185" lon="1.96608">
        <ele>130.4</ele>
        <time>2020-08-27T07:14:26Z</time>
      </trkpt>
      <trkpt lat="48.59185" lon="1.96607">
        <ele>129.92</ele>
        <time>2020-08-27T07:14:28Z</time>
      </trkpt>
      <trkpt lat="48.59184" lon="1.96607">
        <ele>129.92</ele>
        <time>2020-08-27T07:14:29Z</time>
      </trkpt>
      <trkpt lat="48.59184" lon="1.96607">
        <ele>129.92</ele>
        <time>2020-08-27T07:14:30Z</time>
      </trkpt>
      <trkpt lat="48.59184" lon="1.96607">
        <ele>129.92</ele>
        <time>2020-08-27T07:14:31Z</time>
      </trkpt>
      <trkpt lat="48.59184" lon="1.96606">
        <ele>129.92</ele>
        <time>2020-08-27T07:14:42Z</time>
      </trkpt>
      <trkpt lat="48.59184" lon="1.96607">
        <ele>129.43</ele>
        <time>2020-08-27T07:14:43Z</time>
      </trkpt>
      <trkpt lat="48.59183" lon="1.96606">
        <ele>129.92</ele>
        <time>2020-08-27T07:14:49Z</time>
      </trkpt>
      <trkpt lat="48.59183" lon="1.96606">
        <ele>129.43</ele>
        <time>2020-08-27T07:14:50Z</time>
      </trkpt>
      <trkpt lat="48.59183" lon="1.96605">
        <ele>129.43</ele>
        <time>2020-08-27T07:14:51Z</time>
      </trkpt>
      <trkpt lat="48.59183" lon="1.96605">
        <ele>129.43</ele>
        <time>2020-08-27T07:14:52Z</time>
      </trkpt>
      <trkpt lat="48.59182" lon="1.96605">
        <ele>129.92</ele>
        <time>2020-08-27T07:14:53Z</time>
      </trkpt>
      <trkpt lat="48.59181" lon="1.96605">
        <ele>129.92</ele>
        <time>2020-08-27T07:14:54Z</time>
      </trkpt>
      <trkpt lat="48.5918" lon="1.96604">
        <ele>129.43</ele>
        <time>2020-08-27T07:14:55Z</time>
      </trkpt>
      <trkpt lat="48.5918" lon="1.96603">
        <ele>129.43</ele>
        <time>2020-08-27T07:14:56Z</time>
      </trkpt>
      <trkpt lat="48.5918" lon="1.96602">
        <ele>129.43</ele>
        <time>2020-08-27T07:14:57Z</time>
      </trkpt>
      <trkpt lat="48.5918" lon="1.96601">
        <ele>129.43</ele>
        <time>2020-08-27T07:15:11Z</time>
      </trkpt>
      <trkpt lat="48.5918" lon="1.96602">
        <ele>129.43</ele>
        <time>2020-08-27T07:15:12Z</time>
      </trkpt>
      <trkpt lat="48.59179" lon="1.96601">
        <ele>129.43</ele>
        <time>2020-08-27T07:15:13Z</time>
      </trkpt>
      <trkpt lat="48.59179" lon="1.96601">
        <ele>129.43</ele>
        <time>2020-08-27T07:15:14Z</time>
      </trkpt>
      <trkpt lat="48.59178" lon="1.966">
        <ele>129.43</ele>
        <time>2020-08-27T07:15:15Z</time>
      </trkpt>
      <trkpt lat="48.59178" lon="1.96599">
        <ele>129.43</ele>
        <time>2020-08-27T07:15:16Z</time>
      </trkpt>
      <trkpt lat="48.59178" lon="1.96598">
        <ele>129.43</ele>
        <time>2020-08-27T07:15:17Z</time>
      </trkpt>
      <trkpt lat="48.59178" lon="1.96597">
        <ele>129.43</ele>
        <time>2020-08-27T07:15:18Z</time>
      </trkpt>
      <trkpt lat="48.59178" lon="1.96597">
        <ele>129.43</ele>
        <time>2020-08-27T07:15:19Z</time>
      </trkpt>
      <trkpt lat="48.59179" lon="1.96597">
        <ele>129.43</ele>
        <time>2020-08-27T07:15:22Z</time>
      </trkpt>
      <trkpt lat="48.59178" lon="1.96596">
        <ele>129.43</ele>
        <time>2020-08-27T07:15:23Z</time>
      </trkpt>
      <trkpt lat="48.59178" lon="1.96596">
        <ele>128.95</ele>
        <time>2020-08-27T07:15:24Z</time>
      </trkpt>
      <trkpt lat="48.59178" lon="1.96596">
        <ele>129.43</ele>
        <time>2020-08-27T07:15:25Z</time>
      </trkpt>
      <trkpt lat="48.59178" lon="1.96596">
        <ele>128.95</ele>
        <time>2020-08-27T07:15:26Z</time>
      </trkpt>
      <trkpt lat="48.59177" lon="1.96595">
        <ele>129.43</ele>
        <time>2020-08-27T07:15:27Z</time>
      </trkpt>
      <trkpt lat="48.59177" lon="1.96594">
        <ele>129.43</ele>
        <time>2020-08-27T07:15:28Z</time>
      </trkpt>
      <trkpt lat="48.59176" lon="1.96594">
        <ele>128.95</ele>
        <time>2020-08-27T07:15:29Z</time>
      </trkpt>
      <trkpt lat="48.59176" lon="1.96594">
        <ele>128.95</ele>
        <time>2020-08-27T07:15:30Z</time>
      </trkpt>
      <trkpt lat="48.59175" lon="1.96594">
        <ele>129.43</ele>
        <time>2020-08-27T07:15:31Z</time>
      </trkpt>
      <trkpt lat="48.59174" lon="1.96594">
        <ele>128.95</ele>
        <time>2020-08-27T07:15:32Z</time>
      </trkpt>
      <trkpt lat="48.59173" lon="1.96593">
        <ele>128.95</ele>
        <time>2020-08-27T07:15:33Z</time>
      </trkpt>
      <trkpt lat="48.59172" lon="1.96592">
        <ele>128.95</ele>
        <time>2020-08-27T07:15:34Z</time>
      </trkpt>
      <trkpt lat="48.5917" lon="1.96591">
        <ele>128.47</ele>
        <time>2020-08-27T07:15:35Z</time>
      </trkpt>
      <trkpt lat="48.59169" lon="1.96589">
        <ele>128.47</ele>
        <time>2020-08-27T07:15:36Z</time>
      </trkpt>
      <trkpt lat="48.59168" lon="1.96587">
        <ele>128.47</ele>
        <time>2020-08-27T07:15:37Z</time>
      </trkpt>
      <trkpt lat="48.59167" lon="1.96584">
        <ele>128.47</ele>
        <time>2020-08-27T07:15:38Z</time>
      </trkpt>
      <trkpt lat="48.59165" lon="1.96582">
        <ele>128.47</ele>
        <time>2020-08-27T07:15:39Z</time>
      </trkpt>
      <trkpt lat="48.59164" lon="1.96581">
        <ele>128.47</ele>
        <time>2020-08-27T07:15:40Z</time>
      </trkpt>
      <trkpt lat="48.59162" lon="1.96581">
        <ele>128.47</ele>
        <time>2020-08-27T07:15:41Z</time>
      </trkpt>
      <trkpt lat="48.59161" lon="1.96583">
        <ele>127.99</ele>
        <time>2020-08-27T07:15:42Z</time>
      </trkpt>
      <trkpt lat="48.5916" lon="1.96584">
        <ele>127.99</ele>
        <time>2020-08-27T07:15:43Z</time>
      </trkpt>
      <trkpt lat="48.5916" lon="1.96585">
        <ele>127.99</ele>
        <time>2020-08-27T07:15:47Z</time>
      </trkpt>
      <trkpt lat="48.5916" lon="1.96587">
        <ele>127.99</ele>
        <time>2020-08-27T07:15:48Z</time>
      </trkpt>
      <trkpt lat="48.59159" lon="1.96589">
        <ele>127.99</ele>
        <time>2020-08-27T07:15:49Z</time>
      </trkpt>
      <trkpt lat="48.59159" lon="1.96591">
        <ele>127.99</ele>
        <time>2020-08-27T07:15:50Z</time>
      </trkpt>
      <trkpt lat="48.59158" lon="1.96593">
        <ele>127.99</ele>
        <time>2020-08-27T07:15:51Z</time>
      </trkpt>
      <trkpt lat="48.59157" lon="1.96594">
        <ele>127.99</ele>
        <time>2020-08-27T07:15:52Z</time>
      </trkpt>
      <trkpt lat="48.59156" lon="1.96596">
        <ele>127.99</ele>
        <time>2020-08-27T07:15:53Z</time>
      </trkpt>
      <trkpt lat="48.59156" lon="1.96598">
        <ele>127.99</ele>
        <time>2020-08-27T07:15:54Z</time>
      </trkpt>
      <trkpt lat="48.59156" lon="1.96599">
        <ele>127.99</ele>
        <time>2020-08-27T07:15:55Z</time>
      </trkpt>
      <trkpt lat="48.59156" lon="1.96601">
        <ele>127.99</ele>
        <time>2020-08-27T07:15:56Z</time>
      </trkpt>
      <trkpt lat="48.59156" lon="1.96603">
        <ele>127.99</ele>
        <time>2020-08-27T07:15:57Z</time>
      </trkpt>
      <trkpt lat="48.59157" lon="1.96605">
        <ele>127.99</ele>
        <time>2020-08-27T07:15:58Z</time>
      </trkpt>
      <trkpt lat="48.59157" lon="1.96608">
        <ele>127.99</ele>
        <time>2020-08-27T07:15:59Z</time>
      </trkpt>
      <trkpt lat="48.59157" lon="1.96611">
        <ele>127.99</ele>
        <time>2020-08-27T07:16:00Z</time>
      </trkpt>
      <trkpt lat="48.59158" lon="1.96613">
        <ele>127.99</ele>
        <time>2020-08-27T07:16:01Z</time>
      </trkpt>
      <trkpt lat="48.59158" lon="1.96615">
        <ele>127.99</ele>
        <time>2020-08-27T07:16:02Z</time>
      </trkpt>
      <trkpt lat="48.59158" lon="1.96618">
        <ele>127.99</ele>
        <time>2020-08-27T07:16:03Z</time>
      </trkpt>
      <trkpt lat="48.59158" lon="1.96621">
        <ele>127.99</ele>
        <time>2020-08-27T07:16:04Z</time>
      </trkpt>
      <trkpt lat="48.59158" lon="1.96623">
        <ele>127.99</ele>
        <time>2020-08-27T07:16:05Z</time>
      </trkpt>
      <trkpt lat="48.59158" lon="1.96625">
        <ele>127.99</ele>
        <time>2020-08-27T07:16:06Z</time>
      </trkpt>
      <trkpt lat="48.59158" lon="1.96627">
        <ele>127.99</ele>
        <time>2020-08-27T07:16:07Z</time>
      </trkpt>
      <trkpt lat="48.59156" lon="1.9663">
        <ele>127.99</ele>
        <time>2020-08-27T07:16:08Z</time>
      </trkpt>
      <trkpt lat="48.59155" lon="1.96632">
        <ele>127.99</ele>
        <time>2020-08-27T07:16:09Z</time>
      </trkpt>
      <trkpt lat="48.59154" lon="1.96635">
        <ele>127.99</ele>
        <time>2020-08-27T07:16:10Z</time>
      </trkpt>
      <trkpt lat="48.59153" lon="1.96637">
        <ele>127.99</ele>
        <time>2020-08-27T07:16:11Z</time>
      </trkpt>
      <trkpt lat="48.59154" lon="1.9664">
        <ele>127.99</ele>
        <time>2020-08-27T07:16:12Z</time>
      </trkpt>
      <trkpt lat="48.59154" lon="1.96642">
        <ele>127.99</ele>
        <time>2020-08-27T07:16:13Z</time>
      </trkpt>
      <trkpt lat="48.59154" lon="1.96645">
        <ele>127.99</ele>
        <time>2020-08-27T07:16:14Z</time>
      </trkpt>
      <trkpt lat="48.59154" lon="1.96647">
        <ele>127.99</ele>
        <time>2020-08-27T07:16:15Z</time>
      </trkpt>
      <trkpt lat="48.59154" lon="1.96649">
        <ele>127.99</ele>
        <time>2020-08-27T07:16:16Z</time>
      </trkpt>
      <trkpt lat="48.59154" lon="1.96651">
        <ele>127.99</ele>
        <time>2020-08-27T07:16:17Z</time>
      </trkpt>
      <trkpt lat="48.59153" lon="1.96654">
        <ele>127.99</ele>
        <time>2020-08-27T07:16:18Z</time>
      </trkpt>
      <trkpt lat="48.59153" lon="1.96656">
        <ele>127.99</ele>
        <time>2020-08-27T07:16:19Z</time>
      </trkpt>
      <trkpt lat="48.59153" lon="1.96658">
        <ele>127.99</ele>
        <time>2020-08-27T07:16:20Z</time>
      </trkpt>
      <trkpt lat="48.59153" lon="1.96659">
        <ele>127.99</ele>
        <time>2020-08-27T07:16:21Z</time>
      </trkpt>
      <trkpt lat="48.59153" lon="1.96661">
        <ele>127.99</ele>
        <time>2020-08-27T07:16:22Z</time>
      </trkpt>
      <trkpt lat="48.59153" lon="1.96664">
        <ele>127.99</ele>
        <time>2020-08-27T07:16:23Z</time>
      </trkpt>
      <trkpt lat="48.59153" lon="1.96667">
        <ele>127.99</ele>
        <time>2020-08-27T07:16:24Z</time>
      </trkpt>
      <trkpt lat="48.59152" lon="1.96671">
        <ele>127.99</ele>
        <time>2020-08-27T07:16:25Z</time>
      </trkpt>
      <trkpt lat="48.59152" lon="1.96673">
        <ele>127.99</ele>
        <time>2020-08-27T07:16:26Z</time>
      </trkpt>
      <trkpt lat="48.59152" lon="1.96677">
        <ele>127.99</ele>
        <time>2020-08-27T07:16:27Z</time>
      </trkpt>
      <trkpt lat="48.59152" lon="1.96679">
        <ele>127.99</ele>
        <time>2020-08-27T07:16:28Z</time>
      </trkpt>
      <trkpt lat="48.59152" lon="1.96681">
        <ele>127.99</ele>
        <time>2020-08-27T07:16:29Z</time>
      </trkpt>
      <trkpt lat="48.59153" lon="1.96683">
        <ele>127.99</ele>
        <time>2020-08-27T07:16:30Z</time>
      </trkpt>
      <trkpt lat="48.59153" lon="1.96686">
        <ele>127.99</ele>
        <time>2020-08-27T07:16:31Z</time>
      </trkpt>
      <trkpt lat="48.59154" lon="1.96687">
        <ele>127.99</ele>
        <time>2020-08-27T07:16:32Z</time>
      </trkpt>
      <trkpt lat="48.59155" lon="1.96688">
        <ele>127.51</ele>
        <time>2020-08-27T07:16:33Z</time>
      </trkpt>
      <trkpt lat="48.59155" lon="1.9669">
        <ele>127.99</ele>
        <time>2020-08-27T07:16:34Z</time>
      </trkpt>
      <trkpt lat="48.59155" lon="1.96692">
        <ele>127.51</ele>
        <time>2020-08-27T07:16:35Z</time>
      </trkpt>
      <trkpt lat="48.59155" lon="1.96694">
        <ele>127.99</ele>
        <time>2020-08-27T07:16:36Z</time>
      </trkpt>
      <trkpt lat="48.59155" lon="1.96696">
        <ele>127.99</ele>
        <time>2020-08-27T07:16:37Z</time>
      </trkpt>
      <trkpt lat="48.59155" lon="1.96698">
        <ele>127.99</ele>
        <time>2020-08-27T07:16:38Z</time>
      </trkpt>
      <trkpt lat="48.59155" lon="1.96699">
        <ele>127.99</ele>
        <time>2020-08-27T07:16:39Z</time>
      </trkpt>
      <trkpt lat="48.59155" lon="1.96702">
        <ele>127.99</ele>
        <time>2020-08-27T07:16:40Z</time>
      </trkpt>
      <trkpt lat="48.59154" lon="1.96704">
        <ele>127.51</ele>
        <time>2020-08-27T07:16:41Z</time>
      </trkpt>
      <trkpt lat="48.59154" lon="1.96707">
        <ele>127.99</ele>
        <time>2020-08-27T07:16:42Z</time>
      </trkpt>
      <trkpt lat="48.59153" lon="1.96709">
        <ele>127.51</ele>
        <time>2020-08-27T07:16:43Z</time>
      </trkpt>
      <trkpt lat="48.59153" lon="1.96711">
        <ele>127.51</ele>
        <time>2020-08-27T07:16:44Z</time>
      </trkpt>
      <trkpt lat="48.59152" lon="1.96712">
        <ele>127.51</ele>
        <time>2020-08-27T07:16:45Z</time>
      </trkpt>
      <trkpt lat="48.59151" lon="1.96714">
        <ele>127.51</ele>
        <time>2020-08-27T07:16:46Z</time>
      </trkpt>
      <trkpt lat="48.59151" lon="1.96716">
        <ele>127.51</ele>
        <time>2020-08-27T07:16:47Z</time>
      </trkpt>
      <trkpt lat="48.5915" lon="1.96718">
        <ele>127.51</ele>
        <time>2020-08-27T07:16:48Z</time>
      </trkpt>
      <trkpt lat="48.5915" lon="1.96719">
        <ele>127.51</ele>
        <time>2020-08-27T07:16:49Z</time>
      </trkpt>
      <trkpt lat="48.59149" lon="1.96721">
        <ele>127.51</ele>
        <time>2020-08-27T07:16:50Z</time>
      </trkpt>
      <trkpt lat="48.59148" lon="1.96724">
        <ele>127.51</ele>
        <time>2020-08-27T07:16:51Z</time>
      </trkpt>
      <trkpt lat="48.59148" lon="1.96726">
        <ele>127.51</ele>
        <time>2020-08-27T07:16:52Z</time>
      </trkpt>
      <trkpt lat="48.59148" lon="1.96729">
        <ele>127.51</ele>
        <time>2020-08-27T07:16:53Z</time>
      </trkpt>
      <trkpt lat="48.59147" lon="1.96731">
        <ele>127.03</ele>
        <time>2020-08-27T07:16:54Z</time>
      </trkpt>
      <trkpt lat="48.59147" lon="1.96734">
        <ele>127.03</ele>
        <time>2020-08-27T07:16:55Z</time>
      </trkpt>
      <trkpt lat="48.59146" lon="1.96736">
        <ele>127.51</ele>
        <time>2020-08-27T07:16:56Z</time>
      </trkpt>
      <trkpt lat="48.59146" lon="1.96739">
        <ele>127.51</ele>
        <time>2020-08-27T07:16:57Z</time>
      </trkpt>
      <trkpt lat="48.59146" lon="1.96741">
        <ele>127.03</ele>
        <time>2020-08-27T07:16:58Z</time>
      </trkpt>
      <trkpt lat="48.59146" lon="1.96743">
        <ele>127.03</ele>
        <time>2020-08-27T07:16:59Z</time>
      </trkpt>
      <trkpt lat="48.59146" lon="1.96746">
        <ele>127.03</ele>
        <time>2020-08-27T07:17:00Z</time>
      </trkpt>
      <trkpt lat="48.59146" lon="1.96748">
        <ele>127.03</ele>
        <time>2020-08-27T07:17:01Z</time>
      </trkpt>
      <trkpt lat="48.59145" lon="1.9675">
        <ele>127.03</ele>
        <time>2020-08-27T07:17:02Z</time>
      </trkpt>
      <trkpt lat="48.59145" lon="1.96752">
        <ele>127.03</ele>
        <time>2020-08-27T07:17:03Z</time>
      </trkpt>
      <trkpt lat="48.59144" lon="1.96754">
        <ele>127.03</ele>
        <time>2020-08-27T07:17:04Z</time>
      </trkpt>
      <trkpt lat="48.59143" lon="1.96755">
        <ele>127.03</ele>
        <time>2020-08-27T07:17:05Z</time>
      </trkpt>
      <trkpt lat="48.59142" lon="1.96757">
        <ele>127.03</ele>
        <time>2020-08-27T07:17:06Z</time>
      </trkpt>
      <trkpt lat="48.59141" lon="1.96759">
        <ele>127.03</ele>
        <time>2020-08-27T07:17:07Z</time>
      </trkpt>
      <trkpt lat="48.5914" lon="1.96761">
        <ele>126.55</ele>
        <time>2020-08-27T07:17:08Z</time>
      </trkpt>
      <trkpt lat="48.59139" lon="1.96763">
        <ele>126.55</ele>
        <time>2020-08-27T07:17:09Z</time>
      </trkpt>
      <trkpt lat="48.59139" lon="1.96764">
        <ele>126.55</ele>
        <time>2020-08-27T07:17:10Z</time>
      </trkpt>
      <trkpt lat="48.59138" lon="1.96767">
        <ele>126.07</ele>
        <time>2020-08-27T07:17:11Z</time>
      </trkpt>
      <trkpt lat="48.59138" lon="1.96769">
        <ele>126.55</ele>
        <time>2020-08-27T07:17:12Z</time>
      </trkpt>
      <trkpt lat="48.59137" lon="1.96771">
        <ele>126.55</ele>
        <time>2020-08-27T07:17:13Z</time>
      </trkpt>
      <trkpt lat="48.59136" lon="1.96774">
        <ele>126.07</ele>
        <time>2020-08-27T07:17:14Z</time>
      </trkpt>
      <trkpt lat="48.59136" lon="1.96776">
        <ele>126.55</ele>
        <time>2020-08-27T07:17:15Z</time>
      </trkpt>
      <trkpt lat="48.59135" lon="1.96777">
        <ele>126.55</ele>
        <time>2020-08-27T07:17:16Z</time>
      </trkpt>
      <trkpt lat="48.59134" lon="1.96779">
        <ele>126.07</ele>
        <time>2020-08-27T07:17:17Z</time>
      </trkpt>
      <trkpt lat="48.59134" lon="1.96781">
        <ele>126.07</ele>
        <time>2020-08-27T07:17:18Z</time>
      </trkpt>
      <trkpt lat="48.59133" lon="1.96782">
        <ele>126.07</ele>
        <time>2020-08-27T07:17:19Z</time>
      </trkpt>
      <trkpt lat="48.59132" lon="1.96784">
        <ele>125.59</ele>
        <time>2020-08-27T07:17:20Z</time>
      </trkpt>
      <trkpt lat="48.59131" lon="1.96786">
        <ele>126.07</ele>
        <time>2020-08-27T07:17:21Z</time>
      </trkpt>
      <trkpt lat="48.59131" lon="1.96788">
        <ele>125.59</ele>
        <time>2020-08-27T07:17:22Z</time>
      </trkpt>
      <trkpt lat="48.5913" lon="1.9679">
        <ele>125.59</ele>
        <time>2020-08-27T07:17:23Z</time>
      </trkpt>
      <trkpt lat="48.5913" lon="1.96791">
        <ele>125.59</ele>
        <time>2020-08-27T07:17:24Z</time>
      </trkpt>
      <trkpt lat="48.59129" lon="1.96793">
        <ele>126.07</ele>
        <time>2020-08-27T07:17:25Z</time>
      </trkpt>
      <trkpt lat="48.59128" lon="1.96795">
        <ele>125.59</ele>
        <time>2020-08-27T07:17:26Z</time>
      </trkpt>
      <trkpt lat="48.59127" lon="1.96798">
        <ele>125.59</ele>
        <time>2020-08-27T07:17:27Z</time>
      </trkpt>
      <trkpt lat="48.59126" lon="1.96801">
        <ele>125.59</ele>
        <time>2020-08-27T07:17:28Z</time>
      </trkpt>
      <trkpt lat="48.59126" lon="1.96803">
        <ele>125.59</ele>
        <time>2020-08-27T07:17:29Z</time>
      </trkpt>
      <trkpt lat="48.59125" lon="1.96805">
        <ele>125.59</ele>
        <time>2020-08-27T07:17:30Z</time>
      </trkpt>
      <trkpt lat="48.59125" lon="1.96807">
        <ele>125.59</ele>
        <time>2020-08-27T07:17:31Z</time>
      </trkpt>
      <trkpt lat="48.59125" lon="1.96809">
        <ele>125.11</ele>
        <time>2020-08-27T07:17:32Z</time>
      </trkpt>
      <trkpt lat="48.59124" lon="1.96811">
        <ele>125.11</ele>
        <time>2020-08-27T07:17:33Z</time>
      </trkpt>
      <trkpt lat="48.59124" lon="1.96812">
        <ele>125.11</ele>
        <time>2020-08-27T07:17:34Z</time>
      </trkpt>
      <trkpt lat="48.59123" lon="1.96814">
        <ele>124.63</ele>
        <time>2020-08-27T07:17:35Z</time>
      </trkpt>
      <trkpt lat="48.59122" lon="1.96816">
        <ele>124.63</ele>
        <time>2020-08-27T07:17:36Z</time>
      </trkpt>
      <trkpt lat="48.59122" lon="1.96818">
        <ele>125.11</ele>
        <time>2020-08-27T07:17:37Z</time>
      </trkpt>
      <trkpt lat="48.59121" lon="1.9682">
        <ele>125.11</ele>
        <time>2020-08-27T07:17:38Z</time>
      </trkpt>
      <trkpt lat="48.59121" lon="1.96822">
        <ele>124.63</ele>
        <time>2020-08-27T07:17:39Z</time>
      </trkpt>
      <trkpt lat="48.5912" lon="1.96824">
        <ele>124.63</ele>
        <time>2020-08-27T07:17:40Z</time>
      </trkpt>
      <trkpt lat="48.5912" lon="1.96825">
        <ele>124.63</ele>
        <time>2020-08-27T07:17:41Z</time>
      </trkpt>
      <trkpt lat="48.5912" lon="1.96827">
        <ele>124.63</ele>
        <time>2020-08-27T07:17:42Z</time>
      </trkpt>
      <trkpt lat="48.59119" lon="1.96829">
        <ele>124.63</ele>
        <time>2020-08-27T07:17:43Z</time>
      </trkpt>
      <trkpt lat="48.59118" lon="1.96831">
        <ele>125.11</ele>
        <time>2020-08-27T07:17:44Z</time>
      </trkpt>
      <trkpt lat="48.59118" lon="1.96833">
        <ele>124.63</ele>
        <time>2020-08-27T07:17:45Z</time>
      </trkpt>
      <trkpt lat="48.59117" lon="1.96836">
        <ele>124.63</ele>
        <time>2020-08-27T07:17:46Z</time>
      </trkpt>
      <trkpt lat="48.59117" lon="1.96838">
        <ele>124.63</ele>
        <time>2020-08-27T07:17:47Z</time>
      </trkpt>
      <trkpt lat="48.59116" lon="1.9684">
        <ele>125.11</ele>
        <time>2020-08-27T07:17:48Z</time>
      </trkpt>
      <trkpt lat="48.59115" lon="1.96842">
        <ele>124.63</ele>
        <time>2020-08-27T07:17:49Z</time>
      </trkpt>
      <trkpt lat="48.59115" lon="1.96843">
        <ele>124.63</ele>
        <time>2020-08-27T07:17:50Z</time>
      </trkpt>
      <trkpt lat="48.59114" lon="1.96845">
        <ele>124.63</ele>
        <time>2020-08-27T07:17:51Z</time>
      </trkpt>
      <trkpt lat="48.59114" lon="1.96847">
        <ele>124.63</ele>
        <time>2020-08-27T07:17:52Z</time>
      </trkpt>
      <trkpt lat="48.59114" lon="1.96849">
        <ele>124.63</ele>
        <time>2020-08-27T07:17:53Z</time>
      </trkpt>
      <trkpt lat="48.59113" lon="1.9685">
        <ele>124.63</ele>
        <time>2020-08-27T07:17:54Z</time>
      </trkpt>
      <trkpt lat="48.59112" lon="1.96852">
        <ele>124.63</ele>
        <time>2020-08-27T07:17:55Z</time>
      </trkpt>
      <trkpt lat="48.59111" lon="1.96854">
        <ele>124.63</ele>
        <time>2020-08-27T07:17:56Z</time>
      </trkpt>
      <trkpt lat="48.5911" lon="1.96856">
        <ele>124.63</ele>
        <time>2020-08-27T07:17:57Z</time>
      </trkpt>
      <trkpt lat="48.59109" lon="1.96858">
        <ele>124.15</ele>
        <time>2020-08-27T07:17:58Z</time>
      </trkpt>
      <trkpt lat="48.59109" lon="1.9686">
        <ele>124.63</ele>
        <time>2020-08-27T07:17:59Z</time>
      </trkpt>
      <trkpt lat="48.59109" lon="1.96862">
        <ele>124.63</ele>
        <time>2020-08-27T07:18:00Z</time>
      </trkpt>
      <trkpt lat="48.59108" lon="1.96865">
        <ele>124.63</ele>
        <time>2020-08-27T07:18:01Z</time>
      </trkpt>
      <trkpt lat="48.59107" lon="1.96867">
        <ele>124.15</ele>
        <time>2020-08-27T07:18:02Z</time>
      </trkpt>
      <trkpt lat="48.59107" lon="1.96869">
        <ele>124.63</ele>
        <time>2020-08-27T07:18:03Z</time>
      </trkpt>
      <trkpt lat="48.59107" lon="1.96871">
        <ele>124.63</ele>
        <time>2020-08-27T07:18:04Z</time>
      </trkpt>
      <trkpt lat="48.59106" lon="1.96873">
        <ele>124.63</ele>
        <time>2020-08-27T07:18:05Z</time>
      </trkpt>
      <trkpt lat="48.59106" lon="1.96874">
        <ele>124.63</ele>
        <time>2020-08-27T07:18:06Z</time>
      </trkpt>
      <trkpt lat="48.59106" lon="1.96876">
        <ele>124.63</ele>
        <time>2020-08-27T07:18:07Z</time>
      </trkpt>
      <trkpt lat="48.59105" lon="1.96878">
        <ele>124.63</ele>
        <time>2020-08-27T07:18:08Z</time>
      </trkpt>
      <trkpt lat="48.59105" lon="1.9688">
        <ele>124.15</ele>
        <time>2020-08-27T07:18:09Z</time>
      </trkpt>
      <trkpt lat="48.59105" lon="1.96882">
        <ele>124.15</ele>
        <time>2020-08-27T07:18:10Z</time>
      </trkpt>
      <trkpt lat="48.59104" lon="1.96884">
        <ele>124.15</ele>
        <time>2020-08-27T07:18:11Z</time>
      </trkpt>
      <trkpt lat="48.59103" lon="1.96886">
        <ele>124.15</ele>
        <time>2020-08-27T07:18:12Z</time>
      </trkpt>
      <trkpt lat="48.59103" lon="1.96887">
        <ele>124.15</ele>
        <time>2020-08-27T07:18:13Z</time>
      </trkpt>
      <trkpt lat="48.59103" lon="1.96889">
        <ele>124.15</ele>
        <time>2020-08-27T07:18:14Z</time>
      </trkpt>
      <trkpt lat="48.59103" lon="1.9689">
        <ele>124.15</ele>
        <time>2020-08-27T07:18:15Z</time>
      </trkpt>
      <trkpt lat="48.59103" lon="1.96892">
        <ele>123.67</ele>
        <time>2020-08-27T07:18:16Z</time>
      </trkpt>
      <trkpt lat="48.59103" lon="1.96893">
        <ele>123.67</ele>
        <time>2020-08-27T07:18:17Z</time>
      </trkpt>
      <trkpt lat="48.59102" lon="1.96895">
        <ele>123.67</ele>
        <time>2020-08-27T07:18:18Z</time>
      </trkpt>
      <trkpt lat="48.59102" lon="1.96897">
        <ele>124.15</ele>
        <time>2020-08-27T07:18:19Z</time>
      </trkpt>
      <trkpt lat="48.59102" lon="1.96899">
        <ele>123.67</ele>
        <time>2020-08-27T07:18:20Z</time>
      </trkpt>
      <trkpt lat="48.59101" lon="1.96902">
        <ele>123.67</ele>
        <time>2020-08-27T07:18:21Z</time>
      </trkpt>
      <trkpt lat="48.59101" lon="1.96905">
        <ele>123.67</ele>
        <time>2020-08-27T07:18:22Z</time>
      </trkpt>
      <trkpt lat="48.591" lon="1.96908">
        <ele>123.19</ele>
        <time>2020-08-27T07:18:23Z</time>
      </trkpt>
      <trkpt lat="48.59099" lon="1.9691">
        <ele>123.67</ele>
        <time>2020-08-27T07:18:24Z</time>
      </trkpt>
      <trkpt lat="48.59098" lon="1.96912">
        <ele>123.67</ele>
        <time>2020-08-27T07:18:25Z</time>
      </trkpt>
      <trkpt lat="48.59097" lon="1.96914">
        <ele>123.67</ele>
        <time>2020-08-27T07:18:26Z</time>
      </trkpt>
      <trkpt lat="48.59096" lon="1.96916">
        <ele>123.67</ele>
        <time>2020-08-27T07:18:27Z</time>
      </trkpt>
      <trkpt lat="48.59095" lon="1.96918">
        <ele>123.19</ele>
        <time>2020-08-27T07:18:28Z</time>
      </trkpt>
      <trkpt lat="48.59094" lon="1.9692">
        <ele>123.19</ele>
        <time>2020-08-27T07:18:29Z</time>
      </trkpt>
      <trkpt lat="48.59093" lon="1.96921">
        <ele>123.19</ele>
        <time>2020-08-27T07:18:30Z</time>
      </trkpt>
      <trkpt lat="48.59091" lon="1.96923">
        <ele>122.71</ele>
        <time>2020-08-27T07:18:31Z</time>
      </trkpt>
      <trkpt lat="48.5909" lon="1.96925">
        <ele>123.19</ele>
        <time>2020-08-27T07:18:32Z</time>
      </trkpt>
      <trkpt lat="48.59089" lon="1.96928">
        <ele>122.71</ele>
        <time>2020-08-27T07:18:33Z</time>
      </trkpt>
      <trkpt lat="48.59088" lon="1.9693">
        <ele>123.19</ele>
        <time>2020-08-27T07:18:34Z</time>
      </trkpt>
      <trkpt lat="48.59088" lon="1.96932">
        <ele>123.19</ele>
        <time>2020-08-27T07:18:35Z</time>
      </trkpt>
      <trkpt lat="48.59088" lon="1.96934">
        <ele>123.19</ele>
        <time>2020-08-27T07:18:36Z</time>
      </trkpt>
      <trkpt lat="48.59088" lon="1.96936">
        <ele>123.19</ele>
        <time>2020-08-27T07:18:37Z</time>
      </trkpt>
      <trkpt lat="48.59088" lon="1.96938">
        <ele>123.19</ele>
        <time>2020-08-27T07:18:38Z</time>
      </trkpt>
      <trkpt lat="48.59088" lon="1.9694">
        <ele>123.19</ele>
        <time>2020-08-27T07:18:39Z</time>
      </trkpt>
      <trkpt lat="48.59087" lon="1.96941">
        <ele>122.71</ele>
        <time>2020-08-27T07:18:40Z</time>
      </trkpt>
      <trkpt lat="48.59087" lon="1.96943">
        <ele>123.19</ele>
        <time>2020-08-27T07:18:41Z</time>
      </trkpt>
      <trkpt lat="48.59086" lon="1.96945">
        <ele>123.19</ele>
        <time>2020-08-27T07:18:42Z</time>
      </trkpt>
      <trkpt lat="48.59085" lon="1.96947">
        <ele>123.19</ele>
        <time>2020-08-27T07:18:43Z</time>
      </trkpt>
      <trkpt lat="48.59084" lon="1.96949">
        <ele>123.19</ele>
        <time>2020-08-27T07:18:44Z</time>
      </trkpt>
      <trkpt lat="48.59083" lon="1.96952">
        <ele>123.19</ele>
        <time>2020-08-27T07:18:45Z</time>
      </trkpt>
      <trkpt lat="48.59083" lon="1.96954">
        <ele>123.19</ele>
        <time>2020-08-27T07:18:46Z</time>
      </trkpt>
      <trkpt lat="48.59082" lon="1.96956">
        <ele>123.67</ele>
        <time>2020-08-27T07:18:47Z</time>
      </trkpt>
      <trkpt lat="48.59082" lon="1.96959">
        <ele>123.19</ele>
        <time>2020-08-27T07:18:48Z</time>
      </trkpt>
      <trkpt lat="48.59082" lon="1.9696">
        <ele>123.19</ele>
        <time>2020-08-27T07:18:49Z</time>
      </trkpt>
      <trkpt lat="48.59081" lon="1.96962">
        <ele>123.19</ele>
        <time>2020-08-27T07:18:50Z</time>
      </trkpt>
      <trkpt lat="48.5908" lon="1.96963">
        <ele>123.19</ele>
        <time>2020-08-27T07:18:51Z</time>
      </trkpt>
      <trkpt lat="48.59079" lon="1.96965">
        <ele>123.19</ele>
        <time>2020-08-27T07:18:52Z</time>
      </trkpt>
      <trkpt lat="48.59079" lon="1.96967">
        <ele>123.19</ele>
        <time>2020-08-27T07:18:53Z</time>
      </trkpt>
      <trkpt lat="48.59078" lon="1.9697">
        <ele>122.71</ele>
        <time>2020-08-27T07:18:54Z</time>
      </trkpt>
      <trkpt lat="48.59078" lon="1.96972">
        <ele>123.19</ele>
        <time>2020-08-27T07:18:55Z</time>
      </trkpt>
      <trkpt lat="48.59078" lon="1.96974">
        <ele>123.19</ele>
        <time>2020-08-27T07:18:56Z</time>
      </trkpt>
      <trkpt lat="48.59077" lon="1.96976">
        <ele>123.19</ele>
        <time>2020-08-27T07:18:57Z</time>
      </trkpt>
      <trkpt lat="48.59077" lon="1.96978">
        <ele>123.19</ele>
        <time>2020-08-27T07:18:58Z</time>
      </trkpt>
      <trkpt lat="48.59077" lon="1.96981">
        <ele>123.19</ele>
        <time>2020-08-27T07:18:59Z</time>
      </trkpt>
      <trkpt lat="48.59078" lon="1.96983">
        <ele>123.19</ele>
        <time>2020-08-27T07:19:00Z</time>
      </trkpt>
      <trkpt lat="48.59077" lon="1.96985">
        <ele>123.19</ele>
        <time>2020-08-27T07:19:01Z</time>
      </trkpt>
      <trkpt lat="48.59077" lon="1.96987">
        <ele>122.71</ele>
        <time>2020-08-27T07:19:02Z</time>
      </trkpt>
      <trkpt lat="48.59077" lon="1.96988">
        <ele>123.19</ele>
        <time>2020-08-27T07:19:03Z</time>
      </trkpt>
      <trkpt lat="48.59076" lon="1.9699">
        <ele>123.19</ele>
        <time>2020-08-27T07:19:04Z</time>
      </trkpt>
      <trkpt lat="48.59076" lon="1.96993">
        <ele>122.71</ele>
        <time>2020-08-27T07:19:05Z</time>
      </trkpt>
      <trkpt lat="48.59075" lon="1.96994">
        <ele>122.71</ele>
        <time>2020-08-27T07:19:06Z</time>
      </trkpt>
      <trkpt lat="48.59075" lon="1.96996">
        <ele>123.19</ele>
        <time>2020-08-27T07:19:07Z</time>
      </trkpt>
      <trkpt lat="48.59075" lon="1.96998">
        <ele>123.19</ele>
        <time>2020-08-27T07:19:08Z</time>
      </trkpt>
      <trkpt lat="48.59074" lon="1.97">
        <ele>123.19</ele>
        <time>2020-08-27T07:19:09Z</time>
      </trkpt>
      <trkpt lat="48.59074" lon="1.97003">
        <ele>122.71</ele>
        <time>2020-08-27T07:19:10Z</time>
      </trkpt>
      <trkpt lat="48.59074" lon="1.97005">
        <ele>122.71</ele>
        <time>2020-08-27T07:19:11Z</time>
      </trkpt>
      <trkpt lat="48.59074" lon="1.97007">
        <ele>122.71</ele>
        <time>2020-08-27T07:19:12Z</time>
      </trkpt>
      <trkpt lat="48.59073" lon="1.97009">
        <ele>122.71</ele>
        <time>2020-08-27T07:19:13Z</time>
      </trkpt>
      <trkpt lat="48.59072" lon="1.9701">
        <ele>123.19</ele>
        <time>2020-08-27T07:19:14Z</time>
      </trkpt>
      <trkpt lat="48.59072" lon="1.97012">
        <ele>123.19</ele>
        <time>2020-08-27T07:19:15Z</time>
      </trkpt>
      <trkpt lat="48.59071" lon="1.97013">
        <ele>122.71</ele>
        <time>2020-08-27T07:19:16Z</time>
      </trkpt>
      <trkpt lat="48.5907" lon="1.97015">
        <ele>122.71</ele>
        <time>2020-08-27T07:19:17Z</time>
      </trkpt>
      <trkpt lat="48.59069" lon="1.97017">
        <ele>122.71</ele>
        <time>2020-08-27T07:19:18Z</time>
      </trkpt>
      <trkpt lat="48.59068" lon="1.97019">
        <ele>122.71</ele>
        <time>2020-08-27T07:19:19Z</time>
      </trkpt>
      <trkpt lat="48.59068" lon="1.97021">
        <ele>122.71</ele>
        <time>2020-08-27T07:19:20Z</time>
      </trkpt>
      <trkpt lat="48.59068" lon="1.97023">
        <ele>122.71</ele>
        <time>2020-08-27T07:19:21Z</time>
      </trkpt>
      <trkpt lat="48.59068" lon="1.97026">
        <ele>122.22</ele>
        <time>2020-08-27T07:19:22Z</time>
      </trkpt>
      <trkpt lat="48.59068" lon="1.97028">
        <ele>122.71</ele>
        <time>2020-08-27T07:19:23Z</time>
      </trkpt>
      <trkpt lat="48.59067" lon="1.9703">
        <ele>122.71</ele>
        <time>2020-08-27T07:19:24Z</time>
      </trkpt>
      <trkpt lat="48.59067" lon="1.97032">
        <ele>122.71</ele>
        <time>2020-08-27T07:19:25Z</time>
      </trkpt>
      <trkpt lat="48.59066" lon="1.97034">
        <ele>123.19</ele>
        <time>2020-08-27T07:19:26Z</time>
      </trkpt>
      <trkpt lat="48.59066" lon="1.97035">
        <ele>122.22</ele>
        <time>2020-08-27T07:19:27Z</time>
      </trkpt>
      <trkpt lat="48.59065" lon="1.97037">
        <ele>122.22</ele>
        <time>2020-08-27T07:19:28Z</time>
      </trkpt>
      <trkpt lat="48.59064" lon="1.97039">
        <ele>122.22</ele>
        <time>2020-08-27T07:19:29Z</time>
      </trkpt>
      <trkpt lat="48.59064" lon="1.97042">
        <ele>122.22</ele>
        <time>2020-08-27T07:19:30Z</time>
      </trkpt>
      <trkpt lat="48.59063" lon="1.97044">
        <ele>122.22</ele>
        <time>2020-08-27T07:19:31Z</time>
      </trkpt>
      <trkpt lat="48.59063" lon="1.97047">
        <ele>122.22</ele>
        <time>2020-08-27T07:19:32Z</time>
      </trkpt>
      <trkpt lat="48.59062" lon="1.97049">
        <ele>122.22</ele>
        <time>2020-08-27T07:19:33Z</time>
      </trkpt>
      <trkpt lat="48.59062" lon="1.97051">
        <ele>122.22</ele>
        <time>2020-08-27T07:19:34Z</time>
      </trkpt>
      <trkpt lat="48.59061" lon="1.97053">
        <ele>121.74</ele>
        <time>2020-08-27T07:19:35Z</time>
      </trkpt>
      <trkpt lat="48.5906" lon="1.97056">
        <ele>121.74</ele>
        <time>2020-08-27T07:19:36Z</time>
      </trkpt>
      <trkpt lat="48.5906" lon="1.97058">
        <ele>121.74</ele>
        <time>2020-08-27T07:19:37Z</time>
      </trkpt>
      <trkpt lat="48.59059" lon="1.9706">
        <ele>121.74</ele>
        <time>2020-08-27T07:19:38Z</time>
      </trkpt>
      <trkpt lat="48.59058" lon="1.97062">
        <ele>121.74</ele>
        <time>2020-08-27T07:19:39Z</time>
      </trkpt>
      <trkpt lat="48.59057" lon="1.97065">
        <ele>121.74</ele>
        <time>2020-08-27T07:19:40Z</time>
      </trkpt>
      <trkpt lat="48.59057" lon="1.97067">
        <ele>121.26</ele>
        <time>2020-08-27T07:19:41Z</time>
      </trkpt>
      <trkpt lat="48.59056" lon="1.97069">
        <ele>121.26</ele>
        <time>2020-08-27T07:19:42Z</time>
      </trkpt>
      <trkpt lat="48.59055" lon="1.97071">
        <ele>121.26</ele>
        <time>2020-08-27T07:19:43Z</time>
      </trkpt>
      <trkpt lat="48.59055" lon="1.97073">
        <ele>121.26</ele>
        <time>2020-08-27T07:19:44Z</time>
      </trkpt>
      <trkpt lat="48.59054" lon="1.97075">
        <ele>121.26</ele>
        <time>2020-08-27T07:19:45Z</time>
      </trkpt>
      <trkpt lat="48.59054" lon="1.97078">
        <ele>121.26</ele>
        <time>2020-08-27T07:19:46Z</time>
      </trkpt>
      <trkpt lat="48.59054" lon="1.9708">
        <ele>121.26</ele>
        <time>2020-08-27T07:19:47Z</time>
      </trkpt>
      <trkpt lat="48.59055" lon="1.97081">
        <ele>121.26</ele>
        <time>2020-08-27T07:19:48Z</time>
      </trkpt>
      <trkpt lat="48.59055" lon="1.97084">
        <ele>121.26</ele>
        <time>2020-08-27T07:19:49Z</time>
      </trkpt>
      <trkpt lat="48.59054" lon="1.97087">
        <ele>121.26</ele>
        <time>2020-08-27T07:19:50Z</time>
      </trkpt>
      <trkpt lat="48.59054" lon="1.9709">
        <ele>121.26</ele>
        <time>2020-08-27T07:19:51Z</time>
      </trkpt>
      <trkpt lat="48.59054" lon="1.97092">
        <ele>121.26</ele>
        <time>2020-08-27T07:19:52Z</time>
      </trkpt>
      <trkpt lat="48.59054" lon="1.97095">
        <ele>121.26</ele>
        <time>2020-08-27T07:19:53Z</time>
      </trkpt>
      <trkpt lat="48.59053" lon="1.97097">
        <ele>121.26</ele>
        <time>2020-08-27T07:19:54Z</time>
      </trkpt>
      <trkpt lat="48.59053" lon="1.97098">
        <ele>120.78</ele>
        <time>2020-08-27T07:19:55Z</time>
      </trkpt>
      <trkpt lat="48.59052" lon="1.971">
        <ele>121.26</ele>
        <time>2020-08-27T07:19:56Z</time>
      </trkpt>
      <trkpt lat="48.59051" lon="1.97102">
        <ele>120.78</ele>
        <time>2020-08-27T07:19:57Z</time>
      </trkpt>
      <trkpt lat="48.59051" lon="1.97102">
        <ele>120.78</ele>
        <time>2020-08-27T07:19:58Z</time>
      </trkpt>
      <trkpt lat="48.59051" lon="1.97103">
        <ele>120.78</ele>
        <time>2020-08-27T07:19:59Z</time>
      </trkpt>
      <trkpt lat="48.59051" lon="1.97106">
        <ele>120.78</ele>
        <time>2020-08-27T07:20:00Z</time>
      </trkpt>
      <trkpt lat="48.59051" lon="1.97107">
        <ele>121.26</ele>
        <time>2020-08-27T07:20:01Z</time>
      </trkpt>
      <trkpt lat="48.59051" lon="1.9711">
        <ele>120.78</ele>
        <time>2020-08-27T07:20:02Z</time>
      </trkpt>
      <trkpt lat="48.5905" lon="1.97112">
        <ele>120.78</ele>
        <time>2020-08-27T07:20:03Z</time>
      </trkpt>
      <trkpt lat="48.59049" lon="1.97115">
        <ele>120.78</ele>
        <time>2020-08-27T07:20:04Z</time>
      </trkpt>
      <trkpt lat="48.59048" lon="1.97118">
        <ele>120.78</ele>
        <time>2020-08-27T07:20:05Z</time>
      </trkpt>
      <trkpt lat="48.59047" lon="1.97121">
        <ele>120.78</ele>
        <time>2020-08-27T07:20:06Z</time>
      </trkpt>
      <trkpt lat="48.59047" lon="1.97124">
        <ele>120.78</ele>
        <time>2020-08-27T07:20:07Z</time>
      </trkpt>
      <trkpt lat="48.59046" lon="1.97126">
        <ele>120.78</ele>
        <time>2020-08-27T07:20:08Z</time>
      </trkpt>
      <trkpt lat="48.59045" lon="1.97128">
        <ele>120.3</ele>
        <time>2020-08-27T07:20:09Z</time>
      </trkpt>
      <trkpt lat="48.59045" lon="1.9713">
        <ele>120.3</ele>
        <time>2020-08-27T07:20:10Z</time>
      </trkpt>
      <trkpt lat="48.59044" lon="1.97132">
        <ele>120.3</ele>
        <time>2020-08-27T07:20:11Z</time>
      </trkpt>
      <trkpt lat="48.59043" lon="1.97134">
        <ele>120.3</ele>
        <time>2020-08-27T07:20:12Z</time>
      </trkpt>
      <trkpt lat="48.59043" lon="1.97136">
        <ele>120.3</ele>
        <time>2020-08-27T07:20:13Z</time>
      </trkpt>
      <trkpt lat="48.59042" lon="1.97138">
        <ele>120.3</ele>
        <time>2020-08-27T07:20:14Z</time>
      </trkpt>
      <trkpt lat="48.59042" lon="1.97139">
        <ele>120.3</ele>
        <time>2020-08-27T07:20:15Z</time>
      </trkpt>
      <trkpt lat="48.59042" lon="1.9714">
        <ele>120.3</ele>
        <time>2020-08-27T07:20:16Z</time>
      </trkpt>
      <trkpt lat="48.59041" lon="1.97142">
        <ele>120.3</ele>
        <time>2020-08-27T07:20:17Z</time>
      </trkpt>
      <trkpt lat="48.59041" lon="1.97145">
        <ele>120.3</ele>
        <time>2020-08-27T07:20:18Z</time>
      </trkpt>
      <trkpt lat="48.59041" lon="1.97148">
        <ele>120.3</ele>
        <time>2020-08-27T07:20:19Z</time>
      </trkpt>
      <trkpt lat="48.5904" lon="1.9715">
        <ele>120.3</ele>
        <time>2020-08-27T07:20:20Z</time>
      </trkpt>
      <trkpt lat="48.5904" lon="1.97153">
        <ele>120.3</ele>
        <time>2020-08-27T07:20:21Z</time>
      </trkpt>
      <trkpt lat="48.5904" lon="1.97155">
        <ele>120.3</ele>
        <time>2020-08-27T07:20:22Z</time>
      </trkpt>
      <trkpt lat="48.5904" lon="1.97158">
        <ele>120.3</ele>
        <time>2020-08-27T07:20:23Z</time>
      </trkpt>
      <trkpt lat="48.5904" lon="1.97159">
        <ele>120.3</ele>
        <time>2020-08-27T07:20:24Z</time>
      </trkpt>
      <trkpt lat="48.5904" lon="1.97161">
        <ele>120.3</ele>
        <time>2020-08-27T07:20:25Z</time>
      </trkpt>
      <trkpt lat="48.59039" lon="1.97162">
        <ele>119.82</ele>
        <time>2020-08-27T07:20:26Z</time>
      </trkpt>
      <trkpt lat="48.59039" lon="1.97164">
        <ele>119.82</ele>
        <time>2020-08-27T07:20:27Z</time>
      </trkpt>
      <trkpt lat="48.59039" lon="1.97165">
        <ele>119.82</ele>
        <time>2020-08-27T07:20:28Z</time>
      </trkpt>
      <trkpt lat="48.59038" lon="1.97167">
        <ele>120.3</ele>
        <time>2020-08-27T07:20:29Z</time>
      </trkpt>
      <trkpt lat="48.59038" lon="1.97169">
        <ele>120.3</ele>
        <time>2020-08-27T07:20:30Z</time>
      </trkpt>
      <trkpt lat="48.59037" lon="1.97172">
        <ele>119.82</ele>
        <time>2020-08-27T07:20:31Z</time>
      </trkpt>
      <trkpt lat="48.59036" lon="1.97174">
        <ele>119.82</ele>
        <time>2020-08-27T07:20:32Z</time>
      </trkpt>
      <trkpt lat="48.59036" lon="1.97176">
        <ele>119.82</ele>
        <time>2020-08-27T07:20:33Z</time>
      </trkpt>
      <trkpt lat="48.59036" lon="1.97179">
        <ele>119.82</ele>
        <time>2020-08-27T07:20:34Z</time>
      </trkpt>
      <trkpt lat="48.59035" lon="1.97181">
        <ele>119.82</ele>
        <time>2020-08-27T07:20:35Z</time>
      </trkpt>
      <trkpt lat="48.59035" lon="1.97184">
        <ele>119.82</ele>
        <time>2020-08-27T07:20:36Z</time>
      </trkpt>
      <trkpt lat="48.59034" lon="1.97186">
        <ele>119.82</ele>
        <time>2020-08-27T07:20:37Z</time>
      </trkpt>
      <trkpt lat="48.59035" lon="1.97188">
        <ele>120.3</ele>
        <time>2020-08-27T07:20:38Z</time>
      </trkpt>
      <trkpt lat="48.59035" lon="1.9719">
        <ele>119.82</ele>
        <time>2020-08-27T07:20:39Z</time>
      </trkpt>
      <trkpt lat="48.59034" lon="1.97191">
        <ele>119.82</ele>
        <time>2020-08-27T07:20:40Z</time>
      </trkpt>
      <trkpt lat="48.59034" lon="1.97193">
        <ele>119.82</ele>
        <time>2020-08-27T07:20:41Z</time>
      </trkpt>
      <trkpt lat="48.59034" lon="1.97196">
        <ele>120.3</ele>
        <time>2020-08-27T07:20:42Z</time>
      </trkpt>
      <trkpt lat="48.59033" lon="1.97198">
        <ele>119.82</ele>
        <time>2020-08-27T07:20:43Z</time>
      </trkpt>
      <trkpt lat="48.59033" lon="1.972">
        <ele>119.82</ele>
        <time>2020-08-27T07:20:44Z</time>
      </trkpt>
      <trkpt lat="48.59032" lon="1.97202">
        <ele>119.82</ele>
        <time>2020-08-27T07:20:45Z</time>
      </trkpt>
      <trkpt lat="48.59033" lon="1.97204">
        <ele>119.82</ele>
        <time>2020-08-27T07:20:46Z</time>
      </trkpt>
      <trkpt lat="48.59032" lon="1.97206">
        <ele>119.82</ele>
        <time>2020-08-27T07:20:47Z</time>
      </trkpt>
      <trkpt lat="48.59032" lon="1.97207">
        <ele>119.82</ele>
        <time>2020-08-27T07:20:48Z</time>
      </trkpt>
      <trkpt lat="48.59032" lon="1.97209">
        <ele>119.82</ele>
        <time>2020-08-27T07:20:49Z</time>
      </trkpt>
      <trkpt lat="48.59031" lon="1.97211">
        <ele>119.82</ele>
        <time>2020-08-27T07:20:50Z</time>
      </trkpt>
      <trkpt lat="48.59031" lon="1.97212">
        <ele>119.82</ele>
        <time>2020-08-27T07:20:51Z</time>
      </trkpt>
      <trkpt lat="48.5903" lon="1.97214">
        <ele>119.82</ele>
        <time>2020-08-27T07:20:52Z</time>
      </trkpt>
      <trkpt lat="48.5903" lon="1.97216">
        <ele>119.82</ele>
        <time>2020-08-27T07:20:53Z</time>
      </trkpt>
      <trkpt lat="48.5903" lon="1.97218">
        <ele>119.82</ele>
        <time>2020-08-27T07:20:54Z</time>
      </trkpt>
      <trkpt lat="48.59029" lon="1.97219">
        <ele>119.82</ele>
        <time>2020-08-27T07:20:55Z</time>
      </trkpt>
      <trkpt lat="48.59029" lon="1.97221">
        <ele>119.82</ele>
        <time>2020-08-27T07:20:56Z</time>
      </trkpt>
      <trkpt lat="48.59028" lon="1.97223">
        <ele>119.82</ele>
        <time>2020-08-27T07:20:57Z</time>
      </trkpt>
      <trkpt lat="48.59028" lon="1.97224">
        <ele>119.34</ele>
        <time>2020-08-27T07:20:58Z</time>
      </trkpt>
      <trkpt lat="48.59027" lon="1.97226">
        <ele>119.82</ele>
        <time>2020-08-27T07:20:59Z</time>
      </trkpt>
      <trkpt lat="48.59027" lon="1.97229">
        <ele>119.82</ele>
        <time>2020-08-27T07:21:00Z</time>
      </trkpt>
      <trkpt lat="48.59027" lon="1.97231">
        <ele>119.34</ele>
        <time>2020-08-27T07:21:01Z</time>
      </trkpt>
      <trkpt lat="48.59027" lon="1.97234">
        <ele>119.34</ele>
        <time>2020-08-27T07:21:02Z</time>
      </trkpt>
      <trkpt lat="48.59027" lon="1.97236">
        <ele>119.34</ele>
        <time>2020-08-27T07:21:03Z</time>
      </trkpt>
      <trkpt lat="48.59027" lon="1.97239">
        <ele>119.82</ele>
        <time>2020-08-27T07:21:04Z</time>
      </trkpt>
      <trkpt lat="48.59026" lon="1.97241">
        <ele>119.82</ele>
        <time>2020-08-27T07:21:05Z</time>
      </trkpt>
      <trkpt lat="48.59026" lon="1.97243">
        <ele>119.34</ele>
        <time>2020-08-27T07:21:06Z</time>
      </trkpt>
      <trkpt lat="48.59026" lon="1.97245">
        <ele>119.34</ele>
        <time>2020-08-27T07:21:07Z</time>
      </trkpt>
      <trkpt lat="48.59026" lon="1.97247">
        <ele>119.34</ele>
        <time>2020-08-27T07:21:08Z</time>
      </trkpt>
      <trkpt lat="48.59026" lon="1.97249">
        <ele>119.34</ele>
        <time>2020-08-27T07:21:09Z</time>
      </trkpt>
      <trkpt lat="48.59026" lon="1.9725">
        <ele>119.82</ele>
        <time>2020-08-27T07:21:10Z</time>
      </trkpt>
      <trkpt lat="48.59026" lon="1.97253">
        <ele>119.82</ele>
        <time>2020-08-27T07:21:11Z</time>
      </trkpt>
      <trkpt lat="48.59027" lon="1.97254">
        <ele>119.82</ele>
        <time>2020-08-27T07:21:12Z</time>
      </trkpt>
      <trkpt lat="48.59027" lon="1.97256">
        <ele>119.82</ele>
        <time>2020-08-27T07:21:13Z</time>
      </trkpt>
      <trkpt lat="48.59028" lon="1.97257">
        <ele>120.3</ele>
        <time>2020-08-27T07:21:14Z</time>
      </trkpt>
      <trkpt lat="48.59028" lon="1.97259">
        <ele>119.82</ele>
        <time>2020-08-27T07:21:15Z</time>
      </trkpt>
      <trkpt lat="48.59029" lon="1.9726">
        <ele>120.3</ele>
        <time>2020-08-27T07:21:16Z</time>
      </trkpt>
      <trkpt lat="48.59029" lon="1.97261">
        <ele>119.82</ele>
        <time>2020-08-27T07:21:17Z</time>
      </trkpt>
      <trkpt lat="48.5903" lon="1.97262">
        <ele>120.3</ele>
        <time>2020-08-27T07:21:18Z</time>
      </trkpt>
      <trkpt lat="48.59031" lon="1.97264">
        <ele>120.3</ele>
        <time>2020-08-27T07:21:19Z</time>
      </trkpt>
      <trkpt lat="48.59032" lon="1.97264">
        <ele>120.3</ele>
        <time>2020-08-27T07:21:20Z</time>
      </trkpt>
      <trkpt lat="48.59033" lon="1.97265">
        <ele>119.82</ele>
        <time>2020-08-27T07:21:21Z</time>
      </trkpt>
      <trkpt lat="48.59034" lon="1.97266">
        <ele>120.3</ele>
        <time>2020-08-27T07:21:22Z</time>
      </trkpt>
      <trkpt lat="48.59035" lon="1.97267">
        <ele>120.3</ele>
        <time>2020-08-27T07:21:23Z</time>
      </trkpt>
      <trkpt lat="48.59036" lon="1.97268">
        <ele>120.3</ele>
        <time>2020-08-27T07:21:24Z</time>
      </trkpt>
      <trkpt lat="48.59037" lon="1.97269">
        <ele>120.3</ele>
        <time>2020-08-27T07:21:25Z</time>
      </trkpt>
      <trkpt lat="48.59038" lon="1.97269">
        <ele>121.26</ele>
        <time>2020-08-27T07:21:26Z</time>
      </trkpt>
      <trkpt lat="48.59039" lon="1.97271">
        <ele>120.3</ele>
        <time>2020-08-27T07:21:27Z</time>
      </trkpt>
      <trkpt lat="48.59041" lon="1.97272">
        <ele>120.3</ele>
        <time>2020-08-27T07:21:28Z</time>
      </trkpt>
      <trkpt lat="48.59043" lon="1.97273">
        <ele>120.3</ele>
        <time>2020-08-27T07:21:29Z</time>
      </trkpt>
      <trkpt lat="48.59044" lon="1.97273">
        <ele>120.3</ele>
        <time>2020-08-27T07:21:30Z</time>
      </trkpt>
      <trkpt lat="48.59046" lon="1.97275">
        <ele>120.3</ele>
        <time>2020-08-27T07:21:31Z</time>
      </trkpt>
      <trkpt lat="48.59048" lon="1.97276">
        <ele>120.3</ele>
        <time>2020-08-27T07:21:32Z</time>
      </trkpt>
      <trkpt lat="48.59049" lon="1.97277">
        <ele>120.3</ele>
        <time>2020-08-27T07:21:33Z</time>
      </trkpt>
      <trkpt lat="48.5905" lon="1.97278">
        <ele>120.3</ele>
        <time>2020-08-27T07:21:34Z</time>
      </trkpt>
      <trkpt lat="48.59052" lon="1.97279">
        <ele>120.3</ele>
        <time>2020-08-27T07:21:35Z</time>
      </trkpt>
      <trkpt lat="48.59053" lon="1.9728">
        <ele>120.78</ele>
        <time>2020-08-27T07:21:36Z</time>
      </trkpt>
      <trkpt lat="48.59054" lon="1.97281">
        <ele>120.3</ele>
        <time>2020-08-27T07:21:37Z</time>
      </trkpt>
      <trkpt lat="48.59056" lon="1.97282">
        <ele>120.78</ele>
        <time>2020-08-27T07:21:38Z</time>
      </trkpt>
      <trkpt lat="48.59057" lon="1.97283">
        <ele>120.3</ele>
        <time>2020-08-27T07:21:39Z</time>
      </trkpt>
      <trkpt lat="48.59059" lon="1.97284">
        <ele>120.78</ele>
        <time>2020-08-27T07:21:40Z</time>
      </trkpt>
      <trkpt lat="48.5906" lon="1.97285">
        <ele>120.78</ele>
        <time>2020-08-27T07:21:41Z</time>
      </trkpt>
      <trkpt lat="48.59062" lon="1.97287">
        <ele>120.78</ele>
        <time>2020-08-27T07:21:42Z</time>
      </trkpt>
      <trkpt lat="48.59064" lon="1.97288">
        <ele>120.78</ele>
        <time>2020-08-27T07:21:43Z</time>
      </trkpt>
      <trkpt lat="48.59065" lon="1.9729">
        <ele>120.3</ele>
        <time>2020-08-27T07:21:44Z</time>
      </trkpt>
      <trkpt lat="48.59066" lon="1.9729">
        <ele>120.78</ele>
        <time>2020-08-27T07:21:45Z</time>
      </trkpt>
      <trkpt lat="48.59067" lon="1.97291">
        <ele>120.78</ele>
        <time>2020-08-27T07:21:46Z</time>
      </trkpt>
      <trkpt lat="48.59068" lon="1.97292">
        <ele>120.78</ele>
        <time>2020-08-27T07:21:47Z</time>
      </trkpt>
      <trkpt lat="48.59069" lon="1.97294">
        <ele>120.78</ele>
        <time>2020-08-27T07:21:48Z</time>
      </trkpt>
      <trkpt lat="48.5907" lon="1.97295">
        <ele>120.78</ele>
        <time>2020-08-27T07:21:49Z</time>
      </trkpt>
      <trkpt lat="48.59071" lon="1.97296">
        <ele>120.78</ele>
        <time>2020-08-27T07:21:50Z</time>
      </trkpt>
      <trkpt lat="48.59071" lon="1.97297">
        <ele>121.26</ele>
        <time>2020-08-27T07:21:51Z</time>
      </trkpt>
      <trkpt lat="48.59072" lon="1.97298">
        <ele>120.78</ele>
        <time>2020-08-27T07:21:52Z</time>
      </trkpt>
      <trkpt lat="48.59073" lon="1.97299">
        <ele>120.78</ele>
        <time>2020-08-27T07:21:53Z</time>
      </trkpt>
      <trkpt lat="48.59074" lon="1.973">
        <ele>121.26</ele>
        <time>2020-08-27T07:21:54Z</time>
      </trkpt>
      <trkpt lat="48.59076" lon="1.97301">
        <ele>121.26</ele>
        <time>2020-08-27T07:21:55Z</time>
      </trkpt>
      <trkpt lat="48.59078" lon="1.97302">
        <ele>121.26</ele>
        <time>2020-08-27T07:21:56Z</time>
      </trkpt>
      <trkpt lat="48.59079" lon="1.97304">
        <ele>121.26</ele>
        <time>2020-08-27T07:21:57Z</time>
      </trkpt>
      <trkpt lat="48.59081" lon="1.97306">
        <ele>121.26</ele>
        <time>2020-08-27T07:21:58Z</time>
      </trkpt>
      <trkpt lat="48.59082" lon="1.97308">
        <ele>121.26</ele>
        <time>2020-08-27T07:21:59Z</time>
      </trkpt>
      <trkpt lat="48.59083" lon="1.97309">
        <ele>121.26</ele>
        <time>2020-08-27T07:22:00Z</time>
      </trkpt>
      <trkpt lat="48.59084" lon="1.9731">
        <ele>121.74</ele>
        <time>2020-08-27T07:22:01Z</time>
      </trkpt>
      <trkpt lat="48.59084" lon="1.9731">
        <ele>121.26</ele>
        <time>2020-08-27T07:22:02Z</time>
      </trkpt>
      <trkpt lat="48.59085" lon="1.97312">
        <ele>121.26</ele>
        <time>2020-08-27T07:22:03Z</time>
      </trkpt>
      <trkpt lat="48.59086" lon="1.97313">
        <ele>121.74</ele>
        <time>2020-08-27T07:22:04Z</time>
      </trkpt>
      <trkpt lat="48.59086" lon="1.97314">
        <ele>121.74</ele>
        <time>2020-08-27T07:22:05Z</time>
      </trkpt>
      <trkpt lat="48.59087" lon="1.97315">
        <ele>121.74</ele>
        <time>2020-08-27T07:22:06Z</time>
      </trkpt>
      <trkpt lat="48.59089" lon="1.97316">
        <ele>121.74</ele>
        <time>2020-08-27T07:22:07Z</time>
      </trkpt>
      <trkpt lat="48.5909" lon="1.97317">
        <ele>121.74</ele>
        <time>2020-08-27T07:22:08Z</time>
      </trkpt>
      <trkpt lat="48.59092" lon="1.97317">
        <ele>121.74</ele>
        <time>2020-08-27T07:22:09Z</time>
      </trkpt>
      <trkpt lat="48.59093" lon="1.97318">
        <ele>121.74</ele>
        <time>2020-08-27T07:22:10Z</time>
      </trkpt>
      <trkpt lat="48.59094" lon="1.97318">
        <ele>122.22</ele>
        <time>2020-08-27T07:22:11Z</time>
      </trkpt>
      <trkpt lat="48.59096" lon="1.97319">
        <ele>122.22</ele>
        <time>2020-08-27T07:22:12Z</time>
      </trkpt>
      <trkpt lat="48.59097" lon="1.9732">
        <ele>122.22</ele>
        <time>2020-08-27T07:22:13Z</time>
      </trkpt>
      <trkpt lat="48.59098" lon="1.9732">
        <ele>122.22</ele>
        <time>2020-08-27T07:22:14Z</time>
      </trkpt>
      <trkpt lat="48.591" lon="1.97321">
        <ele>122.22</ele>
        <time>2020-08-27T07:22:15Z</time>
      </trkpt>
      <trkpt lat="48.59101" lon="1.97323">
        <ele>122.22</ele>
        <time>2020-08-27T07:22:16Z</time>
      </trkpt>
      <trkpt lat="48.59103" lon="1.97324">
        <ele>122.22</ele>
        <time>2020-08-27T07:22:17Z</time>
      </trkpt>
      <trkpt lat="48.59104" lon="1.97325">
        <ele>122.22</ele>
        <time>2020-08-27T07:22:18Z</time>
      </trkpt>
      <trkpt lat="48.59105" lon="1.97326">
        <ele>122.71</ele>
        <time>2020-08-27T07:22:19Z</time>
      </trkpt>
      <trkpt lat="48.59107" lon="1.97327">
        <ele>122.71</ele>
        <time>2020-08-27T07:22:20Z</time>
      </trkpt>
      <trkpt lat="48.59108" lon="1.97328">
        <ele>122.71</ele>
        <time>2020-08-27T07:22:21Z</time>
      </trkpt>
      <trkpt lat="48.59108" lon="1.97328">
        <ele>122.71</ele>
        <time>2020-08-27T07:22:22Z</time>
      </trkpt>
      <trkpt lat="48.59109" lon="1.97327">
        <ele>122.71</ele>
        <time>2020-08-27T07:22:23Z</time>
      </trkpt>
      <trkpt lat="48.5911" lon="1.97327">
        <ele>122.71</ele>
        <time>2020-08-27T07:22:24Z</time>
      </trkpt>
      <trkpt lat="48.5911" lon="1.97326">
        <ele>122.71</ele>
        <time>2020-08-27T07:22:29Z</time>
      </trkpt>
      <trkpt lat="48.59111" lon="1.97324">
        <ele>122.71</ele>
        <time>2020-08-27T07:22:30Z</time>
      </trkpt>
      <trkpt lat="48.59112" lon="1.97321">
        <ele>122.71</ele>
        <time>2020-08-27T07:22:31Z</time>
      </trkpt>
      <trkpt lat="48.59114" lon="1.97319">
        <ele>122.71</ele>
        <time>2020-08-27T07:22:32Z</time>
      </trkpt>
      <trkpt lat="48.59115" lon="1.97317">
        <ele>122.71</ele>
        <time>2020-08-27T07:22:33Z</time>
      </trkpt>
      <trkpt lat="48.59116" lon="1.97314">
        <ele>122.71</ele>
        <time>2020-08-27T07:22:34Z</time>
      </trkpt>
      <trkpt lat="48.59116" lon="1.97312">
        <ele>122.71</ele>
        <time>2020-08-27T07:22:35Z</time>
      </trkpt>
      <trkpt lat="48.59117" lon="1.9731">
        <ele>122.22</ele>
        <time>2020-08-27T07:22:36Z</time>
      </trkpt>
      <trkpt lat="48.59118" lon="1.97308">
        <ele>122.71</ele>
        <time>2020-08-27T07:22:37Z</time>
      </trkpt>
      <trkpt lat="48.59119" lon="1.97306">
        <ele>123.19</ele>
        <time>2020-08-27T07:22:38Z</time>
      </trkpt>
      <trkpt lat="48.59121" lon="1.97304">
        <ele>122.71</ele>
        <time>2020-08-27T07:22:39Z</time>
      </trkpt>
      <trkpt lat="48.59122" lon="1.97302">
        <ele>122.71</ele>
        <time>2020-08-27T07:22:40Z</time>
      </trkpt>
      <trkpt lat="48.59123" lon="1.973">
        <ele>122.71</ele>
        <time>2020-08-27T07:22:41Z</time>
      </trkpt>
      <trkpt lat="48.59124" lon="1.97298">
        <ele>123.19</ele>
        <time>2020-08-27T07:22:42Z</time>
      </trkpt>
      <trkpt lat="48.59126" lon="1.97296">
        <ele>123.19</ele>
        <time>2020-08-27T07:22:43Z</time>
      </trkpt>
      <trkpt lat="48.59127" lon="1.97295">
        <ele>123.19</ele>
        <time>2020-08-27T07:22:44Z</time>
      </trkpt>
      <trkpt lat="48.59128" lon="1.97293">
        <ele>123.19</ele>
        <time>2020-08-27T07:22:45Z</time>
      </trkpt>
      <trkpt lat="48.59129" lon="1.97291">
        <ele>123.19</ele>
        <time>2020-08-27T07:22:46Z</time>
      </trkpt>
      <trkpt lat="48.59129" lon="1.97289">
        <ele>123.19</ele>
        <time>2020-08-27T07:22:47Z</time>
      </trkpt>
      <trkpt lat="48.5913" lon="1.97287">
        <ele>123.19</ele>
        <time>2020-08-27T07:22:48Z</time>
      </trkpt>
      <trkpt lat="48.5913" lon="1.97285">
        <ele>123.19</ele>
        <time>2020-08-27T07:22:49Z</time>
      </trkpt>
      <trkpt lat="48.59131" lon="1.97282">
        <ele>123.19</ele>
        <time>2020-08-27T07:22:50Z</time>
      </trkpt>
      <trkpt lat="48.59131" lon="1.9728">
        <ele>123.67</ele>
        <time>2020-08-27T07:22:51Z</time>
      </trkpt>
      <trkpt lat="48.59131" lon="1.97278">
        <ele>123.67</ele>
        <time>2020-08-27T07:22:52Z</time>
      </trkpt>
      <trkpt lat="48.59132" lon="1.97276">
        <ele>123.67</ele>
        <time>2020-08-27T07:22:53Z</time>
      </trkpt>
      <trkpt lat="48.59133" lon="1.97275">
        <ele>123.67</ele>
        <time>2020-08-27T07:22:54Z</time>
      </trkpt>
      <trkpt lat="48.59133" lon="1.97273">
        <ele>123.67</ele>
        <time>2020-08-27T07:22:55Z</time>
      </trkpt>
      <trkpt lat="48.59134" lon="1.97271">
        <ele>123.67</ele>
        <time>2020-08-27T07:22:56Z</time>
      </trkpt>
      <trkpt lat="48.59135" lon="1.97269">
        <ele>123.67</ele>
        <time>2020-08-27T07:22:57Z</time>
      </trkpt>
      <trkpt lat="48.59136" lon="1.97268">
        <ele>123.67</ele>
        <time>2020-08-27T07:22:58Z</time>
      </trkpt>
      <trkpt lat="48.59136" lon="1.97266">
        <ele>124.15</ele>
        <time>2020-08-27T07:22:59Z</time>
      </trkpt>
      <trkpt lat="48.59137" lon="1.97264">
        <ele>123.67</ele>
        <time>2020-08-27T07:23:00Z</time>
      </trkpt>
      <trkpt lat="48.59138" lon="1.97262">
        <ele>123.67</ele>
        <time>2020-08-27T07:23:01Z</time>
      </trkpt>
      <trkpt lat="48.59138" lon="1.97261">
        <ele>123.67</ele>
        <time>2020-08-27T07:23:02Z</time>
      </trkpt>
      <trkpt lat="48.59139" lon="1.9726">
        <ele>123.67</ele>
        <time>2020-08-27T07:23:03Z</time>
      </trkpt>
      <trkpt lat="48.5914" lon="1.97258">
        <ele>124.15</ele>
        <time>2020-08-27T07:23:04Z</time>
      </trkpt>
      <trkpt lat="48.59141" lon="1.97256">
        <ele>123.67</ele>
        <time>2020-08-27T07:23:05Z</time>
      </trkpt>
      <trkpt lat="48.59142" lon="1.97255">
        <ele>123.67</ele>
        <time>2020-08-27T07:23:06Z</time>
      </trkpt>
      <trkpt lat="48.59143" lon="1.97254">
        <ele>123.67</ele>
        <time>2020-08-27T07:23:07Z</time>
      </trkpt>
      <trkpt lat="48.59143" lon="1.97253">
        <ele>124.15</ele>
        <time>2020-08-27T07:23:08Z</time>
      </trkpt>
      <trkpt lat="48.59144" lon="1.97251">
        <ele>124.15</ele>
        <time>2020-08-27T07:23:09Z</time>
      </trkpt>
      <trkpt lat="48.59145" lon="1.9725">
        <ele>124.15</ele>
        <time>2020-08-27T07:23:10Z</time>
      </trkpt>
      <trkpt lat="48.59145" lon="1.97248">
        <ele>124.15</ele>
        <time>2020-08-27T07:23:11Z</time>
      </trkpt>
      <trkpt lat="48.59146" lon="1.97246">
        <ele>124.15</ele>
        <time>2020-08-27T07:23:12Z</time>
      </trkpt>
      <trkpt lat="48.59146" lon="1.97244">
        <ele>123.67</ele>
        <time>2020-08-27T07:23:13Z</time>
      </trkpt>
      <trkpt lat="48.59147" lon="1.97243">
        <ele>123.67</ele>
        <time>2020-08-27T07:23:14Z</time>
      </trkpt>
      <trkpt lat="48.59149" lon="1.97241">
        <ele>124.15</ele>
        <time>2020-08-27T07:23:15Z</time>
      </trkpt>
      <trkpt lat="48.5915" lon="1.97238">
        <ele>124.15</ele>
        <time>2020-08-27T07:23:16Z</time>
      </trkpt>
      <trkpt lat="48.59151" lon="1.97236">
        <ele>124.15</ele>
        <time>2020-08-27T07:23:17Z</time>
      </trkpt>
      <trkpt lat="48.59152" lon="1.97234">
        <ele>124.15</ele>
        <time>2020-08-27T07:23:18Z</time>
      </trkpt>
      <trkpt lat="48.59152" lon="1.97232">
        <ele>124.15</ele>
        <time>2020-08-27T07:23:19Z</time>
      </trkpt>
      <trkpt lat="48.59153" lon="1.9723">
        <ele>124.15</ele>
        <time>2020-08-27T07:23:20Z</time>
      </trkpt>
      <trkpt lat="48.59153" lon="1.97229">
        <ele>124.15</ele>
        <time>2020-08-27T07:23:21Z</time>
      </trkpt>
      <trkpt lat="48.59154" lon="1.97227">
        <ele>123.67</ele>
        <time>2020-08-27T07:23:22Z</time>
      </trkpt>
      <trkpt lat="48.59155" lon="1.97225">
        <ele>124.15</ele>
        <time>2020-08-27T07:23:23Z</time>
      </trkpt>
      <trkpt lat="48.59155" lon="1.97223">
        <ele>124.15</ele>
        <time>2020-08-27T07:23:24Z</time>
      </trkpt>
      <trkpt lat="48.59156" lon="1.97221">
        <ele>124.15</ele>
        <time>2020-08-27T07:23:25Z</time>
      </trkpt>
      <trkpt lat="48.59157" lon="1.9722">
        <ele>125.11</ele>
        <time>2020-08-27T07:23:26Z</time>
      </trkpt>
      <trkpt lat="48.59158" lon="1.97218">
        <ele>124.15</ele>
        <time>2020-08-27T07:23:27Z</time>
      </trkpt>
      <trkpt lat="48.59159" lon="1.97216">
        <ele>124.15</ele>
        <time>2020-08-27T07:23:28Z</time>
      </trkpt>
      <trkpt lat="48.5916" lon="1.97214">
        <ele>124.15</ele>
        <time>2020-08-27T07:23:29Z</time>
      </trkpt>
      <trkpt lat="48.59161" lon="1.97213">
        <ele>124.15</ele>
        <time>2020-08-27T07:23:30Z</time>
      </trkpt>
      <trkpt lat="48.59162" lon="1.97211">
        <ele>124.15</ele>
        <time>2020-08-27T07:23:31Z</time>
      </trkpt>
      <trkpt lat="48.59163" lon="1.9721">
        <ele>124.15</ele>
        <time>2020-08-27T07:23:32Z</time>
      </trkpt>
      <trkpt lat="48.59164" lon="1.97208">
        <ele>124.15</ele>
        <time>2020-08-27T07:23:33Z</time>
      </trkpt>
      <trkpt lat="48.59165" lon="1.97206">
        <ele>124.15</ele>
        <time>2020-08-27T07:23:34Z</time>
      </trkpt>
      <trkpt lat="48.59166" lon="1.97204">
        <ele>124.15</ele>
        <time>2020-08-27T07:23:35Z</time>
      </trkpt>
      <trkpt lat="48.59167" lon="1.97202">
        <ele>124.63</ele>
        <time>2020-08-27T07:23:36Z</time>
      </trkpt>
      <trkpt lat="48.59168" lon="1.972">
        <ele>124.63</ele>
        <time>2020-08-27T07:23:37Z</time>
      </trkpt>
      <trkpt lat="48.59169" lon="1.97198">
        <ele>124.63</ele>
        <time>2020-08-27T07:23:38Z</time>
      </trkpt>
      <trkpt lat="48.5917" lon="1.97197">
        <ele>124.63</ele>
        <time>2020-08-27T07:23:39Z</time>
      </trkpt>
      <trkpt lat="48.59171" lon="1.97195">
        <ele>124.63</ele>
        <time>2020-08-27T07:23:40Z</time>
      </trkpt>
      <trkpt lat="48.59172" lon="1.97194">
        <ele>124.63</ele>
        <time>2020-08-27T07:23:41Z</time>
      </trkpt>
      <trkpt lat="48.59174" lon="1.97192">
        <ele>124.63</ele>
        <time>2020-08-27T07:23:42Z</time>
      </trkpt>
      <trkpt lat="48.59174" lon="1.9719">
        <ele>124.63</ele>
        <time>2020-08-27T07:23:43Z</time>
      </trkpt>
      <trkpt lat="48.59175" lon="1.97189">
        <ele>124.63</ele>
        <time>2020-08-27T07:23:44Z</time>
      </trkpt>
      <trkpt lat="48.59176" lon="1.97187">
        <ele>124.63</ele>
        <time>2020-08-27T07:23:45Z</time>
      </trkpt>
      <trkpt lat="48.59176" lon="1.97185">
        <ele>124.63</ele>
        <time>2020-08-27T07:23:46Z</time>
      </trkpt>
      <trkpt lat="48.59177" lon="1.97183">
        <ele>125.11</ele>
        <time>2020-08-27T07:23:47Z</time>
      </trkpt>
      <trkpt lat="48.59178" lon="1.97182">
        <ele>125.11</ele>
        <time>2020-08-27T07:23:48Z</time>
      </trkpt>
      <trkpt lat="48.59179" lon="1.97181">
        <ele>125.11</ele>
        <time>2020-08-27T07:23:49Z</time>
      </trkpt>
      <trkpt lat="48.5918" lon="1.97181">
        <ele>125.11</ele>
        <time>2020-08-27T07:23:50Z</time>
      </trkpt>
      <trkpt lat="48.59181" lon="1.9718">
        <ele>125.11</ele>
        <time>2020-08-27T07:23:51Z</time>
      </trkpt>
      <trkpt lat="48.59181" lon="1.97178">
        <ele>125.11</ele>
        <time>2020-08-27T07:23:52Z</time>
      </trkpt>
      <trkpt lat="48.59182" lon="1.97176">
        <ele>125.11</ele>
        <time>2020-08-27T07:23:53Z</time>
      </trkpt>
      <trkpt lat="48.59183" lon="1.97174">
        <ele>125.59</ele>
        <time>2020-08-27T07:23:54Z</time>
      </trkpt>
      <trkpt lat="48.59183" lon="1.97173">
        <ele>125.59</ele>
        <time>2020-08-27T07:23:55Z</time>
      </trkpt>
      <trkpt lat="48.59184" lon="1.97171">
        <ele>125.59</ele>
        <time>2020-08-27T07:23:56Z</time>
      </trkpt>
      <trkpt lat="48.59185" lon="1.9717">
        <ele>125.59</ele>
        <time>2020-08-27T07:23:57Z</time>
      </trkpt>
      <trkpt lat="48.59186" lon="1.97168">
        <ele>125.59</ele>
        <time>2020-08-27T07:23:58Z</time>
      </trkpt>
      <trkpt lat="48.59186" lon="1.97167">
        <ele>125.59</ele>
        <time>2020-08-27T07:23:59Z</time>
      </trkpt>
      <trkpt lat="48.59187" lon="1.97165">
        <ele>125.59</ele>
        <time>2020-08-27T07:24:00Z</time>
      </trkpt>
      <trkpt lat="48.59188" lon="1.97163">
        <ele>125.59</ele>
        <time>2020-08-27T07:24:01Z</time>
      </trkpt>
      <trkpt lat="48.59188" lon="1.97162">
        <ele>126.07</ele>
        <time>2020-08-27T07:24:02Z</time>
      </trkpt>
      <trkpt lat="48.59189" lon="1.9716">
        <ele>126.55</ele>
        <time>2020-08-27T07:24:03Z</time>
      </trkpt>
      <trkpt lat="48.59189" lon="1.97158">
        <ele>126.07</ele>
        <time>2020-08-27T07:24:04Z</time>
      </trkpt>
      <trkpt lat="48.5919" lon="1.97156">
        <ele>126.07</ele>
        <time>2020-08-27T07:24:05Z</time>
      </trkpt>
      <trkpt lat="48.59191" lon="1.97154">
        <ele>126.55</ele>
        <time>2020-08-27T07:24:06Z</time>
      </trkpt>
      <trkpt lat="48.59192" lon="1.97153">
        <ele>126.55</ele>
        <time>2020-08-27T07:24:07Z</time>
      </trkpt>
      <trkpt lat="48.59192" lon="1.97151">
        <ele>126.55</ele>
        <time>2020-08-27T07:24:08Z</time>
      </trkpt>
      <trkpt lat="48.59193" lon="1.97149">
        <ele>127.03</ele>
        <time>2020-08-27T07:24:09Z</time>
      </trkpt>
      <trkpt lat="48.59193" lon="1.97147">
        <ele>127.03</ele>
        <time>2020-08-27T07:24:10Z</time>
      </trkpt>
      <trkpt lat="48.59194" lon="1.97145">
        <ele>126.55</ele>
        <time>2020-08-27T07:24:11Z</time>
      </trkpt>
      <trkpt lat="48.59194" lon="1.97143">
        <ele>127.03</ele>
        <time>2020-08-27T07:24:12Z</time>
      </trkpt>
      <trkpt lat="48.59195" lon="1.97141">
        <ele>127.03</ele>
        <time>2020-08-27T07:24:13Z</time>
      </trkpt>
      <trkpt lat="48.59196" lon="1.9714">
        <ele>126.55</ele>
        <time>2020-08-27T07:24:14Z</time>
      </trkpt>
      <trkpt lat="48.59197" lon="1.97139">
        <ele>127.51</ele>
        <time>2020-08-27T07:24:15Z</time>
      </trkpt>
      <trkpt lat="48.59198" lon="1.97137">
        <ele>127.51</ele>
        <time>2020-08-27T07:24:16Z</time>
      </trkpt>
      <trkpt lat="48.592" lon="1.97135">
        <ele>127.03</ele>
        <time>2020-08-27T07:24:17Z</time>
      </trkpt>
      <trkpt lat="48.592" lon="1.97134">
        <ele>127.51</ele>
        <time>2020-08-27T07:24:18Z</time>
      </trkpt>
      <trkpt lat="48.59201" lon="1.97132">
        <ele>127.51</ele>
        <time>2020-08-27T07:24:19Z</time>
      </trkpt>
      <trkpt lat="48.59202" lon="1.9713">
        <ele>127.51</ele>
        <time>2020-08-27T07:24:20Z</time>
      </trkpt>
      <trkpt lat="48.59203" lon="1.97129">
        <ele>127.51</ele>
        <time>2020-08-27T07:24:21Z</time>
      </trkpt>
      <trkpt lat="48.59203" lon="1.97127">
        <ele>127.99</ele>
        <time>2020-08-27T07:24:22Z</time>
      </trkpt>
      <trkpt lat="48.59204" lon="1.97125">
        <ele>127.99</ele>
        <time>2020-08-27T07:24:23Z</time>
      </trkpt>
      <trkpt lat="48.59204" lon="1.97124">
        <ele>127.99</ele>
        <time>2020-08-27T07:24:24Z</time>
      </trkpt>
      <trkpt lat="48.59205" lon="1.97122">
        <ele>127.99</ele>
        <time>2020-08-27T07:24:25Z</time>
      </trkpt>
      <trkpt lat="48.59206" lon="1.9712">
        <ele>127.99</ele>
        <time>2020-08-27T07:24:26Z</time>
      </trkpt>
      <trkpt lat="48.59207" lon="1.97119">
        <ele>127.99</ele>
        <time>2020-08-27T07:24:27Z</time>
      </trkpt>
      <trkpt lat="48.59208" lon="1.97117">
        <ele>127.99</ele>
        <time>2020-08-27T07:24:28Z</time>
      </trkpt>
      <trkpt lat="48.59209" lon="1.97115">
        <ele>127.99</ele>
        <time>2020-08-27T07:24:29Z</time>
      </trkpt>
      <trkpt lat="48.5921" lon="1.97113">
        <ele>127.99</ele>
        <time>2020-08-27T07:24:30Z</time>
      </trkpt>
      <trkpt lat="48.59211" lon="1.97113">
        <ele>127.99</ele>
        <time>2020-08-27T07:24:31Z</time>
      </trkpt>
      <trkpt lat="48.5921" lon="1.97113">
        <ele>127.99</ele>
        <time>2020-08-27T07:24:32Z</time>
      </trkpt>
      <trkpt lat="48.5921" lon="1.97113">
        <ele>127.99</ele>
        <time>2020-08-27T07:24:38Z</time>
      </trkpt>
      <trkpt lat="48.5921" lon="1.97113">
        <ele>127.99</ele>
        <time>2020-08-27T07:24:39Z</time>
      </trkpt>
      <trkpt lat="48.5921" lon="1.97113">
        <ele>127.99</ele>
        <time>2020-08-27T07:24:40Z</time>
      </trkpt>
      <trkpt lat="48.59211" lon="1.97111">
        <ele>127.99</ele>
        <time>2020-08-27T07:24:41Z</time>
      </trkpt>
      <trkpt lat="48.59211" lon="1.97109">
        <ele>127.99</ele>
        <time>2020-08-27T07:24:42Z</time>
      </trkpt>
      <trkpt lat="48.59212" lon="1.97107">
        <ele>127.99</ele>
        <time>2020-08-27T07:24:43Z</time>
      </trkpt>
      <trkpt lat="48.59213" lon="1.97105">
        <ele>127.99</ele>
        <time>2020-08-27T07:24:44Z</time>
      </trkpt>
      <trkpt lat="48.59213" lon="1.97104">
        <ele>127.99</ele>
        <time>2020-08-27T07:24:45Z</time>
      </trkpt>
      <trkpt lat="48.59214" lon="1.97102">
        <ele>127.99</ele>
        <time>2020-08-27T07:24:46Z</time>
      </trkpt>
      <trkpt lat="48.59214" lon="1.97102">
        <ele>127.99</ele>
        <time>2020-08-27T07:24:47Z</time>
      </trkpt>
      <trkpt lat="48.59215" lon="1.97101">
        <ele>128.47</ele>
        <time>2020-08-27T07:24:48Z</time>
      </trkpt>
      <trkpt lat="48.59215" lon="1.97098">
        <ele>127.99</ele>
        <time>2020-08-27T07:24:49Z</time>
      </trkpt>
      <trkpt lat="48.59217" lon="1.97096">
        <ele>127.99</ele>
        <time>2020-08-27T07:24:50Z</time>
      </trkpt>
      <trkpt lat="48.59218" lon="1.97093">
        <ele>128.47</ele>
        <time>2020-08-27T07:24:51Z</time>
      </trkpt>
      <trkpt lat="48.59219" lon="1.97091">
        <ele>128.47</ele>
        <time>2020-08-27T07:24:52Z</time>
      </trkpt>
      <trkpt lat="48.59219" lon="1.97089">
        <ele>128.47</ele>
        <time>2020-08-27T07:24:53Z</time>
      </trkpt>
      <trkpt lat="48.5922" lon="1.97087">
        <ele>128.47</ele>
        <time>2020-08-27T07:24:54Z</time>
      </trkpt>
      <trkpt lat="48.59221" lon="1.97085">
        <ele>128.47</ele>
        <time>2020-08-27T07:24:55Z</time>
      </trkpt>
      <trkpt lat="48.59222" lon="1.97083">
        <ele>128.47</ele>
        <time>2020-08-27T07:24:56Z</time>
      </trkpt>
      <trkpt lat="48.59222" lon="1.97082">
        <ele>128.47</ele>
        <time>2020-08-27T07:24:57Z</time>
      </trkpt>
      <trkpt lat="48.59223" lon="1.9708">
        <ele>128.47</ele>
        <time>2020-08-27T07:24:58Z</time>
      </trkpt>
      <trkpt lat="48.59225" lon="1.97078">
        <ele>128.47</ele>
        <time>2020-08-27T07:24:59Z</time>
      </trkpt>
      <trkpt lat="48.59226" lon="1.97076">
        <ele>128.47</ele>
        <time>2020-08-27T07:25:00Z</time>
      </trkpt>
      <trkpt lat="48.59227" lon="1.97075">
        <ele>128.47</ele>
        <time>2020-08-27T07:25:01Z</time>
      </trkpt>
      <trkpt lat="48.59227" lon="1.97073">
        <ele>128.95</ele>
        <time>2020-08-27T07:25:02Z</time>
      </trkpt>
      <trkpt lat="48.59228" lon="1.9707">
        <ele>128.47</ele>
        <time>2020-08-27T07:25:03Z</time>
      </trkpt>
      <trkpt lat="48.59229" lon="1.97068">
        <ele>128.47</ele>
        <time>2020-08-27T07:25:04Z</time>
      </trkpt>
      <trkpt lat="48.5923" lon="1.97066">
        <ele>128.47</ele>
        <time>2020-08-27T07:25:05Z</time>
      </trkpt>
      <trkpt lat="48.59231" lon="1.97064">
        <ele>128.95</ele>
        <time>2020-08-27T07:25:06Z</time>
      </trkpt>
      <trkpt lat="48.59232" lon="1.97062">
        <ele>128.47</ele>
        <time>2020-08-27T07:25:07Z</time>
      </trkpt>
      <trkpt lat="48.59233" lon="1.97061">
        <ele>128.47</ele>
        <time>2020-08-27T07:25:08Z</time>
      </trkpt>
      <trkpt lat="48.59233" lon="1.9706">
        <ele>128.47</ele>
        <time>2020-08-27T07:25:09Z</time>
      </trkpt>
      <trkpt lat="48.59233" lon="1.97059">
        <ele>128.95</ele>
        <time>2020-08-27T07:25:10Z</time>
      </trkpt>
      <trkpt lat="48.59234" lon="1.97058">
        <ele>128.95</ele>
        <time>2020-08-27T07:25:11Z</time>
      </trkpt>
      <trkpt lat="48.59235" lon="1.97056">
        <ele>128.95</ele>
        <time>2020-08-27T07:25:12Z</time>
      </trkpt>
      <trkpt lat="48.59235" lon="1.97054">
        <ele>128.95</ele>
        <time>2020-08-27T07:25:13Z</time>
      </trkpt>
      <trkpt lat="48.59236" lon="1.97053">
        <ele>128.95</ele>
        <time>2020-08-27T07:25:14Z</time>
      </trkpt>
      <trkpt lat="48.59237" lon="1.97051">
        <ele>128.47</ele>
        <time>2020-08-27T07:25:15Z</time>
      </trkpt>
      <trkpt lat="48.59238" lon="1.97049">
        <ele>128.47</ele>
        <time>2020-08-27T07:25:16Z</time>
      </trkpt>
      <trkpt lat="48.59239" lon="1.97046">
        <ele>128.47</ele>
        <time>2020-08-27T07:25:17Z</time>
      </trkpt>
      <trkpt lat="48.59239" lon="1.97045">
        <ele>128.95</ele>
        <time>2020-08-27T07:25:18Z</time>
      </trkpt>
      <trkpt lat="48.5924" lon="1.97043">
        <ele>128.95</ele>
        <time>2020-08-27T07:25:19Z</time>
      </trkpt>
      <trkpt lat="48.59241" lon="1.97041">
        <ele>128.95</ele>
        <time>2020-08-27T07:25:20Z</time>
      </trkpt>
      <trkpt lat="48.59242" lon="1.97039">
        <ele>129.43</ele>
        <time>2020-08-27T07:25:21Z</time>
      </trkpt>
      <trkpt lat="48.59243" lon="1.97037">
        <ele>129.43</ele>
        <time>2020-08-27T07:25:22Z</time>
      </trkpt>
      <trkpt lat="48.59244" lon="1.97035">
        <ele>129.43</ele>
        <time>2020-08-27T07:25:23Z</time>
      </trkpt>
      <trkpt lat="48.59245" lon="1.97034">
        <ele>128.95</ele>
        <time>2020-08-27T07:25:24Z</time>
      </trkpt>
      <trkpt lat="48.59246" lon="1.97032">
        <ele>128.95</ele>
        <time>2020-08-27T07:25:25Z</time>
      </trkpt>
      <trkpt lat="48.59247" lon="1.9703">
        <ele>129.92</ele>
        <time>2020-08-27T07:25:26Z</time>
      </trkpt>
      <trkpt lat="48.59249" lon="1.97028">
        <ele>129.43</ele>
        <time>2020-08-27T07:25:27Z</time>
      </trkpt>
      <trkpt lat="48.5925" lon="1.97026">
        <ele>129.43</ele>
        <time>2020-08-27T07:25:28Z</time>
      </trkpt>
      <trkpt lat="48.5925" lon="1.97023">
        <ele>129.43</ele>
        <time>2020-08-27T07:25:29Z</time>
      </trkpt>
      <trkpt lat="48.59251" lon="1.97021">
        <ele>129.43</ele>
        <time>2020-08-27T07:25:30Z</time>
      </trkpt>
      <trkpt lat="48.59252" lon="1.9702">
        <ele>128.95</ele>
        <time>2020-08-27T07:25:31Z</time>
      </trkpt>
      <trkpt lat="48.59253" lon="1.97018">
        <ele>128.95</ele>
        <time>2020-08-27T07:25:32Z</time>
      </trkpt>
      <trkpt lat="48.59254" lon="1.97016">
        <ele>129.43</ele>
        <time>2020-08-27T07:25:33Z</time>
      </trkpt>
      <trkpt lat="48.59254" lon="1.97015">
        <ele>129.43</ele>
        <time>2020-08-27T07:25:34Z</time>
      </trkpt>
      <trkpt lat="48.59255" lon="1.97013">
        <ele>128.95</ele>
        <time>2020-08-27T07:25:35Z</time>
      </trkpt>
      <trkpt lat="48.59257" lon="1.97011">
        <ele>129.43</ele>
        <time>2020-08-27T07:25:36Z</time>
      </trkpt>
      <trkpt lat="48.59258" lon="1.9701">
        <ele>128.95</ele>
        <time>2020-08-27T07:25:37Z</time>
      </trkpt>
      <trkpt lat="48.59259" lon="1.97009">
        <ele>129.43</ele>
        <time>2020-08-27T07:25:38Z</time>
      </trkpt>
      <trkpt lat="48.5926" lon="1.97007">
        <ele>129.43</ele>
        <time>2020-08-27T07:25:39Z</time>
      </trkpt>
      <trkpt lat="48.5926" lon="1.97005">
        <ele>129.43</ele>
        <time>2020-08-27T07:25:40Z</time>
      </trkpt>
      <trkpt lat="48.59261" lon="1.97004">
        <ele>129.43</ele>
        <time>2020-08-27T07:25:41Z</time>
      </trkpt>
      <trkpt lat="48.59262" lon="1.97003">
        <ele>129.43</ele>
        <time>2020-08-27T07:25:42Z</time>
      </trkpt>
      <trkpt lat="48.59263" lon="1.97002">
        <ele>129.43</ele>
        <time>2020-08-27T07:25:43Z</time>
      </trkpt>
      <trkpt lat="48.59264" lon="1.97">
        <ele>129.43</ele>
        <time>2020-08-27T07:25:44Z</time>
      </trkpt>
      <trkpt lat="48.59264" lon="1.96997">
        <ele>129.43</ele>
        <time>2020-08-27T07:25:45Z</time>
      </trkpt>
      <trkpt lat="48.59265" lon="1.96995">
        <ele>129.43</ele>
        <time>2020-08-27T07:25:46Z</time>
      </trkpt>
      <trkpt lat="48.59266" lon="1.96993">
        <ele>129.43</ele>
        <time>2020-08-27T07:25:47Z</time>
      </trkpt>
      <trkpt lat="48.59267" lon="1.96991">
        <ele>129.92</ele>
        <time>2020-08-27T07:25:48Z</time>
      </trkpt>
      <trkpt lat="48.59268" lon="1.9699">
        <ele>129.92</ele>
        <time>2020-08-27T07:25:49Z</time>
      </trkpt>
      <trkpt lat="48.59268" lon="1.96988">
        <ele>130.4</ele>
        <time>2020-08-27T07:25:50Z</time>
      </trkpt>
      <trkpt lat="48.59268" lon="1.96987">
        <ele>130.4</ele>
        <time>2020-08-27T07:25:51Z</time>
      </trkpt>
      <trkpt lat="48.59269" lon="1.96985">
        <ele>130.4</ele>
        <time>2020-08-27T07:25:52Z</time>
      </trkpt>
      <trkpt lat="48.5927" lon="1.96984">
        <ele>130.4</ele>
        <time>2020-08-27T07:25:53Z</time>
      </trkpt>
      <trkpt lat="48.5927" lon="1.96982">
        <ele>130.4</ele>
        <time>2020-08-27T07:25:54Z</time>
      </trkpt>
      <trkpt lat="48.59271" lon="1.9698">
        <ele>130.88</ele>
        <time>2020-08-27T07:25:55Z</time>
      </trkpt>
      <trkpt lat="48.59272" lon="1.96978">
        <ele>130.88</ele>
        <time>2020-08-27T07:25:56Z</time>
      </trkpt>
      <trkpt lat="48.59273" lon="1.96976">
        <ele>131.36</ele>
        <time>2020-08-27T07:25:57Z</time>
      </trkpt>
      <trkpt lat="48.59274" lon="1.96974">
        <ele>130.88</ele>
        <time>2020-08-27T07:25:58Z</time>
      </trkpt>
      <trkpt lat="48.59275" lon="1.96972">
        <ele>131.36</ele>
        <time>2020-08-27T07:25:59Z</time>
      </trkpt>
      <trkpt lat="48.59276" lon="1.9697">
        <ele>131.84</ele>
        <time>2020-08-27T07:26:00Z</time>
      </trkpt>
      <trkpt lat="48.59277" lon="1.96968">
        <ele>131.36</ele>
        <time>2020-08-27T07:26:01Z</time>
      </trkpt>
      <trkpt lat="48.59279" lon="1.96967">
        <ele>131.36</ele>
        <time>2020-08-27T07:26:02Z</time>
      </trkpt>
      <trkpt lat="48.59279" lon="1.96966">
        <ele>131.84</ele>
        <time>2020-08-27T07:26:03Z</time>
      </trkpt>
      <trkpt lat="48.5928" lon="1.96965">
        <ele>132.32</ele>
        <time>2020-08-27T07:26:04Z</time>
      </trkpt>
      <trkpt lat="48.5928" lon="1.96964">
        <ele>132.32</ele>
        <time>2020-08-27T07:26:05Z</time>
      </trkpt>
      <trkpt lat="48.59281" lon="1.96962">
        <ele>132.32</ele>
        <time>2020-08-27T07:26:06Z</time>
      </trkpt>
      <trkpt lat="48.59281" lon="1.9696">
        <ele>132.8</ele>
        <time>2020-08-27T07:26:07Z</time>
      </trkpt>
      <trkpt lat="48.59281" lon="1.96958">
        <ele>132.32</ele>
        <time>2020-08-27T07:26:08Z</time>
      </trkpt>
      <trkpt lat="48.59282" lon="1.96956">
        <ele>132.8</ele>
        <time>2020-08-27T07:26:09Z</time>
      </trkpt>
      <trkpt lat="48.59283" lon="1.96954">
        <ele>132.8</ele>
        <time>2020-08-27T07:26:10Z</time>
      </trkpt>
      <trkpt lat="48.59283" lon="1.96952">
        <ele>133.76</ele>
        <time>2020-08-27T07:26:11Z</time>
      </trkpt>
      <trkpt lat="48.59284" lon="1.9695">
        <ele>133.28</ele>
        <time>2020-08-27T07:26:12Z</time>
      </trkpt>
      <trkpt lat="48.59285" lon="1.96948">
        <ele>133.76</ele>
        <time>2020-08-27T07:26:13Z</time>
      </trkpt>
      <trkpt lat="48.59286" lon="1.96947">
        <ele>133.76</ele>
        <time>2020-08-27T07:26:14Z</time>
      </trkpt>
      <trkpt lat="48.59287" lon="1.96945">
        <ele>134.24</ele>
        <time>2020-08-27T07:26:15Z</time>
      </trkpt>
      <trkpt lat="48.59287" lon="1.96944">
        <ele>134.72</ele>
        <time>2020-08-27T07:26:16Z</time>
      </trkpt>
      <trkpt lat="48.59288" lon="1.96942">
        <ele>134.24</ele>
        <time>2020-08-27T07:26:17Z</time>
      </trkpt>
      <trkpt lat="48.59289" lon="1.96941">
        <ele>134.72</ele>
        <time>2020-08-27T07:26:18Z</time>
      </trkpt>
      <trkpt lat="48.5929" lon="1.96939">
        <ele>135.2</ele>
        <time>2020-08-27T07:26:19Z</time>
      </trkpt>
      <trkpt lat="48.59291" lon="1.96937">
        <ele>135.2</ele>
        <time>2020-08-27T07:26:20Z</time>
      </trkpt>
      <trkpt lat="48.59291" lon="1.96936">
        <ele>135.2</ele>
        <time>2020-08-27T07:26:21Z</time>
      </trkpt>
      <trkpt lat="48.59292" lon="1.96934">
        <ele>135.2</ele>
        <time>2020-08-27T07:26:22Z</time>
      </trkpt>
      <trkpt lat="48.59292" lon="1.96934">
        <ele>135.68</ele>
        <time>2020-08-27T07:26:23Z</time>
      </trkpt>
      <trkpt lat="48.59293" lon="1.96932">
        <ele>135.68</ele>
        <time>2020-08-27T07:26:24Z</time>
      </trkpt>
      <trkpt lat="48.59294" lon="1.96931">
        <ele>135.68</ele>
        <time>2020-08-27T07:26:25Z</time>
      </trkpt>
      <trkpt lat="48.59295" lon="1.9693">
        <ele>136.16</ele>
        <time>2020-08-27T07:26:26Z</time>
      </trkpt>
      <trkpt lat="48.59295" lon="1.96928">
        <ele>135.68</ele>
        <time>2020-08-27T07:26:27Z</time>
      </trkpt>
      <trkpt lat="48.59296" lon="1.96926">
        <ele>136.16</ele>
        <time>2020-08-27T07:26:28Z</time>
      </trkpt>
      <trkpt lat="48.59296" lon="1.96924">
        <ele>136.16</ele>
        <time>2020-08-27T07:26:29Z</time>
      </trkpt>
      <trkpt lat="48.59296" lon="1.96923">
        <ele>136.16</ele>
        <time>2020-08-27T07:26:30Z</time>
      </trkpt>
      <trkpt lat="48.59297" lon="1.96921">
        <ele>136.16</ele>
        <time>2020-08-27T07:26:31Z</time>
      </trkpt>
      <trkpt lat="48.59298" lon="1.9692">
        <ele>136.64</ele>
        <time>2020-08-27T07:26:32Z</time>
      </trkpt>
      <trkpt lat="48.59298" lon="1.96919">
        <ele>136.64</ele>
        <time>2020-08-27T07:26:33Z</time>
      </trkpt>
      <trkpt lat="48.593" lon="1.96917">
        <ele>136.64</ele>
        <time>2020-08-27T07:26:34Z</time>
      </trkpt>
      <trkpt lat="48.59301" lon="1.96915">
        <ele>136.64</ele>
        <time>2020-08-27T07:26:35Z</time>
      </trkpt>
      <trkpt lat="48.59301" lon="1.96913">
        <ele>136.64</ele>
        <time>2020-08-27T07:26:36Z</time>
      </trkpt>
      <trkpt lat="48.59302" lon="1.96911">
        <ele>137.13</ele>
        <time>2020-08-27T07:26:37Z</time>
      </trkpt>
      <trkpt lat="48.59302" lon="1.9691">
        <ele>137.13</ele>
        <time>2020-08-27T07:26:38Z</time>
      </trkpt>
      <trkpt lat="48.59303" lon="1.96908">
        <ele>137.13</ele>
        <time>2020-08-27T07:26:39Z</time>
      </trkpt>
      <trkpt lat="48.59303" lon="1.96907">
        <ele>137.61</ele>
        <time>2020-08-27T07:26:40Z</time>
      </trkpt>
      <trkpt lat="48.59304" lon="1.96906">
        <ele>137.61</ele>
        <time>2020-08-27T07:26:41Z</time>
      </trkpt>
      <trkpt lat="48.59305" lon="1.96904">
        <ele>137.61</ele>
        <time>2020-08-27T07:26:42Z</time>
      </trkpt>
      <trkpt lat="48.59306" lon="1.96903">
        <ele>137.61</ele>
        <time>2020-08-27T07:26:43Z</time>
      </trkpt>
      <trkpt lat="48.59307" lon="1.96902">
        <ele>138.09</ele>
        <time>2020-08-27T07:26:44Z</time>
      </trkpt>
      <trkpt lat="48.59308" lon="1.969">
        <ele>138.57</ele>
        <time>2020-08-27T07:26:45Z</time>
      </trkpt>
      <trkpt lat="48.59309" lon="1.96899">
        <ele>138.57</ele>
        <time>2020-08-27T07:26:46Z</time>
      </trkpt>
      <trkpt lat="48.5931" lon="1.96896">
        <ele>138.57</ele>
        <time>2020-08-27T07:26:47Z</time>
      </trkpt>
      <trkpt lat="48.59312" lon="1.96893">
        <ele>139.05</ele>
        <time>2020-08-27T07:26:48Z</time>
      </trkpt>
      <trkpt lat="48.59313" lon="1.96891">
        <ele>139.05</ele>
        <time>2020-08-27T07:26:49Z</time>
      </trkpt>
      <trkpt lat="48.59314" lon="1.9689">
        <ele>139.05</ele>
        <time>2020-08-27T07:26:50Z</time>
      </trkpt>
      <trkpt lat="48.59314" lon="1.96888">
        <ele>139.53</ele>
        <time>2020-08-27T07:26:51Z</time>
      </trkpt>
      <trkpt lat="48.59315" lon="1.96887">
        <ele>140.01</ele>
        <time>2020-08-27T07:26:52Z</time>
      </trkpt>
      <trkpt lat="48.59316" lon="1.96886">
        <ele>139.53</ele>
        <time>2020-08-27T07:26:53Z</time>
      </trkpt>
      <trkpt lat="48.59316" lon="1.96884">
        <ele>140.01</ele>
        <time>2020-08-27T07:26:54Z</time>
      </trkpt>
      <trkpt lat="48.59317" lon="1.96883">
        <ele>140.49</ele>
        <time>2020-08-27T07:26:55Z</time>
      </trkpt>
      <trkpt lat="48.59318" lon="1.96882">
        <ele>140.49</ele>
        <time>2020-08-27T07:26:56Z</time>
      </trkpt>
      <trkpt lat="48.59319" lon="1.9688">
        <ele>140.49</ele>
        <time>2020-08-27T07:26:57Z</time>
      </trkpt>
      <trkpt lat="48.59319" lon="1.96878">
        <ele>141.45</ele>
        <time>2020-08-27T07:26:58Z</time>
      </trkpt>
      <trkpt lat="48.5932" lon="1.96877">
        <ele>140.97</ele>
        <time>2020-08-27T07:26:59Z</time>
      </trkpt>
      <trkpt lat="48.5932" lon="1.96877">
        <ele>141.45</ele>
        <time>2020-08-27T07:27:00Z</time>
      </trkpt>
      <trkpt lat="48.5932" lon="1.96875">
        <ele>141.45</ele>
        <time>2020-08-27T07:27:01Z</time>
      </trkpt>
      <trkpt lat="48.5932" lon="1.96873">
        <ele>141.93</ele>
        <time>2020-08-27T07:27:02Z</time>
      </trkpt>
      <trkpt lat="48.59321" lon="1.96871">
        <ele>142.41</ele>
        <time>2020-08-27T07:27:03Z</time>
      </trkpt>
      <trkpt lat="48.59322" lon="1.9687">
        <ele>142.89</ele>
        <time>2020-08-27T07:27:04Z</time>
      </trkpt>
      <trkpt lat="48.59322" lon="1.96867">
        <ele>142.41</ele>
        <time>2020-08-27T07:27:05Z</time>
      </trkpt>
      <trkpt lat="48.59323" lon="1.96866">
        <ele>142.89</ele>
        <time>2020-08-27T07:27:06Z</time>
      </trkpt>
      <trkpt lat="48.59324" lon="1.96865">
        <ele>142.89</ele>
        <time>2020-08-27T07:27:07Z</time>
      </trkpt>
      <trkpt lat="48.59325" lon="1.96863">
        <ele>142.89</ele>
        <time>2020-08-27T07:27:08Z</time>
      </trkpt>
      <trkpt lat="48.59326" lon="1.96862">
        <ele>142.89</ele>
        <time>2020-08-27T07:27:09Z</time>
      </trkpt>
      <trkpt lat="48.59328" lon="1.9686">
        <ele>143.37</ele>
        <time>2020-08-27T07:27:10Z</time>
      </trkpt>
      <trkpt lat="48.59328" lon="1.96858">
        <ele>143.85</ele>
        <time>2020-08-27T07:27:11Z</time>
      </trkpt>
      <trkpt lat="48.59329" lon="1.96857">
        <ele>143.85</ele>
        <time>2020-08-27T07:27:12Z</time>
      </trkpt>
      <trkpt lat="48.5933" lon="1.96856">
        <ele>143.85</ele>
        <time>2020-08-27T07:27:13Z</time>
      </trkpt>
      <trkpt lat="48.59331" lon="1.96855">
        <ele>143.85</ele>
        <time>2020-08-27T07:27:14Z</time>
      </trkpt>
      <trkpt lat="48.59332" lon="1.96853">
        <ele>144.34</ele>
        <time>2020-08-27T07:27:15Z</time>
      </trkpt>
      <trkpt lat="48.59333" lon="1.96852">
        <ele>143.85</ele>
        <time>2020-08-27T07:27:16Z</time>
      </trkpt>
      <trkpt lat="48.59333" lon="1.9685">
        <ele>144.34</ele>
        <time>2020-08-27T07:27:17Z</time>
      </trkpt>
      <trkpt lat="48.59334" lon="1.96848">
        <ele>143.85</ele>
        <time>2020-08-27T07:27:18Z</time>
      </trkpt>
      <trkpt lat="48.59334" lon="1.96845">
        <ele>144.34</ele>
        <time>2020-08-27T07:27:19Z</time>
      </trkpt>
      <trkpt lat="48.59335" lon="1.96843">
        <ele>144.82</ele>
        <time>2020-08-27T07:27:20Z</time>
      </trkpt>
      <trkpt lat="48.59336" lon="1.96842">
        <ele>144.34</ele>
        <time>2020-08-27T07:27:21Z</time>
      </trkpt>
      <trkpt lat="48.59336" lon="1.9684">
        <ele>144.82</ele>
        <time>2020-08-27T07:27:22Z</time>
      </trkpt>
      <trkpt lat="48.59337" lon="1.96839">
        <ele>144.82</ele>
        <time>2020-08-27T07:27:23Z</time>
      </trkpt>
      <trkpt lat="48.59338" lon="1.96837">
        <ele>144.82</ele>
        <time>2020-08-27T07:27:24Z</time>
      </trkpt>
      <trkpt lat="48.59338" lon="1.96835">
        <ele>144.82</ele>
        <time>2020-08-27T07:27:25Z</time>
      </trkpt>
      <trkpt lat="48.59339" lon="1.96833">
        <ele>144.82</ele>
        <time>2020-08-27T07:27:26Z</time>
      </trkpt>
      <trkpt lat="48.5934" lon="1.96832">
        <ele>145.78</ele>
        <time>2020-08-27T07:27:27Z</time>
      </trkpt>
      <trkpt lat="48.59341" lon="1.96831">
        <ele>145.78</ele>
        <time>2020-08-27T07:27:28Z</time>
      </trkpt>
      <trkpt lat="48.59342" lon="1.96829">
        <ele>145.3</ele>
        <time>2020-08-27T07:27:29Z</time>
      </trkpt>
      <trkpt lat="48.59342" lon="1.96828">
        <ele>145.78</ele>
        <time>2020-08-27T07:27:30Z</time>
      </trkpt>
      <trkpt lat="48.59343" lon="1.96826">
        <ele>146.26</ele>
        <time>2020-08-27T07:27:31Z</time>
      </trkpt>
      <trkpt lat="48.59343" lon="1.96825">
        <ele>146.26</ele>
        <time>2020-08-27T07:27:32Z</time>
      </trkpt>
      <trkpt lat="48.59343" lon="1.96823">
        <ele>146.26</ele>
        <time>2020-08-27T07:27:33Z</time>
      </trkpt>
      <trkpt lat="48.59344" lon="1.96821">
        <ele>146.74</ele>
        <time>2020-08-27T07:27:34Z</time>
      </trkpt>
      <trkpt lat="48.59345" lon="1.9682">
        <ele>147.22</ele>
        <time>2020-08-27T07:27:35Z</time>
      </trkpt>
      <trkpt lat="48.59346" lon="1.96818">
        <ele>146.74</ele>
        <time>2020-08-27T07:27:36Z</time>
      </trkpt>
      <trkpt lat="48.59346" lon="1.96816">
        <ele>147.22</ele>
        <time>2020-08-27T07:27:37Z</time>
      </trkpt>
      <trkpt lat="48.59347" lon="1.96815">
        <ele>147.22</ele>
        <time>2020-08-27T07:27:38Z</time>
      </trkpt>
      <trkpt lat="48.59348" lon="1.96813">
        <ele>147.22</ele>
        <time>2020-08-27T07:27:39Z</time>
      </trkpt>
      <trkpt lat="48.59348" lon="1.96812">
        <ele>148.18</ele>
        <time>2020-08-27T07:27:40Z</time>
      </trkpt>
      <trkpt lat="48.59349" lon="1.9681">
        <ele>147.7</ele>
        <time>2020-08-27T07:27:41Z</time>
      </trkpt>
      <trkpt lat="48.5935" lon="1.96809">
        <ele>147.7</ele>
        <time>2020-08-27T07:27:42Z</time>
      </trkpt>
      <trkpt lat="48.59351" lon="1.96807">
        <ele>148.18</ele>
        <time>2020-08-27T07:27:43Z</time>
      </trkpt>
      <trkpt lat="48.59351" lon="1.96805">
        <ele>148.18</ele>
        <time>2020-08-27T07:27:44Z</time>
      </trkpt>
      <trkpt lat="48.59352" lon="1.96803">
        <ele>148.18</ele>
        <time>2020-08-27T07:27:45Z</time>
      </trkpt>
      <trkpt lat="48.59352" lon="1.96801">
        <ele>148.66</ele>
        <time>2020-08-27T07:27:46Z</time>
      </trkpt>
      <trkpt lat="48.59353" lon="1.968">
        <ele>148.18</ele>
        <time>2020-08-27T07:27:47Z</time>
      </trkpt>
      <trkpt lat="48.59354" lon="1.96798">
        <ele>148.66</ele>
        <time>2020-08-27T07:27:48Z</time>
      </trkpt>
      <trkpt lat="48.59355" lon="1.96797">
        <ele>148.66</ele>
        <time>2020-08-27T07:27:49Z</time>
      </trkpt>
      <trkpt lat="48.59356" lon="1.96795">
        <ele>148.66</ele>
        <time>2020-08-27T07:27:50Z</time>
      </trkpt>
      <trkpt lat="48.59356" lon="1.96793">
        <ele>148.66</ele>
        <time>2020-08-27T07:27:51Z</time>
      </trkpt>
      <trkpt lat="48.59357" lon="1.96791">
        <ele>149.14</ele>
        <time>2020-08-27T07:27:52Z</time>
      </trkpt>
      <trkpt lat="48.59357" lon="1.9679">
        <ele>149.14</ele>
        <time>2020-08-27T07:27:53Z</time>
      </trkpt>
      <trkpt lat="48.59358" lon="1.96788">
        <ele>149.14</ele>
        <time>2020-08-27T07:27:54Z</time>
      </trkpt>
      <trkpt lat="48.59358" lon="1.96787">
        <ele>149.14</ele>
        <time>2020-08-27T07:27:55Z</time>
      </trkpt>
      <trkpt lat="48.59358" lon="1.96786">
        <ele>149.14</ele>
        <time>2020-08-27T07:27:56Z</time>
      </trkpt>
      <trkpt lat="48.59358" lon="1.96784">
        <ele>149.62</ele>
        <time>2020-08-27T07:27:57Z</time>
      </trkpt>
      <trkpt lat="48.59359" lon="1.96782">
        <ele>149.62</ele>
        <time>2020-08-27T07:27:58Z</time>
      </trkpt>
      <trkpt lat="48.5936" lon="1.9678">
        <ele>149.14</ele>
        <time>2020-08-27T07:27:59Z</time>
      </trkpt>
      <trkpt lat="48.5936" lon="1.96778">
        <ele>149.62</ele>
        <time>2020-08-27T07:28:00Z</time>
      </trkpt>
      <trkpt lat="48.59361" lon="1.96777">
        <ele>149.62</ele>
        <time>2020-08-27T07:28:01Z</time>
      </trkpt>
      <trkpt lat="48.59361" lon="1.96775">
        <ele>149.62</ele>
        <time>2020-08-27T07:28:02Z</time>
      </trkpt>
      <trkpt lat="48.59362" lon="1.96773">
        <ele>149.62</ele>
        <time>2020-08-27T07:28:03Z</time>
      </trkpt>
      <trkpt lat="48.59363" lon="1.96772">
        <ele>149.62</ele>
        <time>2020-08-27T07:28:04Z</time>
      </trkpt>
      <trkpt lat="48.59364" lon="1.96771">
        <ele>149.62</ele>
        <time>2020-08-27T07:28:05Z</time>
      </trkpt>
      <trkpt lat="48.59364" lon="1.96769">
        <ele>149.14</ele>
        <time>2020-08-27T07:28:06Z</time>
      </trkpt>
      <trkpt lat="48.59365" lon="1.96767">
        <ele>149.14</ele>
        <time>2020-08-27T07:28:07Z</time>
      </trkpt>
      <trkpt lat="48.59366" lon="1.96766">
        <ele>149.14</ele>
        <time>2020-08-27T07:28:08Z</time>
      </trkpt>
      <trkpt lat="48.59367" lon="1.96765">
        <ele>149.14</ele>
        <time>2020-08-27T07:28:09Z</time>
      </trkpt>
      <trkpt lat="48.59367" lon="1.96763">
        <ele>149.14</ele>
        <time>2020-08-27T07:28:10Z</time>
      </trkpt>
      <trkpt lat="48.59368" lon="1.96761">
        <ele>149.14</ele>
        <time>2020-08-27T07:28:11Z</time>
      </trkpt>
      <trkpt lat="48.59369" lon="1.96759">
        <ele>149.14</ele>
        <time>2020-08-27T07:28:12Z</time>
      </trkpt>
      <trkpt lat="48.59369" lon="1.96758">
        <ele>149.14</ele>
        <time>2020-08-27T07:28:13Z</time>
      </trkpt>
      <trkpt lat="48.5937" lon="1.96756">
        <ele>149.14</ele>
        <time>2020-08-27T07:28:14Z</time>
      </trkpt>
      <trkpt lat="48.59371" lon="1.96755">
        <ele>149.14</ele>
        <time>2020-08-27T07:28:15Z</time>
      </trkpt>
      <trkpt lat="48.59372" lon="1.96753">
        <ele>149.14</ele>
        <time>2020-08-27T07:28:16Z</time>
      </trkpt>
      <trkpt lat="48.59373" lon="1.96751">
        <ele>148.66</ele>
        <time>2020-08-27T07:28:17Z</time>
      </trkpt>
      <trkpt lat="48.59374" lon="1.9675">
        <ele>148.66</ele>
        <time>2020-08-27T07:28:18Z</time>
      </trkpt>
      <trkpt lat="48.59375" lon="1.96748">
        <ele>148.66</ele>
        <time>2020-08-27T07:28:19Z</time>
      </trkpt>
      <trkpt lat="48.59376" lon="1.96746">
        <ele>148.66</ele>
        <time>2020-08-27T07:28:20Z</time>
      </trkpt>
      <trkpt lat="48.59376" lon="1.96744">
        <ele>148.66</ele>
        <time>2020-08-27T07:28:21Z</time>
      </trkpt>
      <trkpt lat="48.59377" lon="1.96742">
        <ele>148.18</ele>
        <time>2020-08-27T07:28:22Z</time>
      </trkpt>
      <trkpt lat="48.59377" lon="1.9674">
        <ele>148.18</ele>
        <time>2020-08-27T07:28:23Z</time>
      </trkpt>
      <trkpt lat="48.59378" lon="1.96738">
        <ele>148.18</ele>
        <time>2020-08-27T07:28:24Z</time>
      </trkpt>
      <trkpt lat="48.59378" lon="1.96737">
        <ele>148.18</ele>
        <time>2020-08-27T07:28:25Z</time>
      </trkpt>
      <trkpt lat="48.59379" lon="1.96735">
        <ele>148.18</ele>
        <time>2020-08-27T07:28:26Z</time>
      </trkpt>
      <trkpt lat="48.5938" lon="1.96734">
        <ele>148.18</ele>
        <time>2020-08-27T07:28:27Z</time>
      </trkpt>
      <trkpt lat="48.59381" lon="1.96732">
        <ele>148.18</ele>
        <time>2020-08-27T07:28:28Z</time>
      </trkpt>
      <trkpt lat="48.59381" lon="1.96731">
        <ele>148.18</ele>
        <time>2020-08-27T07:28:29Z</time>
      </trkpt>
      <trkpt lat="48.59381" lon="1.96729">
        <ele>148.18</ele>
        <time>2020-08-27T07:28:30Z</time>
      </trkpt>
      <trkpt lat="48.59381" lon="1.96729">
        <ele>148.18</ele>
        <time>2020-08-27T07:28:31Z</time>
      </trkpt>
      <trkpt lat="48.5938" lon="1.96729">
        <ele>147.7</ele>
        <time>2020-08-27T07:28:34Z</time>
      </trkpt>
      <trkpt lat="48.5938" lon="1.96729">
        <ele>148.18</ele>
        <time>2020-08-27T07:28:35Z</time>
      </trkpt>
      <trkpt lat="48.5938" lon="1.96728">
        <ele>148.18</ele>
        <time>2020-08-27T07:28:36Z</time>
      </trkpt>
      <trkpt lat="48.59381" lon="1.96728">
        <ele>148.18</ele>
        <time>2020-08-27T07:28:37Z</time>
      </trkpt>
      <trkpt lat="48.59382" lon="1.96727">
        <ele>148.18</ele>
        <time>2020-08-27T07:28:38Z</time>
      </trkpt>
      <trkpt lat="48.59382" lon="1.96726">
        <ele>147.7</ele>
        <time>2020-08-27T07:28:39Z</time>
      </trkpt>
      <trkpt lat="48.59382" lon="1.96725">
        <ele>148.18</ele>
        <time>2020-08-27T07:28:40Z</time>
      </trkpt>
      <trkpt lat="48.59382" lon="1.96725">
        <ele>147.7</ele>
        <time>2020-08-27T07:28:41Z</time>
      </trkpt>
      <trkpt lat="48.59383" lon="1.96724">
        <ele>147.7</ele>
        <time>2020-08-27T07:28:45Z</time>
      </trkpt>
      <trkpt lat="48.59383" lon="1.96724">
        <ele>147.7</ele>
        <time>2020-08-27T07:28:46Z</time>
      </trkpt>
      <trkpt lat="48.59383" lon="1.96724">
        <ele>148.18</ele>
        <time>2020-08-27T07:28:47Z</time>
      </trkpt>
      <trkpt lat="48.59383" lon="1.96723">
        <ele>147.7</ele>
        <time>2020-08-27T07:28:48Z</time>
      </trkpt>
      <trkpt lat="48.59383" lon="1.96721">
        <ele>147.7</ele>
        <time>2020-08-27T07:28:49Z</time>
      </trkpt>
      <trkpt lat="48.59383" lon="1.9672">
        <ele>147.7</ele>
        <time>2020-08-27T07:28:50Z</time>
      </trkpt>
      <trkpt lat="48.59384" lon="1.9672">
        <ele>147.7</ele>
        <time>2020-08-27T07:28:51Z</time>
      </trkpt>
      <trkpt lat="48.59385" lon="1.9672">
        <ele>147.7</ele>
        <time>2020-08-27T07:28:52Z</time>
      </trkpt>
      <trkpt lat="48.59386" lon="1.96719">
        <ele>147.7</ele>
        <time>2020-08-27T07:28:53Z</time>
      </trkpt>
      <trkpt lat="48.59386" lon="1.96718">
        <ele>147.7</ele>
        <time>2020-08-27T07:28:54Z</time>
      </trkpt>
      <trkpt lat="48.59387" lon="1.96716">
        <ele>147.7</ele>
        <time>2020-08-27T07:28:55Z</time>
      </trkpt>
      <trkpt lat="48.59387" lon="1.96714">
        <ele>147.7</ele>
        <time>2020-08-27T07:28:56Z</time>
      </trkpt>
      <trkpt lat="48.59387" lon="1.96713">
        <ele>147.7</ele>
        <time>2020-08-27T07:28:57Z</time>
      </trkpt>
      <trkpt lat="48.59388" lon="1.96712">
        <ele>147.7</ele>
        <time>2020-08-27T07:28:58Z</time>
      </trkpt>
      <trkpt lat="48.59388" lon="1.9671">
        <ele>147.22</ele>
        <time>2020-08-27T07:28:59Z</time>
      </trkpt>
      <trkpt lat="48.59389" lon="1.96708">
        <ele>147.22</ele>
        <time>2020-08-27T07:29:00Z</time>
      </trkpt>
      <trkpt lat="48.5939" lon="1.96707">
        <ele>147.22</ele>
        <time>2020-08-27T07:29:01Z</time>
      </trkpt>
      <trkpt lat="48.59391" lon="1.96705">
        <ele>147.22</ele>
        <time>2020-08-27T07:29:02Z</time>
      </trkpt>
      <trkpt lat="48.59392" lon="1.96704">
        <ele>147.22</ele>
        <time>2020-08-27T07:29:03Z</time>
      </trkpt>
      <trkpt lat="48.59392" lon="1.96703">
        <ele>147.22</ele>
        <time>2020-08-27T07:29:04Z</time>
      </trkpt>
      <trkpt lat="48.59392" lon="1.96702">
        <ele>147.22</ele>
        <time>2020-08-27T07:29:05Z</time>
      </trkpt>
      <trkpt lat="48.59393" lon="1.96702">
        <ele>146.74</ele>
        <time>2020-08-27T07:29:06Z</time>
      </trkpt>
      <trkpt lat="48.59394" lon="1.96701">
        <ele>146.74</ele>
        <time>2020-08-27T07:29:07Z</time>
      </trkpt>
      <trkpt lat="48.59395" lon="1.967">
        <ele>146.74</ele>
        <time>2020-08-27T07:29:08Z</time>
      </trkpt>
      <trkpt lat="48.59395" lon="1.96699">
        <ele>146.74</ele>
        <time>2020-08-27T07:29:09Z</time>
      </trkpt>
      <trkpt lat="48.59396" lon="1.96699">
        <ele>146.74</ele>
        <time>2020-08-27T07:29:10Z</time>
      </trkpt>
      <trkpt lat="48.59397" lon="1.96698">
        <ele>146.74</ele>
        <time>2020-08-27T07:29:11Z</time>
      </trkpt>
      <trkpt lat="48.59398" lon="1.96697">
        <ele>146.74</ele>
        <time>2020-08-27T07:29:12Z</time>
      </trkpt>
      <trkpt lat="48.59398" lon="1.96697">
        <ele>147.22</ele>
        <time>2020-08-27T07:29:13Z</time>
      </trkpt>
      <trkpt lat="48.59399" lon="1.96697">
        <ele>146.74</ele>
        <time>2020-08-27T07:29:14Z</time>
      </trkpt>
      <trkpt lat="48.59399" lon="1.96697">
        <ele>146.74</ele>
        <time>2020-08-27T07:29:15Z</time>
      </trkpt>
      <trkpt lat="48.59398" lon="1.96697">
        <ele>146.74</ele>
        <time>2020-08-27T07:29:17Z</time>
      </trkpt>
      <trkpt lat="48.59398" lon="1.96697">
        <ele>146.74</ele>
        <time>2020-08-27T07:29:18Z</time>
      </trkpt>
      <trkpt lat="48.59398" lon="1.96696">
        <ele>146.74</ele>
        <time>2020-08-27T07:29:19Z</time>
      </trkpt>
      <trkpt lat="48.59398" lon="1.96696">
        <ele>146.74</ele>
        <time>2020-08-27T07:29:20Z</time>
      </trkpt>
      <trkpt lat="48.59398" lon="1.96696">
        <ele>146.74</ele>
        <time>2020-08-27T07:29:21Z</time>
      </trkpt>
      <trkpt lat="48.59398" lon="1.96696">
        <ele>146.74</ele>
        <time>2020-08-27T07:29:22Z</time>
      </trkpt>
      <trkpt lat="48.59398" lon="1.96696">
        <ele>146.74</ele>
        <time>2020-08-27T07:29:23Z</time>
      </trkpt>
      <trkpt lat="48.59399" lon="1.96696">
        <ele>146.74</ele>
        <time>2020-08-27T07:29:24Z</time>
      </trkpt>
      <trkpt lat="48.59399" lon="1.96696">
        <ele>146.74</ele>
        <time>2020-08-27T07:29:25Z</time>
      </trkpt>
      <trkpt lat="48.59399" lon="1.96696">
        <ele>146.74</ele>
        <time>2020-08-27T07:29:26Z</time>
      </trkpt>
      <trkpt lat="48.59399" lon="1.96696">
        <ele>147.7</ele>
        <time>2020-08-27T07:29:27Z</time>
      </trkpt>
      <trkpt lat="48.59399" lon="1.96695">
        <ele>146.74</ele>
        <time>2020-08-27T07:29:39Z</time>
      </trkpt>
      <trkpt lat="48.59399" lon="1.96695">
        <ele>146.74</ele>
        <time>2020-08-27T07:29:40Z</time>
      </trkpt>
      <trkpt lat="48.59399" lon="1.96695">
        <ele>146.74</ele>
        <time>2020-08-27T07:29:42Z</time>
      </trkpt>
      <trkpt lat="48.59399" lon="1.96695">
        <ele>146.74</ele>
        <time>2020-08-27T07:29:43Z</time>
      </trkpt>
      <trkpt lat="48.59399" lon="1.96695">
        <ele>146.74</ele>
        <time>2020-08-27T07:29:44Z</time>
      </trkpt>
      <trkpt lat="48.59399" lon="1.96695">
        <ele>146.26</ele>
        <time>2020-08-27T07:30:06Z</time>
      </trkpt>
      <trkpt lat="48.59399" lon="1.96695">
        <ele>146.26</ele>
        <time>2020-08-27T07:30:07Z</time>
      </trkpt>
      <trkpt lat="48.59399" lon="1.96695">
        <ele>146.26</ele>
        <time>2020-08-27T07:30:08Z</time>
      </trkpt>
      <trkpt lat="48.594" lon="1.96695">
        <ele>146.74</ele>
        <time>2020-08-27T07:30:09Z</time>
      </trkpt>
      <trkpt lat="48.594" lon="1.96695">
        <ele>146.26</ele>
        <time>2020-08-27T07:30:10Z</time>
      </trkpt>
      <trkpt lat="48.594" lon="1.96695">
        <ele>146.26</ele>
        <time>2020-08-27T07:30:11Z</time>
      </trkpt>
      <trkpt lat="48.594" lon="1.96695">
        <ele>146.74</ele>
        <time>2020-08-27T07:30:12Z</time>
      </trkpt>
      <trkpt lat="48.594" lon="1.96694">
        <ele>146.26</ele>
        <time>2020-08-27T07:30:13Z</time>
      </trkpt>
      <trkpt lat="48.594" lon="1.96693">
        <ele>146.26</ele>
        <time>2020-08-27T07:30:26Z</time>
      </trkpt>
      <trkpt lat="48.594" lon="1.96693">
        <ele>146.26</ele>
        <time>2020-08-27T07:30:27Z</time>
      </trkpt>
      <trkpt lat="48.59402" lon="1.96693">
        <ele>145.78</ele>
        <time>2020-08-27T07:30:55Z</time>
      </trkpt>
      <trkpt lat="48.59402" lon="1.96693">
        <ele>145.78</ele>
        <time>2020-08-27T07:30:56Z</time>
      </trkpt>
      <trkpt lat="48.59402" lon="1.96693">
        <ele>145.78</ele>
        <time>2020-08-27T07:31:14Z</time>
      </trkpt>
      <trkpt lat="48.59402" lon="1.96693">
        <ele>145.78</ele>
        <time>2020-08-27T07:31:15Z</time>
      </trkpt>
      <trkpt lat="48.59401" lon="1.96693">
        <ele>145.78</ele>
        <time>2020-08-27T07:31:32Z</time>
      </trkpt>
      <trkpt lat="48.59401" lon="1.96693">
        <ele>145.78</ele>
        <time>2020-08-27T07:31:33Z</time>
      </trkpt>
      <trkpt lat="48.59401" lon="1.96693">
        <ele>145.78</ele>
        <time>2020-08-27T07:31:34Z</time>
      </trkpt>
      <trkpt lat="48.59401" lon="1.96693">
        <ele>145.78</ele>
        <time>2020-08-27T07:31:35Z</time>
      </trkpt>
      <trkpt lat="48.59401" lon="1.96692">
        <ele>145.78</ele>
        <time>2020-08-27T07:31:44Z</time>
      </trkpt>
      <trkpt lat="48.59402" lon="1.96692">
        <ele>145.3</ele>
        <time>2020-08-27T07:31:45Z</time>
      </trkpt>
      <trkpt lat="48.59402" lon="1.96691">
        <ele>145.78</ele>
        <time>2020-08-27T07:31:46Z</time>
      </trkpt>
      <trkpt lat="48.59402" lon="1.96691">
        <ele>145.78</ele>
        <time>2020-08-27T07:31:47Z</time>
      </trkpt>
      <trkpt lat="48.59402" lon="1.96691">
        <ele>145.3</ele>
        <time>2020-08-27T07:31:58Z</time>
      </trkpt>
      <trkpt lat="48.59402" lon="1.96692">
        <ele>145.3</ele>
        <time>2020-08-27T07:31:59Z</time>
      </trkpt>
      <trkpt lat="48.59402" lon="1.96692">
        <ele>145.3</ele>
        <time>2020-08-27T07:32:00Z</time>
      </trkpt>
      <trkpt lat="48.59402" lon="1.96691">
        <ele>145.78</ele>
        <time>2020-08-27T07:32:01Z</time>
      </trkpt>
      <trkpt lat="48.59403" lon="1.9669">
        <ele>145.3</ele>
        <time>2020-08-27T07:32:02Z</time>
      </trkpt>
      <trkpt lat="48.59402" lon="1.96689">
        <ele>145.3</ele>
        <time>2020-08-27T07:32:03Z</time>
      </trkpt>
      <trkpt lat="48.59402" lon="1.96689">
        <ele>145.3</ele>
        <time>2020-08-27T07:32:04Z</time>
      </trkpt>
      <trkpt lat="48.59402" lon="1.96689">
        <ele>145.3</ele>
        <time>2020-08-27T07:32:05Z</time>
      </trkpt>
      <trkpt lat="48.59402" lon="1.96689">
        <ele>145.3</ele>
        <time>2020-08-27T07:32:08Z</time>
      </trkpt>
      <trkpt lat="48.59402" lon="1.96689">
        <ele>145.3</ele>
        <time>2020-08-27T07:32:09Z</time>
      </trkpt>
      <trkpt lat="48.59402" lon="1.96689">
        <ele>145.3</ele>
        <time>2020-08-27T07:32:10Z</time>
      </trkpt>
      <trkpt lat="48.59403" lon="1.96689">
        <ele>145.3</ele>
        <time>2020-08-27T07:32:11Z</time>
      </trkpt>
      <trkpt lat="48.59403" lon="1.96688">
        <ele>145.3</ele>
        <time>2020-08-27T07:32:12Z</time>
      </trkpt>
      <trkpt lat="48.59403" lon="1.96688">
        <ele>145.3</ele>
        <time>2020-08-27T07:32:13Z</time>
      </trkpt>
      <trkpt lat="48.59403" lon="1.96688">
        <ele>145.3</ele>
        <time>2020-08-27T07:32:14Z</time>
      </trkpt>
      <trkpt lat="48.59403" lon="1.96688">
        <ele>145.3</ele>
        <time>2020-08-27T07:32:15Z</time>
      </trkpt>
      <trkpt lat="48.59403" lon="1.96687">
        <ele>145.3</ele>
        <time>2020-08-27T07:32:16Z</time>
      </trkpt>
      <trkpt lat="48.59404" lon="1.96686">
        <ele>145.3</ele>
        <time>2020-08-27T07:32:17Z</time>
      </trkpt>
      <trkpt lat="48.59405" lon="1.96684">
        <ele>145.3</ele>
        <time>2020-08-27T07:32:18Z</time>
      </trkpt>
      <trkpt lat="48.59405" lon="1.96683">
        <ele>145.3</ele>
        <time>2020-08-27T07:32:19Z</time>
      </trkpt>
      <trkpt lat="48.59406" lon="1.96681">
        <ele>145.3</ele>
        <time>2020-08-27T07:32:20Z</time>
      </trkpt>
      <trkpt lat="48.59407" lon="1.9668">
        <ele>145.3</ele>
        <time>2020-08-27T07:32:21Z</time>
      </trkpt>
      <trkpt lat="48.59408" lon="1.96678">
        <ele>145.3</ele>
        <time>2020-08-27T07:32:22Z</time>
      </trkpt>
      <trkpt lat="48.59408" lon="1.96676">
        <ele>145.3</ele>
        <time>2020-08-27T07:32:23Z</time>
      </trkpt>
      <trkpt lat="48.59409" lon="1.96675">
        <ele>145.3</ele>
        <time>2020-08-27T07:32:24Z</time>
      </trkpt>
      <trkpt lat="48.5941" lon="1.96673">
        <ele>145.3</ele>
        <time>2020-08-27T07:32:25Z</time>
      </trkpt>
      <trkpt lat="48.59411" lon="1.96671">
        <ele>145.78</ele>
        <time>2020-08-27T07:32:26Z</time>
      </trkpt>
      <trkpt lat="48.59412" lon="1.96669">
        <ele>145.78</ele>
        <time>2020-08-27T07:32:27Z</time>
      </trkpt>
      <trkpt lat="48.59412" lon="1.96667">
        <ele>145.3</ele>
        <time>2020-08-27T07:32:28Z</time>
      </trkpt>
      <trkpt lat="48.59413" lon="1.96666">
        <ele>145.3</ele>
        <time>2020-08-27T07:32:29Z</time>
      </trkpt>
      <trkpt lat="48.59414" lon="1.96664">
        <ele>145.3</ele>
        <time>2020-08-27T07:32:30Z</time>
      </trkpt>
      <trkpt lat="48.59415" lon="1.96663">
        <ele>145.3</ele>
        <time>2020-08-27T07:32:31Z</time>
      </trkpt>
      <trkpt lat="48.59416" lon="1.96661">
        <ele>145.3</ele>
        <time>2020-08-27T07:32:32Z</time>
      </trkpt>
      <trkpt lat="48.59417" lon="1.9666">
        <ele>145.3</ele>
        <time>2020-08-27T07:32:33Z</time>
      </trkpt>
      <trkpt lat="48.59418" lon="1.96658">
        <ele>144.82</ele>
        <time>2020-08-27T07:32:34Z</time>
      </trkpt>
      <trkpt lat="48.59419" lon="1.96657">
        <ele>144.82</ele>
        <time>2020-08-27T07:32:35Z</time>
      </trkpt>
      <trkpt lat="48.5942" lon="1.96655">
        <ele>144.82</ele>
        <time>2020-08-27T07:32:36Z</time>
      </trkpt>
      <trkpt lat="48.59421" lon="1.96654">
        <ele>144.82</ele>
        <time>2020-08-27T07:32:37Z</time>
      </trkpt>
      <trkpt lat="48.59421" lon="1.96653">
        <ele>144.82</ele>
        <time>2020-08-27T07:32:38Z</time>
      </trkpt>
      <trkpt lat="48.59422" lon="1.96652">
        <ele>144.82</ele>
        <time>2020-08-27T07:32:39Z</time>
      </trkpt>
      <trkpt lat="48.59424" lon="1.9665">
        <ele>144.82</ele>
        <time>2020-08-27T07:32:40Z</time>
      </trkpt>
      <trkpt lat="48.59425" lon="1.96649">
        <ele>144.82</ele>
        <time>2020-08-27T07:32:41Z</time>
      </trkpt>
      <trkpt lat="48.59425" lon="1.96647">
        <ele>144.82</ele>
        <time>2020-08-27T07:32:42Z</time>
      </trkpt>
      <trkpt lat="48.59426" lon="1.96645">
        <ele>144.82</ele>
        <time>2020-08-27T07:32:43Z</time>
      </trkpt>
      <trkpt lat="48.59427" lon="1.96644">
        <ele>144.82</ele>
        <time>2020-08-27T07:32:44Z</time>
      </trkpt>
      <trkpt lat="48.59428" lon="1.96642">
        <ele>144.82</ele>
        <time>2020-08-27T07:32:45Z</time>
      </trkpt>
      <trkpt lat="48.59429" lon="1.9664">
        <ele>144.82</ele>
        <time>2020-08-27T07:32:46Z</time>
      </trkpt>
      <trkpt lat="48.59429" lon="1.96638">
        <ele>144.82</ele>
        <time>2020-08-27T07:32:47Z</time>
      </trkpt>
      <trkpt lat="48.5943" lon="1.96636">
        <ele>144.82</ele>
        <time>2020-08-27T07:32:48Z</time>
      </trkpt>
      <trkpt lat="48.5943" lon="1.96634">
        <ele>145.3</ele>
        <time>2020-08-27T07:32:49Z</time>
      </trkpt>
      <trkpt lat="48.59431" lon="1.96633">
        <ele>145.3</ele>
        <time>2020-08-27T07:32:50Z</time>
      </trkpt>
      <trkpt lat="48.59431" lon="1.96631">
        <ele>144.82</ele>
        <time>2020-08-27T07:32:51Z</time>
      </trkpt>
      <trkpt lat="48.59432" lon="1.96629">
        <ele>144.82</ele>
        <time>2020-08-27T07:32:52Z</time>
      </trkpt>
      <trkpt lat="48.59432" lon="1.96627">
        <ele>144.82</ele>
        <time>2020-08-27T07:32:53Z</time>
      </trkpt>
      <trkpt lat="48.59433" lon="1.96625">
        <ele>145.3</ele>
        <time>2020-08-27T07:32:54Z</time>
      </trkpt>
      <trkpt lat="48.59434" lon="1.96623">
        <ele>145.3</ele>
        <time>2020-08-27T07:32:55Z</time>
      </trkpt>
      <trkpt lat="48.59435" lon="1.96621">
        <ele>145.3</ele>
        <time>2020-08-27T07:32:56Z</time>
      </trkpt>
      <trkpt lat="48.59435" lon="1.96619">
        <ele>145.3</ele>
        <time>2020-08-27T07:32:57Z</time>
      </trkpt>
      <trkpt lat="48.59436" lon="1.96617">
        <ele>145.78</ele>
        <time>2020-08-27T07:32:58Z</time>
      </trkpt>
      <trkpt lat="48.59436" lon="1.96616">
        <ele>145.3</ele>
        <time>2020-08-27T07:32:59Z</time>
      </trkpt>
      <trkpt lat="48.59436" lon="1.96614">
        <ele>145.3</ele>
        <time>2020-08-27T07:33:00Z</time>
      </trkpt>
      <trkpt lat="48.59437" lon="1.96612">
        <ele>145.3</ele>
        <time>2020-08-27T07:33:01Z</time>
      </trkpt>
      <trkpt lat="48.59438" lon="1.9661">
        <ele>145.78</ele>
        <time>2020-08-27T07:33:02Z</time>
      </trkpt>
      <trkpt lat="48.59439" lon="1.96609">
        <ele>145.78</ele>
        <time>2020-08-27T07:33:03Z</time>
      </trkpt>
      <trkpt lat="48.59439" lon="1.96607">
        <ele>145.3</ele>
        <time>2020-08-27T07:33:04Z</time>
      </trkpt>
      <trkpt lat="48.5944" lon="1.96605">
        <ele>145.3</ele>
        <time>2020-08-27T07:33:05Z</time>
      </trkpt>
      <trkpt lat="48.59441" lon="1.96603">
        <ele>145.3</ele>
        <time>2020-08-27T07:33:06Z</time>
      </trkpt>
      <trkpt lat="48.59442" lon="1.96602">
        <ele>145.3</ele>
        <time>2020-08-27T07:33:07Z</time>
      </trkpt>
      <trkpt lat="48.59443" lon="1.966">
        <ele>145.3</ele>
        <time>2020-08-27T07:33:08Z</time>
      </trkpt>
      <trkpt lat="48.59444" lon="1.96598">
        <ele>145.3</ele>
        <time>2020-08-27T07:33:09Z</time>
      </trkpt>
      <trkpt lat="48.59445" lon="1.96596">
        <ele>144.82</ele>
        <time>2020-08-27T07:33:10Z</time>
      </trkpt>
      <trkpt lat="48.59446" lon="1.96594">
        <ele>144.82</ele>
        <time>2020-08-27T07:33:11Z</time>
      </trkpt>
      <trkpt lat="48.59447" lon="1.96593">
        <ele>144.82</ele>
        <time>2020-08-27T07:33:12Z</time>
      </trkpt>
      <trkpt lat="48.59447" lon="1.96591">
        <ele>144.82</ele>
        <time>2020-08-27T07:33:13Z</time>
      </trkpt>
      <trkpt lat="48.59448" lon="1.9659">
        <ele>144.82</ele>
        <time>2020-08-27T07:33:14Z</time>
      </trkpt>
      <trkpt lat="48.59449" lon="1.96588">
        <ele>144.82</ele>
        <time>2020-08-27T07:33:15Z</time>
      </trkpt>
      <trkpt lat="48.5945" lon="1.96586">
        <ele>144.82</ele>
        <time>2020-08-27T07:33:16Z</time>
      </trkpt>
      <trkpt lat="48.59451" lon="1.96584">
        <ele>144.82</ele>
        <time>2020-08-27T07:33:17Z</time>
      </trkpt>
      <trkpt lat="48.59452" lon="1.96582">
        <ele>144.82</ele>
        <time>2020-08-27T07:33:18Z</time>
      </trkpt>
      <trkpt lat="48.59453" lon="1.9658">
        <ele>144.82</ele>
        <time>2020-08-27T07:33:19Z</time>
      </trkpt>
      <trkpt lat="48.59454" lon="1.96578">
        <ele>144.82</ele>
        <time>2020-08-27T07:33:20Z</time>
      </trkpt>
      <trkpt lat="48.59454" lon="1.96576">
        <ele>144.82</ele>
        <time>2020-08-27T07:33:21Z</time>
      </trkpt>
      <trkpt lat="48.59455" lon="1.96574">
        <ele>144.82</ele>
        <time>2020-08-27T07:33:22Z</time>
      </trkpt>
      <trkpt lat="48.59455" lon="1.96573">
        <ele>144.82</ele>
        <time>2020-08-27T07:33:23Z</time>
      </trkpt>
      <trkpt lat="48.59455" lon="1.96571">
        <ele>144.82</ele>
        <time>2020-08-27T07:33:24Z</time>
      </trkpt>
      <trkpt lat="48.59456" lon="1.96569">
        <ele>144.82</ele>
        <time>2020-08-27T07:33:25Z</time>
      </trkpt>
      <trkpt lat="48.59456" lon="1.96568">
        <ele>144.82</ele>
        <time>2020-08-27T07:33:26Z</time>
      </trkpt>
      <trkpt lat="48.59457" lon="1.96567">
        <ele>145.78</ele>
        <time>2020-08-27T07:33:27Z</time>
      </trkpt>
      <trkpt lat="48.59458" lon="1.96566">
        <ele>144.82</ele>
        <time>2020-08-27T07:33:28Z</time>
      </trkpt>
      <trkpt lat="48.59459" lon="1.96564">
        <ele>144.82</ele>
        <time>2020-08-27T07:33:29Z</time>
      </trkpt>
      <trkpt lat="48.5946" lon="1.96563">
        <ele>144.82</ele>
        <time>2020-08-27T07:33:30Z</time>
      </trkpt>
      <trkpt lat="48.59461" lon="1.96561">
        <ele>144.82</ele>
        <time>2020-08-27T07:33:31Z</time>
      </trkpt>
      <trkpt lat="48.59462" lon="1.9656">
        <ele>145.3</ele>
        <time>2020-08-27T07:33:32Z</time>
      </trkpt>
      <trkpt lat="48.59463" lon="1.96559">
        <ele>145.3</ele>
        <time>2020-08-27T07:33:33Z</time>
      </trkpt>
      <trkpt lat="48.59464" lon="1.96558">
        <ele>145.3</ele>
        <time>2020-08-27T07:33:34Z</time>
      </trkpt>
      <trkpt lat="48.59464" lon="1.96556">
        <ele>144.82</ele>
        <time>2020-08-27T07:33:35Z</time>
      </trkpt>
      <trkpt lat="48.59465" lon="1.96554">
        <ele>145.3</ele>
        <time>2020-08-27T07:33:36Z</time>
      </trkpt>
      <trkpt lat="48.59465" lon="1.96552">
        <ele>145.3</ele>
        <time>2020-08-27T07:33:37Z</time>
      </trkpt>
      <trkpt lat="48.59466" lon="1.9655">
        <ele>145.3</ele>
        <time>2020-08-27T07:33:38Z</time>
      </trkpt>
      <trkpt lat="48.59467" lon="1.96548">
        <ele>145.3</ele>
        <time>2020-08-27T07:33:39Z</time>
      </trkpt>
      <trkpt lat="48.59467" lon="1.96546">
        <ele>145.3</ele>
        <time>2020-08-27T07:33:40Z</time>
      </trkpt>
      <trkpt lat="48.59468" lon="1.96545">
        <ele>145.3</ele>
        <time>2020-08-27T07:33:41Z</time>
      </trkpt>
      <trkpt lat="48.59469" lon="1.96544">
        <ele>145.3</ele>
        <time>2020-08-27T07:33:42Z</time>
      </trkpt>
      <trkpt lat="48.59469" lon="1.96542">
        <ele>145.3</ele>
        <time>2020-08-27T07:33:43Z</time>
      </trkpt>
      <trkpt lat="48.5947" lon="1.9654">
        <ele>145.3</ele>
        <time>2020-08-27T07:33:44Z</time>
      </trkpt>
      <trkpt lat="48.59471" lon="1.96538">
        <ele>145.3</ele>
        <time>2020-08-27T07:33:45Z</time>
      </trkpt>
      <trkpt lat="48.59471" lon="1.96536">
        <ele>145.78</ele>
        <time>2020-08-27T07:33:46Z</time>
      </trkpt>
      <trkpt lat="48.59472" lon="1.96534">
        <ele>145.3</ele>
        <time>2020-08-27T07:33:47Z</time>
      </trkpt>
      <trkpt lat="48.59473" lon="1.96533">
        <ele>145.78</ele>
        <time>2020-08-27T07:33:48Z</time>
      </trkpt>
      <trkpt lat="48.59473" lon="1.96531">
        <ele>145.78</ele>
        <time>2020-08-27T07:33:49Z</time>
      </trkpt>
      <trkpt lat="48.59474" lon="1.9653">
        <ele>146.26</ele>
        <time>2020-08-27T07:33:50Z</time>
      </trkpt>
      <trkpt lat="48.59474" lon="1.96528">
        <ele>146.26</ele>
        <time>2020-08-27T07:33:51Z</time>
      </trkpt>
      <trkpt lat="48.59475" lon="1.96526">
        <ele>146.26</ele>
        <time>2020-08-27T07:33:52Z</time>
      </trkpt>
      <trkpt lat="48.59475" lon="1.96525">
        <ele>146.26</ele>
        <time>2020-08-27T07:33:53Z</time>
      </trkpt>
      <trkpt lat="48.59476" lon="1.96524">
        <ele>146.26</ele>
        <time>2020-08-27T07:33:54Z</time>
      </trkpt>
      <trkpt lat="48.59477" lon="1.96523">
        <ele>146.74</ele>
        <time>2020-08-27T07:33:55Z</time>
      </trkpt>
      <trkpt lat="48.59478" lon="1.96522">
        <ele>146.74</ele>
        <time>2020-08-27T07:33:56Z</time>
      </trkpt>
      <trkpt lat="48.59478" lon="1.9652">
        <ele>146.74</ele>
        <time>2020-08-27T07:33:57Z</time>
      </trkpt>
      <trkpt lat="48.59479" lon="1.96519">
        <ele>146.74</ele>
        <time>2020-08-27T07:33:58Z</time>
      </trkpt>
      <trkpt lat="48.59479" lon="1.96518">
        <ele>146.74</ele>
        <time>2020-08-27T07:33:59Z</time>
      </trkpt>
      <trkpt lat="48.5948" lon="1.96516">
        <ele>147.22</ele>
        <time>2020-08-27T07:34:00Z</time>
      </trkpt>
      <trkpt lat="48.59481" lon="1.96514">
        <ele>147.22</ele>
        <time>2020-08-27T07:34:01Z</time>
      </trkpt>
      <trkpt lat="48.59481" lon="1.96512">
        <ele>147.22</ele>
        <time>2020-08-27T07:34:02Z</time>
      </trkpt>
      <trkpt lat="48.59482" lon="1.96511">
        <ele>147.7</ele>
        <time>2020-08-27T07:34:03Z</time>
      </trkpt>
      <trkpt lat="48.59483" lon="1.96509">
        <ele>147.7</ele>
        <time>2020-08-27T07:34:04Z</time>
      </trkpt>
      <trkpt lat="48.59484" lon="1.96507">
        <ele>147.7</ele>
        <time>2020-08-27T07:34:05Z</time>
      </trkpt>
      <trkpt lat="48.59484" lon="1.96505">
        <ele>147.7</ele>
        <time>2020-08-27T07:34:06Z</time>
      </trkpt>
      <trkpt lat="48.59484" lon="1.96503">
        <ele>147.7</ele>
        <time>2020-08-27T07:34:07Z</time>
      </trkpt>
      <trkpt lat="48.59485" lon="1.96501">
        <ele>148.18</ele>
        <time>2020-08-27T07:34:08Z</time>
      </trkpt>
      <trkpt lat="48.59486" lon="1.96499">
        <ele>148.18</ele>
        <time>2020-08-27T07:34:09Z</time>
      </trkpt>
      <trkpt lat="48.59487" lon="1.96498">
        <ele>148.18</ele>
        <time>2020-08-27T07:34:10Z</time>
      </trkpt>
      <trkpt lat="48.59488" lon="1.96496">
        <ele>148.66</ele>
        <time>2020-08-27T07:34:11Z</time>
      </trkpt>
      <trkpt lat="48.59488" lon="1.96495">
        <ele>148.66</ele>
        <time>2020-08-27T07:34:12Z</time>
      </trkpt>
      <trkpt lat="48.59489" lon="1.96493">
        <ele>148.66</ele>
        <time>2020-08-27T07:34:13Z</time>
      </trkpt>
      <trkpt lat="48.5949" lon="1.96491">
        <ele>148.66</ele>
        <time>2020-08-27T07:34:14Z</time>
      </trkpt>
      <trkpt lat="48.59491" lon="1.96489">
        <ele>149.14</ele>
        <time>2020-08-27T07:34:15Z</time>
      </trkpt>
      <trkpt lat="48.59493" lon="1.96487">
        <ele>149.14</ele>
        <time>2020-08-27T07:34:16Z</time>
      </trkpt>
      <trkpt lat="48.59494" lon="1.96486">
        <ele>149.14</ele>
        <time>2020-08-27T07:34:17Z</time>
      </trkpt>
      <trkpt lat="48.59494" lon="1.96484">
        <ele>149.14</ele>
        <time>2020-08-27T07:34:18Z</time>
      </trkpt>
      <trkpt lat="48.59495" lon="1.96483">
        <ele>149.14</ele>
        <time>2020-08-27T07:34:19Z</time>
      </trkpt>
      <trkpt lat="48.59495" lon="1.96481">
        <ele>149.14</ele>
        <time>2020-08-27T07:34:20Z</time>
      </trkpt>
      <trkpt lat="48.59496" lon="1.96479">
        <ele>149.14</ele>
        <time>2020-08-27T07:34:21Z</time>
      </trkpt>
      <trkpt lat="48.59497" lon="1.96477">
        <ele>149.14</ele>
        <time>2020-08-27T07:34:22Z</time>
      </trkpt>
      <trkpt lat="48.59498" lon="1.96476">
        <ele>149.14</ele>
        <time>2020-08-27T07:34:23Z</time>
      </trkpt>
      <trkpt lat="48.59498" lon="1.96474">
        <ele>149.14</ele>
        <time>2020-08-27T07:34:24Z</time>
      </trkpt>
      <trkpt lat="48.59499" lon="1.96473">
        <ele>149.14</ele>
        <time>2020-08-27T07:34:25Z</time>
      </trkpt>
      <trkpt lat="48.595" lon="1.96472">
        <ele>149.62</ele>
        <time>2020-08-27T07:34:26Z</time>
      </trkpt>
      <trkpt lat="48.59502" lon="1.96471">
        <ele>149.62</ele>
        <time>2020-08-27T07:34:27Z</time>
      </trkpt>
      <trkpt lat="48.59502" lon="1.96469">
        <ele>149.62</ele>
        <time>2020-08-27T07:34:28Z</time>
      </trkpt>
      <trkpt lat="48.59503" lon="1.96468">
        <ele>149.62</ele>
        <time>2020-08-27T07:34:29Z</time>
      </trkpt>
      <trkpt lat="48.59504" lon="1.96466">
        <ele>149.62</ele>
        <time>2020-08-27T07:34:30Z</time>
      </trkpt>
      <trkpt lat="48.59504" lon="1.96464">
        <ele>149.62</ele>
        <time>2020-08-27T07:34:31Z</time>
      </trkpt>
      <trkpt lat="48.59505" lon="1.96462">
        <ele>149.62</ele>
        <time>2020-08-27T07:34:32Z</time>
      </trkpt>
      <trkpt lat="48.59505" lon="1.9646">
        <ele>149.62</ele>
        <time>2020-08-27T07:34:33Z</time>
      </trkpt>
      <trkpt lat="48.59505" lon="1.96458">
        <ele>149.62</ele>
        <time>2020-08-27T07:34:34Z</time>
      </trkpt>
      <trkpt lat="48.59506" lon="1.96457">
        <ele>150.1</ele>
        <time>2020-08-27T07:34:35Z</time>
      </trkpt>
      <trkpt lat="48.59506" lon="1.96455">
        <ele>150.1</ele>
        <time>2020-08-27T07:34:36Z</time>
      </trkpt>
      <trkpt lat="48.59507" lon="1.96454">
        <ele>150.1</ele>
        <time>2020-08-27T07:34:37Z</time>
      </trkpt>
      <trkpt lat="48.59508" lon="1.96453">
        <ele>150.1</ele>
        <time>2020-08-27T07:34:38Z</time>
      </trkpt>
      <trkpt lat="48.59508" lon="1.96451">
        <ele>150.1</ele>
        <time>2020-08-27T07:34:39Z</time>
      </trkpt>
      <trkpt lat="48.59509" lon="1.96449">
        <ele>150.1</ele>
        <time>2020-08-27T07:34:40Z</time>
      </trkpt>
      <trkpt lat="48.5951" lon="1.96448">
        <ele>150.58</ele>
        <time>2020-08-27T07:34:41Z</time>
      </trkpt>
      <trkpt lat="48.59511" lon="1.96446">
        <ele>150.58</ele>
        <time>2020-08-27T07:34:42Z</time>
      </trkpt>
      <trkpt lat="48.59511" lon="1.96444">
        <ele>150.58</ele>
        <time>2020-08-27T07:34:43Z</time>
      </trkpt>
      <trkpt lat="48.59512" lon="1.96442">
        <ele>150.58</ele>
        <time>2020-08-27T07:34:44Z</time>
      </trkpt>
      <trkpt lat="48.59512" lon="1.96439">
        <ele>151.06</ele>
        <time>2020-08-27T07:34:45Z</time>
      </trkpt>
      <trkpt lat="48.59513" lon="1.96438">
        <ele>151.06</ele>
        <time>2020-08-27T07:34:46Z</time>
      </trkpt>
      <trkpt lat="48.59513" lon="1.96436">
        <ele>151.06</ele>
        <time>2020-08-27T07:34:47Z</time>
      </trkpt>
      <trkpt lat="48.59515" lon="1.96435">
        <ele>151.54</ele>
        <time>2020-08-27T07:34:48Z</time>
      </trkpt>
      <trkpt lat="48.59516" lon="1.96434">
        <ele>152.03</ele>
        <time>2020-08-27T07:34:49Z</time>
      </trkpt>
      <trkpt lat="48.59516" lon="1.96432">
        <ele>152.03</ele>
        <time>2020-08-27T07:34:50Z</time>
      </trkpt>
      <trkpt lat="48.59517" lon="1.96431">
        <ele>152.03</ele>
        <time>2020-08-27T07:34:51Z</time>
      </trkpt>
      <trkpt lat="48.59518" lon="1.9643">
        <ele>152.03</ele>
        <time>2020-08-27T07:34:52Z</time>
      </trkpt>
      <trkpt lat="48.59518" lon="1.96428">
        <ele>152.03</ele>
        <time>2020-08-27T07:34:53Z</time>
      </trkpt>
      <trkpt lat="48.59519" lon="1.96427">
        <ele>152.03</ele>
        <time>2020-08-27T07:34:54Z</time>
      </trkpt>
      <trkpt lat="48.5952" lon="1.96425">
        <ele>152.51</ele>
        <time>2020-08-27T07:34:55Z</time>
      </trkpt>
      <trkpt lat="48.5952" lon="1.96424">
        <ele>152.51</ele>
        <time>2020-08-27T07:34:56Z</time>
      </trkpt>
      <trkpt lat="48.59521" lon="1.96422">
        <ele>152.51</ele>
        <time>2020-08-27T07:34:57Z</time>
      </trkpt>
      <trkpt lat="48.59522" lon="1.96421">
        <ele>152.51</ele>
        <time>2020-08-27T07:34:58Z</time>
      </trkpt>
      <trkpt lat="48.59523" lon="1.9642">
        <ele>152.51</ele>
        <time>2020-08-27T07:34:59Z</time>
      </trkpt>
      <trkpt lat="48.59524" lon="1.96418">
        <ele>152.51</ele>
        <time>2020-08-27T07:35:00Z</time>
      </trkpt>
      <trkpt lat="48.59526" lon="1.96417">
        <ele>152.51</ele>
        <time>2020-08-27T07:35:01Z</time>
      </trkpt>
      <trkpt lat="48.59527" lon="1.96415">
        <ele>152.51</ele>
        <time>2020-08-27T07:35:02Z</time>
      </trkpt>
      <trkpt lat="48.59528" lon="1.96413">
        <ele>152.99</ele>
        <time>2020-08-27T07:35:03Z</time>
      </trkpt>
      <trkpt lat="48.59529" lon="1.96411">
        <ele>152.99</ele>
        <time>2020-08-27T07:35:04Z</time>
      </trkpt>
      <trkpt lat="48.59529" lon="1.96409">
        <ele>152.99</ele>
        <time>2020-08-27T07:35:05Z</time>
      </trkpt>
      <trkpt lat="48.5953" lon="1.96408">
        <ele>152.99</ele>
        <time>2020-08-27T07:35:06Z</time>
      </trkpt>
      <trkpt lat="48.59531" lon="1.96406">
        <ele>152.99</ele>
        <time>2020-08-27T07:35:07Z</time>
      </trkpt>
      <trkpt lat="48.59531" lon="1.96405">
        <ele>153.47</ele>
        <time>2020-08-27T07:35:08Z</time>
      </trkpt>
      <trkpt lat="48.59532" lon="1.96403">
        <ele>152.99</ele>
        <time>2020-08-27T07:35:09Z</time>
      </trkpt>
      <trkpt lat="48.59532" lon="1.96402">
        <ele>153.47</ele>
        <time>2020-08-27T07:35:10Z</time>
      </trkpt>
      <trkpt lat="48.59533" lon="1.96401">
        <ele>153.47</ele>
        <time>2020-08-27T07:35:11Z</time>
      </trkpt>
      <trkpt lat="48.59534" lon="1.964">
        <ele>153.47</ele>
        <time>2020-08-27T07:35:12Z</time>
      </trkpt>
      <trkpt lat="48.59535" lon="1.96398">
        <ele>153.95</ele>
        <time>2020-08-27T07:35:13Z</time>
      </trkpt>
      <trkpt lat="48.59536" lon="1.96396">
        <ele>153.95</ele>
        <time>2020-08-27T07:35:14Z</time>
      </trkpt>
      <trkpt lat="48.59537" lon="1.96394">
        <ele>153.95</ele>
        <time>2020-08-27T07:35:15Z</time>
      </trkpt>
      <trkpt lat="48.59538" lon="1.96392">
        <ele>154.43</ele>
        <time>2020-08-27T07:35:16Z</time>
      </trkpt>
      <trkpt lat="48.59538" lon="1.9639">
        <ele>153.95</ele>
        <time>2020-08-27T07:35:17Z</time>
      </trkpt>
      <trkpt lat="48.59539" lon="1.96388">
        <ele>153.95</ele>
        <time>2020-08-27T07:35:18Z</time>
      </trkpt>
      <trkpt lat="48.5954" lon="1.96387">
        <ele>153.95</ele>
        <time>2020-08-27T07:35:19Z</time>
      </trkpt>
      <trkpt lat="48.59541" lon="1.96385">
        <ele>154.43</ele>
        <time>2020-08-27T07:35:20Z</time>
      </trkpt>
      <trkpt lat="48.59541" lon="1.96384">
        <ele>154.43</ele>
        <time>2020-08-27T07:35:21Z</time>
      </trkpt>
      <trkpt lat="48.59542" lon="1.96382">
        <ele>154.43</ele>
        <time>2020-08-27T07:35:22Z</time>
      </trkpt>
      <trkpt lat="48.59543" lon="1.9638">
        <ele>154.43</ele>
        <time>2020-08-27T07:35:23Z</time>
      </trkpt>
      <trkpt lat="48.59544" lon="1.96379">
        <ele>154.43</ele>
        <time>2020-08-27T07:35:24Z</time>
      </trkpt>
      <trkpt lat="48.59545" lon="1.96377">
        <ele>154.43</ele>
        <time>2020-08-27T07:35:25Z</time>
      </trkpt>
      <trkpt lat="48.59546" lon="1.96375">
        <ele>154.43</ele>
        <time>2020-08-27T07:35:26Z</time>
      </trkpt>
      <trkpt lat="48.59547" lon="1.96373">
        <ele>154.43</ele>
        <time>2020-08-27T07:35:27Z</time>
      </trkpt>
      <trkpt lat="48.59547" lon="1.96371">
        <ele>155.87</ele>
        <time>2020-08-27T07:35:28Z</time>
      </trkpt>
      <trkpt lat="48.59548" lon="1.96369">
        <ele>154.91</ele>
        <time>2020-08-27T07:35:29Z</time>
      </trkpt>
      <trkpt lat="48.59549" lon="1.96367">
        <ele>154.43</ele>
        <time>2020-08-27T07:35:30Z</time>
      </trkpt>
      <trkpt lat="48.59549" lon="1.96366">
        <ele>154.91</ele>
        <time>2020-08-27T07:35:31Z</time>
      </trkpt>
      <trkpt lat="48.5955" lon="1.96364">
        <ele>154.91</ele>
        <time>2020-08-27T07:35:32Z</time>
      </trkpt>
      <trkpt lat="48.59551" lon="1.96362">
        <ele>154.91</ele>
        <time>2020-08-27T07:35:33Z</time>
      </trkpt>
      <trkpt lat="48.59552" lon="1.96361">
        <ele>154.91</ele>
        <time>2020-08-27T07:35:34Z</time>
      </trkpt>
      <trkpt lat="48.59552" lon="1.96359">
        <ele>154.91</ele>
        <time>2020-08-27T07:35:35Z</time>
      </trkpt>
      <trkpt lat="48.59553" lon="1.96358">
        <ele>154.91</ele>
        <time>2020-08-27T07:35:36Z</time>
      </trkpt>
      <trkpt lat="48.59554" lon="1.96357">
        <ele>154.91</ele>
        <time>2020-08-27T07:35:37Z</time>
      </trkpt>
      <trkpt lat="48.59555" lon="1.96355">
        <ele>155.39</ele>
        <time>2020-08-27T07:35:38Z</time>
      </trkpt>
      <trkpt lat="48.59555" lon="1.96353">
        <ele>155.39</ele>
        <time>2020-08-27T07:35:39Z</time>
      </trkpt>
      <trkpt lat="48.59556" lon="1.96351">
        <ele>155.39</ele>
        <time>2020-08-27T07:35:40Z</time>
      </trkpt>
      <trkpt lat="48.59557" lon="1.96349">
        <ele>155.39</ele>
        <time>2020-08-27T07:35:41Z</time>
      </trkpt>
      <trkpt lat="48.59557" lon="1.96348">
        <ele>155.39</ele>
        <time>2020-08-27T07:35:42Z</time>
      </trkpt>
      <trkpt lat="48.59558" lon="1.96346">
        <ele>155.39</ele>
        <time>2020-08-27T07:35:43Z</time>
      </trkpt>
      <trkpt lat="48.59559" lon="1.96345">
        <ele>155.39</ele>
        <time>2020-08-27T07:35:44Z</time>
      </trkpt>
      <trkpt lat="48.5956" lon="1.96343">
        <ele>155.39</ele>
        <time>2020-08-27T07:35:45Z</time>
      </trkpt>
      <trkpt lat="48.59561" lon="1.96341">
        <ele>155.39</ele>
        <time>2020-08-27T07:35:46Z</time>
      </trkpt>
      <trkpt lat="48.59562" lon="1.96339">
        <ele>155.39</ele>
        <time>2020-08-27T07:35:47Z</time>
      </trkpt>
      <trkpt lat="48.59563" lon="1.96338">
        <ele>155.39</ele>
        <time>2020-08-27T07:35:48Z</time>
      </trkpt>
      <trkpt lat="48.59564" lon="1.96336">
        <ele>155.39</ele>
        <time>2020-08-27T07:35:49Z</time>
      </trkpt>
      <trkpt lat="48.59564" lon="1.96335">
        <ele>155.39</ele>
        <time>2020-08-27T07:35:50Z</time>
      </trkpt>
      <trkpt lat="48.59565" lon="1.96334">
        <ele>154.91</ele>
        <time>2020-08-27T07:35:51Z</time>
      </trkpt>
      <trkpt lat="48.59566" lon="1.96332">
        <ele>155.39</ele>
        <time>2020-08-27T07:35:52Z</time>
      </trkpt>
      <trkpt lat="48.59567" lon="1.9633">
        <ele>155.39</ele>
        <time>2020-08-27T07:35:53Z</time>
      </trkpt>
      <trkpt lat="48.59568" lon="1.96328">
        <ele>155.39</ele>
        <time>2020-08-27T07:35:54Z</time>
      </trkpt>
      <trkpt lat="48.59569" lon="1.96327">
        <ele>154.91</ele>
        <time>2020-08-27T07:35:55Z</time>
      </trkpt>
      <trkpt lat="48.5957" lon="1.96325">
        <ele>155.39</ele>
        <time>2020-08-27T07:35:56Z</time>
      </trkpt>
      <trkpt lat="48.5957" lon="1.96323">
        <ele>155.39</ele>
        <time>2020-08-27T07:35:57Z</time>
      </trkpt>
      <trkpt lat="48.59571" lon="1.96321">
        <ele>155.39</ele>
        <time>2020-08-27T07:35:58Z</time>
      </trkpt>
      <trkpt lat="48.59571" lon="1.9632">
        <ele>154.91</ele>
        <time>2020-08-27T07:35:59Z</time>
      </trkpt>
      <trkpt lat="48.59572" lon="1.96318">
        <ele>155.39</ele>
        <time>2020-08-27T07:36:00Z</time>
      </trkpt>
      <trkpt lat="48.59573" lon="1.96316">
        <ele>155.39</ele>
        <time>2020-08-27T07:36:01Z</time>
      </trkpt>
      <trkpt lat="48.59573" lon="1.96315">
        <ele>155.39</ele>
        <time>2020-08-27T07:36:02Z</time>
      </trkpt>
      <trkpt lat="48.59574" lon="1.96313">
        <ele>155.39</ele>
        <time>2020-08-27T07:36:03Z</time>
      </trkpt>
      <trkpt lat="48.59575" lon="1.96312">
        <ele>155.87</ele>
        <time>2020-08-27T07:36:04Z</time>
      </trkpt>
      <trkpt lat="48.59576" lon="1.96311">
        <ele>155.87</ele>
        <time>2020-08-27T07:36:05Z</time>
      </trkpt>
      <trkpt lat="48.59577" lon="1.96309">
        <ele>155.87</ele>
        <time>2020-08-27T07:36:06Z</time>
      </trkpt>
      <trkpt lat="48.59577" lon="1.96308">
        <ele>155.87</ele>
        <time>2020-08-27T07:36:07Z</time>
      </trkpt>
      <trkpt lat="48.59578" lon="1.96306">
        <ele>155.87</ele>
        <time>2020-08-27T07:36:08Z</time>
      </trkpt>
      <trkpt lat="48.59579" lon="1.96305">
        <ele>155.39</ele>
        <time>2020-08-27T07:36:09Z</time>
      </trkpt>
      <trkpt lat="48.5958" lon="1.96303">
        <ele>155.39</ele>
        <time>2020-08-27T07:36:10Z</time>
      </trkpt>
      <trkpt lat="48.59581" lon="1.96301">
        <ele>155.39</ele>
        <time>2020-08-27T07:36:11Z</time>
      </trkpt>
      <trkpt lat="48.59582" lon="1.96299">
        <ele>155.39</ele>
        <time>2020-08-27T07:36:12Z</time>
      </trkpt>
      <trkpt lat="48.59583" lon="1.96297">
        <ele>154.91</ele>
        <time>2020-08-27T07:36:13Z</time>
      </trkpt>
      <trkpt lat="48.59583" lon="1.96296">
        <ele>154.91</ele>
        <time>2020-08-27T07:36:14Z</time>
      </trkpt>
      <trkpt lat="48.59585" lon="1.96294">
        <ele>154.91</ele>
        <time>2020-08-27T07:36:15Z</time>
      </trkpt>
      <trkpt lat="48.59586" lon="1.96292">
        <ele>154.91</ele>
        <time>2020-08-27T07:36:16Z</time>
      </trkpt>
      <trkpt lat="48.59586" lon="1.96291">
        <ele>154.43</ele>
        <time>2020-08-27T07:36:17Z</time>
      </trkpt>
      <trkpt lat="48.59587" lon="1.96289">
        <ele>154.43</ele>
        <time>2020-08-27T07:36:18Z</time>
      </trkpt>
      <trkpt lat="48.59587" lon="1.96287">
        <ele>154.43</ele>
        <time>2020-08-27T07:36:19Z</time>
      </trkpt>
      <trkpt lat="48.59588" lon="1.96285">
        <ele>153.95</ele>
        <time>2020-08-27T07:36:20Z</time>
      </trkpt>
      <trkpt lat="48.59589" lon="1.96283">
        <ele>154.43</ele>
        <time>2020-08-27T07:36:21Z</time>
      </trkpt>
      <trkpt lat="48.5959" lon="1.96282">
        <ele>153.95</ele>
        <time>2020-08-27T07:36:22Z</time>
      </trkpt>
      <trkpt lat="48.59591" lon="1.9628">
        <ele>153.47</ele>
        <time>2020-08-27T07:36:23Z</time>
      </trkpt>
      <trkpt lat="48.59592" lon="1.96278">
        <ele>153.47</ele>
        <time>2020-08-27T07:36:24Z</time>
      </trkpt>
      <trkpt lat="48.59593" lon="1.96276">
        <ele>153.47</ele>
        <time>2020-08-27T07:36:25Z</time>
      </trkpt>
      <trkpt lat="48.59594" lon="1.96275">
        <ele>153.47</ele>
        <time>2020-08-27T07:36:26Z</time>
      </trkpt>
      <trkpt lat="48.59595" lon="1.96273">
        <ele>153.47</ele>
        <time>2020-08-27T07:36:27Z</time>
      </trkpt>
      <trkpt lat="48.59596" lon="1.96271">
        <ele>152.99</ele>
        <time>2020-08-27T07:36:28Z</time>
      </trkpt>
      <trkpt lat="48.59596" lon="1.9627">
        <ele>152.99</ele>
        <time>2020-08-27T07:36:29Z</time>
      </trkpt>
      <trkpt lat="48.59597" lon="1.96269">
        <ele>152.99</ele>
        <time>2020-08-27T07:36:30Z</time>
      </trkpt>
      <trkpt lat="48.59598" lon="1.96268">
        <ele>152.99</ele>
        <time>2020-08-27T07:36:31Z</time>
      </trkpt>
      <trkpt lat="48.59598" lon="1.96266">
        <ele>152.51</ele>
        <time>2020-08-27T07:36:32Z</time>
      </trkpt>
      <trkpt lat="48.596" lon="1.96265">
        <ele>152.51</ele>
        <time>2020-08-27T07:36:33Z</time>
      </trkpt>
      <trkpt lat="48.59601" lon="1.96263">
        <ele>152.51</ele>
        <time>2020-08-27T07:36:34Z</time>
      </trkpt>
      <trkpt lat="48.59601" lon="1.96262">
        <ele>152.03</ele>
        <time>2020-08-27T07:36:35Z</time>
      </trkpt>
      <trkpt lat="48.59602" lon="1.9626">
        <ele>152.03</ele>
        <time>2020-08-27T07:36:36Z</time>
      </trkpt>
      <trkpt lat="48.59603" lon="1.96258">
        <ele>151.54</ele>
        <time>2020-08-27T07:36:37Z</time>
      </trkpt>
      <trkpt lat="48.59604" lon="1.96256">
        <ele>151.54</ele>
        <time>2020-08-27T07:36:38Z</time>
      </trkpt>
      <trkpt lat="48.59605" lon="1.96254">
        <ele>151.54</ele>
        <time>2020-08-27T07:36:39Z</time>
      </trkpt>
      <trkpt lat="48.59606" lon="1.96253">
        <ele>151.54</ele>
        <time>2020-08-27T07:36:40Z</time>
      </trkpt>
      <trkpt lat="48.59606" lon="1.96251">
        <ele>151.54</ele>
        <time>2020-08-27T07:36:41Z</time>
      </trkpt>
      <trkpt lat="48.59607" lon="1.96249">
        <ele>151.06</ele>
        <time>2020-08-27T07:36:42Z</time>
      </trkpt>
      <trkpt lat="48.59608" lon="1.96247">
        <ele>151.06</ele>
        <time>2020-08-27T07:36:43Z</time>
      </trkpt>
      <trkpt lat="48.59608" lon="1.96246">
        <ele>150.58</ele>
        <time>2020-08-27T07:36:44Z</time>
      </trkpt>
      <trkpt lat="48.59609" lon="1.96245">
        <ele>150.58</ele>
        <time>2020-08-27T07:36:45Z</time>
      </trkpt>
      <trkpt lat="48.5961" lon="1.96244">
        <ele>150.58</ele>
        <time>2020-08-27T07:36:46Z</time>
      </trkpt>
      <trkpt lat="48.5961" lon="1.96243">
        <ele>150.1</ele>
        <time>2020-08-27T07:36:47Z</time>
      </trkpt>
      <trkpt lat="48.59611" lon="1.96242">
        <ele>150.1</ele>
        <time>2020-08-27T07:36:48Z</time>
      </trkpt>
      <trkpt lat="48.59612" lon="1.9624">
        <ele>150.1</ele>
        <time>2020-08-27T07:36:49Z</time>
      </trkpt>
      <trkpt lat="48.59612" lon="1.96238">
        <ele>149.62</ele>
        <time>2020-08-27T07:36:50Z</time>
      </trkpt>
      <trkpt lat="48.59613" lon="1.96237">
        <ele>149.62</ele>
        <time>2020-08-27T07:36:51Z</time>
      </trkpt>
      <trkpt lat="48.59613" lon="1.96236">
        <ele>149.14</ele>
        <time>2020-08-27T07:36:52Z</time>
      </trkpt>
      <trkpt lat="48.59614" lon="1.96235">
        <ele>148.66</ele>
        <time>2020-08-27T07:36:53Z</time>
      </trkpt>
      <trkpt lat="48.59615" lon="1.96233">
        <ele>148.66</ele>
        <time>2020-08-27T07:36:54Z</time>
      </trkpt>
      <trkpt lat="48.59616" lon="1.96232">
        <ele>148.66</ele>
        <time>2020-08-27T07:36:55Z</time>
      </trkpt>
      <trkpt lat="48.59616" lon="1.9623">
        <ele>148.18</ele>
        <time>2020-08-27T07:36:56Z</time>
      </trkpt>
      <trkpt lat="48.59617" lon="1.96229">
        <ele>148.18</ele>
        <time>2020-08-27T07:36:57Z</time>
      </trkpt>
      <trkpt lat="48.59618" lon="1.96228">
        <ele>147.7</ele>
        <time>2020-08-27T07:36:58Z</time>
      </trkpt>
      <trkpt lat="48.59618" lon="1.96227">
        <ele>147.7</ele>
        <time>2020-08-27T07:36:59Z</time>
      </trkpt>
      <trkpt lat="48.59619" lon="1.96226">
        <ele>147.22</ele>
        <time>2020-08-27T07:37:00Z</time>
      </trkpt>
      <trkpt lat="48.59619" lon="1.96224">
        <ele>147.22</ele>
        <time>2020-08-27T07:37:01Z</time>
      </trkpt>
      <trkpt lat="48.5962" lon="1.96223">
        <ele>146.74</ele>
        <time>2020-08-27T07:37:02Z</time>
      </trkpt>
      <trkpt lat="48.5962" lon="1.96222">
        <ele>146.26</ele>
        <time>2020-08-27T07:37:03Z</time>
      </trkpt>
      <trkpt lat="48.5962" lon="1.9622">
        <ele>146.26</ele>
        <time>2020-08-27T07:37:04Z</time>
      </trkpt>
      <trkpt lat="48.5962" lon="1.96219">
        <ele>145.78</ele>
        <time>2020-08-27T07:37:05Z</time>
      </trkpt>
      <trkpt lat="48.59621" lon="1.96217">
        <ele>145.78</ele>
        <time>2020-08-27T07:37:06Z</time>
      </trkpt>
      <trkpt lat="48.59622" lon="1.96216">
        <ele>145.78</ele>
        <time>2020-08-27T07:37:07Z</time>
      </trkpt>
      <trkpt lat="48.59623" lon="1.96215">
        <ele>145.3</ele>
        <time>2020-08-27T07:37:08Z</time>
      </trkpt>
      <trkpt lat="48.59624" lon="1.96213">
        <ele>144.82</ele>
        <time>2020-08-27T07:37:09Z</time>
      </trkpt>
      <trkpt lat="48.59624" lon="1.96212">
        <ele>144.82</ele>
        <time>2020-08-27T07:37:10Z</time>
      </trkpt>
      <trkpt lat="48.59625" lon="1.9621">
        <ele>144.34</ele>
        <time>2020-08-27T07:37:11Z</time>
      </trkpt>
      <trkpt lat="48.59625" lon="1.96208">
        <ele>144.34</ele>
        <time>2020-08-27T07:37:12Z</time>
      </trkpt>
      <trkpt lat="48.59626" lon="1.96206">
        <ele>143.85</ele>
        <time>2020-08-27T07:37:13Z</time>
      </trkpt>
      <trkpt lat="48.59627" lon="1.96204">
        <ele>143.85</ele>
        <time>2020-08-27T07:37:14Z</time>
      </trkpt>
      <trkpt lat="48.59628" lon="1.96202">
        <ele>143.85</ele>
        <time>2020-08-27T07:37:15Z</time>
      </trkpt>
      <trkpt lat="48.59628" lon="1.962">
        <ele>143.37</ele>
        <time>2020-08-27T07:37:16Z</time>
      </trkpt>
      <trkpt lat="48.59629" lon="1.96198">
        <ele>143.37</ele>
        <time>2020-08-27T07:37:17Z</time>
      </trkpt>
      <trkpt lat="48.5963" lon="1.96196">
        <ele>143.37</ele>
        <time>2020-08-27T07:37:18Z</time>
      </trkpt>
      <trkpt lat="48.5963" lon="1.96195">
        <ele>142.89</ele>
        <time>2020-08-27T07:37:19Z</time>
      </trkpt>
      <trkpt lat="48.5963" lon="1.96194">
        <ele>142.89</ele>
        <time>2020-08-27T07:37:20Z</time>
      </trkpt>
      <trkpt lat="48.59631" lon="1.96192">
        <ele>142.89</ele>
        <time>2020-08-27T07:37:21Z</time>
      </trkpt>
      <trkpt lat="48.59632" lon="1.96191">
        <ele>142.41</ele>
        <time>2020-08-27T07:37:22Z</time>
      </trkpt>
      <trkpt lat="48.59633" lon="1.9619">
        <ele>142.41</ele>
        <time>2020-08-27T07:37:23Z</time>
      </trkpt>
      <trkpt lat="48.59633" lon="1.96189">
        <ele>142.41</ele>
        <time>2020-08-27T07:37:24Z</time>
      </trkpt>
      <trkpt lat="48.59634" lon="1.96187">
        <ele>141.93</ele>
        <time>2020-08-27T07:37:25Z</time>
      </trkpt>
      <trkpt lat="48.59635" lon="1.96187">
        <ele>141.93</ele>
        <time>2020-08-27T07:37:26Z</time>
      </trkpt>
      <trkpt lat="48.59636" lon="1.96186">
        <ele>141.45</ele>
        <time>2020-08-27T07:37:27Z</time>
      </trkpt>
      <trkpt lat="48.59637" lon="1.96184">
        <ele>141.93</ele>
        <time>2020-08-27T07:37:28Z</time>
      </trkpt>
      <trkpt lat="48.59638" lon="1.96183">
        <ele>141.45</ele>
        <time>2020-08-27T07:37:29Z</time>
      </trkpt>
      <trkpt lat="48.59638" lon="1.96182">
        <ele>140.97</ele>
        <time>2020-08-27T07:37:30Z</time>
      </trkpt>
      <trkpt lat="48.59639" lon="1.96181">
        <ele>140.97</ele>
        <time>2020-08-27T07:37:31Z</time>
      </trkpt>
      <trkpt lat="48.5964" lon="1.9618">
        <ele>140.49</ele>
        <time>2020-08-27T07:37:32Z</time>
      </trkpt>
      <trkpt lat="48.59641" lon="1.96179">
        <ele>140.49</ele>
        <time>2020-08-27T07:37:33Z</time>
      </trkpt>
      <trkpt lat="48.59641" lon="1.96178">
        <ele>140.01</ele>
        <time>2020-08-27T07:37:34Z</time>
      </trkpt>
      <trkpt lat="48.59641" lon="1.96177">
        <ele>140.01</ele>
        <time>2020-08-27T07:37:35Z</time>
      </trkpt>
      <trkpt lat="48.59642" lon="1.96175">
        <ele>139.53</ele>
        <time>2020-08-27T07:37:36Z</time>
      </trkpt>
      <trkpt lat="48.59643" lon="1.96173">
        <ele>139.53</ele>
        <time>2020-08-27T07:37:37Z</time>
      </trkpt>
      <trkpt lat="48.59643" lon="1.96171">
        <ele>139.53</ele>
        <time>2020-08-27T07:37:38Z</time>
      </trkpt>
      <trkpt lat="48.59644" lon="1.96169">
        <ele>139.05</ele>
        <time>2020-08-27T07:37:39Z</time>
      </trkpt>
      <trkpt lat="48.59644" lon="1.96168">
        <ele>139.05</ele>
        <time>2020-08-27T07:37:40Z</time>
      </trkpt>
      <trkpt lat="48.59645" lon="1.96166">
        <ele>138.57</ele>
        <time>2020-08-27T07:37:41Z</time>
      </trkpt>
      <trkpt lat="48.59646" lon="1.96164">
        <ele>138.57</ele>
        <time>2020-08-27T07:37:42Z</time>
      </trkpt>
      <trkpt lat="48.59647" lon="1.96162">
        <ele>138.09</ele>
        <time>2020-08-27T07:37:43Z</time>
      </trkpt>
      <trkpt lat="48.59648" lon="1.96161">
        <ele>138.09</ele>
        <time>2020-08-27T07:37:44Z</time>
      </trkpt>
      <trkpt lat="48.59648" lon="1.9616">
        <ele>138.09</ele>
        <time>2020-08-27T07:37:45Z</time>
      </trkpt>
      <trkpt lat="48.59647" lon="1.96158">
        <ele>137.61</ele>
        <time>2020-08-27T07:37:46Z</time>
      </trkpt>
      <trkpt lat="48.59648" lon="1.96156">
        <ele>137.61</ele>
        <time>2020-08-27T07:37:47Z</time>
      </trkpt>
      <trkpt lat="48.59648" lon="1.96154">
        <ele>137.61</ele>
        <time>2020-08-27T07:37:48Z</time>
      </trkpt>
      <trkpt lat="48.59649" lon="1.96153">
        <ele>137.13</ele>
        <time>2020-08-27T07:37:49Z</time>
      </trkpt>
      <trkpt lat="48.59649" lon="1.96152">
        <ele>136.64</ele>
        <time>2020-08-27T07:37:50Z</time>
      </trkpt>
      <trkpt lat="48.5965" lon="1.96151">
        <ele>136.64</ele>
        <time>2020-08-27T07:37:51Z</time>
      </trkpt>
      <trkpt lat="48.5965" lon="1.9615">
        <ele>136.64</ele>
        <time>2020-08-27T07:37:52Z</time>
      </trkpt>
      <trkpt lat="48.59651" lon="1.96148">
        <ele>136.64</ele>
        <time>2020-08-27T07:37:53Z</time>
      </trkpt>
      <trkpt lat="48.59652" lon="1.96147">
        <ele>136.64</ele>
        <time>2020-08-27T07:37:54Z</time>
      </trkpt>
      <trkpt lat="48.59653" lon="1.96145">
        <ele>136.16</ele>
        <time>2020-08-27T07:37:55Z</time>
      </trkpt>
      <trkpt lat="48.59654" lon="1.96143">
        <ele>136.16</ele>
        <time>2020-08-27T07:37:56Z</time>
      </trkpt>
      <trkpt lat="48.59655" lon="1.9614">
        <ele>136.16</ele>
        <time>2020-08-27T07:37:57Z</time>
      </trkpt>
      <trkpt lat="48.59655" lon="1.96138">
        <ele>135.68</ele>
        <time>2020-08-27T07:37:58Z</time>
      </trkpt>
      <trkpt lat="48.59656" lon="1.96136">
        <ele>135.68</ele>
        <time>2020-08-27T07:37:59Z</time>
      </trkpt>
      <trkpt lat="48.59657" lon="1.96135">
        <ele>135.68</ele>
        <time>2020-08-27T07:38:00Z</time>
      </trkpt>
      <trkpt lat="48.59658" lon="1.96133">
        <ele>135.68</ele>
        <time>2020-08-27T07:38:01Z</time>
      </trkpt>
      <trkpt lat="48.59659" lon="1.96131">
        <ele>135.68</ele>
        <time>2020-08-27T07:38:02Z</time>
      </trkpt>
      <trkpt lat="48.5966" lon="1.9613">
        <ele>135.2</ele>
        <time>2020-08-27T07:38:03Z</time>
      </trkpt>
      <trkpt lat="48.59662" lon="1.96128">
        <ele>135.2</ele>
        <time>2020-08-27T07:38:04Z</time>
      </trkpt>
      <trkpt lat="48.59662" lon="1.96127">
        <ele>135.2</ele>
        <time>2020-08-27T07:38:05Z</time>
      </trkpt>
      <trkpt lat="48.59664" lon="1.96125">
        <ele>135.2</ele>
        <time>2020-08-27T07:38:06Z</time>
      </trkpt>
      <trkpt lat="48.59665" lon="1.96124">
        <ele>134.72</ele>
        <time>2020-08-27T07:38:07Z</time>
      </trkpt>
      <trkpt lat="48.59666" lon="1.96123">
        <ele>134.72</ele>
        <time>2020-08-27T07:38:08Z</time>
      </trkpt>
      <trkpt lat="48.59667" lon="1.96122">
        <ele>134.72</ele>
        <time>2020-08-27T07:38:09Z</time>
      </trkpt>
      <trkpt lat="48.59667" lon="1.9612">
        <ele>134.72</ele>
        <time>2020-08-27T07:38:10Z</time>
      </trkpt>
      <trkpt lat="48.59668" lon="1.96118">
        <ele>134.72</ele>
        <time>2020-08-27T07:38:11Z</time>
      </trkpt>
      <trkpt lat="48.5967" lon="1.96117">
        <ele>134.24</ele>
        <time>2020-08-27T07:38:12Z</time>
      </trkpt>
      <trkpt lat="48.5967" lon="1.96115">
        <ele>134.24</ele>
        <time>2020-08-27T07:38:13Z</time>
      </trkpt>
      <trkpt lat="48.59671" lon="1.96112">
        <ele>134.24</ele>
        <time>2020-08-27T07:38:14Z</time>
      </trkpt>
      <trkpt lat="48.59672" lon="1.96109">
        <ele>133.76</ele>
        <time>2020-08-27T07:38:15Z</time>
      </trkpt>
      <trkpt lat="48.59672" lon="1.96107">
        <ele>133.76</ele>
        <time>2020-08-27T07:38:16Z</time>
      </trkpt>
      <trkpt lat="48.59673" lon="1.96105">
        <ele>133.76</ele>
        <time>2020-08-27T07:38:17Z</time>
      </trkpt>
      <trkpt lat="48.59674" lon="1.96104">
        <ele>133.76</ele>
        <time>2020-08-27T07:38:18Z</time>
      </trkpt>
      <trkpt lat="48.59675" lon="1.96104">
        <ele>133.76</ele>
        <time>2020-08-27T07:38:19Z</time>
      </trkpt>
      <trkpt lat="48.59676" lon="1.96103">
        <ele>133.76</ele>
        <time>2020-08-27T07:38:20Z</time>
      </trkpt>
      <trkpt lat="48.59676" lon="1.96103">
        <ele>133.28</ele>
        <time>2020-08-27T07:38:21Z</time>
      </trkpt>
      <trkpt lat="48.59676" lon="1.96102">
        <ele>133.28</ele>
        <time>2020-08-27T07:38:22Z</time>
      </trkpt>
      <trkpt lat="48.59676" lon="1.96101">
        <ele>133.28</ele>
        <time>2020-08-27T07:38:23Z</time>
      </trkpt>
      <trkpt lat="48.59677" lon="1.961">
        <ele>132.8</ele>
        <time>2020-08-27T07:38:24Z</time>
      </trkpt>
      <trkpt lat="48.59677" lon="1.96098">
        <ele>132.8</ele>
        <time>2020-08-27T07:38:25Z</time>
      </trkpt>
      <trkpt lat="48.59678" lon="1.96097">
        <ele>132.32</ele>
        <time>2020-08-27T07:38:26Z</time>
      </trkpt>
      <trkpt lat="48.59679" lon="1.96094">
        <ele>132.32</ele>
        <time>2020-08-27T07:38:27Z</time>
      </trkpt>
      <trkpt lat="48.5968" lon="1.96092">
        <ele>131.84</ele>
        <time>2020-08-27T07:38:28Z</time>
      </trkpt>
      <trkpt lat="48.59681" lon="1.9609">
        <ele>131.84</ele>
        <time>2020-08-27T07:38:29Z</time>
      </trkpt>
      <trkpt lat="48.59682" lon="1.96088">
        <ele>131.84</ele>
        <time>2020-08-27T07:38:30Z</time>
      </trkpt>
      <trkpt lat="48.59682" lon="1.96086">
        <ele>131.84</ele>
        <time>2020-08-27T07:38:31Z</time>
      </trkpt>
      <trkpt lat="48.59683" lon="1.96084">
        <ele>131.36</ele>
        <time>2020-08-27T07:38:32Z</time>
      </trkpt>
      <trkpt lat="48.59683" lon="1.96083">
        <ele>131.36</ele>
        <time>2020-08-27T07:38:33Z</time>
      </trkpt>
      <trkpt lat="48.59683" lon="1.96081">
        <ele>131.36</ele>
        <time>2020-08-27T07:38:34Z</time>
      </trkpt>
      <trkpt lat="48.59684" lon="1.9608">
        <ele>130.88</ele>
        <time>2020-08-27T07:38:35Z</time>
      </trkpt>
      <trkpt lat="48.59684" lon="1.96079">
        <ele>130.88</ele>
        <time>2020-08-27T07:38:36Z</time>
      </trkpt>
      <trkpt lat="48.59685" lon="1.96077">
        <ele>130.4</ele>
        <time>2020-08-27T07:38:37Z</time>
      </trkpt>
      <trkpt lat="48.59686" lon="1.96076">
        <ele>130.4</ele>
        <time>2020-08-27T07:38:38Z</time>
      </trkpt>
      <trkpt lat="48.59687" lon="1.96074">
        <ele>129.92</ele>
        <time>2020-08-27T07:38:39Z</time>
      </trkpt>
      <trkpt lat="48.59688" lon="1.96072">
        <ele>129.92</ele>
        <time>2020-08-27T07:38:40Z</time>
      </trkpt>
      <trkpt lat="48.59689" lon="1.96071">
        <ele>129.92</ele>
        <time>2020-08-27T07:38:41Z</time>
      </trkpt>
      <trkpt lat="48.5969" lon="1.96068">
        <ele>129.92</ele>
        <time>2020-08-27T07:38:42Z</time>
      </trkpt>
      <trkpt lat="48.59691" lon="1.96067">
        <ele>129.92</ele>
        <time>2020-08-27T07:38:43Z</time>
      </trkpt>
      <trkpt lat="48.59692" lon="1.96065">
        <ele>129.43</ele>
        <time>2020-08-27T07:38:44Z</time>
      </trkpt>
      <trkpt lat="48.59692" lon="1.96064">
        <ele>129.43</ele>
        <time>2020-08-27T07:38:45Z</time>
      </trkpt>
      <trkpt lat="48.59692" lon="1.96062">
        <ele>128.95</ele>
        <time>2020-08-27T07:38:46Z</time>
      </trkpt>
      <trkpt lat="48.59693" lon="1.96061">
        <ele>128.95</ele>
        <time>2020-08-27T07:38:47Z</time>
      </trkpt>
      <trkpt lat="48.59694" lon="1.96059">
        <ele>128.95</ele>
        <time>2020-08-27T07:38:48Z</time>
      </trkpt>
      <trkpt lat="48.59696" lon="1.96056">
        <ele>128.47</ele>
        <time>2020-08-27T07:38:49Z</time>
      </trkpt>
      <trkpt lat="48.59697" lon="1.96054">
        <ele>128.47</ele>
        <time>2020-08-27T07:38:50Z</time>
      </trkpt>
      <trkpt lat="48.59698" lon="1.96052">
        <ele>128.47</ele>
        <time>2020-08-27T07:38:51Z</time>
      </trkpt>
      <trkpt lat="48.59699" lon="1.9605">
        <ele>127.99</ele>
        <time>2020-08-27T07:38:52Z</time>
      </trkpt>
      <trkpt lat="48.597" lon="1.96049">
        <ele>127.99</ele>
        <time>2020-08-27T07:38:53Z</time>
      </trkpt>
      <trkpt lat="48.597" lon="1.96047">
        <ele>127.99</ele>
        <time>2020-08-27T07:38:54Z</time>
      </trkpt>
      <trkpt lat="48.59701" lon="1.96046">
        <ele>127.51</ele>
        <time>2020-08-27T07:38:55Z</time>
      </trkpt>
      <trkpt lat="48.59702" lon="1.96044">
        <ele>127.99</ele>
        <time>2020-08-27T07:38:56Z</time>
      </trkpt>
      <trkpt lat="48.59702" lon="1.96042">
        <ele>127.51</ele>
        <time>2020-08-27T07:38:57Z</time>
      </trkpt>
      <trkpt lat="48.59703" lon="1.9604">
        <ele>127.51</ele>
        <time>2020-08-27T07:38:58Z</time>
      </trkpt>
      <trkpt lat="48.59704" lon="1.96039">
        <ele>127.51</ele>
        <time>2020-08-27T07:38:59Z</time>
      </trkpt>
      <trkpt lat="48.59704" lon="1.96038">
        <ele>127.51</ele>
        <time>2020-08-27T07:39:00Z</time>
      </trkpt>
      <trkpt lat="48.59705" lon="1.96037">
        <ele>127.51</ele>
        <time>2020-08-27T07:39:01Z</time>
      </trkpt>
      <trkpt lat="48.59705" lon="1.96035">
        <ele>127.51</ele>
        <time>2020-08-27T07:39:02Z</time>
      </trkpt>
      <trkpt lat="48.59706" lon="1.96034">
        <ele>127.03</ele>
        <time>2020-08-27T07:39:03Z</time>
      </trkpt>
      <trkpt lat="48.59707" lon="1.96032">
        <ele>127.03</ele>
        <time>2020-08-27T07:39:04Z</time>
      </trkpt>
      <trkpt lat="48.59708" lon="1.9603">
        <ele>127.03</ele>
        <time>2020-08-27T07:39:05Z</time>
      </trkpt>
      <trkpt lat="48.59708" lon="1.96029">
        <ele>127.03</ele>
        <time>2020-08-27T07:39:06Z</time>
      </trkpt>
      <trkpt lat="48.59709" lon="1.96026">
        <ele>126.55</ele>
        <time>2020-08-27T07:39:07Z</time>
      </trkpt>
      <trkpt lat="48.59709" lon="1.96025">
        <ele>127.03</ele>
        <time>2020-08-27T07:39:08Z</time>
      </trkpt>
      <trkpt lat="48.5971" lon="1.96023">
        <ele>126.55</ele>
        <time>2020-08-27T07:39:09Z</time>
      </trkpt>
      <trkpt lat="48.5971" lon="1.96022">
        <ele>127.03</ele>
        <time>2020-08-27T07:39:10Z</time>
      </trkpt>
      <trkpt lat="48.5971" lon="1.9602">
        <ele>126.55</ele>
        <time>2020-08-27T07:39:11Z</time>
      </trkpt>
      <trkpt lat="48.59711" lon="1.96018">
        <ele>126.55</ele>
        <time>2020-08-27T07:39:12Z</time>
      </trkpt>
      <trkpt lat="48.59712" lon="1.96016">
        <ele>126.55</ele>
        <time>2020-08-27T07:39:13Z</time>
      </trkpt>
      <trkpt lat="48.59713" lon="1.96014">
        <ele>126.55</ele>
        <time>2020-08-27T07:39:14Z</time>
      </trkpt>
      <trkpt lat="48.59714" lon="1.96012">
        <ele>126.55</ele>
        <time>2020-08-27T07:39:15Z</time>
      </trkpt>
      <trkpt lat="48.59715" lon="1.96011">
        <ele>126.07</ele>
        <time>2020-08-27T07:39:16Z</time>
      </trkpt>
      <trkpt lat="48.59716" lon="1.96009">
        <ele>126.07</ele>
        <time>2020-08-27T07:39:17Z</time>
      </trkpt>
      <trkpt lat="48.59717" lon="1.96008">
        <ele>126.07</ele>
        <time>2020-08-27T07:39:18Z</time>
      </trkpt>
      <trkpt lat="48.59718" lon="1.96007">
        <ele>126.07</ele>
        <time>2020-08-27T07:39:19Z</time>
      </trkpt>
      <trkpt lat="48.59718" lon="1.96004">
        <ele>126.07</ele>
        <time>2020-08-27T07:39:20Z</time>
      </trkpt>
      <trkpt lat="48.59719" lon="1.96002">
        <ele>126.07</ele>
        <time>2020-08-27T07:39:21Z</time>
      </trkpt>
      <trkpt lat="48.5972" lon="1.96">
        <ele>126.07</ele>
        <time>2020-08-27T07:39:22Z</time>
      </trkpt>
      <trkpt lat="48.5972" lon="1.95998">
        <ele>126.07</ele>
        <time>2020-08-27T07:39:23Z</time>
      </trkpt>
      <trkpt lat="48.59721" lon="1.95996">
        <ele>126.07</ele>
        <time>2020-08-27T07:39:24Z</time>
      </trkpt>
      <trkpt lat="48.59722" lon="1.95994">
        <ele>126.07</ele>
        <time>2020-08-27T07:39:25Z</time>
      </trkpt>
      <trkpt lat="48.59724" lon="1.95992">
        <ele>126.07</ele>
        <time>2020-08-27T07:39:26Z</time>
      </trkpt>
      <trkpt lat="48.59725" lon="1.9599">
        <ele>125.59</ele>
        <time>2020-08-27T07:39:27Z</time>
      </trkpt>
      <trkpt lat="48.59726" lon="1.95989">
        <ele>126.55</ele>
        <time>2020-08-27T07:39:28Z</time>
      </trkpt>
      <trkpt lat="48.59728" lon="1.95987">
        <ele>125.59</ele>
        <time>2020-08-27T07:39:29Z</time>
      </trkpt>
      <trkpt lat="48.59728" lon="1.95986">
        <ele>125.59</ele>
        <time>2020-08-27T07:39:30Z</time>
      </trkpt>
      <trkpt lat="48.59729" lon="1.95985">
        <ele>125.59</ele>
        <time>2020-08-27T07:39:31Z</time>
      </trkpt>
      <trkpt lat="48.59729" lon="1.95983">
        <ele>125.59</ele>
        <time>2020-08-27T07:39:32Z</time>
      </trkpt>
      <trkpt lat="48.5973" lon="1.95981">
        <ele>125.59</ele>
        <time>2020-08-27T07:39:33Z</time>
      </trkpt>
      <trkpt lat="48.59731" lon="1.9598">
        <ele>125.11</ele>
        <time>2020-08-27T07:39:34Z</time>
      </trkpt>
      <trkpt lat="48.59732" lon="1.95978">
        <ele>125.11</ele>
        <time>2020-08-27T07:39:35Z</time>
      </trkpt>
      <trkpt lat="48.59733" lon="1.95976">
        <ele>125.11</ele>
        <time>2020-08-27T07:39:36Z</time>
      </trkpt>
      <trkpt lat="48.59734" lon="1.95974">
        <ele>125.11</ele>
        <time>2020-08-27T07:39:37Z</time>
      </trkpt>
      <trkpt lat="48.59734" lon="1.95973">
        <ele>125.11</ele>
        <time>2020-08-27T07:39:38Z</time>
      </trkpt>
      <trkpt lat="48.59734" lon="1.95971">
        <ele>125.11</ele>
        <time>2020-08-27T07:39:39Z</time>
      </trkpt>
      <trkpt lat="48.59735" lon="1.9597">
        <ele>124.63</ele>
        <time>2020-08-27T07:39:40Z</time>
      </trkpt>
      <trkpt lat="48.59736" lon="1.95969">
        <ele>124.63</ele>
        <time>2020-08-27T07:39:41Z</time>
      </trkpt>
      <trkpt lat="48.59737" lon="1.95967">
        <ele>124.63</ele>
        <time>2020-08-27T07:39:42Z</time>
      </trkpt>
      <trkpt lat="48.59738" lon="1.95965">
        <ele>124.63</ele>
        <time>2020-08-27T07:39:43Z</time>
      </trkpt>
      <trkpt lat="48.59739" lon="1.95964">
        <ele>124.63</ele>
        <time>2020-08-27T07:39:44Z</time>
      </trkpt>
      <trkpt lat="48.5974" lon="1.95962">
        <ele>124.15</ele>
        <time>2020-08-27T07:39:45Z</time>
      </trkpt>
      <trkpt lat="48.5974" lon="1.9596">
        <ele>124.63</ele>
        <time>2020-08-27T07:39:46Z</time>
      </trkpt>
      <trkpt lat="48.59741" lon="1.95958">
        <ele>124.63</ele>
        <time>2020-08-27T07:39:47Z</time>
      </trkpt>
      <trkpt lat="48.59741" lon="1.95956">
        <ele>124.63</ele>
        <time>2020-08-27T07:39:48Z</time>
      </trkpt>
      <trkpt lat="48.59742" lon="1.95954">
        <ele>124.15</ele>
        <time>2020-08-27T07:39:49Z</time>
      </trkpt>
      <trkpt lat="48.59743" lon="1.95951">
        <ele>124.15</ele>
        <time>2020-08-27T07:39:50Z</time>
      </trkpt>
      <trkpt lat="48.59744" lon="1.95949">
        <ele>124.15</ele>
        <time>2020-08-27T07:39:51Z</time>
      </trkpt>
      <trkpt lat="48.59745" lon="1.95946">
        <ele>124.15</ele>
        <time>2020-08-27T07:39:52Z</time>
      </trkpt>
      <trkpt lat="48.59747" lon="1.95945">
        <ele>124.15</ele>
        <time>2020-08-27T07:39:53Z</time>
      </trkpt>
      <trkpt lat="48.59748" lon="1.95944">
        <ele>123.67</ele>
        <time>2020-08-27T07:39:54Z</time>
      </trkpt>
      <trkpt lat="48.59748" lon="1.95943">
        <ele>123.67</ele>
        <time>2020-08-27T07:39:55Z</time>
      </trkpt>
      <trkpt lat="48.59749" lon="1.95942">
        <ele>123.67</ele>
        <time>2020-08-27T07:39:56Z</time>
      </trkpt>
      <trkpt lat="48.5975" lon="1.95941">
        <ele>123.67</ele>
        <time>2020-08-27T07:39:57Z</time>
      </trkpt>
      <trkpt lat="48.59751" lon="1.95939">
        <ele>123.67</ele>
        <time>2020-08-27T07:39:58Z</time>
      </trkpt>
      <trkpt lat="48.59753" lon="1.95937">
        <ele>123.67</ele>
        <time>2020-08-27T07:39:59Z</time>
      </trkpt>
      <trkpt lat="48.59755" lon="1.95936">
        <ele>123.67</ele>
        <time>2020-08-27T07:40:00Z</time>
      </trkpt>
      <trkpt lat="48.59755" lon="1.95934">
        <ele>123.67</ele>
        <time>2020-08-27T07:40:01Z</time>
      </trkpt>
      <trkpt lat="48.59756" lon="1.95933">
        <ele>123.19</ele>
        <time>2020-08-27T07:40:02Z</time>
      </trkpt>
      <trkpt lat="48.59756" lon="1.95931">
        <ele>123.19</ele>
        <time>2020-08-27T07:40:03Z</time>
      </trkpt>
      <trkpt lat="48.59757" lon="1.9593">
        <ele>123.19</ele>
        <time>2020-08-27T07:40:04Z</time>
      </trkpt>
      <trkpt lat="48.59757" lon="1.95929">
        <ele>123.19</ele>
        <time>2020-08-27T07:40:05Z</time>
      </trkpt>
      <trkpt lat="48.59757" lon="1.95928">
        <ele>123.19</ele>
        <time>2020-08-27T07:40:06Z</time>
      </trkpt>
      <trkpt lat="48.59758" lon="1.95926">
        <ele>123.19</ele>
        <time>2020-08-27T07:40:07Z</time>
      </trkpt>
      <trkpt lat="48.59758" lon="1.95924">
        <ele>122.71</ele>
        <time>2020-08-27T07:40:08Z</time>
      </trkpt>
      <trkpt lat="48.59759" lon="1.95923">
        <ele>123.19</ele>
        <time>2020-08-27T07:40:09Z</time>
      </trkpt>
      <trkpt lat="48.5976" lon="1.95922">
        <ele>122.71</ele>
        <time>2020-08-27T07:40:10Z</time>
      </trkpt>
      <trkpt lat="48.5976" lon="1.9592">
        <ele>123.19</ele>
        <time>2020-08-27T07:40:11Z</time>
      </trkpt>
      <trkpt lat="48.59761" lon="1.95919">
        <ele>122.71</ele>
        <time>2020-08-27T07:40:12Z</time>
      </trkpt>
      <trkpt lat="48.59762" lon="1.95917">
        <ele>122.71</ele>
        <time>2020-08-27T07:40:13Z</time>
      </trkpt>
      <trkpt lat="48.59762" lon="1.95916">
        <ele>122.71</ele>
        <time>2020-08-27T07:40:14Z</time>
      </trkpt>
      <trkpt lat="48.59762" lon="1.95915">
        <ele>122.71</ele>
        <time>2020-08-27T07:40:15Z</time>
      </trkpt>
      <trkpt lat="48.59763" lon="1.95913">
        <ele>122.71</ele>
        <time>2020-08-27T07:40:16Z</time>
      </trkpt>
      <trkpt lat="48.59765" lon="1.9591">
        <ele>122.22</ele>
        <time>2020-08-27T07:40:17Z</time>
      </trkpt>
      <trkpt lat="48.59765" lon="1.95908">
        <ele>122.22</ele>
        <time>2020-08-27T07:40:18Z</time>
      </trkpt>
      <trkpt lat="48.59766" lon="1.95907">
        <ele>122.22</ele>
        <time>2020-08-27T07:40:19Z</time>
      </trkpt>
      <trkpt lat="48.59767" lon="1.95905">
        <ele>122.22</ele>
        <time>2020-08-27T07:40:20Z</time>
      </trkpt>
      <trkpt lat="48.59767" lon="1.95904">
        <ele>122.22</ele>
        <time>2020-08-27T07:40:21Z</time>
      </trkpt>
      <trkpt lat="48.59769" lon="1.95902">
        <ele>122.22</ele>
        <time>2020-08-27T07:40:22Z</time>
      </trkpt>
      <trkpt lat="48.59769" lon="1.959">
        <ele>122.22</ele>
        <time>2020-08-27T07:40:23Z</time>
      </trkpt>
      <trkpt lat="48.5977" lon="1.95899">
        <ele>121.74</ele>
        <time>2020-08-27T07:40:24Z</time>
      </trkpt>
      <trkpt lat="48.5977" lon="1.95898">
        <ele>121.74</ele>
        <time>2020-08-27T07:40:25Z</time>
      </trkpt>
      <trkpt lat="48.59771" lon="1.95897">
        <ele>121.74</ele>
        <time>2020-08-27T07:40:26Z</time>
      </trkpt>
      <trkpt lat="48.59772" lon="1.95895">
        <ele>121.74</ele>
        <time>2020-08-27T07:40:27Z</time>
      </trkpt>
      <trkpt lat="48.59772" lon="1.95894">
        <ele>121.74</ele>
        <time>2020-08-27T07:40:28Z</time>
      </trkpt>
      <trkpt lat="48.59773" lon="1.95892">
        <ele>121.74</ele>
        <time>2020-08-27T07:40:29Z</time>
      </trkpt>
      <trkpt lat="48.59774" lon="1.9589">
        <ele>121.74</ele>
        <time>2020-08-27T07:40:30Z</time>
      </trkpt>
      <trkpt lat="48.59775" lon="1.95888">
        <ele>121.74</ele>
        <time>2020-08-27T07:40:31Z</time>
      </trkpt>
      <trkpt lat="48.59775" lon="1.95887">
        <ele>121.74</ele>
        <time>2020-08-27T07:40:32Z</time>
      </trkpt>
      <trkpt lat="48.59778" lon="1.95884">
        <ele>121.74</ele>
        <time>2020-08-27T07:40:33Z</time>
      </trkpt>
      <trkpt lat="48.59779" lon="1.95882">
        <ele>121.74</ele>
        <time>2020-08-27T07:40:34Z</time>
      </trkpt>
      <trkpt lat="48.5978" lon="1.9588">
        <ele>121.26</ele>
        <time>2020-08-27T07:40:35Z</time>
      </trkpt>
      <trkpt lat="48.59781" lon="1.95878">
        <ele>121.26</ele>
        <time>2020-08-27T07:40:36Z</time>
      </trkpt>
      <trkpt lat="48.59782" lon="1.95876">
        <ele>121.26</ele>
        <time>2020-08-27T07:40:37Z</time>
      </trkpt>
      <trkpt lat="48.59783" lon="1.95875">
        <ele>121.26</ele>
        <time>2020-08-27T07:40:38Z</time>
      </trkpt>
      <trkpt lat="48.59783" lon="1.95873">
        <ele>121.26</ele>
        <time>2020-08-27T07:40:39Z</time>
      </trkpt>
      <trkpt lat="48.59784" lon="1.95871">
        <ele>121.26</ele>
        <time>2020-08-27T07:40:40Z</time>
      </trkpt>
      <trkpt lat="48.59784" lon="1.95869">
        <ele>121.26</ele>
        <time>2020-08-27T07:40:41Z</time>
      </trkpt>
      <trkpt lat="48.59785" lon="1.95867">
        <ele>121.26</ele>
        <time>2020-08-27T07:40:42Z</time>
      </trkpt>
      <trkpt lat="48.59786" lon="1.95865">
        <ele>121.26</ele>
        <time>2020-08-27T07:40:43Z</time>
      </trkpt>
      <trkpt lat="48.59787" lon="1.95863">
        <ele>121.26</ele>
        <time>2020-08-27T07:40:44Z</time>
      </trkpt>
      <trkpt lat="48.59787" lon="1.95861">
        <ele>121.26</ele>
        <time>2020-08-27T07:40:45Z</time>
      </trkpt>
      <trkpt lat="48.59788" lon="1.9586">
        <ele>120.78</ele>
        <time>2020-08-27T07:40:46Z</time>
      </trkpt>
      <trkpt lat="48.59789" lon="1.95858">
        <ele>120.78</ele>
        <time>2020-08-27T07:40:47Z</time>
      </trkpt>
      <trkpt lat="48.59789" lon="1.95856">
        <ele>120.78</ele>
        <time>2020-08-27T07:40:48Z</time>
      </trkpt>
      <trkpt lat="48.5979" lon="1.95854">
        <ele>120.78</ele>
        <time>2020-08-27T07:40:49Z</time>
      </trkpt>
      <trkpt lat="48.59791" lon="1.95852">
        <ele>120.78</ele>
        <time>2020-08-27T07:40:50Z</time>
      </trkpt>
      <trkpt lat="48.59792" lon="1.95851">
        <ele>120.78</ele>
        <time>2020-08-27T07:40:51Z</time>
      </trkpt>
      <trkpt lat="48.59793" lon="1.95849">
        <ele>120.78</ele>
        <time>2020-08-27T07:40:52Z</time>
      </trkpt>
      <trkpt lat="48.59794" lon="1.95847">
        <ele>120.78</ele>
        <time>2020-08-27T07:40:53Z</time>
      </trkpt>
      <trkpt lat="48.59795" lon="1.95846">
        <ele>120.78</ele>
        <time>2020-08-27T07:40:54Z</time>
      </trkpt>
      <trkpt lat="48.59795" lon="1.95845">
        <ele>120.78</ele>
        <time>2020-08-27T07:40:55Z</time>
      </trkpt>
      <trkpt lat="48.59796" lon="1.95843">
        <ele>120.3</ele>
        <time>2020-08-27T07:40:56Z</time>
      </trkpt>
      <trkpt lat="48.59796" lon="1.95842">
        <ele>120.78</ele>
        <time>2020-08-27T07:40:57Z</time>
      </trkpt>
      <trkpt lat="48.59797" lon="1.9584">
        <ele>120.78</ele>
        <time>2020-08-27T07:40:58Z</time>
      </trkpt>
      <trkpt lat="48.59798" lon="1.95838">
        <ele>120.78</ele>
        <time>2020-08-27T07:40:59Z</time>
      </trkpt>
      <trkpt lat="48.59799" lon="1.95836">
        <ele>120.78</ele>
        <time>2020-08-27T07:41:00Z</time>
      </trkpt>
      <trkpt lat="48.598" lon="1.95835">
        <ele>120.78</ele>
        <time>2020-08-27T07:41:01Z</time>
      </trkpt>
      <trkpt lat="48.59801" lon="1.95833">
        <ele>120.3</ele>
        <time>2020-08-27T07:41:02Z</time>
      </trkpt>
      <trkpt lat="48.59802" lon="1.95831">
        <ele>120.78</ele>
        <time>2020-08-27T07:41:03Z</time>
      </trkpt>
      <trkpt lat="48.59802" lon="1.95829">
        <ele>120.3</ele>
        <time>2020-08-27T07:41:04Z</time>
      </trkpt>
      <trkpt lat="48.59803" lon="1.95827">
        <ele>120.3</ele>
        <time>2020-08-27T07:41:05Z</time>
      </trkpt>
      <trkpt lat="48.59804" lon="1.95825">
        <ele>120.3</ele>
        <time>2020-08-27T07:41:06Z</time>
      </trkpt>
      <trkpt lat="48.59804" lon="1.95824">
        <ele>120.78</ele>
        <time>2020-08-27T07:41:07Z</time>
      </trkpt>
      <trkpt lat="48.59805" lon="1.95822">
        <ele>120.3</ele>
        <time>2020-08-27T07:41:08Z</time>
      </trkpt>
      <trkpt lat="48.59806" lon="1.95822">
        <ele>120.3</ele>
        <time>2020-08-27T07:41:09Z</time>
      </trkpt>
      <trkpt lat="48.59807" lon="1.9582">
        <ele>120.3</ele>
        <time>2020-08-27T07:41:10Z</time>
      </trkpt>
      <trkpt lat="48.59808" lon="1.95818">
        <ele>120.3</ele>
        <time>2020-08-27T07:41:11Z</time>
      </trkpt>
      <trkpt lat="48.5981" lon="1.95816">
        <ele>120.3</ele>
        <time>2020-08-27T07:41:12Z</time>
      </trkpt>
      <trkpt lat="48.5981" lon="1.95814">
        <ele>120.3</ele>
        <time>2020-08-27T07:41:13Z</time>
      </trkpt>
      <trkpt lat="48.59811" lon="1.95811">
        <ele>120.3</ele>
        <time>2020-08-27T07:41:14Z</time>
      </trkpt>
      <trkpt lat="48.59811" lon="1.95809">
        <ele>120.3</ele>
        <time>2020-08-27T07:41:15Z</time>
      </trkpt>
      <trkpt lat="48.59812" lon="1.95807">
        <ele>120.3</ele>
        <time>2020-08-27T07:41:16Z</time>
      </trkpt>
      <trkpt lat="48.59813" lon="1.95805">
        <ele>120.3</ele>
        <time>2020-08-27T07:41:17Z</time>
      </trkpt>
      <trkpt lat="48.59814" lon="1.95803">
        <ele>120.3</ele>
        <time>2020-08-27T07:41:18Z</time>
      </trkpt>
      <trkpt lat="48.59815" lon="1.95801">
        <ele>120.3</ele>
        <time>2020-08-27T07:41:19Z</time>
      </trkpt>
      <trkpt lat="48.59816" lon="1.95799">
        <ele>119.82</ele>
        <time>2020-08-27T07:41:20Z</time>
      </trkpt>
      <trkpt lat="48.59817" lon="1.95797">
        <ele>119.82</ele>
        <time>2020-08-27T07:41:21Z</time>
      </trkpt>
      <trkpt lat="48.59818" lon="1.95795">
        <ele>120.3</ele>
        <time>2020-08-27T07:41:22Z</time>
      </trkpt>
      <trkpt lat="48.59819" lon="1.95793">
        <ele>119.82</ele>
        <time>2020-08-27T07:41:23Z</time>
      </trkpt>
      <trkpt lat="48.5982" lon="1.95791">
        <ele>119.82</ele>
        <time>2020-08-27T07:41:24Z</time>
      </trkpt>
      <trkpt lat="48.5982" lon="1.9579">
        <ele>119.82</ele>
        <time>2020-08-27T07:41:25Z</time>
      </trkpt>
      <trkpt lat="48.59821" lon="1.95788">
        <ele>119.82</ele>
        <time>2020-08-27T07:41:26Z</time>
      </trkpt>
      <trkpt lat="48.59822" lon="1.95787">
        <ele>119.82</ele>
        <time>2020-08-27T07:41:27Z</time>
      </trkpt>
      <trkpt lat="48.59824" lon="1.95785">
        <ele>120.78</ele>
        <time>2020-08-27T07:41:28Z</time>
      </trkpt>
      <trkpt lat="48.59825" lon="1.95784">
        <ele>119.82</ele>
        <time>2020-08-27T07:41:29Z</time>
      </trkpt>
      <trkpt lat="48.59825" lon="1.95782">
        <ele>119.82</ele>
        <time>2020-08-27T07:41:30Z</time>
      </trkpt>
      <trkpt lat="48.59826" lon="1.95781">
        <ele>119.82</ele>
        <time>2020-08-27T07:41:31Z</time>
      </trkpt>
      <trkpt lat="48.59827" lon="1.95779">
        <ele>119.82</ele>
        <time>2020-08-27T07:41:32Z</time>
      </trkpt>
      <trkpt lat="48.59827" lon="1.95777">
        <ele>119.34</ele>
        <time>2020-08-27T07:41:33Z</time>
      </trkpt>
      <trkpt lat="48.59828" lon="1.95775">
        <ele>119.34</ele>
        <time>2020-08-27T07:41:34Z</time>
      </trkpt>
      <trkpt lat="48.59829" lon="1.95772">
        <ele>119.34</ele>
        <time>2020-08-27T07:41:35Z</time>
      </trkpt>
      <trkpt lat="48.59829" lon="1.95771">
        <ele>119.34</ele>
        <time>2020-08-27T07:41:36Z</time>
      </trkpt>
      <trkpt lat="48.5983" lon="1.95768">
        <ele>119.34</ele>
        <time>2020-08-27T07:41:37Z</time>
      </trkpt>
      <trkpt lat="48.59831" lon="1.95766">
        <ele>119.34</ele>
        <time>2020-08-27T07:41:38Z</time>
      </trkpt>
      <trkpt lat="48.59831" lon="1.95764">
        <ele>119.34</ele>
        <time>2020-08-27T07:41:39Z</time>
      </trkpt>
      <trkpt lat="48.59832" lon="1.95763">
        <ele>119.34</ele>
        <time>2020-08-27T07:41:40Z</time>
      </trkpt>
      <trkpt lat="48.59833" lon="1.95762">
        <ele>119.34</ele>
        <time>2020-08-27T07:41:41Z</time>
      </trkpt>
      <trkpt lat="48.59834" lon="1.9576">
        <ele>119.34</ele>
        <time>2020-08-27T07:41:42Z</time>
      </trkpt>
      <trkpt lat="48.59835" lon="1.95758">
        <ele>118.86</ele>
        <time>2020-08-27T07:41:43Z</time>
      </trkpt>
      <trkpt lat="48.59837" lon="1.95757">
        <ele>119.34</ele>
        <time>2020-08-27T07:41:44Z</time>
      </trkpt>
      <trkpt lat="48.59838" lon="1.95755">
        <ele>119.34</ele>
        <time>2020-08-27T07:41:45Z</time>
      </trkpt>
      <trkpt lat="48.59839" lon="1.95753">
        <ele>118.86</ele>
        <time>2020-08-27T07:41:46Z</time>
      </trkpt>
      <trkpt lat="48.5984" lon="1.95751">
        <ele>118.86</ele>
        <time>2020-08-27T07:41:47Z</time>
      </trkpt>
      <trkpt lat="48.59841" lon="1.95749">
        <ele>119.34</ele>
        <time>2020-08-27T07:41:48Z</time>
      </trkpt>
      <trkpt lat="48.59841" lon="1.95747">
        <ele>119.34</ele>
        <time>2020-08-27T07:41:49Z</time>
      </trkpt>
      <trkpt lat="48.59842" lon="1.95746">
        <ele>119.34</ele>
        <time>2020-08-27T07:41:50Z</time>
      </trkpt>
      <trkpt lat="48.59842" lon="1.95744">
        <ele>118.86</ele>
        <time>2020-08-27T07:41:51Z</time>
      </trkpt>
      <trkpt lat="48.59843" lon="1.95743">
        <ele>118.86</ele>
        <time>2020-08-27T07:41:52Z</time>
      </trkpt>
      <trkpt lat="48.59844" lon="1.95741">
        <ele>118.86</ele>
        <time>2020-08-27T07:41:53Z</time>
      </trkpt>
      <trkpt lat="48.59845" lon="1.9574">
        <ele>118.86</ele>
        <time>2020-08-27T07:41:54Z</time>
      </trkpt>
      <trkpt lat="48.59845" lon="1.95738">
        <ele>118.86</ele>
        <time>2020-08-27T07:41:55Z</time>
      </trkpt>
      <trkpt lat="48.59846" lon="1.95736">
        <ele>118.86</ele>
        <time>2020-08-27T07:41:56Z</time>
      </trkpt>
      <trkpt lat="48.59847" lon="1.95735">
        <ele>118.86</ele>
        <time>2020-08-27T07:41:57Z</time>
      </trkpt>
      <trkpt lat="48.59848" lon="1.95733">
        <ele>118.86</ele>
        <time>2020-08-27T07:41:58Z</time>
      </trkpt>
      <trkpt lat="48.59849" lon="1.9573">
        <ele>118.86</ele>
        <time>2020-08-27T07:41:59Z</time>
      </trkpt>
      <trkpt lat="48.5985" lon="1.95729">
        <ele>118.86</ele>
        <time>2020-08-27T07:42:00Z</time>
      </trkpt>
      <trkpt lat="48.5985" lon="1.95727">
        <ele>118.86</ele>
        <time>2020-08-27T07:42:01Z</time>
      </trkpt>
      <trkpt lat="48.5985" lon="1.95726">
        <ele>118.86</ele>
        <time>2020-08-27T07:42:02Z</time>
      </trkpt>
      <trkpt lat="48.59851" lon="1.95724">
        <ele>118.86</ele>
        <time>2020-08-27T07:42:03Z</time>
      </trkpt>
      <trkpt lat="48.59852" lon="1.95723">
        <ele>118.38</ele>
        <time>2020-08-27T07:42:04Z</time>
      </trkpt>
      <trkpt lat="48.59852" lon="1.95721">
        <ele>118.38</ele>
        <time>2020-08-27T07:42:05Z</time>
      </trkpt>
      <trkpt lat="48.59853" lon="1.95719">
        <ele>118.38</ele>
        <time>2020-08-27T07:42:06Z</time>
      </trkpt>
      <trkpt lat="48.59853" lon="1.95717">
        <ele>118.86</ele>
        <time>2020-08-27T07:42:07Z</time>
      </trkpt>
      <trkpt lat="48.59853" lon="1.95717">
        <ele>118.86</ele>
        <time>2020-08-27T07:42:08Z</time>
      </trkpt>
      <trkpt lat="48.59853" lon="1.95716">
        <ele>118.86</ele>
        <time>2020-08-27T07:42:09Z</time>
      </trkpt>
      <trkpt lat="48.59853" lon="1.95715">
        <ele>118.38</ele>
        <time>2020-08-27T07:42:10Z</time>
      </trkpt>
      <trkpt lat="48.59854" lon="1.95714">
        <ele>118.38</ele>
        <time>2020-08-27T07:42:11Z</time>
      </trkpt>
      <trkpt lat="48.59854" lon="1.95713">
        <ele>118.38</ele>
        <time>2020-08-27T07:42:12Z</time>
      </trkpt>
      <trkpt lat="48.59854" lon="1.95712">
        <ele>118.38</ele>
        <time>2020-08-27T07:42:13Z</time>
      </trkpt>
      <trkpt lat="48.59855" lon="1.95711">
        <ele>118.38</ele>
        <time>2020-08-27T07:42:14Z</time>
      </trkpt>
      <trkpt lat="48.59856" lon="1.95709">
        <ele>118.38</ele>
        <time>2020-08-27T07:42:15Z</time>
      </trkpt>
      <trkpt lat="48.59857" lon="1.95708">
        <ele>118.86</ele>
        <time>2020-08-27T07:42:16Z</time>
      </trkpt>
      <trkpt lat="48.59857" lon="1.95707">
        <ele>118.38</ele>
        <time>2020-08-27T07:42:17Z</time>
      </trkpt>
      <trkpt lat="48.59859" lon="1.95705">
        <ele>118.38</ele>
        <time>2020-08-27T07:42:18Z</time>
      </trkpt>
      <trkpt lat="48.59861" lon="1.95703">
        <ele>118.38</ele>
        <time>2020-08-27T07:42:19Z</time>
      </trkpt>
      <trkpt lat="48.59862" lon="1.95701">
        <ele>118.38</ele>
        <time>2020-08-27T07:42:20Z</time>
      </trkpt>
      <trkpt lat="48.59863" lon="1.957">
        <ele>118.38</ele>
        <time>2020-08-27T07:42:21Z</time>
      </trkpt>
      <trkpt lat="48.59864" lon="1.95698">
        <ele>118.38</ele>
        <time>2020-08-27T07:42:22Z</time>
      </trkpt>
      <trkpt lat="48.59865" lon="1.95697">
        <ele>118.38</ele>
        <time>2020-08-27T07:42:23Z</time>
      </trkpt>
      <trkpt lat="48.59866" lon="1.95696">
        <ele>117.9</ele>
        <time>2020-08-27T07:42:24Z</time>
      </trkpt>
      <trkpt lat="48.59867" lon="1.95694">
        <ele>117.9</ele>
        <time>2020-08-27T07:42:25Z</time>
      </trkpt>
      <trkpt lat="48.59867" lon="1.95692">
        <ele>117.9</ele>
        <time>2020-08-27T07:42:26Z</time>
      </trkpt>
      <trkpt lat="48.59868" lon="1.9569">
        <ele>117.9</ele>
        <time>2020-08-27T07:42:27Z</time>
      </trkpt>
      <trkpt lat="48.59869" lon="1.95688">
        <ele>117.9</ele>
        <time>2020-08-27T07:42:28Z</time>
      </trkpt>
      <trkpt lat="48.59869" lon="1.95687">
        <ele>117.9</ele>
        <time>2020-08-27T07:42:29Z</time>
      </trkpt>
      <trkpt lat="48.5987" lon="1.95685">
        <ele>117.9</ele>
        <time>2020-08-27T07:42:30Z</time>
      </trkpt>
      <trkpt lat="48.59871" lon="1.95683">
        <ele>117.9</ele>
        <time>2020-08-27T07:42:31Z</time>
      </trkpt>
      <trkpt lat="48.59872" lon="1.95681">
        <ele>117.9</ele>
        <time>2020-08-27T07:42:32Z</time>
      </trkpt>
      <trkpt lat="48.59873" lon="1.95679">
        <ele>117.9</ele>
        <time>2020-08-27T07:42:33Z</time>
      </trkpt>
      <trkpt lat="48.59874" lon="1.95677">
        <ele>117.9</ele>
        <time>2020-08-27T07:42:34Z</time>
      </trkpt>
      <trkpt lat="48.59874" lon="1.95675">
        <ele>117.9</ele>
        <time>2020-08-27T07:42:35Z</time>
      </trkpt>
      <trkpt lat="48.59875" lon="1.95674">
        <ele>117.9</ele>
        <time>2020-08-27T07:42:36Z</time>
      </trkpt>
      <trkpt lat="48.59876" lon="1.95672">
        <ele>117.9</ele>
        <time>2020-08-27T07:42:37Z</time>
      </trkpt>
      <trkpt lat="48.59876" lon="1.9567">
        <ele>117.9</ele>
        <time>2020-08-27T07:42:38Z</time>
      </trkpt>
      <trkpt lat="48.59877" lon="1.95668">
        <ele>117.42</ele>
        <time>2020-08-27T07:42:39Z</time>
      </trkpt>
      <trkpt lat="48.59878" lon="1.95666">
        <ele>117.9</ele>
        <time>2020-08-27T07:42:40Z</time>
      </trkpt>
      <trkpt lat="48.59879" lon="1.95664">
        <ele>117.9</ele>
        <time>2020-08-27T07:42:41Z</time>
      </trkpt>
      <trkpt lat="48.5988" lon="1.95662">
        <ele>117.9</ele>
        <time>2020-08-27T07:42:42Z</time>
      </trkpt>
      <trkpt lat="48.5988" lon="1.9566">
        <ele>117.9</ele>
        <time>2020-08-27T07:42:43Z</time>
      </trkpt>
      <trkpt lat="48.5988" lon="1.95658">
        <ele>117.9</ele>
        <time>2020-08-27T07:42:44Z</time>
      </trkpt>
      <trkpt lat="48.59881" lon="1.95657">
        <ele>117.42</ele>
        <time>2020-08-27T07:42:45Z</time>
      </trkpt>
      <trkpt lat="48.59882" lon="1.95656">
        <ele>117.42</ele>
        <time>2020-08-27T07:42:46Z</time>
      </trkpt>
      <trkpt lat="48.59883" lon="1.95654">
        <ele>117.42</ele>
        <time>2020-08-27T07:42:47Z</time>
      </trkpt>
      <trkpt lat="48.59884" lon="1.95652">
        <ele>117.42</ele>
        <time>2020-08-27T07:42:48Z</time>
      </trkpt>
      <trkpt lat="48.59885" lon="1.9565">
        <ele>117.42</ele>
        <time>2020-08-27T07:42:49Z</time>
      </trkpt>
      <trkpt lat="48.59886" lon="1.95648">
        <ele>117.42</ele>
        <time>2020-08-27T07:42:50Z</time>
      </trkpt>
      <trkpt lat="48.59887" lon="1.95647">
        <ele>117.42</ele>
        <time>2020-08-27T07:42:51Z</time>
      </trkpt>
      <trkpt lat="48.59889" lon="1.95645">
        <ele>117.42</ele>
        <time>2020-08-27T07:42:52Z</time>
      </trkpt>
      <trkpt lat="48.5989" lon="1.95644">
        <ele>117.42</ele>
        <time>2020-08-27T07:42:53Z</time>
      </trkpt>
      <trkpt lat="48.59891" lon="1.95643">
        <ele>117.42</ele>
        <time>2020-08-27T07:42:54Z</time>
      </trkpt>
      <trkpt lat="48.59892" lon="1.95641">
        <ele>117.42</ele>
        <time>2020-08-27T07:42:55Z</time>
      </trkpt>
      <trkpt lat="48.59893" lon="1.95639">
        <ele>116.94</ele>
        <time>2020-08-27T07:42:56Z</time>
      </trkpt>
      <trkpt lat="48.59893" lon="1.95638">
        <ele>117.42</ele>
        <time>2020-08-27T07:42:57Z</time>
      </trkpt>
      <trkpt lat="48.59894" lon="1.95636">
        <ele>116.94</ele>
        <time>2020-08-27T07:42:58Z</time>
      </trkpt>
      <trkpt lat="48.59895" lon="1.95634">
        <ele>117.42</ele>
        <time>2020-08-27T07:42:59Z</time>
      </trkpt>
      <trkpt lat="48.59895" lon="1.95632">
        <ele>117.42</ele>
        <time>2020-08-27T07:43:00Z</time>
      </trkpt>
      <trkpt lat="48.59896" lon="1.9563">
        <ele>116.94</ele>
        <time>2020-08-27T07:43:01Z</time>
      </trkpt>
      <trkpt lat="48.59896" lon="1.95629">
        <ele>116.94</ele>
        <time>2020-08-27T07:43:02Z</time>
      </trkpt>
      <trkpt lat="48.59897" lon="1.95627">
        <ele>116.94</ele>
        <time>2020-08-27T07:43:03Z</time>
      </trkpt>
      <trkpt lat="48.59898" lon="1.95625">
        <ele>116.94</ele>
        <time>2020-08-27T07:43:04Z</time>
      </trkpt>
      <trkpt lat="48.59899" lon="1.95622">
        <ele>116.94</ele>
        <time>2020-08-27T07:43:05Z</time>
      </trkpt>
      <trkpt lat="48.599" lon="1.9562">
        <ele>116.94</ele>
        <time>2020-08-27T07:43:06Z</time>
      </trkpt>
      <trkpt lat="48.59901" lon="1.95619">
        <ele>116.94</ele>
        <time>2020-08-27T07:43:07Z</time>
      </trkpt>
      <trkpt lat="48.59901" lon="1.95617">
        <ele>116.94</ele>
        <time>2020-08-27T07:43:08Z</time>
      </trkpt>
      <trkpt lat="48.59902" lon="1.95615">
        <ele>116.94</ele>
        <time>2020-08-27T07:43:09Z</time>
      </trkpt>
      <trkpt lat="48.59902" lon="1.95613">
        <ele>116.94</ele>
        <time>2020-08-27T07:43:10Z</time>
      </trkpt>
      <trkpt lat="48.59903" lon="1.95612">
        <ele>115.5</ele>
        <time>2020-08-27T07:43:11Z</time>
      </trkpt>
      <trkpt lat="48.59904" lon="1.95612">
        <ele>117.9</ele>
        <time>2020-08-27T07:43:12Z</time>
      </trkpt>
      <trkpt lat="48.59905" lon="1.95611">
        <ele>117.42</ele>
        <time>2020-08-27T07:43:13Z</time>
      </trkpt>
      <trkpt lat="48.59905" lon="1.9561">
        <ele>116.94</ele>
        <time>2020-08-27T07:43:14Z</time>
      </trkpt>
      <trkpt lat="48.59905" lon="1.95608">
        <ele>116.94</ele>
        <time>2020-08-27T07:43:15Z</time>
      </trkpt>
      <trkpt lat="48.59906" lon="1.95607">
        <ele>116.94</ele>
        <time>2020-08-27T07:43:16Z</time>
      </trkpt>
      <trkpt lat="48.59906" lon="1.95606">
        <ele>117.42</ele>
        <time>2020-08-27T07:43:17Z</time>
      </trkpt>
      <trkpt lat="48.59907" lon="1.95604">
        <ele>116.94</ele>
        <time>2020-08-27T07:43:18Z</time>
      </trkpt>
      <trkpt lat="48.59908" lon="1.95602">
        <ele>116.94</ele>
        <time>2020-08-27T07:43:19Z</time>
      </trkpt>
      <trkpt lat="48.59908" lon="1.956">
        <ele>116.94</ele>
        <time>2020-08-27T07:43:20Z</time>
      </trkpt>
      <trkpt lat="48.59909" lon="1.95598">
        <ele>116.94</ele>
        <time>2020-08-27T07:43:21Z</time>
      </trkpt>
      <trkpt lat="48.5991" lon="1.95597">
        <ele>116.94</ele>
        <time>2020-08-27T07:43:22Z</time>
      </trkpt>
      <trkpt lat="48.5991" lon="1.95595">
        <ele>116.94</ele>
        <time>2020-08-27T07:43:23Z</time>
      </trkpt>
      <trkpt lat="48.59911" lon="1.95594">
        <ele>116.94</ele>
        <time>2020-08-27T07:43:24Z</time>
      </trkpt>
      <trkpt lat="48.59912" lon="1.95592">
        <ele>116.94</ele>
        <time>2020-08-27T07:43:25Z</time>
      </trkpt>
      <trkpt lat="48.59914" lon="1.9559">
        <ele>116.94</ele>
        <time>2020-08-27T07:43:26Z</time>
      </trkpt>
      <trkpt lat="48.59915" lon="1.95588">
        <ele>116.94</ele>
        <time>2020-08-27T07:43:27Z</time>
      </trkpt>
      <trkpt lat="48.59916" lon="1.95586">
        <ele>116.94</ele>
        <time>2020-08-27T07:43:28Z</time>
      </trkpt>
      <trkpt lat="48.59916" lon="1.95584">
        <ele>117.9</ele>
        <time>2020-08-27T07:43:29Z</time>
      </trkpt>
      <trkpt lat="48.59917" lon="1.95583">
        <ele>116.94</ele>
        <time>2020-08-27T07:43:30Z</time>
      </trkpt>
      <trkpt lat="48.59917" lon="1.95582">
        <ele>116.94</ele>
        <time>2020-08-27T07:43:31Z</time>
      </trkpt>
      <trkpt lat="48.59918" lon="1.9558">
        <ele>116.46</ele>
        <time>2020-08-27T07:43:32Z</time>
      </trkpt>
      <trkpt lat="48.59918" lon="1.95579">
        <ele>116.46</ele>
        <time>2020-08-27T07:43:33Z</time>
      </trkpt>
      <trkpt lat="48.59919" lon="1.95577">
        <ele>116.94</ele>
        <time>2020-08-27T07:43:34Z</time>
      </trkpt>
      <trkpt lat="48.59919" lon="1.95575">
        <ele>116.94</ele>
        <time>2020-08-27T07:43:35Z</time>
      </trkpt>
      <trkpt lat="48.59921" lon="1.95573">
        <ele>116.46</ele>
        <time>2020-08-27T07:43:36Z</time>
      </trkpt>
      <trkpt lat="48.59921" lon="1.95571">
        <ele>116.46</ele>
        <time>2020-08-27T07:43:37Z</time>
      </trkpt>
      <trkpt lat="48.59922" lon="1.95569">
        <ele>116.46</ele>
        <time>2020-08-27T07:43:38Z</time>
      </trkpt>
      <trkpt lat="48.59923" lon="1.95566">
        <ele>116.46</ele>
        <time>2020-08-27T07:43:39Z</time>
      </trkpt>
      <trkpt lat="48.59924" lon="1.95564">
        <ele>116.46</ele>
        <time>2020-08-27T07:43:40Z</time>
      </trkpt>
      <trkpt lat="48.59924" lon="1.95563">
        <ele>116.46</ele>
        <time>2020-08-27T07:43:41Z</time>
      </trkpt>
      <trkpt lat="48.59925" lon="1.95561">
        <ele>116.46</ele>
        <time>2020-08-27T07:43:42Z</time>
      </trkpt>
      <trkpt lat="48.59925" lon="1.9556">
        <ele>115.98</ele>
        <time>2020-08-27T07:43:43Z</time>
      </trkpt>
      <trkpt lat="48.59925" lon="1.95559">
        <ele>116.46</ele>
        <time>2020-08-27T07:43:44Z</time>
      </trkpt>
      <trkpt lat="48.59926" lon="1.95558">
        <ele>116.46</ele>
        <time>2020-08-27T07:43:45Z</time>
      </trkpt>
      <trkpt lat="48.59926" lon="1.95557">
        <ele>116.46</ele>
        <time>2020-08-27T07:43:46Z</time>
      </trkpt>
      <trkpt lat="48.59927" lon="1.95555">
        <ele>116.46</ele>
        <time>2020-08-27T07:43:47Z</time>
      </trkpt>
      <trkpt lat="48.59928" lon="1.95553">
        <ele>115.98</ele>
        <time>2020-08-27T07:43:48Z</time>
      </trkpt>
      <trkpt lat="48.59929" lon="1.95552">
        <ele>115.98</ele>
        <time>2020-08-27T07:43:49Z</time>
      </trkpt>
      <trkpt lat="48.5993" lon="1.9555">
        <ele>115.98</ele>
        <time>2020-08-27T07:43:50Z</time>
      </trkpt>
      <trkpt lat="48.59931" lon="1.95548">
        <ele>115.98</ele>
        <time>2020-08-27T07:43:51Z</time>
      </trkpt>
      <trkpt lat="48.59932" lon="1.95547">
        <ele>115.98</ele>
        <time>2020-08-27T07:43:52Z</time>
      </trkpt>
      <trkpt lat="48.59933" lon="1.95545">
        <ele>115.98</ele>
        <time>2020-08-27T07:43:53Z</time>
      </trkpt>
      <trkpt lat="48.59934" lon="1.95543">
        <ele>115.98</ele>
        <time>2020-08-27T07:43:54Z</time>
      </trkpt>
      <trkpt lat="48.59935" lon="1.95541">
        <ele>115.98</ele>
        <time>2020-08-27T07:43:55Z</time>
      </trkpt>
      <trkpt lat="48.59936" lon="1.9554">
        <ele>115.5</ele>
        <time>2020-08-27T07:43:56Z</time>
      </trkpt>
      <trkpt lat="48.59937" lon="1.95538">
        <ele>115.01</ele>
        <time>2020-08-27T07:43:57Z</time>
      </trkpt>
      <trkpt lat="48.59938" lon="1.95536">
        <ele>115.01</ele>
        <time>2020-08-27T07:43:58Z</time>
      </trkpt>
      <trkpt lat="48.59939" lon="1.95535">
        <ele>115.01</ele>
        <time>2020-08-27T07:43:59Z</time>
      </trkpt>
      <trkpt lat="48.5994" lon="1.95533">
        <ele>115.01</ele>
        <time>2020-08-27T07:44:00Z</time>
      </trkpt>
      <trkpt lat="48.59941" lon="1.95532">
        <ele>114.53</ele>
        <time>2020-08-27T07:44:01Z</time>
      </trkpt>
      <trkpt lat="48.59941" lon="1.9553">
        <ele>114.53</ele>
        <time>2020-08-27T07:44:02Z</time>
      </trkpt>
      <trkpt lat="48.59942" lon="1.95528">
        <ele>114.53</ele>
        <time>2020-08-27T07:44:03Z</time>
      </trkpt>
      <trkpt lat="48.59943" lon="1.95526">
        <ele>114.05</ele>
        <time>2020-08-27T07:44:04Z</time>
      </trkpt>
      <trkpt lat="48.59943" lon="1.95524">
        <ele>114.05</ele>
        <time>2020-08-27T07:44:05Z</time>
      </trkpt>
      <trkpt lat="48.59944" lon="1.95522">
        <ele>113.57</ele>
        <time>2020-08-27T07:44:06Z</time>
      </trkpt>
      <trkpt lat="48.59944" lon="1.95521">
        <ele>113.57</ele>
        <time>2020-08-27T07:44:07Z</time>
      </trkpt>
      <trkpt lat="48.59945" lon="1.9552">
        <ele>113.57</ele>
        <time>2020-08-27T07:44:08Z</time>
      </trkpt>
      <trkpt lat="48.59945" lon="1.95518">
        <ele>113.57</ele>
        <time>2020-08-27T07:44:09Z</time>
      </trkpt>
      <trkpt lat="48.59945" lon="1.95517">
        <ele>113.57</ele>
        <time>2020-08-27T07:44:10Z</time>
      </trkpt>
      <trkpt lat="48.59946" lon="1.95516">
        <ele>113.09</ele>
        <time>2020-08-27T07:44:11Z</time>
      </trkpt>
      <trkpt lat="48.59946" lon="1.95514">
        <ele>113.09</ele>
        <time>2020-08-27T07:44:12Z</time>
      </trkpt>
      <trkpt lat="48.59947" lon="1.95513">
        <ele>112.61</ele>
        <time>2020-08-27T07:44:13Z</time>
      </trkpt>
      <trkpt lat="48.59948" lon="1.95511">
        <ele>112.61</ele>
        <time>2020-08-27T07:44:14Z</time>
      </trkpt>
      <trkpt lat="48.5995" lon="1.95509">
        <ele>112.61</ele>
        <time>2020-08-27T07:44:15Z</time>
      </trkpt>
      <trkpt lat="48.5995" lon="1.95507">
        <ele>112.13</ele>
        <time>2020-08-27T07:44:16Z</time>
      </trkpt>
      <trkpt lat="48.59951" lon="1.95506">
        <ele>112.13</ele>
        <time>2020-08-27T07:44:17Z</time>
      </trkpt>
      <trkpt lat="48.59952" lon="1.95504">
        <ele>112.13</ele>
        <time>2020-08-27T07:44:18Z</time>
      </trkpt>
      <trkpt lat="48.59952" lon="1.95502">
        <ele>112.13</ele>
        <time>2020-08-27T07:44:19Z</time>
      </trkpt>
      <trkpt lat="48.59953" lon="1.95501">
        <ele>111.65</ele>
        <time>2020-08-27T07:44:20Z</time>
      </trkpt>
      <trkpt lat="48.59954" lon="1.95499">
        <ele>111.65</ele>
        <time>2020-08-27T07:44:21Z</time>
      </trkpt>
      <trkpt lat="48.59954" lon="1.95497">
        <ele>111.65</ele>
        <time>2020-08-27T07:44:22Z</time>
      </trkpt>
      <trkpt lat="48.59955" lon="1.95495">
        <ele>111.17</ele>
        <time>2020-08-27T07:44:23Z</time>
      </trkpt>
      <trkpt lat="48.59956" lon="1.95493">
        <ele>111.65</ele>
        <time>2020-08-27T07:44:24Z</time>
      </trkpt>
      <trkpt lat="48.59957" lon="1.95491">
        <ele>111.17</ele>
        <time>2020-08-27T07:44:25Z</time>
      </trkpt>
      <trkpt lat="48.59958" lon="1.95489">
        <ele>111.17</ele>
        <time>2020-08-27T07:44:26Z</time>
      </trkpt>
      <trkpt lat="48.59959" lon="1.95487">
        <ele>111.17</ele>
        <time>2020-08-27T07:44:27Z</time>
      </trkpt>
      <trkpt lat="48.5996" lon="1.95486">
        <ele>111.17</ele>
        <time>2020-08-27T07:44:28Z</time>
      </trkpt>
      <trkpt lat="48.5996" lon="1.95484">
        <ele>111.17</ele>
        <time>2020-08-27T07:44:29Z</time>
      </trkpt>
      <trkpt lat="48.59961" lon="1.95483">
        <ele>110.69</ele>
        <time>2020-08-27T07:44:30Z</time>
      </trkpt>
      <trkpt lat="48.59962" lon="1.95481">
        <ele>110.69</ele>
        <time>2020-08-27T07:44:31Z</time>
      </trkpt>
      <trkpt lat="48.59963" lon="1.95479">
        <ele>110.69</ele>
        <time>2020-08-27T07:44:32Z</time>
      </trkpt>
      <trkpt lat="48.59964" lon="1.95478">
        <ele>110.69</ele>
        <time>2020-08-27T07:44:33Z</time>
      </trkpt>
      <trkpt lat="48.59965" lon="1.95476">
        <ele>110.69</ele>
        <time>2020-08-27T07:44:34Z</time>
      </trkpt>
      <trkpt lat="48.59966" lon="1.95475">
        <ele>110.69</ele>
        <time>2020-08-27T07:44:35Z</time>
      </trkpt>
      <trkpt lat="48.59967" lon="1.95473">
        <ele>110.69</ele>
        <time>2020-08-27T07:44:36Z</time>
      </trkpt>
      <trkpt lat="48.59968" lon="1.95471">
        <ele>110.21</ele>
        <time>2020-08-27T07:44:37Z</time>
      </trkpt>
      <trkpt lat="48.59969" lon="1.95469">
        <ele>110.21</ele>
        <time>2020-08-27T07:44:38Z</time>
      </trkpt>
      <trkpt lat="48.5997" lon="1.95467">
        <ele>110.21</ele>
        <time>2020-08-27T07:44:39Z</time>
      </trkpt>
      <trkpt lat="48.59971" lon="1.95466">
        <ele>110.21</ele>
        <time>2020-08-27T07:44:40Z</time>
      </trkpt>
      <trkpt lat="48.59972" lon="1.95464">
        <ele>110.21</ele>
        <time>2020-08-27T07:44:41Z</time>
      </trkpt>
      <trkpt lat="48.59973" lon="1.95462">
        <ele>110.21</ele>
        <time>2020-08-27T07:44:42Z</time>
      </trkpt>
      <trkpt lat="48.59974" lon="1.95461">
        <ele>109.73</ele>
        <time>2020-08-27T07:44:43Z</time>
      </trkpt>
      <trkpt lat="48.59974" lon="1.95459">
        <ele>109.73</ele>
        <time>2020-08-27T07:44:44Z</time>
      </trkpt>
      <trkpt lat="48.59975" lon="1.95457">
        <ele>109.73</ele>
        <time>2020-08-27T07:44:45Z</time>
      </trkpt>
      <trkpt lat="48.59976" lon="1.95455">
        <ele>109.73</ele>
        <time>2020-08-27T07:44:46Z</time>
      </trkpt>
      <trkpt lat="48.59977" lon="1.95454">
        <ele>109.73</ele>
        <time>2020-08-27T07:44:47Z</time>
      </trkpt>
      <trkpt lat="48.59977" lon="1.95452">
        <ele>109.73</ele>
        <time>2020-08-27T07:44:48Z</time>
      </trkpt>
      <trkpt lat="48.59977" lon="1.9545">
        <ele>109.73</ele>
        <time>2020-08-27T07:44:49Z</time>
      </trkpt>
      <trkpt lat="48.59978" lon="1.95448">
        <ele>109.73</ele>
        <time>2020-08-27T07:44:50Z</time>
      </trkpt>
      <trkpt lat="48.59978" lon="1.95446">
        <ele>109.73</ele>
        <time>2020-08-27T07:44:51Z</time>
      </trkpt>
      <trkpt lat="48.59979" lon="1.95444">
        <ele>109.73</ele>
        <time>2020-08-27T07:44:52Z</time>
      </trkpt>
      <trkpt lat="48.5998" lon="1.95442">
        <ele>109.73</ele>
        <time>2020-08-27T07:44:53Z</time>
      </trkpt>
      <trkpt lat="48.5998" lon="1.95441">
        <ele>109.73</ele>
        <time>2020-08-27T07:44:54Z</time>
      </trkpt>
      <trkpt lat="48.59981" lon="1.95439">
        <ele>109.25</ele>
        <time>2020-08-27T07:44:55Z</time>
      </trkpt>
      <trkpt lat="48.59982" lon="1.95437">
        <ele>109.25</ele>
        <time>2020-08-27T07:44:56Z</time>
      </trkpt>
      <trkpt lat="48.59982" lon="1.95436">
        <ele>109.25</ele>
        <time>2020-08-27T07:44:57Z</time>
      </trkpt>
      <trkpt lat="48.59984" lon="1.95434">
        <ele>108.77</ele>
        <time>2020-08-27T07:44:58Z</time>
      </trkpt>
      <trkpt lat="48.59984" lon="1.95433">
        <ele>109.25</ele>
        <time>2020-08-27T07:44:59Z</time>
      </trkpt>
      <trkpt lat="48.59985" lon="1.95432">
        <ele>109.25</ele>
        <time>2020-08-27T07:45:00Z</time>
      </trkpt>
      <trkpt lat="48.59985" lon="1.9543">
        <ele>108.77</ele>
        <time>2020-08-27T07:45:01Z</time>
      </trkpt>
      <trkpt lat="48.59985" lon="1.95429">
        <ele>108.77</ele>
        <time>2020-08-27T07:45:02Z</time>
      </trkpt>
      <trkpt lat="48.59985" lon="1.95428">
        <ele>108.77</ele>
        <time>2020-08-27T07:45:03Z</time>
      </trkpt>
      <trkpt lat="48.59985" lon="1.95427">
        <ele>108.77</ele>
        <time>2020-08-27T07:45:04Z</time>
      </trkpt>
      <trkpt lat="48.59986" lon="1.95426">
        <ele>108.77</ele>
        <time>2020-08-27T07:45:05Z</time>
      </trkpt>
      <trkpt lat="48.59987" lon="1.95424">
        <ele>108.77</ele>
        <time>2020-08-27T07:45:06Z</time>
      </trkpt>
      <trkpt lat="48.59987" lon="1.95424">
        <ele>108.77</ele>
        <time>2020-08-27T07:45:07Z</time>
      </trkpt>
      <trkpt lat="48.59988" lon="1.95423">
        <ele>108.77</ele>
        <time>2020-08-27T07:45:08Z</time>
      </trkpt>
      <trkpt lat="48.5999" lon="1.9542">
        <ele>108.29</ele>
        <time>2020-08-27T07:45:09Z</time>
      </trkpt>
      <trkpt lat="48.59992" lon="1.95417">
        <ele>108.29</ele>
        <time>2020-08-27T07:45:10Z</time>
      </trkpt>
      <trkpt lat="48.59995" lon="1.95415">
        <ele>108.29</ele>
        <time>2020-08-27T07:45:11Z</time>
      </trkpt>
      <trkpt lat="48.59996" lon="1.95413">
        <ele>108.29</ele>
        <time>2020-08-27T07:45:12Z</time>
      </trkpt>
      <trkpt lat="48.59998" lon="1.95411">
        <ele>108.29</ele>
        <time>2020-08-27T07:45:13Z</time>
      </trkpt>
      <trkpt lat="48.6" lon="1.95409">
        <ele>108.29</ele>
        <time>2020-08-27T07:45:14Z</time>
      </trkpt>
      <trkpt lat="48.60001" lon="1.95407">
        <ele>108.29</ele>
        <time>2020-08-27T07:45:15Z</time>
      </trkpt>
      <trkpt lat="48.60002" lon="1.95405">
        <ele>108.29</ele>
        <time>2020-08-27T07:45:16Z</time>
      </trkpt>
      <trkpt lat="48.60002" lon="1.95403">
        <ele>108.29</ele>
        <time>2020-08-27T07:45:17Z</time>
      </trkpt>
      <trkpt lat="48.60003" lon="1.95401">
        <ele>108.29</ele>
        <time>2020-08-27T07:45:18Z</time>
      </trkpt>
      <trkpt lat="48.60004" lon="1.95399">
        <ele>107.81</ele>
        <time>2020-08-27T07:45:19Z</time>
      </trkpt>
      <trkpt lat="48.60005" lon="1.95397">
        <ele>107.81</ele>
        <time>2020-08-27T07:45:20Z</time>
      </trkpt>
      <trkpt lat="48.60006" lon="1.95395">
        <ele>107.81</ele>
        <time>2020-08-27T07:45:21Z</time>
      </trkpt>
      <trkpt lat="48.60008" lon="1.95393">
        <ele>108.29</ele>
        <time>2020-08-27T07:45:22Z</time>
      </trkpt>
      <trkpt lat="48.60008" lon="1.95391">
        <ele>108.29</ele>
        <time>2020-08-27T07:45:23Z</time>
      </trkpt>
      <trkpt lat="48.60009" lon="1.95389">
        <ele>108.29</ele>
        <time>2020-08-27T07:45:24Z</time>
      </trkpt>
      <trkpt lat="48.6001" lon="1.95388">
        <ele>107.81</ele>
        <time>2020-08-27T07:45:25Z</time>
      </trkpt>
      <trkpt lat="48.60011" lon="1.95386">
        <ele>107.81</ele>
        <time>2020-08-27T07:45:26Z</time>
      </trkpt>
      <trkpt lat="48.60012" lon="1.95383">
        <ele>107.81</ele>
        <time>2020-08-27T07:45:27Z</time>
      </trkpt>
      <trkpt lat="48.60013" lon="1.95381">
        <ele>107.81</ele>
        <time>2020-08-27T07:45:28Z</time>
      </trkpt>
      <trkpt lat="48.60013" lon="1.95379">
        <ele>108.77</ele>
        <time>2020-08-27T07:45:29Z</time>
      </trkpt>
      <trkpt lat="48.60013" lon="1.95377">
        <ele>108.29</ele>
        <time>2020-08-27T07:45:30Z</time>
      </trkpt>
      <trkpt lat="48.60014" lon="1.95376">
        <ele>107.81</ele>
        <time>2020-08-27T07:45:31Z</time>
      </trkpt>
      <trkpt lat="48.60015" lon="1.95374">
        <ele>107.81</ele>
        <time>2020-08-27T07:45:32Z</time>
      </trkpt>
      <trkpt lat="48.60015" lon="1.95373">
        <ele>108.29</ele>
        <time>2020-08-27T07:45:33Z</time>
      </trkpt>
      <trkpt lat="48.60016" lon="1.95371">
        <ele>108.29</ele>
        <time>2020-08-27T07:45:34Z</time>
      </trkpt>
      <trkpt lat="48.60017" lon="1.9537">
        <ele>108.29</ele>
        <time>2020-08-27T07:45:35Z</time>
      </trkpt>
      <trkpt lat="48.60018" lon="1.95368">
        <ele>108.29</ele>
        <time>2020-08-27T07:45:36Z</time>
      </trkpt>
      <trkpt lat="48.60019" lon="1.95367">
        <ele>108.29</ele>
        <time>2020-08-27T07:45:37Z</time>
      </trkpt>
      <trkpt lat="48.60019" lon="1.95365">
        <ele>108.77</ele>
        <time>2020-08-27T07:45:38Z</time>
      </trkpt>
      <trkpt lat="48.6002" lon="1.95363">
        <ele>108.29</ele>
        <time>2020-08-27T07:45:39Z</time>
      </trkpt>
      <trkpt lat="48.60021" lon="1.95361">
        <ele>108.77</ele>
        <time>2020-08-27T07:45:40Z</time>
      </trkpt>
      <trkpt lat="48.60022" lon="1.95359">
        <ele>108.77</ele>
        <time>2020-08-27T07:45:41Z</time>
      </trkpt>
      <trkpt lat="48.60023" lon="1.95357">
        <ele>108.77</ele>
        <time>2020-08-27T07:45:42Z</time>
      </trkpt>
      <trkpt lat="48.60024" lon="1.95355">
        <ele>108.77</ele>
        <time>2020-08-27T07:45:43Z</time>
      </trkpt>
      <trkpt lat="48.60025" lon="1.95353">
        <ele>108.77</ele>
        <time>2020-08-27T07:45:44Z</time>
      </trkpt>
      <trkpt lat="48.60026" lon="1.95351">
        <ele>108.77</ele>
        <time>2020-08-27T07:45:45Z</time>
      </trkpt>
      <trkpt lat="48.60026" lon="1.9535">
        <ele>108.77</ele>
        <time>2020-08-27T07:45:46Z</time>
      </trkpt>
      <trkpt lat="48.60027" lon="1.95348">
        <ele>108.77</ele>
        <time>2020-08-27T07:45:47Z</time>
      </trkpt>
      <trkpt lat="48.60027" lon="1.95346">
        <ele>108.77</ele>
        <time>2020-08-27T07:45:48Z</time>
      </trkpt>
      <trkpt lat="48.60028" lon="1.95345">
        <ele>108.77</ele>
        <time>2020-08-27T07:45:49Z</time>
      </trkpt>
      <trkpt lat="48.60028" lon="1.95343">
        <ele>108.77</ele>
        <time>2020-08-27T07:45:50Z</time>
      </trkpt>
      <trkpt lat="48.60028" lon="1.95341">
        <ele>108.77</ele>
        <time>2020-08-27T07:45:51Z</time>
      </trkpt>
      <trkpt lat="48.60029" lon="1.9534">
        <ele>108.77</ele>
        <time>2020-08-27T07:45:52Z</time>
      </trkpt>
      <trkpt lat="48.60029" lon="1.95339">
        <ele>108.77</ele>
        <time>2020-08-27T07:45:53Z</time>
      </trkpt>
      <trkpt lat="48.6003" lon="1.95337">
        <ele>108.77</ele>
        <time>2020-08-27T07:45:54Z</time>
      </trkpt>
      <trkpt lat="48.6003" lon="1.95336">
        <ele>108.77</ele>
        <time>2020-08-27T07:45:55Z</time>
      </trkpt>
      <trkpt lat="48.60031" lon="1.95335">
        <ele>108.77</ele>
        <time>2020-08-27T07:45:56Z</time>
      </trkpt>
      <trkpt lat="48.60031" lon="1.95333">
        <ele>108.77</ele>
        <time>2020-08-27T07:45:57Z</time>
      </trkpt>
      <trkpt lat="48.60033" lon="1.95331">
        <ele>108.77</ele>
        <time>2020-08-27T07:45:58Z</time>
      </trkpt>
      <trkpt lat="48.60033" lon="1.95329">
        <ele>108.29</ele>
        <time>2020-08-27T07:45:59Z</time>
      </trkpt>
      <trkpt lat="48.60034" lon="1.95327">
        <ele>108.77</ele>
        <time>2020-08-27T07:46:00Z</time>
      </trkpt>
      <trkpt lat="48.60035" lon="1.95326">
        <ele>108.29</ele>
        <time>2020-08-27T07:46:01Z</time>
      </trkpt>
      <trkpt lat="48.60036" lon="1.95324">
        <ele>108.29</ele>
        <time>2020-08-27T07:46:02Z</time>
      </trkpt>
      <trkpt lat="48.60037" lon="1.95323">
        <ele>107.81</ele>
        <time>2020-08-27T07:46:03Z</time>
      </trkpt>
      <trkpt lat="48.60039" lon="1.95321">
        <ele>107.81</ele>
        <time>2020-08-27T07:46:04Z</time>
      </trkpt>
      <trkpt lat="48.6004" lon="1.95319">
        <ele>107.81</ele>
        <time>2020-08-27T07:46:05Z</time>
      </trkpt>
      <trkpt lat="48.60042" lon="1.95318">
        <ele>107.81</ele>
        <time>2020-08-27T07:46:06Z</time>
      </trkpt>
      <trkpt lat="48.60044" lon="1.95317">
        <ele>107.32</ele>
        <time>2020-08-27T07:46:07Z</time>
      </trkpt>
      <trkpt lat="48.60046" lon="1.95316">
        <ele>107.32</ele>
        <time>2020-08-27T07:46:08Z</time>
      </trkpt>
      <trkpt lat="48.60047" lon="1.95315">
        <ele>107.32</ele>
        <time>2020-08-27T07:46:09Z</time>
      </trkpt>
      <trkpt lat="48.60049" lon="1.95314">
        <ele>107.32</ele>
        <time>2020-08-27T07:46:10Z</time>
      </trkpt>
      <trkpt lat="48.60051" lon="1.95313">
        <ele>107.32</ele>
        <time>2020-08-27T07:46:11Z</time>
      </trkpt>
      <trkpt lat="48.60053" lon="1.95311">
        <ele>107.32</ele>
        <time>2020-08-27T07:46:12Z</time>
      </trkpt>
      <trkpt lat="48.60054" lon="1.95311">
        <ele>107.32</ele>
        <time>2020-08-27T07:46:13Z</time>
      </trkpt>
      <trkpt lat="48.60057" lon="1.9531">
        <ele>106.84</ele>
        <time>2020-08-27T07:46:14Z</time>
      </trkpt>
      <trkpt lat="48.60058" lon="1.9531">
        <ele>106.84</ele>
        <time>2020-08-27T07:46:15Z</time>
      </trkpt>
      <trkpt lat="48.60059" lon="1.9531">
        <ele>106.84</ele>
        <time>2020-08-27T07:46:16Z</time>
      </trkpt>
      <trkpt lat="48.6006" lon="1.9531">
        <ele>106.84</ele>
        <time>2020-08-27T07:46:17Z</time>
      </trkpt>
      <trkpt lat="48.6006" lon="1.95309">
        <ele>106.84</ele>
        <time>2020-08-27T07:46:18Z</time>
      </trkpt>
      <trkpt lat="48.60061" lon="1.95309">
        <ele>106.84</ele>
        <time>2020-08-27T07:46:19Z</time>
      </trkpt>
      <trkpt lat="48.60061" lon="1.95308">
        <ele>106.84</ele>
        <time>2020-08-27T07:46:20Z</time>
      </trkpt>
      <trkpt lat="48.60062" lon="1.95308">
        <ele>106.36</ele>
        <time>2020-08-27T07:46:21Z</time>
      </trkpt>
      <trkpt lat="48.60063" lon="1.95307">
        <ele>106.36</ele>
        <time>2020-08-27T07:46:22Z</time>
      </trkpt>
      <trkpt lat="48.60064" lon="1.95305">
        <ele>106.36</ele>
        <time>2020-08-27T07:46:23Z</time>
      </trkpt>
      <trkpt lat="48.60065" lon="1.95304">
        <ele>106.36</ele>
        <time>2020-08-27T07:46:24Z</time>
      </trkpt>
      <trkpt lat="48.60066" lon="1.95302">
        <ele>106.36</ele>
        <time>2020-08-27T07:46:25Z</time>
      </trkpt>
      <trkpt lat="48.60067" lon="1.95301">
        <ele>106.36</ele>
        <time>2020-08-27T07:46:26Z</time>
      </trkpt>
      <trkpt lat="48.60068" lon="1.95299">
        <ele>106.36</ele>
        <time>2020-08-27T07:46:27Z</time>
      </trkpt>
      <trkpt lat="48.60069" lon="1.95297">
        <ele>106.36</ele>
        <time>2020-08-27T07:46:28Z</time>
      </trkpt>
      <trkpt lat="48.6007" lon="1.95296">
        <ele>106.36</ele>
        <time>2020-08-27T07:46:29Z</time>
      </trkpt>
      <trkpt lat="48.60071" lon="1.95293">
        <ele>106.36</ele>
        <time>2020-08-27T07:46:30Z</time>
      </trkpt>
      <trkpt lat="48.60072" lon="1.95291">
        <ele>106.36</ele>
        <time>2020-08-27T07:46:31Z</time>
      </trkpt>
      <trkpt lat="48.60072" lon="1.95289">
        <ele>106.36</ele>
        <time>2020-08-27T07:46:32Z</time>
      </trkpt>
      <trkpt lat="48.60073" lon="1.95288">
        <ele>106.36</ele>
        <time>2020-08-27T07:46:33Z</time>
      </trkpt>
      <trkpt lat="48.60074" lon="1.95286">
        <ele>106.84</ele>
        <time>2020-08-27T07:46:34Z</time>
      </trkpt>
      <trkpt lat="48.60075" lon="1.95284">
        <ele>106.84</ele>
        <time>2020-08-27T07:46:35Z</time>
      </trkpt>
      <trkpt lat="48.60075" lon="1.95283">
        <ele>106.84</ele>
        <time>2020-08-27T07:46:36Z</time>
      </trkpt>
      <trkpt lat="48.60076" lon="1.95281">
        <ele>106.84</ele>
        <time>2020-08-27T07:46:37Z</time>
      </trkpt>
      <trkpt lat="48.60076" lon="1.95279">
        <ele>106.84</ele>
        <time>2020-08-27T07:46:38Z</time>
      </trkpt>
      <trkpt lat="48.60078" lon="1.95277">
        <ele>106.84</ele>
        <time>2020-08-27T07:46:39Z</time>
      </trkpt>
      <trkpt lat="48.60079" lon="1.95275">
        <ele>106.84</ele>
        <time>2020-08-27T07:46:40Z</time>
      </trkpt>
      <trkpt lat="48.6008" lon="1.95273">
        <ele>106.84</ele>
        <time>2020-08-27T07:46:41Z</time>
      </trkpt>
      <trkpt lat="48.60081" lon="1.95271">
        <ele>106.84</ele>
        <time>2020-08-27T07:46:42Z</time>
      </trkpt>
      <trkpt lat="48.60082" lon="1.9527">
        <ele>106.84</ele>
        <time>2020-08-27T07:46:43Z</time>
      </trkpt>
      <trkpt lat="48.60083" lon="1.95268">
        <ele>107.32</ele>
        <time>2020-08-27T07:46:44Z</time>
      </trkpt>
      <trkpt lat="48.60084" lon="1.95267">
        <ele>107.32</ele>
        <time>2020-08-27T07:46:45Z</time>
      </trkpt>
      <trkpt lat="48.60084" lon="1.95266">
        <ele>107.32</ele>
        <time>2020-08-27T07:46:46Z</time>
      </trkpt>
      <trkpt lat="48.60085" lon="1.95265">
        <ele>107.32</ele>
        <time>2020-08-27T07:46:47Z</time>
      </trkpt>
      <trkpt lat="48.60086" lon="1.95263">
        <ele>107.81</ele>
        <time>2020-08-27T07:46:48Z</time>
      </trkpt>
      <trkpt lat="48.60087" lon="1.95261">
        <ele>107.81</ele>
        <time>2020-08-27T07:46:49Z</time>
      </trkpt>
      <trkpt lat="48.60088" lon="1.9526">
        <ele>107.81</ele>
        <time>2020-08-27T07:46:50Z</time>
      </trkpt>
      <trkpt lat="48.60088" lon="1.95258">
        <ele>107.32</ele>
        <time>2020-08-27T07:46:51Z</time>
      </trkpt>
      <trkpt lat="48.60089" lon="1.95256">
        <ele>107.81</ele>
        <time>2020-08-27T07:46:52Z</time>
      </trkpt>
      <trkpt lat="48.6009" lon="1.95255">
        <ele>107.81</ele>
        <time>2020-08-27T07:46:53Z</time>
      </trkpt>
      <trkpt lat="48.6009" lon="1.95253">
        <ele>107.81</ele>
        <time>2020-08-27T07:46:54Z</time>
      </trkpt>
      <trkpt lat="48.60091" lon="1.95252">
        <ele>107.81</ele>
        <time>2020-08-27T07:46:55Z</time>
      </trkpt>
      <trkpt lat="48.60093" lon="1.95252">
        <ele>107.81</ele>
        <time>2020-08-27T07:46:56Z</time>
      </trkpt>
      <trkpt lat="48.60094" lon="1.95251">
        <ele>107.32</ele>
        <time>2020-08-27T07:46:57Z</time>
      </trkpt>
      <trkpt lat="48.60095" lon="1.9525">
        <ele>107.32</ele>
        <time>2020-08-27T07:46:58Z</time>
      </trkpt>
      <trkpt lat="48.60096" lon="1.95249">
        <ele>107.81</ele>
        <time>2020-08-27T07:46:59Z</time>
      </trkpt>
      <trkpt lat="48.60097" lon="1.95249">
        <ele>107.81</ele>
        <time>2020-08-27T07:47:00Z</time>
      </trkpt>
      <trkpt lat="48.60098" lon="1.95248">
        <ele>107.32</ele>
        <time>2020-08-27T07:47:01Z</time>
      </trkpt>
      <trkpt lat="48.601" lon="1.95247">
        <ele>107.81</ele>
        <time>2020-08-27T07:47:02Z</time>
      </trkpt>
      <trkpt lat="48.60101" lon="1.95247">
        <ele>107.81</ele>
        <time>2020-08-27T07:47:03Z</time>
      </trkpt>
      <trkpt lat="48.60101" lon="1.95247">
        <ele>107.81</ele>
        <time>2020-08-27T07:47:04Z</time>
      </trkpt>
      <trkpt lat="48.60102" lon="1.95247">
        <ele>107.81</ele>
        <time>2020-08-27T07:47:05Z</time>
      </trkpt>
      <trkpt lat="48.60104" lon="1.95246">
        <ele>107.81</ele>
        <time>2020-08-27T07:47:06Z</time>
      </trkpt>
      <trkpt lat="48.60105" lon="1.95246">
        <ele>107.81</ele>
        <time>2020-08-27T07:47:07Z</time>
      </trkpt>
      <trkpt lat="48.60106" lon="1.95245">
        <ele>107.81</ele>
        <time>2020-08-27T07:47:08Z</time>
      </trkpt>
      <trkpt lat="48.60107" lon="1.95244">
        <ele>107.81</ele>
        <time>2020-08-27T07:47:09Z</time>
      </trkpt>
      <trkpt lat="48.60108" lon="1.95243">
        <ele>107.81</ele>
        <time>2020-08-27T07:47:10Z</time>
      </trkpt>
      <trkpt lat="48.60109" lon="1.95243">
        <ele>107.81</ele>
        <time>2020-08-27T07:47:11Z</time>
      </trkpt>
      <trkpt lat="48.6011" lon="1.95242">
        <ele>108.29</ele>
        <time>2020-08-27T07:47:12Z</time>
      </trkpt>
      <trkpt lat="48.60113" lon="1.95242">
        <ele>107.81</ele>
        <time>2020-08-27T07:47:13Z</time>
      </trkpt>
      <trkpt lat="48.60114" lon="1.95242">
        <ele>107.81</ele>
        <time>2020-08-27T07:47:14Z</time>
      </trkpt>
      <trkpt lat="48.60116" lon="1.95242">
        <ele>107.81</ele>
        <time>2020-08-27T07:47:15Z</time>
      </trkpt>
      <trkpt lat="48.60119" lon="1.95241">
        <ele>107.81</ele>
        <time>2020-08-27T07:47:16Z</time>
      </trkpt>
      <trkpt lat="48.60121" lon="1.9524">
        <ele>108.29</ele>
        <time>2020-08-27T07:47:17Z</time>
      </trkpt>
      <trkpt lat="48.60123" lon="1.95239">
        <ele>107.81</ele>
        <time>2020-08-27T07:47:18Z</time>
      </trkpt>
      <trkpt lat="48.60125" lon="1.95238">
        <ele>107.81</ele>
        <time>2020-08-27T07:47:19Z</time>
      </trkpt>
      <trkpt lat="48.60127" lon="1.95237">
        <ele>107.81</ele>
        <time>2020-08-27T07:47:20Z</time>
      </trkpt>
      <trkpt lat="48.60129" lon="1.95237">
        <ele>107.81</ele>
        <time>2020-08-27T07:47:21Z</time>
      </trkpt>
      <trkpt lat="48.6013" lon="1.95236">
        <ele>107.81</ele>
        <time>2020-08-27T07:47:22Z</time>
      </trkpt>
      <trkpt lat="48.60132" lon="1.95235">
        <ele>107.81</ele>
        <time>2020-08-27T07:47:23Z</time>
      </trkpt>
      <trkpt lat="48.60133" lon="1.95235">
        <ele>107.81</ele>
        <time>2020-08-27T07:47:24Z</time>
      </trkpt>
      <trkpt lat="48.60134" lon="1.95234">
        <ele>107.81</ele>
        <time>2020-08-27T07:47:25Z</time>
      </trkpt>
      <trkpt lat="48.60136" lon="1.95234">
        <ele>107.81</ele>
        <time>2020-08-27T07:47:26Z</time>
      </trkpt>
      <trkpt lat="48.60137" lon="1.95233">
        <ele>107.81</ele>
        <time>2020-08-27T07:47:27Z</time>
      </trkpt>
      <trkpt lat="48.60138" lon="1.95232">
        <ele>107.81</ele>
        <time>2020-08-27T07:47:28Z</time>
      </trkpt>
      <trkpt lat="48.60139" lon="1.95231">
        <ele>108.77</ele>
        <time>2020-08-27T07:47:29Z</time>
      </trkpt>
      <trkpt lat="48.60141" lon="1.95229">
        <ele>107.81</ele>
        <time>2020-08-27T07:47:30Z</time>
      </trkpt>
      <trkpt lat="48.60142" lon="1.95228">
        <ele>107.81</ele>
        <time>2020-08-27T07:47:31Z</time>
      </trkpt>
      <trkpt lat="48.60145" lon="1.95227">
        <ele>107.81</ele>
        <time>2020-08-27T07:47:32Z</time>
      </trkpt>
      <trkpt lat="48.60147" lon="1.95225">
        <ele>107.81</ele>
        <time>2020-08-27T07:47:33Z</time>
      </trkpt>
      <trkpt lat="48.60148" lon="1.95224">
        <ele>107.81</ele>
        <time>2020-08-27T07:47:34Z</time>
      </trkpt>
      <trkpt lat="48.6015" lon="1.95223">
        <ele>107.81</ele>
        <time>2020-08-27T07:47:35Z</time>
      </trkpt>
      <trkpt lat="48.60151" lon="1.95222">
        <ele>107.81</ele>
        <time>2020-08-27T07:47:36Z</time>
      </trkpt>
      <trkpt lat="48.60153" lon="1.95221">
        <ele>107.81</ele>
        <time>2020-08-27T07:47:37Z</time>
      </trkpt>
      <trkpt lat="48.60154" lon="1.95221">
        <ele>107.81</ele>
        <time>2020-08-27T07:47:38Z</time>
      </trkpt>
      <trkpt lat="48.60156" lon="1.95221">
        <ele>107.81</ele>
        <time>2020-08-27T07:47:39Z</time>
      </trkpt>
      <trkpt lat="48.60156" lon="1.95221">
        <ele>107.81</ele>
        <time>2020-08-27T07:47:40Z</time>
      </trkpt>
      <trkpt lat="48.60157" lon="1.9522">
        <ele>107.81</ele>
        <time>2020-08-27T07:47:41Z</time>
      </trkpt>
      <trkpt lat="48.60159" lon="1.95219">
        <ele>107.81</ele>
        <time>2020-08-27T07:47:42Z</time>
      </trkpt>
      <trkpt lat="48.60159" lon="1.95219">
        <ele>107.81</ele>
        <time>2020-08-27T07:47:43Z</time>
      </trkpt>
      <trkpt lat="48.60161" lon="1.95218">
        <ele>107.81</ele>
        <time>2020-08-27T07:47:44Z</time>
      </trkpt>
      <trkpt lat="48.60163" lon="1.95217">
        <ele>108.29</ele>
        <time>2020-08-27T07:47:45Z</time>
      </trkpt>
      <trkpt lat="48.60164" lon="1.95216">
        <ele>108.29</ele>
        <time>2020-08-27T07:47:46Z</time>
      </trkpt>
      <trkpt lat="48.60165" lon="1.95215">
        <ele>107.81</ele>
        <time>2020-08-27T07:47:47Z</time>
      </trkpt>
      <trkpt lat="48.60166" lon="1.95214">
        <ele>107.81</ele>
        <time>2020-08-27T07:47:48Z</time>
      </trkpt>
      <trkpt lat="48.60168" lon="1.95213">
        <ele>107.81</ele>
        <time>2020-08-27T07:47:49Z</time>
      </trkpt>
      <trkpt lat="48.6017" lon="1.95211">
        <ele>108.29</ele>
        <time>2020-08-27T07:47:50Z</time>
      </trkpt>
      <trkpt lat="48.60171" lon="1.9521">
        <ele>108.29</ele>
        <time>2020-08-27T07:47:51Z</time>
      </trkpt>
      <trkpt lat="48.60172" lon="1.95209">
        <ele>107.81</ele>
        <time>2020-08-27T07:47:52Z</time>
      </trkpt>
      <trkpt lat="48.60173" lon="1.95208">
        <ele>108.29</ele>
        <time>2020-08-27T07:47:53Z</time>
      </trkpt>
      <trkpt lat="48.60175" lon="1.95208">
        <ele>108.29</ele>
        <time>2020-08-27T07:47:54Z</time>
      </trkpt>
      <trkpt lat="48.60177" lon="1.95208">
        <ele>108.29</ele>
        <time>2020-08-27T07:47:55Z</time>
      </trkpt>
      <trkpt lat="48.60178" lon="1.95207">
        <ele>108.29</ele>
        <time>2020-08-27T07:47:56Z</time>
      </trkpt>
      <trkpt lat="48.6018" lon="1.95207">
        <ele>108.29</ele>
        <time>2020-08-27T07:47:57Z</time>
      </trkpt>
      <trkpt lat="48.60181" lon="1.95206">
        <ele>108.29</ele>
        <time>2020-08-27T07:47:58Z</time>
      </trkpt>
      <trkpt lat="48.60183" lon="1.95206">
        <ele>108.29</ele>
        <time>2020-08-27T07:47:59Z</time>
      </trkpt>
      <trkpt lat="48.60183" lon="1.95205">
        <ele>108.29</ele>
        <time>2020-08-27T07:48:00Z</time>
      </trkpt>
      <trkpt lat="48.60184" lon="1.95204">
        <ele>108.29</ele>
        <time>2020-08-27T07:48:01Z</time>
      </trkpt>
      <trkpt lat="48.60186" lon="1.95203">
        <ele>108.29</ele>
        <time>2020-08-27T07:48:02Z</time>
      </trkpt>
      <trkpt lat="48.60187" lon="1.95202">
        <ele>108.29</ele>
        <time>2020-08-27T07:48:03Z</time>
      </trkpt>
      <trkpt lat="48.60189" lon="1.95202">
        <ele>108.29</ele>
        <time>2020-08-27T07:48:04Z</time>
      </trkpt>
      <trkpt lat="48.6019" lon="1.95201">
        <ele>108.29</ele>
        <time>2020-08-27T07:48:05Z</time>
      </trkpt>
      <trkpt lat="48.60192" lon="1.95201">
        <ele>108.29</ele>
        <time>2020-08-27T07:48:06Z</time>
      </trkpt>
      <trkpt lat="48.60193" lon="1.952">
        <ele>108.29</ele>
        <time>2020-08-27T07:48:07Z</time>
      </trkpt>
      <trkpt lat="48.60194" lon="1.95199">
        <ele>108.29</ele>
        <time>2020-08-27T07:48:08Z</time>
      </trkpt>
      <trkpt lat="48.60195" lon="1.95198">
        <ele>108.29</ele>
        <time>2020-08-27T07:48:09Z</time>
      </trkpt>
      <trkpt lat="48.60196" lon="1.95198">
        <ele>108.29</ele>
        <time>2020-08-27T07:48:10Z</time>
      </trkpt>
      <trkpt lat="48.60197" lon="1.95197">
        <ele>108.29</ele>
        <time>2020-08-27T07:48:11Z</time>
      </trkpt>
      <trkpt lat="48.60199" lon="1.95197">
        <ele>108.29</ele>
        <time>2020-08-27T07:48:12Z</time>
      </trkpt>
      <trkpt lat="48.602" lon="1.95196">
        <ele>108.29</ele>
        <time>2020-08-27T07:48:13Z</time>
      </trkpt>
      <trkpt lat="48.60201" lon="1.95196">
        <ele>108.29</ele>
        <time>2020-08-27T07:48:14Z</time>
      </trkpt>
      <trkpt lat="48.60202" lon="1.95195">
        <ele>108.29</ele>
        <time>2020-08-27T07:48:15Z</time>
      </trkpt>
      <trkpt lat="48.60204" lon="1.95195">
        <ele>108.29</ele>
        <time>2020-08-27T07:48:16Z</time>
      </trkpt>
      <trkpt lat="48.60206" lon="1.95194">
        <ele>108.29</ele>
        <time>2020-08-27T07:48:17Z</time>
      </trkpt>
      <trkpt lat="48.60207" lon="1.95193">
        <ele>108.29</ele>
        <time>2020-08-27T07:48:18Z</time>
      </trkpt>
      <trkpt lat="48.60207" lon="1.95194">
        <ele>108.29</ele>
        <time>2020-08-27T07:48:19Z</time>
      </trkpt>
      <trkpt lat="48.60208" lon="1.95193">
        <ele>108.29</ele>
        <time>2020-08-27T07:48:20Z</time>
      </trkpt>
      <trkpt lat="48.60209" lon="1.95193">
        <ele>108.29</ele>
        <time>2020-08-27T07:48:21Z</time>
      </trkpt>
      <trkpt lat="48.6021" lon="1.95192">
        <ele>108.77</ele>
        <time>2020-08-27T07:48:22Z</time>
      </trkpt>
      <trkpt lat="48.60212" lon="1.95191">
        <ele>108.29</ele>
        <time>2020-08-27T07:48:23Z</time>
      </trkpt>
      <trkpt lat="48.60213" lon="1.9519">
        <ele>108.29</ele>
        <time>2020-08-27T07:48:24Z</time>
      </trkpt>
      <trkpt lat="48.60214" lon="1.9519">
        <ele>108.77</ele>
        <time>2020-08-27T07:48:25Z</time>
      </trkpt>
      <trkpt lat="48.60216" lon="1.9519">
        <ele>108.29</ele>
        <time>2020-08-27T07:48:26Z</time>
      </trkpt>
      <trkpt lat="48.60218" lon="1.9519">
        <ele>108.77</ele>
        <time>2020-08-27T07:48:27Z</time>
      </trkpt>
      <trkpt lat="48.6022" lon="1.95189">
        <ele>108.29</ele>
        <time>2020-08-27T07:48:28Z</time>
      </trkpt>
      <trkpt lat="48.60221" lon="1.95188">
        <ele>108.29</ele>
        <time>2020-08-27T07:48:29Z</time>
      </trkpt>
      <trkpt lat="48.60223" lon="1.95188">
        <ele>108.29</ele>
        <time>2020-08-27T07:48:30Z</time>
      </trkpt>
      <trkpt lat="48.60225" lon="1.95187">
        <ele>108.29</ele>
        <time>2020-08-27T07:48:31Z</time>
      </trkpt>
      <trkpt lat="48.60226" lon="1.95186">
        <ele>108.29</ele>
        <time>2020-08-27T07:48:32Z</time>
      </trkpt>
      <trkpt lat="48.60228" lon="1.95185">
        <ele>108.29</ele>
        <time>2020-08-27T07:48:33Z</time>
      </trkpt>
      <trkpt lat="48.6023" lon="1.95184">
        <ele>108.29</ele>
        <time>2020-08-27T07:48:34Z</time>
      </trkpt>
      <trkpt lat="48.60231" lon="1.95183">
        <ele>108.29</ele>
        <time>2020-08-27T07:48:35Z</time>
      </trkpt>
      <trkpt lat="48.60233" lon="1.95183">
        <ele>107.81</ele>
        <time>2020-08-27T07:48:36Z</time>
      </trkpt>
      <trkpt lat="48.60233" lon="1.95182">
        <ele>107.81</ele>
        <time>2020-08-27T07:48:37Z</time>
      </trkpt>
      <trkpt lat="48.60235" lon="1.95182">
        <ele>107.81</ele>
        <time>2020-08-27T07:48:38Z</time>
      </trkpt>
      <trkpt lat="48.60237" lon="1.95181">
        <ele>108.29</ele>
        <time>2020-08-27T07:48:39Z</time>
      </trkpt>
      <trkpt lat="48.60238" lon="1.95181">
        <ele>107.81</ele>
        <time>2020-08-27T07:48:40Z</time>
      </trkpt>
      <trkpt lat="48.6024" lon="1.9518">
        <ele>107.81</ele>
        <time>2020-08-27T07:48:41Z</time>
      </trkpt>
      <trkpt lat="48.60242" lon="1.95179">
        <ele>107.81</ele>
        <time>2020-08-27T07:48:42Z</time>
      </trkpt>
      <trkpt lat="48.60243" lon="1.95179">
        <ele>107.81</ele>
        <time>2020-08-27T07:48:43Z</time>
      </trkpt>
      <trkpt lat="48.60245" lon="1.95178">
        <ele>107.81</ele>
        <time>2020-08-27T07:48:44Z</time>
      </trkpt>
      <trkpt lat="48.60247" lon="1.95177">
        <ele>107.81</ele>
        <time>2020-08-27T07:48:45Z</time>
      </trkpt>
      <trkpt lat="48.60249" lon="1.95175">
        <ele>107.81</ele>
        <time>2020-08-27T07:48:46Z</time>
      </trkpt>
      <trkpt lat="48.60251" lon="1.95174">
        <ele>107.81</ele>
        <time>2020-08-27T07:48:47Z</time>
      </trkpt>
      <trkpt lat="48.60253" lon="1.95174">
        <ele>107.81</ele>
        <time>2020-08-27T07:48:48Z</time>
      </trkpt>
      <trkpt lat="48.60255" lon="1.95173">
        <ele>107.81</ele>
        <time>2020-08-27T07:48:49Z</time>
      </trkpt>
      <trkpt lat="48.60256" lon="1.95172">
        <ele>107.81</ele>
        <time>2020-08-27T07:48:50Z</time>
      </trkpt>
      <trkpt lat="48.60257" lon="1.95172">
        <ele>107.81</ele>
        <time>2020-08-27T07:48:51Z</time>
      </trkpt>
      <trkpt lat="48.60259" lon="1.95171">
        <ele>107.81</ele>
        <time>2020-08-27T07:48:52Z</time>
      </trkpt>
      <trkpt lat="48.6026" lon="1.9517">
        <ele>107.81</ele>
        <time>2020-08-27T07:48:53Z</time>
      </trkpt>
      <trkpt lat="48.60261" lon="1.9517">
        <ele>107.81</ele>
        <time>2020-08-27T07:48:54Z</time>
      </trkpt>
      <trkpt lat="48.60263" lon="1.95169">
        <ele>107.81</ele>
        <time>2020-08-27T07:48:55Z</time>
      </trkpt>
      <trkpt lat="48.60265" lon="1.95169">
        <ele>107.81</ele>
        <time>2020-08-27T07:48:56Z</time>
      </trkpt>
      <trkpt lat="48.60266" lon="1.95168">
        <ele>107.81</ele>
        <time>2020-08-27T07:48:57Z</time>
      </trkpt>
      <trkpt lat="48.60267" lon="1.95168">
        <ele>107.81</ele>
        <time>2020-08-27T07:48:58Z</time>
      </trkpt>
      <trkpt lat="48.60269" lon="1.95167">
        <ele>107.81</ele>
        <time>2020-08-27T07:48:59Z</time>
      </trkpt>
      <trkpt lat="48.6027" lon="1.95166">
        <ele>107.81</ele>
        <time>2020-08-27T07:49:00Z</time>
      </trkpt>
      <trkpt lat="48.60271" lon="1.95166">
        <ele>107.81</ele>
        <time>2020-08-27T07:49:01Z</time>
      </trkpt>
      <trkpt lat="48.60273" lon="1.95165">
        <ele>107.81</ele>
        <time>2020-08-27T07:49:02Z</time>
      </trkpt>
      <trkpt lat="48.60275" lon="1.95164">
        <ele>107.32</ele>
        <time>2020-08-27T07:49:03Z</time>
      </trkpt>
      <trkpt lat="48.60276" lon="1.95163">
        <ele>107.81</ele>
        <time>2020-08-27T07:49:04Z</time>
      </trkpt>
      <trkpt lat="48.60277" lon="1.95162">
        <ele>107.32</ele>
        <time>2020-08-27T07:49:05Z</time>
      </trkpt>
      <trkpt lat="48.60279" lon="1.95161">
        <ele>107.32</ele>
        <time>2020-08-27T07:49:06Z</time>
      </trkpt>
      <trkpt lat="48.6028" lon="1.9516">
        <ele>107.32</ele>
        <time>2020-08-27T07:49:07Z</time>
      </trkpt>
      <trkpt lat="48.60281" lon="1.9516">
        <ele>107.32</ele>
        <time>2020-08-27T07:49:08Z</time>
      </trkpt>
      <trkpt lat="48.60282" lon="1.95159">
        <ele>107.32</ele>
        <time>2020-08-27T07:49:09Z</time>
      </trkpt>
      <trkpt lat="48.60284" lon="1.95158">
        <ele>107.81</ele>
        <time>2020-08-27T07:49:10Z</time>
      </trkpt>
      <trkpt lat="48.60285" lon="1.95158">
        <ele>107.81</ele>
        <time>2020-08-27T07:49:11Z</time>
      </trkpt>
      <trkpt lat="48.60286" lon="1.95157">
        <ele>107.81</ele>
        <time>2020-08-27T07:49:12Z</time>
      </trkpt>
      <trkpt lat="48.60288" lon="1.95156">
        <ele>107.32</ele>
        <time>2020-08-27T07:49:13Z</time>
      </trkpt>
      <trkpt lat="48.60288" lon="1.95155">
        <ele>107.32</ele>
        <time>2020-08-27T07:49:14Z</time>
      </trkpt>
      <trkpt lat="48.60289" lon="1.95154">
        <ele>107.32</ele>
        <time>2020-08-27T07:49:15Z</time>
      </trkpt>
      <trkpt lat="48.6029" lon="1.95153">
        <ele>107.32</ele>
        <time>2020-08-27T07:49:16Z</time>
      </trkpt>
      <trkpt lat="48.60292" lon="1.95152">
        <ele>107.81</ele>
        <time>2020-08-27T07:49:17Z</time>
      </trkpt>
      <trkpt lat="48.60293" lon="1.9515">
        <ele>107.81</ele>
        <time>2020-08-27T07:49:18Z</time>
      </trkpt>
      <trkpt lat="48.60294" lon="1.95149">
        <ele>107.32</ele>
        <time>2020-08-27T07:49:19Z</time>
      </trkpt>
      <trkpt lat="48.60296" lon="1.95148">
        <ele>107.81</ele>
        <time>2020-08-27T07:49:20Z</time>
      </trkpt>
      <trkpt lat="48.60298" lon="1.95147">
        <ele>107.32</ele>
        <time>2020-08-27T07:49:21Z</time>
      </trkpt>
      <trkpt lat="48.60299" lon="1.95146">
        <ele>107.32</ele>
        <time>2020-08-27T07:49:22Z</time>
      </trkpt>
      <trkpt lat="48.60301" lon="1.95146">
        <ele>107.32</ele>
        <time>2020-08-27T07:49:23Z</time>
      </trkpt>
      <trkpt lat="48.60302" lon="1.95145">
        <ele>107.32</ele>
        <time>2020-08-27T07:49:24Z</time>
      </trkpt>
      <trkpt lat="48.60303" lon="1.95145">
        <ele>107.32</ele>
        <time>2020-08-27T07:49:25Z</time>
      </trkpt>
      <trkpt lat="48.60304" lon="1.95143">
        <ele>107.32</ele>
        <time>2020-08-27T07:49:26Z</time>
      </trkpt>
      <trkpt lat="48.60305" lon="1.95142">
        <ele>107.32</ele>
        <time>2020-08-27T07:49:27Z</time>
      </trkpt>
      <trkpt lat="48.60307" lon="1.95142">
        <ele>107.32</ele>
        <time>2020-08-27T07:49:28Z</time>
      </trkpt>
      <trkpt lat="48.60308" lon="1.95141">
        <ele>108.29</ele>
        <time>2020-08-27T07:49:29Z</time>
      </trkpt>
      <trkpt lat="48.60309" lon="1.95141">
        <ele>107.32</ele>
        <time>2020-08-27T07:49:30Z</time>
      </trkpt>
      <trkpt lat="48.60311" lon="1.95141">
        <ele>106.84</ele>
        <time>2020-08-27T07:49:31Z</time>
      </trkpt>
      <trkpt lat="48.60312" lon="1.9514">
        <ele>106.84</ele>
        <time>2020-08-27T07:49:32Z</time>
      </trkpt>
      <trkpt lat="48.60313" lon="1.9514">
        <ele>107.32</ele>
        <time>2020-08-27T07:49:33Z</time>
      </trkpt>
      <trkpt lat="48.60315" lon="1.95139">
        <ele>106.84</ele>
        <time>2020-08-27T07:49:34Z</time>
      </trkpt>
      <trkpt lat="48.60316" lon="1.95139">
        <ele>107.32</ele>
        <time>2020-08-27T07:49:35Z</time>
      </trkpt>
      <trkpt lat="48.60317" lon="1.95139">
        <ele>107.32</ele>
        <time>2020-08-27T07:49:36Z</time>
      </trkpt>
      <trkpt lat="48.60317" lon="1.95139">
        <ele>106.84</ele>
        <time>2020-08-27T07:49:37Z</time>
      </trkpt>
      <trkpt lat="48.60318" lon="1.95138">
        <ele>107.32</ele>
        <time>2020-08-27T07:49:38Z</time>
      </trkpt>
      <trkpt lat="48.60319" lon="1.95137">
        <ele>107.32</ele>
        <time>2020-08-27T07:49:39Z</time>
      </trkpt>
      <trkpt lat="48.6032" lon="1.95137">
        <ele>107.32</ele>
        <time>2020-08-27T07:49:40Z</time>
      </trkpt>
      <trkpt lat="48.60321" lon="1.95136">
        <ele>107.32</ele>
        <time>2020-08-27T07:49:41Z</time>
      </trkpt>
      <trkpt lat="48.60322" lon="1.95135">
        <ele>107.32</ele>
        <time>2020-08-27T07:49:42Z</time>
      </trkpt>
      <trkpt lat="48.60323" lon="1.95135">
        <ele>107.32</ele>
        <time>2020-08-27T07:49:43Z</time>
      </trkpt>
      <trkpt lat="48.60324" lon="1.95135">
        <ele>107.32</ele>
        <time>2020-08-27T07:49:44Z</time>
      </trkpt>
      <trkpt lat="48.60325" lon="1.95134">
        <ele>107.32</ele>
        <time>2020-08-27T07:49:45Z</time>
      </trkpt>
      <trkpt lat="48.60327" lon="1.95134">
        <ele>107.32</ele>
        <time>2020-08-27T07:49:46Z</time>
      </trkpt>
      <trkpt lat="48.60328" lon="1.95133">
        <ele>107.32</ele>
        <time>2020-08-27T07:49:47Z</time>
      </trkpt>
      <trkpt lat="48.60329" lon="1.95133">
        <ele>107.32</ele>
        <time>2020-08-27T07:49:48Z</time>
      </trkpt>
      <trkpt lat="48.6033" lon="1.95132">
        <ele>107.32</ele>
        <time>2020-08-27T07:49:49Z</time>
      </trkpt>
      <trkpt lat="48.60332" lon="1.95131">
        <ele>107.32</ele>
        <time>2020-08-27T07:49:50Z</time>
      </trkpt>
      <trkpt lat="48.60334" lon="1.9513">
        <ele>107.32</ele>
        <time>2020-08-27T07:49:51Z</time>
      </trkpt>
      <trkpt lat="48.60336" lon="1.95129">
        <ele>107.32</ele>
        <time>2020-08-27T07:49:52Z</time>
      </trkpt>
      <trkpt lat="48.60338" lon="1.95127">
        <ele>106.84</ele>
        <time>2020-08-27T07:49:53Z</time>
      </trkpt>
      <trkpt lat="48.6034" lon="1.95127">
        <ele>107.32</ele>
        <time>2020-08-27T07:49:54Z</time>
      </trkpt>
      <trkpt lat="48.60341" lon="1.95126">
        <ele>106.84</ele>
        <time>2020-08-27T07:49:55Z</time>
      </trkpt>
      <trkpt lat="48.60342" lon="1.95126">
        <ele>106.84</ele>
        <time>2020-08-27T07:49:56Z</time>
      </trkpt>
      <trkpt lat="48.60343" lon="1.95125">
        <ele>106.84</ele>
        <time>2020-08-27T07:49:57Z</time>
      </trkpt>
      <trkpt lat="48.60344" lon="1.95124">
        <ele>106.84</ele>
        <time>2020-08-27T07:49:58Z</time>
      </trkpt>
      <trkpt lat="48.60344" lon="1.95123">
        <ele>106.84</ele>
        <time>2020-08-27T07:49:59Z</time>
      </trkpt>
      <trkpt lat="48.60345" lon="1.95123">
        <ele>106.84</ele>
        <time>2020-08-27T07:50:00Z</time>
      </trkpt>
      <trkpt lat="48.60347" lon="1.95122">
        <ele>106.84</ele>
        <time>2020-08-27T07:50:01Z</time>
      </trkpt>
      <trkpt lat="48.60348" lon="1.95121">
        <ele>107.32</ele>
        <time>2020-08-27T07:50:02Z</time>
      </trkpt>
      <trkpt lat="48.60349" lon="1.9512">
        <ele>106.84</ele>
        <time>2020-08-27T07:50:03Z</time>
      </trkpt>
      <trkpt lat="48.60351" lon="1.95119">
        <ele>107.32</ele>
        <time>2020-08-27T07:50:04Z</time>
      </trkpt>
      <trkpt lat="48.60353" lon="1.95118">
        <ele>107.32</ele>
        <time>2020-08-27T07:50:05Z</time>
      </trkpt>
      <trkpt lat="48.60355" lon="1.95118">
        <ele>107.32</ele>
        <time>2020-08-27T07:50:06Z</time>
      </trkpt>
      <trkpt lat="48.60357" lon="1.95117">
        <ele>107.32</ele>
        <time>2020-08-27T07:50:07Z</time>
      </trkpt>
      <trkpt lat="48.60359" lon="1.95116">
        <ele>107.32</ele>
        <time>2020-08-27T07:50:08Z</time>
      </trkpt>
      <trkpt lat="48.60361" lon="1.95115">
        <ele>107.81</ele>
        <time>2020-08-27T07:50:09Z</time>
      </trkpt>
      <trkpt lat="48.60362" lon="1.95115">
        <ele>107.81</ele>
        <time>2020-08-27T07:50:10Z</time>
      </trkpt>
      <trkpt lat="48.60363" lon="1.95114">
        <ele>107.81</ele>
        <time>2020-08-27T07:50:11Z</time>
      </trkpt>
      <trkpt lat="48.60364" lon="1.95113">
        <ele>107.81</ele>
        <time>2020-08-27T07:50:12Z</time>
      </trkpt>
      <trkpt lat="48.60365" lon="1.95113">
        <ele>107.81</ele>
        <time>2020-08-27T07:50:13Z</time>
      </trkpt>
      <trkpt lat="48.60365" lon="1.95113">
        <ele>107.81</ele>
        <time>2020-08-27T07:50:14Z</time>
      </trkpt>
      <trkpt lat="48.60366" lon="1.95113">
        <ele>107.32</ele>
        <time>2020-08-27T07:50:15Z</time>
      </trkpt>
      <trkpt lat="48.60366" lon="1.95113">
        <ele>107.81</ele>
        <time>2020-08-27T07:50:16Z</time>
      </trkpt>
      <trkpt lat="48.60367" lon="1.95112">
        <ele>107.81</ele>
        <time>2020-08-27T07:50:17Z</time>
      </trkpt>
      <trkpt lat="48.60368" lon="1.9511">
        <ele>107.81</ele>
        <time>2020-08-27T07:50:18Z</time>
      </trkpt>
      <trkpt lat="48.60369" lon="1.95109">
        <ele>107.81</ele>
        <time>2020-08-27T07:50:19Z</time>
      </trkpt>
      <trkpt lat="48.60371" lon="1.95108">
        <ele>107.81</ele>
        <time>2020-08-27T07:50:20Z</time>
      </trkpt>
      <trkpt lat="48.60372" lon="1.95107">
        <ele>107.32</ele>
        <time>2020-08-27T07:50:21Z</time>
      </trkpt>
      <trkpt lat="48.60374" lon="1.95105">
        <ele>107.32</ele>
        <time>2020-08-27T07:50:22Z</time>
      </trkpt>
      <trkpt lat="48.60375" lon="1.95104">
        <ele>107.81</ele>
        <time>2020-08-27T07:50:23Z</time>
      </trkpt>
      <trkpt lat="48.60377" lon="1.95103">
        <ele>107.81</ele>
        <time>2020-08-27T07:50:24Z</time>
      </trkpt>
      <trkpt lat="48.60379" lon="1.95103">
        <ele>107.32</ele>
        <time>2020-08-27T07:50:25Z</time>
      </trkpt>
      <trkpt lat="48.60382" lon="1.95102">
        <ele>107.81</ele>
        <time>2020-08-27T07:50:26Z</time>
      </trkpt>
      <trkpt lat="48.60385" lon="1.95102">
        <ele>107.32</ele>
        <time>2020-08-27T07:50:27Z</time>
      </trkpt>
      <trkpt lat="48.60387" lon="1.95101">
        <ele>107.81</ele>
        <time>2020-08-27T07:50:28Z</time>
      </trkpt>
      <trkpt lat="48.60389" lon="1.951">
        <ele>107.81</ele>
        <time>2020-08-27T07:50:29Z</time>
      </trkpt>
      <trkpt lat="48.60391" lon="1.95099">
        <ele>107.81</ele>
        <time>2020-08-27T07:50:30Z</time>
      </trkpt>
      <trkpt lat="48.60393" lon="1.95099">
        <ele>107.81</ele>
        <time>2020-08-27T07:50:31Z</time>
      </trkpt>
      <trkpt lat="48.60394" lon="1.95098">
        <ele>107.32</ele>
        <time>2020-08-27T07:50:32Z</time>
      </trkpt>
      <trkpt lat="48.60395" lon="1.95098">
        <ele>107.32</ele>
        <time>2020-08-27T07:50:33Z</time>
      </trkpt>
      <trkpt lat="48.60396" lon="1.95098">
        <ele>107.81</ele>
        <time>2020-08-27T07:50:34Z</time>
      </trkpt>
      <trkpt lat="48.60398" lon="1.95097">
        <ele>107.32</ele>
        <time>2020-08-27T07:50:35Z</time>
      </trkpt>
      <trkpt lat="48.60399" lon="1.95097">
        <ele>107.32</ele>
        <time>2020-08-27T07:50:36Z</time>
      </trkpt>
      <trkpt lat="48.60401" lon="1.95096">
        <ele>107.81</ele>
        <time>2020-08-27T07:50:37Z</time>
      </trkpt>
      <trkpt lat="48.60402" lon="1.95096">
        <ele>107.32</ele>
        <time>2020-08-27T07:50:38Z</time>
      </trkpt>
      <trkpt lat="48.60403" lon="1.95095">
        <ele>107.32</ele>
        <time>2020-08-27T07:50:39Z</time>
      </trkpt>
      <trkpt lat="48.60404" lon="1.95095">
        <ele>107.32</ele>
        <time>2020-08-27T07:50:40Z</time>
      </trkpt>
      <trkpt lat="48.60406" lon="1.95094">
        <ele>107.32</ele>
        <time>2020-08-27T07:50:41Z</time>
      </trkpt>
      <trkpt lat="48.60407" lon="1.95093">
        <ele>107.32</ele>
        <time>2020-08-27T07:50:42Z</time>
      </trkpt>
      <trkpt lat="48.60408" lon="1.95093">
        <ele>107.32</ele>
        <time>2020-08-27T07:50:43Z</time>
      </trkpt>
      <trkpt lat="48.60409" lon="1.95092">
        <ele>107.32</ele>
        <time>2020-08-27T07:50:44Z</time>
      </trkpt>
      <trkpt lat="48.6041" lon="1.95091">
        <ele>107.32</ele>
        <time>2020-08-27T07:50:45Z</time>
      </trkpt>
      <trkpt lat="48.60412" lon="1.95091">
        <ele>107.32</ele>
        <time>2020-08-27T07:50:46Z</time>
      </trkpt>
      <trkpt lat="48.60413" lon="1.95091">
        <ele>107.32</ele>
        <time>2020-08-27T07:50:47Z</time>
      </trkpt>
      <trkpt lat="48.60415" lon="1.9509">
        <ele>107.32</ele>
        <time>2020-08-27T07:50:48Z</time>
      </trkpt>
      <trkpt lat="48.60416" lon="1.9509">
        <ele>107.32</ele>
        <time>2020-08-27T07:50:49Z</time>
      </trkpt>
      <trkpt lat="48.60417" lon="1.95089">
        <ele>107.32</ele>
        <time>2020-08-27T07:50:50Z</time>
      </trkpt>
      <trkpt lat="48.60419" lon="1.95088">
        <ele>107.32</ele>
        <time>2020-08-27T07:50:51Z</time>
      </trkpt>
      <trkpt lat="48.6042" lon="1.95087">
        <ele>107.32</ele>
        <time>2020-08-27T07:50:52Z</time>
      </trkpt>
      <trkpt lat="48.60421" lon="1.95086">
        <ele>107.32</ele>
        <time>2020-08-27T07:50:53Z</time>
      </trkpt>
      <trkpt lat="48.60422" lon="1.95086">
        <ele>107.32</ele>
        <time>2020-08-27T07:50:54Z</time>
      </trkpt>
      <trkpt lat="48.60423" lon="1.95086">
        <ele>106.84</ele>
        <time>2020-08-27T07:50:55Z</time>
      </trkpt>
      <trkpt lat="48.60425" lon="1.95085">
        <ele>106.84</ele>
        <time>2020-08-27T07:50:56Z</time>
      </trkpt>
      <trkpt lat="48.60427" lon="1.95084">
        <ele>106.84</ele>
        <time>2020-08-27T07:50:57Z</time>
      </trkpt>
      <trkpt lat="48.60428" lon="1.95083">
        <ele>106.84</ele>
        <time>2020-08-27T07:50:58Z</time>
      </trkpt>
      <trkpt lat="48.6043" lon="1.95083">
        <ele>106.84</ele>
        <time>2020-08-27T07:50:59Z</time>
      </trkpt>
      <trkpt lat="48.60431" lon="1.95082">
        <ele>106.84</ele>
        <time>2020-08-27T07:51:00Z</time>
      </trkpt>
      <trkpt lat="48.60432" lon="1.9508">
        <ele>106.84</ele>
        <time>2020-08-27T07:51:01Z</time>
      </trkpt>
      <trkpt lat="48.60432" lon="1.9508">
        <ele>106.84</ele>
        <time>2020-08-27T07:51:02Z</time>
      </trkpt>
      <trkpt lat="48.60433" lon="1.9508">
        <ele>106.84</ele>
        <time>2020-08-27T07:51:03Z</time>
      </trkpt>
      <trkpt lat="48.60434" lon="1.95079">
        <ele>106.36</ele>
        <time>2020-08-27T07:51:04Z</time>
      </trkpt>
      <trkpt lat="48.60434" lon="1.95079">
        <ele>106.84</ele>
        <time>2020-08-27T07:51:05Z</time>
      </trkpt>
      <trkpt lat="48.60435" lon="1.95079">
        <ele>106.84</ele>
        <time>2020-08-27T07:51:06Z</time>
      </trkpt>
      <trkpt lat="48.60435" lon="1.95078">
        <ele>106.84</ele>
        <time>2020-08-27T07:51:07Z</time>
      </trkpt>
      <trkpt lat="48.60436" lon="1.95077">
        <ele>106.84</ele>
        <time>2020-08-27T07:51:08Z</time>
      </trkpt>
      <trkpt lat="48.60437" lon="1.95076">
        <ele>106.84</ele>
        <time>2020-08-27T07:51:09Z</time>
      </trkpt>
      <trkpt lat="48.60438" lon="1.95075">
        <ele>106.84</ele>
        <time>2020-08-27T07:51:10Z</time>
      </trkpt>
      <trkpt lat="48.60439" lon="1.95074">
        <ele>106.84</ele>
        <time>2020-08-27T07:51:11Z</time>
      </trkpt>
      <trkpt lat="48.6044" lon="1.95074">
        <ele>106.36</ele>
        <time>2020-08-27T07:51:12Z</time>
      </trkpt>
      <trkpt lat="48.60442" lon="1.95073">
        <ele>106.36</ele>
        <time>2020-08-27T07:51:13Z</time>
      </trkpt>
      <trkpt lat="48.60444" lon="1.95073">
        <ele>106.36</ele>
        <time>2020-08-27T07:51:14Z</time>
      </trkpt>
      <trkpt lat="48.60445" lon="1.95072">
        <ele>106.84</ele>
        <time>2020-08-27T07:51:15Z</time>
      </trkpt>
      <trkpt lat="48.60445" lon="1.95072">
        <ele>106.84</ele>
        <time>2020-08-27T07:51:16Z</time>
      </trkpt>
      <trkpt lat="48.60447" lon="1.95071">
        <ele>106.84</ele>
        <time>2020-08-27T07:51:17Z</time>
      </trkpt>
      <trkpt lat="48.60448" lon="1.9507">
        <ele>106.84</ele>
        <time>2020-08-27T07:51:18Z</time>
      </trkpt>
      <trkpt lat="48.60449" lon="1.9507">
        <ele>106.84</ele>
        <time>2020-08-27T07:51:19Z</time>
      </trkpt>
      <trkpt lat="48.6045" lon="1.95069">
        <ele>106.84</ele>
        <time>2020-08-27T07:51:20Z</time>
      </trkpt>
      <trkpt lat="48.60452" lon="1.95069">
        <ele>106.84</ele>
        <time>2020-08-27T07:51:21Z</time>
      </trkpt>
      <trkpt lat="48.60453" lon="1.95068">
        <ele>106.36</ele>
        <time>2020-08-27T07:51:22Z</time>
      </trkpt>
      <trkpt lat="48.60454" lon="1.95067">
        <ele>106.36</ele>
        <time>2020-08-27T07:51:23Z</time>
      </trkpt>
      <trkpt lat="48.60455" lon="1.95066">
        <ele>106.84</ele>
        <time>2020-08-27T07:51:24Z</time>
      </trkpt>
      <trkpt lat="48.60456" lon="1.95065">
        <ele>106.84</ele>
        <time>2020-08-27T07:51:25Z</time>
      </trkpt>
      <trkpt lat="48.60457" lon="1.95064">
        <ele>106.84</ele>
        <time>2020-08-27T07:51:26Z</time>
      </trkpt>
      <trkpt lat="48.60459" lon="1.95063">
        <ele>106.84</ele>
        <time>2020-08-27T07:51:27Z</time>
      </trkpt>
      <trkpt lat="48.6046" lon="1.95061">
        <ele>106.84</ele>
        <time>2020-08-27T07:51:28Z</time>
      </trkpt>
      <trkpt lat="48.60462" lon="1.9506">
        <ele>107.32</ele>
        <time>2020-08-27T07:51:29Z</time>
      </trkpt>
      <trkpt lat="48.60464" lon="1.95059">
        <ele>106.84</ele>
        <time>2020-08-27T07:51:30Z</time>
      </trkpt>
      <trkpt lat="48.60466" lon="1.95058">
        <ele>106.84</ele>
        <time>2020-08-27T07:51:31Z</time>
      </trkpt>
      <trkpt lat="48.60468" lon="1.95057">
        <ele>106.84</ele>
        <time>2020-08-27T07:51:32Z</time>
      </trkpt>
      <trkpt lat="48.6047" lon="1.95056">
        <ele>106.84</ele>
        <time>2020-08-27T07:51:33Z</time>
      </trkpt>
      <trkpt lat="48.60473" lon="1.95056">
        <ele>106.84</ele>
        <time>2020-08-27T07:51:34Z</time>
      </trkpt>
      <trkpt lat="48.60476" lon="1.95055">
        <ele>106.84</ele>
        <time>2020-08-27T07:51:35Z</time>
      </trkpt>
      <trkpt lat="48.60478" lon="1.95054">
        <ele>106.36</ele>
        <time>2020-08-27T07:51:36Z</time>
      </trkpt>
      <trkpt lat="48.6048" lon="1.95053">
        <ele>106.84</ele>
        <time>2020-08-27T07:51:37Z</time>
      </trkpt>
      <trkpt lat="48.60483" lon="1.95052">
        <ele>106.84</ele>
        <time>2020-08-27T07:51:38Z</time>
      </trkpt>
      <trkpt lat="48.60485" lon="1.95053">
        <ele>106.84</ele>
        <time>2020-08-27T07:51:39Z</time>
      </trkpt>
      <trkpt lat="48.60487" lon="1.95053">
        <ele>106.84</ele>
        <time>2020-08-27T07:51:40Z</time>
      </trkpt>
      <trkpt lat="48.60489" lon="1.95052">
        <ele>106.84</ele>
        <time>2020-08-27T07:51:41Z</time>
      </trkpt>
      <trkpt lat="48.6049" lon="1.95051">
        <ele>106.84</ele>
        <time>2020-08-27T07:51:42Z</time>
      </trkpt>
      <trkpt lat="48.60492" lon="1.95051">
        <ele>106.84</ele>
        <time>2020-08-27T07:51:43Z</time>
      </trkpt>
      <trkpt lat="48.60493" lon="1.95051">
        <ele>106.84</ele>
        <time>2020-08-27T07:51:44Z</time>
      </trkpt>
      <trkpt lat="48.60494" lon="1.9505">
        <ele>106.84</ele>
        <time>2020-08-27T07:51:45Z</time>
      </trkpt>
      <trkpt lat="48.60495" lon="1.9505">
        <ele>106.84</ele>
        <time>2020-08-27T07:51:46Z</time>
      </trkpt>
      <trkpt lat="48.60496" lon="1.95049">
        <ele>106.84</ele>
        <time>2020-08-27T07:51:47Z</time>
      </trkpt>
      <trkpt lat="48.60497" lon="1.95049">
        <ele>106.84</ele>
        <time>2020-08-27T07:51:48Z</time>
      </trkpt>
      <trkpt lat="48.60499" lon="1.95048">
        <ele>106.84</ele>
        <time>2020-08-27T07:51:49Z</time>
      </trkpt>
      <trkpt lat="48.605" lon="1.95048">
        <ele>106.84</ele>
        <time>2020-08-27T07:51:50Z</time>
      </trkpt>
      <trkpt lat="48.60501" lon="1.95047">
        <ele>106.84</ele>
        <time>2020-08-27T07:51:51Z</time>
      </trkpt>
      <trkpt lat="48.60503" lon="1.95046">
        <ele>106.84</ele>
        <time>2020-08-27T07:51:52Z</time>
      </trkpt>
      <trkpt lat="48.60504" lon="1.95045">
        <ele>106.84</ele>
        <time>2020-08-27T07:51:53Z</time>
      </trkpt>
      <trkpt lat="48.60506" lon="1.95045">
        <ele>106.84</ele>
        <time>2020-08-27T07:51:54Z</time>
      </trkpt>
      <trkpt lat="48.60507" lon="1.95044">
        <ele>106.84</ele>
        <time>2020-08-27T07:51:55Z</time>
      </trkpt>
      <trkpt lat="48.60508" lon="1.95043">
        <ele>106.84</ele>
        <time>2020-08-27T07:51:56Z</time>
      </trkpt>
      <trkpt lat="48.60509" lon="1.95043">
        <ele>106.84</ele>
        <time>2020-08-27T07:51:57Z</time>
      </trkpt>
      <trkpt lat="48.60511" lon="1.95042">
        <ele>106.84</ele>
        <time>2020-08-27T07:51:58Z</time>
      </trkpt>
      <trkpt lat="48.60512" lon="1.95041">
        <ele>106.84</ele>
        <time>2020-08-27T07:51:59Z</time>
      </trkpt>
      <trkpt lat="48.60514" lon="1.9504">
        <ele>106.84</ele>
        <time>2020-08-27T07:52:00Z</time>
      </trkpt>
      <trkpt lat="48.60515" lon="1.95039">
        <ele>106.36</ele>
        <time>2020-08-27T07:52:01Z</time>
      </trkpt>
      <trkpt lat="48.60518" lon="1.95038">
        <ele>106.84</ele>
        <time>2020-08-27T07:52:02Z</time>
      </trkpt>
      <trkpt lat="48.6052" lon="1.95036">
        <ele>106.84</ele>
        <time>2020-08-27T07:52:03Z</time>
      </trkpt>
      <trkpt lat="48.60522" lon="1.95035">
        <ele>106.84</ele>
        <time>2020-08-27T07:52:04Z</time>
      </trkpt>
      <trkpt lat="48.60524" lon="1.95034">
        <ele>106.84</ele>
        <time>2020-08-27T07:52:05Z</time>
      </trkpt>
      <trkpt lat="48.60526" lon="1.95033">
        <ele>106.36</ele>
        <time>2020-08-27T07:52:06Z</time>
      </trkpt>
      <trkpt lat="48.60527" lon="1.95032">
        <ele>106.36</ele>
        <time>2020-08-27T07:52:07Z</time>
      </trkpt>
      <trkpt lat="48.60529" lon="1.95032">
        <ele>106.84</ele>
        <time>2020-08-27T07:52:08Z</time>
      </trkpt>
      <trkpt lat="48.60529" lon="1.95031">
        <ele>106.84</ele>
        <time>2020-08-27T07:52:09Z</time>
      </trkpt>
      <trkpt lat="48.6053" lon="1.9503">
        <ele>106.36</ele>
        <time>2020-08-27T07:52:10Z</time>
      </trkpt>
      <trkpt lat="48.60531" lon="1.95029">
        <ele>106.36</ele>
        <time>2020-08-27T07:52:11Z</time>
      </trkpt>
      <trkpt lat="48.60532" lon="1.95029">
        <ele>106.36</ele>
        <time>2020-08-27T07:52:12Z</time>
      </trkpt>
      <trkpt lat="48.60533" lon="1.95029">
        <ele>106.36</ele>
        <time>2020-08-27T07:52:13Z</time>
      </trkpt>
      <trkpt lat="48.60534" lon="1.95028">
        <ele>106.36</ele>
        <time>2020-08-27T07:52:14Z</time>
      </trkpt>
      <trkpt lat="48.60535" lon="1.95028">
        <ele>106.36</ele>
        <time>2020-08-27T07:52:15Z</time>
      </trkpt>
      <trkpt lat="48.60537" lon="1.95027">
        <ele>106.36</ele>
        <time>2020-08-27T07:52:16Z</time>
      </trkpt>
      <trkpt lat="48.60538" lon="1.95027">
        <ele>106.36</ele>
        <time>2020-08-27T07:52:17Z</time>
      </trkpt>
      <trkpt lat="48.6054" lon="1.95026">
        <ele>106.36</ele>
        <time>2020-08-27T07:52:18Z</time>
      </trkpt>
      <trkpt lat="48.60542" lon="1.95024">
        <ele>106.36</ele>
        <time>2020-08-27T07:52:19Z</time>
      </trkpt>
      <trkpt lat="48.60543" lon="1.95023">
        <ele>106.36</ele>
        <time>2020-08-27T07:52:20Z</time>
      </trkpt>
      <trkpt lat="48.60545" lon="1.95022">
        <ele>106.36</ele>
        <time>2020-08-27T07:52:21Z</time>
      </trkpt>
      <trkpt lat="48.60546" lon="1.95021">
        <ele>106.36</ele>
        <time>2020-08-27T07:52:22Z</time>
      </trkpt>
      <trkpt lat="48.60548" lon="1.9502">
        <ele>105.88</ele>
        <time>2020-08-27T07:52:23Z</time>
      </trkpt>
      <trkpt lat="48.60549" lon="1.95019">
        <ele>106.36</ele>
        <time>2020-08-27T07:52:24Z</time>
      </trkpt>
      <trkpt lat="48.6055" lon="1.95018">
        <ele>105.88</ele>
        <time>2020-08-27T07:52:25Z</time>
      </trkpt>
      <trkpt lat="48.60551" lon="1.95018">
        <ele>105.88</ele>
        <time>2020-08-27T07:52:26Z</time>
      </trkpt>
      <trkpt lat="48.60552" lon="1.95017">
        <ele>105.88</ele>
        <time>2020-08-27T07:52:27Z</time>
      </trkpt>
      <trkpt lat="48.60553" lon="1.95016">
        <ele>105.88</ele>
        <time>2020-08-27T07:52:28Z</time>
      </trkpt>
      <trkpt lat="48.60554" lon="1.95016">
        <ele>105.88</ele>
        <time>2020-08-27T07:52:29Z</time>
      </trkpt>
      <trkpt lat="48.60555" lon="1.95015">
        <ele>105.88</ele>
        <time>2020-08-27T07:52:30Z</time>
      </trkpt>
      <trkpt lat="48.60556" lon="1.95015">
        <ele>105.88</ele>
        <time>2020-08-27T07:52:31Z</time>
      </trkpt>
      <trkpt lat="48.60556" lon="1.95015">
        <ele>105.88</ele>
        <time>2020-08-27T07:52:32Z</time>
      </trkpt>
      <trkpt lat="48.60557" lon="1.95014">
        <ele>105.88</ele>
        <time>2020-08-27T07:52:33Z</time>
      </trkpt>
      <trkpt lat="48.60557" lon="1.95013">
        <ele>105.88</ele>
        <time>2020-08-27T07:52:34Z</time>
      </trkpt>
      <trkpt lat="48.60558" lon="1.95012">
        <ele>105.4</ele>
        <time>2020-08-27T07:52:35Z</time>
      </trkpt>
      <trkpt lat="48.60559" lon="1.95012">
        <ele>105.4</ele>
        <time>2020-08-27T07:52:36Z</time>
      </trkpt>
      <trkpt lat="48.60561" lon="1.95011">
        <ele>105.4</ele>
        <time>2020-08-27T07:52:37Z</time>
      </trkpt>
      <trkpt lat="48.60561" lon="1.9501">
        <ele>105.88</ele>
        <time>2020-08-27T07:52:38Z</time>
      </trkpt>
      <trkpt lat="48.60562" lon="1.9501">
        <ele>105.4</ele>
        <time>2020-08-27T07:52:39Z</time>
      </trkpt>
      <trkpt lat="48.60563" lon="1.95009">
        <ele>105.4</ele>
        <time>2020-08-27T07:52:40Z</time>
      </trkpt>
      <trkpt lat="48.60565" lon="1.95009">
        <ele>105.4</ele>
        <time>2020-08-27T07:52:41Z</time>
      </trkpt>
      <trkpt lat="48.60567" lon="1.95007">
        <ele>105.4</ele>
        <time>2020-08-27T07:52:42Z</time>
      </trkpt>
      <trkpt lat="48.60569" lon="1.95006">
        <ele>105.88</ele>
        <time>2020-08-27T07:52:43Z</time>
      </trkpt>
      <trkpt lat="48.60571" lon="1.95005">
        <ele>105.4</ele>
        <time>2020-08-27T07:52:44Z</time>
      </trkpt>
      <trkpt lat="48.60572" lon="1.95005">
        <ele>105.4</ele>
        <time>2020-08-27T07:52:45Z</time>
      </trkpt>
      <trkpt lat="48.60573" lon="1.95005">
        <ele>105.4</ele>
        <time>2020-08-27T07:52:46Z</time>
      </trkpt>
      <trkpt lat="48.60574" lon="1.95004">
        <ele>105.88</ele>
        <time>2020-08-27T07:52:47Z</time>
      </trkpt>
      <trkpt lat="48.60574" lon="1.95004">
        <ele>105.4</ele>
        <time>2020-08-27T07:52:48Z</time>
      </trkpt>
      <trkpt lat="48.60575" lon="1.95003">
        <ele>105.4</ele>
        <time>2020-08-27T07:52:49Z</time>
      </trkpt>
      <trkpt lat="48.60576" lon="1.95002">
        <ele>105.4</ele>
        <time>2020-08-27T07:52:50Z</time>
      </trkpt>
      <trkpt lat="48.60577" lon="1.95001">
        <ele>105.4</ele>
        <time>2020-08-27T07:52:51Z</time>
      </trkpt>
      <trkpt lat="48.60578" lon="1.94999">
        <ele>105.4</ele>
        <time>2020-08-27T07:52:52Z</time>
      </trkpt>
      <trkpt lat="48.60584" lon="1.94995">
        <ele>105.4</ele>
        <time>2020-08-27T07:52:53Z</time>
      </trkpt>
      <trkpt lat="48.60587" lon="1.94994">
        <ele>105.4</ele>
        <time>2020-08-27T07:52:54Z</time>
      </trkpt>
      <trkpt lat="48.60589" lon="1.94994">
        <ele>105.88</ele>
        <time>2020-08-27T07:52:55Z</time>
      </trkpt>
      <trkpt lat="48.60591" lon="1.94994">
        <ele>105.4</ele>
        <time>2020-08-27T07:52:56Z</time>
      </trkpt>
      <trkpt lat="48.60592" lon="1.94995">
        <ele>105.4</ele>
        <time>2020-08-27T07:52:57Z</time>
      </trkpt>
      <trkpt lat="48.60593" lon="1.94995">
        <ele>105.4</ele>
        <time>2020-08-27T07:52:58Z</time>
      </trkpt>
      <trkpt lat="48.60595" lon="1.94995">
        <ele>105.4</ele>
        <time>2020-08-27T07:52:59Z</time>
      </trkpt>
      <trkpt lat="48.60596" lon="1.94995">
        <ele>105.4</ele>
        <time>2020-08-27T07:53:00Z</time>
      </trkpt>
      <trkpt lat="48.60597" lon="1.94994">
        <ele>105.4</ele>
        <time>2020-08-27T07:53:01Z</time>
      </trkpt>
      <trkpt lat="48.60599" lon="1.94994">
        <ele>105.4</ele>
        <time>2020-08-27T07:53:02Z</time>
      </trkpt>
      <trkpt lat="48.606" lon="1.94993">
        <ele>104.92</ele>
        <time>2020-08-27T07:53:03Z</time>
      </trkpt>
      <trkpt lat="48.60601" lon="1.94993">
        <ele>105.4</ele>
        <time>2020-08-27T07:53:04Z</time>
      </trkpt>
      <trkpt lat="48.60602" lon="1.94992">
        <ele>105.4</ele>
        <time>2020-08-27T07:53:05Z</time>
      </trkpt>
      <trkpt lat="48.60603" lon="1.94991">
        <ele>105.4</ele>
        <time>2020-08-27T07:53:06Z</time>
      </trkpt>
      <trkpt lat="48.60604" lon="1.94991">
        <ele>105.4</ele>
        <time>2020-08-27T07:53:07Z</time>
      </trkpt>
      <trkpt lat="48.60605" lon="1.9499">
        <ele>105.4</ele>
        <time>2020-08-27T07:53:08Z</time>
      </trkpt>
      <trkpt lat="48.60606" lon="1.94989">
        <ele>105.4</ele>
        <time>2020-08-27T07:53:09Z</time>
      </trkpt>
      <trkpt lat="48.60607" lon="1.94988">
        <ele>105.4</ele>
        <time>2020-08-27T07:53:10Z</time>
      </trkpt>
      <trkpt lat="48.60608" lon="1.94987">
        <ele>105.4</ele>
        <time>2020-08-27T07:53:11Z</time>
      </trkpt>
      <trkpt lat="48.6061" lon="1.94986">
        <ele>105.4</ele>
        <time>2020-08-27T07:53:12Z</time>
      </trkpt>
      <trkpt lat="48.60611" lon="1.94985">
        <ele>105.4</ele>
        <time>2020-08-27T07:53:13Z</time>
      </trkpt>
      <trkpt lat="48.60612" lon="1.94984">
        <ele>105.4</ele>
        <time>2020-08-27T07:53:14Z</time>
      </trkpt>
      <trkpt lat="48.60613" lon="1.94984">
        <ele>105.4</ele>
        <time>2020-08-27T07:53:15Z</time>
      </trkpt>
      <trkpt lat="48.60614" lon="1.94984">
        <ele>105.4</ele>
        <time>2020-08-27T07:53:16Z</time>
      </trkpt>
      <trkpt lat="48.60615" lon="1.94983">
        <ele>105.4</ele>
        <time>2020-08-27T07:53:17Z</time>
      </trkpt>
      <trkpt lat="48.60616" lon="1.94983">
        <ele>105.4</ele>
        <time>2020-08-27T07:53:21Z</time>
      </trkpt>
      <trkpt lat="48.60617" lon="1.94982">
        <ele>105.4</ele>
        <time>2020-08-27T07:53:22Z</time>
      </trkpt>
      <trkpt lat="48.60618" lon="1.94981">
        <ele>105.4</ele>
        <time>2020-08-27T07:53:23Z</time>
      </trkpt>
      <trkpt lat="48.60619" lon="1.94981">
        <ele>104.92</ele>
        <time>2020-08-27T07:53:24Z</time>
      </trkpt>
      <trkpt lat="48.6062" lon="1.9498">
        <ele>105.4</ele>
        <time>2020-08-27T07:53:25Z</time>
      </trkpt>
      <trkpt lat="48.60621" lon="1.94979">
        <ele>105.4</ele>
        <time>2020-08-27T07:53:26Z</time>
      </trkpt>
      <trkpt lat="48.60623" lon="1.94979">
        <ele>104.92</ele>
        <time>2020-08-27T07:53:27Z</time>
      </trkpt>
      <trkpt lat="48.60623" lon="1.94979">
        <ele>105.4</ele>
        <time>2020-08-27T07:53:28Z</time>
      </trkpt>
      <trkpt lat="48.60624" lon="1.94978">
        <ele>105.4</ele>
        <time>2020-08-27T07:53:29Z</time>
      </trkpt>
      <trkpt lat="48.60625" lon="1.94977">
        <ele>105.88</ele>
        <time>2020-08-27T07:53:30Z</time>
      </trkpt>
      <trkpt lat="48.60627" lon="1.94977">
        <ele>104.92</ele>
        <time>2020-08-27T07:53:31Z</time>
      </trkpt>
      <trkpt lat="48.60628" lon="1.94976">
        <ele>105.4</ele>
        <time>2020-08-27T07:53:32Z</time>
      </trkpt>
      <trkpt lat="48.6063" lon="1.94975">
        <ele>104.92</ele>
        <time>2020-08-27T07:53:33Z</time>
      </trkpt>
      <trkpt lat="48.60631" lon="1.94975">
        <ele>105.4</ele>
        <time>2020-08-27T07:53:34Z</time>
      </trkpt>
      <trkpt lat="48.60633" lon="1.94974">
        <ele>105.4</ele>
        <time>2020-08-27T07:53:35Z</time>
      </trkpt>
      <trkpt lat="48.60636" lon="1.94974">
        <ele>105.4</ele>
        <time>2020-08-27T07:53:36Z</time>
      </trkpt>
      <trkpt lat="48.60638" lon="1.94973">
        <ele>105.4</ele>
        <time>2020-08-27T07:53:37Z</time>
      </trkpt>
      <trkpt lat="48.60639" lon="1.94973">
        <ele>105.4</ele>
        <time>2020-08-27T07:53:38Z</time>
      </trkpt>
      <trkpt lat="48.6064" lon="1.94972">
        <ele>105.4</ele>
        <time>2020-08-27T07:53:39Z</time>
      </trkpt>
      <trkpt lat="48.6064" lon="1.94972">
        <ele>105.4</ele>
        <time>2020-08-27T07:53:40Z</time>
      </trkpt>
      <trkpt lat="48.60642" lon="1.94972">
        <ele>104.92</ele>
        <time>2020-08-27T07:53:41Z</time>
      </trkpt>
      <trkpt lat="48.60642" lon="1.94971">
        <ele>105.4</ele>
        <time>2020-08-27T07:53:42Z</time>
      </trkpt>
      <trkpt lat="48.60643" lon="1.94971">
        <ele>105.4</ele>
        <time>2020-08-27T07:53:43Z</time>
      </trkpt>
      <trkpt lat="48.60644" lon="1.94971">
        <ele>105.4</ele>
        <time>2020-08-27T07:53:44Z</time>
      </trkpt>
      <trkpt lat="48.60645" lon="1.94969">
        <ele>105.4</ele>
        <time>2020-08-27T07:53:45Z</time>
      </trkpt>
      <trkpt lat="48.60647" lon="1.94968">
        <ele>105.4</ele>
        <time>2020-08-27T07:53:46Z</time>
      </trkpt>
      <trkpt lat="48.60651" lon="1.94967">
        <ele>105.4</ele>
        <time>2020-08-27T07:53:47Z</time>
      </trkpt>
      <trkpt lat="48.60654" lon="1.94966">
        <ele>105.4</ele>
        <time>2020-08-27T07:53:48Z</time>
      </trkpt>
      <trkpt lat="48.60657" lon="1.94966">
        <ele>104.92</ele>
        <time>2020-08-27T07:53:49Z</time>
      </trkpt>
      <trkpt lat="48.60659" lon="1.94967">
        <ele>104.92</ele>
        <time>2020-08-27T07:53:50Z</time>
      </trkpt>
      <trkpt lat="48.60661" lon="1.94967">
        <ele>104.92</ele>
        <time>2020-08-27T07:53:51Z</time>
      </trkpt>
      <trkpt lat="48.60662" lon="1.94968">
        <ele>104.92</ele>
        <time>2020-08-27T07:53:52Z</time>
      </trkpt>
      <trkpt lat="48.60664" lon="1.94969">
        <ele>104.92</ele>
        <time>2020-08-27T07:53:53Z</time>
      </trkpt>
      <trkpt lat="48.60665" lon="1.9497">
        <ele>104.92</ele>
        <time>2020-08-27T07:53:54Z</time>
      </trkpt>
      <trkpt lat="48.60667" lon="1.94972">
        <ele>104.92</ele>
        <time>2020-08-27T07:53:55Z</time>
      </trkpt>
      <trkpt lat="48.60668" lon="1.94973">
        <ele>104.44</ele>
        <time>2020-08-27T07:53:56Z</time>
      </trkpt>
      <trkpt lat="48.60669" lon="1.94975">
        <ele>104.92</ele>
        <time>2020-08-27T07:53:57Z</time>
      </trkpt>
      <trkpt lat="48.60671" lon="1.94975">
        <ele>104.92</ele>
        <time>2020-08-27T07:53:58Z</time>
      </trkpt>
      <trkpt lat="48.60671" lon="1.94976">
        <ele>104.92</ele>
        <time>2020-08-27T07:53:59Z</time>
      </trkpt>
      <trkpt lat="48.60671" lon="1.94978">
        <ele>104.92</ele>
        <time>2020-08-27T07:54:00Z</time>
      </trkpt>
      <trkpt lat="48.60671" lon="1.94978">
        <ele>104.92</ele>
        <time>2020-08-27T07:54:01Z</time>
      </trkpt>
      <trkpt lat="48.6067" lon="1.94979">
        <ele>104.92</ele>
        <time>2020-08-27T07:54:02Z</time>
      </trkpt>
      <trkpt lat="48.6067" lon="1.9498">
        <ele>104.92</ele>
        <time>2020-08-27T07:54:03Z</time>
      </trkpt>
      <trkpt lat="48.60669" lon="1.94983">
        <ele>104.92</ele>
        <time>2020-08-27T07:54:04Z</time>
      </trkpt>
      <trkpt lat="48.60668" lon="1.94983">
        <ele>104.92</ele>
        <time>2020-08-27T07:54:05Z</time>
      </trkpt>
      <trkpt lat="48.60668" lon="1.94984">
        <ele>104.92</ele>
        <time>2020-08-27T07:54:06Z</time>
      </trkpt>
      <trkpt lat="48.60667" lon="1.94985">
        <ele>104.92</ele>
        <time>2020-08-27T07:54:07Z</time>
      </trkpt>
      <trkpt lat="48.60667" lon="1.94986">
        <ele>104.92</ele>
        <time>2020-08-27T07:54:08Z</time>
      </trkpt>
      <trkpt lat="48.60667" lon="1.94987">
        <ele>104.92</ele>
        <time>2020-08-27T07:54:09Z</time>
      </trkpt>
      <trkpt lat="48.60666" lon="1.94988">
        <ele>104.92</ele>
        <time>2020-08-27T07:54:10Z</time>
      </trkpt>
      <trkpt lat="48.60665" lon="1.94989">
        <ele>104.92</ele>
        <time>2020-08-27T07:54:11Z</time>
      </trkpt>
      <trkpt lat="48.60664" lon="1.9499">
        <ele>104.92</ele>
        <time>2020-08-27T07:54:12Z</time>
      </trkpt>
      <trkpt lat="48.60663" lon="1.94993">
        <ele>104.92</ele>
        <time>2020-08-27T07:54:13Z</time>
      </trkpt>
      <trkpt lat="48.60662" lon="1.94995">
        <ele>104.92</ele>
        <time>2020-08-27T07:54:14Z</time>
      </trkpt>
      <trkpt lat="48.60662" lon="1.94996">
        <ele>104.92</ele>
        <time>2020-08-27T07:54:15Z</time>
      </trkpt>
      <trkpt lat="48.60661" lon="1.94998">
        <ele>104.92</ele>
        <time>2020-08-27T07:54:16Z</time>
      </trkpt>
      <trkpt lat="48.60661" lon="1.94999">
        <ele>104.92</ele>
        <time>2020-08-27T07:54:17Z</time>
      </trkpt>
      <trkpt lat="48.6066" lon="1.95">
        <ele>104.92</ele>
        <time>2020-08-27T07:54:18Z</time>
      </trkpt>
      <trkpt lat="48.6066" lon="1.95">
        <ele>104.92</ele>
        <time>2020-08-27T07:54:19Z</time>
      </trkpt>
      <trkpt lat="48.60658" lon="1.95003">
        <ele>104.92</ele>
        <time>2020-08-27T07:54:29Z</time>
      </trkpt>
      <trkpt lat="48.60658" lon="1.95004">
        <ele>104.44</ele>
        <time>2020-08-27T07:54:30Z</time>
      </trkpt>
      <trkpt lat="48.60658" lon="1.95004">
        <ele>103.96</ele>
        <time>2020-08-27T07:54:42Z</time>
      </trkpt>
      <trkpt lat="48.60658" lon="1.95004">
        <ele>104.44</ele>
        <time>2020-08-27T07:54:43Z</time>
      </trkpt>
      <trkpt lat="48.6066" lon="1.95009">
        <ele>102.52</ele>
        <time>2020-08-27T07:55:41Z</time>
      </trkpt>
      <trkpt lat="48.6066" lon="1.95009">
        <ele>106.36</ele>
        <time>2020-08-27T07:55:42Z</time>
      </trkpt>
      <trkpt lat="48.6066" lon="1.95009">
        <ele>103.96</ele>
        <time>2020-08-27T07:55:45Z</time>
      </trkpt>
      <trkpt lat="48.6066" lon="1.95009">
        <ele>103.96</ele>
        <time>2020-08-27T07:55:46Z</time>
      </trkpt>
      <trkpt lat="48.60658" lon="1.9501">
        <ele>103.96</ele>
        <time>2020-08-27T07:56:07Z</time>
      </trkpt>
      <trkpt lat="48.60658" lon="1.9501">
        <ele>103.96</ele>
        <time>2020-08-27T07:56:08Z</time>
      </trkpt>
      <trkpt lat="48.60658" lon="1.9501">
        <ele>103.96</ele>
        <time>2020-08-27T07:56:09Z</time>
      </trkpt>
      <trkpt lat="48.60658" lon="1.9501">
        <ele>103.96</ele>
        <time>2020-08-27T07:56:10Z</time>
      </trkpt>
      <trkpt lat="48.60658" lon="1.9501">
        <ele>103.96</ele>
        <time>2020-08-27T07:56:11Z</time>
      </trkpt>
      <trkpt lat="48.60657" lon="1.95011">
        <ele>103.96</ele>
        <time>2020-08-27T07:56:24Z</time>
      </trkpt>
      <trkpt lat="48.60657" lon="1.95011">
        <ele>103.96</ele>
        <time>2020-08-27T07:56:25Z</time>
      </trkpt>
      <trkpt lat="48.60657" lon="1.95011">
        <ele>103.96</ele>
        <time>2020-08-27T07:56:26Z</time>
      </trkpt>
      <trkpt lat="48.60657" lon="1.95011">
        <ele>103.96</ele>
        <time>2020-08-27T07:56:27Z</time>
      </trkpt>
      <trkpt lat="48.60657" lon="1.95011">
        <ele>103.96</ele>
        <time>2020-08-27T07:56:28Z</time>
      </trkpt>
      <trkpt lat="48.60657" lon="1.95011">
        <ele>103.96</ele>
        <time>2020-08-27T07:56:29Z</time>
      </trkpt>
      <trkpt lat="48.60657" lon="1.95012">
        <ele>103.96</ele>
        <time>2020-08-27T07:57:00Z</time>
      </trkpt>
      <trkpt lat="48.60657" lon="1.95012">
        <ele>103.96</ele>
        <time>2020-08-27T07:57:01Z</time>
      </trkpt>
      <trkpt lat="48.60657" lon="1.95011">
        <ele>103.96</ele>
        <time>2020-08-27T07:57:02Z</time>
      </trkpt>
      <trkpt lat="48.60657" lon="1.95011">
        <ele>103.96</ele>
        <time>2020-08-27T07:57:21Z</time>
      </trkpt>
      <trkpt lat="48.60657" lon="1.95011">
        <ele>103.96</ele>
        <time>2020-08-27T07:57:22Z</time>
      </trkpt>
      <trkpt lat="48.60657" lon="1.95011">
        <ele>103.48</ele>
        <time>2020-08-27T07:57:48Z</time>
      </trkpt>
      <trkpt lat="48.60657" lon="1.95011">
        <ele>103.48</ele>
        <time>2020-08-27T07:57:49Z</time>
      </trkpt>
      <trkpt lat="48.60657" lon="1.9501">
        <ele>103.48</ele>
        <time>2020-08-27T07:58:05Z</time>
      </trkpt>
      <trkpt lat="48.60657" lon="1.95011">
        <ele>103.48</ele>
        <time>2020-08-27T07:58:06Z</time>
      </trkpt>
      <trkpt lat="48.60657" lon="1.95012">
        <ele>103.48</ele>
        <time>2020-08-27T07:58:07Z</time>
      </trkpt>
      <trkpt lat="48.60656" lon="1.95013">
        <ele>103.48</ele>
        <time>2020-08-27T07:58:08Z</time>
      </trkpt>
      <trkpt lat="48.60656" lon="1.95014">
        <ele>103.96</ele>
        <time>2020-08-27T07:58:09Z</time>
      </trkpt>
      <trkpt lat="48.60655" lon="1.95015">
        <ele>103.96</ele>
        <time>2020-08-27T07:58:10Z</time>
      </trkpt>
      <trkpt lat="48.60655" lon="1.95016">
        <ele>103.96</ele>
        <time>2020-08-27T07:58:11Z</time>
      </trkpt>
      <trkpt lat="48.60654" lon="1.95018">
        <ele>103.48</ele>
        <time>2020-08-27T07:58:12Z</time>
      </trkpt>
      <trkpt lat="48.60653" lon="1.95019">
        <ele>103.48</ele>
        <time>2020-08-27T07:58:13Z</time>
      </trkpt>
      <trkpt lat="48.60652" lon="1.95021">
        <ele>103.48</ele>
        <time>2020-08-27T07:58:14Z</time>
      </trkpt>
      <trkpt lat="48.60651" lon="1.95023">
        <ele>103.48</ele>
        <time>2020-08-27T07:58:15Z</time>
      </trkpt>
      <trkpt lat="48.6065" lon="1.95025">
        <ele>103.96</ele>
        <time>2020-08-27T07:58:16Z</time>
      </trkpt>
      <trkpt lat="48.60649" lon="1.95026">
        <ele>103.96</ele>
        <time>2020-08-27T07:58:17Z</time>
      </trkpt>
      <trkpt lat="48.60648" lon="1.95028">
        <ele>103.96</ele>
        <time>2020-08-27T07:58:18Z</time>
      </trkpt>
      <trkpt lat="48.60647" lon="1.9503">
        <ele>103.96</ele>
        <time>2020-08-27T07:58:19Z</time>
      </trkpt>
      <trkpt lat="48.60646" lon="1.95032">
        <ele>103.96</ele>
        <time>2020-08-27T07:58:20Z</time>
      </trkpt>
      <trkpt lat="48.60644" lon="1.95033">
        <ele>103.96</ele>
        <time>2020-08-27T07:58:21Z</time>
      </trkpt>
      <trkpt lat="48.60643" lon="1.95033">
        <ele>103.96</ele>
        <time>2020-08-27T07:58:22Z</time>
      </trkpt>
      <trkpt lat="48.60643" lon="1.95034">
        <ele>104.44</ele>
        <time>2020-08-27T07:58:23Z</time>
      </trkpt>
      <trkpt lat="48.60642" lon="1.95034">
        <ele>103.96</ele>
        <time>2020-08-27T07:58:24Z</time>
      </trkpt>
      <trkpt lat="48.60641" lon="1.95034">
        <ele>104.44</ele>
        <time>2020-08-27T07:58:25Z</time>
      </trkpt>
      <trkpt lat="48.60641" lon="1.95035">
        <ele>104.44</ele>
        <time>2020-08-27T07:58:26Z</time>
      </trkpt>
      <trkpt lat="48.6064" lon="1.95037">
        <ele>104.44</ele>
        <time>2020-08-27T07:58:27Z</time>
      </trkpt>
      <trkpt lat="48.6064" lon="1.95039">
        <ele>103.96</ele>
        <time>2020-08-27T07:58:28Z</time>
      </trkpt>
      <trkpt lat="48.60639" lon="1.95042">
        <ele>104.92</ele>
        <time>2020-08-27T07:58:29Z</time>
      </trkpt>
      <trkpt lat="48.60639" lon="1.95044">
        <ele>104.44</ele>
        <time>2020-08-27T07:58:30Z</time>
      </trkpt>
      <trkpt lat="48.60638" lon="1.95045">
        <ele>103.96</ele>
        <time>2020-08-27T07:58:31Z</time>
      </trkpt>
      <trkpt lat="48.60637" lon="1.95047">
        <ele>103.48</ele>
        <time>2020-08-27T07:58:32Z</time>
      </trkpt>
      <trkpt lat="48.60637" lon="1.95048">
        <ele>104.92</ele>
        <time>2020-08-27T07:58:33Z</time>
      </trkpt>
      <trkpt lat="48.60636" lon="1.95049">
        <ele>104.44</ele>
        <time>2020-08-27T07:58:34Z</time>
      </trkpt>
      <trkpt lat="48.60636" lon="1.95051">
        <ele>104.44</ele>
        <time>2020-08-27T07:58:35Z</time>
      </trkpt>
      <trkpt lat="48.60635" lon="1.95053">
        <ele>104.44</ele>
        <time>2020-08-27T07:58:36Z</time>
      </trkpt>
      <trkpt lat="48.60634" lon="1.95055">
        <ele>103.96</ele>
        <time>2020-08-27T07:58:37Z</time>
      </trkpt>
      <trkpt lat="48.60634" lon="1.95056">
        <ele>104.44</ele>
        <time>2020-08-27T07:58:38Z</time>
      </trkpt>
      <trkpt lat="48.60633" lon="1.95057">
        <ele>104.44</ele>
        <time>2020-08-27T07:58:39Z</time>
      </trkpt>
      <trkpt lat="48.60633" lon="1.9506">
        <ele>104.44</ele>
        <time>2020-08-27T07:58:40Z</time>
      </trkpt>
      <trkpt lat="48.60632" lon="1.95061">
        <ele>104.44</ele>
        <time>2020-08-27T07:58:41Z</time>
      </trkpt>
      <trkpt lat="48.60631" lon="1.95063">
        <ele>104.44</ele>
        <time>2020-08-27T07:58:42Z</time>
      </trkpt>
      <trkpt lat="48.6063" lon="1.95064">
        <ele>103.96</ele>
        <time>2020-08-27T07:58:43Z</time>
      </trkpt>
      <trkpt lat="48.60629" lon="1.95066">
        <ele>104.44</ele>
        <time>2020-08-27T07:58:44Z</time>
      </trkpt>
      <trkpt lat="48.60628" lon="1.95068">
        <ele>104.44</ele>
        <time>2020-08-27T07:58:45Z</time>
      </trkpt>
      <trkpt lat="48.60628" lon="1.95069">
        <ele>104.44</ele>
        <time>2020-08-27T07:58:46Z</time>
      </trkpt>
      <trkpt lat="48.60628" lon="1.95071">
        <ele>104.44</ele>
        <time>2020-08-27T07:58:47Z</time>
      </trkpt>
      <trkpt lat="48.60627" lon="1.95072">
        <ele>104.44</ele>
        <time>2020-08-27T07:58:48Z</time>
      </trkpt>
      <trkpt lat="48.60627" lon="1.95073">
        <ele>104.44</ele>
        <time>2020-08-27T07:58:49Z</time>
      </trkpt>
      <trkpt lat="48.60625" lon="1.95075">
        <ele>104.44</ele>
        <time>2020-08-27T07:58:50Z</time>
      </trkpt>
      <trkpt lat="48.60624" lon="1.95076">
        <ele>104.44</ele>
        <time>2020-08-27T07:58:51Z</time>
      </trkpt>
      <trkpt lat="48.60623" lon="1.95078">
        <ele>104.44</ele>
        <time>2020-08-27T07:58:52Z</time>
      </trkpt>
      <trkpt lat="48.60623" lon="1.9508">
        <ele>104.44</ele>
        <time>2020-08-27T07:58:53Z</time>
      </trkpt>
      <trkpt lat="48.60622" lon="1.95082">
        <ele>104.44</ele>
        <time>2020-08-27T07:58:54Z</time>
      </trkpt>
      <trkpt lat="48.60622" lon="1.95083">
        <ele>104.44</ele>
        <time>2020-08-27T07:58:55Z</time>
      </trkpt>
      <trkpt lat="48.60621" lon="1.95085">
        <ele>104.44</ele>
        <time>2020-08-27T07:58:56Z</time>
      </trkpt>
      <trkpt lat="48.6062" lon="1.95086">
        <ele>104.92</ele>
        <time>2020-08-27T07:58:57Z</time>
      </trkpt>
      <trkpt lat="48.60619" lon="1.95087">
        <ele>104.92</ele>
        <time>2020-08-27T07:58:58Z</time>
      </trkpt>
      <trkpt lat="48.60619" lon="1.95088">
        <ele>104.92</ele>
        <time>2020-08-27T07:58:59Z</time>
      </trkpt>
      <trkpt lat="48.60618" lon="1.9509">
        <ele>104.92</ele>
        <time>2020-08-27T07:59:00Z</time>
      </trkpt>
      <trkpt lat="48.60617" lon="1.95092">
        <ele>104.92</ele>
        <time>2020-08-27T07:59:01Z</time>
      </trkpt>
      <trkpt lat="48.60616" lon="1.95093">
        <ele>104.92</ele>
        <time>2020-08-27T07:59:02Z</time>
      </trkpt>
      <trkpt lat="48.60616" lon="1.95095">
        <ele>105.4</ele>
        <time>2020-08-27T07:59:03Z</time>
      </trkpt>
      <trkpt lat="48.60615" lon="1.95097">
        <ele>104.92</ele>
        <time>2020-08-27T07:59:04Z</time>
      </trkpt>
      <trkpt lat="48.60614" lon="1.95098">
        <ele>105.4</ele>
        <time>2020-08-27T07:59:05Z</time>
      </trkpt>
      <trkpt lat="48.60614" lon="1.95099">
        <ele>104.92</ele>
        <time>2020-08-27T07:59:06Z</time>
      </trkpt>
      <trkpt lat="48.60613" lon="1.951">
        <ele>105.4</ele>
        <time>2020-08-27T07:59:07Z</time>
      </trkpt>
      <trkpt lat="48.60612" lon="1.95102">
        <ele>104.92</ele>
        <time>2020-08-27T07:59:08Z</time>
      </trkpt>
      <trkpt lat="48.60611" lon="1.95103">
        <ele>105.4</ele>
        <time>2020-08-27T07:59:09Z</time>
      </trkpt>
      <trkpt lat="48.6061" lon="1.95105">
        <ele>104.44</ele>
        <time>2020-08-27T07:59:10Z</time>
      </trkpt>
      <trkpt lat="48.60609" lon="1.95107">
        <ele>105.4</ele>
        <time>2020-08-27T07:59:11Z</time>
      </trkpt>
      <trkpt lat="48.60608" lon="1.95109">
        <ele>105.4</ele>
        <time>2020-08-27T07:59:12Z</time>
      </trkpt>
      <trkpt lat="48.60608" lon="1.95111">
        <ele>105.4</ele>
        <time>2020-08-27T07:59:13Z</time>
      </trkpt>
      <trkpt lat="48.60606" lon="1.95114">
        <ele>105.4</ele>
        <time>2020-08-27T07:59:14Z</time>
      </trkpt>
      <trkpt lat="48.60606" lon="1.95116">
        <ele>105.4</ele>
        <time>2020-08-27T07:59:15Z</time>
      </trkpt>
      <trkpt lat="48.60606" lon="1.95118">
        <ele>104.92</ele>
        <time>2020-08-27T07:59:16Z</time>
      </trkpt>
      <trkpt lat="48.60605" lon="1.9512">
        <ele>105.4</ele>
        <time>2020-08-27T07:59:17Z</time>
      </trkpt>
      <trkpt lat="48.60605" lon="1.95122">
        <ele>105.4</ele>
        <time>2020-08-27T07:59:18Z</time>
      </trkpt>
      <trkpt lat="48.60604" lon="1.95124">
        <ele>104.92</ele>
        <time>2020-08-27T07:59:19Z</time>
      </trkpt>
      <trkpt lat="48.60603" lon="1.95126">
        <ele>104.92</ele>
        <time>2020-08-27T07:59:20Z</time>
      </trkpt>
      <trkpt lat="48.60602" lon="1.95127">
        <ele>104.92</ele>
        <time>2020-08-27T07:59:21Z</time>
      </trkpt>
      <trkpt lat="48.606" lon="1.95129">
        <ele>104.92</ele>
        <time>2020-08-27T07:59:22Z</time>
      </trkpt>
      <trkpt lat="48.60599" lon="1.95129">
        <ele>104.44</ele>
        <time>2020-08-27T07:59:23Z</time>
      </trkpt>
      <trkpt lat="48.60597" lon="1.95131">
        <ele>104.92</ele>
        <time>2020-08-27T07:59:24Z</time>
      </trkpt>
      <trkpt lat="48.60595" lon="1.95132">
        <ele>104.92</ele>
        <time>2020-08-27T07:59:25Z</time>
      </trkpt>
      <trkpt lat="48.60593" lon="1.95134">
        <ele>104.92</ele>
        <time>2020-08-27T07:59:26Z</time>
      </trkpt>
      <trkpt lat="48.60591" lon="1.95136">
        <ele>105.4</ele>
        <time>2020-08-27T07:59:27Z</time>
      </trkpt>
      <trkpt lat="48.6059" lon="1.95137">
        <ele>104.92</ele>
        <time>2020-08-27T07:59:28Z</time>
      </trkpt>
      <trkpt lat="48.60588" lon="1.95138">
        <ele>105.4</ele>
        <time>2020-08-27T07:59:29Z</time>
      </trkpt>
      <trkpt lat="48.60587" lon="1.9514">
        <ele>105.88</ele>
        <time>2020-08-27T07:59:30Z</time>
      </trkpt>
      <trkpt lat="48.60586" lon="1.95142">
        <ele>104.92</ele>
        <time>2020-08-27T07:59:31Z</time>
      </trkpt>
      <trkpt lat="48.60584" lon="1.95144">
        <ele>104.92</ele>
        <time>2020-08-27T07:59:32Z</time>
      </trkpt>
      <trkpt lat="48.60583" lon="1.95146">
        <ele>104.92</ele>
        <time>2020-08-27T07:59:33Z</time>
      </trkpt>
      <trkpt lat="48.60582" lon="1.95148">
        <ele>104.92</ele>
        <time>2020-08-27T07:59:34Z</time>
      </trkpt>
      <trkpt lat="48.60581" lon="1.9515">
        <ele>104.92</ele>
        <time>2020-08-27T07:59:35Z</time>
      </trkpt>
      <trkpt lat="48.6058" lon="1.95152">
        <ele>104.92</ele>
        <time>2020-08-27T07:59:36Z</time>
      </trkpt>
      <trkpt lat="48.6058" lon="1.95155">
        <ele>104.92</ele>
        <time>2020-08-27T07:59:37Z</time>
      </trkpt>
      <trkpt lat="48.60579" lon="1.95157">
        <ele>104.44</ele>
        <time>2020-08-27T07:59:38Z</time>
      </trkpt>
      <trkpt lat="48.60578" lon="1.95159">
        <ele>104.44</ele>
        <time>2020-08-27T07:59:39Z</time>
      </trkpt>
      <trkpt lat="48.60578" lon="1.95161">
        <ele>104.44</ele>
        <time>2020-08-27T07:59:40Z</time>
      </trkpt>
      <trkpt lat="48.60578" lon="1.95163">
        <ele>104.92</ele>
        <time>2020-08-27T07:59:41Z</time>
      </trkpt>
      <trkpt lat="48.60578" lon="1.95164">
        <ele>104.92</ele>
        <time>2020-08-27T07:59:42Z</time>
      </trkpt>
      <trkpt lat="48.60577" lon="1.95166">
        <ele>104.44</ele>
        <time>2020-08-27T07:59:43Z</time>
      </trkpt>
      <trkpt lat="48.60577" lon="1.95167">
        <ele>104.44</ele>
        <time>2020-08-27T07:59:44Z</time>
      </trkpt>
      <trkpt lat="48.60576" lon="1.95169">
        <ele>104.44</ele>
        <time>2020-08-27T07:59:45Z</time>
      </trkpt>
      <trkpt lat="48.60576" lon="1.9517">
        <ele>104.44</ele>
        <time>2020-08-27T07:59:46Z</time>
      </trkpt>
      <trkpt lat="48.60574" lon="1.95172">
        <ele>104.44</ele>
        <time>2020-08-27T07:59:47Z</time>
      </trkpt>
      <trkpt lat="48.60574" lon="1.95174">
        <ele>104.44</ele>
        <time>2020-08-27T07:59:48Z</time>
      </trkpt>
      <trkpt lat="48.60573" lon="1.95177">
        <ele>104.44</ele>
        <time>2020-08-27T07:59:49Z</time>
      </trkpt>
      <trkpt lat="48.60572" lon="1.95179">
        <ele>103.96</ele>
        <time>2020-08-27T07:59:50Z</time>
      </trkpt>
      <trkpt lat="48.6057" lon="1.95181">
        <ele>104.44</ele>
        <time>2020-08-27T07:59:51Z</time>
      </trkpt>
      <trkpt lat="48.60569" lon="1.95184">
        <ele>104.44</ele>
        <time>2020-08-27T07:59:52Z</time>
      </trkpt>
      <trkpt lat="48.60568" lon="1.95186">
        <ele>103.96</ele>
        <time>2020-08-27T07:59:53Z</time>
      </trkpt>
      <trkpt lat="48.60567" lon="1.95189">
        <ele>104.44</ele>
        <time>2020-08-27T07:59:54Z</time>
      </trkpt>
      <trkpt lat="48.60566" lon="1.9519">
        <ele>104.44</ele>
        <time>2020-08-27T07:59:55Z</time>
      </trkpt>
      <trkpt lat="48.60564" lon="1.95192">
        <ele>104.44</ele>
        <time>2020-08-27T07:59:56Z</time>
      </trkpt>
      <trkpt lat="48.60563" lon="1.95194">
        <ele>103.96</ele>
        <time>2020-08-27T07:59:57Z</time>
      </trkpt>
      <trkpt lat="48.60562" lon="1.95197">
        <ele>103.96</ele>
        <time>2020-08-27T07:59:58Z</time>
      </trkpt>
      <trkpt lat="48.6056" lon="1.95199">
        <ele>103.96</ele>
        <time>2020-08-27T07:59:59Z</time>
      </trkpt>
      <trkpt lat="48.60558" lon="1.95201">
        <ele>103.96</ele>
        <time>2020-08-27T08:00:00Z</time>
      </trkpt>
      <trkpt lat="48.60557" lon="1.95203">
        <ele>103.96</ele>
        <time>2020-08-27T08:00:01Z</time>
      </trkpt>
      <trkpt lat="48.60555" lon="1.95205">
        <ele>103.96</ele>
        <time>2020-08-27T08:00:02Z</time>
      </trkpt>
      <trkpt lat="48.60554" lon="1.95208">
        <ele>103.48</ele>
        <time>2020-08-27T08:00:03Z</time>
      </trkpt>
      <trkpt lat="48.60554" lon="1.9521">
        <ele>103.96</ele>
        <time>2020-08-27T08:00:04Z</time>
      </trkpt>
      <trkpt lat="48.60553" lon="1.9521">
        <ele>103.96</ele>
        <time>2020-08-27T08:00:05Z</time>
      </trkpt>
      <trkpt lat="48.60554" lon="1.95209">
        <ele>103.96</ele>
        <time>2020-08-27T08:00:06Z</time>
      </trkpt>
      <trkpt lat="48.60553" lon="1.95209">
        <ele>103.96</ele>
        <time>2020-08-27T08:00:12Z</time>
      </trkpt>
      <trkpt lat="48.60552" lon="1.9521">
        <ele>103.48</ele>
        <time>2020-08-27T08:00:13Z</time>
      </trkpt>
      <trkpt lat="48.60551" lon="1.95211">
        <ele>103.48</ele>
        <time>2020-08-27T08:00:14Z</time>
      </trkpt>
      <trkpt lat="48.6055" lon="1.95212">
        <ele>103.96</ele>
        <time>2020-08-27T08:00:15Z</time>
      </trkpt>
      <trkpt lat="48.60549" lon="1.95214">
        <ele>104.44</ele>
        <time>2020-08-27T08:00:16Z</time>
      </trkpt>
      <trkpt lat="48.60548" lon="1.95215">
        <ele>103.96</ele>
        <time>2020-08-27T08:00:17Z</time>
      </trkpt>
      <trkpt lat="48.60547" lon="1.95217">
        <ele>103.96</ele>
        <time>2020-08-27T08:00:18Z</time>
      </trkpt>
      <trkpt lat="48.60547" lon="1.95219">
        <ele>103.96</ele>
        <time>2020-08-27T08:00:19Z</time>
      </trkpt>
      <trkpt lat="48.60546" lon="1.95221">
        <ele>103.96</ele>
        <time>2020-08-27T08:00:20Z</time>
      </trkpt>
      <trkpt lat="48.60545" lon="1.95223">
        <ele>103.96</ele>
        <time>2020-08-27T08:00:21Z</time>
      </trkpt>
      <trkpt lat="48.60544" lon="1.95225">
        <ele>103.96</ele>
        <time>2020-08-27T08:00:22Z</time>
      </trkpt>
      <trkpt lat="48.60544" lon="1.95226">
        <ele>103.96</ele>
        <time>2020-08-27T08:00:23Z</time>
      </trkpt>
      <trkpt lat="48.60543" lon="1.95227">
        <ele>103.96</ele>
        <time>2020-08-27T08:00:24Z</time>
      </trkpt>
      <trkpt lat="48.60542" lon="1.95229">
        <ele>103.96</ele>
        <time>2020-08-27T08:00:25Z</time>
      </trkpt>
      <trkpt lat="48.60542" lon="1.9523">
        <ele>103.96</ele>
        <time>2020-08-27T08:00:26Z</time>
      </trkpt>
      <trkpt lat="48.60541" lon="1.95232">
        <ele>103.96</ele>
        <time>2020-08-27T08:00:27Z</time>
      </trkpt>
      <trkpt lat="48.60541" lon="1.95233">
        <ele>103.96</ele>
        <time>2020-08-27T08:00:28Z</time>
      </trkpt>
      <trkpt lat="48.60541" lon="1.95235">
        <ele>104.44</ele>
        <time>2020-08-27T08:00:29Z</time>
      </trkpt>
      <trkpt lat="48.6054" lon="1.95237">
        <ele>104.44</ele>
        <time>2020-08-27T08:00:30Z</time>
      </trkpt>
      <trkpt lat="48.6054" lon="1.95239">
        <ele>103.96</ele>
        <time>2020-08-27T08:00:31Z</time>
      </trkpt>
      <trkpt lat="48.60539" lon="1.95241">
        <ele>103.96</ele>
        <time>2020-08-27T08:00:32Z</time>
      </trkpt>
      <trkpt lat="48.60538" lon="1.95243">
        <ele>103.96</ele>
        <time>2020-08-27T08:00:33Z</time>
      </trkpt>
      <trkpt lat="48.60537" lon="1.95245">
        <ele>103.96</ele>
        <time>2020-08-27T08:00:34Z</time>
      </trkpt>
      <trkpt lat="48.60536" lon="1.95247">
        <ele>103.96</ele>
        <time>2020-08-27T08:00:35Z</time>
      </trkpt>
      <trkpt lat="48.60535" lon="1.9525">
        <ele>103.96</ele>
        <time>2020-08-27T08:00:36Z</time>
      </trkpt>
      <trkpt lat="48.60534" lon="1.95252">
        <ele>103.96</ele>
        <time>2020-08-27T08:00:37Z</time>
      </trkpt>
      <trkpt lat="48.60533" lon="1.95254">
        <ele>103.48</ele>
        <time>2020-08-27T08:00:38Z</time>
      </trkpt>
      <trkpt lat="48.60532" lon="1.95256">
        <ele>103.96</ele>
        <time>2020-08-27T08:00:39Z</time>
      </trkpt>
      <trkpt lat="48.6053" lon="1.95258">
        <ele>103.96</ele>
        <time>2020-08-27T08:00:40Z</time>
      </trkpt>
      <trkpt lat="48.60529" lon="1.9526">
        <ele>103.96</ele>
        <time>2020-08-27T08:00:41Z</time>
      </trkpt>
      <trkpt lat="48.60528" lon="1.95262">
        <ele>104.44</ele>
        <time>2020-08-27T08:00:42Z</time>
      </trkpt>
      <trkpt lat="48.60526" lon="1.95264">
        <ele>104.44</ele>
        <time>2020-08-27T08:00:43Z</time>
      </trkpt>
      <trkpt lat="48.60525" lon="1.95266">
        <ele>104.44</ele>
        <time>2020-08-27T08:00:44Z</time>
      </trkpt>
      <trkpt lat="48.60524" lon="1.95268">
        <ele>104.44</ele>
        <time>2020-08-27T08:00:45Z</time>
      </trkpt>
      <trkpt lat="48.60523" lon="1.9527">
        <ele>103.96</ele>
        <time>2020-08-27T08:00:46Z</time>
      </trkpt>
      <trkpt lat="48.60522" lon="1.95272">
        <ele>103.96</ele>
        <time>2020-08-27T08:00:47Z</time>
      </trkpt>
      <trkpt lat="48.60521" lon="1.95274">
        <ele>103.96</ele>
        <time>2020-08-27T08:00:48Z</time>
      </trkpt>
      <trkpt lat="48.6052" lon="1.95276">
        <ele>103.96</ele>
        <time>2020-08-27T08:00:49Z</time>
      </trkpt>
      <trkpt lat="48.60519" lon="1.95277">
        <ele>103.96</ele>
        <time>2020-08-27T08:00:50Z</time>
      </trkpt>
      <trkpt lat="48.60518" lon="1.9528">
        <ele>103.96</ele>
        <time>2020-08-27T08:00:51Z</time>
      </trkpt>
      <trkpt lat="48.60517" lon="1.95282">
        <ele>103.96</ele>
        <time>2020-08-27T08:00:52Z</time>
      </trkpt>
      <trkpt lat="48.60517" lon="1.95284">
        <ele>103.96</ele>
        <time>2020-08-27T08:00:53Z</time>
      </trkpt>
      <trkpt lat="48.60516" lon="1.95286">
        <ele>103.48</ele>
        <time>2020-08-27T08:00:54Z</time>
      </trkpt>
      <trkpt lat="48.60514" lon="1.95289">
        <ele>103.96</ele>
        <time>2020-08-27T08:00:55Z</time>
      </trkpt>
      <trkpt lat="48.60513" lon="1.95291">
        <ele>103.48</ele>
        <time>2020-08-27T08:00:56Z</time>
      </trkpt>
      <trkpt lat="48.60512" lon="1.95294">
        <ele>103.48</ele>
        <time>2020-08-27T08:00:57Z</time>
      </trkpt>
      <trkpt lat="48.60512" lon="1.95297">
        <ele>103.96</ele>
        <time>2020-08-27T08:00:58Z</time>
      </trkpt>
      <trkpt lat="48.60511" lon="1.95298">
        <ele>103.96</ele>
        <time>2020-08-27T08:00:59Z</time>
      </trkpt>
      <trkpt lat="48.60511" lon="1.953">
        <ele>103.48</ele>
        <time>2020-08-27T08:01:00Z</time>
      </trkpt>
      <trkpt lat="48.60511" lon="1.95302">
        <ele>103.48</ele>
        <time>2020-08-27T08:01:01Z</time>
      </trkpt>
      <trkpt lat="48.6051" lon="1.95304">
        <ele>103.48</ele>
        <time>2020-08-27T08:01:02Z</time>
      </trkpt>
      <trkpt lat="48.6051" lon="1.95305">
        <ele>103.48</ele>
        <time>2020-08-27T08:01:03Z</time>
      </trkpt>
      <trkpt lat="48.60509" lon="1.95306">
        <ele>103.48</ele>
        <time>2020-08-27T08:01:04Z</time>
      </trkpt>
      <trkpt lat="48.60508" lon="1.95307">
        <ele>103</ele>
        <time>2020-08-27T08:01:05Z</time>
      </trkpt>
      <trkpt lat="48.60507" lon="1.95308">
        <ele>103.48</ele>
        <time>2020-08-27T08:01:06Z</time>
      </trkpt>
      <trkpt lat="48.60507" lon="1.95309">
        <ele>103</ele>
        <time>2020-08-27T08:01:07Z</time>
      </trkpt>
      <trkpt lat="48.60506" lon="1.95311">
        <ele>103</ele>
        <time>2020-08-27T08:01:08Z</time>
      </trkpt>
      <trkpt lat="48.60505" lon="1.95312">
        <ele>103.96</ele>
        <time>2020-08-27T08:01:09Z</time>
      </trkpt>
      <trkpt lat="48.60505" lon="1.95313">
        <ele>103.96</ele>
        <time>2020-08-27T08:01:10Z</time>
      </trkpt>
      <trkpt lat="48.60504" lon="1.95315">
        <ele>103.48</ele>
        <time>2020-08-27T08:01:11Z</time>
      </trkpt>
      <trkpt lat="48.60503" lon="1.95317">
        <ele>103.48</ele>
        <time>2020-08-27T08:01:12Z</time>
      </trkpt>
      <trkpt lat="48.60502" lon="1.95318">
        <ele>103.48</ele>
        <time>2020-08-27T08:01:13Z</time>
      </trkpt>
      <trkpt lat="48.60501" lon="1.9532">
        <ele>103.48</ele>
        <time>2020-08-27T08:01:14Z</time>
      </trkpt>
      <trkpt lat="48.605" lon="1.95321">
        <ele>103.48</ele>
        <time>2020-08-27T08:01:15Z</time>
      </trkpt>
      <trkpt lat="48.60499" lon="1.95323">
        <ele>103.48</ele>
        <time>2020-08-27T08:01:16Z</time>
      </trkpt>
      <trkpt lat="48.60498" lon="1.95324">
        <ele>103.48</ele>
        <time>2020-08-27T08:01:17Z</time>
      </trkpt>
      <trkpt lat="48.60497" lon="1.95326">
        <ele>103.48</ele>
        <time>2020-08-27T08:01:18Z</time>
      </trkpt>
      <trkpt lat="48.60496" lon="1.95328">
        <ele>103.48</ele>
        <time>2020-08-27T08:01:19Z</time>
      </trkpt>
      <trkpt lat="48.60495" lon="1.95329">
        <ele>103.48</ele>
        <time>2020-08-27T08:01:20Z</time>
      </trkpt>
      <trkpt lat="48.60494" lon="1.9533">
        <ele>103.48</ele>
        <time>2020-08-27T08:01:21Z</time>
      </trkpt>
      <trkpt lat="48.60493" lon="1.95332">
        <ele>103.48</ele>
        <time>2020-08-27T08:01:22Z</time>
      </trkpt>
      <trkpt lat="48.60492" lon="1.95333">
        <ele>103.48</ele>
        <time>2020-08-27T08:01:23Z</time>
      </trkpt>
      <trkpt lat="48.60491" lon="1.95334">
        <ele>103.48</ele>
        <time>2020-08-27T08:01:24Z</time>
      </trkpt>
      <trkpt lat="48.6049" lon="1.95336">
        <ele>103.48</ele>
        <time>2020-08-27T08:01:25Z</time>
      </trkpt>
      <trkpt lat="48.60489" lon="1.95338">
        <ele>103.48</ele>
        <time>2020-08-27T08:01:26Z</time>
      </trkpt>
      <trkpt lat="48.60488" lon="1.95339">
        <ele>103.48</ele>
        <time>2020-08-27T08:01:27Z</time>
      </trkpt>
      <trkpt lat="48.60487" lon="1.95341">
        <ele>103.48</ele>
        <time>2020-08-27T08:01:28Z</time>
      </trkpt>
      <trkpt lat="48.60486" lon="1.95342">
        <ele>103.48</ele>
        <time>2020-08-27T08:01:29Z</time>
      </trkpt>
      <trkpt lat="48.60486" lon="1.95344">
        <ele>103.48</ele>
        <time>2020-08-27T08:01:30Z</time>
      </trkpt>
      <trkpt lat="48.60485" lon="1.95347">
        <ele>104.92</ele>
        <time>2020-08-27T08:01:31Z</time>
      </trkpt>
      <trkpt lat="48.60484" lon="1.95349">
        <ele>103.48</ele>
        <time>2020-08-27T08:01:32Z</time>
      </trkpt>
      <trkpt lat="48.60484" lon="1.95351">
        <ele>103.48</ele>
        <time>2020-08-27T08:01:33Z</time>
      </trkpt>
      <trkpt lat="48.60482" lon="1.95354">
        <ele>103.96</ele>
        <time>2020-08-27T08:01:34Z</time>
      </trkpt>
      <trkpt lat="48.60482" lon="1.95356">
        <ele>103.96</ele>
        <time>2020-08-27T08:01:35Z</time>
      </trkpt>
      <trkpt lat="48.60481" lon="1.95358">
        <ele>104.44</ele>
        <time>2020-08-27T08:01:36Z</time>
      </trkpt>
      <trkpt lat="48.6048" lon="1.95359">
        <ele>103.96</ele>
        <time>2020-08-27T08:01:37Z</time>
      </trkpt>
      <trkpt lat="48.60479" lon="1.9536">
        <ele>103.96</ele>
        <time>2020-08-27T08:01:38Z</time>
      </trkpt>
      <trkpt lat="48.60478" lon="1.95362">
        <ele>104.44</ele>
        <time>2020-08-27T08:01:39Z</time>
      </trkpt>
      <trkpt lat="48.60477" lon="1.95363">
        <ele>104.44</ele>
        <time>2020-08-27T08:01:40Z</time>
      </trkpt>
      <trkpt lat="48.60477" lon="1.95365">
        <ele>103.96</ele>
        <time>2020-08-27T08:01:41Z</time>
      </trkpt>
      <trkpt lat="48.60476" lon="1.95367">
        <ele>104.44</ele>
        <time>2020-08-27T08:01:42Z</time>
      </trkpt>
      <trkpt lat="48.60475" lon="1.95368">
        <ele>104.44</ele>
        <time>2020-08-27T08:01:43Z</time>
      </trkpt>
      <trkpt lat="48.60474" lon="1.9537">
        <ele>104.44</ele>
        <time>2020-08-27T08:01:44Z</time>
      </trkpt>
      <trkpt lat="48.60474" lon="1.95372">
        <ele>104.44</ele>
        <time>2020-08-27T08:01:45Z</time>
      </trkpt>
      <trkpt lat="48.60473" lon="1.95374">
        <ele>104.44</ele>
        <time>2020-08-27T08:01:46Z</time>
      </trkpt>
      <trkpt lat="48.60472" lon="1.95376">
        <ele>104.44</ele>
        <time>2020-08-27T08:01:47Z</time>
      </trkpt>
      <trkpt lat="48.60471" lon="1.95378">
        <ele>104.44</ele>
        <time>2020-08-27T08:01:48Z</time>
      </trkpt>
      <trkpt lat="48.60469" lon="1.9538">
        <ele>104.44</ele>
        <time>2020-08-27T08:01:49Z</time>
      </trkpt>
      <trkpt lat="48.60469" lon="1.95382">
        <ele>103.96</ele>
        <time>2020-08-27T08:01:50Z</time>
      </trkpt>
      <trkpt lat="48.60468" lon="1.95383">
        <ele>103.96</ele>
        <time>2020-08-27T08:01:51Z</time>
      </trkpt>
      <trkpt lat="48.60466" lon="1.95385">
        <ele>103.96</ele>
        <time>2020-08-27T08:01:52Z</time>
      </trkpt>
      <trkpt lat="48.60465" lon="1.95387">
        <ele>103.96</ele>
        <time>2020-08-27T08:01:53Z</time>
      </trkpt>
      <trkpt lat="48.60464" lon="1.95389">
        <ele>103.96</ele>
        <time>2020-08-27T08:01:54Z</time>
      </trkpt>
      <trkpt lat="48.60463" lon="1.95391">
        <ele>103.96</ele>
        <time>2020-08-27T08:01:55Z</time>
      </trkpt>
      <trkpt lat="48.60462" lon="1.95393">
        <ele>103.48</ele>
        <time>2020-08-27T08:01:56Z</time>
      </trkpt>
      <trkpt lat="48.60462" lon="1.95395">
        <ele>103.48</ele>
        <time>2020-08-27T08:01:57Z</time>
      </trkpt>
      <trkpt lat="48.60461" lon="1.95397">
        <ele>103.48</ele>
        <time>2020-08-27T08:01:58Z</time>
      </trkpt>
      <trkpt lat="48.6046" lon="1.954">
        <ele>103.48</ele>
        <time>2020-08-27T08:01:59Z</time>
      </trkpt>
      <trkpt lat="48.6046" lon="1.95402">
        <ele>103.96</ele>
        <time>2020-08-27T08:02:00Z</time>
      </trkpt>
      <trkpt lat="48.60459" lon="1.95404">
        <ele>103.48</ele>
        <time>2020-08-27T08:02:01Z</time>
      </trkpt>
      <trkpt lat="48.60457" lon="1.95407">
        <ele>103.48</ele>
        <time>2020-08-27T08:02:02Z</time>
      </trkpt>
      <trkpt lat="48.60456" lon="1.95411">
        <ele>103.48</ele>
        <time>2020-08-27T08:02:03Z</time>
      </trkpt>
      <trkpt lat="48.60455" lon="1.95413">
        <ele>103.48</ele>
        <time>2020-08-27T08:02:04Z</time>
      </trkpt>
      <trkpt lat="48.60454" lon="1.95416">
        <ele>103.48</ele>
        <time>2020-08-27T08:02:05Z</time>
      </trkpt>
      <trkpt lat="48.60453" lon="1.95417">
        <ele>103.48</ele>
        <time>2020-08-27T08:02:06Z</time>
      </trkpt>
      <trkpt lat="48.60452" lon="1.95419">
        <ele>103.48</ele>
        <time>2020-08-27T08:02:07Z</time>
      </trkpt>
      <trkpt lat="48.60452" lon="1.95421">
        <ele>103</ele>
        <time>2020-08-27T08:02:08Z</time>
      </trkpt>
      <trkpt lat="48.60451" lon="1.95422">
        <ele>103</ele>
        <time>2020-08-27T08:02:09Z</time>
      </trkpt>
      <trkpt lat="48.6045" lon="1.95423">
        <ele>103</ele>
        <time>2020-08-27T08:02:10Z</time>
      </trkpt>
      <trkpt lat="48.60449" lon="1.95425">
        <ele>103.48</ele>
        <time>2020-08-27T08:02:11Z</time>
      </trkpt>
      <trkpt lat="48.60448" lon="1.95425">
        <ele>103.48</ele>
        <time>2020-08-27T08:02:12Z</time>
      </trkpt>
      <trkpt lat="48.60448" lon="1.95426">
        <ele>103.48</ele>
        <time>2020-08-27T08:02:13Z</time>
      </trkpt>
      <trkpt lat="48.60448" lon="1.95427">
        <ele>103.48</ele>
        <time>2020-08-27T08:02:14Z</time>
      </trkpt>
      <trkpt lat="48.60448" lon="1.95427">
        <ele>103.48</ele>
        <time>2020-08-27T08:02:15Z</time>
      </trkpt>
      <trkpt lat="48.60447" lon="1.95428">
        <ele>103</ele>
        <time>2020-08-27T08:02:16Z</time>
      </trkpt>
      <trkpt lat="48.60447" lon="1.9543">
        <ele>103</ele>
        <time>2020-08-27T08:02:17Z</time>
      </trkpt>
      <trkpt lat="48.60446" lon="1.95431">
        <ele>103</ele>
        <time>2020-08-27T08:02:18Z</time>
      </trkpt>
      <trkpt lat="48.60445" lon="1.95433">
        <ele>102.52</ele>
        <time>2020-08-27T08:02:19Z</time>
      </trkpt>
      <trkpt lat="48.60444" lon="1.95435">
        <ele>103</ele>
        <time>2020-08-27T08:02:20Z</time>
      </trkpt>
      <trkpt lat="48.60443" lon="1.95436">
        <ele>103</ele>
        <time>2020-08-27T08:02:21Z</time>
      </trkpt>
      <trkpt lat="48.60442" lon="1.95439">
        <ele>103</ele>
        <time>2020-08-27T08:02:22Z</time>
      </trkpt>
      <trkpt lat="48.60441" lon="1.95442">
        <ele>103.48</ele>
        <time>2020-08-27T08:02:23Z</time>
      </trkpt>
      <trkpt lat="48.6044" lon="1.95444">
        <ele>103</ele>
        <time>2020-08-27T08:02:24Z</time>
      </trkpt>
      <trkpt lat="48.60439" lon="1.95446">
        <ele>103</ele>
        <time>2020-08-27T08:02:25Z</time>
      </trkpt>
      <trkpt lat="48.60438" lon="1.95448">
        <ele>103</ele>
        <time>2020-08-27T08:02:26Z</time>
      </trkpt>
      <trkpt lat="48.60437" lon="1.95449">
        <ele>103</ele>
        <time>2020-08-27T08:02:27Z</time>
      </trkpt>
      <trkpt lat="48.60436" lon="1.95451">
        <ele>103</ele>
        <time>2020-08-27T08:02:28Z</time>
      </trkpt>
      <trkpt lat="48.60436" lon="1.95453">
        <ele>103</ele>
        <time>2020-08-27T08:02:29Z</time>
      </trkpt>
      <trkpt lat="48.60436" lon="1.95455">
        <ele>103</ele>
        <time>2020-08-27T08:02:30Z</time>
      </trkpt>
      <trkpt lat="48.60435" lon="1.95456">
        <ele>102.52</ele>
        <time>2020-08-27T08:02:31Z</time>
      </trkpt>
      <trkpt lat="48.60435" lon="1.95457">
        <ele>102.52</ele>
        <time>2020-08-27T08:02:32Z</time>
      </trkpt>
      <trkpt lat="48.60434" lon="1.95458">
        <ele>102.52</ele>
        <time>2020-08-27T08:02:33Z</time>
      </trkpt>
      <trkpt lat="48.60433" lon="1.9546">
        <ele>103</ele>
        <time>2020-08-27T08:02:34Z</time>
      </trkpt>
      <trkpt lat="48.60432" lon="1.95461">
        <ele>102.52</ele>
        <time>2020-08-27T08:02:35Z</time>
      </trkpt>
      <trkpt lat="48.6043" lon="1.95464">
        <ele>103</ele>
        <time>2020-08-27T08:02:36Z</time>
      </trkpt>
      <trkpt lat="48.60429" lon="1.95466">
        <ele>102.52</ele>
        <time>2020-08-27T08:02:37Z</time>
      </trkpt>
      <trkpt lat="48.60427" lon="1.95468">
        <ele>102.52</ele>
        <time>2020-08-27T08:02:38Z</time>
      </trkpt>
      <trkpt lat="48.60426" lon="1.9547">
        <ele>102.52</ele>
        <time>2020-08-27T08:02:39Z</time>
      </trkpt>
      <trkpt lat="48.60425" lon="1.95472">
        <ele>103</ele>
        <time>2020-08-27T08:02:40Z</time>
      </trkpt>
      <trkpt lat="48.60423" lon="1.95475">
        <ele>102.52</ele>
        <time>2020-08-27T08:02:41Z</time>
      </trkpt>
      <trkpt lat="48.60422" lon="1.95477">
        <ele>102.52</ele>
        <time>2020-08-27T08:02:42Z</time>
      </trkpt>
      <trkpt lat="48.6042" lon="1.95479">
        <ele>102.52</ele>
        <time>2020-08-27T08:02:43Z</time>
      </trkpt>
      <trkpt lat="48.60419" lon="1.95482">
        <ele>102.52</ele>
        <time>2020-08-27T08:02:44Z</time>
      </trkpt>
      <trkpt lat="48.60418" lon="1.95484">
        <ele>103</ele>
        <time>2020-08-27T08:02:45Z</time>
      </trkpt>
      <trkpt lat="48.60418" lon="1.95487">
        <ele>103</ele>
        <time>2020-08-27T08:02:46Z</time>
      </trkpt>
      <trkpt lat="48.60417" lon="1.95489">
        <ele>102.52</ele>
        <time>2020-08-27T08:02:47Z</time>
      </trkpt>
      <trkpt lat="48.60417" lon="1.9549">
        <ele>103</ele>
        <time>2020-08-27T08:02:48Z</time>
      </trkpt>
      <trkpt lat="48.60416" lon="1.95491">
        <ele>102.52</ele>
        <time>2020-08-27T08:02:49Z</time>
      </trkpt>
      <trkpt lat="48.60416" lon="1.95491">
        <ele>103</ele>
        <time>2020-08-27T08:02:50Z</time>
      </trkpt>
      <trkpt lat="48.60414" lon="1.95493">
        <ele>103</ele>
        <time>2020-08-27T08:02:51Z</time>
      </trkpt>
      <trkpt lat="48.60413" lon="1.95494">
        <ele>102.52</ele>
        <time>2020-08-27T08:02:52Z</time>
      </trkpt>
      <trkpt lat="48.60412" lon="1.95495">
        <ele>102.52</ele>
        <time>2020-08-27T08:02:53Z</time>
      </trkpt>
      <trkpt lat="48.60411" lon="1.95497">
        <ele>102.52</ele>
        <time>2020-08-27T08:02:54Z</time>
      </trkpt>
      <trkpt lat="48.6041" lon="1.95499">
        <ele>103</ele>
        <time>2020-08-27T08:02:55Z</time>
      </trkpt>
      <trkpt lat="48.60409" lon="1.95501">
        <ele>102.52</ele>
        <time>2020-08-27T08:02:56Z</time>
      </trkpt>
      <trkpt lat="48.60407" lon="1.95503">
        <ele>102.52</ele>
        <time>2020-08-27T08:02:57Z</time>
      </trkpt>
      <trkpt lat="48.60406" lon="1.95505">
        <ele>102.52</ele>
        <time>2020-08-27T08:02:58Z</time>
      </trkpt>
      <trkpt lat="48.60405" lon="1.95507">
        <ele>102.52</ele>
        <time>2020-08-27T08:02:59Z</time>
      </trkpt>
      <trkpt lat="48.60405" lon="1.95509">
        <ele>102.04</ele>
        <time>2020-08-27T08:03:00Z</time>
      </trkpt>
      <trkpt lat="48.60404" lon="1.95511">
        <ele>102.04</ele>
        <time>2020-08-27T08:03:01Z</time>
      </trkpt>
      <trkpt lat="48.60403" lon="1.95513">
        <ele>102.04</ele>
        <time>2020-08-27T08:03:02Z</time>
      </trkpt>
      <trkpt lat="48.60403" lon="1.95514">
        <ele>102.04</ele>
        <time>2020-08-27T08:03:03Z</time>
      </trkpt>
      <trkpt lat="48.60402" lon="1.95516">
        <ele>101.56</ele>
        <time>2020-08-27T08:03:04Z</time>
      </trkpt>
      <trkpt lat="48.60402" lon="1.95518">
        <ele>102.04</ele>
        <time>2020-08-27T08:03:05Z</time>
      </trkpt>
      <trkpt lat="48.60401" lon="1.9552">
        <ele>102.52</ele>
        <time>2020-08-27T08:03:06Z</time>
      </trkpt>
      <trkpt lat="48.604" lon="1.95522">
        <ele>102.04</ele>
        <time>2020-08-27T08:03:07Z</time>
      </trkpt>
      <trkpt lat="48.604" lon="1.95525">
        <ele>102.04</ele>
        <time>2020-08-27T08:03:08Z</time>
      </trkpt>
      <trkpt lat="48.60399" lon="1.95527">
        <ele>102.04</ele>
        <time>2020-08-27T08:03:09Z</time>
      </trkpt>
      <trkpt lat="48.60399" lon="1.95528">
        <ele>102.04</ele>
        <time>2020-08-27T08:03:10Z</time>
      </trkpt>
      <trkpt lat="48.60399" lon="1.95529">
        <ele>101.56</ele>
        <time>2020-08-27T08:03:11Z</time>
      </trkpt>
      <trkpt lat="48.60398" lon="1.95529">
        <ele>101.56</ele>
        <time>2020-08-27T08:03:12Z</time>
      </trkpt>
      <trkpt lat="48.60398" lon="1.95531">
        <ele>102.04</ele>
        <time>2020-08-27T08:03:13Z</time>
      </trkpt>
      <trkpt lat="48.60397" lon="1.95532">
        <ele>101.56</ele>
        <time>2020-08-27T08:03:14Z</time>
      </trkpt>
      <trkpt lat="48.60397" lon="1.95532">
        <ele>101.56</ele>
        <time>2020-08-27T08:03:15Z</time>
      </trkpt>
      <trkpt lat="48.60396" lon="1.95534">
        <ele>101.08</ele>
        <time>2020-08-27T08:03:16Z</time>
      </trkpt>
      <trkpt lat="48.60396" lon="1.95536">
        <ele>101.56</ele>
        <time>2020-08-27T08:03:17Z</time>
      </trkpt>
      <trkpt lat="48.60395" lon="1.95537">
        <ele>101.56</ele>
        <time>2020-08-27T08:03:18Z</time>
      </trkpt>
      <trkpt lat="48.60394" lon="1.95539">
        <ele>101.08</ele>
        <time>2020-08-27T08:03:19Z</time>
      </trkpt>
      <trkpt lat="48.60394" lon="1.95542">
        <ele>101.08</ele>
        <time>2020-08-27T08:03:20Z</time>
      </trkpt>
      <trkpt lat="48.60393" lon="1.95544">
        <ele>101.56</ele>
        <time>2020-08-27T08:03:21Z</time>
      </trkpt>
      <trkpt lat="48.60392" lon="1.95546">
        <ele>101.56</ele>
        <time>2020-08-27T08:03:22Z</time>
      </trkpt>
      <trkpt lat="48.60391" lon="1.95548">
        <ele>101.56</ele>
        <time>2020-08-27T08:03:23Z</time>
      </trkpt>
      <trkpt lat="48.6039" lon="1.9555">
        <ele>101.56</ele>
        <time>2020-08-27T08:03:24Z</time>
      </trkpt>
      <trkpt lat="48.60389" lon="1.95552">
        <ele>101.56</ele>
        <time>2020-08-27T08:03:25Z</time>
      </trkpt>
      <trkpt lat="48.60387" lon="1.95554">
        <ele>101.08</ele>
        <time>2020-08-27T08:03:26Z</time>
      </trkpt>
      <trkpt lat="48.60386" lon="1.95556">
        <ele>101.56</ele>
        <time>2020-08-27T08:03:27Z</time>
      </trkpt>
      <trkpt lat="48.60385" lon="1.95557">
        <ele>101.08</ele>
        <time>2020-08-27T08:03:28Z</time>
      </trkpt>
      <trkpt lat="48.60384" lon="1.95559">
        <ele>101.08</ele>
        <time>2020-08-27T08:03:29Z</time>
      </trkpt>
      <trkpt lat="48.60383" lon="1.9556">
        <ele>100.6</ele>
        <time>2020-08-27T08:03:30Z</time>
      </trkpt>
      <trkpt lat="48.60383" lon="1.95562">
        <ele>101.56</ele>
        <time>2020-08-27T08:03:31Z</time>
      </trkpt>
      <trkpt lat="48.60382" lon="1.95563">
        <ele>101.08</ele>
        <time>2020-08-27T08:03:32Z</time>
      </trkpt>
      <trkpt lat="48.60382" lon="1.95564">
        <ele>100.6</ele>
        <time>2020-08-27T08:03:33Z</time>
      </trkpt>
      <trkpt lat="48.60381" lon="1.95565">
        <ele>100.6</ele>
        <time>2020-08-27T08:03:34Z</time>
      </trkpt>
      <trkpt lat="48.60381" lon="1.95567">
        <ele>100.6</ele>
        <time>2020-08-27T08:03:35Z</time>
      </trkpt>
      <trkpt lat="48.6038" lon="1.95568">
        <ele>101.08</ele>
        <time>2020-08-27T08:03:36Z</time>
      </trkpt>
      <trkpt lat="48.60379" lon="1.95569">
        <ele>100.6</ele>
        <time>2020-08-27T08:03:37Z</time>
      </trkpt>
      <trkpt lat="48.60378" lon="1.9557">
        <ele>100.6</ele>
        <time>2020-08-27T08:03:38Z</time>
      </trkpt>
      <trkpt lat="48.60377" lon="1.95572">
        <ele>101.08</ele>
        <time>2020-08-27T08:03:39Z</time>
      </trkpt>
      <trkpt lat="48.60376" lon="1.95573">
        <ele>100.6</ele>
        <time>2020-08-27T08:03:40Z</time>
      </trkpt>
      <trkpt lat="48.60375" lon="1.95576">
        <ele>100.6</ele>
        <time>2020-08-27T08:03:41Z</time>
      </trkpt>
      <trkpt lat="48.60374" lon="1.95579">
        <ele>100.6</ele>
        <time>2020-08-27T08:03:42Z</time>
      </trkpt>
      <trkpt lat="48.60373" lon="1.95581">
        <ele>100.6</ele>
        <time>2020-08-27T08:03:43Z</time>
      </trkpt>
      <trkpt lat="48.60373" lon="1.95584">
        <ele>100.6</ele>
        <time>2020-08-27T08:03:44Z</time>
      </trkpt>
      <trkpt lat="48.60372" lon="1.95586">
        <ele>101.08</ele>
        <time>2020-08-27T08:03:45Z</time>
      </trkpt>
      <trkpt lat="48.60373" lon="1.9559">
        <ele>100.6</ele>
        <time>2020-08-27T08:03:46Z</time>
      </trkpt>
      <trkpt lat="48.60373" lon="1.95593">
        <ele>101.08</ele>
        <time>2020-08-27T08:03:47Z</time>
      </trkpt>
      <trkpt lat="48.60374" lon="1.95595">
        <ele>101.08</ele>
        <time>2020-08-27T08:03:48Z</time>
      </trkpt>
      <trkpt lat="48.60375" lon="1.95598">
        <ele>101.08</ele>
        <time>2020-08-27T08:03:49Z</time>
      </trkpt>
      <trkpt lat="48.60376" lon="1.956">
        <ele>101.08</ele>
        <time>2020-08-27T08:03:50Z</time>
      </trkpt>
      <trkpt lat="48.60377" lon="1.95602">
        <ele>100.6</ele>
        <time>2020-08-27T08:03:51Z</time>
      </trkpt>
      <trkpt lat="48.60378" lon="1.95603">
        <ele>100.6</ele>
        <time>2020-08-27T08:03:52Z</time>
      </trkpt>
      <trkpt lat="48.60378" lon="1.95605">
        <ele>100.6</ele>
        <time>2020-08-27T08:03:53Z</time>
      </trkpt>
      <trkpt lat="48.60379" lon="1.95606">
        <ele>101.08</ele>
        <time>2020-08-27T08:03:54Z</time>
      </trkpt>
      <trkpt lat="48.6038" lon="1.95609">
        <ele>101.08</ele>
        <time>2020-08-27T08:03:55Z</time>
      </trkpt>
      <trkpt lat="48.60381" lon="1.9561">
        <ele>101.08</ele>
        <time>2020-08-27T08:03:56Z</time>
      </trkpt>
      <trkpt lat="48.60382" lon="1.95612">
        <ele>101.08</ele>
        <time>2020-08-27T08:03:57Z</time>
      </trkpt>
      <trkpt lat="48.60383" lon="1.95614">
        <ele>100.6</ele>
        <time>2020-08-27T08:03:58Z</time>
      </trkpt>
      <trkpt lat="48.60384" lon="1.95616">
        <ele>101.08</ele>
        <time>2020-08-27T08:03:59Z</time>
      </trkpt>
      <trkpt lat="48.60385" lon="1.95618">
        <ele>101.08</ele>
        <time>2020-08-27T08:04:00Z</time>
      </trkpt>
      <trkpt lat="48.60386" lon="1.9562">
        <ele>100.6</ele>
        <time>2020-08-27T08:04:01Z</time>
      </trkpt>
      <trkpt lat="48.60387" lon="1.95621">
        <ele>101.08</ele>
        <time>2020-08-27T08:04:02Z</time>
      </trkpt>
      <trkpt lat="48.60387" lon="1.95622">
        <ele>101.08</ele>
        <time>2020-08-27T08:04:03Z</time>
      </trkpt>
      <trkpt lat="48.60388" lon="1.95624">
        <ele>101.08</ele>
        <time>2020-08-27T08:04:04Z</time>
      </trkpt>
      <trkpt lat="48.60389" lon="1.95625">
        <ele>101.08</ele>
        <time>2020-08-27T08:04:05Z</time>
      </trkpt>
      <trkpt lat="48.6039" lon="1.95625">
        <ele>101.08</ele>
        <time>2020-08-27T08:04:06Z</time>
      </trkpt>
      <trkpt lat="48.60391" lon="1.95625">
        <ele>101.08</ele>
        <time>2020-08-27T08:04:07Z</time>
      </trkpt>
      <trkpt lat="48.60392" lon="1.95625">
        <ele>101.08</ele>
        <time>2020-08-27T08:04:08Z</time>
      </trkpt>
      <trkpt lat="48.60392" lon="1.95625">
        <ele>101.08</ele>
        <time>2020-08-27T08:04:09Z</time>
      </trkpt>
      <trkpt lat="48.60392" lon="1.95625">
        <ele>101.08</ele>
        <time>2020-08-27T08:04:10Z</time>
      </trkpt>
      <trkpt lat="48.60392" lon="1.95625">
        <ele>100.6</ele>
        <time>2020-08-27T08:04:11Z</time>
      </trkpt>
      <trkpt lat="48.60392" lon="1.95626">
        <ele>101.08</ele>
        <time>2020-08-27T08:04:19Z</time>
      </trkpt>
      <trkpt lat="48.60392" lon="1.95626">
        <ele>100.6</ele>
        <time>2020-08-27T08:04:20Z</time>
      </trkpt>
      <trkpt lat="48.60392" lon="1.95626">
        <ele>101.08</ele>
        <time>2020-08-27T08:04:21Z</time>
      </trkpt>
      <trkpt lat="48.60392" lon="1.95625">
        <ele>101.08</ele>
        <time>2020-08-27T08:04:22Z</time>
      </trkpt>
      <trkpt lat="48.60392" lon="1.95624">
        <ele>100.6</ele>
        <time>2020-08-27T08:04:23Z</time>
      </trkpt>
      <trkpt lat="48.60392" lon="1.95624">
        <ele>101.08</ele>
        <time>2020-08-27T08:04:24Z</time>
      </trkpt>
      <trkpt lat="48.60392" lon="1.95624">
        <ele>100.6</ele>
        <time>2020-08-27T08:04:25Z</time>
      </trkpt>
      <trkpt lat="48.60392" lon="1.95624">
        <ele>101.08</ele>
        <time>2020-08-27T08:04:26Z</time>
      </trkpt>
      <trkpt lat="48.60392" lon="1.95623">
        <ele>100.6</ele>
        <time>2020-08-27T08:04:27Z</time>
      </trkpt>
      <trkpt lat="48.60392" lon="1.95624">
        <ele>101.08</ele>
        <time>2020-08-27T08:04:28Z</time>
      </trkpt>
      <trkpt lat="48.60392" lon="1.95625">
        <ele>100.6</ele>
        <time>2020-08-27T08:04:29Z</time>
      </trkpt>
      <trkpt lat="48.60393" lon="1.95626">
        <ele>101.08</ele>
        <time>2020-08-27T08:04:30Z</time>
      </trkpt>
      <trkpt lat="48.60394" lon="1.95628">
        <ele>100.6</ele>
        <time>2020-08-27T08:04:31Z</time>
      </trkpt>
      <trkpt lat="48.60395" lon="1.95629">
        <ele>100.6</ele>
        <time>2020-08-27T08:04:32Z</time>
      </trkpt>
      <trkpt lat="48.60395" lon="1.9563">
        <ele>101.08</ele>
        <time>2020-08-27T08:04:33Z</time>
      </trkpt>
      <trkpt lat="48.60396" lon="1.95631">
        <ele>100.6</ele>
        <time>2020-08-27T08:04:34Z</time>
      </trkpt>
      <trkpt lat="48.60396" lon="1.95632">
        <ele>100.6</ele>
        <time>2020-08-27T08:04:35Z</time>
      </trkpt>
      <trkpt lat="48.60397" lon="1.95633">
        <ele>100.6</ele>
        <time>2020-08-27T08:04:36Z</time>
      </trkpt>
      <trkpt lat="48.60397" lon="1.95633">
        <ele>100.6</ele>
        <time>2020-08-27T08:04:37Z</time>
      </trkpt>
      <trkpt lat="48.60398" lon="1.95634">
        <ele>100.6</ele>
        <time>2020-08-27T08:04:38Z</time>
      </trkpt>
      <trkpt lat="48.604" lon="1.95636">
        <ele>100.6</ele>
        <time>2020-08-27T08:04:39Z</time>
      </trkpt>
      <trkpt lat="48.60401" lon="1.95637">
        <ele>100.6</ele>
        <time>2020-08-27T08:04:40Z</time>
      </trkpt>
      <trkpt lat="48.60402" lon="1.95639">
        <ele>100.6</ele>
        <time>2020-08-27T08:04:41Z</time>
      </trkpt>
      <trkpt lat="48.60404" lon="1.9564">
        <ele>100.6</ele>
        <time>2020-08-27T08:04:42Z</time>
      </trkpt>
      <trkpt lat="48.60405" lon="1.95642">
        <ele>100.6</ele>
        <time>2020-08-27T08:04:43Z</time>
      </trkpt>
      <trkpt lat="48.60406" lon="1.95644">
        <ele>100.6</ele>
        <time>2020-08-27T08:04:44Z</time>
      </trkpt>
      <trkpt lat="48.60407" lon="1.95645">
        <ele>101.08</ele>
        <time>2020-08-27T08:04:45Z</time>
      </trkpt>
      <trkpt lat="48.60408" lon="1.95646">
        <ele>100.6</ele>
        <time>2020-08-27T08:04:46Z</time>
      </trkpt>
      <trkpt lat="48.60408" lon="1.95647">
        <ele>100.6</ele>
        <time>2020-08-27T08:04:47Z</time>
      </trkpt>
      <trkpt lat="48.60409" lon="1.95649">
        <ele>100.6</ele>
        <time>2020-08-27T08:04:48Z</time>
      </trkpt>
      <trkpt lat="48.60411" lon="1.9565">
        <ele>100.6</ele>
        <time>2020-08-27T08:04:49Z</time>
      </trkpt>
      <trkpt lat="48.60412" lon="1.95651">
        <ele>100.6</ele>
        <time>2020-08-27T08:04:50Z</time>
      </trkpt>
      <trkpt lat="48.60413" lon="1.95652">
        <ele>100.11</ele>
        <time>2020-08-27T08:04:51Z</time>
      </trkpt>
      <trkpt lat="48.60414" lon="1.95654">
        <ele>100.6</ele>
        <time>2020-08-27T08:04:52Z</time>
      </trkpt>
      <trkpt lat="48.60415" lon="1.95655">
        <ele>101.08</ele>
        <time>2020-08-27T08:04:53Z</time>
      </trkpt>
      <trkpt lat="48.60416" lon="1.95655">
        <ele>100.6</ele>
        <time>2020-08-27T08:04:54Z</time>
      </trkpt>
      <trkpt lat="48.60417" lon="1.95655">
        <ele>100.6</ele>
        <time>2020-08-27T08:04:55Z</time>
      </trkpt>
      <trkpt lat="48.60418" lon="1.95656">
        <ele>100.6</ele>
        <time>2020-08-27T08:04:56Z</time>
      </trkpt>
      <trkpt lat="48.60419" lon="1.95657">
        <ele>100.6</ele>
        <time>2020-08-27T08:04:57Z</time>
      </trkpt>
      <trkpt lat="48.6042" lon="1.95658">
        <ele>100.6</ele>
        <time>2020-08-27T08:04:58Z</time>
      </trkpt>
      <trkpt lat="48.6042" lon="1.95659">
        <ele>100.6</ele>
        <time>2020-08-27T08:04:59Z</time>
      </trkpt>
      <trkpt lat="48.60421" lon="1.9566">
        <ele>100.6</ele>
        <time>2020-08-27T08:05:00Z</time>
      </trkpt>
      <trkpt lat="48.60422" lon="1.95662">
        <ele>100.6</ele>
        <time>2020-08-27T08:05:01Z</time>
      </trkpt>
      <trkpt lat="48.60423" lon="1.95664">
        <ele>100.6</ele>
        <time>2020-08-27T08:05:02Z</time>
      </trkpt>
      <trkpt lat="48.60424" lon="1.95666">
        <ele>100.6</ele>
        <time>2020-08-27T08:05:03Z</time>
      </trkpt>
      <trkpt lat="48.60425" lon="1.95667">
        <ele>100.6</ele>
        <time>2020-08-27T08:05:04Z</time>
      </trkpt>
      <trkpt lat="48.60426" lon="1.95668">
        <ele>100.11</ele>
        <time>2020-08-27T08:05:05Z</time>
      </trkpt>
      <trkpt lat="48.60427" lon="1.9567">
        <ele>100.11</ele>
        <time>2020-08-27T08:05:06Z</time>
      </trkpt>
      <trkpt lat="48.60428" lon="1.95671">
        <ele>100.11</ele>
        <time>2020-08-27T08:05:07Z</time>
      </trkpt>
      <trkpt lat="48.60429" lon="1.95673">
        <ele>100.11</ele>
        <time>2020-08-27T08:05:08Z</time>
      </trkpt>
      <trkpt lat="48.60431" lon="1.95674">
        <ele>100.11</ele>
        <time>2020-08-27T08:05:09Z</time>
      </trkpt>
      <trkpt lat="48.60432" lon="1.95676">
        <ele>99.63</ele>
        <time>2020-08-27T08:05:10Z</time>
      </trkpt>
      <trkpt lat="48.60433" lon="1.95676">
        <ele>100.11</ele>
        <time>2020-08-27T08:05:11Z</time>
      </trkpt>
      <trkpt lat="48.60434" lon="1.95677">
        <ele>99.63</ele>
        <time>2020-08-27T08:05:12Z</time>
      </trkpt>
      <trkpt lat="48.60435" lon="1.95678">
        <ele>99.15</ele>
        <time>2020-08-27T08:05:13Z</time>
      </trkpt>
      <trkpt lat="48.60436" lon="1.95679">
        <ele>99.63</ele>
        <time>2020-08-27T08:05:14Z</time>
      </trkpt>
      <trkpt lat="48.60437" lon="1.9568">
        <ele>99.15</ele>
        <time>2020-08-27T08:05:15Z</time>
      </trkpt>
      <trkpt lat="48.60439" lon="1.95681">
        <ele>99.63</ele>
        <time>2020-08-27T08:05:16Z</time>
      </trkpt>
      <trkpt lat="48.6044" lon="1.95683">
        <ele>99.63</ele>
        <time>2020-08-27T08:05:17Z</time>
      </trkpt>
      <trkpt lat="48.60442" lon="1.95684">
        <ele>99.63</ele>
        <time>2020-08-27T08:05:18Z</time>
      </trkpt>
      <trkpt lat="48.60443" lon="1.95685">
        <ele>99.63</ele>
        <time>2020-08-27T08:05:19Z</time>
      </trkpt>
      <trkpt lat="48.60445" lon="1.95686">
        <ele>99.15</ele>
        <time>2020-08-27T08:05:20Z</time>
      </trkpt>
      <trkpt lat="48.60446" lon="1.95686">
        <ele>99.15</ele>
        <time>2020-08-27T08:05:21Z</time>
      </trkpt>
      <trkpt lat="48.60447" lon="1.95687">
        <ele>99.63</ele>
        <time>2020-08-27T08:05:22Z</time>
      </trkpt>
      <trkpt lat="48.60449" lon="1.95688">
        <ele>99.15</ele>
        <time>2020-08-27T08:05:23Z</time>
      </trkpt>
      <trkpt lat="48.6045" lon="1.95688">
        <ele>99.63</ele>
        <time>2020-08-27T08:05:24Z</time>
      </trkpt>
      <trkpt lat="48.60451" lon="1.95689">
        <ele>99.15</ele>
        <time>2020-08-27T08:05:25Z</time>
      </trkpt>
      <trkpt lat="48.60452" lon="1.95689">
        <ele>99.15</ele>
        <time>2020-08-27T08:05:26Z</time>
      </trkpt>
      <trkpt lat="48.60453" lon="1.9569">
        <ele>99.63</ele>
        <time>2020-08-27T08:05:27Z</time>
      </trkpt>
      <trkpt lat="48.60454" lon="1.95691">
        <ele>99.63</ele>
        <time>2020-08-27T08:05:28Z</time>
      </trkpt>
      <trkpt lat="48.60455" lon="1.95692">
        <ele>99.63</ele>
        <time>2020-08-27T08:05:29Z</time>
      </trkpt>
      <trkpt lat="48.60457" lon="1.95693">
        <ele>99.63</ele>
        <time>2020-08-27T08:05:30Z</time>
      </trkpt>
      <trkpt lat="48.60459" lon="1.95695">
        <ele>100.11</ele>
        <time>2020-08-27T08:05:31Z</time>
      </trkpt>
      <trkpt lat="48.60461" lon="1.95697">
        <ele>99.63</ele>
        <time>2020-08-27T08:05:32Z</time>
      </trkpt>
      <trkpt lat="48.60462" lon="1.957">
        <ele>99.63</ele>
        <time>2020-08-27T08:05:33Z</time>
      </trkpt>
      <trkpt lat="48.60464" lon="1.95701">
        <ele>99.63</ele>
        <time>2020-08-27T08:05:34Z</time>
      </trkpt>
      <trkpt lat="48.60465" lon="1.95704">
        <ele>99.15</ele>
        <time>2020-08-27T08:05:35Z</time>
      </trkpt>
      <trkpt lat="48.60466" lon="1.95706">
        <ele>99.63</ele>
        <time>2020-08-27T08:05:36Z</time>
      </trkpt>
      <trkpt lat="48.60467" lon="1.95709">
        <ele>99.15</ele>
        <time>2020-08-27T08:05:37Z</time>
      </trkpt>
      <trkpt lat="48.60468" lon="1.95712">
        <ele>99.15</ele>
        <time>2020-08-27T08:05:38Z</time>
      </trkpt>
      <trkpt lat="48.60469" lon="1.95714">
        <ele>99.63</ele>
        <time>2020-08-27T08:05:39Z</time>
      </trkpt>
      <trkpt lat="48.6047" lon="1.95716">
        <ele>100.11</ele>
        <time>2020-08-27T08:05:40Z</time>
      </trkpt>
      <trkpt lat="48.60471" lon="1.95718">
        <ele>99.63</ele>
        <time>2020-08-27T08:05:41Z</time>
      </trkpt>
      <trkpt lat="48.60472" lon="1.95719">
        <ele>99.63</ele>
        <time>2020-08-27T08:05:42Z</time>
      </trkpt>
      <trkpt lat="48.60473" lon="1.95721">
        <ele>99.63</ele>
        <time>2020-08-27T08:05:43Z</time>
      </trkpt>
      <trkpt lat="48.60473" lon="1.95721">
        <ele>99.15</ele>
        <time>2020-08-27T08:05:44Z</time>
      </trkpt>
      <trkpt lat="48.60474" lon="1.95721">
        <ele>100.11</ele>
        <time>2020-08-27T08:05:45Z</time>
      </trkpt>
      <trkpt lat="48.60474" lon="1.95722">
        <ele>99.63</ele>
        <time>2020-08-27T08:05:46Z</time>
      </trkpt>
      <trkpt lat="48.60475" lon="1.95723">
        <ele>99.15</ele>
        <time>2020-08-27T08:05:47Z</time>
      </trkpt>
      <trkpt lat="48.60476" lon="1.95725">
        <ele>100.11</ele>
        <time>2020-08-27T08:05:48Z</time>
      </trkpt>
      <trkpt lat="48.60477" lon="1.95727">
        <ele>100.11</ele>
        <time>2020-08-27T08:05:49Z</time>
      </trkpt>
      <trkpt lat="48.60479" lon="1.95728">
        <ele>99.63</ele>
        <time>2020-08-27T08:05:50Z</time>
      </trkpt>
      <trkpt lat="48.6048" lon="1.9573">
        <ele>99.63</ele>
        <time>2020-08-27T08:05:51Z</time>
      </trkpt>
      <trkpt lat="48.60481" lon="1.95731">
        <ele>99.63</ele>
        <time>2020-08-27T08:05:52Z</time>
      </trkpt>
      <trkpt lat="48.60482" lon="1.95732">
        <ele>99.15</ele>
        <time>2020-08-27T08:05:53Z</time>
      </trkpt>
      <trkpt lat="48.60483" lon="1.95734">
        <ele>99.15</ele>
        <time>2020-08-27T08:05:54Z</time>
      </trkpt>
      <trkpt lat="48.60484" lon="1.95735">
        <ele>99.15</ele>
        <time>2020-08-27T08:05:55Z</time>
      </trkpt>
      <trkpt lat="48.60485" lon="1.95736">
        <ele>99.63</ele>
        <time>2020-08-27T08:05:56Z</time>
      </trkpt>
      <trkpt lat="48.60486" lon="1.95737">
        <ele>99.63</ele>
        <time>2020-08-27T08:05:57Z</time>
      </trkpt>
      <trkpt lat="48.60487" lon="1.95739">
        <ele>99.15</ele>
        <time>2020-08-27T08:05:58Z</time>
      </trkpt>
      <trkpt lat="48.60487" lon="1.95741">
        <ele>99.63</ele>
        <time>2020-08-27T08:05:59Z</time>
      </trkpt>
      <trkpt lat="48.60489" lon="1.95742">
        <ele>99.15</ele>
        <time>2020-08-27T08:06:00Z</time>
      </trkpt>
      <trkpt lat="48.6049" lon="1.95743">
        <ele>99.15</ele>
        <time>2020-08-27T08:06:01Z</time>
      </trkpt>
      <trkpt lat="48.60491" lon="1.95744">
        <ele>99.15</ele>
        <time>2020-08-27T08:06:02Z</time>
      </trkpt>
      <trkpt lat="48.60493" lon="1.95745">
        <ele>99.15</ele>
        <time>2020-08-27T08:06:03Z</time>
      </trkpt>
      <trkpt lat="48.60495" lon="1.95745">
        <ele>99.15</ele>
        <time>2020-08-27T08:06:04Z</time>
      </trkpt>
      <trkpt lat="48.60496" lon="1.95746">
        <ele>99.63</ele>
        <time>2020-08-27T08:06:05Z</time>
      </trkpt>
      <trkpt lat="48.60497" lon="1.95747">
        <ele>99.15</ele>
        <time>2020-08-27T08:06:06Z</time>
      </trkpt>
      <trkpt lat="48.60497" lon="1.95747">
        <ele>99.15</ele>
        <time>2020-08-27T08:06:07Z</time>
      </trkpt>
      <trkpt lat="48.60498" lon="1.95749">
        <ele>99.15</ele>
        <time>2020-08-27T08:06:08Z</time>
      </trkpt>
      <trkpt lat="48.60499" lon="1.9575">
        <ele>99.15</ele>
        <time>2020-08-27T08:06:09Z</time>
      </trkpt>
      <trkpt lat="48.605" lon="1.95752">
        <ele>99.15</ele>
        <time>2020-08-27T08:06:10Z</time>
      </trkpt>
      <trkpt lat="48.60501" lon="1.95753">
        <ele>99.63</ele>
        <time>2020-08-27T08:06:11Z</time>
      </trkpt>
      <trkpt lat="48.60502" lon="1.95755">
        <ele>99.15</ele>
        <time>2020-08-27T08:06:12Z</time>
      </trkpt>
      <trkpt lat="48.60503" lon="1.95756">
        <ele>99.15</ele>
        <time>2020-08-27T08:06:13Z</time>
      </trkpt>
      <trkpt lat="48.60504" lon="1.95757">
        <ele>99.15</ele>
        <time>2020-08-27T08:06:14Z</time>
      </trkpt>
      <trkpt lat="48.60505" lon="1.95758">
        <ele>99.15</ele>
        <time>2020-08-27T08:06:15Z</time>
      </trkpt>
      <trkpt lat="48.60506" lon="1.95759">
        <ele>99.15</ele>
        <time>2020-08-27T08:06:16Z</time>
      </trkpt>
      <trkpt lat="48.60507" lon="1.9576">
        <ele>99.15</ele>
        <time>2020-08-27T08:06:17Z</time>
      </trkpt>
      <trkpt lat="48.60508" lon="1.95761">
        <ele>98.67</ele>
        <time>2020-08-27T08:06:18Z</time>
      </trkpt>
      <trkpt lat="48.6051" lon="1.95762">
        <ele>99.15</ele>
        <time>2020-08-27T08:06:19Z</time>
      </trkpt>
      <trkpt lat="48.60511" lon="1.95763">
        <ele>99.15</ele>
        <time>2020-08-27T08:06:20Z</time>
      </trkpt>
      <trkpt lat="48.60512" lon="1.95764">
        <ele>99.15</ele>
        <time>2020-08-27T08:06:21Z</time>
      </trkpt>
      <trkpt lat="48.60513" lon="1.95765">
        <ele>98.67</ele>
        <time>2020-08-27T08:06:22Z</time>
      </trkpt>
      <trkpt lat="48.60515" lon="1.95766">
        <ele>98.67</ele>
        <time>2020-08-27T08:06:23Z</time>
      </trkpt>
      <trkpt lat="48.60516" lon="1.95767">
        <ele>98.67</ele>
        <time>2020-08-27T08:06:24Z</time>
      </trkpt>
      <trkpt lat="48.60517" lon="1.95768">
        <ele>98.67</ele>
        <time>2020-08-27T08:06:25Z</time>
      </trkpt>
      <trkpt lat="48.60518" lon="1.9577">
        <ele>98.67</ele>
        <time>2020-08-27T08:06:26Z</time>
      </trkpt>
      <trkpt lat="48.60519" lon="1.95771">
        <ele>98.19</ele>
        <time>2020-08-27T08:06:27Z</time>
      </trkpt>
      <trkpt lat="48.60521" lon="1.95773">
        <ele>98.19</ele>
        <time>2020-08-27T08:06:28Z</time>
      </trkpt>
      <trkpt lat="48.60523" lon="1.95775">
        <ele>98.19</ele>
        <time>2020-08-27T08:06:29Z</time>
      </trkpt>
      <trkpt lat="48.60524" lon="1.95777">
        <ele>98.19</ele>
        <time>2020-08-27T08:06:30Z</time>
      </trkpt>
      <trkpt lat="48.60525" lon="1.95779">
        <ele>98.19</ele>
        <time>2020-08-27T08:06:31Z</time>
      </trkpt>
      <trkpt lat="48.60527" lon="1.9578">
        <ele>98.19</ele>
        <time>2020-08-27T08:06:32Z</time>
      </trkpt>
      <trkpt lat="48.60528" lon="1.95781">
        <ele>98.19</ele>
        <time>2020-08-27T08:06:33Z</time>
      </trkpt>
      <trkpt lat="48.60529" lon="1.95781">
        <ele>97.71</ele>
        <time>2020-08-27T08:06:34Z</time>
      </trkpt>
      <trkpt lat="48.60531" lon="1.95782">
        <ele>97.71</ele>
        <time>2020-08-27T08:06:35Z</time>
      </trkpt>
      <trkpt lat="48.60532" lon="1.95783">
        <ele>97.71</ele>
        <time>2020-08-27T08:06:36Z</time>
      </trkpt>
      <trkpt lat="48.60533" lon="1.95785">
        <ele>97.71</ele>
        <time>2020-08-27T08:06:37Z</time>
      </trkpt>
      <trkpt lat="48.60534" lon="1.95785">
        <ele>97.71</ele>
        <time>2020-08-27T08:06:38Z</time>
      </trkpt>
      <trkpt lat="48.60535" lon="1.95786">
        <ele>97.71</ele>
        <time>2020-08-27T08:06:39Z</time>
      </trkpt>
      <trkpt lat="48.60535" lon="1.95787">
        <ele>97.23</ele>
        <time>2020-08-27T08:06:40Z</time>
      </trkpt>
      <trkpt lat="48.60536" lon="1.95788">
        <ele>97.23</ele>
        <time>2020-08-27T08:06:41Z</time>
      </trkpt>
      <trkpt lat="48.60536" lon="1.9579">
        <ele>97.23</ele>
        <time>2020-08-27T08:06:42Z</time>
      </trkpt>
      <trkpt lat="48.60537" lon="1.95792">
        <ele>97.71</ele>
        <time>2020-08-27T08:06:43Z</time>
      </trkpt>
      <trkpt lat="48.60539" lon="1.95794">
        <ele>97.23</ele>
        <time>2020-08-27T08:06:44Z</time>
      </trkpt>
      <trkpt lat="48.6054" lon="1.95796">
        <ele>97.23</ele>
        <time>2020-08-27T08:06:45Z</time>
      </trkpt>
      <trkpt lat="48.60541" lon="1.95798">
        <ele>97.23</ele>
        <time>2020-08-27T08:06:46Z</time>
      </trkpt>
      <trkpt lat="48.60541" lon="1.958">
        <ele>97.23</ele>
        <time>2020-08-27T08:06:47Z</time>
      </trkpt>
      <trkpt lat="48.60542" lon="1.95801">
        <ele>97.23</ele>
        <time>2020-08-27T08:06:48Z</time>
      </trkpt>
      <trkpt lat="48.60543" lon="1.95802">
        <ele>97.23</ele>
        <time>2020-08-27T08:06:49Z</time>
      </trkpt>
      <trkpt lat="48.60544" lon="1.95803">
        <ele>97.23</ele>
        <time>2020-08-27T08:06:50Z</time>
      </trkpt>
      <trkpt lat="48.60545" lon="1.95804">
        <ele>97.23</ele>
        <time>2020-08-27T08:06:51Z</time>
      </trkpt>
      <trkpt lat="48.60546" lon="1.95805">
        <ele>97.23</ele>
        <time>2020-08-27T08:06:52Z</time>
      </trkpt>
      <trkpt lat="48.60547" lon="1.95806">
        <ele>97.23</ele>
        <time>2020-08-27T08:06:53Z</time>
      </trkpt>
      <trkpt lat="48.60548" lon="1.95807">
        <ele>97.23</ele>
        <time>2020-08-27T08:06:54Z</time>
      </trkpt>
      <trkpt lat="48.60549" lon="1.95808">
        <ele>97.23</ele>
        <time>2020-08-27T08:06:55Z</time>
      </trkpt>
      <trkpt lat="48.60549" lon="1.9581">
        <ele>97.23</ele>
        <time>2020-08-27T08:06:56Z</time>
      </trkpt>
      <trkpt lat="48.6055" lon="1.95812">
        <ele>97.23</ele>
        <time>2020-08-27T08:06:57Z</time>
      </trkpt>
      <trkpt lat="48.60551" lon="1.95814">
        <ele>96.75</ele>
        <time>2020-08-27T08:06:58Z</time>
      </trkpt>
      <trkpt lat="48.60551" lon="1.95815">
        <ele>97.71</ele>
        <time>2020-08-27T08:06:59Z</time>
      </trkpt>
      <trkpt lat="48.60552" lon="1.95816">
        <ele>97.23</ele>
        <time>2020-08-27T08:07:00Z</time>
      </trkpt>
      <trkpt lat="48.60553" lon="1.95818">
        <ele>97.23</ele>
        <time>2020-08-27T08:07:01Z</time>
      </trkpt>
      <trkpt lat="48.60555" lon="1.95819">
        <ele>97.23</ele>
        <time>2020-08-27T08:07:02Z</time>
      </trkpt>
      <trkpt lat="48.60557" lon="1.9582">
        <ele>97.23</ele>
        <time>2020-08-27T08:07:03Z</time>
      </trkpt>
      <trkpt lat="48.60559" lon="1.95821">
        <ele>97.23</ele>
        <time>2020-08-27T08:07:04Z</time>
      </trkpt>
      <trkpt lat="48.60561" lon="1.95823">
        <ele>97.23</ele>
        <time>2020-08-27T08:07:05Z</time>
      </trkpt>
      <trkpt lat="48.60563" lon="1.95823">
        <ele>97.23</ele>
        <time>2020-08-27T08:07:06Z</time>
      </trkpt>
      <trkpt lat="48.60565" lon="1.95825">
        <ele>96.75</ele>
        <time>2020-08-27T08:07:07Z</time>
      </trkpt>
      <trkpt lat="48.60566" lon="1.95826">
        <ele>96.75</ele>
        <time>2020-08-27T08:07:08Z</time>
      </trkpt>
      <trkpt lat="48.60567" lon="1.95827">
        <ele>97.71</ele>
        <time>2020-08-27T08:07:09Z</time>
      </trkpt>
      <trkpt lat="48.60569" lon="1.95827">
        <ele>97.71</ele>
        <time>2020-08-27T08:07:10Z</time>
      </trkpt>
      <trkpt lat="48.60571" lon="1.95828">
        <ele>97.71</ele>
        <time>2020-08-27T08:07:11Z</time>
      </trkpt>
      <trkpt lat="48.60572" lon="1.95829">
        <ele>97.23</ele>
        <time>2020-08-27T08:07:12Z</time>
      </trkpt>
      <trkpt lat="48.60573" lon="1.9583">
        <ele>97.71</ele>
        <time>2020-08-27T08:07:13Z</time>
      </trkpt>
      <trkpt lat="48.60574" lon="1.95831">
        <ele>97.71</ele>
        <time>2020-08-27T08:07:14Z</time>
      </trkpt>
      <trkpt lat="48.60575" lon="1.95832">
        <ele>97.71</ele>
        <time>2020-08-27T08:07:15Z</time>
      </trkpt>
      <trkpt lat="48.60576" lon="1.95834">
        <ele>97.71</ele>
        <time>2020-08-27T08:07:16Z</time>
      </trkpt>
      <trkpt lat="48.60577" lon="1.95835">
        <ele>97.23</ele>
        <time>2020-08-27T08:07:17Z</time>
      </trkpt>
      <trkpt lat="48.60578" lon="1.95836">
        <ele>97.71</ele>
        <time>2020-08-27T08:07:18Z</time>
      </trkpt>
      <trkpt lat="48.60579" lon="1.95838">
        <ele>98.19</ele>
        <time>2020-08-27T08:07:19Z</time>
      </trkpt>
      <trkpt lat="48.6058" lon="1.95839">
        <ele>98.19</ele>
        <time>2020-08-27T08:07:20Z</time>
      </trkpt>
      <trkpt lat="48.60581" lon="1.9584">
        <ele>97.71</ele>
        <time>2020-08-27T08:07:21Z</time>
      </trkpt>
      <trkpt lat="48.60582" lon="1.95841">
        <ele>98.19</ele>
        <time>2020-08-27T08:07:22Z</time>
      </trkpt>
      <trkpt lat="48.60584" lon="1.95842">
        <ele>98.19</ele>
        <time>2020-08-27T08:07:23Z</time>
      </trkpt>
      <trkpt lat="48.60584" lon="1.95843">
        <ele>98.19</ele>
        <time>2020-08-27T08:07:24Z</time>
      </trkpt>
      <trkpt lat="48.60585" lon="1.95844">
        <ele>97.71</ele>
        <time>2020-08-27T08:07:25Z</time>
      </trkpt>
      <trkpt lat="48.60587" lon="1.95846">
        <ele>97.71</ele>
        <time>2020-08-27T08:07:26Z</time>
      </trkpt>
      <trkpt lat="48.60588" lon="1.95848">
        <ele>97.71</ele>
        <time>2020-08-27T08:07:27Z</time>
      </trkpt>
      <trkpt lat="48.60589" lon="1.9585">
        <ele>97.71</ele>
        <time>2020-08-27T08:07:28Z</time>
      </trkpt>
      <trkpt lat="48.6059" lon="1.95851">
        <ele>97.71</ele>
        <time>2020-08-27T08:07:29Z</time>
      </trkpt>
      <trkpt lat="48.60591" lon="1.95853">
        <ele>97.71</ele>
        <time>2020-08-27T08:07:30Z</time>
      </trkpt>
      <trkpt lat="48.60592" lon="1.95855">
        <ele>98.19</ele>
        <time>2020-08-27T08:07:31Z</time>
      </trkpt>
      <trkpt lat="48.60594" lon="1.95856">
        <ele>97.71</ele>
        <time>2020-08-27T08:07:32Z</time>
      </trkpt>
      <trkpt lat="48.60595" lon="1.95858">
        <ele>97.23</ele>
        <time>2020-08-27T08:07:33Z</time>
      </trkpt>
      <trkpt lat="48.60596" lon="1.95859">
        <ele>97.71</ele>
        <time>2020-08-27T08:07:34Z</time>
      </trkpt>
      <trkpt lat="48.60597" lon="1.9586">
        <ele>97.23</ele>
        <time>2020-08-27T08:07:35Z</time>
      </trkpt>
      <trkpt lat="48.60598" lon="1.95861">
        <ele>97.23</ele>
        <time>2020-08-27T08:07:36Z</time>
      </trkpt>
      <trkpt lat="48.60599" lon="1.95862">
        <ele>97.23</ele>
        <time>2020-08-27T08:07:37Z</time>
      </trkpt>
      <trkpt lat="48.606" lon="1.95863">
        <ele>97.23</ele>
        <time>2020-08-27T08:07:38Z</time>
      </trkpt>
      <trkpt lat="48.60601" lon="1.95864">
        <ele>97.23</ele>
        <time>2020-08-27T08:07:39Z</time>
      </trkpt>
      <trkpt lat="48.60602" lon="1.95865">
        <ele>97.23</ele>
        <time>2020-08-27T08:07:40Z</time>
      </trkpt>
      <trkpt lat="48.60603" lon="1.95866">
        <ele>97.23</ele>
        <time>2020-08-27T08:07:41Z</time>
      </trkpt>
      <trkpt lat="48.60604" lon="1.95868">
        <ele>97.23</ele>
        <time>2020-08-27T08:07:42Z</time>
      </trkpt>
      <trkpt lat="48.60606" lon="1.9587">
        <ele>97.23</ele>
        <time>2020-08-27T08:07:43Z</time>
      </trkpt>
      <trkpt lat="48.60607" lon="1.95871">
        <ele>97.71</ele>
        <time>2020-08-27T08:07:44Z</time>
      </trkpt>
      <trkpt lat="48.60609" lon="1.95873">
        <ele>97.71</ele>
        <time>2020-08-27T08:07:45Z</time>
      </trkpt>
      <trkpt lat="48.6061" lon="1.95875">
        <ele>97.71</ele>
        <time>2020-08-27T08:07:46Z</time>
      </trkpt>
      <trkpt lat="48.60611" lon="1.95876">
        <ele>97.23</ele>
        <time>2020-08-27T08:07:47Z</time>
      </trkpt>
      <trkpt lat="48.60613" lon="1.95878">
        <ele>97.23</ele>
        <time>2020-08-27T08:07:48Z</time>
      </trkpt>
      <trkpt lat="48.60615" lon="1.9588">
        <ele>98.19</ele>
        <time>2020-08-27T08:07:49Z</time>
      </trkpt>
      <trkpt lat="48.60616" lon="1.95882">
        <ele>97.23</ele>
        <time>2020-08-27T08:07:50Z</time>
      </trkpt>
      <trkpt lat="48.60617" lon="1.95883">
        <ele>97.71</ele>
        <time>2020-08-27T08:07:51Z</time>
      </trkpt>
      <trkpt lat="48.60618" lon="1.95885">
        <ele>97.23</ele>
        <time>2020-08-27T08:07:52Z</time>
      </trkpt>
      <trkpt lat="48.60619" lon="1.95887">
        <ele>97.23</ele>
        <time>2020-08-27T08:07:53Z</time>
      </trkpt>
      <trkpt lat="48.60621" lon="1.95888">
        <ele>97.23</ele>
        <time>2020-08-27T08:07:54Z</time>
      </trkpt>
      <trkpt lat="48.60623" lon="1.9589">
        <ele>97.71</ele>
        <time>2020-08-27T08:07:55Z</time>
      </trkpt>
      <trkpt lat="48.60624" lon="1.95892">
        <ele>97.71</ele>
        <time>2020-08-27T08:07:56Z</time>
      </trkpt>
      <trkpt lat="48.60626" lon="1.95893">
        <ele>97.71</ele>
        <time>2020-08-27T08:07:57Z</time>
      </trkpt>
      <trkpt lat="48.60627" lon="1.95895">
        <ele>97.71</ele>
        <time>2020-08-27T08:07:58Z</time>
      </trkpt>
      <trkpt lat="48.60629" lon="1.95896">
        <ele>97.71</ele>
        <time>2020-08-27T08:07:59Z</time>
      </trkpt>
      <trkpt lat="48.60631" lon="1.95897">
        <ele>97.23</ele>
        <time>2020-08-27T08:08:00Z</time>
      </trkpt>
      <trkpt lat="48.60632" lon="1.95898">
        <ele>97.23</ele>
        <time>2020-08-27T08:08:01Z</time>
      </trkpt>
      <trkpt lat="48.60634" lon="1.959">
        <ele>97.23</ele>
        <time>2020-08-27T08:08:02Z</time>
      </trkpt>
      <trkpt lat="48.60635" lon="1.95901">
        <ele>97.23</ele>
        <time>2020-08-27T08:08:03Z</time>
      </trkpt>
      <trkpt lat="48.60636" lon="1.95902">
        <ele>96.75</ele>
        <time>2020-08-27T08:08:04Z</time>
      </trkpt>
      <trkpt lat="48.60637" lon="1.95903">
        <ele>96.75</ele>
        <time>2020-08-27T08:08:05Z</time>
      </trkpt>
      <trkpt lat="48.60639" lon="1.95905">
        <ele>96.75</ele>
        <time>2020-08-27T08:08:06Z</time>
      </trkpt>
      <trkpt lat="48.6064" lon="1.95906">
        <ele>97.23</ele>
        <time>2020-08-27T08:08:07Z</time>
      </trkpt>
      <trkpt lat="48.60641" lon="1.95907">
        <ele>97.23</ele>
        <time>2020-08-27T08:08:08Z</time>
      </trkpt>
      <trkpt lat="48.60642" lon="1.95907">
        <ele>97.23</ele>
        <time>2020-08-27T08:08:09Z</time>
      </trkpt>
      <trkpt lat="48.60642" lon="1.95908">
        <ele>97.23</ele>
        <time>2020-08-27T08:08:10Z</time>
      </trkpt>
      <trkpt lat="48.60643" lon="1.95908">
        <ele>97.23</ele>
        <time>2020-08-27T08:08:11Z</time>
      </trkpt>
      <trkpt lat="48.60644" lon="1.95909">
        <ele>97.23</ele>
        <time>2020-08-27T08:08:12Z</time>
      </trkpt>
      <trkpt lat="48.60645" lon="1.9591">
        <ele>97.23</ele>
        <time>2020-08-27T08:08:13Z</time>
      </trkpt>
      <trkpt lat="48.60646" lon="1.95911">
        <ele>97.23</ele>
        <time>2020-08-27T08:08:14Z</time>
      </trkpt>
      <trkpt lat="48.60646" lon="1.95912">
        <ele>97.23</ele>
        <time>2020-08-27T08:08:15Z</time>
      </trkpt>
      <trkpt lat="48.60647" lon="1.95913">
        <ele>96.75</ele>
        <time>2020-08-27T08:08:16Z</time>
      </trkpt>
      <trkpt lat="48.60648" lon="1.95915">
        <ele>96.75</ele>
        <time>2020-08-27T08:08:17Z</time>
      </trkpt>
      <trkpt lat="48.6065" lon="1.95917">
        <ele>96.75</ele>
        <time>2020-08-27T08:08:18Z</time>
      </trkpt>
      <trkpt lat="48.60651" lon="1.95919">
        <ele>96.75</ele>
        <time>2020-08-27T08:08:19Z</time>
      </trkpt>
      <trkpt lat="48.60652" lon="1.95921">
        <ele>97.23</ele>
        <time>2020-08-27T08:08:20Z</time>
      </trkpt>
      <trkpt lat="48.60653" lon="1.95923">
        <ele>97.23</ele>
        <time>2020-08-27T08:08:21Z</time>
      </trkpt>
      <trkpt lat="48.60654" lon="1.95925">
        <ele>96.75</ele>
        <time>2020-08-27T08:08:22Z</time>
      </trkpt>
      <trkpt lat="48.60655" lon="1.95927">
        <ele>97.23</ele>
        <time>2020-08-27T08:08:23Z</time>
      </trkpt>
      <trkpt lat="48.60657" lon="1.95929">
        <ele>96.75</ele>
        <time>2020-08-27T08:08:24Z</time>
      </trkpt>
      <trkpt lat="48.60658" lon="1.95931">
        <ele>96.75</ele>
        <time>2020-08-27T08:08:25Z</time>
      </trkpt>
      <trkpt lat="48.6066" lon="1.95932">
        <ele>96.75</ele>
        <time>2020-08-27T08:08:26Z</time>
      </trkpt>
      <trkpt lat="48.60661" lon="1.95933">
        <ele>96.75</ele>
        <time>2020-08-27T08:08:27Z</time>
      </trkpt>
      <trkpt lat="48.60662" lon="1.95934">
        <ele>96.75</ele>
        <time>2020-08-27T08:08:28Z</time>
      </trkpt>
      <trkpt lat="48.60664" lon="1.95935">
        <ele>96.75</ele>
        <time>2020-08-27T08:08:29Z</time>
      </trkpt>
      <trkpt lat="48.60665" lon="1.95936">
        <ele>96.75</ele>
        <time>2020-08-27T08:08:30Z</time>
      </trkpt>
      <trkpt lat="48.60667" lon="1.95937">
        <ele>96.75</ele>
        <time>2020-08-27T08:08:31Z</time>
      </trkpt>
      <trkpt lat="48.60668" lon="1.95938">
        <ele>96.75</ele>
        <time>2020-08-27T08:08:32Z</time>
      </trkpt>
      <trkpt lat="48.6067" lon="1.95939">
        <ele>96.75</ele>
        <time>2020-08-27T08:08:33Z</time>
      </trkpt>
      <trkpt lat="48.60671" lon="1.9594">
        <ele>97.23</ele>
        <time>2020-08-27T08:08:34Z</time>
      </trkpt>
      <trkpt lat="48.60672" lon="1.95941">
        <ele>97.23</ele>
        <time>2020-08-27T08:08:35Z</time>
      </trkpt>
      <trkpt lat="48.60673" lon="1.95943">
        <ele>97.23</ele>
        <time>2020-08-27T08:08:36Z</time>
      </trkpt>
      <trkpt lat="48.60674" lon="1.95944">
        <ele>97.23</ele>
        <time>2020-08-27T08:08:37Z</time>
      </trkpt>
      <trkpt lat="48.60675" lon="1.95946">
        <ele>97.23</ele>
        <time>2020-08-27T08:08:38Z</time>
      </trkpt>
      <trkpt lat="48.60677" lon="1.95947">
        <ele>97.23</ele>
        <time>2020-08-27T08:08:39Z</time>
      </trkpt>
      <trkpt lat="48.60678" lon="1.95949">
        <ele>97.23</ele>
        <time>2020-08-27T08:08:40Z</time>
      </trkpt>
      <trkpt lat="48.60679" lon="1.95951">
        <ele>97.23</ele>
        <time>2020-08-27T08:08:41Z</time>
      </trkpt>
      <trkpt lat="48.6068" lon="1.95952">
        <ele>96.75</ele>
        <time>2020-08-27T08:08:42Z</time>
      </trkpt>
      <trkpt lat="48.60681" lon="1.95953">
        <ele>97.23</ele>
        <time>2020-08-27T08:08:43Z</time>
      </trkpt>
      <trkpt lat="48.60682" lon="1.95954">
        <ele>97.71</ele>
        <time>2020-08-27T08:08:44Z</time>
      </trkpt>
      <trkpt lat="48.60684" lon="1.95956">
        <ele>97.71</ele>
        <time>2020-08-27T08:08:45Z</time>
      </trkpt>
      <trkpt lat="48.60685" lon="1.95957">
        <ele>97.71</ele>
        <time>2020-08-27T08:08:46Z</time>
      </trkpt>
      <trkpt lat="48.60686" lon="1.95959">
        <ele>97.71</ele>
        <time>2020-08-27T08:08:47Z</time>
      </trkpt>
      <trkpt lat="48.60688" lon="1.9596">
        <ele>97.71</ele>
        <time>2020-08-27T08:08:48Z</time>
      </trkpt>
      <trkpt lat="48.60689" lon="1.95962">
        <ele>97.71</ele>
        <time>2020-08-27T08:08:49Z</time>
      </trkpt>
      <trkpt lat="48.6069" lon="1.95964">
        <ele>97.71</ele>
        <time>2020-08-27T08:08:50Z</time>
      </trkpt>
      <trkpt lat="48.60691" lon="1.95966">
        <ele>97.71</ele>
        <time>2020-08-27T08:08:51Z</time>
      </trkpt>
      <trkpt lat="48.60692" lon="1.95967">
        <ele>97.71</ele>
        <time>2020-08-27T08:08:52Z</time>
      </trkpt>
      <trkpt lat="48.60693" lon="1.95968">
        <ele>98.19</ele>
        <time>2020-08-27T08:08:53Z</time>
      </trkpt>
      <trkpt lat="48.60693" lon="1.95969">
        <ele>98.19</ele>
        <time>2020-08-27T08:08:54Z</time>
      </trkpt>
      <trkpt lat="48.60694" lon="1.9597">
        <ele>98.19</ele>
        <time>2020-08-27T08:08:55Z</time>
      </trkpt>
      <trkpt lat="48.60695" lon="1.95972">
        <ele>98.19</ele>
        <time>2020-08-27T08:08:56Z</time>
      </trkpt>
      <trkpt lat="48.60696" lon="1.95973">
        <ele>98.19</ele>
        <time>2020-08-27T08:08:57Z</time>
      </trkpt>
      <trkpt lat="48.60697" lon="1.95974">
        <ele>98.19</ele>
        <time>2020-08-27T08:08:58Z</time>
      </trkpt>
      <trkpt lat="48.60697" lon="1.95976">
        <ele>98.19</ele>
        <time>2020-08-27T08:08:59Z</time>
      </trkpt>
      <trkpt lat="48.60698" lon="1.95977">
        <ele>98.19</ele>
        <time>2020-08-27T08:09:00Z</time>
      </trkpt>
      <trkpt lat="48.60699" lon="1.95978">
        <ele>98.67</ele>
        <time>2020-08-27T08:09:01Z</time>
      </trkpt>
      <trkpt lat="48.607" lon="1.95979">
        <ele>98.19</ele>
        <time>2020-08-27T08:09:02Z</time>
      </trkpt>
      <trkpt lat="48.607" lon="1.9598">
        <ele>98.19</ele>
        <time>2020-08-27T08:09:03Z</time>
      </trkpt>
      <trkpt lat="48.60701" lon="1.95981">
        <ele>98.67</ele>
        <time>2020-08-27T08:09:04Z</time>
      </trkpt>
      <trkpt lat="48.60702" lon="1.95982">
        <ele>98.67</ele>
        <time>2020-08-27T08:09:05Z</time>
      </trkpt>
      <trkpt lat="48.60702" lon="1.95983">
        <ele>98.67</ele>
        <time>2020-08-27T08:09:06Z</time>
      </trkpt>
      <trkpt lat="48.60703" lon="1.95984">
        <ele>98.67</ele>
        <time>2020-08-27T08:09:07Z</time>
      </trkpt>
      <trkpt lat="48.60704" lon="1.95985">
        <ele>98.67</ele>
        <time>2020-08-27T08:09:08Z</time>
      </trkpt>
      <trkpt lat="48.60704" lon="1.95986">
        <ele>98.67</ele>
        <time>2020-08-27T08:09:09Z</time>
      </trkpt>
      <trkpt lat="48.60705" lon="1.95987">
        <ele>98.67</ele>
        <time>2020-08-27T08:09:10Z</time>
      </trkpt>
      <trkpt lat="48.60706" lon="1.95988">
        <ele>99.15</ele>
        <time>2020-08-27T08:09:11Z</time>
      </trkpt>
      <trkpt lat="48.60706" lon="1.95989">
        <ele>98.67</ele>
        <time>2020-08-27T08:09:12Z</time>
      </trkpt>
      <trkpt lat="48.60707" lon="1.95989">
        <ele>98.67</ele>
        <time>2020-08-27T08:09:13Z</time>
      </trkpt>
      <trkpt lat="48.60708" lon="1.9599">
        <ele>98.67</ele>
        <time>2020-08-27T08:09:14Z</time>
      </trkpt>
      <trkpt lat="48.60708" lon="1.9599">
        <ele>99.15</ele>
        <time>2020-08-27T08:09:15Z</time>
      </trkpt>
      <trkpt lat="48.60708" lon="1.95991">
        <ele>98.67</ele>
        <time>2020-08-27T08:09:16Z</time>
      </trkpt>
      <trkpt lat="48.60709" lon="1.95992">
        <ele>98.67</ele>
        <time>2020-08-27T08:09:17Z</time>
      </trkpt>
      <trkpt lat="48.60709" lon="1.95993">
        <ele>99.15</ele>
        <time>2020-08-27T08:09:18Z</time>
      </trkpt>
      <trkpt lat="48.6071" lon="1.95993">
        <ele>99.15</ele>
        <time>2020-08-27T08:09:19Z</time>
      </trkpt>
      <trkpt lat="48.60711" lon="1.95992">
        <ele>99.15</ele>
        <time>2020-08-27T08:09:20Z</time>
      </trkpt>
      <trkpt lat="48.60712" lon="1.95992">
        <ele>99.15</ele>
        <time>2020-08-27T08:09:21Z</time>
      </trkpt>
      <trkpt lat="48.60713" lon="1.95991">
        <ele>99.15</ele>
        <time>2020-08-27T08:09:22Z</time>
      </trkpt>
      <trkpt lat="48.60714" lon="1.95989">
        <ele>99.15</ele>
        <time>2020-08-27T08:09:23Z</time>
      </trkpt>
      <trkpt lat="48.60714" lon="1.95988">
        <ele>99.15</ele>
        <time>2020-08-27T08:09:34Z</time>
      </trkpt>
      <trkpt lat="48.60714" lon="1.95987">
        <ele>99.15</ele>
        <time>2020-08-27T08:09:35Z</time>
      </trkpt>
      <trkpt lat="48.60714" lon="1.95987">
        <ele>99.15</ele>
        <time>2020-08-27T08:09:36Z</time>
      </trkpt>
      <trkpt lat="48.60714" lon="1.95987">
        <ele>99.15</ele>
        <time>2020-08-27T08:09:37Z</time>
      </trkpt>
      <trkpt lat="48.60714" lon="1.95987">
        <ele>99.15</ele>
        <time>2020-08-27T08:09:38Z</time>
      </trkpt>
      <trkpt lat="48.60714" lon="1.95987">
        <ele>98.67</ele>
        <time>2020-08-27T08:09:39Z</time>
      </trkpt>
      <trkpt lat="48.60714" lon="1.95986">
        <ele>99.63</ele>
        <time>2020-08-27T08:09:40Z</time>
      </trkpt>
      <trkpt lat="48.60714" lon="1.95986">
        <ele>99.15</ele>
        <time>2020-08-27T08:09:41Z</time>
      </trkpt>
      <trkpt lat="48.60713" lon="1.95986">
        <ele>99.63</ele>
        <time>2020-08-27T08:10:15Z</time>
      </trkpt>
      <trkpt lat="48.60713" lon="1.95986">
        <ele>99.15</ele>
        <time>2020-08-27T08:10:16Z</time>
      </trkpt>
      <trkpt lat="48.60713" lon="1.95986">
        <ele>99.63</ele>
        <time>2020-08-27T08:10:17Z</time>
      </trkpt>
      <trkpt lat="48.60713" lon="1.95986">
        <ele>99.63</ele>
        <time>2020-08-27T08:10:18Z</time>
      </trkpt>
      <trkpt lat="48.60713" lon="1.95985">
        <ele>99.63</ele>
        <time>2020-08-27T08:10:19Z</time>
      </trkpt>
      <trkpt lat="48.60714" lon="1.95984">
        <ele>99.15</ele>
        <time>2020-08-27T08:10:50Z</time>
      </trkpt>
      <trkpt lat="48.60714" lon="1.95984">
        <ele>100.11</ele>
        <time>2020-08-27T08:10:51Z</time>
      </trkpt>
      <trkpt lat="48.60714" lon="1.95984">
        <ele>99.63</ele>
        <time>2020-08-27T08:10:53Z</time>
      </trkpt>
      <trkpt lat="48.60714" lon="1.95984">
        <ele>99.63</ele>
        <time>2020-08-27T08:10:54Z</time>
      </trkpt>
      <trkpt lat="48.60714" lon="1.95984">
        <ele>100.11</ele>
        <time>2020-08-27T08:11:22Z</time>
      </trkpt>
      <trkpt lat="48.60714" lon="1.95984">
        <ele>99.63</ele>
        <time>2020-08-27T08:11:23Z</time>
      </trkpt>
      <trkpt lat="48.60715" lon="1.95986">
        <ele>99.63</ele>
        <time>2020-08-27T08:11:24Z</time>
      </trkpt>
      <trkpt lat="48.60715" lon="1.95988">
        <ele>99.63</ele>
        <time>2020-08-27T08:11:25Z</time>
      </trkpt>
      <trkpt lat="48.60715" lon="1.9599">
        <ele>99.63</ele>
        <time>2020-08-27T08:11:26Z</time>
      </trkpt>
      <trkpt lat="48.60716" lon="1.95993">
        <ele>99.63</ele>
        <time>2020-08-27T08:11:27Z</time>
      </trkpt>
      <trkpt lat="48.60716" lon="1.95995">
        <ele>99.63</ele>
        <time>2020-08-27T08:11:28Z</time>
      </trkpt>
      <trkpt lat="48.60716" lon="1.95998">
        <ele>100.11</ele>
        <time>2020-08-27T08:11:29Z</time>
      </trkpt>
      <trkpt lat="48.60716" lon="1.95999">
        <ele>100.6</ele>
        <time>2020-08-27T08:11:30Z</time>
      </trkpt>
      <trkpt lat="48.60716" lon="1.96001">
        <ele>100.11</ele>
        <time>2020-08-27T08:11:31Z</time>
      </trkpt>
      <trkpt lat="48.60716" lon="1.96002">
        <ele>100.6</ele>
        <time>2020-08-27T08:11:32Z</time>
      </trkpt>
      <trkpt lat="48.60716" lon="1.96004">
        <ele>100.11</ele>
        <time>2020-08-27T08:11:33Z</time>
      </trkpt>
      <trkpt lat="48.60717" lon="1.96006">
        <ele>100.6</ele>
        <time>2020-08-27T08:11:34Z</time>
      </trkpt>
      <trkpt lat="48.60717" lon="1.96008">
        <ele>100.6</ele>
        <time>2020-08-27T08:11:35Z</time>
      </trkpt>
      <trkpt lat="48.60718" lon="1.9601">
        <ele>100.11</ele>
        <time>2020-08-27T08:11:36Z</time>
      </trkpt>
      <trkpt lat="48.60718" lon="1.96013">
        <ele>100.11</ele>
        <time>2020-08-27T08:11:37Z</time>
      </trkpt>
      <trkpt lat="48.60717" lon="1.96016">
        <ele>100.6</ele>
        <time>2020-08-27T08:11:38Z</time>
      </trkpt>
      <trkpt lat="48.60717" lon="1.96019">
        <ele>101.08</ele>
        <time>2020-08-27T08:11:39Z</time>
      </trkpt>
      <trkpt lat="48.60716" lon="1.96023">
        <ele>101.08</ele>
        <time>2020-08-27T08:11:40Z</time>
      </trkpt>
      <trkpt lat="48.60717" lon="1.96025">
        <ele>101.08</ele>
        <time>2020-08-27T08:11:41Z</time>
      </trkpt>
      <trkpt lat="48.60717" lon="1.96028">
        <ele>101.08</ele>
        <time>2020-08-27T08:11:42Z</time>
      </trkpt>
      <trkpt lat="48.60717" lon="1.9603">
        <ele>101.08</ele>
        <time>2020-08-27T08:11:43Z</time>
      </trkpt>
      <trkpt lat="48.60717" lon="1.96033">
        <ele>101.08</ele>
        <time>2020-08-27T08:11:44Z</time>
      </trkpt>
      <trkpt lat="48.60718" lon="1.96035">
        <ele>101.08</ele>
        <time>2020-08-27T08:11:45Z</time>
      </trkpt>
      <trkpt lat="48.60718" lon="1.96037">
        <ele>101.56</ele>
        <time>2020-08-27T08:11:46Z</time>
      </trkpt>
      <trkpt lat="48.60718" lon="1.96039">
        <ele>102.04</ele>
        <time>2020-08-27T08:11:47Z</time>
      </trkpt>
      <trkpt lat="48.60719" lon="1.96041">
        <ele>101.56</ele>
        <time>2020-08-27T08:11:48Z</time>
      </trkpt>
      <trkpt lat="48.60719" lon="1.96044">
        <ele>102.04</ele>
        <time>2020-08-27T08:11:49Z</time>
      </trkpt>
      <trkpt lat="48.60718" lon="1.96047">
        <ele>101.56</ele>
        <time>2020-08-27T08:11:50Z</time>
      </trkpt>
      <trkpt lat="48.60718" lon="1.9605">
        <ele>101.56</ele>
        <time>2020-08-27T08:11:51Z</time>
      </trkpt>
      <trkpt lat="48.60717" lon="1.96052">
        <ele>101.56</ele>
        <time>2020-08-27T08:11:52Z</time>
      </trkpt>
      <trkpt lat="48.60717" lon="1.96053">
        <ele>102.52</ele>
        <time>2020-08-27T08:11:53Z</time>
      </trkpt>
      <trkpt lat="48.60717" lon="1.96055">
        <ele>102.52</ele>
        <time>2020-08-27T08:11:54Z</time>
      </trkpt>
      <trkpt lat="48.60717" lon="1.96056">
        <ele>102.04</ele>
        <time>2020-08-27T08:11:55Z</time>
      </trkpt>
      <trkpt lat="48.60717" lon="1.96057">
        <ele>103.48</ele>
        <time>2020-08-27T08:11:56Z</time>
      </trkpt>
      <trkpt lat="48.60717" lon="1.96058">
        <ele>103</ele>
        <time>2020-08-27T08:11:57Z</time>
      </trkpt>
      <trkpt lat="48.60716" lon="1.9606">
        <ele>103</ele>
        <time>2020-08-27T08:11:58Z</time>
      </trkpt>
      <trkpt lat="48.60716" lon="1.96062">
        <ele>103</ele>
        <time>2020-08-27T08:11:59Z</time>
      </trkpt>
      <trkpt lat="48.60716" lon="1.96064">
        <ele>103</ele>
        <time>2020-08-27T08:12:00Z</time>
      </trkpt>
      <trkpt lat="48.60716" lon="1.96066">
        <ele>103.48</ele>
        <time>2020-08-27T08:12:01Z</time>
      </trkpt>
      <trkpt lat="48.60715" lon="1.96067">
        <ele>103.48</ele>
        <time>2020-08-27T08:12:02Z</time>
      </trkpt>
      <trkpt lat="48.60715" lon="1.96069">
        <ele>103.48</ele>
        <time>2020-08-27T08:12:03Z</time>
      </trkpt>
      <trkpt lat="48.60715" lon="1.96071">
        <ele>103</ele>
        <time>2020-08-27T08:12:04Z</time>
      </trkpt>
      <trkpt lat="48.60715" lon="1.96073">
        <ele>103.48</ele>
        <time>2020-08-27T08:12:05Z</time>
      </trkpt>
      <trkpt lat="48.60716" lon="1.96074">
        <ele>103.48</ele>
        <time>2020-08-27T08:12:06Z</time>
      </trkpt>
      <trkpt lat="48.60716" lon="1.96076">
        <ele>103.96</ele>
        <time>2020-08-27T08:12:07Z</time>
      </trkpt>
      <trkpt lat="48.60716" lon="1.96077">
        <ele>104.44</ele>
        <time>2020-08-27T08:12:08Z</time>
      </trkpt>
      <trkpt lat="48.60716" lon="1.96079">
        <ele>104.44</ele>
        <time>2020-08-27T08:12:09Z</time>
      </trkpt>
      <trkpt lat="48.60716" lon="1.96081">
        <ele>104.44</ele>
        <time>2020-08-27T08:12:10Z</time>
      </trkpt>
      <trkpt lat="48.60716" lon="1.96083">
        <ele>104.44</ele>
        <time>2020-08-27T08:12:11Z</time>
      </trkpt>
      <trkpt lat="48.60716" lon="1.96085">
        <ele>104.44</ele>
        <time>2020-08-27T08:12:12Z</time>
      </trkpt>
      <trkpt lat="48.60716" lon="1.96087">
        <ele>103.96</ele>
        <time>2020-08-27T08:12:13Z</time>
      </trkpt>
      <trkpt lat="48.60716" lon="1.96089">
        <ele>104.44</ele>
        <time>2020-08-27T08:12:14Z</time>
      </trkpt>
      <trkpt lat="48.60717" lon="1.96091">
        <ele>105.4</ele>
        <time>2020-08-27T08:12:15Z</time>
      </trkpt>
      <trkpt lat="48.60717" lon="1.96093">
        <ele>105.4</ele>
        <time>2020-08-27T08:12:16Z</time>
      </trkpt>
      <trkpt lat="48.60716" lon="1.96095">
        <ele>105.4</ele>
        <time>2020-08-27T08:12:17Z</time>
      </trkpt>
      <trkpt lat="48.60716" lon="1.96096">
        <ele>105.4</ele>
        <time>2020-08-27T08:12:18Z</time>
      </trkpt>
      <trkpt lat="48.60715" lon="1.96098">
        <ele>104.92</ele>
        <time>2020-08-27T08:12:19Z</time>
      </trkpt>
      <trkpt lat="48.60714" lon="1.96099">
        <ele>105.4</ele>
        <time>2020-08-27T08:12:20Z</time>
      </trkpt>
      <trkpt lat="48.60714" lon="1.96102">
        <ele>104.92</ele>
        <time>2020-08-27T08:12:21Z</time>
      </trkpt>
      <trkpt lat="48.60712" lon="1.96104">
        <ele>105.88</ele>
        <time>2020-08-27T08:12:22Z</time>
      </trkpt>
      <trkpt lat="48.60712" lon="1.96106">
        <ele>105.4</ele>
        <time>2020-08-27T08:12:23Z</time>
      </trkpt>
      <trkpt lat="48.60711" lon="1.96109">
        <ele>105.88</ele>
        <time>2020-08-27T08:12:24Z</time>
      </trkpt>
      <trkpt lat="48.60711" lon="1.9611">
        <ele>105.88</ele>
        <time>2020-08-27T08:12:25Z</time>
      </trkpt>
      <trkpt lat="48.6071" lon="1.96111">
        <ele>105.4</ele>
        <time>2020-08-27T08:12:26Z</time>
      </trkpt>
      <trkpt lat="48.6071" lon="1.96113">
        <ele>105.88</ele>
        <time>2020-08-27T08:12:27Z</time>
      </trkpt>
      <trkpt lat="48.60709" lon="1.96114">
        <ele>105.88</ele>
        <time>2020-08-27T08:12:28Z</time>
      </trkpt>
      <trkpt lat="48.60707" lon="1.96115">
        <ele>105.88</ele>
        <time>2020-08-27T08:12:29Z</time>
      </trkpt>
      <trkpt lat="48.60706" lon="1.96117">
        <ele>105.88</ele>
        <time>2020-08-27T08:12:30Z</time>
      </trkpt>
      <trkpt lat="48.60705" lon="1.96118">
        <ele>106.36</ele>
        <time>2020-08-27T08:12:31Z</time>
      </trkpt>
      <trkpt lat="48.60704" lon="1.9612">
        <ele>106.84</ele>
        <time>2020-08-27T08:12:32Z</time>
      </trkpt>
      <trkpt lat="48.60703" lon="1.96122">
        <ele>106.84</ele>
        <time>2020-08-27T08:12:33Z</time>
      </trkpt>
      <trkpt lat="48.60702" lon="1.96124">
        <ele>106.36</ele>
        <time>2020-08-27T08:12:34Z</time>
      </trkpt>
      <trkpt lat="48.60701" lon="1.96125">
        <ele>106.84</ele>
        <time>2020-08-27T08:12:35Z</time>
      </trkpt>
      <trkpt lat="48.60701" lon="1.96127">
        <ele>106.84</ele>
        <time>2020-08-27T08:12:36Z</time>
      </trkpt>
      <trkpt lat="48.60701" lon="1.96128">
        <ele>106.84</ele>
        <time>2020-08-27T08:12:37Z</time>
      </trkpt>
      <trkpt lat="48.607" lon="1.9613">
        <ele>107.32</ele>
        <time>2020-08-27T08:12:38Z</time>
      </trkpt>
      <trkpt lat="48.607" lon="1.96131">
        <ele>107.81</ele>
        <time>2020-08-27T08:12:39Z</time>
      </trkpt>
      <trkpt lat="48.60699" lon="1.96132">
        <ele>107.32</ele>
        <time>2020-08-27T08:12:40Z</time>
      </trkpt>
      <trkpt lat="48.60698" lon="1.96134">
        <ele>107.32</ele>
        <time>2020-08-27T08:12:41Z</time>
      </trkpt>
      <trkpt lat="48.60698" lon="1.96136">
        <ele>107.32</ele>
        <time>2020-08-27T08:12:42Z</time>
      </trkpt>
      <trkpt lat="48.60697" lon="1.96137">
        <ele>107.81</ele>
        <time>2020-08-27T08:12:43Z</time>
      </trkpt>
      <trkpt lat="48.60696" lon="1.96139">
        <ele>107.81</ele>
        <time>2020-08-27T08:12:44Z</time>
      </trkpt>
      <trkpt lat="48.60695" lon="1.96142">
        <ele>107.81</ele>
        <time>2020-08-27T08:12:45Z</time>
      </trkpt>
      <trkpt lat="48.60694" lon="1.96144">
        <ele>107.81</ele>
        <time>2020-08-27T08:12:46Z</time>
      </trkpt>
      <trkpt lat="48.60694" lon="1.96147">
        <ele>107.81</ele>
        <time>2020-08-27T08:12:47Z</time>
      </trkpt>
      <trkpt lat="48.60693" lon="1.9615">
        <ele>108.77</ele>
        <time>2020-08-27T08:12:48Z</time>
      </trkpt>
      <trkpt lat="48.60693" lon="1.96152">
        <ele>108.29</ele>
        <time>2020-08-27T08:12:49Z</time>
      </trkpt>
      <trkpt lat="48.60692" lon="1.96153">
        <ele>108.29</ele>
        <time>2020-08-27T08:12:50Z</time>
      </trkpt>
      <trkpt lat="48.60692" lon="1.96155">
        <ele>108.77</ele>
        <time>2020-08-27T08:12:51Z</time>
      </trkpt>
      <trkpt lat="48.60691" lon="1.96156">
        <ele>108.77</ele>
        <time>2020-08-27T08:12:52Z</time>
      </trkpt>
      <trkpt lat="48.6069" lon="1.96157">
        <ele>108.77</ele>
        <time>2020-08-27T08:12:53Z</time>
      </trkpt>
      <trkpt lat="48.60689" lon="1.96158">
        <ele>108.77</ele>
        <time>2020-08-27T08:12:54Z</time>
      </trkpt>
      <trkpt lat="48.60688" lon="1.96159">
        <ele>109.25</ele>
        <time>2020-08-27T08:12:55Z</time>
      </trkpt>
      <trkpt lat="48.60688" lon="1.96161">
        <ele>109.25</ele>
        <time>2020-08-27T08:12:56Z</time>
      </trkpt>
      <trkpt lat="48.60687" lon="1.96162">
        <ele>109.25</ele>
        <time>2020-08-27T08:12:57Z</time>
      </trkpt>
      <trkpt lat="48.60687" lon="1.96163">
        <ele>109.25</ele>
        <time>2020-08-27T08:12:58Z</time>
      </trkpt>
      <trkpt lat="48.60687" lon="1.96164">
        <ele>110.69</ele>
        <time>2020-08-27T08:12:59Z</time>
      </trkpt>
      <trkpt lat="48.60686" lon="1.96165">
        <ele>110.21</ele>
        <time>2020-08-27T08:13:00Z</time>
      </trkpt>
      <trkpt lat="48.60685" lon="1.96166">
        <ele>109.73</ele>
        <time>2020-08-27T08:13:01Z</time>
      </trkpt>
      <trkpt lat="48.60684" lon="1.96167">
        <ele>111.17</ele>
        <time>2020-08-27T08:13:02Z</time>
      </trkpt>
      <trkpt lat="48.60683" lon="1.96169">
        <ele>110.69</ele>
        <time>2020-08-27T08:13:03Z</time>
      </trkpt>
      <trkpt lat="48.60682" lon="1.9617">
        <ele>110.69</ele>
        <time>2020-08-27T08:13:04Z</time>
      </trkpt>
      <trkpt lat="48.60681" lon="1.96172">
        <ele>110.69</ele>
        <time>2020-08-27T08:13:05Z</time>
      </trkpt>
      <trkpt lat="48.60681" lon="1.96173">
        <ele>111.65</ele>
        <time>2020-08-27T08:13:06Z</time>
      </trkpt>
      <trkpt lat="48.60679" lon="1.96174">
        <ele>111.17</ele>
        <time>2020-08-27T08:13:07Z</time>
      </trkpt>
      <trkpt lat="48.60678" lon="1.96175">
        <ele>111.65</ele>
        <time>2020-08-27T08:13:08Z</time>
      </trkpt>
      <trkpt lat="48.60678" lon="1.96177">
        <ele>112.13</ele>
        <time>2020-08-27T08:13:09Z</time>
      </trkpt>
      <trkpt lat="48.60678" lon="1.96179">
        <ele>112.13</ele>
        <time>2020-08-27T08:13:10Z</time>
      </trkpt>
      <trkpt lat="48.60677" lon="1.96181">
        <ele>110.69</ele>
        <time>2020-08-27T08:13:11Z</time>
      </trkpt>
      <trkpt lat="48.60677" lon="1.96183">
        <ele>112.61</ele>
        <time>2020-08-27T08:13:12Z</time>
      </trkpt>
      <trkpt lat="48.60677" lon="1.96184">
        <ele>112.13</ele>
        <time>2020-08-27T08:13:13Z</time>
      </trkpt>
      <trkpt lat="48.60677" lon="1.96186">
        <ele>113.09</ele>
        <time>2020-08-27T08:13:14Z</time>
      </trkpt>
      <trkpt lat="48.60676" lon="1.96188">
        <ele>113.57</ele>
        <time>2020-08-27T08:13:15Z</time>
      </trkpt>
      <trkpt lat="48.60676" lon="1.9619">
        <ele>113.09</ele>
        <time>2020-08-27T08:13:16Z</time>
      </trkpt>
      <trkpt lat="48.60675" lon="1.96192">
        <ele>113.57</ele>
        <time>2020-08-27T08:13:17Z</time>
      </trkpt>
      <trkpt lat="48.60675" lon="1.96193">
        <ele>113.57</ele>
        <time>2020-08-27T08:13:18Z</time>
      </trkpt>
      <trkpt lat="48.60674" lon="1.96194">
        <ele>113.09</ele>
        <time>2020-08-27T08:13:19Z</time>
      </trkpt>
      <trkpt lat="48.60673" lon="1.96195">
        <ele>113.57</ele>
        <time>2020-08-27T08:13:20Z</time>
      </trkpt>
      <trkpt lat="48.60672" lon="1.96197">
        <ele>114.53</ele>
        <time>2020-08-27T08:13:21Z</time>
      </trkpt>
      <trkpt lat="48.60671" lon="1.96199">
        <ele>114.05</ele>
        <time>2020-08-27T08:13:22Z</time>
      </trkpt>
      <trkpt lat="48.6067" lon="1.96201">
        <ele>114.05</ele>
        <time>2020-08-27T08:13:23Z</time>
      </trkpt>
      <trkpt lat="48.60668" lon="1.96203">
        <ele>114.05</ele>
        <time>2020-08-27T08:13:24Z</time>
      </trkpt>
      <trkpt lat="48.60667" lon="1.96205">
        <ele>114.05</ele>
        <time>2020-08-27T08:13:25Z</time>
      </trkpt>
      <trkpt lat="48.60666" lon="1.96207">
        <ele>114.05</ele>
        <time>2020-08-27T08:13:26Z</time>
      </trkpt>
      <trkpt lat="48.60665" lon="1.96208">
        <ele>114.05</ele>
        <time>2020-08-27T08:13:27Z</time>
      </trkpt>
      <trkpt lat="48.60664" lon="1.96209">
        <ele>114.05</ele>
        <time>2020-08-27T08:13:28Z</time>
      </trkpt>
      <trkpt lat="48.60663" lon="1.9621">
        <ele>114.53</ele>
        <time>2020-08-27T08:13:29Z</time>
      </trkpt>
      <trkpt lat="48.60663" lon="1.96212">
        <ele>114.53</ele>
        <time>2020-08-27T08:13:30Z</time>
      </trkpt>
      <trkpt lat="48.60662" lon="1.96213">
        <ele>114.53</ele>
        <time>2020-08-27T08:13:31Z</time>
      </trkpt>
      <trkpt lat="48.60662" lon="1.96215">
        <ele>116.46</ele>
        <time>2020-08-27T08:13:32Z</time>
      </trkpt>
      <trkpt lat="48.6066" lon="1.96216">
        <ele>115.01</ele>
        <time>2020-08-27T08:13:33Z</time>
      </trkpt>
      <trkpt lat="48.60659" lon="1.96218">
        <ele>115.01</ele>
        <time>2020-08-27T08:13:34Z</time>
      </trkpt>
      <trkpt lat="48.60658" lon="1.96219">
        <ele>115.01</ele>
        <time>2020-08-27T08:13:35Z</time>
      </trkpt>
      <trkpt lat="48.60658" lon="1.96221">
        <ele>114.53</ele>
        <time>2020-08-27T08:13:36Z</time>
      </trkpt>
      <trkpt lat="48.60657" lon="1.96223">
        <ele>115.01</ele>
        <time>2020-08-27T08:13:37Z</time>
      </trkpt>
      <trkpt lat="48.60657" lon="1.96225">
        <ele>115.01</ele>
        <time>2020-08-27T08:13:38Z</time>
      </trkpt>
      <trkpt lat="48.60656" lon="1.96227">
        <ele>114.53</ele>
        <time>2020-08-27T08:13:39Z</time>
      </trkpt>
      <trkpt lat="48.60655" lon="1.96229">
        <ele>115.01</ele>
        <time>2020-08-27T08:13:40Z</time>
      </trkpt>
      <trkpt lat="48.60654" lon="1.96231">
        <ele>115.5</ele>
        <time>2020-08-27T08:13:41Z</time>
      </trkpt>
      <trkpt lat="48.60653" lon="1.96234">
        <ele>115.5</ele>
        <time>2020-08-27T08:13:42Z</time>
      </trkpt>
      <trkpt lat="48.60652" lon="1.96236">
        <ele>115.01</ele>
        <time>2020-08-27T08:13:43Z</time>
      </trkpt>
      <trkpt lat="48.60652" lon="1.96238">
        <ele>115.01</ele>
        <time>2020-08-27T08:13:44Z</time>
      </trkpt>
      <trkpt lat="48.60652" lon="1.9624">
        <ele>115.01</ele>
        <time>2020-08-27T08:13:45Z</time>
      </trkpt>
      <trkpt lat="48.60653" lon="1.96243">
        <ele>115.01</ele>
        <time>2020-08-27T08:13:46Z</time>
      </trkpt>
      <trkpt lat="48.60654" lon="1.96246">
        <ele>115.01</ele>
        <time>2020-08-27T08:13:47Z</time>
      </trkpt>
      <trkpt lat="48.60655" lon="1.96248">
        <ele>115.5</ele>
        <time>2020-08-27T08:13:48Z</time>
      </trkpt>
      <trkpt lat="48.60655" lon="1.96249">
        <ele>115.5</ele>
        <time>2020-08-27T08:13:49Z</time>
      </trkpt>
      <trkpt lat="48.60656" lon="1.96252">
        <ele>115.01</ele>
        <time>2020-08-27T08:13:50Z</time>
      </trkpt>
      <trkpt lat="48.60656" lon="1.96254">
        <ele>115.01</ele>
        <time>2020-08-27T08:13:51Z</time>
      </trkpt>
      <trkpt lat="48.60657" lon="1.96256">
        <ele>115.01</ele>
        <time>2020-08-27T08:13:52Z</time>
      </trkpt>
      <trkpt lat="48.60657" lon="1.96257">
        <ele>115.01</ele>
        <time>2020-08-27T08:13:53Z</time>
      </trkpt>
      <trkpt lat="48.60658" lon="1.96259">
        <ele>114.53</ele>
        <time>2020-08-27T08:13:54Z</time>
      </trkpt>
      <trkpt lat="48.60658" lon="1.96261">
        <ele>115.01</ele>
        <time>2020-08-27T08:13:55Z</time>
      </trkpt>
      <trkpt lat="48.60658" lon="1.96263">
        <ele>114.53</ele>
        <time>2020-08-27T08:13:56Z</time>
      </trkpt>
      <trkpt lat="48.60659" lon="1.96265">
        <ele>115.01</ele>
        <time>2020-08-27T08:13:57Z</time>
      </trkpt>
      <trkpt lat="48.6066" lon="1.96266">
        <ele>115.5</ele>
        <time>2020-08-27T08:13:58Z</time>
      </trkpt>
      <trkpt lat="48.60661" lon="1.96268">
        <ele>115.01</ele>
        <time>2020-08-27T08:13:59Z</time>
      </trkpt>
      <trkpt lat="48.60662" lon="1.9627">
        <ele>115.01</ele>
        <time>2020-08-27T08:14:00Z</time>
      </trkpt>
      <trkpt lat="48.60663" lon="1.96272">
        <ele>114.53</ele>
        <time>2020-08-27T08:14:01Z</time>
      </trkpt>
      <trkpt lat="48.60664" lon="1.96274">
        <ele>114.53</ele>
        <time>2020-08-27T08:14:02Z</time>
      </trkpt>
      <trkpt lat="48.60666" lon="1.96276">
        <ele>114.53</ele>
        <time>2020-08-27T08:14:03Z</time>
      </trkpt>
      <trkpt lat="48.60667" lon="1.96278">
        <ele>114.53</ele>
        <time>2020-08-27T08:14:04Z</time>
      </trkpt>
      <trkpt lat="48.60668" lon="1.9628">
        <ele>114.53</ele>
        <time>2020-08-27T08:14:05Z</time>
      </trkpt>
      <trkpt lat="48.60669" lon="1.96282">
        <ele>114.53</ele>
        <time>2020-08-27T08:14:06Z</time>
      </trkpt>
      <trkpt lat="48.6067" lon="1.96283">
        <ele>114.05</ele>
        <time>2020-08-27T08:14:07Z</time>
      </trkpt>
      <trkpt lat="48.60671" lon="1.96285">
        <ele>114.05</ele>
        <time>2020-08-27T08:14:08Z</time>
      </trkpt>
      <trkpt lat="48.60672" lon="1.96286">
        <ele>114.05</ele>
        <time>2020-08-27T08:14:09Z</time>
      </trkpt>
      <trkpt lat="48.60673" lon="1.96288">
        <ele>114.53</ele>
        <time>2020-08-27T08:14:10Z</time>
      </trkpt>
      <trkpt lat="48.60674" lon="1.9629">
        <ele>114.53</ele>
        <time>2020-08-27T08:14:11Z</time>
      </trkpt>
      <trkpt lat="48.60675" lon="1.96291">
        <ele>114.05</ele>
        <time>2020-08-27T08:14:12Z</time>
      </trkpt>
      <trkpt lat="48.60675" lon="1.96292">
        <ele>114.05</ele>
        <time>2020-08-27T08:14:13Z</time>
      </trkpt>
      <trkpt lat="48.60676" lon="1.96293">
        <ele>114.05</ele>
        <time>2020-08-27T08:14:14Z</time>
      </trkpt>
      <trkpt lat="48.60676" lon="1.96294">
        <ele>113.57</ele>
        <time>2020-08-27T08:14:15Z</time>
      </trkpt>
      <trkpt lat="48.60677" lon="1.96295">
        <ele>114.05</ele>
        <time>2020-08-27T08:14:16Z</time>
      </trkpt>
      <trkpt lat="48.60678" lon="1.96297">
        <ele>113.57</ele>
        <time>2020-08-27T08:14:17Z</time>
      </trkpt>
      <trkpt lat="48.60679" lon="1.96298">
        <ele>113.57</ele>
        <time>2020-08-27T08:14:18Z</time>
      </trkpt>
      <trkpt lat="48.60679" lon="1.96301">
        <ele>113.57</ele>
        <time>2020-08-27T08:14:19Z</time>
      </trkpt>
      <trkpt lat="48.6068" lon="1.96304">
        <ele>113.57</ele>
        <time>2020-08-27T08:14:20Z</time>
      </trkpt>
      <trkpt lat="48.60681" lon="1.96306">
        <ele>114.05</ele>
        <time>2020-08-27T08:14:21Z</time>
      </trkpt>
      <trkpt lat="48.60681" lon="1.9631">
        <ele>114.05</ele>
        <time>2020-08-27T08:14:22Z</time>
      </trkpt>
      <trkpt lat="48.60681" lon="1.96312">
        <ele>114.05</ele>
        <time>2020-08-27T08:14:23Z</time>
      </trkpt>
      <trkpt lat="48.60682" lon="1.96315">
        <ele>113.57</ele>
        <time>2020-08-27T08:14:24Z</time>
      </trkpt>
      <trkpt lat="48.60682" lon="1.96318">
        <ele>113.57</ele>
        <time>2020-08-27T08:14:25Z</time>
      </trkpt>
      <trkpt lat="48.60683" lon="1.9632">
        <ele>113.57</ele>
        <time>2020-08-27T08:14:26Z</time>
      </trkpt>
      <trkpt lat="48.60683" lon="1.96323">
        <ele>113.57</ele>
        <time>2020-08-27T08:14:27Z</time>
      </trkpt>
      <trkpt lat="48.60683" lon="1.96327">
        <ele>113.57</ele>
        <time>2020-08-27T08:14:28Z</time>
      </trkpt>
      <trkpt lat="48.60683" lon="1.9633">
        <ele>113.57</ele>
        <time>2020-08-27T08:14:29Z</time>
      </trkpt>
      <trkpt lat="48.60684" lon="1.96332">
        <ele>113.09</ele>
        <time>2020-08-27T08:14:30Z</time>
      </trkpt>
      <trkpt lat="48.60684" lon="1.96334">
        <ele>113.57</ele>
        <time>2020-08-27T08:14:31Z</time>
      </trkpt>
      <trkpt lat="48.60685" lon="1.96336">
        <ele>113.09</ele>
        <time>2020-08-27T08:14:32Z</time>
      </trkpt>
      <trkpt lat="48.60685" lon="1.96338">
        <ele>113.57</ele>
        <time>2020-08-27T08:14:33Z</time>
      </trkpt>
      <trkpt lat="48.60685" lon="1.96339">
        <ele>113.57</ele>
        <time>2020-08-27T08:14:34Z</time>
      </trkpt>
      <trkpt lat="48.60685" lon="1.9634">
        <ele>113.57</ele>
        <time>2020-08-27T08:14:35Z</time>
      </trkpt>
      <trkpt lat="48.60685" lon="1.96342">
        <ele>113.09</ele>
        <time>2020-08-27T08:14:36Z</time>
      </trkpt>
      <trkpt lat="48.60686" lon="1.96343">
        <ele>113.09</ele>
        <time>2020-08-27T08:14:37Z</time>
      </trkpt>
      <trkpt lat="48.60686" lon="1.96345">
        <ele>113.09</ele>
        <time>2020-08-27T08:14:38Z</time>
      </trkpt>
      <trkpt lat="48.60686" lon="1.96346">
        <ele>113.09</ele>
        <time>2020-08-27T08:14:39Z</time>
      </trkpt>
      <trkpt lat="48.60687" lon="1.96347">
        <ele>113.09</ele>
        <time>2020-08-27T08:14:40Z</time>
      </trkpt>
      <trkpt lat="48.60688" lon="1.96349">
        <ele>113.09</ele>
        <time>2020-08-27T08:14:41Z</time>
      </trkpt>
      <trkpt lat="48.60689" lon="1.96351">
        <ele>112.61</ele>
        <time>2020-08-27T08:14:42Z</time>
      </trkpt>
      <trkpt lat="48.6069" lon="1.96352">
        <ele>112.61</ele>
        <time>2020-08-27T08:14:43Z</time>
      </trkpt>
      <trkpt lat="48.6069" lon="1.96354">
        <ele>113.09</ele>
        <time>2020-08-27T08:14:44Z</time>
      </trkpt>
      <trkpt lat="48.60691" lon="1.96356">
        <ele>113.09</ele>
        <time>2020-08-27T08:14:45Z</time>
      </trkpt>
      <trkpt lat="48.60692" lon="1.96358">
        <ele>112.61</ele>
        <time>2020-08-27T08:14:46Z</time>
      </trkpt>
      <trkpt lat="48.60693" lon="1.9636">
        <ele>112.61</ele>
        <time>2020-08-27T08:14:47Z</time>
      </trkpt>
      <trkpt lat="48.60694" lon="1.96362">
        <ele>112.61</ele>
        <time>2020-08-27T08:14:48Z</time>
      </trkpt>
      <trkpt lat="48.60696" lon="1.96365">
        <ele>112.61</ele>
        <time>2020-08-27T08:14:49Z</time>
      </trkpt>
      <trkpt lat="48.60697" lon="1.96367">
        <ele>112.61</ele>
        <time>2020-08-27T08:14:50Z</time>
      </trkpt>
      <trkpt lat="48.60697" lon="1.96369">
        <ele>112.61</ele>
        <time>2020-08-27T08:14:51Z</time>
      </trkpt>
      <trkpt lat="48.60698" lon="1.96371">
        <ele>112.13</ele>
        <time>2020-08-27T08:14:52Z</time>
      </trkpt>
      <trkpt lat="48.60699" lon="1.96373">
        <ele>112.61</ele>
        <time>2020-08-27T08:14:53Z</time>
      </trkpt>
      <trkpt lat="48.60699" lon="1.96375">
        <ele>112.61</ele>
        <time>2020-08-27T08:14:54Z</time>
      </trkpt>
      <trkpt lat="48.607" lon="1.96376">
        <ele>112.61</ele>
        <time>2020-08-27T08:14:55Z</time>
      </trkpt>
      <trkpt lat="48.60701" lon="1.96378">
        <ele>112.13</ele>
        <time>2020-08-27T08:14:56Z</time>
      </trkpt>
      <trkpt lat="48.60701" lon="1.9638">
        <ele>112.13</ele>
        <time>2020-08-27T08:14:57Z</time>
      </trkpt>
      <trkpt lat="48.60702" lon="1.96381">
        <ele>112.13</ele>
        <time>2020-08-27T08:14:58Z</time>
      </trkpt>
      <trkpt lat="48.60703" lon="1.96383">
        <ele>112.13</ele>
        <time>2020-08-27T08:14:59Z</time>
      </trkpt>
      <trkpt lat="48.60704" lon="1.96386">
        <ele>111.65</ele>
        <time>2020-08-27T08:15:00Z</time>
      </trkpt>
      <trkpt lat="48.60704" lon="1.96388">
        <ele>112.13</ele>
        <time>2020-08-27T08:15:01Z</time>
      </trkpt>
      <trkpt lat="48.60704" lon="1.9639">
        <ele>112.13</ele>
        <time>2020-08-27T08:15:02Z</time>
      </trkpt>
      <trkpt lat="48.60705" lon="1.96391">
        <ele>111.65</ele>
        <time>2020-08-27T08:15:03Z</time>
      </trkpt>
      <trkpt lat="48.60706" lon="1.96393">
        <ele>111.65</ele>
        <time>2020-08-27T08:15:04Z</time>
      </trkpt>
      <trkpt lat="48.60706" lon="1.96395">
        <ele>112.13</ele>
        <time>2020-08-27T08:15:05Z</time>
      </trkpt>
      <trkpt lat="48.60707" lon="1.96397">
        <ele>112.13</ele>
        <time>2020-08-27T08:15:06Z</time>
      </trkpt>
      <trkpt lat="48.60707" lon="1.96399">
        <ele>111.65</ele>
        <time>2020-08-27T08:15:07Z</time>
      </trkpt>
      <trkpt lat="48.60708" lon="1.96401">
        <ele>111.65</ele>
        <time>2020-08-27T08:15:08Z</time>
      </trkpt>
      <trkpt lat="48.60709" lon="1.96403">
        <ele>111.65</ele>
        <time>2020-08-27T08:15:09Z</time>
      </trkpt>
      <trkpt lat="48.6071" lon="1.96404">
        <ele>111.65</ele>
        <time>2020-08-27T08:15:10Z</time>
      </trkpt>
      <trkpt lat="48.6071" lon="1.96405">
        <ele>111.65</ele>
        <time>2020-08-27T08:15:11Z</time>
      </trkpt>
      <trkpt lat="48.60711" lon="1.96407">
        <ele>111.65</ele>
        <time>2020-08-27T08:15:12Z</time>
      </trkpt>
      <trkpt lat="48.60711" lon="1.96408">
        <ele>110.69</ele>
        <time>2020-08-27T08:15:13Z</time>
      </trkpt>
      <trkpt lat="48.60711" lon="1.9641">
        <ele>112.13</ele>
        <time>2020-08-27T08:15:14Z</time>
      </trkpt>
      <trkpt lat="48.60712" lon="1.96412">
        <ele>111.65</ele>
        <time>2020-08-27T08:15:15Z</time>
      </trkpt>
      <trkpt lat="48.60712" lon="1.96413">
        <ele>111.65</ele>
        <time>2020-08-27T08:15:16Z</time>
      </trkpt>
      <trkpt lat="48.60713" lon="1.96415">
        <ele>111.65</ele>
        <time>2020-08-27T08:15:17Z</time>
      </trkpt>
      <trkpt lat="48.60713" lon="1.96416">
        <ele>111.65</ele>
        <time>2020-08-27T08:15:18Z</time>
      </trkpt>
      <trkpt lat="48.60713" lon="1.96416">
        <ele>111.65</ele>
        <time>2020-08-27T08:15:19Z</time>
      </trkpt>
      <trkpt lat="48.60713" lon="1.96416">
        <ele>111.17</ele>
        <time>2020-08-27T08:15:20Z</time>
      </trkpt>
      <trkpt lat="48.60713" lon="1.96416">
        <ele>110.69</ele>
        <time>2020-08-27T08:15:21Z</time>
      </trkpt>
      <trkpt lat="48.60713" lon="1.96417">
        <ele>112.13</ele>
        <time>2020-08-27T08:15:22Z</time>
      </trkpt>
      <trkpt lat="48.60712" lon="1.96419">
        <ele>111.17</ele>
        <time>2020-08-27T08:15:23Z</time>
      </trkpt>
      <trkpt lat="48.60712" lon="1.96421">
        <ele>111.17</ele>
        <time>2020-08-27T08:15:24Z</time>
      </trkpt>
      <trkpt lat="48.60711" lon="1.96424">
        <ele>111.17</ele>
        <time>2020-08-27T08:15:25Z</time>
      </trkpt>
      <trkpt lat="48.60711" lon="1.96426">
        <ele>111.17</ele>
        <time>2020-08-27T08:15:26Z</time>
      </trkpt>
      <trkpt lat="48.60711" lon="1.96428">
        <ele>111.17</ele>
        <time>2020-08-27T08:15:27Z</time>
      </trkpt>
      <trkpt lat="48.60711" lon="1.96431">
        <ele>111.17</ele>
        <time>2020-08-27T08:15:28Z</time>
      </trkpt>
      <trkpt lat="48.60711" lon="1.96434">
        <ele>111.65</ele>
        <time>2020-08-27T08:15:29Z</time>
      </trkpt>
      <trkpt lat="48.60711" lon="1.96437">
        <ele>111.17</ele>
        <time>2020-08-27T08:15:30Z</time>
      </trkpt>
      <trkpt lat="48.60712" lon="1.96439">
        <ele>111.17</ele>
        <time>2020-08-27T08:15:31Z</time>
      </trkpt>
      <trkpt lat="48.60712" lon="1.96442">
        <ele>112.13</ele>
        <time>2020-08-27T08:15:32Z</time>
      </trkpt>
      <trkpt lat="48.60712" lon="1.96443">
        <ele>111.17</ele>
        <time>2020-08-27T08:15:33Z</time>
      </trkpt>
      <trkpt lat="48.60712" lon="1.96446">
        <ele>111.17</ele>
        <time>2020-08-27T08:15:34Z</time>
      </trkpt>
      <trkpt lat="48.60712" lon="1.96448">
        <ele>111.17</ele>
        <time>2020-08-27T08:15:35Z</time>
      </trkpt>
      <trkpt lat="48.60712" lon="1.9645">
        <ele>111.65</ele>
        <time>2020-08-27T08:15:36Z</time>
      </trkpt>
      <trkpt lat="48.60712" lon="1.96452">
        <ele>111.17</ele>
        <time>2020-08-27T08:15:37Z</time>
      </trkpt>
      <trkpt lat="48.60712" lon="1.96453">
        <ele>111.17</ele>
        <time>2020-08-27T08:15:38Z</time>
      </trkpt>
      <trkpt lat="48.60712" lon="1.96455">
        <ele>111.17</ele>
        <time>2020-08-27T08:15:39Z</time>
      </trkpt>
      <trkpt lat="48.60711" lon="1.96457">
        <ele>110.69</ele>
        <time>2020-08-27T08:15:40Z</time>
      </trkpt>
      <trkpt lat="48.60711" lon="1.9646">
        <ele>111.17</ele>
        <time>2020-08-27T08:15:41Z</time>
      </trkpt>
      <trkpt lat="48.60711" lon="1.96462">
        <ele>111.17</ele>
        <time>2020-08-27T08:15:42Z</time>
      </trkpt>
      <trkpt lat="48.60711" lon="1.96463">
        <ele>111.17</ele>
        <time>2020-08-27T08:15:43Z</time>
      </trkpt>
      <trkpt lat="48.6071" lon="1.96465">
        <ele>111.17</ele>
        <time>2020-08-27T08:15:44Z</time>
      </trkpt>
      <trkpt lat="48.6071" lon="1.96467">
        <ele>111.17</ele>
        <time>2020-08-27T08:15:45Z</time>
      </trkpt>
      <trkpt lat="48.60709" lon="1.96469">
        <ele>111.17</ele>
        <time>2020-08-27T08:15:46Z</time>
      </trkpt>
      <trkpt lat="48.60709" lon="1.9647">
        <ele>111.17</ele>
        <time>2020-08-27T08:15:47Z</time>
      </trkpt>
      <trkpt lat="48.60709" lon="1.96472">
        <ele>111.17</ele>
        <time>2020-08-27T08:15:48Z</time>
      </trkpt>
      <trkpt lat="48.60708" lon="1.96474">
        <ele>111.17</ele>
        <time>2020-08-27T08:15:49Z</time>
      </trkpt>
      <trkpt lat="48.60708" lon="1.96476">
        <ele>110.69</ele>
        <time>2020-08-27T08:15:50Z</time>
      </trkpt>
      <trkpt lat="48.60708" lon="1.96478">
        <ele>111.17</ele>
        <time>2020-08-27T08:15:51Z</time>
      </trkpt>
      <trkpt lat="48.60708" lon="1.9648">
        <ele>110.69</ele>
        <time>2020-08-27T08:15:52Z</time>
      </trkpt>
      <trkpt lat="48.60708" lon="1.96482">
        <ele>110.69</ele>
        <time>2020-08-27T08:15:53Z</time>
      </trkpt>
      <trkpt lat="48.60708" lon="1.96484">
        <ele>110.69</ele>
        <time>2020-08-27T08:15:54Z</time>
      </trkpt>
      <trkpt lat="48.60708" lon="1.96486">
        <ele>111.17</ele>
        <time>2020-08-27T08:15:55Z</time>
      </trkpt>
      <trkpt lat="48.60707" lon="1.96489">
        <ele>111.65</ele>
        <time>2020-08-27T08:15:56Z</time>
      </trkpt>
      <trkpt lat="48.60707" lon="1.9649">
        <ele>111.17</ele>
        <time>2020-08-27T08:15:57Z</time>
      </trkpt>
      <trkpt lat="48.60707" lon="1.96491">
        <ele>110.69</ele>
        <time>2020-08-27T08:15:58Z</time>
      </trkpt>
      <trkpt lat="48.60707" lon="1.96493">
        <ele>110.69</ele>
        <time>2020-08-27T08:15:59Z</time>
      </trkpt>
      <trkpt lat="48.60707" lon="1.96495">
        <ele>110.69</ele>
        <time>2020-08-27T08:16:00Z</time>
      </trkpt>
      <trkpt lat="48.60706" lon="1.96498">
        <ele>110.69</ele>
        <time>2020-08-27T08:16:01Z</time>
      </trkpt>
      <trkpt lat="48.60705" lon="1.96499">
        <ele>110.69</ele>
        <time>2020-08-27T08:16:02Z</time>
      </trkpt>
      <trkpt lat="48.60705" lon="1.96502">
        <ele>110.69</ele>
        <time>2020-08-27T08:16:03Z</time>
      </trkpt>
      <trkpt lat="48.60704" lon="1.96505">
        <ele>110.69</ele>
        <time>2020-08-27T08:16:04Z</time>
      </trkpt>
      <trkpt lat="48.60703" lon="1.96508">
        <ele>110.21</ele>
        <time>2020-08-27T08:16:05Z</time>
      </trkpt>
      <trkpt lat="48.60702" lon="1.96512">
        <ele>110.69</ele>
        <time>2020-08-27T08:16:06Z</time>
      </trkpt>
      <trkpt lat="48.60701" lon="1.96515">
        <ele>111.17</ele>
        <time>2020-08-27T08:16:07Z</time>
      </trkpt>
      <trkpt lat="48.60701" lon="1.96518">
        <ele>111.17</ele>
        <time>2020-08-27T08:16:08Z</time>
      </trkpt>
      <trkpt lat="48.607" lon="1.9652">
        <ele>110.69</ele>
        <time>2020-08-27T08:16:09Z</time>
      </trkpt>
      <trkpt lat="48.607" lon="1.96523">
        <ele>110.21</ele>
        <time>2020-08-27T08:16:10Z</time>
      </trkpt>
      <trkpt lat="48.60699" lon="1.96526">
        <ele>110.69</ele>
        <time>2020-08-27T08:16:11Z</time>
      </trkpt>
      <trkpt lat="48.60699" lon="1.96528">
        <ele>110.69</ele>
        <time>2020-08-27T08:16:12Z</time>
      </trkpt>
      <trkpt lat="48.60699" lon="1.96531">
        <ele>110.69</ele>
        <time>2020-08-27T08:16:13Z</time>
      </trkpt>
      <trkpt lat="48.60698" lon="1.96534">
        <ele>110.69</ele>
        <time>2020-08-27T08:16:14Z</time>
      </trkpt>
      <trkpt lat="48.60697" lon="1.96536">
        <ele>110.69</ele>
        <time>2020-08-27T08:16:15Z</time>
      </trkpt>
      <trkpt lat="48.60697" lon="1.96539">
        <ele>110.21</ele>
        <time>2020-08-27T08:16:16Z</time>
      </trkpt>
      <trkpt lat="48.60697" lon="1.96542">
        <ele>110.21</ele>
        <time>2020-08-27T08:16:17Z</time>
      </trkpt>
      <trkpt lat="48.60697" lon="1.96544">
        <ele>110.69</ele>
        <time>2020-08-27T08:16:18Z</time>
      </trkpt>
      <trkpt lat="48.60696" lon="1.96546">
        <ele>110.69</ele>
        <time>2020-08-27T08:16:19Z</time>
      </trkpt>
      <trkpt lat="48.60697" lon="1.96548">
        <ele>110.69</ele>
        <time>2020-08-27T08:16:20Z</time>
      </trkpt>
      <trkpt lat="48.60697" lon="1.9655">
        <ele>110.69</ele>
        <time>2020-08-27T08:16:21Z</time>
      </trkpt>
      <trkpt lat="48.60698" lon="1.96552">
        <ele>110.21</ele>
        <time>2020-08-27T08:16:22Z</time>
      </trkpt>
      <trkpt lat="48.60698" lon="1.96553">
        <ele>110.69</ele>
        <time>2020-08-27T08:16:23Z</time>
      </trkpt>
      <trkpt lat="48.60699" lon="1.96555">
        <ele>110.21</ele>
        <time>2020-08-27T08:16:24Z</time>
      </trkpt>
      <trkpt lat="48.607" lon="1.96558">
        <ele>110.21</ele>
        <time>2020-08-27T08:16:25Z</time>
      </trkpt>
      <trkpt lat="48.607" lon="1.9656">
        <ele>110.21</ele>
        <time>2020-08-27T08:16:26Z</time>
      </trkpt>
      <trkpt lat="48.60701" lon="1.96562">
        <ele>110.21</ele>
        <time>2020-08-27T08:16:27Z</time>
      </trkpt>
      <trkpt lat="48.60701" lon="1.96564">
        <ele>110.21</ele>
        <time>2020-08-27T08:16:28Z</time>
      </trkpt>
      <trkpt lat="48.60702" lon="1.96566">
        <ele>109.73</ele>
        <time>2020-08-27T08:16:29Z</time>
      </trkpt>
      <trkpt lat="48.60702" lon="1.96567">
        <ele>110.21</ele>
        <time>2020-08-27T08:16:30Z</time>
      </trkpt>
      <trkpt lat="48.60702" lon="1.96569">
        <ele>110.21</ele>
        <time>2020-08-27T08:16:31Z</time>
      </trkpt>
      <trkpt lat="48.60702" lon="1.96571">
        <ele>110.21</ele>
        <time>2020-08-27T08:16:32Z</time>
      </trkpt>
      <trkpt lat="48.60703" lon="1.96573">
        <ele>110.21</ele>
        <time>2020-08-27T08:16:33Z</time>
      </trkpt>
      <trkpt lat="48.60703" lon="1.96575">
        <ele>110.21</ele>
        <time>2020-08-27T08:16:34Z</time>
      </trkpt>
      <trkpt lat="48.60704" lon="1.96577">
        <ele>109.73</ele>
        <time>2020-08-27T08:16:35Z</time>
      </trkpt>
      <trkpt lat="48.60704" lon="1.9658">
        <ele>109.73</ele>
        <time>2020-08-27T08:16:36Z</time>
      </trkpt>
      <trkpt lat="48.60705" lon="1.96582">
        <ele>109.73</ele>
        <time>2020-08-27T08:16:37Z</time>
      </trkpt>
      <trkpt lat="48.60705" lon="1.96584">
        <ele>109.73</ele>
        <time>2020-08-27T08:16:38Z</time>
      </trkpt>
      <trkpt lat="48.60706" lon="1.96587">
        <ele>109.73</ele>
        <time>2020-08-27T08:16:39Z</time>
      </trkpt>
      <trkpt lat="48.60706" lon="1.96589">
        <ele>109.73</ele>
        <time>2020-08-27T08:16:40Z</time>
      </trkpt>
      <trkpt lat="48.60706" lon="1.96591">
        <ele>109.73</ele>
        <time>2020-08-27T08:16:41Z</time>
      </trkpt>
      <trkpt lat="48.60706" lon="1.96594">
        <ele>109.73</ele>
        <time>2020-08-27T08:16:42Z</time>
      </trkpt>
      <trkpt lat="48.60706" lon="1.96597">
        <ele>109.73</ele>
        <time>2020-08-27T08:16:43Z</time>
      </trkpt>
      <trkpt lat="48.60706" lon="1.966">
        <ele>109.73</ele>
        <time>2020-08-27T08:16:44Z</time>
      </trkpt>
      <trkpt lat="48.60706" lon="1.96602">
        <ele>109.73</ele>
        <time>2020-08-27T08:16:45Z</time>
      </trkpt>
      <trkpt lat="48.60706" lon="1.96603">
        <ele>109.73</ele>
        <time>2020-08-27T08:16:46Z</time>
      </trkpt>
      <trkpt lat="48.60706" lon="1.96604">
        <ele>109.25</ele>
        <time>2020-08-27T08:16:47Z</time>
      </trkpt>
      <trkpt lat="48.60706" lon="1.96606">
        <ele>109.73</ele>
        <time>2020-08-27T08:16:48Z</time>
      </trkpt>
      <trkpt lat="48.60706" lon="1.96608">
        <ele>109.25</ele>
        <time>2020-08-27T08:16:49Z</time>
      </trkpt>
      <trkpt lat="48.60706" lon="1.9661">
        <ele>109.25</ele>
        <time>2020-08-27T08:16:50Z</time>
      </trkpt>
      <trkpt lat="48.60706" lon="1.96612">
        <ele>109.25</ele>
        <time>2020-08-27T08:16:51Z</time>
      </trkpt>
      <trkpt lat="48.60706" lon="1.96615">
        <ele>109.25</ele>
        <time>2020-08-27T08:16:52Z</time>
      </trkpt>
      <trkpt lat="48.60705" lon="1.96617">
        <ele>109.25</ele>
        <time>2020-08-27T08:16:53Z</time>
      </trkpt>
      <trkpt lat="48.60705" lon="1.96619">
        <ele>109.25</ele>
        <time>2020-08-27T08:16:54Z</time>
      </trkpt>
      <trkpt lat="48.60705" lon="1.96622">
        <ele>109.25</ele>
        <time>2020-08-27T08:16:55Z</time>
      </trkpt>
      <trkpt lat="48.60705" lon="1.96624">
        <ele>109.25</ele>
        <time>2020-08-27T08:16:56Z</time>
      </trkpt>
      <trkpt lat="48.60705" lon="1.96626">
        <ele>109.25</ele>
        <time>2020-08-27T08:16:57Z</time>
      </trkpt>
      <trkpt lat="48.60705" lon="1.96629">
        <ele>108.77</ele>
        <time>2020-08-27T08:16:58Z</time>
      </trkpt>
      <trkpt lat="48.60705" lon="1.96631">
        <ele>108.77</ele>
        <time>2020-08-27T08:16:59Z</time>
      </trkpt>
      <trkpt lat="48.60705" lon="1.96633">
        <ele>109.25</ele>
        <time>2020-08-27T08:17:00Z</time>
      </trkpt>
      <trkpt lat="48.60705" lon="1.96636">
        <ele>109.25</ele>
        <time>2020-08-27T08:17:01Z</time>
      </trkpt>
      <trkpt lat="48.60705" lon="1.96638">
        <ele>108.77</ele>
        <time>2020-08-27T08:17:02Z</time>
      </trkpt>
      <trkpt lat="48.60705" lon="1.96641">
        <ele>108.77</ele>
        <time>2020-08-27T08:17:03Z</time>
      </trkpt>
      <trkpt lat="48.60705" lon="1.96644">
        <ele>108.77</ele>
        <time>2020-08-27T08:17:04Z</time>
      </trkpt>
      <trkpt lat="48.60705" lon="1.96646">
        <ele>108.77</ele>
        <time>2020-08-27T08:17:05Z</time>
      </trkpt>
      <trkpt lat="48.60704" lon="1.96649">
        <ele>109.25</ele>
        <time>2020-08-27T08:17:06Z</time>
      </trkpt>
      <trkpt lat="48.60704" lon="1.96651">
        <ele>108.77</ele>
        <time>2020-08-27T08:17:07Z</time>
      </trkpt>
      <trkpt lat="48.60704" lon="1.96654">
        <ele>108.77</ele>
        <time>2020-08-27T08:17:08Z</time>
      </trkpt>
      <trkpt lat="48.60703" lon="1.96656">
        <ele>108.29</ele>
        <time>2020-08-27T08:17:09Z</time>
      </trkpt>
      <trkpt lat="48.60703" lon="1.96658">
        <ele>108.77</ele>
        <time>2020-08-27T08:17:10Z</time>
      </trkpt>
      <trkpt lat="48.60703" lon="1.9666">
        <ele>108.77</ele>
        <time>2020-08-27T08:17:11Z</time>
      </trkpt>
      <trkpt lat="48.60703" lon="1.96663">
        <ele>108.77</ele>
        <time>2020-08-27T08:17:12Z</time>
      </trkpt>
      <trkpt lat="48.60702" lon="1.96665">
        <ele>108.29</ele>
        <time>2020-08-27T08:17:13Z</time>
      </trkpt>
      <trkpt lat="48.60702" lon="1.96667">
        <ele>108.29</ele>
        <time>2020-08-27T08:17:14Z</time>
      </trkpt>
      <trkpt lat="48.60702" lon="1.96669">
        <ele>108.29</ele>
        <time>2020-08-27T08:17:15Z</time>
      </trkpt>
      <trkpt lat="48.60702" lon="1.96671">
        <ele>108.77</ele>
        <time>2020-08-27T08:17:16Z</time>
      </trkpt>
      <trkpt lat="48.60702" lon="1.96674">
        <ele>108.29</ele>
        <time>2020-08-27T08:17:17Z</time>
      </trkpt>
      <trkpt lat="48.60702" lon="1.96677">
        <ele>108.29</ele>
        <time>2020-08-27T08:17:18Z</time>
      </trkpt>
      <trkpt lat="48.60702" lon="1.96679">
        <ele>108.29</ele>
        <time>2020-08-27T08:17:19Z</time>
      </trkpt>
      <trkpt lat="48.60702" lon="1.96681">
        <ele>108.29</ele>
        <time>2020-08-27T08:17:20Z</time>
      </trkpt>
      <trkpt lat="48.60702" lon="1.96684">
        <ele>108.29</ele>
        <time>2020-08-27T08:17:21Z</time>
      </trkpt>
      <trkpt lat="48.60702" lon="1.96686">
        <ele>108.29</ele>
        <time>2020-08-27T08:17:22Z</time>
      </trkpt>
      <trkpt lat="48.60702" lon="1.96688">
        <ele>108.29</ele>
        <time>2020-08-27T08:17:23Z</time>
      </trkpt>
      <trkpt lat="48.60702" lon="1.96691">
        <ele>108.29</ele>
        <time>2020-08-27T08:17:24Z</time>
      </trkpt>
      <trkpt lat="48.60702" lon="1.96693">
        <ele>107.81</ele>
        <time>2020-08-27T08:17:25Z</time>
      </trkpt>
      <trkpt lat="48.60703" lon="1.96695">
        <ele>107.81</ele>
        <time>2020-08-27T08:17:26Z</time>
      </trkpt>
      <trkpt lat="48.60703" lon="1.96698">
        <ele>107.32</ele>
        <time>2020-08-27T08:17:27Z</time>
      </trkpt>
      <trkpt lat="48.60703" lon="1.967">
        <ele>107.32</ele>
        <time>2020-08-27T08:17:28Z</time>
      </trkpt>
      <trkpt lat="48.60703" lon="1.96703">
        <ele>108.29</ele>
        <time>2020-08-27T08:17:29Z</time>
      </trkpt>
      <trkpt lat="48.60703" lon="1.96705">
        <ele>107.81</ele>
        <time>2020-08-27T08:17:30Z</time>
      </trkpt>
      <trkpt lat="48.60704" lon="1.96707">
        <ele>107.81</ele>
        <time>2020-08-27T08:17:31Z</time>
      </trkpt>
      <trkpt lat="48.60703" lon="1.96709">
        <ele>108.29</ele>
        <time>2020-08-27T08:17:32Z</time>
      </trkpt>
      <trkpt lat="48.60703" lon="1.96711">
        <ele>108.77</ele>
        <time>2020-08-27T08:17:33Z</time>
      </trkpt>
      <trkpt lat="48.60704" lon="1.96713">
        <ele>107.32</ele>
        <time>2020-08-27T08:17:34Z</time>
      </trkpt>
      <trkpt lat="48.60704" lon="1.96716">
        <ele>107.32</ele>
        <time>2020-08-27T08:17:35Z</time>
      </trkpt>
      <trkpt lat="48.60704" lon="1.96718">
        <ele>107.32</ele>
        <time>2020-08-27T08:17:36Z</time>
      </trkpt>
      <trkpt lat="48.60704" lon="1.96719">
        <ele>107.32</ele>
        <time>2020-08-27T08:17:37Z</time>
      </trkpt>
      <trkpt lat="48.60704" lon="1.96721">
        <ele>106.84</ele>
        <time>2020-08-27T08:17:38Z</time>
      </trkpt>
      <trkpt lat="48.60704" lon="1.96724">
        <ele>107.32</ele>
        <time>2020-08-27T08:17:39Z</time>
      </trkpt>
      <trkpt lat="48.60705" lon="1.96727">
        <ele>107.32</ele>
        <time>2020-08-27T08:17:40Z</time>
      </trkpt>
      <trkpt lat="48.60705" lon="1.96729">
        <ele>107.32</ele>
        <time>2020-08-27T08:17:41Z</time>
      </trkpt>
      <trkpt lat="48.60706" lon="1.96731">
        <ele>107.32</ele>
        <time>2020-08-27T08:17:42Z</time>
      </trkpt>
      <trkpt lat="48.60707" lon="1.96733">
        <ele>106.84</ele>
        <time>2020-08-27T08:17:43Z</time>
      </trkpt>
      <trkpt lat="48.60708" lon="1.96735">
        <ele>107.32</ele>
        <time>2020-08-27T08:17:44Z</time>
      </trkpt>
      <trkpt lat="48.60708" lon="1.96737">
        <ele>106.84</ele>
        <time>2020-08-27T08:17:45Z</time>
      </trkpt>
      <trkpt lat="48.60709" lon="1.9674">
        <ele>106.84</ele>
        <time>2020-08-27T08:17:46Z</time>
      </trkpt>
      <trkpt lat="48.6071" lon="1.96742">
        <ele>106.84</ele>
        <time>2020-08-27T08:17:47Z</time>
      </trkpt>
      <trkpt lat="48.6071" lon="1.96745">
        <ele>106.84</ele>
        <time>2020-08-27T08:17:48Z</time>
      </trkpt>
      <trkpt lat="48.6071" lon="1.96747">
        <ele>106.84</ele>
        <time>2020-08-27T08:17:49Z</time>
      </trkpt>
      <trkpt lat="48.6071" lon="1.9675">
        <ele>106.84</ele>
        <time>2020-08-27T08:17:50Z</time>
      </trkpt>
      <trkpt lat="48.6071" lon="1.96752">
        <ele>106.36</ele>
        <time>2020-08-27T08:17:51Z</time>
      </trkpt>
      <trkpt lat="48.6071" lon="1.96753">
        <ele>106.36</ele>
        <time>2020-08-27T08:17:52Z</time>
      </trkpt>
      <trkpt lat="48.60711" lon="1.96756">
        <ele>106.36</ele>
        <time>2020-08-27T08:17:53Z</time>
      </trkpt>
      <trkpt lat="48.60711" lon="1.96757">
        <ele>106.84</ele>
        <time>2020-08-27T08:17:54Z</time>
      </trkpt>
      <trkpt lat="48.60711" lon="1.96759">
        <ele>106.36</ele>
        <time>2020-08-27T08:17:55Z</time>
      </trkpt>
      <trkpt lat="48.60712" lon="1.96761">
        <ele>106.36</ele>
        <time>2020-08-27T08:17:56Z</time>
      </trkpt>
      <trkpt lat="48.60712" lon="1.96763">
        <ele>106.36</ele>
        <time>2020-08-27T08:17:57Z</time>
      </trkpt>
      <trkpt lat="48.60712" lon="1.96765">
        <ele>105.88</ele>
        <time>2020-08-27T08:17:58Z</time>
      </trkpt>
      <trkpt lat="48.60712" lon="1.96767">
        <ele>106.36</ele>
        <time>2020-08-27T08:17:59Z</time>
      </trkpt>
      <trkpt lat="48.60712" lon="1.96769">
        <ele>106.36</ele>
        <time>2020-08-27T08:18:00Z</time>
      </trkpt>
      <trkpt lat="48.60712" lon="1.9677">
        <ele>106.36</ele>
        <time>2020-08-27T08:18:01Z</time>
      </trkpt>
      <trkpt lat="48.60712" lon="1.96772">
        <ele>105.88</ele>
        <time>2020-08-27T08:18:02Z</time>
      </trkpt>
      <trkpt lat="48.60712" lon="1.96773">
        <ele>105.88</ele>
        <time>2020-08-27T08:18:03Z</time>
      </trkpt>
      <trkpt lat="48.60711" lon="1.96775">
        <ele>105.88</ele>
        <time>2020-08-27T08:18:04Z</time>
      </trkpt>
      <trkpt lat="48.60711" lon="1.96776">
        <ele>106.36</ele>
        <time>2020-08-27T08:18:05Z</time>
      </trkpt>
      <trkpt lat="48.60711" lon="1.96778">
        <ele>106.36</ele>
        <time>2020-08-27T08:18:06Z</time>
      </trkpt>
      <trkpt lat="48.60711" lon="1.9678">
        <ele>105.88</ele>
        <time>2020-08-27T08:18:07Z</time>
      </trkpt>
      <trkpt lat="48.6071" lon="1.96782">
        <ele>105.88</ele>
        <time>2020-08-27T08:18:08Z</time>
      </trkpt>
      <trkpt lat="48.6071" lon="1.96785">
        <ele>106.36</ele>
        <time>2020-08-27T08:18:09Z</time>
      </trkpt>
      <trkpt lat="48.60709" lon="1.96787">
        <ele>105.88</ele>
        <time>2020-08-27T08:18:10Z</time>
      </trkpt>
      <trkpt lat="48.60709" lon="1.96789">
        <ele>105.88</ele>
        <time>2020-08-27T08:18:11Z</time>
      </trkpt>
      <trkpt lat="48.60708" lon="1.96791">
        <ele>105.88</ele>
        <time>2020-08-27T08:18:12Z</time>
      </trkpt>
      <trkpt lat="48.60708" lon="1.96792">
        <ele>105.88</ele>
        <time>2020-08-27T08:18:13Z</time>
      </trkpt>
      <trkpt lat="48.60708" lon="1.96794">
        <ele>105.88</ele>
        <time>2020-08-27T08:18:14Z</time>
      </trkpt>
      <trkpt lat="48.60707" lon="1.96796">
        <ele>106.36</ele>
        <time>2020-08-27T08:18:15Z</time>
      </trkpt>
      <trkpt lat="48.60707" lon="1.96798">
        <ele>106.36</ele>
        <time>2020-08-27T08:18:16Z</time>
      </trkpt>
      <trkpt lat="48.60706" lon="1.96801">
        <ele>106.36</ele>
        <time>2020-08-27T08:18:17Z</time>
      </trkpt>
      <trkpt lat="48.60706" lon="1.96803">
        <ele>106.36</ele>
        <time>2020-08-27T08:18:18Z</time>
      </trkpt>
      <trkpt lat="48.60706" lon="1.96806">
        <ele>105.88</ele>
        <time>2020-08-27T08:18:19Z</time>
      </trkpt>
      <trkpt lat="48.60706" lon="1.96809">
        <ele>106.36</ele>
        <time>2020-08-27T08:18:20Z</time>
      </trkpt>
      <trkpt lat="48.60705" lon="1.96812">
        <ele>105.88</ele>
        <time>2020-08-27T08:18:21Z</time>
      </trkpt>
      <trkpt lat="48.60704" lon="1.96814">
        <ele>105.88</ele>
        <time>2020-08-27T08:18:22Z</time>
      </trkpt>
      <trkpt lat="48.60704" lon="1.96817">
        <ele>105.88</ele>
        <time>2020-08-27T08:18:23Z</time>
      </trkpt>
      <trkpt lat="48.60703" lon="1.96819">
        <ele>105.88</ele>
        <time>2020-08-27T08:18:24Z</time>
      </trkpt>
      <trkpt lat="48.60703" lon="1.96822">
        <ele>105.88</ele>
        <time>2020-08-27T08:18:25Z</time>
      </trkpt>
      <trkpt lat="48.60703" lon="1.96824">
        <ele>105.4</ele>
        <time>2020-08-27T08:18:26Z</time>
      </trkpt>
      <trkpt lat="48.60703" lon="1.96825">
        <ele>105.88</ele>
        <time>2020-08-27T08:18:27Z</time>
      </trkpt>
      <trkpt lat="48.60702" lon="1.96827">
        <ele>105.88</ele>
        <time>2020-08-27T08:18:28Z</time>
      </trkpt>
      <trkpt lat="48.60702" lon="1.96829">
        <ele>106.36</ele>
        <time>2020-08-27T08:18:29Z</time>
      </trkpt>
      <trkpt lat="48.60702" lon="1.96831">
        <ele>105.88</ele>
        <time>2020-08-27T08:18:30Z</time>
      </trkpt>
      <trkpt lat="48.60701" lon="1.96832">
        <ele>105.88</ele>
        <time>2020-08-27T08:18:31Z</time>
      </trkpt>
      <trkpt lat="48.60701" lon="1.96834">
        <ele>105.88</ele>
        <time>2020-08-27T08:18:32Z</time>
      </trkpt>
      <trkpt lat="48.60701" lon="1.96836">
        <ele>105.88</ele>
        <time>2020-08-27T08:18:33Z</time>
      </trkpt>
      <trkpt lat="48.607" lon="1.96838">
        <ele>105.4</ele>
        <time>2020-08-27T08:18:34Z</time>
      </trkpt>
      <trkpt lat="48.607" lon="1.96841">
        <ele>105.88</ele>
        <time>2020-08-27T08:18:35Z</time>
      </trkpt>
      <trkpt lat="48.60699" lon="1.96843">
        <ele>105.4</ele>
        <time>2020-08-27T08:18:36Z</time>
      </trkpt>
      <trkpt lat="48.607" lon="1.96845">
        <ele>105.4</ele>
        <time>2020-08-27T08:18:37Z</time>
      </trkpt>
      <trkpt lat="48.60699" lon="1.96847">
        <ele>105.88</ele>
        <time>2020-08-27T08:18:38Z</time>
      </trkpt>
      <trkpt lat="48.60699" lon="1.96849">
        <ele>105.88</ele>
        <time>2020-08-27T08:18:39Z</time>
      </trkpt>
      <trkpt lat="48.60699" lon="1.96851">
        <ele>106.36</ele>
        <time>2020-08-27T08:18:40Z</time>
      </trkpt>
      <trkpt lat="48.60698" lon="1.96853">
        <ele>105.88</ele>
        <time>2020-08-27T08:18:41Z</time>
      </trkpt>
      <trkpt lat="48.60698" lon="1.96854">
        <ele>105.88</ele>
        <time>2020-08-27T08:18:42Z</time>
      </trkpt>
      <trkpt lat="48.60698" lon="1.96855">
        <ele>105.88</ele>
        <time>2020-08-27T08:18:43Z</time>
      </trkpt>
      <trkpt lat="48.60698" lon="1.96857">
        <ele>105.4</ele>
        <time>2020-08-27T08:18:44Z</time>
      </trkpt>
      <trkpt lat="48.60698" lon="1.96859">
        <ele>105.88</ele>
        <time>2020-08-27T08:18:45Z</time>
      </trkpt>
      <trkpt lat="48.60698" lon="1.96861">
        <ele>105.88</ele>
        <time>2020-08-27T08:18:46Z</time>
      </trkpt>
      <trkpt lat="48.60697" lon="1.96863">
        <ele>105.88</ele>
        <time>2020-08-27T08:18:47Z</time>
      </trkpt>
      <trkpt lat="48.60697" lon="1.96865">
        <ele>105.88</ele>
        <time>2020-08-27T08:18:48Z</time>
      </trkpt>
      <trkpt lat="48.60696" lon="1.96868">
        <ele>105.88</ele>
        <time>2020-08-27T08:18:49Z</time>
      </trkpt>
      <trkpt lat="48.60696" lon="1.9687">
        <ele>105.88</ele>
        <time>2020-08-27T08:18:50Z</time>
      </trkpt>
      <trkpt lat="48.60696" lon="1.96873">
        <ele>105.88</ele>
        <time>2020-08-27T08:18:51Z</time>
      </trkpt>
      <trkpt lat="48.60695" lon="1.96876">
        <ele>105.88</ele>
        <time>2020-08-27T08:18:52Z</time>
      </trkpt>
      <trkpt lat="48.60695" lon="1.96877">
        <ele>105.88</ele>
        <time>2020-08-27T08:18:53Z</time>
      </trkpt>
      <trkpt lat="48.60695" lon="1.96879">
        <ele>105.88</ele>
        <time>2020-08-27T08:18:54Z</time>
      </trkpt>
      <trkpt lat="48.60695" lon="1.96881">
        <ele>105.88</ele>
        <time>2020-08-27T08:18:55Z</time>
      </trkpt>
      <trkpt lat="48.60695" lon="1.96882">
        <ele>105.4</ele>
        <time>2020-08-27T08:18:56Z</time>
      </trkpt>
      <trkpt lat="48.60694" lon="1.96883">
        <ele>105.4</ele>
        <time>2020-08-27T08:18:57Z</time>
      </trkpt>
      <trkpt lat="48.60694" lon="1.96884">
        <ele>105.4</ele>
        <time>2020-08-27T08:18:58Z</time>
      </trkpt>
      <trkpt lat="48.60694" lon="1.96885">
        <ele>105.88</ele>
        <time>2020-08-27T08:18:59Z</time>
      </trkpt>
      <trkpt lat="48.60694" lon="1.96886">
        <ele>105.88</ele>
        <time>2020-08-27T08:19:00Z</time>
      </trkpt>
      <trkpt lat="48.60694" lon="1.96887">
        <ele>105.88</ele>
        <time>2020-08-27T08:19:01Z</time>
      </trkpt>
      <trkpt lat="48.60694" lon="1.96889">
        <ele>105.88</ele>
        <time>2020-08-27T08:19:02Z</time>
      </trkpt>
      <trkpt lat="48.60694" lon="1.96891">
        <ele>105.88</ele>
        <time>2020-08-27T08:19:03Z</time>
      </trkpt>
      <trkpt lat="48.60694" lon="1.96892">
        <ele>105.88</ele>
        <time>2020-08-27T08:19:04Z</time>
      </trkpt>
      <trkpt lat="48.60694" lon="1.96894">
        <ele>104.44</ele>
        <time>2020-08-27T08:19:05Z</time>
      </trkpt>
      <trkpt lat="48.60693" lon="1.96895">
        <ele>106.36</ele>
        <time>2020-08-27T08:19:06Z</time>
      </trkpt>
      <trkpt lat="48.60693" lon="1.96898">
        <ele>105.88</ele>
        <time>2020-08-27T08:19:07Z</time>
      </trkpt>
      <trkpt lat="48.60692" lon="1.969">
        <ele>105.88</ele>
        <time>2020-08-27T08:19:08Z</time>
      </trkpt>
      <trkpt lat="48.60691" lon="1.96902">
        <ele>105.88</ele>
        <time>2020-08-27T08:19:09Z</time>
      </trkpt>
      <trkpt lat="48.6069" lon="1.96904">
        <ele>105.88</ele>
        <time>2020-08-27T08:19:10Z</time>
      </trkpt>
      <trkpt lat="48.6069" lon="1.96906">
        <ele>105.88</ele>
        <time>2020-08-27T08:19:11Z</time>
      </trkpt>
      <trkpt lat="48.60689" lon="1.96908">
        <ele>105.88</ele>
        <time>2020-08-27T08:19:12Z</time>
      </trkpt>
      <trkpt lat="48.60688" lon="1.9691">
        <ele>105.88</ele>
        <time>2020-08-27T08:19:13Z</time>
      </trkpt>
      <trkpt lat="48.60687" lon="1.96912">
        <ele>105.88</ele>
        <time>2020-08-27T08:19:14Z</time>
      </trkpt>
      <trkpt lat="48.60685" lon="1.96914">
        <ele>105.88</ele>
        <time>2020-08-27T08:19:15Z</time>
      </trkpt>
      <trkpt lat="48.60684" lon="1.96916">
        <ele>106.36</ele>
        <time>2020-08-27T08:19:16Z</time>
      </trkpt>
      <trkpt lat="48.60683" lon="1.96916">
        <ele>105.88</ele>
        <time>2020-08-27T08:19:17Z</time>
      </trkpt>
      <trkpt lat="48.60681" lon="1.96918">
        <ele>105.88</ele>
        <time>2020-08-27T08:19:18Z</time>
      </trkpt>
      <trkpt lat="48.6068" lon="1.96918">
        <ele>106.36</ele>
        <time>2020-08-27T08:19:19Z</time>
      </trkpt>
      <trkpt lat="48.60679" lon="1.96919">
        <ele>105.88</ele>
        <time>2020-08-27T08:19:20Z</time>
      </trkpt>
      <trkpt lat="48.60678" lon="1.9692">
        <ele>106.36</ele>
        <time>2020-08-27T08:19:21Z</time>
      </trkpt>
      <trkpt lat="48.60677" lon="1.96922">
        <ele>106.84</ele>
        <time>2020-08-27T08:19:22Z</time>
      </trkpt>
      <trkpt lat="48.60677" lon="1.96924">
        <ele>106.36</ele>
        <time>2020-08-27T08:19:23Z</time>
      </trkpt>
      <trkpt lat="48.60677" lon="1.96926">
        <ele>106.36</ele>
        <time>2020-08-27T08:19:24Z</time>
      </trkpt>
      <trkpt lat="48.60677" lon="1.96927">
        <ele>106.36</ele>
        <time>2020-08-27T08:19:25Z</time>
      </trkpt>
      <trkpt lat="48.60677" lon="1.96929">
        <ele>106.36</ele>
        <time>2020-08-27T08:19:26Z</time>
      </trkpt>
      <trkpt lat="48.60677" lon="1.9693">
        <ele>106.36</ele>
        <time>2020-08-27T08:19:27Z</time>
      </trkpt>
      <trkpt lat="48.60677" lon="1.9693">
        <ele>106.84</ele>
        <time>2020-08-27T08:19:28Z</time>
      </trkpt>
      <trkpt lat="48.60677" lon="1.96931">
        <ele>106.36</ele>
        <time>2020-08-27T08:19:29Z</time>
      </trkpt>
      <trkpt lat="48.60678" lon="1.96933">
        <ele>106.36</ele>
        <time>2020-08-27T08:19:30Z</time>
      </trkpt>
      <trkpt lat="48.60677" lon="1.96935">
        <ele>106.36</ele>
        <time>2020-08-27T08:19:31Z</time>
      </trkpt>
      <trkpt lat="48.60677" lon="1.96936">
        <ele>106.36</ele>
        <time>2020-08-27T08:19:32Z</time>
      </trkpt>
      <trkpt lat="48.60677" lon="1.96938">
        <ele>106.84</ele>
        <time>2020-08-27T08:19:33Z</time>
      </trkpt>
      <trkpt lat="48.60676" lon="1.96939">
        <ele>106.36</ele>
        <time>2020-08-27T08:19:34Z</time>
      </trkpt>
      <trkpt lat="48.60675" lon="1.96941">
        <ele>105.88</ele>
        <time>2020-08-27T08:19:35Z</time>
      </trkpt>
      <trkpt lat="48.60675" lon="1.96943">
        <ele>105.88</ele>
        <time>2020-08-27T08:19:36Z</time>
      </trkpt>
      <trkpt lat="48.60674" lon="1.96944">
        <ele>105.88</ele>
        <time>2020-08-27T08:19:37Z</time>
      </trkpt>
      <trkpt lat="48.60674" lon="1.96946">
        <ele>106.36</ele>
        <time>2020-08-27T08:19:38Z</time>
      </trkpt>
      <trkpt lat="48.60674" lon="1.96948">
        <ele>106.84</ele>
        <time>2020-08-27T08:19:39Z</time>
      </trkpt>
      <trkpt lat="48.60673" lon="1.96949">
        <ele>106.36</ele>
        <time>2020-08-27T08:19:40Z</time>
      </trkpt>
      <trkpt lat="48.60672" lon="1.9695">
        <ele>106.36</ele>
        <time>2020-08-27T08:19:41Z</time>
      </trkpt>
      <trkpt lat="48.60672" lon="1.96951">
        <ele>106.36</ele>
        <time>2020-08-27T08:19:42Z</time>
      </trkpt>
      <trkpt lat="48.60671" lon="1.96952">
        <ele>106.36</ele>
        <time>2020-08-27T08:19:43Z</time>
      </trkpt>
      <trkpt lat="48.6067" lon="1.96953">
        <ele>106.36</ele>
        <time>2020-08-27T08:19:44Z</time>
      </trkpt>
      <trkpt lat="48.6067" lon="1.96955">
        <ele>106.36</ele>
        <time>2020-08-27T08:19:45Z</time>
      </trkpt>
      <trkpt lat="48.60669" lon="1.96957">
        <ele>106.84</ele>
        <time>2020-08-27T08:19:46Z</time>
      </trkpt>
      <trkpt lat="48.60668" lon="1.96959">
        <ele>106.84</ele>
        <time>2020-08-27T08:19:47Z</time>
      </trkpt>
      <trkpt lat="48.60667" lon="1.96961">
        <ele>106.36</ele>
        <time>2020-08-27T08:19:48Z</time>
      </trkpt>
      <trkpt lat="48.60666" lon="1.96965">
        <ele>106.84</ele>
        <time>2020-08-27T08:19:49Z</time>
      </trkpt>
      <trkpt lat="48.60665" lon="1.96968">
        <ele>106.36</ele>
        <time>2020-08-27T08:19:50Z</time>
      </trkpt>
      <trkpt lat="48.60664" lon="1.9697">
        <ele>106.36</ele>
        <time>2020-08-27T08:19:51Z</time>
      </trkpt>
      <trkpt lat="48.60664" lon="1.96972">
        <ele>106.36</ele>
        <time>2020-08-27T08:19:52Z</time>
      </trkpt>
      <trkpt lat="48.60663" lon="1.96974">
        <ele>106.36</ele>
        <time>2020-08-27T08:19:53Z</time>
      </trkpt>
      <trkpt lat="48.60663" lon="1.96977">
        <ele>106.36</ele>
        <time>2020-08-27T08:19:54Z</time>
      </trkpt>
      <trkpt lat="48.60661" lon="1.9698">
        <ele>106.84</ele>
        <time>2020-08-27T08:19:55Z</time>
      </trkpt>
      <trkpt lat="48.60661" lon="1.96982">
        <ele>106.84</ele>
        <time>2020-08-27T08:19:56Z</time>
      </trkpt>
      <trkpt lat="48.6066" lon="1.96985">
        <ele>106.36</ele>
        <time>2020-08-27T08:19:57Z</time>
      </trkpt>
      <trkpt lat="48.6066" lon="1.96988">
        <ele>106.36</ele>
        <time>2020-08-27T08:19:58Z</time>
      </trkpt>
      <trkpt lat="48.6066" lon="1.96991">
        <ele>106.84</ele>
        <time>2020-08-27T08:19:59Z</time>
      </trkpt>
      <trkpt lat="48.60659" lon="1.96993">
        <ele>106.84</ele>
        <time>2020-08-27T08:20:00Z</time>
      </trkpt>
      <trkpt lat="48.60659" lon="1.96996">
        <ele>106.36</ele>
        <time>2020-08-27T08:20:01Z</time>
      </trkpt>
      <trkpt lat="48.60658" lon="1.96998">
        <ele>107.32</ele>
        <time>2020-08-27T08:20:02Z</time>
      </trkpt>
      <trkpt lat="48.60657" lon="1.97">
        <ele>106.84</ele>
        <time>2020-08-27T08:20:03Z</time>
      </trkpt>
      <trkpt lat="48.60657" lon="1.97002">
        <ele>106.36</ele>
        <time>2020-08-27T08:20:04Z</time>
      </trkpt>
      <trkpt lat="48.60656" lon="1.97004">
        <ele>106.84</ele>
        <time>2020-08-27T08:20:05Z</time>
      </trkpt>
      <trkpt lat="48.60656" lon="1.97007">
        <ele>106.84</ele>
        <time>2020-08-27T08:20:06Z</time>
      </trkpt>
      <trkpt lat="48.60656" lon="1.9701">
        <ele>106.36</ele>
        <time>2020-08-27T08:20:07Z</time>
      </trkpt>
      <trkpt lat="48.60656" lon="1.97012">
        <ele>106.36</ele>
        <time>2020-08-27T08:20:08Z</time>
      </trkpt>
      <trkpt lat="48.60656" lon="1.97014">
        <ele>106.36</ele>
        <time>2020-08-27T08:20:09Z</time>
      </trkpt>
      <trkpt lat="48.60656" lon="1.97017">
        <ele>106.36</ele>
        <time>2020-08-27T08:20:10Z</time>
      </trkpt>
      <trkpt lat="48.60656" lon="1.97019">
        <ele>106.36</ele>
        <time>2020-08-27T08:20:11Z</time>
      </trkpt>
      <trkpt lat="48.60656" lon="1.97021">
        <ele>106.36</ele>
        <time>2020-08-27T08:20:12Z</time>
      </trkpt>
      <trkpt lat="48.60656" lon="1.97023">
        <ele>106.36</ele>
        <time>2020-08-27T08:20:13Z</time>
      </trkpt>
      <trkpt lat="48.60656" lon="1.97026">
        <ele>106.36</ele>
        <time>2020-08-27T08:20:14Z</time>
      </trkpt>
      <trkpt lat="48.60656" lon="1.97028">
        <ele>105.88</ele>
        <time>2020-08-27T08:20:15Z</time>
      </trkpt>
      <trkpt lat="48.60657" lon="1.9703">
        <ele>106.36</ele>
        <time>2020-08-27T08:20:16Z</time>
      </trkpt>
      <trkpt lat="48.60657" lon="1.97032">
        <ele>106.36</ele>
        <time>2020-08-27T08:20:17Z</time>
      </trkpt>
      <trkpt lat="48.60657" lon="1.97035">
        <ele>106.36</ele>
        <time>2020-08-27T08:20:18Z</time>
      </trkpt>
      <trkpt lat="48.60657" lon="1.97037">
        <ele>106.36</ele>
        <time>2020-08-27T08:20:19Z</time>
      </trkpt>
      <trkpt lat="48.60658" lon="1.9704">
        <ele>105.88</ele>
        <time>2020-08-27T08:20:20Z</time>
      </trkpt>
      <trkpt lat="48.60657" lon="1.97042">
        <ele>105.88</ele>
        <time>2020-08-27T08:20:21Z</time>
      </trkpt>
      <trkpt lat="48.60657" lon="1.97045">
        <ele>105.88</ele>
        <time>2020-08-27T08:20:22Z</time>
      </trkpt>
      <trkpt lat="48.60657" lon="1.97047">
        <ele>105.88</ele>
        <time>2020-08-27T08:20:23Z</time>
      </trkpt>
      <trkpt lat="48.60657" lon="1.97049">
        <ele>105.4</ele>
        <time>2020-08-27T08:20:24Z</time>
      </trkpt>
      <trkpt lat="48.60658" lon="1.97051">
        <ele>105.4</ele>
        <time>2020-08-27T08:20:25Z</time>
      </trkpt>
      <trkpt lat="48.60658" lon="1.97053">
        <ele>105.88</ele>
        <time>2020-08-27T08:20:26Z</time>
      </trkpt>
      <trkpt lat="48.60659" lon="1.97055">
        <ele>105.88</ele>
        <time>2020-08-27T08:20:27Z</time>
      </trkpt>
      <trkpt lat="48.6066" lon="1.97056">
        <ele>105.4</ele>
        <time>2020-08-27T08:20:28Z</time>
      </trkpt>
      <trkpt lat="48.60661" lon="1.97057">
        <ele>105.4</ele>
        <time>2020-08-27T08:20:29Z</time>
      </trkpt>
      <trkpt lat="48.60662" lon="1.97058">
        <ele>105.4</ele>
        <time>2020-08-27T08:20:30Z</time>
      </trkpt>
      <trkpt lat="48.60662" lon="1.97059">
        <ele>105.4</ele>
        <time>2020-08-27T08:20:31Z</time>
      </trkpt>
      <trkpt lat="48.60663" lon="1.97059">
        <ele>104.92</ele>
        <time>2020-08-27T08:20:32Z</time>
      </trkpt>
      <trkpt lat="48.60664" lon="1.9706">
        <ele>104.92</ele>
        <time>2020-08-27T08:20:33Z</time>
      </trkpt>
      <trkpt lat="48.60665" lon="1.97061">
        <ele>104.44</ele>
        <time>2020-08-27T08:20:34Z</time>
      </trkpt>
      <trkpt lat="48.60666" lon="1.97062">
        <ele>104.92</ele>
        <time>2020-08-27T08:20:35Z</time>
      </trkpt>
      <trkpt lat="48.60667" lon="1.97063">
        <ele>104.44</ele>
        <time>2020-08-27T08:20:36Z</time>
      </trkpt>
      <trkpt lat="48.60669" lon="1.97064">
        <ele>104.44</ele>
        <time>2020-08-27T08:20:37Z</time>
      </trkpt>
      <trkpt lat="48.6067" lon="1.97066">
        <ele>103.96</ele>
        <time>2020-08-27T08:20:38Z</time>
      </trkpt>
      <trkpt lat="48.60671" lon="1.97068">
        <ele>104.44</ele>
        <time>2020-08-27T08:20:39Z</time>
      </trkpt>
      <trkpt lat="48.60672" lon="1.9707">
        <ele>104.44</ele>
        <time>2020-08-27T08:20:40Z</time>
      </trkpt>
      <trkpt lat="48.60673" lon="1.97071">
        <ele>103.96</ele>
        <time>2020-08-27T08:20:41Z</time>
      </trkpt>
      <trkpt lat="48.60674" lon="1.97073">
        <ele>103.96</ele>
        <time>2020-08-27T08:20:42Z</time>
      </trkpt>
      <trkpt lat="48.60675" lon="1.97075">
        <ele>103.96</ele>
        <time>2020-08-27T08:20:43Z</time>
      </trkpt>
      <trkpt lat="48.60677" lon="1.97076">
        <ele>103.96</ele>
        <time>2020-08-27T08:20:44Z</time>
      </trkpt>
      <trkpt lat="48.60678" lon="1.97078">
        <ele>103.96</ele>
        <time>2020-08-27T08:20:45Z</time>
      </trkpt>
      <trkpt lat="48.60679" lon="1.97079">
        <ele>103.48</ele>
        <time>2020-08-27T08:20:46Z</time>
      </trkpt>
      <trkpt lat="48.60681" lon="1.97081">
        <ele>103</ele>
        <time>2020-08-27T08:20:47Z</time>
      </trkpt>
      <trkpt lat="48.60682" lon="1.97083">
        <ele>103</ele>
        <time>2020-08-27T08:20:48Z</time>
      </trkpt>
      <trkpt lat="48.60683" lon="1.97084">
        <ele>103.48</ele>
        <time>2020-08-27T08:20:49Z</time>
      </trkpt>
      <trkpt lat="48.60684" lon="1.97085">
        <ele>103.48</ele>
        <time>2020-08-27T08:20:50Z</time>
      </trkpt>
      <trkpt lat="48.60686" lon="1.97086">
        <ele>103.48</ele>
        <time>2020-08-27T08:20:51Z</time>
      </trkpt>
      <trkpt lat="48.60687" lon="1.97087">
        <ele>103.48</ele>
        <time>2020-08-27T08:20:52Z</time>
      </trkpt>
      <trkpt lat="48.60688" lon="1.97089">
        <ele>103</ele>
        <time>2020-08-27T08:20:53Z</time>
      </trkpt>
      <trkpt lat="48.60689" lon="1.97091">
        <ele>103</ele>
        <time>2020-08-27T08:20:54Z</time>
      </trkpt>
      <trkpt lat="48.6069" lon="1.97092">
        <ele>103</ele>
        <time>2020-08-27T08:20:55Z</time>
      </trkpt>
      <trkpt lat="48.6069" lon="1.97094">
        <ele>102.52</ele>
        <time>2020-08-27T08:20:56Z</time>
      </trkpt>
      <trkpt lat="48.60691" lon="1.97095">
        <ele>102.52</ele>
        <time>2020-08-27T08:20:57Z</time>
      </trkpt>
      <trkpt lat="48.60692" lon="1.97097">
        <ele>102.52</ele>
        <time>2020-08-27T08:20:58Z</time>
      </trkpt>
      <trkpt lat="48.60693" lon="1.97098">
        <ele>102.52</ele>
        <time>2020-08-27T08:20:59Z</time>
      </trkpt>
      <trkpt lat="48.60694" lon="1.971">
        <ele>102.04</ele>
        <time>2020-08-27T08:21:00Z</time>
      </trkpt>
      <trkpt lat="48.60695" lon="1.97102">
        <ele>102.04</ele>
        <time>2020-08-27T08:21:01Z</time>
      </trkpt>
      <trkpt lat="48.60696" lon="1.97103">
        <ele>102.52</ele>
        <time>2020-08-27T08:21:02Z</time>
      </trkpt>
      <trkpt lat="48.60698" lon="1.97104">
        <ele>102.04</ele>
        <time>2020-08-27T08:21:03Z</time>
      </trkpt>
      <trkpt lat="48.60699" lon="1.97105">
        <ele>102.04</ele>
        <time>2020-08-27T08:21:04Z</time>
      </trkpt>
      <trkpt lat="48.607" lon="1.97107">
        <ele>102.04</ele>
        <time>2020-08-27T08:21:05Z</time>
      </trkpt>
      <trkpt lat="48.60701" lon="1.97108">
        <ele>102.04</ele>
        <time>2020-08-27T08:21:06Z</time>
      </trkpt>
      <trkpt lat="48.60702" lon="1.9711">
        <ele>102.04</ele>
        <time>2020-08-27T08:21:07Z</time>
      </trkpt>
      <trkpt lat="48.60703" lon="1.97111">
        <ele>101.56</ele>
        <time>2020-08-27T08:21:08Z</time>
      </trkpt>
      <trkpt lat="48.60703" lon="1.97112">
        <ele>101.56</ele>
        <time>2020-08-27T08:21:09Z</time>
      </trkpt>
      <trkpt lat="48.60703" lon="1.97113">
        <ele>101.56</ele>
        <time>2020-08-27T08:21:10Z</time>
      </trkpt>
      <trkpt lat="48.60703" lon="1.97114">
        <ele>101.56</ele>
        <time>2020-08-27T08:21:11Z</time>
      </trkpt>
      <trkpt lat="48.60703" lon="1.97116">
        <ele>101.56</ele>
        <time>2020-08-27T08:21:12Z</time>
      </trkpt>
      <trkpt lat="48.60703" lon="1.97117">
        <ele>102.04</ele>
        <time>2020-08-27T08:21:13Z</time>
      </trkpt>
      <trkpt lat="48.60704" lon="1.97119">
        <ele>101.56</ele>
        <time>2020-08-27T08:21:14Z</time>
      </trkpt>
      <trkpt lat="48.60704" lon="1.9712">
        <ele>101.56</ele>
        <time>2020-08-27T08:21:15Z</time>
      </trkpt>
      <trkpt lat="48.60705" lon="1.97123">
        <ele>101.56</ele>
        <time>2020-08-27T08:21:16Z</time>
      </trkpt>
      <trkpt lat="48.60705" lon="1.97126">
        <ele>101.56</ele>
        <time>2020-08-27T08:21:17Z</time>
      </trkpt>
      <trkpt lat="48.60704" lon="1.97128">
        <ele>101.56</ele>
        <time>2020-08-27T08:21:18Z</time>
      </trkpt>
      <trkpt lat="48.60704" lon="1.97131">
        <ele>101.08</ele>
        <time>2020-08-27T08:21:19Z</time>
      </trkpt>
      <trkpt lat="48.60704" lon="1.97133">
        <ele>101.08</ele>
        <time>2020-08-27T08:21:20Z</time>
      </trkpt>
      <trkpt lat="48.60703" lon="1.97135">
        <ele>101.08</ele>
        <time>2020-08-27T08:21:21Z</time>
      </trkpt>
      <trkpt lat="48.60703" lon="1.97137">
        <ele>100.6</ele>
        <time>2020-08-27T08:21:22Z</time>
      </trkpt>
      <trkpt lat="48.60703" lon="1.9714">
        <ele>101.08</ele>
        <time>2020-08-27T08:21:23Z</time>
      </trkpt>
      <trkpt lat="48.60703" lon="1.97142">
        <ele>101.08</ele>
        <time>2020-08-27T08:21:24Z</time>
      </trkpt>
      <trkpt lat="48.60704" lon="1.97144">
        <ele>101.08</ele>
        <time>2020-08-27T08:21:25Z</time>
      </trkpt>
      <trkpt lat="48.60704" lon="1.97146">
        <ele>100.6</ele>
        <time>2020-08-27T08:21:26Z</time>
      </trkpt>
      <trkpt lat="48.60704" lon="1.97147">
        <ele>101.08</ele>
        <time>2020-08-27T08:21:27Z</time>
      </trkpt>
      <trkpt lat="48.60705" lon="1.97149">
        <ele>100.6</ele>
        <time>2020-08-27T08:21:28Z</time>
      </trkpt>
      <trkpt lat="48.60705" lon="1.97151">
        <ele>100.6</ele>
        <time>2020-08-27T08:21:29Z</time>
      </trkpt>
      <trkpt lat="48.60705" lon="1.97153">
        <ele>100.6</ele>
        <time>2020-08-27T08:21:30Z</time>
      </trkpt>
      <trkpt lat="48.60705" lon="1.97155">
        <ele>100.6</ele>
        <time>2020-08-27T08:21:31Z</time>
      </trkpt>
      <trkpt lat="48.60706" lon="1.97157">
        <ele>100.6</ele>
        <time>2020-08-27T08:21:32Z</time>
      </trkpt>
      <trkpt lat="48.60706" lon="1.97159">
        <ele>101.08</ele>
        <time>2020-08-27T08:21:33Z</time>
      </trkpt>
      <trkpt lat="48.60707" lon="1.97162">
        <ele>100.6</ele>
        <time>2020-08-27T08:21:34Z</time>
      </trkpt>
      <trkpt lat="48.60707" lon="1.97165">
        <ele>100.11</ele>
        <time>2020-08-27T08:21:35Z</time>
      </trkpt>
      <trkpt lat="48.60708" lon="1.97167">
        <ele>100.11</ele>
        <time>2020-08-27T08:21:36Z</time>
      </trkpt>
      <trkpt lat="48.60708" lon="1.9717">
        <ele>100.11</ele>
        <time>2020-08-27T08:21:37Z</time>
      </trkpt>
      <trkpt lat="48.60708" lon="1.97172">
        <ele>100.11</ele>
        <time>2020-08-27T08:21:38Z</time>
      </trkpt>
      <trkpt lat="48.60708" lon="1.97174">
        <ele>100.11</ele>
        <time>2020-08-27T08:21:39Z</time>
      </trkpt>
      <trkpt lat="48.60708" lon="1.97176">
        <ele>100.11</ele>
        <time>2020-08-27T08:21:40Z</time>
      </trkpt>
      <trkpt lat="48.60708" lon="1.97178">
        <ele>100.11</ele>
        <time>2020-08-27T08:21:41Z</time>
      </trkpt>
      <trkpt lat="48.60707" lon="1.97181">
        <ele>100.11</ele>
        <time>2020-08-27T08:21:42Z</time>
      </trkpt>
      <trkpt lat="48.60707" lon="1.97183">
        <ele>100.11</ele>
        <time>2020-08-27T08:21:43Z</time>
      </trkpt>
      <trkpt lat="48.60707" lon="1.97185">
        <ele>100.6</ele>
        <time>2020-08-27T08:21:44Z</time>
      </trkpt>
      <trkpt lat="48.60707" lon="1.97187">
        <ele>100.11</ele>
        <time>2020-08-27T08:21:45Z</time>
      </trkpt>
      <trkpt lat="48.60706" lon="1.97189">
        <ele>100.11</ele>
        <time>2020-08-27T08:21:46Z</time>
      </trkpt>
      <trkpt lat="48.60705" lon="1.9719">
        <ele>100.11</ele>
        <time>2020-08-27T08:21:47Z</time>
      </trkpt>
      <trkpt lat="48.60705" lon="1.97191">
        <ele>100.11</ele>
        <time>2020-08-27T08:21:48Z</time>
      </trkpt>
      <trkpt lat="48.60705" lon="1.97192">
        <ele>100.11</ele>
        <time>2020-08-27T08:21:49Z</time>
      </trkpt>
      <trkpt lat="48.60704" lon="1.97194">
        <ele>100.11</ele>
        <time>2020-08-27T08:21:50Z</time>
      </trkpt>
      <trkpt lat="48.60704" lon="1.97196">
        <ele>100.11</ele>
        <time>2020-08-27T08:21:51Z</time>
      </trkpt>
      <trkpt lat="48.60704" lon="1.97198">
        <ele>99.63</ele>
        <time>2020-08-27T08:21:52Z</time>
      </trkpt>
      <trkpt lat="48.60704" lon="1.972">
        <ele>99.63</ele>
        <time>2020-08-27T08:21:53Z</time>
      </trkpt>
      <trkpt lat="48.60703" lon="1.97202">
        <ele>100.11</ele>
        <time>2020-08-27T08:21:54Z</time>
      </trkpt>
      <trkpt lat="48.60703" lon="1.97205">
        <ele>100.11</ele>
        <time>2020-08-27T08:21:55Z</time>
      </trkpt>
      <trkpt lat="48.60703" lon="1.97207">
        <ele>100.11</ele>
        <time>2020-08-27T08:21:56Z</time>
      </trkpt>
      <trkpt lat="48.60702" lon="1.9721">
        <ele>100.11</ele>
        <time>2020-08-27T08:21:57Z</time>
      </trkpt>
      <trkpt lat="48.60701" lon="1.97212">
        <ele>100.11</ele>
        <time>2020-08-27T08:21:58Z</time>
      </trkpt>
      <trkpt lat="48.60701" lon="1.97214">
        <ele>99.63</ele>
        <time>2020-08-27T08:21:59Z</time>
      </trkpt>
      <trkpt lat="48.607" lon="1.97216">
        <ele>99.63</ele>
        <time>2020-08-27T08:22:00Z</time>
      </trkpt>
      <trkpt lat="48.607" lon="1.97217">
        <ele>99.63</ele>
        <time>2020-08-27T08:22:01Z</time>
      </trkpt>
      <trkpt lat="48.60699" lon="1.97218">
        <ele>99.63</ele>
        <time>2020-08-27T08:22:02Z</time>
      </trkpt>
      <trkpt lat="48.60698" lon="1.9722">
        <ele>100.11</ele>
        <time>2020-08-27T08:22:03Z</time>
      </trkpt>
      <trkpt lat="48.60697" lon="1.97221">
        <ele>100.11</ele>
        <time>2020-08-27T08:22:04Z</time>
      </trkpt>
      <trkpt lat="48.60696" lon="1.97223">
        <ele>99.63</ele>
        <time>2020-08-27T08:22:05Z</time>
      </trkpt>
      <trkpt lat="48.60696" lon="1.97226">
        <ele>100.11</ele>
        <time>2020-08-27T08:22:06Z</time>
      </trkpt>
      <trkpt lat="48.60695" lon="1.97228">
        <ele>99.63</ele>
        <time>2020-08-27T08:22:07Z</time>
      </trkpt>
      <trkpt lat="48.60695" lon="1.97229">
        <ele>99.63</ele>
        <time>2020-08-27T08:22:08Z</time>
      </trkpt>
      <trkpt lat="48.60695" lon="1.97231">
        <ele>99.63</ele>
        <time>2020-08-27T08:22:09Z</time>
      </trkpt>
      <trkpt lat="48.60695" lon="1.97233">
        <ele>99.63</ele>
        <time>2020-08-27T08:22:10Z</time>
      </trkpt>
      <trkpt lat="48.60695" lon="1.97235">
        <ele>99.63</ele>
        <time>2020-08-27T08:22:11Z</time>
      </trkpt>
      <trkpt lat="48.60694" lon="1.97237">
        <ele>99.63</ele>
        <time>2020-08-27T08:22:12Z</time>
      </trkpt>
      <trkpt lat="48.60695" lon="1.9724">
        <ele>99.63</ele>
        <time>2020-08-27T08:22:13Z</time>
      </trkpt>
      <trkpt lat="48.60694" lon="1.97242">
        <ele>99.63</ele>
        <time>2020-08-27T08:22:14Z</time>
      </trkpt>
      <trkpt lat="48.60694" lon="1.97245">
        <ele>99.63</ele>
        <time>2020-08-27T08:22:15Z</time>
      </trkpt>
      <trkpt lat="48.60694" lon="1.97246">
        <ele>100.11</ele>
        <time>2020-08-27T08:22:16Z</time>
      </trkpt>
      <trkpt lat="48.60694" lon="1.97248">
        <ele>99.63</ele>
        <time>2020-08-27T08:22:17Z</time>
      </trkpt>
      <trkpt lat="48.60695" lon="1.97251">
        <ele>99.63</ele>
        <time>2020-08-27T08:22:18Z</time>
      </trkpt>
      <trkpt lat="48.60695" lon="1.97253">
        <ele>99.63</ele>
        <time>2020-08-27T08:22:19Z</time>
      </trkpt>
      <trkpt lat="48.60695" lon="1.97256">
        <ele>99.63</ele>
        <time>2020-08-27T08:22:20Z</time>
      </trkpt>
      <trkpt lat="48.60696" lon="1.97258">
        <ele>99.63</ele>
        <time>2020-08-27T08:22:21Z</time>
      </trkpt>
      <trkpt lat="48.60696" lon="1.97261">
        <ele>99.63</ele>
        <time>2020-08-27T08:22:22Z</time>
      </trkpt>
      <trkpt lat="48.60696" lon="1.97263">
        <ele>99.15</ele>
        <time>2020-08-27T08:22:23Z</time>
      </trkpt>
      <trkpt lat="48.60696" lon="1.97265">
        <ele>99.63</ele>
        <time>2020-08-27T08:22:24Z</time>
      </trkpt>
      <trkpt lat="48.60697" lon="1.97266">
        <ele>99.15</ele>
        <time>2020-08-27T08:22:25Z</time>
      </trkpt>
      <trkpt lat="48.60697" lon="1.97268">
        <ele>99.15</ele>
        <time>2020-08-27T08:22:26Z</time>
      </trkpt>
      <trkpt lat="48.60698" lon="1.97269">
        <ele>99.63</ele>
        <time>2020-08-27T08:22:27Z</time>
      </trkpt>
      <trkpt lat="48.60698" lon="1.9727">
        <ele>100.11</ele>
        <time>2020-08-27T08:22:28Z</time>
      </trkpt>
      <trkpt lat="48.60699" lon="1.97271">
        <ele>99.63</ele>
        <time>2020-08-27T08:22:29Z</time>
      </trkpt>
      <trkpt lat="48.60699" lon="1.97273">
        <ele>99.63</ele>
        <time>2020-08-27T08:22:30Z</time>
      </trkpt>
      <trkpt lat="48.60699" lon="1.97274">
        <ele>99.63</ele>
        <time>2020-08-27T08:22:31Z</time>
      </trkpt>
      <trkpt lat="48.60699" lon="1.97276">
        <ele>99.63</ele>
        <time>2020-08-27T08:22:32Z</time>
      </trkpt>
      <trkpt lat="48.607" lon="1.97279">
        <ele>99.15</ele>
        <time>2020-08-27T08:22:33Z</time>
      </trkpt>
      <trkpt lat="48.60701" lon="1.97281">
        <ele>99.63</ele>
        <time>2020-08-27T08:22:34Z</time>
      </trkpt>
      <trkpt lat="48.60701" lon="1.97283">
        <ele>99.15</ele>
        <time>2020-08-27T08:22:35Z</time>
      </trkpt>
      <trkpt lat="48.60702" lon="1.97286">
        <ele>98.67</ele>
        <time>2020-08-27T08:22:36Z</time>
      </trkpt>
      <trkpt lat="48.60703" lon="1.97289">
        <ele>98.67</ele>
        <time>2020-08-27T08:22:37Z</time>
      </trkpt>
      <trkpt lat="48.60704" lon="1.97292">
        <ele>99.15</ele>
        <time>2020-08-27T08:22:38Z</time>
      </trkpt>
      <trkpt lat="48.60705" lon="1.97295">
        <ele>99.15</ele>
        <time>2020-08-27T08:22:39Z</time>
      </trkpt>
      <trkpt lat="48.60705" lon="1.97297">
        <ele>99.15</ele>
        <time>2020-08-27T08:22:40Z</time>
      </trkpt>
      <trkpt lat="48.60707" lon="1.973">
        <ele>99.15</ele>
        <time>2020-08-27T08:22:41Z</time>
      </trkpt>
      <trkpt lat="48.60708" lon="1.97302">
        <ele>99.15</ele>
        <time>2020-08-27T08:22:42Z</time>
      </trkpt>
      <trkpt lat="48.60708" lon="1.97305">
        <ele>98.67</ele>
        <time>2020-08-27T08:22:43Z</time>
      </trkpt>
      <trkpt lat="48.60709" lon="1.97307">
        <ele>98.67</ele>
        <time>2020-08-27T08:22:44Z</time>
      </trkpt>
      <trkpt lat="48.6071" lon="1.97309">
        <ele>98.67</ele>
        <time>2020-08-27T08:22:45Z</time>
      </trkpt>
      <trkpt lat="48.6071" lon="1.9731">
        <ele>98.67</ele>
        <time>2020-08-27T08:22:46Z</time>
      </trkpt>
      <trkpt lat="48.6071" lon="1.97312">
        <ele>98.67</ele>
        <time>2020-08-27T08:22:47Z</time>
      </trkpt>
      <trkpt lat="48.60711" lon="1.97313">
        <ele>98.67</ele>
        <time>2020-08-27T08:22:48Z</time>
      </trkpt>
      <trkpt lat="48.60711" lon="1.97315">
        <ele>98.19</ele>
        <time>2020-08-27T08:22:49Z</time>
      </trkpt>
      <trkpt lat="48.60711" lon="1.97317">
        <ele>98.67</ele>
        <time>2020-08-27T08:22:50Z</time>
      </trkpt>
      <trkpt lat="48.60712" lon="1.97319">
        <ele>98.67</ele>
        <time>2020-08-27T08:22:51Z</time>
      </trkpt>
      <trkpt lat="48.60713" lon="1.9732">
        <ele>98.67</ele>
        <time>2020-08-27T08:22:52Z</time>
      </trkpt>
      <trkpt lat="48.60713" lon="1.97322">
        <ele>98.67</ele>
        <time>2020-08-27T08:22:53Z</time>
      </trkpt>
      <trkpt lat="48.60713" lon="1.97324">
        <ele>98.67</ele>
        <time>2020-08-27T08:22:54Z</time>
      </trkpt>
      <trkpt lat="48.60713" lon="1.97326">
        <ele>98.19</ele>
        <time>2020-08-27T08:22:55Z</time>
      </trkpt>
      <trkpt lat="48.60713" lon="1.97329">
        <ele>98.19</ele>
        <time>2020-08-27T08:22:56Z</time>
      </trkpt>
      <trkpt lat="48.60713" lon="1.97331">
        <ele>98.19</ele>
        <time>2020-08-27T08:22:57Z</time>
      </trkpt>
      <trkpt lat="48.60713" lon="1.97333">
        <ele>98.19</ele>
        <time>2020-08-27T08:22:58Z</time>
      </trkpt>
      <trkpt lat="48.60713" lon="1.97335">
        <ele>98.19</ele>
        <time>2020-08-27T08:22:59Z</time>
      </trkpt>
      <trkpt lat="48.60714" lon="1.97336">
        <ele>98.19</ele>
        <time>2020-08-27T08:23:00Z</time>
      </trkpt>
      <trkpt lat="48.60714" lon="1.97338">
        <ele>97.71</ele>
        <time>2020-08-27T08:23:01Z</time>
      </trkpt>
      <trkpt lat="48.60715" lon="1.97339">
        <ele>98.19</ele>
        <time>2020-08-27T08:23:02Z</time>
      </trkpt>
      <trkpt lat="48.60715" lon="1.97341">
        <ele>98.19</ele>
        <time>2020-08-27T08:23:03Z</time>
      </trkpt>
      <trkpt lat="48.60716" lon="1.97343">
        <ele>98.19</ele>
        <time>2020-08-27T08:23:04Z</time>
      </trkpt>
      <trkpt lat="48.60717" lon="1.97345">
        <ele>98.19</ele>
        <time>2020-08-27T08:23:05Z</time>
      </trkpt>
      <trkpt lat="48.60718" lon="1.97348">
        <ele>98.19</ele>
        <time>2020-08-27T08:23:06Z</time>
      </trkpt>
      <trkpt lat="48.60719" lon="1.9735">
        <ele>98.19</ele>
        <time>2020-08-27T08:23:07Z</time>
      </trkpt>
      <trkpt lat="48.60719" lon="1.97351">
        <ele>97.71</ele>
        <time>2020-08-27T08:23:08Z</time>
      </trkpt>
      <trkpt lat="48.6072" lon="1.97353">
        <ele>98.19</ele>
        <time>2020-08-27T08:23:09Z</time>
      </trkpt>
      <trkpt lat="48.6072" lon="1.97355">
        <ele>98.19</ele>
        <time>2020-08-27T08:23:10Z</time>
      </trkpt>
      <trkpt lat="48.60721" lon="1.97357">
        <ele>97.71</ele>
        <time>2020-08-27T08:23:11Z</time>
      </trkpt>
      <trkpt lat="48.60721" lon="1.9736">
        <ele>98.19</ele>
        <time>2020-08-27T08:23:12Z</time>
      </trkpt>
      <trkpt lat="48.60721" lon="1.97363">
        <ele>97.71</ele>
        <time>2020-08-27T08:23:13Z</time>
      </trkpt>
      <trkpt lat="48.60721" lon="1.97365">
        <ele>98.19</ele>
        <time>2020-08-27T08:23:14Z</time>
      </trkpt>
      <trkpt lat="48.60721" lon="1.97367">
        <ele>98.19</ele>
        <time>2020-08-27T08:23:15Z</time>
      </trkpt>
      <trkpt lat="48.60721" lon="1.9737">
        <ele>98.67</ele>
        <time>2020-08-27T08:23:16Z</time>
      </trkpt>
      <trkpt lat="48.60721" lon="1.97372">
        <ele>98.19</ele>
        <time>2020-08-27T08:23:17Z</time>
      </trkpt>
      <trkpt lat="48.60721" lon="1.97374">
        <ele>98.19</ele>
        <time>2020-08-27T08:23:18Z</time>
      </trkpt>
      <trkpt lat="48.60722" lon="1.97376">
        <ele>97.71</ele>
        <time>2020-08-27T08:23:19Z</time>
      </trkpt>
      <trkpt lat="48.60722" lon="1.97378">
        <ele>97.71</ele>
        <time>2020-08-27T08:23:20Z</time>
      </trkpt>
      <trkpt lat="48.60722" lon="1.9738">
        <ele>97.71</ele>
        <time>2020-08-27T08:23:21Z</time>
      </trkpt>
      <trkpt lat="48.60723" lon="1.97382">
        <ele>97.71</ele>
        <time>2020-08-27T08:23:22Z</time>
      </trkpt>
      <trkpt lat="48.60723" lon="1.97385">
        <ele>97.23</ele>
        <time>2020-08-27T08:23:23Z</time>
      </trkpt>
      <trkpt lat="48.60724" lon="1.97387">
        <ele>97.71</ele>
        <time>2020-08-27T08:23:24Z</time>
      </trkpt>
      <trkpt lat="48.60725" lon="1.9739">
        <ele>98.19</ele>
        <time>2020-08-27T08:23:25Z</time>
      </trkpt>
      <trkpt lat="48.60725" lon="1.97393">
        <ele>98.19</ele>
        <time>2020-08-27T08:23:26Z</time>
      </trkpt>
      <trkpt lat="48.60726" lon="1.97395">
        <ele>97.71</ele>
        <time>2020-08-27T08:23:27Z</time>
      </trkpt>
      <trkpt lat="48.60727" lon="1.97397">
        <ele>97.71</ele>
        <time>2020-08-27T08:23:28Z</time>
      </trkpt>
      <trkpt lat="48.60728" lon="1.97399">
        <ele>97.71</ele>
        <time>2020-08-27T08:23:29Z</time>
      </trkpt>
      <trkpt lat="48.60729" lon="1.974">
        <ele>97.71</ele>
        <time>2020-08-27T08:23:30Z</time>
      </trkpt>
      <trkpt lat="48.60729" lon="1.97402">
        <ele>97.71</ele>
        <time>2020-08-27T08:23:31Z</time>
      </trkpt>
      <trkpt lat="48.60731" lon="1.97403">
        <ele>97.23</ele>
        <time>2020-08-27T08:23:32Z</time>
      </trkpt>
      <trkpt lat="48.60731" lon="1.97405">
        <ele>97.71</ele>
        <time>2020-08-27T08:23:33Z</time>
      </trkpt>
      <trkpt lat="48.60732" lon="1.97406">
        <ele>97.23</ele>
        <time>2020-08-27T08:23:34Z</time>
      </trkpt>
      <trkpt lat="48.60733" lon="1.97407">
        <ele>97.23</ele>
        <time>2020-08-27T08:23:35Z</time>
      </trkpt>
      <trkpt lat="48.60734" lon="1.97408">
        <ele>97.23</ele>
        <time>2020-08-27T08:23:36Z</time>
      </trkpt>
      <trkpt lat="48.60735" lon="1.97409">
        <ele>97.23</ele>
        <time>2020-08-27T08:23:37Z</time>
      </trkpt>
      <trkpt lat="48.60736" lon="1.97409">
        <ele>97.23</ele>
        <time>2020-08-27T08:23:38Z</time>
      </trkpt>
      <trkpt lat="48.60737" lon="1.9741">
        <ele>96.75</ele>
        <time>2020-08-27T08:23:39Z</time>
      </trkpt>
      <trkpt lat="48.60738" lon="1.97411">
        <ele>96.75</ele>
        <time>2020-08-27T08:23:40Z</time>
      </trkpt>
      <trkpt lat="48.60739" lon="1.97412">
        <ele>97.23</ele>
        <time>2020-08-27T08:23:41Z</time>
      </trkpt>
      <trkpt lat="48.6074" lon="1.97413">
        <ele>97.23</ele>
        <time>2020-08-27T08:23:42Z</time>
      </trkpt>
      <trkpt lat="48.60741" lon="1.97414">
        <ele>96.75</ele>
        <time>2020-08-27T08:23:43Z</time>
      </trkpt>
      <trkpt lat="48.60742" lon="1.97415">
        <ele>96.75</ele>
        <time>2020-08-27T08:23:44Z</time>
      </trkpt>
      <trkpt lat="48.60744" lon="1.97416">
        <ele>96.75</ele>
        <time>2020-08-27T08:23:45Z</time>
      </trkpt>
      <trkpt lat="48.60745" lon="1.97418">
        <ele>96.75</ele>
        <time>2020-08-27T08:23:46Z</time>
      </trkpt>
      <trkpt lat="48.60746" lon="1.97419">
        <ele>96.75</ele>
        <time>2020-08-27T08:23:47Z</time>
      </trkpt>
      <trkpt lat="48.60748" lon="1.9742">
        <ele>96.75</ele>
        <time>2020-08-27T08:23:48Z</time>
      </trkpt>
      <trkpt lat="48.60749" lon="1.97421">
        <ele>96.75</ele>
        <time>2020-08-27T08:23:49Z</time>
      </trkpt>
      <trkpt lat="48.6075" lon="1.97422">
        <ele>96.75</ele>
        <time>2020-08-27T08:23:50Z</time>
      </trkpt>
      <trkpt lat="48.60751" lon="1.97423">
        <ele>96.75</ele>
        <time>2020-08-27T08:23:51Z</time>
      </trkpt>
      <trkpt lat="48.60752" lon="1.97425">
        <ele>96.75</ele>
        <time>2020-08-27T08:23:52Z</time>
      </trkpt>
      <trkpt lat="48.60753" lon="1.97426">
        <ele>96.75</ele>
        <time>2020-08-27T08:23:53Z</time>
      </trkpt>
      <trkpt lat="48.60754" lon="1.97427">
        <ele>96.75</ele>
        <time>2020-08-27T08:23:54Z</time>
      </trkpt>
      <trkpt lat="48.60755" lon="1.97429">
        <ele>96.27</ele>
        <time>2020-08-27T08:23:55Z</time>
      </trkpt>
      <trkpt lat="48.60757" lon="1.97431">
        <ele>96.27</ele>
        <time>2020-08-27T08:23:56Z</time>
      </trkpt>
      <trkpt lat="48.60758" lon="1.97432">
        <ele>96.27</ele>
        <time>2020-08-27T08:23:57Z</time>
      </trkpt>
      <trkpt lat="48.60759" lon="1.97434">
        <ele>96.75</ele>
        <time>2020-08-27T08:23:58Z</time>
      </trkpt>
      <trkpt lat="48.60761" lon="1.97435">
        <ele>96.27</ele>
        <time>2020-08-27T08:23:59Z</time>
      </trkpt>
      <trkpt lat="48.60762" lon="1.97437">
        <ele>96.27</ele>
        <time>2020-08-27T08:24:00Z</time>
      </trkpt>
      <trkpt lat="48.60763" lon="1.97438">
        <ele>96.27</ele>
        <time>2020-08-27T08:24:01Z</time>
      </trkpt>
      <trkpt lat="48.60764" lon="1.97439">
        <ele>96.27</ele>
        <time>2020-08-27T08:24:02Z</time>
      </trkpt>
      <trkpt lat="48.60764" lon="1.97441">
        <ele>96.27</ele>
        <time>2020-08-27T08:24:03Z</time>
      </trkpt>
      <trkpt lat="48.60765" lon="1.97443">
        <ele>96.27</ele>
        <time>2020-08-27T08:24:04Z</time>
      </trkpt>
      <trkpt lat="48.60767" lon="1.97443">
        <ele>96.27</ele>
        <time>2020-08-27T08:24:05Z</time>
      </trkpt>
      <trkpt lat="48.60768" lon="1.97442">
        <ele>96.27</ele>
        <time>2020-08-27T08:24:06Z</time>
      </trkpt>
      <trkpt lat="48.60769" lon="1.97441">
        <ele>96.27</ele>
        <time>2020-08-27T08:24:07Z</time>
      </trkpt>
      <trkpt lat="48.60771" lon="1.97441">
        <ele>95.79</ele>
        <time>2020-08-27T08:24:08Z</time>
      </trkpt>
      <trkpt lat="48.60772" lon="1.97441">
        <ele>95.79</ele>
        <time>2020-08-27T08:24:09Z</time>
      </trkpt>
      <trkpt lat="48.60773" lon="1.97441">
        <ele>95.79</ele>
        <time>2020-08-27T08:24:10Z</time>
      </trkpt>
      <trkpt lat="48.60775" lon="1.97441">
        <ele>95.31</ele>
        <time>2020-08-27T08:24:11Z</time>
      </trkpt>
      <trkpt lat="48.60776" lon="1.97442">
        <ele>95.31</ele>
        <time>2020-08-27T08:24:12Z</time>
      </trkpt>
      <trkpt lat="48.60777" lon="1.97443">
        <ele>95.31</ele>
        <time>2020-08-27T08:24:13Z</time>
      </trkpt>
      <trkpt lat="48.60778" lon="1.97444">
        <ele>95.31</ele>
        <time>2020-08-27T08:24:14Z</time>
      </trkpt>
      <trkpt lat="48.6078" lon="1.97444">
        <ele>95.79</ele>
        <time>2020-08-27T08:24:15Z</time>
      </trkpt>
      <trkpt lat="48.60781" lon="1.97446">
        <ele>95.31</ele>
        <time>2020-08-27T08:24:16Z</time>
      </trkpt>
      <trkpt lat="48.60782" lon="1.97447">
        <ele>95.31</ele>
        <time>2020-08-27T08:24:17Z</time>
      </trkpt>
      <trkpt lat="48.60783" lon="1.97449">
        <ele>94.83</ele>
        <time>2020-08-27T08:24:18Z</time>
      </trkpt>
      <trkpt lat="48.60784" lon="1.97451">
        <ele>95.31</ele>
        <time>2020-08-27T08:24:19Z</time>
      </trkpt>
      <trkpt lat="48.60784" lon="1.97453">
        <ele>95.31</ele>
        <time>2020-08-27T08:24:20Z</time>
      </trkpt>
      <trkpt lat="48.60785" lon="1.97454">
        <ele>95.79</ele>
        <time>2020-08-27T08:24:21Z</time>
      </trkpt>
      <trkpt lat="48.60785" lon="1.97456">
        <ele>95.31</ele>
        <time>2020-08-27T08:24:22Z</time>
      </trkpt>
      <trkpt lat="48.60785" lon="1.97458">
        <ele>95.31</ele>
        <time>2020-08-27T08:24:23Z</time>
      </trkpt>
      <trkpt lat="48.60786" lon="1.9746">
        <ele>95.31</ele>
        <time>2020-08-27T08:24:24Z</time>
      </trkpt>
      <trkpt lat="48.60786" lon="1.97461">
        <ele>95.31</ele>
        <time>2020-08-27T08:24:25Z</time>
      </trkpt>
      <trkpt lat="48.60787" lon="1.97462">
        <ele>95.31</ele>
        <time>2020-08-27T08:24:26Z</time>
      </trkpt>
      <trkpt lat="48.60787" lon="1.97464">
        <ele>94.83</ele>
        <time>2020-08-27T08:24:27Z</time>
      </trkpt>
      <trkpt lat="48.60788" lon="1.97465">
        <ele>95.31</ele>
        <time>2020-08-27T08:24:28Z</time>
      </trkpt>
      <trkpt lat="48.60788" lon="1.97466">
        <ele>95.31</ele>
        <time>2020-08-27T08:24:29Z</time>
      </trkpt>
      <trkpt lat="48.60788" lon="1.97469">
        <ele>95.31</ele>
        <time>2020-08-27T08:24:30Z</time>
      </trkpt>
      <trkpt lat="48.60788" lon="1.97471">
        <ele>95.31</ele>
        <time>2020-08-27T08:24:31Z</time>
      </trkpt>
      <trkpt lat="48.60788" lon="1.97473">
        <ele>95.31</ele>
        <time>2020-08-27T08:24:32Z</time>
      </trkpt>
      <trkpt lat="48.60789" lon="1.97476">
        <ele>95.31</ele>
        <time>2020-08-27T08:24:33Z</time>
      </trkpt>
      <trkpt lat="48.60789" lon="1.97478">
        <ele>94.83</ele>
        <time>2020-08-27T08:24:34Z</time>
      </trkpt>
      <trkpt lat="48.6079" lon="1.97481">
        <ele>94.83</ele>
        <time>2020-08-27T08:24:35Z</time>
      </trkpt>
      <trkpt lat="48.6079" lon="1.97484">
        <ele>94.83</ele>
        <time>2020-08-27T08:24:36Z</time>
      </trkpt>
      <trkpt lat="48.6079" lon="1.97486">
        <ele>94.83</ele>
        <time>2020-08-27T08:24:37Z</time>
      </trkpt>
      <trkpt lat="48.6079" lon="1.97489">
        <ele>94.83</ele>
        <time>2020-08-27T08:24:38Z</time>
      </trkpt>
      <trkpt lat="48.6079" lon="1.97491">
        <ele>94.83</ele>
        <time>2020-08-27T08:24:39Z</time>
      </trkpt>
      <trkpt lat="48.6079" lon="1.97492">
        <ele>94.83</ele>
        <time>2020-08-27T08:24:40Z</time>
      </trkpt>
      <trkpt lat="48.6079" lon="1.97495">
        <ele>94.83</ele>
        <time>2020-08-27T08:24:41Z</time>
      </trkpt>
      <trkpt lat="48.60791" lon="1.97496">
        <ele>94.35</ele>
        <time>2020-08-27T08:24:42Z</time>
      </trkpt>
      <trkpt lat="48.60791" lon="1.97498">
        <ele>94.83</ele>
        <time>2020-08-27T08:24:43Z</time>
      </trkpt>
      <trkpt lat="48.60791" lon="1.97499">
        <ele>94.83</ele>
        <time>2020-08-27T08:24:44Z</time>
      </trkpt>
      <trkpt lat="48.60791" lon="1.975">
        <ele>94.83</ele>
        <time>2020-08-27T08:24:45Z</time>
      </trkpt>
      <trkpt lat="48.60792" lon="1.97501">
        <ele>94.83</ele>
        <time>2020-08-27T08:24:49Z</time>
      </trkpt>
      <trkpt lat="48.60791" lon="1.97501">
        <ele>93.87</ele>
        <time>2020-08-27T08:24:50Z</time>
      </trkpt>
      <trkpt lat="48.6079" lon="1.97501">
        <ele>94.83</ele>
        <time>2020-08-27T08:24:51Z</time>
      </trkpt>
      <trkpt lat="48.60789" lon="1.97499">
        <ele>94.83</ele>
        <time>2020-08-27T08:25:05Z</time>
      </trkpt>
      <trkpt lat="48.60789" lon="1.97499">
        <ele>93.87</ele>
        <time>2020-08-27T08:25:06Z</time>
      </trkpt>
      <trkpt lat="48.60787" lon="1.97499">
        <ele>94.35</ele>
        <time>2020-08-27T08:25:24Z</time>
      </trkpt>
      <trkpt lat="48.60787" lon="1.97499">
        <ele>94.35</ele>
        <time>2020-08-27T08:25:25Z</time>
      </trkpt>
      <trkpt lat="48.60787" lon="1.97498">
        <ele>94.35</ele>
        <time>2020-08-27T08:25:47Z</time>
      </trkpt>
      <trkpt lat="48.60787" lon="1.97498">
        <ele>94.35</ele>
        <time>2020-08-27T08:25:48Z</time>
      </trkpt>
      <trkpt lat="48.60787" lon="1.97498">
        <ele>94.35</ele>
        <time>2020-08-27T08:25:49Z</time>
      </trkpt>
      <trkpt lat="48.60787" lon="1.97497">
        <ele>93.87</ele>
        <time>2020-08-27T08:25:50Z</time>
      </trkpt>
      <trkpt lat="48.60787" lon="1.97496">
        <ele>93.87</ele>
        <time>2020-08-27T08:25:51Z</time>
      </trkpt>
      <trkpt lat="48.60787" lon="1.97496">
        <ele>94.83</ele>
        <time>2020-08-27T08:25:52Z</time>
      </trkpt>
      <trkpt lat="48.60787" lon="1.97496">
        <ele>94.35</ele>
        <time>2020-08-27T08:25:53Z</time>
      </trkpt>
      <trkpt lat="48.60787" lon="1.97496">
        <ele>94.83</ele>
        <time>2020-08-27T08:25:54Z</time>
      </trkpt>
      <trkpt lat="48.60787" lon="1.97496">
        <ele>94.83</ele>
        <time>2020-08-27T08:26:06Z</time>
      </trkpt>
      <trkpt lat="48.60787" lon="1.97495">
        <ele>94.83</ele>
        <time>2020-08-27T08:26:07Z</time>
      </trkpt>
      <trkpt lat="48.60787" lon="1.97495">
        <ele>94.35</ele>
        <time>2020-08-27T08:26:08Z</time>
      </trkpt>
      <trkpt lat="48.60787" lon="1.97495">
        <ele>94.83</ele>
        <time>2020-08-27T08:26:09Z</time>
      </trkpt>
      <trkpt lat="48.60787" lon="1.97495">
        <ele>94.35</ele>
        <time>2020-08-27T08:26:10Z</time>
      </trkpt>
      <trkpt lat="48.60788" lon="1.97494">
        <ele>94.35</ele>
        <time>2020-08-27T08:26:23Z</time>
      </trkpt>
      <trkpt lat="48.60788" lon="1.97494">
        <ele>94.83</ele>
        <time>2020-08-27T08:26:24Z</time>
      </trkpt>
      <trkpt lat="48.60788" lon="1.97494">
        <ele>94.35</ele>
        <time>2020-08-27T08:26:25Z</time>
      </trkpt>
      <trkpt lat="48.60788" lon="1.97494">
        <ele>94.35</ele>
        <time>2020-08-27T08:26:26Z</time>
      </trkpt>
      <trkpt lat="48.60788" lon="1.97494">
        <ele>94.35</ele>
        <time>2020-08-27T08:26:27Z</time>
      </trkpt>
      <trkpt lat="48.60788" lon="1.97494">
        <ele>94.35</ele>
        <time>2020-08-27T08:26:28Z</time>
      </trkpt>
      <trkpt lat="48.60788" lon="1.97494">
        <ele>94.35</ele>
        <time>2020-08-27T08:26:29Z</time>
      </trkpt>
      <trkpt lat="48.6079" lon="1.97492">
        <ele>94.83</ele>
        <time>2020-08-27T08:26:41Z</time>
      </trkpt>
      <trkpt lat="48.6079" lon="1.97493">
        <ele>94.35</ele>
        <time>2020-08-27T08:26:42Z</time>
      </trkpt>
      <trkpt lat="48.6079" lon="1.97492">
        <ele>94.35</ele>
        <time>2020-08-27T08:26:43Z</time>
      </trkpt>
      <trkpt lat="48.6079" lon="1.97493">
        <ele>94.83</ele>
        <time>2020-08-27T08:26:44Z</time>
      </trkpt>
      <trkpt lat="48.6079" lon="1.97492">
        <ele>93.87</ele>
        <time>2020-08-27T08:27:03Z</time>
      </trkpt>
      <trkpt lat="48.6079" lon="1.97492">
        <ele>94.83</ele>
        <time>2020-08-27T08:27:04Z</time>
      </trkpt>
      <trkpt lat="48.6079" lon="1.97492">
        <ele>94.35</ele>
        <time>2020-08-27T08:27:05Z</time>
      </trkpt>
      <trkpt lat="48.6079" lon="1.97492">
        <ele>94.35</ele>
        <time>2020-08-27T08:27:06Z</time>
      </trkpt>
      <trkpt lat="48.6079" lon="1.97492">
        <ele>94.35</ele>
        <time>2020-08-27T08:27:07Z</time>
      </trkpt>
      <trkpt lat="48.6079" lon="1.97492">
        <ele>94.35</ele>
        <time>2020-08-27T08:27:09Z</time>
      </trkpt>
      <trkpt lat="48.6079" lon="1.97492">
        <ele>93.87</ele>
        <time>2020-08-27T08:27:10Z</time>
      </trkpt>
      <trkpt lat="48.6079" lon="1.97492">
        <ele>94.83</ele>
        <time>2020-08-27T08:27:11Z</time>
      </trkpt>
      <trkpt lat="48.6079" lon="1.97492">
        <ele>94.35</ele>
        <time>2020-08-27T08:27:13Z</time>
      </trkpt>
      <trkpt lat="48.60789" lon="1.9749">
        <ele>94.83</ele>
        <time>2020-08-27T08:27:14Z</time>
      </trkpt>
      <trkpt lat="48.60788" lon="1.97488">
        <ele>94.83</ele>
        <time>2020-08-27T08:27:15Z</time>
      </trkpt>
      <trkpt lat="48.60788" lon="1.97486">
        <ele>94.35</ele>
        <time>2020-08-27T08:27:16Z</time>
      </trkpt>
      <trkpt lat="48.60787" lon="1.97485">
        <ele>94.83</ele>
        <time>2020-08-27T08:27:17Z</time>
      </trkpt>
      <trkpt lat="48.60786" lon="1.97483">
        <ele>94.83</ele>
        <time>2020-08-27T08:27:18Z</time>
      </trkpt>
      <trkpt lat="48.60785" lon="1.97481">
        <ele>94.83</ele>
        <time>2020-08-27T08:27:19Z</time>
      </trkpt>
      <trkpt lat="48.60785" lon="1.9748">
        <ele>94.83</ele>
        <time>2020-08-27T08:27:20Z</time>
      </trkpt>
      <trkpt lat="48.60784" lon="1.97479">
        <ele>93.87</ele>
        <time>2020-08-27T08:27:21Z</time>
      </trkpt>
      <trkpt lat="48.60784" lon="1.97479">
        <ele>94.83</ele>
        <time>2020-08-27T08:27:22Z</time>
      </trkpt>
      <trkpt lat="48.60784" lon="1.97478">
        <ele>94.83</ele>
        <time>2020-08-27T08:27:23Z</time>
      </trkpt>
      <trkpt lat="48.60784" lon="1.97478">
        <ele>94.83</ele>
        <time>2020-08-27T08:27:24Z</time>
      </trkpt>
      <trkpt lat="48.60784" lon="1.97478">
        <ele>94.83</ele>
        <time>2020-08-27T08:27:25Z</time>
      </trkpt>
      <trkpt lat="48.60785" lon="1.97478">
        <ele>94.83</ele>
        <time>2020-08-27T08:27:44Z</time>
      </trkpt>
      <trkpt lat="48.60786" lon="1.97478">
        <ele>94.83</ele>
        <time>2020-08-27T08:27:45Z</time>
      </trkpt>
      <trkpt lat="48.60786" lon="1.97478">
        <ele>95.31</ele>
        <time>2020-08-27T08:27:46Z</time>
      </trkpt>
      <trkpt lat="48.60786" lon="1.97478">
        <ele>94.83</ele>
        <time>2020-08-27T08:27:47Z</time>
      </trkpt>
      <trkpt lat="48.60786" lon="1.97478">
        <ele>94.83</ele>
        <time>2020-08-27T08:27:48Z</time>
      </trkpt>
      <trkpt lat="48.60787" lon="1.97478">
        <ele>94.35</ele>
        <time>2020-08-27T08:27:49Z</time>
      </trkpt>
      <trkpt lat="48.60788" lon="1.97478">
        <ele>94.83</ele>
        <time>2020-08-27T08:27:50Z</time>
      </trkpt>
      <trkpt lat="48.60789" lon="1.97478">
        <ele>94.83</ele>
        <time>2020-08-27T08:27:51Z</time>
      </trkpt>
      <trkpt lat="48.6079" lon="1.97479">
        <ele>94.83</ele>
        <time>2020-08-27T08:27:52Z</time>
      </trkpt>
      <trkpt lat="48.6079" lon="1.9748">
        <ele>94.83</ele>
        <time>2020-08-27T08:27:53Z</time>
      </trkpt>
      <trkpt lat="48.60791" lon="1.97481">
        <ele>94.83</ele>
        <time>2020-08-27T08:27:54Z</time>
      </trkpt>
      <trkpt lat="48.60791" lon="1.97483">
        <ele>94.83</ele>
        <time>2020-08-27T08:27:55Z</time>
      </trkpt>
      <trkpt lat="48.60792" lon="1.97484">
        <ele>94.83</ele>
        <time>2020-08-27T08:27:56Z</time>
      </trkpt>
      <trkpt lat="48.60792" lon="1.97486">
        <ele>94.83</ele>
        <time>2020-08-27T08:27:57Z</time>
      </trkpt>
      <trkpt lat="48.60793" lon="1.97486">
        <ele>91.94</ele>
        <time>2020-08-27T08:27:58Z</time>
      </trkpt>
      <trkpt lat="48.60794" lon="1.97487">
        <ele>94.83</ele>
        <time>2020-08-27T08:27:59Z</time>
      </trkpt>
      <trkpt lat="48.60794" lon="1.97488">
        <ele>94.35</ele>
        <time>2020-08-27T08:28:00Z</time>
      </trkpt>
      <trkpt lat="48.60794" lon="1.97489">
        <ele>94.83</ele>
        <time>2020-08-27T08:28:01Z</time>
      </trkpt>
      <trkpt lat="48.60794" lon="1.9749">
        <ele>95.79</ele>
        <time>2020-08-27T08:28:02Z</time>
      </trkpt>
      <trkpt lat="48.60794" lon="1.9749">
        <ele>94.83</ele>
        <time>2020-08-27T08:28:03Z</time>
      </trkpt>
      <trkpt lat="48.60794" lon="1.9749">
        <ele>94.35</ele>
        <time>2020-08-27T08:28:04Z</time>
      </trkpt>
      <trkpt lat="48.60794" lon="1.9749">
        <ele>94.83</ele>
        <time>2020-08-27T08:28:05Z</time>
      </trkpt>
      <trkpt lat="48.60794" lon="1.9749">
        <ele>94.35</ele>
        <time>2020-08-27T08:28:06Z</time>
      </trkpt>
      <trkpt lat="48.60794" lon="1.9749">
        <ele>94.35</ele>
        <time>2020-08-27T08:28:07Z</time>
      </trkpt>
      <trkpt lat="48.60794" lon="1.9749">
        <ele>94.35</ele>
        <time>2020-08-27T08:28:08Z</time>
      </trkpt>
      <trkpt lat="48.60794" lon="1.9749">
        <ele>94.35</ele>
        <time>2020-08-27T08:28:09Z</time>
      </trkpt>
      <trkpt lat="48.60795" lon="1.9749">
        <ele>94.35</ele>
        <time>2020-08-27T08:28:10Z</time>
      </trkpt>
      <trkpt lat="48.60795" lon="1.9749">
        <ele>94.35</ele>
        <time>2020-08-27T08:28:11Z</time>
      </trkpt>
      <trkpt lat="48.60795" lon="1.9749">
        <ele>94.35</ele>
        <time>2020-08-27T08:28:12Z</time>
      </trkpt>
      <trkpt lat="48.60793" lon="1.97488">
        <ele>94.83</ele>
        <time>2020-08-27T08:28:37Z</time>
      </trkpt>
      <trkpt lat="48.60793" lon="1.97488">
        <ele>94.83</ele>
        <time>2020-08-27T08:28:38Z</time>
      </trkpt>
      <trkpt lat="48.60793" lon="1.97488">
        <ele>94.35</ele>
        <time>2020-08-27T08:28:39Z</time>
      </trkpt>
      <trkpt lat="48.60794" lon="1.97488">
        <ele>94.35</ele>
        <time>2020-08-27T08:28:40Z</time>
      </trkpt>
      <trkpt lat="48.60794" lon="1.97488">
        <ele>94.35</ele>
        <time>2020-08-27T08:28:41Z</time>
      </trkpt>
      <trkpt lat="48.60795" lon="1.97488">
        <ele>94.35</ele>
        <time>2020-08-27T08:28:53Z</time>
      </trkpt>
      <trkpt lat="48.60795" lon="1.97488">
        <ele>94.35</ele>
        <time>2020-08-27T08:28:54Z</time>
      </trkpt>
      <trkpt lat="48.60797" lon="1.97488">
        <ele>94.83</ele>
        <time>2020-08-27T08:29:06Z</time>
      </trkpt>
      <trkpt lat="48.60797" lon="1.97487">
        <ele>93.87</ele>
        <time>2020-08-27T08:29:07Z</time>
      </trkpt>
      <trkpt lat="48.60797" lon="1.97487">
        <ele>94.83</ele>
        <time>2020-08-27T08:29:08Z</time>
      </trkpt>
      <trkpt lat="48.60796" lon="1.97487">
        <ele>94.35</ele>
        <time>2020-08-27T08:29:09Z</time>
      </trkpt>
      <trkpt lat="48.60796" lon="1.97487">
        <ele>94.35</ele>
        <time>2020-08-27T08:29:10Z</time>
      </trkpt>
      <trkpt lat="48.60796" lon="1.97487">
        <ele>94.35</ele>
        <time>2020-08-27T08:29:11Z</time>
      </trkpt>
      <trkpt lat="48.60796" lon="1.97486">
        <ele>94.83</ele>
        <time>2020-08-27T08:29:13Z</time>
      </trkpt>
      <trkpt lat="48.60796" lon="1.97486">
        <ele>94.35</ele>
        <time>2020-08-27T08:29:14Z</time>
      </trkpt>
      <trkpt lat="48.60796" lon="1.97486">
        <ele>94.35</ele>
        <time>2020-08-27T08:29:25Z</time>
      </trkpt>
      <trkpt lat="48.60796" lon="1.97485">
        <ele>94.35</ele>
        <time>2020-08-27T08:29:26Z</time>
      </trkpt>
      <trkpt lat="48.60796" lon="1.97485">
        <ele>94.83</ele>
        <time>2020-08-27T08:29:28Z</time>
      </trkpt>
      <trkpt lat="48.60796" lon="1.97485">
        <ele>94.83</ele>
        <time>2020-08-27T08:29:29Z</time>
      </trkpt>
      <trkpt lat="48.60796" lon="1.97485">
        <ele>94.35</ele>
        <time>2020-08-27T08:29:30Z</time>
      </trkpt>
      <trkpt lat="48.60796" lon="1.97485">
        <ele>94.35</ele>
        <time>2020-08-27T08:29:31Z</time>
      </trkpt>
      <trkpt lat="48.60796" lon="1.97485">
        <ele>94.35</ele>
        <time>2020-08-27T08:29:32Z</time>
      </trkpt>
      <trkpt lat="48.60796" lon="1.97485">
        <ele>94.83</ele>
        <time>2020-08-27T08:29:33Z</time>
      </trkpt>
      <trkpt lat="48.60796" lon="1.97485">
        <ele>94.35</ele>
        <time>2020-08-27T08:29:34Z</time>
      </trkpt>
      <trkpt lat="48.60796" lon="1.97485">
        <ele>95.31</ele>
        <time>2020-08-27T08:29:35Z</time>
      </trkpt>
      <trkpt lat="48.60796" lon="1.97485">
        <ele>94.35</ele>
        <time>2020-08-27T08:29:36Z</time>
      </trkpt>
      <trkpt lat="48.60796" lon="1.97485">
        <ele>94.35</ele>
        <time>2020-08-27T08:29:37Z</time>
      </trkpt>
      <trkpt lat="48.60796" lon="1.97485">
        <ele>94.35</ele>
        <time>2020-08-27T08:29:38Z</time>
      </trkpt>
      <trkpt lat="48.60796" lon="1.97485">
        <ele>94.35</ele>
        <time>2020-08-27T08:29:39Z</time>
      </trkpt>
      <trkpt lat="48.60796" lon="1.97485">
        <ele>94.35</ele>
        <time>2020-08-27T08:29:40Z</time>
      </trkpt>
      <trkpt lat="48.60796" lon="1.97485">
        <ele>94.83</ele>
        <time>2020-08-27T08:29:41Z</time>
      </trkpt>
      <trkpt lat="48.60796" lon="1.97485">
        <ele>94.35</ele>
        <time>2020-08-27T08:29:42Z</time>
      </trkpt>
      <trkpt lat="48.60795" lon="1.97484">
        <ele>94.35</ele>
        <time>2020-08-27T08:29:45Z</time>
      </trkpt>
      <trkpt lat="48.60795" lon="1.97484">
        <ele>94.35</ele>
        <time>2020-08-27T08:29:46Z</time>
      </trkpt>
      <trkpt lat="48.60795" lon="1.97484">
        <ele>94.83</ele>
        <time>2020-08-27T08:29:47Z</time>
      </trkpt>
      <trkpt lat="48.60795" lon="1.97484">
        <ele>94.35</ele>
        <time>2020-08-27T08:29:48Z</time>
      </trkpt>
      <trkpt lat="48.60795" lon="1.97484">
        <ele>94.35</ele>
        <time>2020-08-27T08:29:49Z</time>
      </trkpt>
      <trkpt lat="48.60795" lon="1.97484">
        <ele>94.35</ele>
        <time>2020-08-27T08:29:50Z</time>
      </trkpt>
      <trkpt lat="48.60796" lon="1.97484">
        <ele>94.35</ele>
        <time>2020-08-27T08:29:51Z</time>
      </trkpt>
      <trkpt lat="48.60796" lon="1.97484">
        <ele>94.35</ele>
        <time>2020-08-27T08:29:52Z</time>
      </trkpt>
      <trkpt lat="48.60796" lon="1.97484">
        <ele>94.35</ele>
        <time>2020-08-27T08:29:53Z</time>
      </trkpt>
      <trkpt lat="48.60796" lon="1.97484">
        <ele>94.35</ele>
        <time>2020-08-27T08:29:54Z</time>
      </trkpt>
      <trkpt lat="48.60796" lon="1.97485">
        <ele>94.35</ele>
        <time>2020-08-27T08:29:55Z</time>
      </trkpt>
      <trkpt lat="48.60796" lon="1.97485">
        <ele>94.35</ele>
        <time>2020-08-27T08:29:56Z</time>
      </trkpt>
      <trkpt lat="48.60796" lon="1.97485">
        <ele>94.35</ele>
        <time>2020-08-27T08:29:57Z</time>
      </trkpt>
      <trkpt lat="48.60796" lon="1.97485">
        <ele>94.35</ele>
        <time>2020-08-27T08:29:58Z</time>
      </trkpt>
      <trkpt lat="48.60796" lon="1.97484">
        <ele>93.87</ele>
        <time>2020-08-27T08:30:00Z</time>
      </trkpt>
      <trkpt lat="48.60796" lon="1.97484">
        <ele>94.83</ele>
        <time>2020-08-27T08:30:01Z</time>
      </trkpt>
      <trkpt lat="48.60796" lon="1.97484">
        <ele>94.35</ele>
        <time>2020-08-27T08:30:02Z</time>
      </trkpt>
      <trkpt lat="48.60796" lon="1.97484">
        <ele>94.35</ele>
        <time>2020-08-27T08:30:03Z</time>
      </trkpt>
      <trkpt lat="48.60796" lon="1.97485">
        <ele>94.35</ele>
        <time>2020-08-27T08:30:04Z</time>
      </trkpt>
      <trkpt lat="48.60796" lon="1.97486">
        <ele>94.35</ele>
        <time>2020-08-27T08:30:05Z</time>
      </trkpt>
      <trkpt lat="48.60796" lon="1.97487">
        <ele>94.35</ele>
        <time>2020-08-27T08:30:06Z</time>
      </trkpt>
      <trkpt lat="48.60796" lon="1.97488">
        <ele>94.35</ele>
        <time>2020-08-27T08:30:07Z</time>
      </trkpt>
      <trkpt lat="48.60796" lon="1.97489">
        <ele>94.35</ele>
        <time>2020-08-27T08:30:08Z</time>
      </trkpt>
      <trkpt lat="48.60796" lon="1.97491">
        <ele>94.35</ele>
        <time>2020-08-27T08:30:09Z</time>
      </trkpt>
      <trkpt lat="48.60796" lon="1.97493">
        <ele>94.35</ele>
        <time>2020-08-27T08:30:10Z</time>
      </trkpt>
      <trkpt lat="48.60796" lon="1.97495">
        <ele>94.35</ele>
        <time>2020-08-27T08:30:11Z</time>
      </trkpt>
      <trkpt lat="48.60795" lon="1.97497">
        <ele>94.35</ele>
        <time>2020-08-27T08:30:12Z</time>
      </trkpt>
      <trkpt lat="48.60795" lon="1.97499">
        <ele>94.35</ele>
        <time>2020-08-27T08:30:13Z</time>
      </trkpt>
      <trkpt lat="48.60795" lon="1.97499">
        <ele>94.35</ele>
        <time>2020-08-27T08:30:14Z</time>
      </trkpt>
      <trkpt lat="48.60795" lon="1.975">
        <ele>93.87</ele>
        <time>2020-08-27T08:30:15Z</time>
      </trkpt>
      <trkpt lat="48.60795" lon="1.97502">
        <ele>94.35</ele>
        <time>2020-08-27T08:30:16Z</time>
      </trkpt>
      <trkpt lat="48.60796" lon="1.97505">
        <ele>94.35</ele>
        <time>2020-08-27T08:30:17Z</time>
      </trkpt>
      <trkpt lat="48.60797" lon="1.97508">
        <ele>94.35</ele>
        <time>2020-08-27T08:30:18Z</time>
      </trkpt>
      <trkpt lat="48.60798" lon="1.97511">
        <ele>94.35</ele>
        <time>2020-08-27T08:30:19Z</time>
      </trkpt>
      <trkpt lat="48.60798" lon="1.97514">
        <ele>94.35</ele>
        <time>2020-08-27T08:30:20Z</time>
      </trkpt>
      <trkpt lat="48.60799" lon="1.97517">
        <ele>94.35</ele>
        <time>2020-08-27T08:30:21Z</time>
      </trkpt>
      <trkpt lat="48.608" lon="1.97521">
        <ele>94.35</ele>
        <time>2020-08-27T08:30:22Z</time>
      </trkpt>
      <trkpt lat="48.608" lon="1.97523">
        <ele>93.87</ele>
        <time>2020-08-27T08:30:23Z</time>
      </trkpt>
      <trkpt lat="48.60801" lon="1.97525">
        <ele>93.87</ele>
        <time>2020-08-27T08:30:24Z</time>
      </trkpt>
      <trkpt lat="48.60801" lon="1.97527">
        <ele>93.87</ele>
        <time>2020-08-27T08:30:25Z</time>
      </trkpt>
      <trkpt lat="48.60802" lon="1.97529">
        <ele>94.35</ele>
        <time>2020-08-27T08:30:26Z</time>
      </trkpt>
      <trkpt lat="48.60802" lon="1.9753">
        <ele>94.35</ele>
        <time>2020-08-27T08:30:27Z</time>
      </trkpt>
      <trkpt lat="48.60803" lon="1.97532">
        <ele>94.35</ele>
        <time>2020-08-27T08:30:28Z</time>
      </trkpt>
      <trkpt lat="48.60804" lon="1.97534">
        <ele>94.35</ele>
        <time>2020-08-27T08:30:29Z</time>
      </trkpt>
      <trkpt lat="48.60805" lon="1.97536">
        <ele>93.87</ele>
        <time>2020-08-27T08:30:30Z</time>
      </trkpt>
      <trkpt lat="48.60805" lon="1.97538">
        <ele>93.87</ele>
        <time>2020-08-27T08:30:31Z</time>
      </trkpt>
      <trkpt lat="48.60805" lon="1.9754">
        <ele>94.35</ele>
        <time>2020-08-27T08:30:32Z</time>
      </trkpt>
      <trkpt lat="48.60806" lon="1.97541">
        <ele>93.87</ele>
        <time>2020-08-27T08:30:33Z</time>
      </trkpt>
      <trkpt lat="48.60806" lon="1.97543">
        <ele>94.35</ele>
        <time>2020-08-27T08:30:34Z</time>
      </trkpt>
      <trkpt lat="48.60807" lon="1.97545">
        <ele>94.35</ele>
        <time>2020-08-27T08:30:35Z</time>
      </trkpt>
      <trkpt lat="48.60808" lon="1.97547">
        <ele>94.35</ele>
        <time>2020-08-27T08:30:36Z</time>
      </trkpt>
      <trkpt lat="48.60809" lon="1.9755">
        <ele>94.35</ele>
        <time>2020-08-27T08:30:37Z</time>
      </trkpt>
      <trkpt lat="48.60809" lon="1.97552">
        <ele>94.35</ele>
        <time>2020-08-27T08:30:38Z</time>
      </trkpt>
      <trkpt lat="48.6081" lon="1.97555">
        <ele>94.35</ele>
        <time>2020-08-27T08:30:39Z</time>
      </trkpt>
      <trkpt lat="48.60811" lon="1.97558">
        <ele>94.35</ele>
        <time>2020-08-27T08:30:40Z</time>
      </trkpt>
      <trkpt lat="48.60812" lon="1.9756">
        <ele>93.87</ele>
        <time>2020-08-27T08:30:41Z</time>
      </trkpt>
      <trkpt lat="48.60813" lon="1.97563">
        <ele>93.87</ele>
        <time>2020-08-27T08:30:42Z</time>
      </trkpt>
      <trkpt lat="48.60814" lon="1.97565">
        <ele>93.87</ele>
        <time>2020-08-27T08:30:43Z</time>
      </trkpt>
      <trkpt lat="48.60814" lon="1.97567">
        <ele>93.87</ele>
        <time>2020-08-27T08:30:44Z</time>
      </trkpt>
      <trkpt lat="48.60815" lon="1.97569">
        <ele>93.87</ele>
        <time>2020-08-27T08:30:45Z</time>
      </trkpt>
      <trkpt lat="48.60816" lon="1.97571">
        <ele>93.87</ele>
        <time>2020-08-27T08:30:46Z</time>
      </trkpt>
      <trkpt lat="48.60817" lon="1.97573">
        <ele>93.87</ele>
        <time>2020-08-27T08:30:47Z</time>
      </trkpt>
      <trkpt lat="48.60818" lon="1.97574">
        <ele>93.87</ele>
        <time>2020-08-27T08:30:48Z</time>
      </trkpt>
      <trkpt lat="48.60819" lon="1.97576">
        <ele>93.87</ele>
        <time>2020-08-27T08:30:49Z</time>
      </trkpt>
      <trkpt lat="48.6082" lon="1.97578">
        <ele>93.87</ele>
        <time>2020-08-27T08:30:50Z</time>
      </trkpt>
      <trkpt lat="48.6082" lon="1.9758">
        <ele>93.87</ele>
        <time>2020-08-27T08:30:51Z</time>
      </trkpt>
      <trkpt lat="48.60821" lon="1.97582">
        <ele>93.87</ele>
        <time>2020-08-27T08:30:52Z</time>
      </trkpt>
      <trkpt lat="48.60822" lon="1.97584">
        <ele>93.87</ele>
        <time>2020-08-27T08:30:53Z</time>
      </trkpt>
      <trkpt lat="48.60822" lon="1.97587">
        <ele>93.87</ele>
        <time>2020-08-27T08:30:54Z</time>
      </trkpt>
      <trkpt lat="48.60823" lon="1.97589">
        <ele>93.87</ele>
        <time>2020-08-27T08:30:55Z</time>
      </trkpt>
      <trkpt lat="48.60823" lon="1.97592">
        <ele>93.87</ele>
        <time>2020-08-27T08:30:56Z</time>
      </trkpt>
      <trkpt lat="48.60824" lon="1.97595">
        <ele>93.87</ele>
        <time>2020-08-27T08:30:57Z</time>
      </trkpt>
      <trkpt lat="48.60824" lon="1.97598">
        <ele>93.39</ele>
        <time>2020-08-27T08:30:58Z</time>
      </trkpt>
      <trkpt lat="48.60824" lon="1.976">
        <ele>93.87</ele>
        <time>2020-08-27T08:30:59Z</time>
      </trkpt>
      <trkpt lat="48.60824" lon="1.97603">
        <ele>93.87</ele>
        <time>2020-08-27T08:31:00Z</time>
      </trkpt>
      <trkpt lat="48.60824" lon="1.97605">
        <ele>93.87</ele>
        <time>2020-08-27T08:31:01Z</time>
      </trkpt>
      <trkpt lat="48.60825" lon="1.97607">
        <ele>93.87</ele>
        <time>2020-08-27T08:31:02Z</time>
      </trkpt>
      <trkpt lat="48.60825" lon="1.97609">
        <ele>93.87</ele>
        <time>2020-08-27T08:31:03Z</time>
      </trkpt>
      <trkpt lat="48.60825" lon="1.97612">
        <ele>93.87</ele>
        <time>2020-08-27T08:31:04Z</time>
      </trkpt>
      <trkpt lat="48.60826" lon="1.97613">
        <ele>93.87</ele>
        <time>2020-08-27T08:31:05Z</time>
      </trkpt>
      <trkpt lat="48.60826" lon="1.97615">
        <ele>93.87</ele>
        <time>2020-08-27T08:31:06Z</time>
      </trkpt>
      <trkpt lat="48.60827" lon="1.97617">
        <ele>93.87</ele>
        <time>2020-08-27T08:31:07Z</time>
      </trkpt>
      <trkpt lat="48.60827" lon="1.97619">
        <ele>93.87</ele>
        <time>2020-08-27T08:31:08Z</time>
      </trkpt>
      <trkpt lat="48.60827" lon="1.97621">
        <ele>93.87</ele>
        <time>2020-08-27T08:31:09Z</time>
      </trkpt>
      <trkpt lat="48.60827" lon="1.97623">
        <ele>93.87</ele>
        <time>2020-08-27T08:31:10Z</time>
      </trkpt>
      <trkpt lat="48.60828" lon="1.97624">
        <ele>94.35</ele>
        <time>2020-08-27T08:31:11Z</time>
      </trkpt>
      <trkpt lat="48.60828" lon="1.97625">
        <ele>94.35</ele>
        <time>2020-08-27T08:31:12Z</time>
      </trkpt>
      <trkpt lat="48.60828" lon="1.97627">
        <ele>93.87</ele>
        <time>2020-08-27T08:31:13Z</time>
      </trkpt>
      <trkpt lat="48.60829" lon="1.97629">
        <ele>93.87</ele>
        <time>2020-08-27T08:31:14Z</time>
      </trkpt>
      <trkpt lat="48.6083" lon="1.97631">
        <ele>93.87</ele>
        <time>2020-08-27T08:31:15Z</time>
      </trkpt>
      <trkpt lat="48.6083" lon="1.97632">
        <ele>93.87</ele>
        <time>2020-08-27T08:31:16Z</time>
      </trkpt>
      <trkpt lat="48.60831" lon="1.97634">
        <ele>94.35</ele>
        <time>2020-08-27T08:31:17Z</time>
      </trkpt>
      <trkpt lat="48.60831" lon="1.97637">
        <ele>94.35</ele>
        <time>2020-08-27T08:31:18Z</time>
      </trkpt>
      <trkpt lat="48.60831" lon="1.9764">
        <ele>93.87</ele>
        <time>2020-08-27T08:31:19Z</time>
      </trkpt>
      <trkpt lat="48.60831" lon="1.97643">
        <ele>93.87</ele>
        <time>2020-08-27T08:31:20Z</time>
      </trkpt>
      <trkpt lat="48.60831" lon="1.97646">
        <ele>93.87</ele>
        <time>2020-08-27T08:31:21Z</time>
      </trkpt>
      <trkpt lat="48.60832" lon="1.97648">
        <ele>93.39</ele>
        <time>2020-08-27T08:31:22Z</time>
      </trkpt>
      <trkpt lat="48.60832" lon="1.97651">
        <ele>93.87</ele>
        <time>2020-08-27T08:31:23Z</time>
      </trkpt>
      <trkpt lat="48.60832" lon="1.97653">
        <ele>93.87</ele>
        <time>2020-08-27T08:31:24Z</time>
      </trkpt>
      <trkpt lat="48.60831" lon="1.97655">
        <ele>93.87</ele>
        <time>2020-08-27T08:31:25Z</time>
      </trkpt>
      <trkpt lat="48.60831" lon="1.97657">
        <ele>93.39</ele>
        <time>2020-08-27T08:31:26Z</time>
      </trkpt>
      <trkpt lat="48.60832" lon="1.97659">
        <ele>93.39</ele>
        <time>2020-08-27T08:31:27Z</time>
      </trkpt>
      <trkpt lat="48.60832" lon="1.97661">
        <ele>93.87</ele>
        <time>2020-08-27T08:31:28Z</time>
      </trkpt>
      <trkpt lat="48.60832" lon="1.97663">
        <ele>93.87</ele>
        <time>2020-08-27T08:31:29Z</time>
      </trkpt>
      <trkpt lat="48.60832" lon="1.97665">
        <ele>93.39</ele>
        <time>2020-08-27T08:31:30Z</time>
      </trkpt>
      <trkpt lat="48.60832" lon="1.97668">
        <ele>93.39</ele>
        <time>2020-08-27T08:31:31Z</time>
      </trkpt>
      <trkpt lat="48.60832" lon="1.9767">
        <ele>93.39</ele>
        <time>2020-08-27T08:31:32Z</time>
      </trkpt>
      <trkpt lat="48.60832" lon="1.97672">
        <ele>93.39</ele>
        <time>2020-08-27T08:31:33Z</time>
      </trkpt>
      <trkpt lat="48.60833" lon="1.97674">
        <ele>94.35</ele>
        <time>2020-08-27T08:31:34Z</time>
      </trkpt>
      <trkpt lat="48.60834" lon="1.97676">
        <ele>93.39</ele>
        <time>2020-08-27T08:31:35Z</time>
      </trkpt>
      <trkpt lat="48.60834" lon="1.97678">
        <ele>93.39</ele>
        <time>2020-08-27T08:31:36Z</time>
      </trkpt>
      <trkpt lat="48.60834" lon="1.97679">
        <ele>93.87</ele>
        <time>2020-08-27T08:31:37Z</time>
      </trkpt>
      <trkpt lat="48.60835" lon="1.97681">
        <ele>93.39</ele>
        <time>2020-08-27T08:31:38Z</time>
      </trkpt>
      <trkpt lat="48.60835" lon="1.97683">
        <ele>93.39</ele>
        <time>2020-08-27T08:31:39Z</time>
      </trkpt>
      <trkpt lat="48.60836" lon="1.97684">
        <ele>93.39</ele>
        <time>2020-08-27T08:31:40Z</time>
      </trkpt>
      <trkpt lat="48.60836" lon="1.97686">
        <ele>93.39</ele>
        <time>2020-08-27T08:31:41Z</time>
      </trkpt>
      <trkpt lat="48.60836" lon="1.97689">
        <ele>93.39</ele>
        <time>2020-08-27T08:31:42Z</time>
      </trkpt>
      <trkpt lat="48.60836" lon="1.97691">
        <ele>93.39</ele>
        <time>2020-08-27T08:31:43Z</time>
      </trkpt>
      <trkpt lat="48.60836" lon="1.97694">
        <ele>93.39</ele>
        <time>2020-08-27T08:31:44Z</time>
      </trkpt>
      <trkpt lat="48.60837" lon="1.97696">
        <ele>93.39</ele>
        <time>2020-08-27T08:31:45Z</time>
      </trkpt>
      <trkpt lat="48.60837" lon="1.97699">
        <ele>93.39</ele>
        <time>2020-08-27T08:31:46Z</time>
      </trkpt>
      <trkpt lat="48.60837" lon="1.97702">
        <ele>93.39</ele>
        <time>2020-08-27T08:31:47Z</time>
      </trkpt>
      <trkpt lat="48.60837" lon="1.97704">
        <ele>93.39</ele>
        <time>2020-08-27T08:31:48Z</time>
      </trkpt>
      <trkpt lat="48.60837" lon="1.97706">
        <ele>93.39</ele>
        <time>2020-08-27T08:31:49Z</time>
      </trkpt>
      <trkpt lat="48.60837" lon="1.97709">
        <ele>93.39</ele>
        <time>2020-08-27T08:31:50Z</time>
      </trkpt>
      <trkpt lat="48.60837" lon="1.97711">
        <ele>93.39</ele>
        <time>2020-08-27T08:31:51Z</time>
      </trkpt>
      <trkpt lat="48.60836" lon="1.97714">
        <ele>93.39</ele>
        <time>2020-08-27T08:31:52Z</time>
      </trkpt>
      <trkpt lat="48.60836" lon="1.97716">
        <ele>93.39</ele>
        <time>2020-08-27T08:31:53Z</time>
      </trkpt>
      <trkpt lat="48.60836" lon="1.97718">
        <ele>93.39</ele>
        <time>2020-08-27T08:31:54Z</time>
      </trkpt>
      <trkpt lat="48.60836" lon="1.97719">
        <ele>93.39</ele>
        <time>2020-08-27T08:31:55Z</time>
      </trkpt>
      <trkpt lat="48.60836" lon="1.97721">
        <ele>93.39</ele>
        <time>2020-08-27T08:31:56Z</time>
      </trkpt>
      <trkpt lat="48.60836" lon="1.97722">
        <ele>93.39</ele>
        <time>2020-08-27T08:31:57Z</time>
      </trkpt>
      <trkpt lat="48.60835" lon="1.97724">
        <ele>92.9</ele>
        <time>2020-08-27T08:31:58Z</time>
      </trkpt>
      <trkpt lat="48.60835" lon="1.97726">
        <ele>93.39</ele>
        <time>2020-08-27T08:31:59Z</time>
      </trkpt>
      <trkpt lat="48.60835" lon="1.97728">
        <ele>93.39</ele>
        <time>2020-08-27T08:32:00Z</time>
      </trkpt>
      <trkpt lat="48.60835" lon="1.97729">
        <ele>93.39</ele>
        <time>2020-08-27T08:32:01Z</time>
      </trkpt>
      <trkpt lat="48.60835" lon="1.9773">
        <ele>93.39</ele>
        <time>2020-08-27T08:32:02Z</time>
      </trkpt>
      <trkpt lat="48.60835" lon="1.97733">
        <ele>93.39</ele>
        <time>2020-08-27T08:32:03Z</time>
      </trkpt>
      <trkpt lat="48.60834" lon="1.97736">
        <ele>92.9</ele>
        <time>2020-08-27T08:32:04Z</time>
      </trkpt>
      <trkpt lat="48.60833" lon="1.97739">
        <ele>92.9</ele>
        <time>2020-08-27T08:32:05Z</time>
      </trkpt>
      <trkpt lat="48.60833" lon="1.97742">
        <ele>92.9</ele>
        <time>2020-08-27T08:32:06Z</time>
      </trkpt>
      <trkpt lat="48.60832" lon="1.97745">
        <ele>92.9</ele>
        <time>2020-08-27T08:32:07Z</time>
      </trkpt>
      <trkpt lat="48.60832" lon="1.97748">
        <ele>92.9</ele>
        <time>2020-08-27T08:32:08Z</time>
      </trkpt>
      <trkpt lat="48.60832" lon="1.97751">
        <ele>92.9</ele>
        <time>2020-08-27T08:32:09Z</time>
      </trkpt>
      <trkpt lat="48.60832" lon="1.97753">
        <ele>92.9</ele>
        <time>2020-08-27T08:32:10Z</time>
      </trkpt>
      <trkpt lat="48.60832" lon="1.97756">
        <ele>92.42</ele>
        <time>2020-08-27T08:32:11Z</time>
      </trkpt>
      <trkpt lat="48.60832" lon="1.97757">
        <ele>92.9</ele>
        <time>2020-08-27T08:32:12Z</time>
      </trkpt>
      <trkpt lat="48.60832" lon="1.97759">
        <ele>93.39</ele>
        <time>2020-08-27T08:32:13Z</time>
      </trkpt>
      <trkpt lat="48.60831" lon="1.97761">
        <ele>92.9</ele>
        <time>2020-08-27T08:32:14Z</time>
      </trkpt>
      <trkpt lat="48.60831" lon="1.97762">
        <ele>92.9</ele>
        <time>2020-08-27T08:32:15Z</time>
      </trkpt>
      <trkpt lat="48.60831" lon="1.97764">
        <ele>92.9</ele>
        <time>2020-08-27T08:32:16Z</time>
      </trkpt>
      <trkpt lat="48.6083" lon="1.97766">
        <ele>92.9</ele>
        <time>2020-08-27T08:32:17Z</time>
      </trkpt>
      <trkpt lat="48.6083" lon="1.97768">
        <ele>92.42</ele>
        <time>2020-08-27T08:32:18Z</time>
      </trkpt>
      <trkpt lat="48.6083" lon="1.9777">
        <ele>92.42</ele>
        <time>2020-08-27T08:32:19Z</time>
      </trkpt>
      <trkpt lat="48.6083" lon="1.97772">
        <ele>92.9</ele>
        <time>2020-08-27T08:32:20Z</time>
      </trkpt>
      <trkpt lat="48.6083" lon="1.97773">
        <ele>92.9</ele>
        <time>2020-08-27T08:32:21Z</time>
      </trkpt>
      <trkpt lat="48.6083" lon="1.97775">
        <ele>92.42</ele>
        <time>2020-08-27T08:32:22Z</time>
      </trkpt>
      <trkpt lat="48.6083" lon="1.97777">
        <ele>92.42</ele>
        <time>2020-08-27T08:32:23Z</time>
      </trkpt>
      <trkpt lat="48.6083" lon="1.97779">
        <ele>92.42</ele>
        <time>2020-08-27T08:32:24Z</time>
      </trkpt>
      <trkpt lat="48.60829" lon="1.97781">
        <ele>92.9</ele>
        <time>2020-08-27T08:32:25Z</time>
      </trkpt>
      <trkpt lat="48.60829" lon="1.97784">
        <ele>92.9</ele>
        <time>2020-08-27T08:32:26Z</time>
      </trkpt>
      <trkpt lat="48.60829" lon="1.97786">
        <ele>92.9</ele>
        <time>2020-08-27T08:32:27Z</time>
      </trkpt>
      <trkpt lat="48.60829" lon="1.97789">
        <ele>92.42</ele>
        <time>2020-08-27T08:32:28Z</time>
      </trkpt>
      <trkpt lat="48.60829" lon="1.97791">
        <ele>92.42</ele>
        <time>2020-08-27T08:32:29Z</time>
      </trkpt>
      <trkpt lat="48.60829" lon="1.97794">
        <ele>92.9</ele>
        <time>2020-08-27T08:32:30Z</time>
      </trkpt>
      <trkpt lat="48.60828" lon="1.97797">
        <ele>92.42</ele>
        <time>2020-08-27T08:32:31Z</time>
      </trkpt>
      <trkpt lat="48.60828" lon="1.97799">
        <ele>92.9</ele>
        <time>2020-08-27T08:32:32Z</time>
      </trkpt>
      <trkpt lat="48.60828" lon="1.97801">
        <ele>92.42</ele>
        <time>2020-08-27T08:32:33Z</time>
      </trkpt>
      <trkpt lat="48.60827" lon="1.97803">
        <ele>92.42</ele>
        <time>2020-08-27T08:32:34Z</time>
      </trkpt>
      <trkpt lat="48.60827" lon="1.97805">
        <ele>92.42</ele>
        <time>2020-08-27T08:32:35Z</time>
      </trkpt>
      <trkpt lat="48.60826" lon="1.97807">
        <ele>92.42</ele>
        <time>2020-08-27T08:32:36Z</time>
      </trkpt>
      <trkpt lat="48.60825" lon="1.97809">
        <ele>92.42</ele>
        <time>2020-08-27T08:32:37Z</time>
      </trkpt>
      <trkpt lat="48.60825" lon="1.9781">
        <ele>92.42</ele>
        <time>2020-08-27T08:32:38Z</time>
      </trkpt>
      <trkpt lat="48.60825" lon="1.97812">
        <ele>92.9</ele>
        <time>2020-08-27T08:32:39Z</time>
      </trkpt>
      <trkpt lat="48.60824" lon="1.97814">
        <ele>92.9</ele>
        <time>2020-08-27T08:32:40Z</time>
      </trkpt>
      <trkpt lat="48.60824" lon="1.97816">
        <ele>92.42</ele>
        <time>2020-08-27T08:32:41Z</time>
      </trkpt>
      <trkpt lat="48.60824" lon="1.97818">
        <ele>92.42</ele>
        <time>2020-08-27T08:32:42Z</time>
      </trkpt>
      <trkpt lat="48.60824" lon="1.9782">
        <ele>92.42</ele>
        <time>2020-08-27T08:32:43Z</time>
      </trkpt>
      <trkpt lat="48.60824" lon="1.97821">
        <ele>92.42</ele>
        <time>2020-08-27T08:32:44Z</time>
      </trkpt>
      <trkpt lat="48.60824" lon="1.97824">
        <ele>92.42</ele>
        <time>2020-08-27T08:32:45Z</time>
      </trkpt>
      <trkpt lat="48.60824" lon="1.97826">
        <ele>92.42</ele>
        <time>2020-08-27T08:32:46Z</time>
      </trkpt>
      <trkpt lat="48.60824" lon="1.9783">
        <ele>92.42</ele>
        <time>2020-08-27T08:32:47Z</time>
      </trkpt>
      <trkpt lat="48.60825" lon="1.97833">
        <ele>91.94</ele>
        <time>2020-08-27T08:32:48Z</time>
      </trkpt>
      <trkpt lat="48.60825" lon="1.97835">
        <ele>92.42</ele>
        <time>2020-08-27T08:32:49Z</time>
      </trkpt>
      <trkpt lat="48.60825" lon="1.97838">
        <ele>92.42</ele>
        <time>2020-08-27T08:32:50Z</time>
      </trkpt>
      <trkpt lat="48.60825" lon="1.9784">
        <ele>92.9</ele>
        <time>2020-08-27T08:32:51Z</time>
      </trkpt>
      <trkpt lat="48.60825" lon="1.97843">
        <ele>92.42</ele>
        <time>2020-08-27T08:32:52Z</time>
      </trkpt>
      <trkpt lat="48.60825" lon="1.97846">
        <ele>92.42</ele>
        <time>2020-08-27T08:32:53Z</time>
      </trkpt>
      <trkpt lat="48.60825" lon="1.97848">
        <ele>92.42</ele>
        <time>2020-08-27T08:32:54Z</time>
      </trkpt>
      <trkpt lat="48.60825" lon="1.9785">
        <ele>92.42</ele>
        <time>2020-08-27T08:32:55Z</time>
      </trkpt>
      <trkpt lat="48.60824" lon="1.97852">
        <ele>92.42</ele>
        <time>2020-08-27T08:32:56Z</time>
      </trkpt>
      <trkpt lat="48.60825" lon="1.97854">
        <ele>91.94</ele>
        <time>2020-08-27T08:32:57Z</time>
      </trkpt>
      <trkpt lat="48.60824" lon="1.97857">
        <ele>92.42</ele>
        <time>2020-08-27T08:32:58Z</time>
      </trkpt>
      <trkpt lat="48.60824" lon="1.97859">
        <ele>91.94</ele>
        <time>2020-08-27T08:32:59Z</time>
      </trkpt>
      <trkpt lat="48.60824" lon="1.97861">
        <ele>91.94</ele>
        <time>2020-08-27T08:33:00Z</time>
      </trkpt>
      <trkpt lat="48.60823" lon="1.97863">
        <ele>91.94</ele>
        <time>2020-08-27T08:33:01Z</time>
      </trkpt>
      <trkpt lat="48.60823" lon="1.97865">
        <ele>91.94</ele>
        <time>2020-08-27T08:33:02Z</time>
      </trkpt>
      <trkpt lat="48.60822" lon="1.97867">
        <ele>92.42</ele>
        <time>2020-08-27T08:33:03Z</time>
      </trkpt>
      <trkpt lat="48.60822" lon="1.97869">
        <ele>92.42</ele>
        <time>2020-08-27T08:33:04Z</time>
      </trkpt>
      <trkpt lat="48.60821" lon="1.97872">
        <ele>92.42</ele>
        <time>2020-08-27T08:33:05Z</time>
      </trkpt>
      <trkpt lat="48.60821" lon="1.97873">
        <ele>92.42</ele>
        <time>2020-08-27T08:33:06Z</time>
      </trkpt>
      <trkpt lat="48.60821" lon="1.97875">
        <ele>92.42</ele>
        <time>2020-08-27T08:33:07Z</time>
      </trkpt>
      <trkpt lat="48.60821" lon="1.97876">
        <ele>92.42</ele>
        <time>2020-08-27T08:33:08Z</time>
      </trkpt>
      <trkpt lat="48.6082" lon="1.97878">
        <ele>91.94</ele>
        <time>2020-08-27T08:33:09Z</time>
      </trkpt>
      <trkpt lat="48.6082" lon="1.97879">
        <ele>92.42</ele>
        <time>2020-08-27T08:33:10Z</time>
      </trkpt>
      <trkpt lat="48.6082" lon="1.97881">
        <ele>92.42</ele>
        <time>2020-08-27T08:33:11Z</time>
      </trkpt>
      <trkpt lat="48.6082" lon="1.97883">
        <ele>91.94</ele>
        <time>2020-08-27T08:33:12Z</time>
      </trkpt>
      <trkpt lat="48.60819" lon="1.97885">
        <ele>92.42</ele>
        <time>2020-08-27T08:33:13Z</time>
      </trkpt>
      <trkpt lat="48.60819" lon="1.97887">
        <ele>92.9</ele>
        <time>2020-08-27T08:33:14Z</time>
      </trkpt>
      <trkpt lat="48.60819" lon="1.9789">
        <ele>92.9</ele>
        <time>2020-08-27T08:33:15Z</time>
      </trkpt>
      <trkpt lat="48.60819" lon="1.97893">
        <ele>92.42</ele>
        <time>2020-08-27T08:33:16Z</time>
      </trkpt>
      <trkpt lat="48.6082" lon="1.97896">
        <ele>92.42</ele>
        <time>2020-08-27T08:33:17Z</time>
      </trkpt>
      <trkpt lat="48.6082" lon="1.97898">
        <ele>92.42</ele>
        <time>2020-08-27T08:33:18Z</time>
      </trkpt>
      <trkpt lat="48.6082" lon="1.97901">
        <ele>92.42</ele>
        <time>2020-08-27T08:33:19Z</time>
      </trkpt>
      <trkpt lat="48.6082" lon="1.97903">
        <ele>92.42</ele>
        <time>2020-08-27T08:33:20Z</time>
      </trkpt>
      <trkpt lat="48.6082" lon="1.97906">
        <ele>92.42</ele>
        <time>2020-08-27T08:33:21Z</time>
      </trkpt>
      <trkpt lat="48.6082" lon="1.97909">
        <ele>92.9</ele>
        <time>2020-08-27T08:33:22Z</time>
      </trkpt>
      <trkpt lat="48.60819" lon="1.97911">
        <ele>92.42</ele>
        <time>2020-08-27T08:33:23Z</time>
      </trkpt>
      <trkpt lat="48.60818" lon="1.97914">
        <ele>92.42</ele>
        <time>2020-08-27T08:33:24Z</time>
      </trkpt>
      <trkpt lat="48.60818" lon="1.97916">
        <ele>92.42</ele>
        <time>2020-08-27T08:33:25Z</time>
      </trkpt>
      <trkpt lat="48.60817" lon="1.97917">
        <ele>92.9</ele>
        <time>2020-08-27T08:33:26Z</time>
      </trkpt>
      <trkpt lat="48.60816" lon="1.97919">
        <ele>92.9</ele>
        <time>2020-08-27T08:33:27Z</time>
      </trkpt>
      <trkpt lat="48.60816" lon="1.97921">
        <ele>92.9</ele>
        <time>2020-08-27T08:33:28Z</time>
      </trkpt>
      <trkpt lat="48.60816" lon="1.97924">
        <ele>92.9</ele>
        <time>2020-08-27T08:33:29Z</time>
      </trkpt>
      <trkpt lat="48.60816" lon="1.97926">
        <ele>92.9</ele>
        <time>2020-08-27T08:33:30Z</time>
      </trkpt>
      <trkpt lat="48.60815" lon="1.97929">
        <ele>92.9</ele>
        <time>2020-08-27T08:33:31Z</time>
      </trkpt>
      <trkpt lat="48.60815" lon="1.97931">
        <ele>92.9</ele>
        <time>2020-08-27T08:33:32Z</time>
      </trkpt>
      <trkpt lat="48.60815" lon="1.97934">
        <ele>92.9</ele>
        <time>2020-08-27T08:33:33Z</time>
      </trkpt>
      <trkpt lat="48.60814" lon="1.97936">
        <ele>92.9</ele>
        <time>2020-08-27T08:33:34Z</time>
      </trkpt>
      <trkpt lat="48.60814" lon="1.97939">
        <ele>92.9</ele>
        <time>2020-08-27T08:33:35Z</time>
      </trkpt>
      <trkpt lat="48.60813" lon="1.97941">
        <ele>92.9</ele>
        <time>2020-08-27T08:33:36Z</time>
      </trkpt>
      <trkpt lat="48.60813" lon="1.97943">
        <ele>92.9</ele>
        <time>2020-08-27T08:33:37Z</time>
      </trkpt>
      <trkpt lat="48.60812" lon="1.97945">
        <ele>92.9</ele>
        <time>2020-08-27T08:33:38Z</time>
      </trkpt>
      <trkpt lat="48.60812" lon="1.97947">
        <ele>92.9</ele>
        <time>2020-08-27T08:33:39Z</time>
      </trkpt>
      <trkpt lat="48.60812" lon="1.97949">
        <ele>92.9</ele>
        <time>2020-08-27T08:33:40Z</time>
      </trkpt>
      <trkpt lat="48.60812" lon="1.97951">
        <ele>92.9</ele>
        <time>2020-08-27T08:33:41Z</time>
      </trkpt>
      <trkpt lat="48.60812" lon="1.97953">
        <ele>92.9</ele>
        <time>2020-08-27T08:33:42Z</time>
      </trkpt>
      <trkpt lat="48.60812" lon="1.97956">
        <ele>92.9</ele>
        <time>2020-08-27T08:33:43Z</time>
      </trkpt>
      <trkpt lat="48.60812" lon="1.97958">
        <ele>92.9</ele>
        <time>2020-08-27T08:33:44Z</time>
      </trkpt>
      <trkpt lat="48.60811" lon="1.9796">
        <ele>92.9</ele>
        <time>2020-08-27T08:33:45Z</time>
      </trkpt>
      <trkpt lat="48.6081" lon="1.97961">
        <ele>92.9</ele>
        <time>2020-08-27T08:33:46Z</time>
      </trkpt>
      <trkpt lat="48.60809" lon="1.97962">
        <ele>92.9</ele>
        <time>2020-08-27T08:33:47Z</time>
      </trkpt>
      <trkpt lat="48.60808" lon="1.97963">
        <ele>92.9</ele>
        <time>2020-08-27T08:33:48Z</time>
      </trkpt>
      <trkpt lat="48.60807" lon="1.97964">
        <ele>93.87</ele>
        <time>2020-08-27T08:33:49Z</time>
      </trkpt>
      <trkpt lat="48.60805" lon="1.97963">
        <ele>93.39</ele>
        <time>2020-08-27T08:33:50Z</time>
      </trkpt>
      <trkpt lat="48.60804" lon="1.97964">
        <ele>93.39</ele>
        <time>2020-08-27T08:33:51Z</time>
      </trkpt>
      <trkpt lat="48.60803" lon="1.97963">
        <ele>93.39</ele>
        <time>2020-08-27T08:33:52Z</time>
      </trkpt>
      <trkpt lat="48.60801" lon="1.97963">
        <ele>93.39</ele>
        <time>2020-08-27T08:33:53Z</time>
      </trkpt>
      <trkpt lat="48.608" lon="1.97963">
        <ele>93.87</ele>
        <time>2020-08-27T08:33:54Z</time>
      </trkpt>
      <trkpt lat="48.60799" lon="1.97963">
        <ele>93.87</ele>
        <time>2020-08-27T08:33:55Z</time>
      </trkpt>
      <trkpt lat="48.60797" lon="1.97963">
        <ele>93.39</ele>
        <time>2020-08-27T08:33:56Z</time>
      </trkpt>
      <trkpt lat="48.60796" lon="1.97962">
        <ele>93.39</ele>
        <time>2020-08-27T08:33:57Z</time>
      </trkpt>
      <trkpt lat="48.60794" lon="1.97962">
        <ele>93.39</ele>
        <time>2020-08-27T08:33:58Z</time>
      </trkpt>
      <trkpt lat="48.60793" lon="1.97962">
        <ele>94.35</ele>
        <time>2020-08-27T08:33:59Z</time>
      </trkpt>
      <trkpt lat="48.60792" lon="1.97962">
        <ele>94.35</ele>
        <time>2020-08-27T08:34:00Z</time>
      </trkpt>
      <trkpt lat="48.60791" lon="1.97962">
        <ele>94.35</ele>
        <time>2020-08-27T08:34:01Z</time>
      </trkpt>
      <trkpt lat="48.60789" lon="1.97962">
        <ele>93.87</ele>
        <time>2020-08-27T08:34:02Z</time>
      </trkpt>
      <trkpt lat="48.60788" lon="1.97962">
        <ele>93.87</ele>
        <time>2020-08-27T08:34:03Z</time>
      </trkpt>
      <trkpt lat="48.60787" lon="1.97961">
        <ele>94.35</ele>
        <time>2020-08-27T08:34:04Z</time>
      </trkpt>
      <trkpt lat="48.60786" lon="1.97962">
        <ele>94.35</ele>
        <time>2020-08-27T08:34:05Z</time>
      </trkpt>
      <trkpt lat="48.60784" lon="1.97962">
        <ele>94.35</ele>
        <time>2020-08-27T08:34:06Z</time>
      </trkpt>
      <trkpt lat="48.60783" lon="1.97961">
        <ele>94.35</ele>
        <time>2020-08-27T08:34:07Z</time>
      </trkpt>
      <trkpt lat="48.60783" lon="1.97961">
        <ele>94.35</ele>
        <time>2020-08-27T08:34:08Z</time>
      </trkpt>
      <trkpt lat="48.60781" lon="1.97961">
        <ele>94.83</ele>
        <time>2020-08-27T08:34:09Z</time>
      </trkpt>
      <trkpt lat="48.6078" lon="1.9796">
        <ele>94.83</ele>
        <time>2020-08-27T08:34:10Z</time>
      </trkpt>
      <trkpt lat="48.60779" lon="1.97959">
        <ele>94.83</ele>
        <time>2020-08-27T08:34:11Z</time>
      </trkpt>
      <trkpt lat="48.60778" lon="1.97959">
        <ele>94.83</ele>
        <time>2020-08-27T08:34:12Z</time>
      </trkpt>
      <trkpt lat="48.60777" lon="1.97958">
        <ele>94.83</ele>
        <time>2020-08-27T08:34:13Z</time>
      </trkpt>
      <trkpt lat="48.60776" lon="1.97956">
        <ele>94.83</ele>
        <time>2020-08-27T08:34:14Z</time>
      </trkpt>
      <trkpt lat="48.60775" lon="1.97955">
        <ele>94.83</ele>
        <time>2020-08-27T08:34:15Z</time>
      </trkpt>
      <trkpt lat="48.60774" lon="1.97955">
        <ele>94.83</ele>
        <time>2020-08-27T08:34:16Z</time>
      </trkpt>
      <trkpt lat="48.60773" lon="1.97954">
        <ele>94.35</ele>
        <time>2020-08-27T08:34:17Z</time>
      </trkpt>
      <trkpt lat="48.60772" lon="1.97953">
        <ele>94.83</ele>
        <time>2020-08-27T08:34:18Z</time>
      </trkpt>
      <trkpt lat="48.6077" lon="1.97952">
        <ele>94.83</ele>
        <time>2020-08-27T08:34:19Z</time>
      </trkpt>
      <trkpt lat="48.6077" lon="1.9795">
        <ele>94.83</ele>
        <time>2020-08-27T08:34:20Z</time>
      </trkpt>
      <trkpt lat="48.60768" lon="1.97947">
        <ele>94.83</ele>
        <time>2020-08-27T08:34:21Z</time>
      </trkpt>
      <trkpt lat="48.60767" lon="1.97945">
        <ele>94.83</ele>
        <time>2020-08-27T08:34:22Z</time>
      </trkpt>
      <trkpt lat="48.60766" lon="1.97944">
        <ele>94.83</ele>
        <time>2020-08-27T08:34:23Z</time>
      </trkpt>
      <trkpt lat="48.60765" lon="1.97942">
        <ele>94.83</ele>
        <time>2020-08-27T08:34:24Z</time>
      </trkpt>
      <trkpt lat="48.60764" lon="1.9794">
        <ele>95.31</ele>
        <time>2020-08-27T08:34:25Z</time>
      </trkpt>
      <trkpt lat="48.60763" lon="1.9794">
        <ele>95.31</ele>
        <time>2020-08-27T08:34:26Z</time>
      </trkpt>
      <trkpt lat="48.60763" lon="1.97939">
        <ele>95.31</ele>
        <time>2020-08-27T08:34:27Z</time>
      </trkpt>
      <trkpt lat="48.60762" lon="1.97938">
        <ele>95.31</ele>
        <time>2020-08-27T08:34:28Z</time>
      </trkpt>
      <trkpt lat="48.60761" lon="1.97937">
        <ele>95.31</ele>
        <time>2020-08-27T08:34:29Z</time>
      </trkpt>
      <trkpt lat="48.6076" lon="1.97936">
        <ele>95.31</ele>
        <time>2020-08-27T08:34:30Z</time>
      </trkpt>
      <trkpt lat="48.60758" lon="1.97935">
        <ele>95.31</ele>
        <time>2020-08-27T08:34:31Z</time>
      </trkpt>
      <trkpt lat="48.60756" lon="1.97933">
        <ele>95.31</ele>
        <time>2020-08-27T08:34:32Z</time>
      </trkpt>
      <trkpt lat="48.60754" lon="1.97931">
        <ele>95.79</ele>
        <time>2020-08-27T08:34:33Z</time>
      </trkpt>
      <trkpt lat="48.60752" lon="1.9793">
        <ele>95.79</ele>
        <time>2020-08-27T08:34:34Z</time>
      </trkpt>
      <trkpt lat="48.60751" lon="1.97929">
        <ele>95.79</ele>
        <time>2020-08-27T08:34:35Z</time>
      </trkpt>
      <trkpt lat="48.6075" lon="1.97929">
        <ele>95.31</ele>
        <time>2020-08-27T08:34:36Z</time>
      </trkpt>
      <trkpt lat="48.60749" lon="1.97928">
        <ele>95.79</ele>
        <time>2020-08-27T08:34:37Z</time>
      </trkpt>
      <trkpt lat="48.60749" lon="1.97927">
        <ele>95.31</ele>
        <time>2020-08-27T08:34:38Z</time>
      </trkpt>
      <trkpt lat="48.60748" lon="1.97925">
        <ele>95.79</ele>
        <time>2020-08-27T08:34:39Z</time>
      </trkpt>
      <trkpt lat="48.60747" lon="1.97924">
        <ele>95.79</ele>
        <time>2020-08-27T08:34:40Z</time>
      </trkpt>
      <trkpt lat="48.60746" lon="1.97923">
        <ele>95.79</ele>
        <time>2020-08-27T08:34:41Z</time>
      </trkpt>
      <trkpt lat="48.60744" lon="1.97922">
        <ele>95.79</ele>
        <time>2020-08-27T08:34:42Z</time>
      </trkpt>
      <trkpt lat="48.60743" lon="1.97921">
        <ele>95.79</ele>
        <time>2020-08-27T08:34:43Z</time>
      </trkpt>
      <trkpt lat="48.60741" lon="1.9792">
        <ele>95.79</ele>
        <time>2020-08-27T08:34:44Z</time>
      </trkpt>
      <trkpt lat="48.6074" lon="1.97919">
        <ele>95.79</ele>
        <time>2020-08-27T08:34:45Z</time>
      </trkpt>
      <trkpt lat="48.60739" lon="1.97917">
        <ele>95.79</ele>
        <time>2020-08-27T08:34:46Z</time>
      </trkpt>
      <trkpt lat="48.60737" lon="1.97915">
        <ele>95.79</ele>
        <time>2020-08-27T08:34:47Z</time>
      </trkpt>
      <trkpt lat="48.60736" lon="1.97914">
        <ele>95.79</ele>
        <time>2020-08-27T08:34:48Z</time>
      </trkpt>
      <trkpt lat="48.60735" lon="1.97912">
        <ele>95.79</ele>
        <time>2020-08-27T08:34:49Z</time>
      </trkpt>
      <trkpt lat="48.60733" lon="1.97911">
        <ele>95.79</ele>
        <time>2020-08-27T08:34:50Z</time>
      </trkpt>
      <trkpt lat="48.60732" lon="1.9791">
        <ele>96.27</ele>
        <time>2020-08-27T08:34:51Z</time>
      </trkpt>
      <trkpt lat="48.6073" lon="1.97909">
        <ele>96.27</ele>
        <time>2020-08-27T08:34:52Z</time>
      </trkpt>
      <trkpt lat="48.60729" lon="1.97907">
        <ele>96.27</ele>
        <time>2020-08-27T08:34:53Z</time>
      </trkpt>
      <trkpt lat="48.60728" lon="1.97906">
        <ele>96.27</ele>
        <time>2020-08-27T08:34:54Z</time>
      </trkpt>
      <trkpt lat="48.60727" lon="1.97905">
        <ele>96.27</ele>
        <time>2020-08-27T08:34:55Z</time>
      </trkpt>
      <trkpt lat="48.60726" lon="1.97904">
        <ele>96.27</ele>
        <time>2020-08-27T08:34:56Z</time>
      </trkpt>
      <trkpt lat="48.60724" lon="1.97902">
        <ele>96.27</ele>
        <time>2020-08-27T08:34:57Z</time>
      </trkpt>
      <trkpt lat="48.60723" lon="1.97901">
        <ele>96.27</ele>
        <time>2020-08-27T08:34:58Z</time>
      </trkpt>
      <trkpt lat="48.60722" lon="1.979">
        <ele>96.27</ele>
        <time>2020-08-27T08:34:59Z</time>
      </trkpt>
      <trkpt lat="48.60722" lon="1.97899">
        <ele>96.75</ele>
        <time>2020-08-27T08:35:00Z</time>
      </trkpt>
      <trkpt lat="48.60721" lon="1.97898">
        <ele>96.75</ele>
        <time>2020-08-27T08:35:01Z</time>
      </trkpt>
      <trkpt lat="48.6072" lon="1.97896">
        <ele>96.75</ele>
        <time>2020-08-27T08:35:02Z</time>
      </trkpt>
      <trkpt lat="48.60719" lon="1.97896">
        <ele>96.27</ele>
        <time>2020-08-27T08:35:03Z</time>
      </trkpt>
      <trkpt lat="48.60717" lon="1.97895">
        <ele>96.27</ele>
        <time>2020-08-27T08:35:04Z</time>
      </trkpt>
      <trkpt lat="48.60716" lon="1.97894">
        <ele>96.75</ele>
        <time>2020-08-27T08:35:05Z</time>
      </trkpt>
      <trkpt lat="48.60715" lon="1.97892">
        <ele>96.27</ele>
        <time>2020-08-27T08:35:06Z</time>
      </trkpt>
      <trkpt lat="48.60714" lon="1.97891">
        <ele>96.27</ele>
        <time>2020-08-27T08:35:07Z</time>
      </trkpt>
      <trkpt lat="48.60713" lon="1.9789">
        <ele>96.75</ele>
        <time>2020-08-27T08:35:08Z</time>
      </trkpt>
      <trkpt lat="48.60712" lon="1.97889">
        <ele>96.27</ele>
        <time>2020-08-27T08:35:09Z</time>
      </trkpt>
      <trkpt lat="48.60711" lon="1.97888">
        <ele>96.27</ele>
        <time>2020-08-27T08:35:10Z</time>
      </trkpt>
      <trkpt lat="48.6071" lon="1.97887">
        <ele>96.75</ele>
        <time>2020-08-27T08:35:11Z</time>
      </trkpt>
      <trkpt lat="48.60709" lon="1.97885">
        <ele>96.75</ele>
        <time>2020-08-27T08:35:12Z</time>
      </trkpt>
      <trkpt lat="48.60707" lon="1.97884">
        <ele>96.75</ele>
        <time>2020-08-27T08:35:13Z</time>
      </trkpt>
      <trkpt lat="48.60706" lon="1.97883">
        <ele>96.75</ele>
        <time>2020-08-27T08:35:14Z</time>
      </trkpt>
      <trkpt lat="48.60704" lon="1.97882">
        <ele>96.75</ele>
        <time>2020-08-27T08:35:15Z</time>
      </trkpt>
      <trkpt lat="48.60702" lon="1.9788">
        <ele>96.75</ele>
        <time>2020-08-27T08:35:16Z</time>
      </trkpt>
      <trkpt lat="48.607" lon="1.97879">
        <ele>96.27</ele>
        <time>2020-08-27T08:35:17Z</time>
      </trkpt>
      <trkpt lat="48.60699" lon="1.97877">
        <ele>97.23</ele>
        <time>2020-08-27T08:35:18Z</time>
      </trkpt>
      <trkpt lat="48.60697" lon="1.97875">
        <ele>97.23</ele>
        <time>2020-08-27T08:35:19Z</time>
      </trkpt>
      <trkpt lat="48.60695" lon="1.97874">
        <ele>97.23</ele>
        <time>2020-08-27T08:35:20Z</time>
      </trkpt>
      <trkpt lat="48.60693" lon="1.97872">
        <ele>96.75</ele>
        <time>2020-08-27T08:35:21Z</time>
      </trkpt>
      <trkpt lat="48.60692" lon="1.9787">
        <ele>96.75</ele>
        <time>2020-08-27T08:35:22Z</time>
      </trkpt>
      <trkpt lat="48.60691" lon="1.97869">
        <ele>96.75</ele>
        <time>2020-08-27T08:35:23Z</time>
      </trkpt>
      <trkpt lat="48.6069" lon="1.97868">
        <ele>96.75</ele>
        <time>2020-08-27T08:35:24Z</time>
      </trkpt>
      <trkpt lat="48.60689" lon="1.97867">
        <ele>96.75</ele>
        <time>2020-08-27T08:35:25Z</time>
      </trkpt>
      <trkpt lat="48.60688" lon="1.97866">
        <ele>96.75</ele>
        <time>2020-08-27T08:35:26Z</time>
      </trkpt>
      <trkpt lat="48.60687" lon="1.97865">
        <ele>96.75</ele>
        <time>2020-08-27T08:35:27Z</time>
      </trkpt>
      <trkpt lat="48.60686" lon="1.97864">
        <ele>97.23</ele>
        <time>2020-08-27T08:35:28Z</time>
      </trkpt>
      <trkpt lat="48.60685" lon="1.97862">
        <ele>97.23</ele>
        <time>2020-08-27T08:35:29Z</time>
      </trkpt>
      <trkpt lat="48.60684" lon="1.97861">
        <ele>97.23</ele>
        <time>2020-08-27T08:35:30Z</time>
      </trkpt>
      <trkpt lat="48.60683" lon="1.97859">
        <ele>97.23</ele>
        <time>2020-08-27T08:35:31Z</time>
      </trkpt>
      <trkpt lat="48.60682" lon="1.97858">
        <ele>96.75</ele>
        <time>2020-08-27T08:35:32Z</time>
      </trkpt>
      <trkpt lat="48.60681" lon="1.97856">
        <ele>96.75</ele>
        <time>2020-08-27T08:35:33Z</time>
      </trkpt>
      <trkpt lat="48.60679" lon="1.97855">
        <ele>96.75</ele>
        <time>2020-08-27T08:35:34Z</time>
      </trkpt>
      <trkpt lat="48.60678" lon="1.97854">
        <ele>97.23</ele>
        <time>2020-08-27T08:35:35Z</time>
      </trkpt>
      <trkpt lat="48.60677" lon="1.97853">
        <ele>97.23</ele>
        <time>2020-08-27T08:35:36Z</time>
      </trkpt>
      <trkpt lat="48.60676" lon="1.97852">
        <ele>97.23</ele>
        <time>2020-08-27T08:35:37Z</time>
      </trkpt>
      <trkpt lat="48.60675" lon="1.97851">
        <ele>96.75</ele>
        <time>2020-08-27T08:35:38Z</time>
      </trkpt>
      <trkpt lat="48.60674" lon="1.9785">
        <ele>96.75</ele>
        <time>2020-08-27T08:35:39Z</time>
      </trkpt>
      <trkpt lat="48.60672" lon="1.9785">
        <ele>97.23</ele>
        <time>2020-08-27T08:35:40Z</time>
      </trkpt>
      <trkpt lat="48.60671" lon="1.97849">
        <ele>97.23</ele>
        <time>2020-08-27T08:35:41Z</time>
      </trkpt>
      <trkpt lat="48.6067" lon="1.97849">
        <ele>97.23</ele>
        <time>2020-08-27T08:35:42Z</time>
      </trkpt>
      <trkpt lat="48.60668" lon="1.97848">
        <ele>97.23</ele>
        <time>2020-08-27T08:35:43Z</time>
      </trkpt>
      <trkpt lat="48.60667" lon="1.97848">
        <ele>97.23</ele>
        <time>2020-08-27T08:35:44Z</time>
      </trkpt>
      <trkpt lat="48.60666" lon="1.97847">
        <ele>97.23</ele>
        <time>2020-08-27T08:35:45Z</time>
      </trkpt>
      <trkpt lat="48.60664" lon="1.97846">
        <ele>97.23</ele>
        <time>2020-08-27T08:35:46Z</time>
      </trkpt>
      <trkpt lat="48.60663" lon="1.97845">
        <ele>97.23</ele>
        <time>2020-08-27T08:35:47Z</time>
      </trkpt>
      <trkpt lat="48.60661" lon="1.97844">
        <ele>96.75</ele>
        <time>2020-08-27T08:35:48Z</time>
      </trkpt>
      <trkpt lat="48.6066" lon="1.97843">
        <ele>97.23</ele>
        <time>2020-08-27T08:35:49Z</time>
      </trkpt>
      <trkpt lat="48.60659" lon="1.97841">
        <ele>97.23</ele>
        <time>2020-08-27T08:35:50Z</time>
      </trkpt>
      <trkpt lat="48.60658" lon="1.9784">
        <ele>97.71</ele>
        <time>2020-08-27T08:35:51Z</time>
      </trkpt>
      <trkpt lat="48.60657" lon="1.97838">
        <ele>97.23</ele>
        <time>2020-08-27T08:35:52Z</time>
      </trkpt>
      <trkpt lat="48.60656" lon="1.97836">
        <ele>97.23</ele>
        <time>2020-08-27T08:35:53Z</time>
      </trkpt>
      <trkpt lat="48.60655" lon="1.97835">
        <ele>97.23</ele>
        <time>2020-08-27T08:35:54Z</time>
      </trkpt>
      <trkpt lat="48.60654" lon="1.97834">
        <ele>97.23</ele>
        <time>2020-08-27T08:35:55Z</time>
      </trkpt>
      <trkpt lat="48.60653" lon="1.97833">
        <ele>97.23</ele>
        <time>2020-08-27T08:35:56Z</time>
      </trkpt>
      <trkpt lat="48.60652" lon="1.97832">
        <ele>97.23</ele>
        <time>2020-08-27T08:35:57Z</time>
      </trkpt>
      <trkpt lat="48.6065" lon="1.97831">
        <ele>97.23</ele>
        <time>2020-08-27T08:35:58Z</time>
      </trkpt>
      <trkpt lat="48.60649" lon="1.97829">
        <ele>97.71</ele>
        <time>2020-08-27T08:35:59Z</time>
      </trkpt>
      <trkpt lat="48.60647" lon="1.97827">
        <ele>97.23</ele>
        <time>2020-08-27T08:36:00Z</time>
      </trkpt>
      <trkpt lat="48.60646" lon="1.97826">
        <ele>97.23</ele>
        <time>2020-08-27T08:36:01Z</time>
      </trkpt>
      <trkpt lat="48.60645" lon="1.97825">
        <ele>97.23</ele>
        <time>2020-08-27T08:36:02Z</time>
      </trkpt>
      <trkpt lat="48.60643" lon="1.97823">
        <ele>97.71</ele>
        <time>2020-08-27T08:36:03Z</time>
      </trkpt>
      <trkpt lat="48.60642" lon="1.97822">
        <ele>97.71</ele>
        <time>2020-08-27T08:36:04Z</time>
      </trkpt>
      <trkpt lat="48.60641" lon="1.9782">
        <ele>97.23</ele>
        <time>2020-08-27T08:36:05Z</time>
      </trkpt>
      <trkpt lat="48.60639" lon="1.97819">
        <ele>97.71</ele>
        <time>2020-08-27T08:36:06Z</time>
      </trkpt>
      <trkpt lat="48.60638" lon="1.97817">
        <ele>97.71</ele>
        <time>2020-08-27T08:36:07Z</time>
      </trkpt>
      <trkpt lat="48.60637" lon="1.97816">
        <ele>97.71</ele>
        <time>2020-08-27T08:36:08Z</time>
      </trkpt>
      <trkpt lat="48.60636" lon="1.97815">
        <ele>97.71</ele>
        <time>2020-08-27T08:36:09Z</time>
      </trkpt>
      <trkpt lat="48.60635" lon="1.97813">
        <ele>97.71</ele>
        <time>2020-08-27T08:36:10Z</time>
      </trkpt>
      <trkpt lat="48.60634" lon="1.97812">
        <ele>97.23</ele>
        <time>2020-08-27T08:36:11Z</time>
      </trkpt>
      <trkpt lat="48.60632" lon="1.9781">
        <ele>97.71</ele>
        <time>2020-08-27T08:36:12Z</time>
      </trkpt>
      <trkpt lat="48.60631" lon="1.97808">
        <ele>98.19</ele>
        <time>2020-08-27T08:36:13Z</time>
      </trkpt>
      <trkpt lat="48.60629" lon="1.97807">
        <ele>98.19</ele>
        <time>2020-08-27T08:36:14Z</time>
      </trkpt>
      <trkpt lat="48.60628" lon="1.97805">
        <ele>97.71</ele>
        <time>2020-08-27T08:36:15Z</time>
      </trkpt>
      <trkpt lat="48.60627" lon="1.97804">
        <ele>98.19</ele>
        <time>2020-08-27T08:36:16Z</time>
      </trkpt>
      <trkpt lat="48.60625" lon="1.97802">
        <ele>97.71</ele>
        <time>2020-08-27T08:36:17Z</time>
      </trkpt>
      <trkpt lat="48.60624" lon="1.97801">
        <ele>98.19</ele>
        <time>2020-08-27T08:36:18Z</time>
      </trkpt>
      <trkpt lat="48.60623" lon="1.978">
        <ele>98.19</ele>
        <time>2020-08-27T08:36:19Z</time>
      </trkpt>
      <trkpt lat="48.60622" lon="1.97799">
        <ele>98.19</ele>
        <time>2020-08-27T08:36:20Z</time>
      </trkpt>
      <trkpt lat="48.60621" lon="1.97797">
        <ele>97.71</ele>
        <time>2020-08-27T08:36:21Z</time>
      </trkpt>
      <trkpt lat="48.6062" lon="1.97796">
        <ele>97.71</ele>
        <time>2020-08-27T08:36:22Z</time>
      </trkpt>
      <trkpt lat="48.60619" lon="1.97796">
        <ele>98.19</ele>
        <time>2020-08-27T08:36:23Z</time>
      </trkpt>
      <trkpt lat="48.60619" lon="1.97795">
        <ele>98.67</ele>
        <time>2020-08-27T08:36:24Z</time>
      </trkpt>
      <trkpt lat="48.60618" lon="1.97795">
        <ele>98.19</ele>
        <time>2020-08-27T08:36:25Z</time>
      </trkpt>
      <trkpt lat="48.60617" lon="1.97794">
        <ele>98.19</ele>
        <time>2020-08-27T08:36:26Z</time>
      </trkpt>
      <trkpt lat="48.60616" lon="1.97793">
        <ele>98.19</ele>
        <time>2020-08-27T08:36:27Z</time>
      </trkpt>
      <trkpt lat="48.60616" lon="1.97792">
        <ele>98.19</ele>
        <time>2020-08-27T08:36:28Z</time>
      </trkpt>
      <trkpt lat="48.60615" lon="1.97792">
        <ele>98.67</ele>
        <time>2020-08-27T08:36:29Z</time>
      </trkpt>
      <trkpt lat="48.60614" lon="1.97791">
        <ele>98.19</ele>
        <time>2020-08-27T08:36:30Z</time>
      </trkpt>
      <trkpt lat="48.60613" lon="1.9779">
        <ele>98.19</ele>
        <time>2020-08-27T08:36:31Z</time>
      </trkpt>
      <trkpt lat="48.60612" lon="1.97789">
        <ele>98.67</ele>
        <time>2020-08-27T08:36:32Z</time>
      </trkpt>
      <trkpt lat="48.6061" lon="1.97788">
        <ele>98.67</ele>
        <time>2020-08-27T08:36:33Z</time>
      </trkpt>
      <trkpt lat="48.60609" lon="1.97787">
        <ele>98.67</ele>
        <time>2020-08-27T08:36:34Z</time>
      </trkpt>
      <trkpt lat="48.60607" lon="1.97786">
        <ele>98.67</ele>
        <time>2020-08-27T08:36:35Z</time>
      </trkpt>
      <trkpt lat="48.60606" lon="1.97784">
        <ele>98.67</ele>
        <time>2020-08-27T08:36:36Z</time>
      </trkpt>
      <trkpt lat="48.60604" lon="1.97783">
        <ele>98.67</ele>
        <time>2020-08-27T08:36:37Z</time>
      </trkpt>
      <trkpt lat="48.60603" lon="1.97782">
        <ele>98.67</ele>
        <time>2020-08-27T08:36:38Z</time>
      </trkpt>
      <trkpt lat="48.60601" lon="1.97781">
        <ele>98.67</ele>
        <time>2020-08-27T08:36:39Z</time>
      </trkpt>
      <trkpt lat="48.606" lon="1.9778">
        <ele>98.67</ele>
        <time>2020-08-27T08:36:40Z</time>
      </trkpt>
      <trkpt lat="48.60599" lon="1.97779">
        <ele>98.67</ele>
        <time>2020-08-27T08:36:41Z</time>
      </trkpt>
      <trkpt lat="48.60597" lon="1.97777">
        <ele>98.67</ele>
        <time>2020-08-27T08:36:42Z</time>
      </trkpt>
      <trkpt lat="48.60595" lon="1.97776">
        <ele>99.15</ele>
        <time>2020-08-27T08:36:43Z</time>
      </trkpt>
      <trkpt lat="48.60594" lon="1.97775">
        <ele>99.15</ele>
        <time>2020-08-27T08:36:44Z</time>
      </trkpt>
      <trkpt lat="48.60593" lon="1.97774">
        <ele>99.15</ele>
        <time>2020-08-27T08:36:45Z</time>
      </trkpt>
      <trkpt lat="48.60592" lon="1.97773">
        <ele>99.15</ele>
        <time>2020-08-27T08:36:46Z</time>
      </trkpt>
      <trkpt lat="48.60591" lon="1.97772">
        <ele>99.15</ele>
        <time>2020-08-27T08:36:47Z</time>
      </trkpt>
      <trkpt lat="48.60589" lon="1.9777">
        <ele>99.15</ele>
        <time>2020-08-27T08:36:48Z</time>
      </trkpt>
      <trkpt lat="48.60588" lon="1.97769">
        <ele>99.15</ele>
        <time>2020-08-27T08:36:49Z</time>
      </trkpt>
      <trkpt lat="48.60587" lon="1.97767">
        <ele>99.15</ele>
        <time>2020-08-27T08:36:50Z</time>
      </trkpt>
      <trkpt lat="48.60586" lon="1.97766">
        <ele>99.15</ele>
        <time>2020-08-27T08:36:51Z</time>
      </trkpt>
      <trkpt lat="48.60586" lon="1.97765">
        <ele>99.15</ele>
        <time>2020-08-27T08:36:52Z</time>
      </trkpt>
      <trkpt lat="48.60585" lon="1.97764">
        <ele>99.63</ele>
        <time>2020-08-27T08:36:53Z</time>
      </trkpt>
      <trkpt lat="48.60584" lon="1.97763">
        <ele>99.63</ele>
        <time>2020-08-27T08:36:54Z</time>
      </trkpt>
      <trkpt lat="48.60583" lon="1.97762">
        <ele>99.63</ele>
        <time>2020-08-27T08:36:55Z</time>
      </trkpt>
      <trkpt lat="48.60581" lon="1.97761">
        <ele>99.63</ele>
        <time>2020-08-27T08:36:56Z</time>
      </trkpt>
      <trkpt lat="48.6058" lon="1.9776">
        <ele>99.63</ele>
        <time>2020-08-27T08:36:57Z</time>
      </trkpt>
      <trkpt lat="48.60579" lon="1.97759">
        <ele>99.63</ele>
        <time>2020-08-27T08:36:58Z</time>
      </trkpt>
      <trkpt lat="48.60578" lon="1.97757">
        <ele>99.63</ele>
        <time>2020-08-27T08:36:59Z</time>
      </trkpt>
      <trkpt lat="48.60576" lon="1.97755">
        <ele>98.67</ele>
        <time>2020-08-27T08:37:00Z</time>
      </trkpt>
      <trkpt lat="48.60575" lon="1.97754">
        <ele>100.11</ele>
        <time>2020-08-27T08:37:01Z</time>
      </trkpt>
      <trkpt lat="48.60573" lon="1.97752">
        <ele>99.63</ele>
        <time>2020-08-27T08:37:02Z</time>
      </trkpt>
      <trkpt lat="48.60572" lon="1.9775">
        <ele>100.11</ele>
        <time>2020-08-27T08:37:03Z</time>
      </trkpt>
      <trkpt lat="48.60571" lon="1.97748">
        <ele>100.11</ele>
        <time>2020-08-27T08:37:04Z</time>
      </trkpt>
      <trkpt lat="48.6057" lon="1.97747">
        <ele>99.63</ele>
        <time>2020-08-27T08:37:05Z</time>
      </trkpt>
      <trkpt lat="48.60569" lon="1.97745">
        <ele>99.63</ele>
        <time>2020-08-27T08:37:06Z</time>
      </trkpt>
      <trkpt lat="48.60567" lon="1.97744">
        <ele>99.63</ele>
        <time>2020-08-27T08:37:07Z</time>
      </trkpt>
      <trkpt lat="48.60566" lon="1.97743">
        <ele>100.11</ele>
        <time>2020-08-27T08:37:08Z</time>
      </trkpt>
      <trkpt lat="48.60565" lon="1.97742">
        <ele>100.11</ele>
        <time>2020-08-27T08:37:09Z</time>
      </trkpt>
      <trkpt lat="48.60563" lon="1.9774">
        <ele>100.11</ele>
        <time>2020-08-27T08:37:10Z</time>
      </trkpt>
      <trkpt lat="48.60562" lon="1.97739">
        <ele>100.11</ele>
        <time>2020-08-27T08:37:11Z</time>
      </trkpt>
      <trkpt lat="48.6056" lon="1.97737">
        <ele>100.11</ele>
        <time>2020-08-27T08:37:12Z</time>
      </trkpt>
      <trkpt lat="48.60559" lon="1.97736">
        <ele>100.11</ele>
        <time>2020-08-27T08:37:13Z</time>
      </trkpt>
      <trkpt lat="48.60557" lon="1.97735">
        <ele>100.11</ele>
        <time>2020-08-27T08:37:14Z</time>
      </trkpt>
      <trkpt lat="48.60556" lon="1.97734">
        <ele>99.63</ele>
        <time>2020-08-27T08:37:15Z</time>
      </trkpt>
      <trkpt lat="48.60555" lon="1.97733">
        <ele>100.11</ele>
        <time>2020-08-27T08:37:16Z</time>
      </trkpt>
      <trkpt lat="48.60553" lon="1.97732">
        <ele>100.6</ele>
        <time>2020-08-27T08:37:17Z</time>
      </trkpt>
      <trkpt lat="48.60552" lon="1.97731">
        <ele>100.11</ele>
        <time>2020-08-27T08:37:18Z</time>
      </trkpt>
      <trkpt lat="48.60551" lon="1.9773">
        <ele>100.6</ele>
        <time>2020-08-27T08:37:19Z</time>
      </trkpt>
      <trkpt lat="48.6055" lon="1.97729">
        <ele>100.6</ele>
        <time>2020-08-27T08:37:20Z</time>
      </trkpt>
      <trkpt lat="48.60549" lon="1.97728">
        <ele>100.6</ele>
        <time>2020-08-27T08:37:21Z</time>
      </trkpt>
      <trkpt lat="48.60548" lon="1.97726">
        <ele>100.6</ele>
        <time>2020-08-27T08:37:22Z</time>
      </trkpt>
      <trkpt lat="48.60547" lon="1.97725">
        <ele>101.08</ele>
        <time>2020-08-27T08:37:23Z</time>
      </trkpt>
      <trkpt lat="48.60546" lon="1.97724">
        <ele>100.6</ele>
        <time>2020-08-27T08:37:24Z</time>
      </trkpt>
      <trkpt lat="48.60544" lon="1.97722">
        <ele>101.08</ele>
        <time>2020-08-27T08:37:25Z</time>
      </trkpt>
      <trkpt lat="48.60543" lon="1.97721">
        <ele>100.6</ele>
        <time>2020-08-27T08:37:26Z</time>
      </trkpt>
      <trkpt lat="48.60542" lon="1.9772">
        <ele>100.6</ele>
        <time>2020-08-27T08:37:27Z</time>
      </trkpt>
      <trkpt lat="48.60541" lon="1.97718">
        <ele>100.6</ele>
        <time>2020-08-27T08:37:28Z</time>
      </trkpt>
      <trkpt lat="48.6054" lon="1.97718">
        <ele>101.08</ele>
        <time>2020-08-27T08:37:29Z</time>
      </trkpt>
      <trkpt lat="48.60538" lon="1.97717">
        <ele>101.08</ele>
        <time>2020-08-27T08:37:30Z</time>
      </trkpt>
      <trkpt lat="48.60537" lon="1.97717">
        <ele>101.08</ele>
        <time>2020-08-27T08:37:31Z</time>
      </trkpt>
      <trkpt lat="48.60536" lon="1.97717">
        <ele>101.08</ele>
        <time>2020-08-27T08:37:32Z</time>
      </trkpt>
      <trkpt lat="48.60535" lon="1.97718">
        <ele>101.08</ele>
        <time>2020-08-27T08:37:33Z</time>
      </trkpt>
      <trkpt lat="48.60534" lon="1.97719">
        <ele>101.08</ele>
        <time>2020-08-27T08:37:34Z</time>
      </trkpt>
      <trkpt lat="48.60534" lon="1.97721">
        <ele>102.04</ele>
        <time>2020-08-27T08:37:35Z</time>
      </trkpt>
      <trkpt lat="48.60534" lon="1.97723">
        <ele>102.04</ele>
        <time>2020-08-27T08:37:36Z</time>
      </trkpt>
      <trkpt lat="48.60533" lon="1.97724">
        <ele>101.56</ele>
        <time>2020-08-27T08:37:37Z</time>
      </trkpt>
      <trkpt lat="48.60532" lon="1.97726">
        <ele>102.04</ele>
        <time>2020-08-27T08:37:38Z</time>
      </trkpt>
      <trkpt lat="48.60532" lon="1.97728">
        <ele>101.56</ele>
        <time>2020-08-27T08:37:39Z</time>
      </trkpt>
      <trkpt lat="48.60531" lon="1.97729">
        <ele>102.52</ele>
        <time>2020-08-27T08:37:40Z</time>
      </trkpt>
      <trkpt lat="48.60531" lon="1.97731">
        <ele>102.04</ele>
        <time>2020-08-27T08:37:41Z</time>
      </trkpt>
      <trkpt lat="48.6053" lon="1.97733">
        <ele>102.04</ele>
        <time>2020-08-27T08:37:42Z</time>
      </trkpt>
      <trkpt lat="48.60528" lon="1.97736">
        <ele>102.04</ele>
        <time>2020-08-27T08:37:43Z</time>
      </trkpt>
      <trkpt lat="48.60527" lon="1.97738">
        <ele>102.52</ele>
        <time>2020-08-27T08:37:44Z</time>
      </trkpt>
      <trkpt lat="48.60527" lon="1.9774">
        <ele>102.52</ele>
        <time>2020-08-27T08:37:45Z</time>
      </trkpt>
      <trkpt lat="48.60526" lon="1.97742">
        <ele>102.52</ele>
        <time>2020-08-27T08:37:46Z</time>
      </trkpt>
      <trkpt lat="48.60526" lon="1.97744">
        <ele>102.04</ele>
        <time>2020-08-27T08:37:47Z</time>
      </trkpt>
      <trkpt lat="48.60525" lon="1.97746">
        <ele>102.04</ele>
        <time>2020-08-27T08:37:48Z</time>
      </trkpt>
      <trkpt lat="48.60524" lon="1.97747">
        <ele>101.56</ele>
        <time>2020-08-27T08:37:49Z</time>
      </trkpt>
      <trkpt lat="48.60523" lon="1.97749">
        <ele>102.52</ele>
        <time>2020-08-27T08:37:50Z</time>
      </trkpt>
      <trkpt lat="48.60522" lon="1.9775">
        <ele>103</ele>
        <time>2020-08-27T08:37:51Z</time>
      </trkpt>
      <trkpt lat="48.60521" lon="1.97752">
        <ele>103</ele>
        <time>2020-08-27T08:37:52Z</time>
      </trkpt>
      <trkpt lat="48.6052" lon="1.97754">
        <ele>102.52</ele>
        <time>2020-08-27T08:37:53Z</time>
      </trkpt>
      <trkpt lat="48.60519" lon="1.97756">
        <ele>102.52</ele>
        <time>2020-08-27T08:37:54Z</time>
      </trkpt>
      <trkpt lat="48.60518" lon="1.97758">
        <ele>102.52</ele>
        <time>2020-08-27T08:37:55Z</time>
      </trkpt>
      <trkpt lat="48.60517" lon="1.9776">
        <ele>102.52</ele>
        <time>2020-08-27T08:37:56Z</time>
      </trkpt>
      <trkpt lat="48.60516" lon="1.97762">
        <ele>102.52</ele>
        <time>2020-08-27T08:37:57Z</time>
      </trkpt>
      <trkpt lat="48.60515" lon="1.97763">
        <ele>102.04</ele>
        <time>2020-08-27T08:37:58Z</time>
      </trkpt>
      <trkpt lat="48.60514" lon="1.97765">
        <ele>102.52</ele>
        <time>2020-08-27T08:37:59Z</time>
      </trkpt>
      <trkpt lat="48.60514" lon="1.97767">
        <ele>102.52</ele>
        <time>2020-08-27T08:38:00Z</time>
      </trkpt>
      <trkpt lat="48.60513" lon="1.97769">
        <ele>103</ele>
        <time>2020-08-27T08:38:01Z</time>
      </trkpt>
      <trkpt lat="48.60512" lon="1.9777">
        <ele>102.52</ele>
        <time>2020-08-27T08:38:02Z</time>
      </trkpt>
      <trkpt lat="48.60512" lon="1.97772">
        <ele>102.04</ele>
        <time>2020-08-27T08:38:03Z</time>
      </trkpt>
      <trkpt lat="48.60511" lon="1.97774">
        <ele>102.04</ele>
        <time>2020-08-27T08:38:04Z</time>
      </trkpt>
      <trkpt lat="48.6051" lon="1.97776">
        <ele>102.52</ele>
        <time>2020-08-27T08:38:05Z</time>
      </trkpt>
      <trkpt lat="48.60509" lon="1.97778">
        <ele>102.52</ele>
        <time>2020-08-27T08:38:06Z</time>
      </trkpt>
      <trkpt lat="48.60508" lon="1.97781">
        <ele>102.04</ele>
        <time>2020-08-27T08:38:07Z</time>
      </trkpt>
      <trkpt lat="48.60507" lon="1.97783">
        <ele>102.04</ele>
        <time>2020-08-27T08:38:08Z</time>
      </trkpt>
      <trkpt lat="48.60505" lon="1.97785">
        <ele>102.04</ele>
        <time>2020-08-27T08:38:09Z</time>
      </trkpt>
      <trkpt lat="48.60505" lon="1.97787">
        <ele>102.52</ele>
        <time>2020-08-27T08:38:10Z</time>
      </trkpt>
      <trkpt lat="48.60504" lon="1.97788">
        <ele>102.52</ele>
        <time>2020-08-27T08:38:11Z</time>
      </trkpt>
      <trkpt lat="48.60503" lon="1.97789">
        <ele>102.04</ele>
        <time>2020-08-27T08:38:12Z</time>
      </trkpt>
      <trkpt lat="48.60502" lon="1.9779">
        <ele>102.04</ele>
        <time>2020-08-27T08:38:13Z</time>
      </trkpt>
      <trkpt lat="48.60502" lon="1.97792">
        <ele>102.52</ele>
        <time>2020-08-27T08:38:14Z</time>
      </trkpt>
      <trkpt lat="48.60502" lon="1.97793">
        <ele>102.04</ele>
        <time>2020-08-27T08:38:15Z</time>
      </trkpt>
      <trkpt lat="48.60501" lon="1.97795">
        <ele>102.04</ele>
        <time>2020-08-27T08:38:16Z</time>
      </trkpt>
      <trkpt lat="48.60501" lon="1.97796">
        <ele>102.04</ele>
        <time>2020-08-27T08:38:17Z</time>
      </trkpt>
      <trkpt lat="48.60501" lon="1.97798">
        <ele>101.56</ele>
        <time>2020-08-27T08:38:18Z</time>
      </trkpt>
      <trkpt lat="48.605" lon="1.978">
        <ele>102.52</ele>
        <time>2020-08-27T08:38:19Z</time>
      </trkpt>
      <trkpt lat="48.605" lon="1.97802">
        <ele>102.04</ele>
        <time>2020-08-27T08:38:20Z</time>
      </trkpt>
      <trkpt lat="48.60499" lon="1.97804">
        <ele>102.52</ele>
        <time>2020-08-27T08:38:21Z</time>
      </trkpt>
      <trkpt lat="48.60498" lon="1.97806">
        <ele>102.04</ele>
        <time>2020-08-27T08:38:22Z</time>
      </trkpt>
      <trkpt lat="48.60498" lon="1.97808">
        <ele>102.04</ele>
        <time>2020-08-27T08:38:23Z</time>
      </trkpt>
      <trkpt lat="48.60497" lon="1.9781">
        <ele>102.04</ele>
        <time>2020-08-27T08:38:24Z</time>
      </trkpt>
      <trkpt lat="48.60496" lon="1.97812">
        <ele>102.04</ele>
        <time>2020-08-27T08:38:25Z</time>
      </trkpt>
      <trkpt lat="48.60495" lon="1.97815">
        <ele>102.04</ele>
        <time>2020-08-27T08:38:26Z</time>
      </trkpt>
      <trkpt lat="48.60494" lon="1.97817">
        <ele>102.04</ele>
        <time>2020-08-27T08:38:27Z</time>
      </trkpt>
      <trkpt lat="48.60492" lon="1.97819">
        <ele>101.56</ele>
        <time>2020-08-27T08:38:28Z</time>
      </trkpt>
      <trkpt lat="48.60491" lon="1.97821">
        <ele>102.04</ele>
        <time>2020-08-27T08:38:29Z</time>
      </trkpt>
      <trkpt lat="48.6049" lon="1.97822">
        <ele>102.04</ele>
        <time>2020-08-27T08:38:30Z</time>
      </trkpt>
      <trkpt lat="48.60489" lon="1.97824">
        <ele>102.04</ele>
        <time>2020-08-27T08:38:31Z</time>
      </trkpt>
      <trkpt lat="48.60488" lon="1.97826">
        <ele>102.04</ele>
        <time>2020-08-27T08:38:32Z</time>
      </trkpt>
      <trkpt lat="48.60488" lon="1.97827">
        <ele>102.04</ele>
        <time>2020-08-27T08:38:33Z</time>
      </trkpt>
      <trkpt lat="48.60487" lon="1.97828">
        <ele>102.04</ele>
        <time>2020-08-27T08:38:34Z</time>
      </trkpt>
      <trkpt lat="48.60487" lon="1.9783">
        <ele>102.04</ele>
        <time>2020-08-27T08:38:35Z</time>
      </trkpt>
      <trkpt lat="48.60486" lon="1.97832">
        <ele>102.04</ele>
        <time>2020-08-27T08:38:36Z</time>
      </trkpt>
      <trkpt lat="48.60486" lon="1.97834">
        <ele>102.04</ele>
        <time>2020-08-27T08:38:37Z</time>
      </trkpt>
      <trkpt lat="48.60486" lon="1.97835">
        <ele>102.04</ele>
        <time>2020-08-27T08:38:38Z</time>
      </trkpt>
      <trkpt lat="48.60486" lon="1.97838">
        <ele>102.04</ele>
        <time>2020-08-27T08:38:39Z</time>
      </trkpt>
      <trkpt lat="48.60485" lon="1.97839">
        <ele>101.56</ele>
        <time>2020-08-27T08:38:40Z</time>
      </trkpt>
      <trkpt lat="48.60484" lon="1.97841">
        <ele>102.04</ele>
        <time>2020-08-27T08:38:41Z</time>
      </trkpt>
      <trkpt lat="48.60483" lon="1.97843">
        <ele>102.04</ele>
        <time>2020-08-27T08:38:42Z</time>
      </trkpt>
      <trkpt lat="48.60482" lon="1.97844">
        <ele>102.04</ele>
        <time>2020-08-27T08:38:43Z</time>
      </trkpt>
      <trkpt lat="48.60481" lon="1.97846">
        <ele>101.56</ele>
        <time>2020-08-27T08:38:44Z</time>
      </trkpt>
      <trkpt lat="48.6048" lon="1.97848">
        <ele>102.04</ele>
        <time>2020-08-27T08:38:45Z</time>
      </trkpt>
      <trkpt lat="48.60479" lon="1.9785">
        <ele>102.04</ele>
        <time>2020-08-27T08:38:46Z</time>
      </trkpt>
      <trkpt lat="48.60478" lon="1.97852">
        <ele>101.56</ele>
        <time>2020-08-27T08:38:47Z</time>
      </trkpt>
      <trkpt lat="48.60477" lon="1.97854">
        <ele>101.56</ele>
        <time>2020-08-27T08:38:48Z</time>
      </trkpt>
      <trkpt lat="48.60476" lon="1.97855">
        <ele>102.04</ele>
        <time>2020-08-27T08:38:49Z</time>
      </trkpt>
      <trkpt lat="48.60475" lon="1.97857">
        <ele>101.56</ele>
        <time>2020-08-27T08:38:50Z</time>
      </trkpt>
      <trkpt lat="48.60475" lon="1.97858">
        <ele>101.56</ele>
        <time>2020-08-27T08:38:51Z</time>
      </trkpt>
      <trkpt lat="48.60474" lon="1.97859">
        <ele>102.04</ele>
        <time>2020-08-27T08:38:52Z</time>
      </trkpt>
      <trkpt lat="48.60474" lon="1.9786">
        <ele>102.04</ele>
        <time>2020-08-27T08:38:53Z</time>
      </trkpt>
      <trkpt lat="48.60473" lon="1.97862">
        <ele>102.04</ele>
        <time>2020-08-27T08:38:54Z</time>
      </trkpt>
      <trkpt lat="48.60472" lon="1.97863">
        <ele>101.56</ele>
        <time>2020-08-27T08:38:55Z</time>
      </trkpt>
      <trkpt lat="48.60471" lon="1.97865">
        <ele>101.56</ele>
        <time>2020-08-27T08:38:56Z</time>
      </trkpt>
      <trkpt lat="48.6047" lon="1.97866">
        <ele>101.56</ele>
        <time>2020-08-27T08:38:57Z</time>
      </trkpt>
      <trkpt lat="48.6047" lon="1.97867">
        <ele>102.04</ele>
        <time>2020-08-27T08:38:58Z</time>
      </trkpt>
      <trkpt lat="48.60469" lon="1.97869">
        <ele>101.56</ele>
        <time>2020-08-27T08:38:59Z</time>
      </trkpt>
      <trkpt lat="48.60469" lon="1.97871">
        <ele>101.56</ele>
        <time>2020-08-27T08:39:00Z</time>
      </trkpt>
      <trkpt lat="48.60468" lon="1.97873">
        <ele>102.04</ele>
        <time>2020-08-27T08:39:01Z</time>
      </trkpt>
      <trkpt lat="48.60467" lon="1.97875">
        <ele>102.04</ele>
        <time>2020-08-27T08:39:02Z</time>
      </trkpt>
      <trkpt lat="48.60466" lon="1.97877">
        <ele>101.56</ele>
        <time>2020-08-27T08:39:03Z</time>
      </trkpt>
      <trkpt lat="48.60465" lon="1.97879">
        <ele>101.56</ele>
        <time>2020-08-27T08:39:04Z</time>
      </trkpt>
      <trkpt lat="48.60464" lon="1.97881">
        <ele>101.56</ele>
        <time>2020-08-27T08:39:05Z</time>
      </trkpt>
      <trkpt lat="48.60463" lon="1.97883">
        <ele>101.56</ele>
        <time>2020-08-27T08:39:06Z</time>
      </trkpt>
      <trkpt lat="48.60462" lon="1.97885">
        <ele>101.56</ele>
        <time>2020-08-27T08:39:07Z</time>
      </trkpt>
      <trkpt lat="48.60461" lon="1.97887">
        <ele>101.56</ele>
        <time>2020-08-27T08:39:08Z</time>
      </trkpt>
      <trkpt lat="48.6046" lon="1.97889">
        <ele>101.56</ele>
        <time>2020-08-27T08:39:09Z</time>
      </trkpt>
      <trkpt lat="48.60459" lon="1.97891">
        <ele>101.56</ele>
        <time>2020-08-27T08:39:10Z</time>
      </trkpt>
      <trkpt lat="48.60459" lon="1.97893">
        <ele>101.08</ele>
        <time>2020-08-27T08:39:11Z</time>
      </trkpt>
      <trkpt lat="48.60458" lon="1.97894">
        <ele>101.56</ele>
        <time>2020-08-27T08:39:12Z</time>
      </trkpt>
      <trkpt lat="48.60457" lon="1.97896">
        <ele>102.04</ele>
        <time>2020-08-27T08:39:13Z</time>
      </trkpt>
      <trkpt lat="48.60457" lon="1.97897">
        <ele>102.04</ele>
        <time>2020-08-27T08:39:14Z</time>
      </trkpt>
      <trkpt lat="48.60456" lon="1.97899">
        <ele>101.56</ele>
        <time>2020-08-27T08:39:15Z</time>
      </trkpt>
      <trkpt lat="48.60455" lon="1.979">
        <ele>101.56</ele>
        <time>2020-08-27T08:39:16Z</time>
      </trkpt>
      <trkpt lat="48.60454" lon="1.97902">
        <ele>101.56</ele>
        <time>2020-08-27T08:39:17Z</time>
      </trkpt>
      <trkpt lat="48.60452" lon="1.97903">
        <ele>101.56</ele>
        <time>2020-08-27T08:39:18Z</time>
      </trkpt>
      <trkpt lat="48.60451" lon="1.97906">
        <ele>101.56</ele>
        <time>2020-08-27T08:39:19Z</time>
      </trkpt>
      <trkpt lat="48.6045" lon="1.97908">
        <ele>101.56</ele>
        <time>2020-08-27T08:39:20Z</time>
      </trkpt>
      <trkpt lat="48.60449" lon="1.9791">
        <ele>101.56</ele>
        <time>2020-08-27T08:39:21Z</time>
      </trkpt>
      <trkpt lat="48.60448" lon="1.97913">
        <ele>101.56</ele>
        <time>2020-08-27T08:39:22Z</time>
      </trkpt>
      <trkpt lat="48.60447" lon="1.97915">
        <ele>101.08</ele>
        <time>2020-08-27T08:39:23Z</time>
      </trkpt>
      <trkpt lat="48.60446" lon="1.97917">
        <ele>101.08</ele>
        <time>2020-08-27T08:39:24Z</time>
      </trkpt>
      <trkpt lat="48.60444" lon="1.97919">
        <ele>101.56</ele>
        <time>2020-08-27T08:39:25Z</time>
      </trkpt>
      <trkpt lat="48.60443" lon="1.97922">
        <ele>101.56</ele>
        <time>2020-08-27T08:39:26Z</time>
      </trkpt>
      <trkpt lat="48.60442" lon="1.97924">
        <ele>101.08</ele>
        <time>2020-08-27T08:39:27Z</time>
      </trkpt>
      <trkpt lat="48.60441" lon="1.97926">
        <ele>101.56</ele>
        <time>2020-08-27T08:39:28Z</time>
      </trkpt>
      <trkpt lat="48.60439" lon="1.97928">
        <ele>101.56</ele>
        <time>2020-08-27T08:39:29Z</time>
      </trkpt>
      <trkpt lat="48.60438" lon="1.9793">
        <ele>101.56</ele>
        <time>2020-08-27T08:39:30Z</time>
      </trkpt>
      <trkpt lat="48.60437" lon="1.97932">
        <ele>101.56</ele>
        <time>2020-08-27T08:39:31Z</time>
      </trkpt>
      <trkpt lat="48.60436" lon="1.97935">
        <ele>101.56</ele>
        <time>2020-08-27T08:39:32Z</time>
      </trkpt>
      <trkpt lat="48.60435" lon="1.97937">
        <ele>101.56</ele>
        <time>2020-08-27T08:39:33Z</time>
      </trkpt>
      <trkpt lat="48.60434" lon="1.97939">
        <ele>101.56</ele>
        <time>2020-08-27T08:39:34Z</time>
      </trkpt>
      <trkpt lat="48.60433" lon="1.9794">
        <ele>101.56</ele>
        <time>2020-08-27T08:39:35Z</time>
      </trkpt>
      <trkpt lat="48.60432" lon="1.97942">
        <ele>101.08</ele>
        <time>2020-08-27T08:39:36Z</time>
      </trkpt>
      <trkpt lat="48.60431" lon="1.97943">
        <ele>101.08</ele>
        <time>2020-08-27T08:39:37Z</time>
      </trkpt>
      <trkpt lat="48.60431" lon="1.97944">
        <ele>101.08</ele>
        <time>2020-08-27T08:39:38Z</time>
      </trkpt>
      <trkpt lat="48.60431" lon="1.97945">
        <ele>101.08</ele>
        <time>2020-08-27T08:39:39Z</time>
      </trkpt>
      <trkpt lat="48.6043" lon="1.97947">
        <ele>101.56</ele>
        <time>2020-08-27T08:39:40Z</time>
      </trkpt>
      <trkpt lat="48.60429" lon="1.97948">
        <ele>101.56</ele>
        <time>2020-08-27T08:39:41Z</time>
      </trkpt>
      <trkpt lat="48.60429" lon="1.9795">
        <ele>101.56</ele>
        <time>2020-08-27T08:39:42Z</time>
      </trkpt>
      <trkpt lat="48.60428" lon="1.97953">
        <ele>101.08</ele>
        <time>2020-08-27T08:39:43Z</time>
      </trkpt>
      <trkpt lat="48.60427" lon="1.97955">
        <ele>101.08</ele>
        <time>2020-08-27T08:39:44Z</time>
      </trkpt>
      <trkpt lat="48.60427" lon="1.97956">
        <ele>101.08</ele>
        <time>2020-08-27T08:39:45Z</time>
      </trkpt>
      <trkpt lat="48.60426" lon="1.97958">
        <ele>101.56</ele>
        <time>2020-08-27T08:39:46Z</time>
      </trkpt>
      <trkpt lat="48.60425" lon="1.9796">
        <ele>101.08</ele>
        <time>2020-08-27T08:39:47Z</time>
      </trkpt>
      <trkpt lat="48.60424" lon="1.97961">
        <ele>101.08</ele>
        <time>2020-08-27T08:39:48Z</time>
      </trkpt>
      <trkpt lat="48.60424" lon="1.97963">
        <ele>101.08</ele>
        <time>2020-08-27T08:39:49Z</time>
      </trkpt>
      <trkpt lat="48.60423" lon="1.97965">
        <ele>101.08</ele>
        <time>2020-08-27T08:39:50Z</time>
      </trkpt>
      <trkpt lat="48.60422" lon="1.97967">
        <ele>101.08</ele>
        <time>2020-08-27T08:39:51Z</time>
      </trkpt>
      <trkpt lat="48.60421" lon="1.97969">
        <ele>101.08</ele>
        <time>2020-08-27T08:39:52Z</time>
      </trkpt>
      <trkpt lat="48.6042" lon="1.97971">
        <ele>101.56</ele>
        <time>2020-08-27T08:39:53Z</time>
      </trkpt>
      <trkpt lat="48.60418" lon="1.97973">
        <ele>101.56</ele>
        <time>2020-08-27T08:39:54Z</time>
      </trkpt>
      <trkpt lat="48.60417" lon="1.97975">
        <ele>101.08</ele>
        <time>2020-08-27T08:39:55Z</time>
      </trkpt>
      <trkpt lat="48.60416" lon="1.97977">
        <ele>101.08</ele>
        <time>2020-08-27T08:39:56Z</time>
      </trkpt>
      <trkpt lat="48.60414" lon="1.97978">
        <ele>101.08</ele>
        <time>2020-08-27T08:39:57Z</time>
      </trkpt>
      <trkpt lat="48.60413" lon="1.97979">
        <ele>101.08</ele>
        <time>2020-08-27T08:39:58Z</time>
      </trkpt>
      <trkpt lat="48.60413" lon="1.97981">
        <ele>101.08</ele>
        <time>2020-08-27T08:39:59Z</time>
      </trkpt>
      <trkpt lat="48.60411" lon="1.97982">
        <ele>101.08</ele>
        <time>2020-08-27T08:40:00Z</time>
      </trkpt>
      <trkpt lat="48.60411" lon="1.97984">
        <ele>101.08</ele>
        <time>2020-08-27T08:40:01Z</time>
      </trkpt>
      <trkpt lat="48.6041" lon="1.97985">
        <ele>100.6</ele>
        <time>2020-08-27T08:40:02Z</time>
      </trkpt>
      <trkpt lat="48.60409" lon="1.97987">
        <ele>100.6</ele>
        <time>2020-08-27T08:40:03Z</time>
      </trkpt>
      <trkpt lat="48.60409" lon="1.97989">
        <ele>100.6</ele>
        <time>2020-08-27T08:40:04Z</time>
      </trkpt>
      <trkpt lat="48.60408" lon="1.97991">
        <ele>100.11</ele>
        <time>2020-08-27T08:40:05Z</time>
      </trkpt>
      <trkpt lat="48.60408" lon="1.97993">
        <ele>100.6</ele>
        <time>2020-08-27T08:40:06Z</time>
      </trkpt>
      <trkpt lat="48.60407" lon="1.97995">
        <ele>100.6</ele>
        <time>2020-08-27T08:40:07Z</time>
      </trkpt>
      <trkpt lat="48.60407" lon="1.97996">
        <ele>100.6</ele>
        <time>2020-08-27T08:40:08Z</time>
      </trkpt>
      <trkpt lat="48.60407" lon="1.97998">
        <ele>100.6</ele>
        <time>2020-08-27T08:40:09Z</time>
      </trkpt>
      <trkpt lat="48.60407" lon="1.97999">
        <ele>100.6</ele>
        <time>2020-08-27T08:40:10Z</time>
      </trkpt>
      <trkpt lat="48.60406" lon="1.98001">
        <ele>100.6</ele>
        <time>2020-08-27T08:40:11Z</time>
      </trkpt>
      <trkpt lat="48.60405" lon="1.98002">
        <ele>100.6</ele>
        <time>2020-08-27T08:40:12Z</time>
      </trkpt>
      <trkpt lat="48.60405" lon="1.98004">
        <ele>100.11</ele>
        <time>2020-08-27T08:40:13Z</time>
      </trkpt>
      <trkpt lat="48.60404" lon="1.98006">
        <ele>100.6</ele>
        <time>2020-08-27T08:40:14Z</time>
      </trkpt>
      <trkpt lat="48.60403" lon="1.98008">
        <ele>100.11</ele>
        <time>2020-08-27T08:40:15Z</time>
      </trkpt>
      <trkpt lat="48.60402" lon="1.98009">
        <ele>100.11</ele>
        <time>2020-08-27T08:40:16Z</time>
      </trkpt>
      <trkpt lat="48.60401" lon="1.98011">
        <ele>100.6</ele>
        <time>2020-08-27T08:40:17Z</time>
      </trkpt>
      <trkpt lat="48.604" lon="1.98013">
        <ele>100.11</ele>
        <time>2020-08-27T08:40:18Z</time>
      </trkpt>
      <trkpt lat="48.60399" lon="1.98015">
        <ele>100.11</ele>
        <time>2020-08-27T08:40:19Z</time>
      </trkpt>
      <trkpt lat="48.60398" lon="1.98017">
        <ele>100.11</ele>
        <time>2020-08-27T08:40:20Z</time>
      </trkpt>
      <trkpt lat="48.60398" lon="1.9802">
        <ele>100.11</ele>
        <time>2020-08-27T08:40:21Z</time>
      </trkpt>
      <trkpt lat="48.60397" lon="1.98022">
        <ele>100.6</ele>
        <time>2020-08-27T08:40:22Z</time>
      </trkpt>
      <trkpt lat="48.60396" lon="1.98024">
        <ele>100.11</ele>
        <time>2020-08-27T08:40:23Z</time>
      </trkpt>
      <trkpt lat="48.60395" lon="1.98026">
        <ele>100.11</ele>
        <time>2020-08-27T08:40:24Z</time>
      </trkpt>
      <trkpt lat="48.60394" lon="1.98029">
        <ele>99.63</ele>
        <time>2020-08-27T08:40:25Z</time>
      </trkpt>
      <trkpt lat="48.60393" lon="1.98031">
        <ele>99.63</ele>
        <time>2020-08-27T08:40:26Z</time>
      </trkpt>
      <trkpt lat="48.60392" lon="1.98034">
        <ele>99.63</ele>
        <time>2020-08-27T08:40:27Z</time>
      </trkpt>
      <trkpt lat="48.6039" lon="1.98037">
        <ele>100.11</ele>
        <time>2020-08-27T08:40:28Z</time>
      </trkpt>
      <trkpt lat="48.60389" lon="1.9804">
        <ele>99.63</ele>
        <time>2020-08-27T08:40:29Z</time>
      </trkpt>
      <trkpt lat="48.60388" lon="1.98042">
        <ele>99.63</ele>
        <time>2020-08-27T08:40:30Z</time>
      </trkpt>
      <trkpt lat="48.60388" lon="1.98045">
        <ele>99.15</ele>
        <time>2020-08-27T08:40:31Z</time>
      </trkpt>
      <trkpt lat="48.60387" lon="1.98047">
        <ele>99.63</ele>
        <time>2020-08-27T08:40:32Z</time>
      </trkpt>
      <trkpt lat="48.60385" lon="1.98049">
        <ele>99.15</ele>
        <time>2020-08-27T08:40:33Z</time>
      </trkpt>
      <trkpt lat="48.60384" lon="1.98051">
        <ele>99.63</ele>
        <time>2020-08-27T08:40:34Z</time>
      </trkpt>
      <trkpt lat="48.60383" lon="1.98052">
        <ele>99.63</ele>
        <time>2020-08-27T08:40:35Z</time>
      </trkpt>
      <trkpt lat="48.60382" lon="1.98053">
        <ele>99.63</ele>
        <time>2020-08-27T08:40:36Z</time>
      </trkpt>
      <trkpt lat="48.60381" lon="1.98054">
        <ele>99.63</ele>
        <time>2020-08-27T08:40:37Z</time>
      </trkpt>
      <trkpt lat="48.60381" lon="1.98055">
        <ele>99.15</ele>
        <time>2020-08-27T08:40:38Z</time>
      </trkpt>
      <trkpt lat="48.60381" lon="1.98056">
        <ele>99.15</ele>
        <time>2020-08-27T08:40:39Z</time>
      </trkpt>
      <trkpt lat="48.60381" lon="1.98057">
        <ele>99.15</ele>
        <time>2020-08-27T08:40:40Z</time>
      </trkpt>
      <trkpt lat="48.6038" lon="1.98058">
        <ele>99.15</ele>
        <time>2020-08-27T08:40:41Z</time>
      </trkpt>
      <trkpt lat="48.6038" lon="1.98059">
        <ele>99.15</ele>
        <time>2020-08-27T08:40:42Z</time>
      </trkpt>
      <trkpt lat="48.6038" lon="1.9806">
        <ele>98.67</ele>
        <time>2020-08-27T08:40:43Z</time>
      </trkpt>
      <trkpt lat="48.60379" lon="1.98062">
        <ele>98.67</ele>
        <time>2020-08-27T08:40:44Z</time>
      </trkpt>
      <trkpt lat="48.60379" lon="1.98063">
        <ele>98.67</ele>
        <time>2020-08-27T08:40:45Z</time>
      </trkpt>
      <trkpt lat="48.60378" lon="1.98063">
        <ele>98.67</ele>
        <time>2020-08-27T08:40:46Z</time>
      </trkpt>
      <trkpt lat="48.60377" lon="1.98066">
        <ele>98.67</ele>
        <time>2020-08-27T08:40:47Z</time>
      </trkpt>
      <trkpt lat="48.60376" lon="1.98068">
        <ele>98.67</ele>
        <time>2020-08-27T08:40:48Z</time>
      </trkpt>
      <trkpt lat="48.60375" lon="1.98071">
        <ele>98.67</ele>
        <time>2020-08-27T08:40:49Z</time>
      </trkpt>
      <trkpt lat="48.60374" lon="1.98073">
        <ele>98.67</ele>
        <time>2020-08-27T08:40:50Z</time>
      </trkpt>
      <trkpt lat="48.60372" lon="1.98074">
        <ele>98.67</ele>
        <time>2020-08-27T08:40:51Z</time>
      </trkpt>
      <trkpt lat="48.60371" lon="1.98076">
        <ele>98.67</ele>
        <time>2020-08-27T08:40:52Z</time>
      </trkpt>
      <trkpt lat="48.6037" lon="1.98078">
        <ele>98.19</ele>
        <time>2020-08-27T08:40:53Z</time>
      </trkpt>
      <trkpt lat="48.6037" lon="1.9808">
        <ele>98.67</ele>
        <time>2020-08-27T08:40:54Z</time>
      </trkpt>
      <trkpt lat="48.60369" lon="1.98083">
        <ele>98.19</ele>
        <time>2020-08-27T08:40:55Z</time>
      </trkpt>
      <trkpt lat="48.60368" lon="1.98085">
        <ele>98.19</ele>
        <time>2020-08-27T08:40:56Z</time>
      </trkpt>
      <trkpt lat="48.60368" lon="1.98086">
        <ele>98.19</ele>
        <time>2020-08-27T08:40:57Z</time>
      </trkpt>
      <trkpt lat="48.60367" lon="1.98088">
        <ele>98.19</ele>
        <time>2020-08-27T08:40:58Z</time>
      </trkpt>
      <trkpt lat="48.60366" lon="1.98091">
        <ele>97.71</ele>
        <time>2020-08-27T08:40:59Z</time>
      </trkpt>
      <trkpt lat="48.60365" lon="1.98093">
        <ele>98.19</ele>
        <time>2020-08-27T08:41:00Z</time>
      </trkpt>
      <trkpt lat="48.60364" lon="1.98095">
        <ele>98.19</ele>
        <time>2020-08-27T08:41:01Z</time>
      </trkpt>
      <trkpt lat="48.60363" lon="1.98096">
        <ele>97.71</ele>
        <time>2020-08-27T08:41:02Z</time>
      </trkpt>
      <trkpt lat="48.60362" lon="1.98098">
        <ele>97.71</ele>
        <time>2020-08-27T08:41:03Z</time>
      </trkpt>
      <trkpt lat="48.60362" lon="1.98101">
        <ele>97.71</ele>
        <time>2020-08-27T08:41:04Z</time>
      </trkpt>
      <trkpt lat="48.60361" lon="1.98103">
        <ele>97.71</ele>
        <time>2020-08-27T08:41:05Z</time>
      </trkpt>
      <trkpt lat="48.6036" lon="1.98105">
        <ele>97.71</ele>
        <time>2020-08-27T08:41:06Z</time>
      </trkpt>
      <trkpt lat="48.60358" lon="1.98108">
        <ele>97.23</ele>
        <time>2020-08-27T08:41:07Z</time>
      </trkpt>
      <trkpt lat="48.60357" lon="1.9811">
        <ele>97.23</ele>
        <time>2020-08-27T08:41:08Z</time>
      </trkpt>
      <trkpt lat="48.60356" lon="1.98112">
        <ele>96.75</ele>
        <time>2020-08-27T08:41:09Z</time>
      </trkpt>
      <trkpt lat="48.60355" lon="1.98114">
        <ele>96.75</ele>
        <time>2020-08-27T08:41:10Z</time>
      </trkpt>
      <trkpt lat="48.60354" lon="1.98116">
        <ele>97.23</ele>
        <time>2020-08-27T08:41:11Z</time>
      </trkpt>
      <trkpt lat="48.60353" lon="1.98118">
        <ele>97.23</ele>
        <time>2020-08-27T08:41:12Z</time>
      </trkpt>
      <trkpt lat="48.60353" lon="1.98119">
        <ele>96.75</ele>
        <time>2020-08-27T08:41:13Z</time>
      </trkpt>
      <trkpt lat="48.60351" lon="1.98121">
        <ele>96.75</ele>
        <time>2020-08-27T08:41:14Z</time>
      </trkpt>
      <trkpt lat="48.6035" lon="1.98123">
        <ele>96.75</ele>
        <time>2020-08-27T08:41:15Z</time>
      </trkpt>
      <trkpt lat="48.60349" lon="1.98125">
        <ele>96.27</ele>
        <time>2020-08-27T08:41:16Z</time>
      </trkpt>
      <trkpt lat="48.60348" lon="1.98127">
        <ele>96.27</ele>
        <time>2020-08-27T08:41:17Z</time>
      </trkpt>
      <trkpt lat="48.60347" lon="1.98129">
        <ele>96.75</ele>
        <time>2020-08-27T08:41:18Z</time>
      </trkpt>
      <trkpt lat="48.60346" lon="1.98131">
        <ele>96.27</ele>
        <time>2020-08-27T08:41:19Z</time>
      </trkpt>
      <trkpt lat="48.60345" lon="1.98134">
        <ele>96.27</ele>
        <time>2020-08-27T08:41:20Z</time>
      </trkpt>
      <trkpt lat="48.60344" lon="1.98135">
        <ele>96.27</ele>
        <time>2020-08-27T08:41:21Z</time>
      </trkpt>
      <trkpt lat="48.60343" lon="1.98137">
        <ele>96.75</ele>
        <time>2020-08-27T08:41:22Z</time>
      </trkpt>
      <trkpt lat="48.60342" lon="1.98138">
        <ele>96.75</ele>
        <time>2020-08-27T08:41:23Z</time>
      </trkpt>
      <trkpt lat="48.60342" lon="1.9814">
        <ele>96.75</ele>
        <time>2020-08-27T08:41:24Z</time>
      </trkpt>
      <trkpt lat="48.60341" lon="1.98141">
        <ele>96.27</ele>
        <time>2020-08-27T08:41:25Z</time>
      </trkpt>
      <trkpt lat="48.6034" lon="1.98143">
        <ele>96.75</ele>
        <time>2020-08-27T08:41:26Z</time>
      </trkpt>
      <trkpt lat="48.60339" lon="1.98144">
        <ele>96.75</ele>
        <time>2020-08-27T08:41:27Z</time>
      </trkpt>
      <trkpt lat="48.60339" lon="1.98144">
        <ele>96.75</ele>
        <time>2020-08-27T08:41:28Z</time>
      </trkpt>
      <trkpt lat="48.60339" lon="1.98144">
        <ele>97.23</ele>
        <time>2020-08-27T08:41:29Z</time>
      </trkpt>
      <trkpt lat="48.60338" lon="1.98144">
        <ele>96.75</ele>
        <time>2020-08-27T08:41:30Z</time>
      </trkpt>
      <trkpt lat="48.60338" lon="1.98144">
        <ele>96.75</ele>
        <time>2020-08-27T08:41:31Z</time>
      </trkpt>
      <trkpt lat="48.60337" lon="1.98144">
        <ele>96.75</ele>
        <time>2020-08-27T08:41:32Z</time>
      </trkpt>
      <trkpt lat="48.60337" lon="1.98144">
        <ele>97.23</ele>
        <time>2020-08-27T08:41:33Z</time>
      </trkpt>
      <trkpt lat="48.60336" lon="1.98143">
        <ele>97.23</ele>
        <time>2020-08-27T08:41:34Z</time>
      </trkpt>
      <trkpt lat="48.60336" lon="1.98143">
        <ele>97.23</ele>
        <time>2020-08-27T08:41:35Z</time>
      </trkpt>
      <trkpt lat="48.60335" lon="1.98142">
        <ele>97.23</ele>
        <time>2020-08-27T08:41:36Z</time>
      </trkpt>
      <trkpt lat="48.60335" lon="1.98142">
        <ele>97.23</ele>
        <time>2020-08-27T08:41:37Z</time>
      </trkpt>
      <trkpt lat="48.60334" lon="1.98142">
        <ele>97.23</ele>
        <time>2020-08-27T08:41:38Z</time>
      </trkpt>
      <trkpt lat="48.60333" lon="1.98141">
        <ele>97.23</ele>
        <time>2020-08-27T08:41:39Z</time>
      </trkpt>
      <trkpt lat="48.60333" lon="1.9814">
        <ele>97.23</ele>
        <time>2020-08-27T08:41:40Z</time>
      </trkpt>
      <trkpt lat="48.60332" lon="1.98139">
        <ele>97.71</ele>
        <time>2020-08-27T08:41:41Z</time>
      </trkpt>
      <trkpt lat="48.60331" lon="1.98138">
        <ele>97.23</ele>
        <time>2020-08-27T08:41:42Z</time>
      </trkpt>
      <trkpt lat="48.60331" lon="1.98137">
        <ele>97.23</ele>
        <time>2020-08-27T08:41:43Z</time>
      </trkpt>
      <trkpt lat="48.60331" lon="1.98137">
        <ele>97.71</ele>
        <time>2020-08-27T08:41:44Z</time>
      </trkpt>
      <trkpt lat="48.6033" lon="1.98136">
        <ele>97.71</ele>
        <time>2020-08-27T08:41:45Z</time>
      </trkpt>
      <trkpt lat="48.60329" lon="1.98135">
        <ele>97.23</ele>
        <time>2020-08-27T08:41:46Z</time>
      </trkpt>
      <trkpt lat="48.60329" lon="1.98134">
        <ele>97.23</ele>
        <time>2020-08-27T08:41:47Z</time>
      </trkpt>
      <trkpt lat="48.60329" lon="1.98133">
        <ele>97.71</ele>
        <time>2020-08-27T08:41:48Z</time>
      </trkpt>
      <trkpt lat="48.60328" lon="1.98131">
        <ele>97.71</ele>
        <time>2020-08-27T08:41:49Z</time>
      </trkpt>
      <trkpt lat="48.60327" lon="1.98129">
        <ele>97.71</ele>
        <time>2020-08-27T08:41:50Z</time>
      </trkpt>
      <trkpt lat="48.60327" lon="1.98127">
        <ele>97.23</ele>
        <time>2020-08-27T08:41:51Z</time>
      </trkpt>
      <trkpt lat="48.60325" lon="1.98125">
        <ele>98.19</ele>
        <time>2020-08-27T08:41:52Z</time>
      </trkpt>
      <trkpt lat="48.60324" lon="1.98123">
        <ele>97.71</ele>
        <time>2020-08-27T08:41:53Z</time>
      </trkpt>
      <trkpt lat="48.60323" lon="1.98122">
        <ele>97.71</ele>
        <time>2020-08-27T08:41:54Z</time>
      </trkpt>
      <trkpt lat="48.60322" lon="1.98122">
        <ele>97.71</ele>
        <time>2020-08-27T08:41:55Z</time>
      </trkpt>
      <trkpt lat="48.60321" lon="1.98121">
        <ele>97.71</ele>
        <time>2020-08-27T08:41:56Z</time>
      </trkpt>
      <trkpt lat="48.60321" lon="1.9812">
        <ele>97.71</ele>
        <time>2020-08-27T08:41:57Z</time>
      </trkpt>
      <trkpt lat="48.6032" lon="1.98119">
        <ele>97.71</ele>
        <time>2020-08-27T08:41:58Z</time>
      </trkpt>
      <trkpt lat="48.6032" lon="1.98118">
        <ele>97.71</ele>
        <time>2020-08-27T08:41:59Z</time>
      </trkpt>
      <trkpt lat="48.60319" lon="1.98117">
        <ele>98.19</ele>
        <time>2020-08-27T08:42:00Z</time>
      </trkpt>
      <trkpt lat="48.60317" lon="1.98116">
        <ele>98.19</ele>
        <time>2020-08-27T08:42:01Z</time>
      </trkpt>
      <trkpt lat="48.60316" lon="1.98115">
        <ele>98.19</ele>
        <time>2020-08-27T08:42:02Z</time>
      </trkpt>
      <trkpt lat="48.60316" lon="1.98115">
        <ele>97.71</ele>
        <time>2020-08-27T08:42:03Z</time>
      </trkpt>
      <trkpt lat="48.60316" lon="1.98115">
        <ele>97.71</ele>
        <time>2020-08-27T08:42:04Z</time>
      </trkpt>
      <trkpt lat="48.60316" lon="1.98115">
        <ele>97.71</ele>
        <time>2020-08-27T08:42:05Z</time>
      </trkpt>
      <trkpt lat="48.60316" lon="1.98115">
        <ele>97.71</ele>
        <time>2020-08-27T08:42:06Z</time>
      </trkpt>
      <trkpt lat="48.60315" lon="1.98115">
        <ele>97.71</ele>
        <time>2020-08-27T08:42:07Z</time>
      </trkpt>
      <trkpt lat="48.60314" lon="1.98115">
        <ele>98.19</ele>
        <time>2020-08-27T08:42:08Z</time>
      </trkpt>
      <trkpt lat="48.60314" lon="1.98114">
        <ele>97.71</ele>
        <time>2020-08-27T08:42:09Z</time>
      </trkpt>
      <trkpt lat="48.60313" lon="1.98114">
        <ele>98.19</ele>
        <time>2020-08-27T08:42:10Z</time>
      </trkpt>
      <trkpt lat="48.60312" lon="1.98113">
        <ele>98.19</ele>
        <time>2020-08-27T08:42:11Z</time>
      </trkpt>
      <trkpt lat="48.60312" lon="1.98112">
        <ele>98.19</ele>
        <time>2020-08-27T08:42:12Z</time>
      </trkpt>
      <trkpt lat="48.60311" lon="1.98112">
        <ele>97.71</ele>
        <time>2020-08-27T08:42:13Z</time>
      </trkpt>
      <trkpt lat="48.6031" lon="1.98111">
        <ele>97.71</ele>
        <time>2020-08-27T08:42:14Z</time>
      </trkpt>
      <trkpt lat="48.60309" lon="1.98111">
        <ele>97.71</ele>
        <time>2020-08-27T08:42:15Z</time>
      </trkpt>
      <trkpt lat="48.60308" lon="1.9811">
        <ele>98.19</ele>
        <time>2020-08-27T08:42:16Z</time>
      </trkpt>
      <trkpt lat="48.60307" lon="1.9811">
        <ele>98.19</ele>
        <time>2020-08-27T08:42:17Z</time>
      </trkpt>
      <trkpt lat="48.60306" lon="1.98109">
        <ele>98.19</ele>
        <time>2020-08-27T08:42:18Z</time>
      </trkpt>
      <trkpt lat="48.60306" lon="1.98108">
        <ele>98.19</ele>
        <time>2020-08-27T08:42:19Z</time>
      </trkpt>
      <trkpt lat="48.60306" lon="1.98108">
        <ele>98.19</ele>
        <time>2020-08-27T08:42:20Z</time>
      </trkpt>
      <trkpt lat="48.60305" lon="1.98107">
        <ele>98.19</ele>
        <time>2020-08-27T08:42:21Z</time>
      </trkpt>
      <trkpt lat="48.60304" lon="1.98106">
        <ele>98.19</ele>
        <time>2020-08-27T08:42:22Z</time>
      </trkpt>
      <trkpt lat="48.60304" lon="1.98106">
        <ele>98.19</ele>
        <time>2020-08-27T08:42:23Z</time>
      </trkpt>
      <trkpt lat="48.60303" lon="1.98105">
        <ele>98.19</ele>
        <time>2020-08-27T08:42:24Z</time>
      </trkpt>
      <trkpt lat="48.60301" lon="1.98104">
        <ele>97.71</ele>
        <time>2020-08-27T08:42:25Z</time>
      </trkpt>
      <trkpt lat="48.603" lon="1.98102">
        <ele>97.71</ele>
        <time>2020-08-27T08:42:26Z</time>
      </trkpt>
      <trkpt lat="48.60299" lon="1.981">
        <ele>98.19</ele>
        <time>2020-08-27T08:42:27Z</time>
      </trkpt>
      <trkpt lat="48.60297" lon="1.98098">
        <ele>98.19</ele>
        <time>2020-08-27T08:42:28Z</time>
      </trkpt>
      <trkpt lat="48.60296" lon="1.98097">
        <ele>98.19</ele>
        <time>2020-08-27T08:42:29Z</time>
      </trkpt>
      <trkpt lat="48.60295" lon="1.98096">
        <ele>98.19</ele>
        <time>2020-08-27T08:42:30Z</time>
      </trkpt>
      <trkpt lat="48.60294" lon="1.98095">
        <ele>98.19</ele>
        <time>2020-08-27T08:42:31Z</time>
      </trkpt>
      <trkpt lat="48.60292" lon="1.98094">
        <ele>98.19</ele>
        <time>2020-08-27T08:42:32Z</time>
      </trkpt>
      <trkpt lat="48.60291" lon="1.98092">
        <ele>98.19</ele>
        <time>2020-08-27T08:42:33Z</time>
      </trkpt>
      <trkpt lat="48.6029" lon="1.98091">
        <ele>98.19</ele>
        <time>2020-08-27T08:42:34Z</time>
      </trkpt>
      <trkpt lat="48.60289" lon="1.9809">
        <ele>98.19</ele>
        <time>2020-08-27T08:42:35Z</time>
      </trkpt>
      <trkpt lat="48.60287" lon="1.98088">
        <ele>98.19</ele>
        <time>2020-08-27T08:42:36Z</time>
      </trkpt>
      <trkpt lat="48.60287" lon="1.98088">
        <ele>98.67</ele>
        <time>2020-08-27T08:42:37Z</time>
      </trkpt>
      <trkpt lat="48.60286" lon="1.98086">
        <ele>98.67</ele>
        <time>2020-08-27T08:42:38Z</time>
      </trkpt>
      <trkpt lat="48.60285" lon="1.98085">
        <ele>98.67</ele>
        <time>2020-08-27T08:42:39Z</time>
      </trkpt>
      <trkpt lat="48.60284" lon="1.98084">
        <ele>98.19</ele>
        <time>2020-08-27T08:42:40Z</time>
      </trkpt>
      <trkpt lat="48.60283" lon="1.98082">
        <ele>98.67</ele>
        <time>2020-08-27T08:42:41Z</time>
      </trkpt>
      <trkpt lat="48.60281" lon="1.9808">
        <ele>98.67</ele>
        <time>2020-08-27T08:42:42Z</time>
      </trkpt>
      <trkpt lat="48.6028" lon="1.98079">
        <ele>98.67</ele>
        <time>2020-08-27T08:42:43Z</time>
      </trkpt>
      <trkpt lat="48.60279" lon="1.98077">
        <ele>98.67</ele>
        <time>2020-08-27T08:42:44Z</time>
      </trkpt>
      <trkpt lat="48.60278" lon="1.98075">
        <ele>98.67</ele>
        <time>2020-08-27T08:42:45Z</time>
      </trkpt>
      <trkpt lat="48.60276" lon="1.98074">
        <ele>99.15</ele>
        <time>2020-08-27T08:42:46Z</time>
      </trkpt>
      <trkpt lat="48.60274" lon="1.98072">
        <ele>99.15</ele>
        <time>2020-08-27T08:42:47Z</time>
      </trkpt>
      <trkpt lat="48.60273" lon="1.98071">
        <ele>98.67</ele>
        <time>2020-08-27T08:42:48Z</time>
      </trkpt>
      <trkpt lat="48.60271" lon="1.98069">
        <ele>99.15</ele>
        <time>2020-08-27T08:42:49Z</time>
      </trkpt>
      <trkpt lat="48.6027" lon="1.98068">
        <ele>99.15</ele>
        <time>2020-08-27T08:42:50Z</time>
      </trkpt>
      <trkpt lat="48.60269" lon="1.98067">
        <ele>99.15</ele>
        <time>2020-08-27T08:42:51Z</time>
      </trkpt>
      <trkpt lat="48.60268" lon="1.98066">
        <ele>98.67</ele>
        <time>2020-08-27T08:42:52Z</time>
      </trkpt>
      <trkpt lat="48.60267" lon="1.98064">
        <ele>99.15</ele>
        <time>2020-08-27T08:42:53Z</time>
      </trkpt>
      <trkpt lat="48.60266" lon="1.98063">
        <ele>99.15</ele>
        <time>2020-08-27T08:42:54Z</time>
      </trkpt>
      <trkpt lat="48.60264" lon="1.98062">
        <ele>99.15</ele>
        <time>2020-08-27T08:42:55Z</time>
      </trkpt>
      <trkpt lat="48.60263" lon="1.98061">
        <ele>99.63</ele>
        <time>2020-08-27T08:42:56Z</time>
      </trkpt>
      <trkpt lat="48.60262" lon="1.9806">
        <ele>99.15</ele>
        <time>2020-08-27T08:42:57Z</time>
      </trkpt>
      <trkpt lat="48.60261" lon="1.98059">
        <ele>99.15</ele>
        <time>2020-08-27T08:42:58Z</time>
      </trkpt>
      <trkpt lat="48.60259" lon="1.98058">
        <ele>99.15</ele>
        <time>2020-08-27T08:42:59Z</time>
      </trkpt>
      <trkpt lat="48.60258" lon="1.98057">
        <ele>99.15</ele>
        <time>2020-08-27T08:43:00Z</time>
      </trkpt>
      <trkpt lat="48.60258" lon="1.98057">
        <ele>99.63</ele>
        <time>2020-08-27T08:43:01Z</time>
      </trkpt>
      <trkpt lat="48.60256" lon="1.98055">
        <ele>99.63</ele>
        <time>2020-08-27T08:43:02Z</time>
      </trkpt>
      <trkpt lat="48.60255" lon="1.98053">
        <ele>99.15</ele>
        <time>2020-08-27T08:43:03Z</time>
      </trkpt>
      <trkpt lat="48.60254" lon="1.98052">
        <ele>99.63</ele>
        <time>2020-08-27T08:43:04Z</time>
      </trkpt>
      <trkpt lat="48.60253" lon="1.98051">
        <ele>100.11</ele>
        <time>2020-08-27T08:43:05Z</time>
      </trkpt>
      <trkpt lat="48.60252" lon="1.9805">
        <ele>99.63</ele>
        <time>2020-08-27T08:43:06Z</time>
      </trkpt>
      <trkpt lat="48.60251" lon="1.98049">
        <ele>99.63</ele>
        <time>2020-08-27T08:43:07Z</time>
      </trkpt>
      <trkpt lat="48.6025" lon="1.98047">
        <ele>99.63</ele>
        <time>2020-08-27T08:43:08Z</time>
      </trkpt>
      <trkpt lat="48.6025" lon="1.98046">
        <ele>99.63</ele>
        <time>2020-08-27T08:43:09Z</time>
      </trkpt>
      <trkpt lat="48.60249" lon="1.98045">
        <ele>100.11</ele>
        <time>2020-08-27T08:43:10Z</time>
      </trkpt>
      <trkpt lat="48.60248" lon="1.98044">
        <ele>99.63</ele>
        <time>2020-08-27T08:43:11Z</time>
      </trkpt>
      <trkpt lat="48.60247" lon="1.98043">
        <ele>100.11</ele>
        <time>2020-08-27T08:43:12Z</time>
      </trkpt>
      <trkpt lat="48.60246" lon="1.98041">
        <ele>100.11</ele>
        <time>2020-08-27T08:43:13Z</time>
      </trkpt>
      <trkpt lat="48.60244" lon="1.9804">
        <ele>100.11</ele>
        <time>2020-08-27T08:43:14Z</time>
      </trkpt>
      <trkpt lat="48.60243" lon="1.98038">
        <ele>100.11</ele>
        <time>2020-08-27T08:43:15Z</time>
      </trkpt>
      <trkpt lat="48.60241" lon="1.98036">
        <ele>100.11</ele>
        <time>2020-08-27T08:43:16Z</time>
      </trkpt>
      <trkpt lat="48.6024" lon="1.98035">
        <ele>100.11</ele>
        <time>2020-08-27T08:43:17Z</time>
      </trkpt>
      <trkpt lat="48.60239" lon="1.98034">
        <ele>100.11</ele>
        <time>2020-08-27T08:43:18Z</time>
      </trkpt>
      <trkpt lat="48.60238" lon="1.98032">
        <ele>100.11</ele>
        <time>2020-08-27T08:43:19Z</time>
      </trkpt>
      <trkpt lat="48.60237" lon="1.98031">
        <ele>100.6</ele>
        <time>2020-08-27T08:43:20Z</time>
      </trkpt>
      <trkpt lat="48.60236" lon="1.98029">
        <ele>101.08</ele>
        <time>2020-08-27T08:43:21Z</time>
      </trkpt>
      <trkpt lat="48.60235" lon="1.98028">
        <ele>100.6</ele>
        <time>2020-08-27T08:43:22Z</time>
      </trkpt>
      <trkpt lat="48.60233" lon="1.98027">
        <ele>100.6</ele>
        <time>2020-08-27T08:43:23Z</time>
      </trkpt>
      <trkpt lat="48.60232" lon="1.98025">
        <ele>100.6</ele>
        <time>2020-08-27T08:43:24Z</time>
      </trkpt>
      <trkpt lat="48.6023" lon="1.98024">
        <ele>100.6</ele>
        <time>2020-08-27T08:43:25Z</time>
      </trkpt>
      <trkpt lat="48.60228" lon="1.98023">
        <ele>100.6</ele>
        <time>2020-08-27T08:43:26Z</time>
      </trkpt>
      <trkpt lat="48.60227" lon="1.98022">
        <ele>100.6</ele>
        <time>2020-08-27T08:43:27Z</time>
      </trkpt>
      <trkpt lat="48.60226" lon="1.98021">
        <ele>100.6</ele>
        <time>2020-08-27T08:43:28Z</time>
      </trkpt>
      <trkpt lat="48.60225" lon="1.9802">
        <ele>101.08</ele>
        <time>2020-08-27T08:43:29Z</time>
      </trkpt>
      <trkpt lat="48.60224" lon="1.98019">
        <ele>101.08</ele>
        <time>2020-08-27T08:43:30Z</time>
      </trkpt>
      <trkpt lat="48.60224" lon="1.98018">
        <ele>101.08</ele>
        <time>2020-08-27T08:43:31Z</time>
      </trkpt>
      <trkpt lat="48.60223" lon="1.98017">
        <ele>100.6</ele>
        <time>2020-08-27T08:43:32Z</time>
      </trkpt>
      <trkpt lat="48.60222" lon="1.98017">
        <ele>101.08</ele>
        <time>2020-08-27T08:43:33Z</time>
      </trkpt>
      <trkpt lat="48.60221" lon="1.98016">
        <ele>101.08</ele>
        <time>2020-08-27T08:43:34Z</time>
      </trkpt>
      <trkpt lat="48.6022" lon="1.98015">
        <ele>101.08</ele>
        <time>2020-08-27T08:43:35Z</time>
      </trkpt>
      <trkpt lat="48.6022" lon="1.98014">
        <ele>101.08</ele>
        <time>2020-08-27T08:43:36Z</time>
      </trkpt>
      <trkpt lat="48.60219" lon="1.98013">
        <ele>101.08</ele>
        <time>2020-08-27T08:43:37Z</time>
      </trkpt>
      <trkpt lat="48.60218" lon="1.98012">
        <ele>101.08</ele>
        <time>2020-08-27T08:43:38Z</time>
      </trkpt>
      <trkpt lat="48.60217" lon="1.98011">
        <ele>100.6</ele>
        <time>2020-08-27T08:43:39Z</time>
      </trkpt>
      <trkpt lat="48.60216" lon="1.98009">
        <ele>101.56</ele>
        <time>2020-08-27T08:43:40Z</time>
      </trkpt>
      <trkpt lat="48.60215" lon="1.98008">
        <ele>101.56</ele>
        <time>2020-08-27T08:43:41Z</time>
      </trkpt>
      <trkpt lat="48.60213" lon="1.98007">
        <ele>101.08</ele>
        <time>2020-08-27T08:43:42Z</time>
      </trkpt>
      <trkpt lat="48.60212" lon="1.98006">
        <ele>101.56</ele>
        <time>2020-08-27T08:43:43Z</time>
      </trkpt>
      <trkpt lat="48.60211" lon="1.98004">
        <ele>101.56</ele>
        <time>2020-08-27T08:43:44Z</time>
      </trkpt>
      <trkpt lat="48.60209" lon="1.98003">
        <ele>101.56</ele>
        <time>2020-08-27T08:43:45Z</time>
      </trkpt>
      <trkpt lat="48.60207" lon="1.98001">
        <ele>101.56</ele>
        <time>2020-08-27T08:43:46Z</time>
      </trkpt>
      <trkpt lat="48.60206" lon="1.97999">
        <ele>101.56</ele>
        <time>2020-08-27T08:43:47Z</time>
      </trkpt>
      <trkpt lat="48.60204" lon="1.97998">
        <ele>101.56</ele>
        <time>2020-08-27T08:43:48Z</time>
      </trkpt>
      <trkpt lat="48.60203" lon="1.97996">
        <ele>102.04</ele>
        <time>2020-08-27T08:43:49Z</time>
      </trkpt>
      <trkpt lat="48.60202" lon="1.97995">
        <ele>101.56</ele>
        <time>2020-08-27T08:43:50Z</time>
      </trkpt>
      <trkpt lat="48.60201" lon="1.97994">
        <ele>101.56</ele>
        <time>2020-08-27T08:43:51Z</time>
      </trkpt>
      <trkpt lat="48.60199" lon="1.97992">
        <ele>101.56</ele>
        <time>2020-08-27T08:43:52Z</time>
      </trkpt>
      <trkpt lat="48.60198" lon="1.97991">
        <ele>101.56</ele>
        <time>2020-08-27T08:43:53Z</time>
      </trkpt>
      <trkpt lat="48.60197" lon="1.9799">
        <ele>101.56</ele>
        <time>2020-08-27T08:43:54Z</time>
      </trkpt>
      <trkpt lat="48.60195" lon="1.97988">
        <ele>101.56</ele>
        <time>2020-08-27T08:43:55Z</time>
      </trkpt>
      <trkpt lat="48.60194" lon="1.97987">
        <ele>102.04</ele>
        <time>2020-08-27T08:43:56Z</time>
      </trkpt>
      <trkpt lat="48.60192" lon="1.97985">
        <ele>102.04</ele>
        <time>2020-08-27T08:43:57Z</time>
      </trkpt>
      <trkpt lat="48.60192" lon="1.97985">
        <ele>102.04</ele>
        <time>2020-08-27T08:43:58Z</time>
      </trkpt>
      <trkpt lat="48.6019" lon="1.97984">
        <ele>102.04</ele>
        <time>2020-08-27T08:43:59Z</time>
      </trkpt>
      <trkpt lat="48.60189" lon="1.97982">
        <ele>102.04</ele>
        <time>2020-08-27T08:44:00Z</time>
      </trkpt>
      <trkpt lat="48.60189" lon="1.97981">
        <ele>102.04</ele>
        <time>2020-08-27T08:44:01Z</time>
      </trkpt>
      <trkpt lat="48.60187" lon="1.97979">
        <ele>102.04</ele>
        <time>2020-08-27T08:44:02Z</time>
      </trkpt>
      <trkpt lat="48.60186" lon="1.97977">
        <ele>102.04</ele>
        <time>2020-08-27T08:44:03Z</time>
      </trkpt>
      <trkpt lat="48.60185" lon="1.97976">
        <ele>102.04</ele>
        <time>2020-08-27T08:44:04Z</time>
      </trkpt>
      <trkpt lat="48.60184" lon="1.97975">
        <ele>102.04</ele>
        <time>2020-08-27T08:44:05Z</time>
      </trkpt>
      <trkpt lat="48.60183" lon="1.97973">
        <ele>102.04</ele>
        <time>2020-08-27T08:44:06Z</time>
      </trkpt>
      <trkpt lat="48.60181" lon="1.97972">
        <ele>102.04</ele>
        <time>2020-08-27T08:44:07Z</time>
      </trkpt>
      <trkpt lat="48.6018" lon="1.97971">
        <ele>102.52</ele>
        <time>2020-08-27T08:44:08Z</time>
      </trkpt>
      <trkpt lat="48.60178" lon="1.9797">
        <ele>102.52</ele>
        <time>2020-08-27T08:44:09Z</time>
      </trkpt>
      <trkpt lat="48.60177" lon="1.97969">
        <ele>102.04</ele>
        <time>2020-08-27T08:44:10Z</time>
      </trkpt>
      <trkpt lat="48.60176" lon="1.97967">
        <ele>102.04</ele>
        <time>2020-08-27T08:44:11Z</time>
      </trkpt>
      <trkpt lat="48.60175" lon="1.97965">
        <ele>102.04</ele>
        <time>2020-08-27T08:44:12Z</time>
      </trkpt>
      <trkpt lat="48.60174" lon="1.97964">
        <ele>102.04</ele>
        <time>2020-08-27T08:44:13Z</time>
      </trkpt>
      <trkpt lat="48.60173" lon="1.97963">
        <ele>102.04</ele>
        <time>2020-08-27T08:44:14Z</time>
      </trkpt>
      <trkpt lat="48.60172" lon="1.97962">
        <ele>101.56</ele>
        <time>2020-08-27T08:44:15Z</time>
      </trkpt>
      <trkpt lat="48.60172" lon="1.97961">
        <ele>102.04</ele>
        <time>2020-08-27T08:44:16Z</time>
      </trkpt>
      <trkpt lat="48.60171" lon="1.9796">
        <ele>101.56</ele>
        <time>2020-08-27T08:44:17Z</time>
      </trkpt>
      <trkpt lat="48.60169" lon="1.97959">
        <ele>102.04</ele>
        <time>2020-08-27T08:44:18Z</time>
      </trkpt>
      <trkpt lat="48.60168" lon="1.97958">
        <ele>102.04</ele>
        <time>2020-08-27T08:44:19Z</time>
      </trkpt>
      <trkpt lat="48.60166" lon="1.97957">
        <ele>102.52</ele>
        <time>2020-08-27T08:44:20Z</time>
      </trkpt>
      <trkpt lat="48.60165" lon="1.97956">
        <ele>102.04</ele>
        <time>2020-08-27T08:44:21Z</time>
      </trkpt>
      <trkpt lat="48.60163" lon="1.97955">
        <ele>102.04</ele>
        <time>2020-08-27T08:44:22Z</time>
      </trkpt>
      <trkpt lat="48.60161" lon="1.97954">
        <ele>102.04</ele>
        <time>2020-08-27T08:44:23Z</time>
      </trkpt>
      <trkpt lat="48.60161" lon="1.97953">
        <ele>102.52</ele>
        <time>2020-08-27T08:44:24Z</time>
      </trkpt>
      <trkpt lat="48.6016" lon="1.97952">
        <ele>102.04</ele>
        <time>2020-08-27T08:44:25Z</time>
      </trkpt>
      <trkpt lat="48.60158" lon="1.97951">
        <ele>102.04</ele>
        <time>2020-08-27T08:44:26Z</time>
      </trkpt>
      <trkpt lat="48.60157" lon="1.97949">
        <ele>102.04</ele>
        <time>2020-08-27T08:44:27Z</time>
      </trkpt>
      <trkpt lat="48.60155" lon="1.97948">
        <ele>102.04</ele>
        <time>2020-08-27T08:44:28Z</time>
      </trkpt>
      <trkpt lat="48.60154" lon="1.97946">
        <ele>102.52</ele>
        <time>2020-08-27T08:44:29Z</time>
      </trkpt>
      <trkpt lat="48.60153" lon="1.97945">
        <ele>102.52</ele>
        <time>2020-08-27T08:44:30Z</time>
      </trkpt>
      <trkpt lat="48.60152" lon="1.97944">
        <ele>102.52</ele>
        <time>2020-08-27T08:44:31Z</time>
      </trkpt>
      <trkpt lat="48.6015" lon="1.97943">
        <ele>102.04</ele>
        <time>2020-08-27T08:44:32Z</time>
      </trkpt>
      <trkpt lat="48.60149" lon="1.97942">
        <ele>102.04</ele>
        <time>2020-08-27T08:44:33Z</time>
      </trkpt>
      <trkpt lat="48.60148" lon="1.97941">
        <ele>102.04</ele>
        <time>2020-08-27T08:44:34Z</time>
      </trkpt>
      <trkpt lat="48.60148" lon="1.9794">
        <ele>102.04</ele>
        <time>2020-08-27T08:44:35Z</time>
      </trkpt>
      <trkpt lat="48.60147" lon="1.97939">
        <ele>103</ele>
        <time>2020-08-27T08:44:36Z</time>
      </trkpt>
      <trkpt lat="48.60146" lon="1.97938">
        <ele>102.52</ele>
        <time>2020-08-27T08:44:37Z</time>
      </trkpt>
      <trkpt lat="48.60145" lon="1.97937">
        <ele>102.52</ele>
        <time>2020-08-27T08:44:38Z</time>
      </trkpt>
      <trkpt lat="48.60145" lon="1.97935">
        <ele>102.52</ele>
        <time>2020-08-27T08:44:39Z</time>
      </trkpt>
      <trkpt lat="48.60144" lon="1.97934">
        <ele>102.52</ele>
        <time>2020-08-27T08:44:40Z</time>
      </trkpt>
      <trkpt lat="48.60143" lon="1.97933">
        <ele>102.52</ele>
        <time>2020-08-27T08:44:41Z</time>
      </trkpt>
      <trkpt lat="48.60142" lon="1.97932">
        <ele>102.52</ele>
        <time>2020-08-27T08:44:42Z</time>
      </trkpt>
      <trkpt lat="48.60141" lon="1.97931">
        <ele>102.52</ele>
        <time>2020-08-27T08:44:43Z</time>
      </trkpt>
      <trkpt lat="48.6014" lon="1.9793">
        <ele>102.04</ele>
        <time>2020-08-27T08:44:44Z</time>
      </trkpt>
      <trkpt lat="48.60139" lon="1.9793">
        <ele>102.52</ele>
        <time>2020-08-27T08:44:45Z</time>
      </trkpt>
      <trkpt lat="48.60138" lon="1.97929">
        <ele>103</ele>
        <time>2020-08-27T08:44:46Z</time>
      </trkpt>
      <trkpt lat="48.60137" lon="1.97929">
        <ele>103</ele>
        <time>2020-08-27T08:44:47Z</time>
      </trkpt>
      <trkpt lat="48.60136" lon="1.97928">
        <ele>103</ele>
        <time>2020-08-27T08:44:48Z</time>
      </trkpt>
      <trkpt lat="48.60135" lon="1.97928">
        <ele>102.52</ele>
        <time>2020-08-27T08:44:49Z</time>
      </trkpt>
      <trkpt lat="48.60134" lon="1.97927">
        <ele>102.52</ele>
        <time>2020-08-27T08:44:50Z</time>
      </trkpt>
      <trkpt lat="48.60133" lon="1.97926">
        <ele>102.52</ele>
        <time>2020-08-27T08:44:51Z</time>
      </trkpt>
      <trkpt lat="48.60132" lon="1.97925">
        <ele>102.52</ele>
        <time>2020-08-27T08:44:52Z</time>
      </trkpt>
      <trkpt lat="48.6013" lon="1.97924">
        <ele>102.52</ele>
        <time>2020-08-27T08:44:53Z</time>
      </trkpt>
      <trkpt lat="48.60129" lon="1.97922">
        <ele>103</ele>
        <time>2020-08-27T08:44:54Z</time>
      </trkpt>
      <trkpt lat="48.60128" lon="1.97921">
        <ele>103</ele>
        <time>2020-08-27T08:44:55Z</time>
      </trkpt>
      <trkpt lat="48.60126" lon="1.97919">
        <ele>103</ele>
        <time>2020-08-27T08:44:56Z</time>
      </trkpt>
      <trkpt lat="48.60125" lon="1.97918">
        <ele>103</ele>
        <time>2020-08-27T08:44:57Z</time>
      </trkpt>
      <trkpt lat="48.60124" lon="1.97916">
        <ele>103</ele>
        <time>2020-08-27T08:44:58Z</time>
      </trkpt>
      <trkpt lat="48.60123" lon="1.97914">
        <ele>103</ele>
        <time>2020-08-27T08:44:59Z</time>
      </trkpt>
      <trkpt lat="48.60122" lon="1.97912">
        <ele>103</ele>
        <time>2020-08-27T08:45:00Z</time>
      </trkpt>
      <trkpt lat="48.60121" lon="1.97911">
        <ele>103.48</ele>
        <time>2020-08-27T08:45:01Z</time>
      </trkpt>
      <trkpt lat="48.6012" lon="1.97909">
        <ele>103.48</ele>
        <time>2020-08-27T08:45:02Z</time>
      </trkpt>
      <trkpt lat="48.60119" lon="1.97908">
        <ele>103.48</ele>
        <time>2020-08-27T08:45:03Z</time>
      </trkpt>
      <trkpt lat="48.60118" lon="1.97907">
        <ele>103.48</ele>
        <time>2020-08-27T08:45:04Z</time>
      </trkpt>
      <trkpt lat="48.60116" lon="1.97905">
        <ele>103.48</ele>
        <time>2020-08-27T08:45:05Z</time>
      </trkpt>
      <trkpt lat="48.60115" lon="1.97903">
        <ele>103.48</ele>
        <time>2020-08-27T08:45:06Z</time>
      </trkpt>
      <trkpt lat="48.60115" lon="1.97902">
        <ele>103</ele>
        <time>2020-08-27T08:45:07Z</time>
      </trkpt>
      <trkpt lat="48.60114" lon="1.97901">
        <ele>103.96</ele>
        <time>2020-08-27T08:45:08Z</time>
      </trkpt>
      <trkpt lat="48.60113" lon="1.979">
        <ele>103.48</ele>
        <time>2020-08-27T08:45:09Z</time>
      </trkpt>
      <trkpt lat="48.60112" lon="1.97898">
        <ele>103.48</ele>
        <time>2020-08-27T08:45:10Z</time>
      </trkpt>
      <trkpt lat="48.60112" lon="1.97897">
        <ele>103.48</ele>
        <time>2020-08-27T08:45:11Z</time>
      </trkpt>
      <trkpt lat="48.60111" lon="1.97896">
        <ele>103.48</ele>
        <time>2020-08-27T08:45:12Z</time>
      </trkpt>
      <trkpt lat="48.6011" lon="1.97896">
        <ele>103.96</ele>
        <time>2020-08-27T08:45:13Z</time>
      </trkpt>
      <trkpt lat="48.60108" lon="1.97895">
        <ele>103.48</ele>
        <time>2020-08-27T08:45:14Z</time>
      </trkpt>
      <trkpt lat="48.60107" lon="1.97894">
        <ele>103.96</ele>
        <time>2020-08-27T08:45:15Z</time>
      </trkpt>
      <trkpt lat="48.60105" lon="1.97894">
        <ele>103.48</ele>
        <time>2020-08-27T08:45:16Z</time>
      </trkpt>
      <trkpt lat="48.60104" lon="1.97892">
        <ele>103.48</ele>
        <time>2020-08-27T08:45:17Z</time>
      </trkpt>
      <trkpt lat="48.60102" lon="1.97891">
        <ele>103.48</ele>
        <time>2020-08-27T08:45:18Z</time>
      </trkpt>
      <trkpt lat="48.60101" lon="1.97889">
        <ele>103.96</ele>
        <time>2020-08-27T08:45:19Z</time>
      </trkpt>
      <trkpt lat="48.601" lon="1.97888">
        <ele>103.96</ele>
        <time>2020-08-27T08:45:20Z</time>
      </trkpt>
      <trkpt lat="48.601" lon="1.97886">
        <ele>103.96</ele>
        <time>2020-08-27T08:45:21Z</time>
      </trkpt>
      <trkpt lat="48.60099" lon="1.97886">
        <ele>103.96</ele>
        <time>2020-08-27T08:45:22Z</time>
      </trkpt>
      <trkpt lat="48.60098" lon="1.97885">
        <ele>103.96</ele>
        <time>2020-08-27T08:45:23Z</time>
      </trkpt>
      <trkpt lat="48.60097" lon="1.97885">
        <ele>103.48</ele>
        <time>2020-08-27T08:45:24Z</time>
      </trkpt>
      <trkpt lat="48.60096" lon="1.97884">
        <ele>103.48</ele>
        <time>2020-08-27T08:45:25Z</time>
      </trkpt>
      <trkpt lat="48.60095" lon="1.97883">
        <ele>103.96</ele>
        <time>2020-08-27T08:45:26Z</time>
      </trkpt>
      <trkpt lat="48.60094" lon="1.97883">
        <ele>104.44</ele>
        <time>2020-08-27T08:45:27Z</time>
      </trkpt>
      <trkpt lat="48.60093" lon="1.97881">
        <ele>103.96</ele>
        <time>2020-08-27T08:45:28Z</time>
      </trkpt>
      <trkpt lat="48.60092" lon="1.9788">
        <ele>103.96</ele>
        <time>2020-08-27T08:45:29Z</time>
      </trkpt>
      <trkpt lat="48.60091" lon="1.97878">
        <ele>104.44</ele>
        <time>2020-08-27T08:45:30Z</time>
      </trkpt>
      <trkpt lat="48.60089" lon="1.97876">
        <ele>104.44</ele>
        <time>2020-08-27T08:45:31Z</time>
      </trkpt>
      <trkpt lat="48.60088" lon="1.97875">
        <ele>103.96</ele>
        <time>2020-08-27T08:45:32Z</time>
      </trkpt>
      <trkpt lat="48.60087" lon="1.97873">
        <ele>103.96</ele>
        <time>2020-08-27T08:45:33Z</time>
      </trkpt>
      <trkpt lat="48.60086" lon="1.97872">
        <ele>103.96</ele>
        <time>2020-08-27T08:45:34Z</time>
      </trkpt>
      <trkpt lat="48.60085" lon="1.9787">
        <ele>104.44</ele>
        <time>2020-08-27T08:45:35Z</time>
      </trkpt>
      <trkpt lat="48.60084" lon="1.9787">
        <ele>105.88</ele>
        <time>2020-08-27T08:45:36Z</time>
      </trkpt>
      <trkpt lat="48.60084" lon="1.97868">
        <ele>104.92</ele>
        <time>2020-08-27T08:45:37Z</time>
      </trkpt>
      <trkpt lat="48.60083" lon="1.97866">
        <ele>104.44</ele>
        <time>2020-08-27T08:45:38Z</time>
      </trkpt>
      <trkpt lat="48.60083" lon="1.97866">
        <ele>104.44</ele>
        <time>2020-08-27T08:45:39Z</time>
      </trkpt>
      <trkpt lat="48.60082" lon="1.97864">
        <ele>104.44</ele>
        <time>2020-08-27T08:45:40Z</time>
      </trkpt>
      <trkpt lat="48.60081" lon="1.97863">
        <ele>104.44</ele>
        <time>2020-08-27T08:45:41Z</time>
      </trkpt>
      <trkpt lat="48.6008" lon="1.97862">
        <ele>104.44</ele>
        <time>2020-08-27T08:45:42Z</time>
      </trkpt>
      <trkpt lat="48.60078" lon="1.9786">
        <ele>104.44</ele>
        <time>2020-08-27T08:45:43Z</time>
      </trkpt>
      <trkpt lat="48.60077" lon="1.97859">
        <ele>104.44</ele>
        <time>2020-08-27T08:45:44Z</time>
      </trkpt>
      <trkpt lat="48.60076" lon="1.97858">
        <ele>104.44</ele>
        <time>2020-08-27T08:45:45Z</time>
      </trkpt>
      <trkpt lat="48.60075" lon="1.97856">
        <ele>104.92</ele>
        <time>2020-08-27T08:45:46Z</time>
      </trkpt>
      <trkpt lat="48.60073" lon="1.97855">
        <ele>104.44</ele>
        <time>2020-08-27T08:45:47Z</time>
      </trkpt>
      <trkpt lat="48.60072" lon="1.97854">
        <ele>104.44</ele>
        <time>2020-08-27T08:45:48Z</time>
      </trkpt>
      <trkpt lat="48.60071" lon="1.97853">
        <ele>104.92</ele>
        <time>2020-08-27T08:45:49Z</time>
      </trkpt>
      <trkpt lat="48.6007" lon="1.97853">
        <ele>104.92</ele>
        <time>2020-08-27T08:45:50Z</time>
      </trkpt>
      <trkpt lat="48.60068" lon="1.97852">
        <ele>104.92</ele>
        <time>2020-08-27T08:45:51Z</time>
      </trkpt>
      <trkpt lat="48.60067" lon="1.97851">
        <ele>104.92</ele>
        <time>2020-08-27T08:45:52Z</time>
      </trkpt>
      <trkpt lat="48.60067" lon="1.97851">
        <ele>104.92</ele>
        <time>2020-08-27T08:45:53Z</time>
      </trkpt>
      <trkpt lat="48.60066" lon="1.9785">
        <ele>104.44</ele>
        <time>2020-08-27T08:45:54Z</time>
      </trkpt>
      <trkpt lat="48.60065" lon="1.97849">
        <ele>104.92</ele>
        <time>2020-08-27T08:45:55Z</time>
      </trkpt>
      <trkpt lat="48.60065" lon="1.97849">
        <ele>104.92</ele>
        <time>2020-08-27T08:45:56Z</time>
      </trkpt>
      <trkpt lat="48.60065" lon="1.97849">
        <ele>104.92</ele>
        <time>2020-08-27T08:45:57Z</time>
      </trkpt>
      <trkpt lat="48.60064" lon="1.97848">
        <ele>105.4</ele>
        <time>2020-08-27T08:45:58Z</time>
      </trkpt>
      <trkpt lat="48.60064" lon="1.97847">
        <ele>104.92</ele>
        <time>2020-08-27T08:45:59Z</time>
      </trkpt>
      <trkpt lat="48.60063" lon="1.97846">
        <ele>104.92</ele>
        <time>2020-08-27T08:46:00Z</time>
      </trkpt>
      <trkpt lat="48.60063" lon="1.97845">
        <ele>104.92</ele>
        <time>2020-08-27T08:46:01Z</time>
      </trkpt>
      <trkpt lat="48.60063" lon="1.97844">
        <ele>105.4</ele>
        <time>2020-08-27T08:46:02Z</time>
      </trkpt>
      <trkpt lat="48.60062" lon="1.97844">
        <ele>105.4</ele>
        <time>2020-08-27T08:46:03Z</time>
      </trkpt>
      <trkpt lat="48.60061" lon="1.97843">
        <ele>105.4</ele>
        <time>2020-08-27T08:46:04Z</time>
      </trkpt>
      <trkpt lat="48.60061" lon="1.97843">
        <ele>105.4</ele>
        <time>2020-08-27T08:46:05Z</time>
      </trkpt>
      <trkpt lat="48.6006" lon="1.97841">
        <ele>105.4</ele>
        <time>2020-08-27T08:46:06Z</time>
      </trkpt>
      <trkpt lat="48.60058" lon="1.9784">
        <ele>105.4</ele>
        <time>2020-08-27T08:46:07Z</time>
      </trkpt>
      <trkpt lat="48.60056" lon="1.97839">
        <ele>105.4</ele>
        <time>2020-08-27T08:46:08Z</time>
      </trkpt>
      <trkpt lat="48.60055" lon="1.97837">
        <ele>105.4</ele>
        <time>2020-08-27T08:46:09Z</time>
      </trkpt>
      <trkpt lat="48.60054" lon="1.97836">
        <ele>105.4</ele>
        <time>2020-08-27T08:46:10Z</time>
      </trkpt>
      <trkpt lat="48.60053" lon="1.97835">
        <ele>105.88</ele>
        <time>2020-08-27T08:46:11Z</time>
      </trkpt>
      <trkpt lat="48.60052" lon="1.97834">
        <ele>105.4</ele>
        <time>2020-08-27T08:46:12Z</time>
      </trkpt>
      <trkpt lat="48.60051" lon="1.97833">
        <ele>105.4</ele>
        <time>2020-08-27T08:46:13Z</time>
      </trkpt>
      <trkpt lat="48.6005" lon="1.97831">
        <ele>105.88</ele>
        <time>2020-08-27T08:46:14Z</time>
      </trkpt>
      <trkpt lat="48.60049" lon="1.9783">
        <ele>105.4</ele>
        <time>2020-08-27T08:46:15Z</time>
      </trkpt>
      <trkpt lat="48.60048" lon="1.97827">
        <ele>105.4</ele>
        <time>2020-08-27T08:46:16Z</time>
      </trkpt>
      <trkpt lat="48.60046" lon="1.97825">
        <ele>105.4</ele>
        <time>2020-08-27T08:46:17Z</time>
      </trkpt>
      <trkpt lat="48.60045" lon="1.97823">
        <ele>105.88</ele>
        <time>2020-08-27T08:46:18Z</time>
      </trkpt>
      <trkpt lat="48.60043" lon="1.97821">
        <ele>105.4</ele>
        <time>2020-08-27T08:46:19Z</time>
      </trkpt>
      <trkpt lat="48.60041" lon="1.97819">
        <ele>105.88</ele>
        <time>2020-08-27T08:46:20Z</time>
      </trkpt>
      <trkpt lat="48.60039" lon="1.97817">
        <ele>105.88</ele>
        <time>2020-08-27T08:46:21Z</time>
      </trkpt>
      <trkpt lat="48.60038" lon="1.97816">
        <ele>106.36</ele>
        <time>2020-08-27T08:46:22Z</time>
      </trkpt>
      <trkpt lat="48.60036" lon="1.97814">
        <ele>105.88</ele>
        <time>2020-08-27T08:46:23Z</time>
      </trkpt>
      <trkpt lat="48.60035" lon="1.97813">
        <ele>106.36</ele>
        <time>2020-08-27T08:46:24Z</time>
      </trkpt>
      <trkpt lat="48.60034" lon="1.97812">
        <ele>105.88</ele>
        <time>2020-08-27T08:46:25Z</time>
      </trkpt>
      <trkpt lat="48.60033" lon="1.97812">
        <ele>105.88</ele>
        <time>2020-08-27T08:46:26Z</time>
      </trkpt>
      <trkpt lat="48.60031" lon="1.97811">
        <ele>105.88</ele>
        <time>2020-08-27T08:46:27Z</time>
      </trkpt>
      <trkpt lat="48.6003" lon="1.9781">
        <ele>106.36</ele>
        <time>2020-08-27T08:46:28Z</time>
      </trkpt>
      <trkpt lat="48.60029" lon="1.97809">
        <ele>106.36</ele>
        <time>2020-08-27T08:46:29Z</time>
      </trkpt>
      <trkpt lat="48.60028" lon="1.97807">
        <ele>106.36</ele>
        <time>2020-08-27T08:46:30Z</time>
      </trkpt>
      <trkpt lat="48.60027" lon="1.97805">
        <ele>106.36</ele>
        <time>2020-08-27T08:46:31Z</time>
      </trkpt>
      <trkpt lat="48.60026" lon="1.97804">
        <ele>106.36</ele>
        <time>2020-08-27T08:46:32Z</time>
      </trkpt>
      <trkpt lat="48.60024" lon="1.97802">
        <ele>106.36</ele>
        <time>2020-08-27T08:46:33Z</time>
      </trkpt>
      <trkpt lat="48.60022" lon="1.97801">
        <ele>106.36</ele>
        <time>2020-08-27T08:46:34Z</time>
      </trkpt>
      <trkpt lat="48.6002" lon="1.97799">
        <ele>106.36</ele>
        <time>2020-08-27T08:46:35Z</time>
      </trkpt>
      <trkpt lat="48.60019" lon="1.97798">
        <ele>107.32</ele>
        <time>2020-08-27T08:46:36Z</time>
      </trkpt>
      <trkpt lat="48.60018" lon="1.97796">
        <ele>106.84</ele>
        <time>2020-08-27T08:46:37Z</time>
      </trkpt>
      <trkpt lat="48.60016" lon="1.97795">
        <ele>106.84</ele>
        <time>2020-08-27T08:46:38Z</time>
      </trkpt>
      <trkpt lat="48.60015" lon="1.97793">
        <ele>107.32</ele>
        <time>2020-08-27T08:46:39Z</time>
      </trkpt>
      <trkpt lat="48.60013" lon="1.97792">
        <ele>106.84</ele>
        <time>2020-08-27T08:46:40Z</time>
      </trkpt>
      <trkpt lat="48.60012" lon="1.97791">
        <ele>107.32</ele>
        <time>2020-08-27T08:46:41Z</time>
      </trkpt>
      <trkpt lat="48.60011" lon="1.97789">
        <ele>107.81</ele>
        <time>2020-08-27T08:46:42Z</time>
      </trkpt>
      <trkpt lat="48.6001" lon="1.97787">
        <ele>107.32</ele>
        <time>2020-08-27T08:46:43Z</time>
      </trkpt>
      <trkpt lat="48.60009" lon="1.97785">
        <ele>107.32</ele>
        <time>2020-08-27T08:46:44Z</time>
      </trkpt>
      <trkpt lat="48.60008" lon="1.97783">
        <ele>107.32</ele>
        <time>2020-08-27T08:46:45Z</time>
      </trkpt>
      <trkpt lat="48.60008" lon="1.9778">
        <ele>107.32</ele>
        <time>2020-08-27T08:46:46Z</time>
      </trkpt>
      <trkpt lat="48.60007" lon="1.97779">
        <ele>107.32</ele>
        <time>2020-08-27T08:46:47Z</time>
      </trkpt>
      <trkpt lat="48.60007" lon="1.97777">
        <ele>107.81</ele>
        <time>2020-08-27T08:46:48Z</time>
      </trkpt>
      <trkpt lat="48.60006" lon="1.97776">
        <ele>107.81</ele>
        <time>2020-08-27T08:46:49Z</time>
      </trkpt>
      <trkpt lat="48.60006" lon="1.97774">
        <ele>107.81</ele>
        <time>2020-08-27T08:46:50Z</time>
      </trkpt>
      <trkpt lat="48.60005" lon="1.97772">
        <ele>107.32</ele>
        <time>2020-08-27T08:46:51Z</time>
      </trkpt>
      <trkpt lat="48.60004" lon="1.97771">
        <ele>107.81</ele>
        <time>2020-08-27T08:46:52Z</time>
      </trkpt>
      <trkpt lat="48.60003" lon="1.97769">
        <ele>107.32</ele>
        <time>2020-08-27T08:46:53Z</time>
      </trkpt>
      <trkpt lat="48.60003" lon="1.97768">
        <ele>107.81</ele>
        <time>2020-08-27T08:46:54Z</time>
      </trkpt>
      <trkpt lat="48.60003" lon="1.97766">
        <ele>107.81</ele>
        <time>2020-08-27T08:46:55Z</time>
      </trkpt>
      <trkpt lat="48.60002" lon="1.97765">
        <ele>107.81</ele>
        <time>2020-08-27T08:46:56Z</time>
      </trkpt>
      <trkpt lat="48.60002" lon="1.97763">
        <ele>107.81</ele>
        <time>2020-08-27T08:46:57Z</time>
      </trkpt>
      <trkpt lat="48.60002" lon="1.97761">
        <ele>107.81</ele>
        <time>2020-08-27T08:46:58Z</time>
      </trkpt>
      <trkpt lat="48.60001" lon="1.9776">
        <ele>107.81</ele>
        <time>2020-08-27T08:46:59Z</time>
      </trkpt>
      <trkpt lat="48.6" lon="1.97758">
        <ele>107.32</ele>
        <time>2020-08-27T08:47:00Z</time>
      </trkpt>
      <trkpt lat="48.59999" lon="1.97755">
        <ele>107.81</ele>
        <time>2020-08-27T08:47:01Z</time>
      </trkpt>
      <trkpt lat="48.59998" lon="1.97753">
        <ele>107.81</ele>
        <time>2020-08-27T08:47:02Z</time>
      </trkpt>
      <trkpt lat="48.59998" lon="1.97751">
        <ele>108.29</ele>
        <time>2020-08-27T08:47:03Z</time>
      </trkpt>
      <trkpt lat="48.59998" lon="1.97749">
        <ele>107.81</ele>
        <time>2020-08-27T08:47:04Z</time>
      </trkpt>
      <trkpt lat="48.59997" lon="1.97747">
        <ele>107.81</ele>
        <time>2020-08-27T08:47:05Z</time>
      </trkpt>
      <trkpt lat="48.59997" lon="1.97746">
        <ele>107.81</ele>
        <time>2020-08-27T08:47:06Z</time>
      </trkpt>
      <trkpt lat="48.59997" lon="1.97745">
        <ele>107.81</ele>
        <time>2020-08-27T08:47:07Z</time>
      </trkpt>
      <trkpt lat="48.59996" lon="1.97744">
        <ele>107.81</ele>
        <time>2020-08-27T08:47:08Z</time>
      </trkpt>
      <trkpt lat="48.59995" lon="1.97742">
        <ele>107.81</ele>
        <time>2020-08-27T08:47:09Z</time>
      </trkpt>
      <trkpt lat="48.59995" lon="1.97741">
        <ele>107.81</ele>
        <time>2020-08-27T08:47:10Z</time>
      </trkpt>
      <trkpt lat="48.59994" lon="1.97739">
        <ele>107.81</ele>
        <time>2020-08-27T08:47:11Z</time>
      </trkpt>
      <trkpt lat="48.59993" lon="1.97738">
        <ele>107.81</ele>
        <time>2020-08-27T08:47:12Z</time>
      </trkpt>
      <trkpt lat="48.59992" lon="1.97737">
        <ele>107.81</ele>
        <time>2020-08-27T08:47:13Z</time>
      </trkpt>
      <trkpt lat="48.59992" lon="1.97735">
        <ele>107.81</ele>
        <time>2020-08-27T08:47:14Z</time>
      </trkpt>
      <trkpt lat="48.59992" lon="1.97733">
        <ele>107.81</ele>
        <time>2020-08-27T08:47:15Z</time>
      </trkpt>
      <trkpt lat="48.59992" lon="1.97732">
        <ele>107.81</ele>
        <time>2020-08-27T08:47:16Z</time>
      </trkpt>
      <trkpt lat="48.59991" lon="1.9773">
        <ele>107.81</ele>
        <time>2020-08-27T08:47:17Z</time>
      </trkpt>
      <trkpt lat="48.59991" lon="1.9773">
        <ele>108.29</ele>
        <time>2020-08-27T08:47:18Z</time>
      </trkpt>
      <trkpt lat="48.59991" lon="1.97729">
        <ele>107.81</ele>
        <time>2020-08-27T08:47:19Z</time>
      </trkpt>
      <trkpt lat="48.5999" lon="1.97727">
        <ele>107.81</ele>
        <time>2020-08-27T08:47:20Z</time>
      </trkpt>
      <trkpt lat="48.5999" lon="1.97726">
        <ele>108.29</ele>
        <time>2020-08-27T08:47:21Z</time>
      </trkpt>
      <trkpt lat="48.5999" lon="1.97724">
        <ele>108.29</ele>
        <time>2020-08-27T08:47:22Z</time>
      </trkpt>
      <trkpt lat="48.59989" lon="1.97724">
        <ele>107.81</ele>
        <time>2020-08-27T08:47:23Z</time>
      </trkpt>
      <trkpt lat="48.59989" lon="1.97723">
        <ele>108.29</ele>
        <time>2020-08-27T08:47:24Z</time>
      </trkpt>
      <trkpt lat="48.59989" lon="1.97723">
        <ele>107.81</ele>
        <time>2020-08-27T08:47:25Z</time>
      </trkpt>
      <trkpt lat="48.59989" lon="1.97724">
        <ele>107.81</ele>
        <time>2020-08-27T08:47:26Z</time>
      </trkpt>
      <trkpt lat="48.59989" lon="1.97724">
        <ele>108.29</ele>
        <time>2020-08-27T08:47:27Z</time>
      </trkpt>
      <trkpt lat="48.59989" lon="1.97724">
        <ele>107.81</ele>
        <time>2020-08-27T08:47:28Z</time>
      </trkpt>
      <trkpt lat="48.59989" lon="1.97724">
        <ele>107.81</ele>
        <time>2020-08-27T08:47:29Z</time>
      </trkpt>
      <trkpt lat="48.59989" lon="1.97724">
        <ele>108.29</ele>
        <time>2020-08-27T08:47:30Z</time>
      </trkpt>
      <trkpt lat="48.5999" lon="1.97724">
        <ele>107.81</ele>
        <time>2020-08-27T08:47:31Z</time>
      </trkpt>
      <trkpt lat="48.5999" lon="1.97724">
        <ele>107.32</ele>
        <time>2020-08-27T08:47:32Z</time>
      </trkpt>
      <trkpt lat="48.5999" lon="1.97724">
        <ele>108.29</ele>
        <time>2020-08-27T08:47:33Z</time>
      </trkpt>
      <trkpt lat="48.5999" lon="1.97724">
        <ele>107.81</ele>
        <time>2020-08-27T08:47:34Z</time>
      </trkpt>
      <trkpt lat="48.5999" lon="1.97724">
        <ele>107.81</ele>
        <time>2020-08-27T08:47:35Z</time>
      </trkpt>
      <trkpt lat="48.5999" lon="1.97724">
        <ele>108.29</ele>
        <time>2020-08-27T08:47:36Z</time>
      </trkpt>
      <trkpt lat="48.5999" lon="1.97724">
        <ele>107.81</ele>
        <time>2020-08-27T08:47:37Z</time>
      </trkpt>
      <trkpt lat="48.5999" lon="1.97724">
        <ele>107.81</ele>
        <time>2020-08-27T08:47:41Z</time>
      </trkpt>
      <trkpt lat="48.5999" lon="1.97724">
        <ele>108.77</ele>
        <time>2020-08-27T08:47:42Z</time>
      </trkpt>
      <trkpt lat="48.5999" lon="1.97724">
        <ele>108.29</ele>
        <time>2020-08-27T08:47:43Z</time>
      </trkpt>
      <trkpt lat="48.5999" lon="1.97724">
        <ele>108.29</ele>
        <time>2020-08-27T08:47:44Z</time>
      </trkpt>
      <trkpt lat="48.5999" lon="1.97724">
        <ele>108.29</ele>
        <time>2020-08-27T08:47:45Z</time>
      </trkpt>
      <trkpt lat="48.5999" lon="1.97724">
        <ele>108.29</ele>
        <time>2020-08-27T08:47:46Z</time>
      </trkpt>
      <trkpt lat="48.5999" lon="1.97724">
        <ele>108.29</ele>
        <time>2020-08-27T08:47:47Z</time>
      </trkpt>
      <trkpt lat="48.5999" lon="1.97724">
        <ele>108.29</ele>
        <time>2020-08-27T08:47:48Z</time>
      </trkpt>
      <trkpt lat="48.5999" lon="1.97724">
        <ele>108.29</ele>
        <time>2020-08-27T08:47:49Z</time>
      </trkpt>
      <trkpt lat="48.5999" lon="1.97724">
        <ele>108.29</ele>
        <time>2020-08-27T08:47:50Z</time>
      </trkpt>
      <trkpt lat="48.5999" lon="1.97724">
        <ele>108.29</ele>
        <time>2020-08-27T08:47:51Z</time>
      </trkpt>
      <trkpt lat="48.59989" lon="1.97724">
        <ele>108.29</ele>
        <time>2020-08-27T08:47:52Z</time>
      </trkpt>
      <trkpt lat="48.59989" lon="1.97725">
        <ele>108.29</ele>
        <time>2020-08-27T08:47:53Z</time>
      </trkpt>
      <trkpt lat="48.59989" lon="1.97724">
        <ele>108.29</ele>
        <time>2020-08-27T08:47:54Z</time>
      </trkpt>
      <trkpt lat="48.59989" lon="1.97725">
        <ele>107.81</ele>
        <time>2020-08-27T08:47:55Z</time>
      </trkpt>
      <trkpt lat="48.59989" lon="1.97724">
        <ele>108.29</ele>
        <time>2020-08-27T08:47:57Z</time>
      </trkpt>
      <trkpt lat="48.59989" lon="1.97724">
        <ele>108.29</ele>
        <time>2020-08-27T08:47:58Z</time>
      </trkpt>
      <trkpt lat="48.59989" lon="1.97724">
        <ele>108.29</ele>
        <time>2020-08-27T08:47:59Z</time>
      </trkpt>
      <trkpt lat="48.59989" lon="1.97724">
        <ele>108.29</ele>
        <time>2020-08-27T08:48:00Z</time>
      </trkpt>
      <trkpt lat="48.59989" lon="1.97725">
        <ele>108.29</ele>
        <time>2020-08-27T08:48:01Z</time>
      </trkpt>
      <trkpt lat="48.59989" lon="1.97725">
        <ele>108.29</ele>
        <time>2020-08-27T08:48:02Z</time>
      </trkpt>
      <trkpt lat="48.59989" lon="1.97725">
        <ele>108.29</ele>
        <time>2020-08-27T08:48:03Z</time>
      </trkpt>
      <trkpt lat="48.59989" lon="1.97725">
        <ele>108.29</ele>
        <time>2020-08-27T08:48:04Z</time>
      </trkpt>
      <trkpt lat="48.59989" lon="1.97725">
        <ele>108.29</ele>
        <time>2020-08-27T08:48:05Z</time>
      </trkpt>
      <trkpt lat="48.59989" lon="1.97725">
        <ele>108.29</ele>
        <time>2020-08-27T08:48:06Z</time>
      </trkpt>
      <trkpt lat="48.59989" lon="1.97725">
        <ele>108.29</ele>
        <time>2020-08-27T08:48:07Z</time>
      </trkpt>
      <trkpt lat="48.59989" lon="1.97724">
        <ele>108.29</ele>
        <time>2020-08-27T08:48:08Z</time>
      </trkpt>
      <trkpt lat="48.59989" lon="1.97724">
        <ele>108.29</ele>
        <time>2020-08-27T08:48:09Z</time>
      </trkpt>
      <trkpt lat="48.59989" lon="1.97724">
        <ele>108.29</ele>
        <time>2020-08-27T08:48:10Z</time>
      </trkpt>
      <trkpt lat="48.59989" lon="1.97724">
        <ele>108.29</ele>
        <time>2020-08-27T08:48:11Z</time>
      </trkpt>
      <trkpt lat="48.59989" lon="1.97724">
        <ele>108.29</ele>
        <time>2020-08-27T08:48:12Z</time>
      </trkpt>
      <trkpt lat="48.59989" lon="1.97724">
        <ele>108.29</ele>
        <time>2020-08-27T08:48:13Z</time>
      </trkpt>
      <trkpt lat="48.59989" lon="1.97724">
        <ele>108.29</ele>
        <time>2020-08-27T08:48:17Z</time>
      </trkpt>
      <trkpt lat="48.59989" lon="1.97724">
        <ele>107.81</ele>
        <time>2020-08-27T08:48:18Z</time>
      </trkpt>
      <trkpt lat="48.5999" lon="1.97724">
        <ele>108.29</ele>
        <time>2020-08-27T08:48:19Z</time>
      </trkpt>
      <trkpt lat="48.5999" lon="1.97724">
        <ele>107.81</ele>
        <time>2020-08-27T08:48:20Z</time>
      </trkpt>
      <trkpt lat="48.5999" lon="1.97724">
        <ele>108.29</ele>
        <time>2020-08-27T08:48:22Z</time>
      </trkpt>
      <trkpt lat="48.5999" lon="1.97724">
        <ele>108.29</ele>
        <time>2020-08-27T08:48:23Z</time>
      </trkpt>
      <trkpt lat="48.5999" lon="1.97724">
        <ele>108.29</ele>
        <time>2020-08-27T08:48:24Z</time>
      </trkpt>
      <trkpt lat="48.5999" lon="1.97724">
        <ele>108.29</ele>
        <time>2020-08-27T08:48:25Z</time>
      </trkpt>
      <trkpt lat="48.59989" lon="1.97724">
        <ele>108.29</ele>
        <time>2020-08-27T08:48:27Z</time>
      </trkpt>
      <trkpt lat="48.59989" lon="1.97724">
        <ele>108.29</ele>
        <time>2020-08-27T08:48:28Z</time>
      </trkpt>
      <trkpt lat="48.59989" lon="1.97724">
        <ele>108.29</ele>
        <time>2020-08-27T08:48:29Z</time>
      </trkpt>
      <trkpt lat="48.5999" lon="1.97722">
        <ele>108.29</ele>
        <time>2020-08-27T08:49:07Z</time>
      </trkpt>
      <trkpt lat="48.5999" lon="1.97722">
        <ele>108.29</ele>
        <time>2020-08-27T08:49:08Z</time>
      </trkpt>
      <trkpt lat="48.5999" lon="1.97722">
        <ele>107.81</ele>
        <time>2020-08-27T08:49:16Z</time>
      </trkpt>
      <trkpt lat="48.5999" lon="1.97722">
        <ele>108.77</ele>
        <time>2020-08-27T08:49:17Z</time>
      </trkpt>
      <trkpt lat="48.5999" lon="1.97722">
        <ele>107.81</ele>
        <time>2020-08-27T08:49:18Z</time>
      </trkpt>
      <trkpt lat="48.5999" lon="1.97722">
        <ele>108.29</ele>
        <time>2020-08-27T08:49:19Z</time>
      </trkpt>
      <trkpt lat="48.59991" lon="1.97721">
        <ele>108.77</ele>
        <time>2020-08-27T08:49:20Z</time>
      </trkpt>
      <trkpt lat="48.5999" lon="1.9772">
        <ele>108.29</ele>
        <time>2020-08-27T08:49:21Z</time>
      </trkpt>
      <trkpt lat="48.5999" lon="1.9772">
        <ele>108.77</ele>
        <time>2020-08-27T08:49:29Z</time>
      </trkpt>
      <trkpt lat="48.5999" lon="1.9772">
        <ele>108.77</ele>
        <time>2020-08-27T08:49:30Z</time>
      </trkpt>
      <trkpt lat="48.5999" lon="1.97721">
        <ele>108.77</ele>
        <time>2020-08-27T08:49:59Z</time>
      </trkpt>
      <trkpt lat="48.5999" lon="1.9772">
        <ele>108.77</ele>
        <time>2020-08-27T08:50:00Z</time>
      </trkpt>
      <trkpt lat="48.5999" lon="1.9772">
        <ele>108.77</ele>
        <time>2020-08-27T08:50:01Z</time>
      </trkpt>
      <trkpt lat="48.5999" lon="1.9772">
        <ele>108.77</ele>
        <time>2020-08-27T08:50:02Z</time>
      </trkpt>
      <trkpt lat="48.59989" lon="1.9772">
        <ele>108.29</ele>
        <time>2020-08-27T08:50:09Z</time>
      </trkpt>
      <trkpt lat="48.59989" lon="1.9772">
        <ele>108.29</ele>
        <time>2020-08-27T08:50:10Z</time>
      </trkpt>
      <trkpt lat="48.59989" lon="1.9772">
        <ele>108.77</ele>
        <time>2020-08-27T08:50:11Z</time>
      </trkpt>
      <trkpt lat="48.59989" lon="1.9772">
        <ele>108.77</ele>
        <time>2020-08-27T08:50:12Z</time>
      </trkpt>
      <trkpt lat="48.59989" lon="1.9772">
        <ele>108.77</ele>
        <time>2020-08-27T08:50:13Z</time>
      </trkpt>
      <trkpt lat="48.59989" lon="1.9772">
        <ele>108.29</ele>
        <time>2020-08-27T08:50:14Z</time>
      </trkpt>
      <trkpt lat="48.59989" lon="1.9772">
        <ele>108.77</ele>
        <time>2020-08-27T08:50:15Z</time>
      </trkpt>
      <trkpt lat="48.59989" lon="1.9772">
        <ele>106.36</ele>
        <time>2020-08-27T08:50:16Z</time>
      </trkpt>
      <trkpt lat="48.59989" lon="1.9772">
        <ele>110.21</ele>
        <time>2020-08-27T08:50:17Z</time>
      </trkpt>
      <trkpt lat="48.59989" lon="1.9772">
        <ele>108.77</ele>
        <time>2020-08-27T08:50:18Z</time>
      </trkpt>
      <trkpt lat="48.59988" lon="1.9772">
        <ele>108.77</ele>
        <time>2020-08-27T08:50:35Z</time>
      </trkpt>
      <trkpt lat="48.59988" lon="1.9772">
        <ele>108.77</ele>
        <time>2020-08-27T08:50:36Z</time>
      </trkpt>
      <trkpt lat="48.59988" lon="1.9772">
        <ele>108.77</ele>
        <time>2020-08-27T08:50:37Z</time>
      </trkpt>
      <trkpt lat="48.59988" lon="1.9772">
        <ele>108.77</ele>
        <time>2020-08-27T08:50:38Z</time>
      </trkpt>
      <trkpt lat="48.59988" lon="1.9772">
        <ele>108.77</ele>
        <time>2020-08-27T08:50:39Z</time>
      </trkpt>
      <trkpt lat="48.59988" lon="1.97719">
        <ele>108.29</ele>
        <time>2020-08-27T08:50:40Z</time>
      </trkpt>
      <trkpt lat="48.59987" lon="1.97719">
        <ele>108.77</ele>
        <time>2020-08-27T08:50:41Z</time>
      </trkpt>
      <trkpt lat="48.59987" lon="1.97719">
        <ele>108.29</ele>
        <time>2020-08-27T08:50:42Z</time>
      </trkpt>
      <trkpt lat="48.59986" lon="1.97719">
        <ele>108.29</ele>
        <time>2020-08-27T08:51:01Z</time>
      </trkpt>
      <trkpt lat="48.59986" lon="1.97719">
        <ele>108.77</ele>
        <time>2020-08-27T08:51:02Z</time>
      </trkpt>
      <trkpt lat="48.59986" lon="1.97719">
        <ele>108.77</ele>
        <time>2020-08-27T08:51:07Z</time>
      </trkpt>
      <trkpt lat="48.59986" lon="1.97719">
        <ele>108.29</ele>
        <time>2020-08-27T08:51:08Z</time>
      </trkpt>
      <trkpt lat="48.59987" lon="1.9772">
        <ele>108.77</ele>
        <time>2020-08-27T08:51:18Z</time>
      </trkpt>
      <trkpt lat="48.59987" lon="1.97721">
        <ele>108.29</ele>
        <time>2020-08-27T08:51:19Z</time>
      </trkpt>
      <trkpt lat="48.59987" lon="1.97721">
        <ele>108.77</ele>
        <time>2020-08-27T08:51:20Z</time>
      </trkpt>
      <trkpt lat="48.59987" lon="1.97721">
        <ele>108.77</ele>
        <time>2020-08-27T08:51:22Z</time>
      </trkpt>
      <trkpt lat="48.59987" lon="1.97721">
        <ele>108.77</ele>
        <time>2020-08-27T08:51:23Z</time>
      </trkpt>
      <trkpt lat="48.59986" lon="1.97721">
        <ele>108.77</ele>
        <time>2020-08-27T08:51:32Z</time>
      </trkpt>
      <trkpt lat="48.59986" lon="1.97721">
        <ele>108.77</ele>
        <time>2020-08-27T08:51:33Z</time>
      </trkpt>
      <trkpt lat="48.59986" lon="1.97721">
        <ele>109.25</ele>
        <time>2020-08-27T08:51:34Z</time>
      </trkpt>
      <trkpt lat="48.59986" lon="1.97721">
        <ele>109.25</ele>
        <time>2020-08-27T08:51:36Z</time>
      </trkpt>
      <trkpt lat="48.59986" lon="1.97721">
        <ele>109.73</ele>
        <time>2020-08-27T08:51:37Z</time>
      </trkpt>
      <trkpt lat="48.59986" lon="1.97721">
        <ele>109.25</ele>
        <time>2020-08-27T08:51:38Z</time>
      </trkpt>
      <trkpt lat="48.59986" lon="1.97721">
        <ele>108.77</ele>
        <time>2020-08-27T08:51:39Z</time>
      </trkpt>
      <trkpt lat="48.59986" lon="1.97721">
        <ele>109.25</ele>
        <time>2020-08-27T08:51:40Z</time>
      </trkpt>
      <trkpt lat="48.59986" lon="1.9772">
        <ele>109.25</ele>
        <time>2020-08-27T08:51:41Z</time>
      </trkpt>
      <trkpt lat="48.59986" lon="1.9772">
        <ele>108.77</ele>
        <time>2020-08-27T08:51:42Z</time>
      </trkpt>
      <trkpt lat="48.59986" lon="1.9772">
        <ele>109.25</ele>
        <time>2020-08-27T08:51:43Z</time>
      </trkpt>
      <trkpt lat="48.59986" lon="1.9772">
        <ele>109.25</ele>
        <time>2020-08-27T08:51:44Z</time>
      </trkpt>
      <trkpt lat="48.59985" lon="1.97719">
        <ele>109.25</ele>
        <time>2020-08-27T08:51:45Z</time>
      </trkpt>
      <trkpt lat="48.59985" lon="1.97718">
        <ele>109.25</ele>
        <time>2020-08-27T08:51:46Z</time>
      </trkpt>
      <trkpt lat="48.59984" lon="1.97717">
        <ele>109.25</ele>
        <time>2020-08-27T08:51:47Z</time>
      </trkpt>
      <trkpt lat="48.59984" lon="1.97716">
        <ele>109.25</ele>
        <time>2020-08-27T08:51:48Z</time>
      </trkpt>
      <trkpt lat="48.59983" lon="1.97715">
        <ele>109.25</ele>
        <time>2020-08-27T08:51:49Z</time>
      </trkpt>
      <trkpt lat="48.59983" lon="1.97714">
        <ele>109.25</ele>
        <time>2020-08-27T08:51:50Z</time>
      </trkpt>
      <trkpt lat="48.59982" lon="1.97713">
        <ele>109.73</ele>
        <time>2020-08-27T08:51:51Z</time>
      </trkpt>
      <trkpt lat="48.59981" lon="1.97712">
        <ele>109.73</ele>
        <time>2020-08-27T08:51:52Z</time>
      </trkpt>
      <trkpt lat="48.5998" lon="1.97711">
        <ele>109.25</ele>
        <time>2020-08-27T08:51:53Z</time>
      </trkpt>
      <trkpt lat="48.59979" lon="1.9771">
        <ele>109.25</ele>
        <time>2020-08-27T08:51:54Z</time>
      </trkpt>
      <trkpt lat="48.59978" lon="1.97709">
        <ele>109.25</ele>
        <time>2020-08-27T08:51:55Z</time>
      </trkpt>
      <trkpt lat="48.59977" lon="1.97709">
        <ele>109.25</ele>
        <time>2020-08-27T08:51:56Z</time>
      </trkpt>
      <trkpt lat="48.59977" lon="1.97708">
        <ele>109.25</ele>
        <time>2020-08-27T08:51:57Z</time>
      </trkpt>
      <trkpt lat="48.59977" lon="1.97707">
        <ele>109.73</ele>
        <time>2020-08-27T08:51:58Z</time>
      </trkpt>
      <trkpt lat="48.59976" lon="1.97707">
        <ele>109.25</ele>
        <time>2020-08-27T08:51:59Z</time>
      </trkpt>
      <trkpt lat="48.59976" lon="1.97706">
        <ele>109.25</ele>
        <time>2020-08-27T08:52:00Z</time>
      </trkpt>
      <trkpt lat="48.59976" lon="1.97705">
        <ele>109.25</ele>
        <time>2020-08-27T08:52:01Z</time>
      </trkpt>
      <trkpt lat="48.59976" lon="1.97703">
        <ele>110.21</ele>
        <time>2020-08-27T08:52:03Z</time>
      </trkpt>
      <trkpt lat="48.59976" lon="1.97703">
        <ele>109.73</ele>
        <time>2020-08-27T08:52:04Z</time>
      </trkpt>
      <trkpt lat="48.59976" lon="1.97703">
        <ele>109.73</ele>
        <time>2020-08-27T08:52:06Z</time>
      </trkpt>
      <trkpt lat="48.59978" lon="1.97703">
        <ele>109.25</ele>
        <time>2020-08-27T08:52:07Z</time>
      </trkpt>
      <trkpt lat="48.59979" lon="1.97702">
        <ele>109.25</ele>
        <time>2020-08-27T08:52:08Z</time>
      </trkpt>
      <trkpt lat="48.5998" lon="1.97701">
        <ele>109.73</ele>
        <time>2020-08-27T08:52:09Z</time>
      </trkpt>
      <trkpt lat="48.59981" lon="1.977">
        <ele>109.25</ele>
        <time>2020-08-27T08:52:10Z</time>
      </trkpt>
      <trkpt lat="48.59981" lon="1.97699">
        <ele>109.73</ele>
        <time>2020-08-27T08:52:11Z</time>
      </trkpt>
      <trkpt lat="48.59981" lon="1.97698">
        <ele>109.73</ele>
        <time>2020-08-27T08:52:12Z</time>
      </trkpt>
      <trkpt lat="48.59981" lon="1.97697">
        <ele>109.73</ele>
        <time>2020-08-27T08:52:13Z</time>
      </trkpt>
      <trkpt lat="48.59982" lon="1.97695">
        <ele>109.73</ele>
        <time>2020-08-27T08:52:14Z</time>
      </trkpt>
      <trkpt lat="48.59982" lon="1.97694">
        <ele>109.25</ele>
        <time>2020-08-27T08:52:15Z</time>
      </trkpt>
      <trkpt lat="48.59983" lon="1.97692">
        <ele>110.21</ele>
        <time>2020-08-27T08:52:16Z</time>
      </trkpt>
      <trkpt lat="48.59984" lon="1.9769">
        <ele>110.21</ele>
        <time>2020-08-27T08:52:17Z</time>
      </trkpt>
      <trkpt lat="48.59984" lon="1.97688">
        <ele>109.73</ele>
        <time>2020-08-27T08:52:18Z</time>
      </trkpt>
      <trkpt lat="48.59985" lon="1.97685">
        <ele>109.73</ele>
        <time>2020-08-27T08:52:19Z</time>
      </trkpt>
      <trkpt lat="48.59986" lon="1.97684">
        <ele>110.21</ele>
        <time>2020-08-27T08:52:20Z</time>
      </trkpt>
      <trkpt lat="48.59987" lon="1.97681">
        <ele>109.73</ele>
        <time>2020-08-27T08:52:21Z</time>
      </trkpt>
      <trkpt lat="48.59988" lon="1.97679">
        <ele>110.21</ele>
        <time>2020-08-27T08:52:22Z</time>
      </trkpt>
      <trkpt lat="48.59989" lon="1.97677">
        <ele>110.21</ele>
        <time>2020-08-27T08:52:23Z</time>
      </trkpt>
      <trkpt lat="48.5999" lon="1.97676">
        <ele>110.69</ele>
        <time>2020-08-27T08:52:24Z</time>
      </trkpt>
      <trkpt lat="48.59991" lon="1.97674">
        <ele>110.69</ele>
        <time>2020-08-27T08:52:25Z</time>
      </trkpt>
      <trkpt lat="48.59992" lon="1.97673">
        <ele>110.69</ele>
        <time>2020-08-27T08:52:26Z</time>
      </trkpt>
      <trkpt lat="48.59992" lon="1.97673">
        <ele>111.17</ele>
        <time>2020-08-27T08:52:27Z</time>
      </trkpt>
      <trkpt lat="48.59993" lon="1.97671">
        <ele>110.69</ele>
        <time>2020-08-27T08:52:28Z</time>
      </trkpt>
      <trkpt lat="48.59994" lon="1.9767">
        <ele>111.17</ele>
        <time>2020-08-27T08:52:29Z</time>
      </trkpt>
      <trkpt lat="48.59995" lon="1.97668">
        <ele>111.17</ele>
        <time>2020-08-27T08:52:30Z</time>
      </trkpt>
      <trkpt lat="48.59996" lon="1.97666">
        <ele>111.65</ele>
        <time>2020-08-27T08:52:31Z</time>
      </trkpt>
      <trkpt lat="48.59997" lon="1.97665">
        <ele>111.17</ele>
        <time>2020-08-27T08:52:32Z</time>
      </trkpt>
      <trkpt lat="48.59997" lon="1.97664">
        <ele>111.65</ele>
        <time>2020-08-27T08:52:33Z</time>
      </trkpt>
      <trkpt lat="48.59998" lon="1.97663">
        <ele>111.65</ele>
        <time>2020-08-27T08:52:34Z</time>
      </trkpt>
      <trkpt lat="48.59998" lon="1.97662">
        <ele>111.65</ele>
        <time>2020-08-27T08:52:35Z</time>
      </trkpt>
      <trkpt lat="48.59999" lon="1.97661">
        <ele>111.65</ele>
        <time>2020-08-27T08:52:36Z</time>
      </trkpt>
      <trkpt lat="48.6" lon="1.97659">
        <ele>112.13</ele>
        <time>2020-08-27T08:52:37Z</time>
      </trkpt>
      <trkpt lat="48.60002" lon="1.97658">
        <ele>112.13</ele>
        <time>2020-08-27T08:52:38Z</time>
      </trkpt>
      <trkpt lat="48.60003" lon="1.97656">
        <ele>112.13</ele>
        <time>2020-08-27T08:52:39Z</time>
      </trkpt>
      <trkpt lat="48.60004" lon="1.97654">
        <ele>112.61</ele>
        <time>2020-08-27T08:52:40Z</time>
      </trkpt>
      <trkpt lat="48.60005" lon="1.97653">
        <ele>112.61</ele>
        <time>2020-08-27T08:52:41Z</time>
      </trkpt>
      <trkpt lat="48.60006" lon="1.9765">
        <ele>112.61</ele>
        <time>2020-08-27T08:52:42Z</time>
      </trkpt>
      <trkpt lat="48.60006" lon="1.97648">
        <ele>112.61</ele>
        <time>2020-08-27T08:52:43Z</time>
      </trkpt>
      <trkpt lat="48.60007" lon="1.97646">
        <ele>112.61</ele>
        <time>2020-08-27T08:52:44Z</time>
      </trkpt>
      <trkpt lat="48.60007" lon="1.97644">
        <ele>112.61</ele>
        <time>2020-08-27T08:52:45Z</time>
      </trkpt>
      <trkpt lat="48.60008" lon="1.97642">
        <ele>113.57</ele>
        <time>2020-08-27T08:52:46Z</time>
      </trkpt>
      <trkpt lat="48.60008" lon="1.97641">
        <ele>113.09</ele>
        <time>2020-08-27T08:52:47Z</time>
      </trkpt>
      <trkpt lat="48.60009" lon="1.97639">
        <ele>113.09</ele>
        <time>2020-08-27T08:52:48Z</time>
      </trkpt>
      <trkpt lat="48.60009" lon="1.97638">
        <ele>113.57</ele>
        <time>2020-08-27T08:52:49Z</time>
      </trkpt>
      <trkpt lat="48.60009" lon="1.97636">
        <ele>113.57</ele>
        <time>2020-08-27T08:52:50Z</time>
      </trkpt>
      <trkpt lat="48.6001" lon="1.97634">
        <ele>113.09</ele>
        <time>2020-08-27T08:52:51Z</time>
      </trkpt>
      <trkpt lat="48.60011" lon="1.97632">
        <ele>113.57</ele>
        <time>2020-08-27T08:52:52Z</time>
      </trkpt>
      <trkpt lat="48.60012" lon="1.9763">
        <ele>114.05</ele>
        <time>2020-08-27T08:52:53Z</time>
      </trkpt>
      <trkpt lat="48.60014" lon="1.97627">
        <ele>113.57</ele>
        <time>2020-08-27T08:52:54Z</time>
      </trkpt>
      <trkpt lat="48.60015" lon="1.97625">
        <ele>114.05</ele>
        <time>2020-08-27T08:52:55Z</time>
      </trkpt>
      <trkpt lat="48.60016" lon="1.97623">
        <ele>113.57</ele>
        <time>2020-08-27T08:52:56Z</time>
      </trkpt>
      <trkpt lat="48.60016" lon="1.97621">
        <ele>113.57</ele>
        <time>2020-08-27T08:52:57Z</time>
      </trkpt>
      <trkpt lat="48.60017" lon="1.97619">
        <ele>114.05</ele>
        <time>2020-08-27T08:52:58Z</time>
      </trkpt>
      <trkpt lat="48.60018" lon="1.97617">
        <ele>114.05</ele>
        <time>2020-08-27T08:52:59Z</time>
      </trkpt>
      <trkpt lat="48.60019" lon="1.97616">
        <ele>114.05</ele>
        <time>2020-08-27T08:53:00Z</time>
      </trkpt>
      <trkpt lat="48.60021" lon="1.97614">
        <ele>114.05</ele>
        <time>2020-08-27T08:53:01Z</time>
      </trkpt>
      <trkpt lat="48.60023" lon="1.97613">
        <ele>114.05</ele>
        <time>2020-08-27T08:53:02Z</time>
      </trkpt>
      <trkpt lat="48.60024" lon="1.97612">
        <ele>114.53</ele>
        <time>2020-08-27T08:53:03Z</time>
      </trkpt>
      <trkpt lat="48.60026" lon="1.9761">
        <ele>114.53</ele>
        <time>2020-08-27T08:53:04Z</time>
      </trkpt>
      <trkpt lat="48.60028" lon="1.97609">
        <ele>114.05</ele>
        <time>2020-08-27T08:53:05Z</time>
      </trkpt>
      <trkpt lat="48.60029" lon="1.97608">
        <ele>114.53</ele>
        <time>2020-08-27T08:53:06Z</time>
      </trkpt>
      <trkpt lat="48.6003" lon="1.97607">
        <ele>114.53</ele>
        <time>2020-08-27T08:53:07Z</time>
      </trkpt>
      <trkpt lat="48.60031" lon="1.97605">
        <ele>114.53</ele>
        <time>2020-08-27T08:53:08Z</time>
      </trkpt>
      <trkpt lat="48.60033" lon="1.97603">
        <ele>114.53</ele>
        <time>2020-08-27T08:53:09Z</time>
      </trkpt>
      <trkpt lat="48.60034" lon="1.97601">
        <ele>114.53</ele>
        <time>2020-08-27T08:53:10Z</time>
      </trkpt>
      <trkpt lat="48.60035" lon="1.97598">
        <ele>114.53</ele>
        <time>2020-08-27T08:53:11Z</time>
      </trkpt>
      <trkpt lat="48.60035" lon="1.97596">
        <ele>114.53</ele>
        <time>2020-08-27T08:53:12Z</time>
      </trkpt>
      <trkpt lat="48.60036" lon="1.97594">
        <ele>115.01</ele>
        <time>2020-08-27T08:53:13Z</time>
      </trkpt>
      <trkpt lat="48.60036" lon="1.97592">
        <ele>115.01</ele>
        <time>2020-08-27T08:53:14Z</time>
      </trkpt>
      <trkpt lat="48.60037" lon="1.97591">
        <ele>115.01</ele>
        <time>2020-08-27T08:53:15Z</time>
      </trkpt>
      <trkpt lat="48.60037" lon="1.97589">
        <ele>114.53</ele>
        <time>2020-08-27T08:53:16Z</time>
      </trkpt>
      <trkpt lat="48.60038" lon="1.97588">
        <ele>115.01</ele>
        <time>2020-08-27T08:53:17Z</time>
      </trkpt>
      <trkpt lat="48.60038" lon="1.97586">
        <ele>115.01</ele>
        <time>2020-08-27T08:53:18Z</time>
      </trkpt>
      <trkpt lat="48.60039" lon="1.97585">
        <ele>115.01</ele>
        <time>2020-08-27T08:53:19Z</time>
      </trkpt>
      <trkpt lat="48.60039" lon="1.97583">
        <ele>115.01</ele>
        <time>2020-08-27T08:53:20Z</time>
      </trkpt>
      <trkpt lat="48.6004" lon="1.97582">
        <ele>115.5</ele>
        <time>2020-08-27T08:53:21Z</time>
      </trkpt>
      <trkpt lat="48.60041" lon="1.9758">
        <ele>115.5</ele>
        <time>2020-08-27T08:53:22Z</time>
      </trkpt>
      <trkpt lat="48.60043" lon="1.97578">
        <ele>115.5</ele>
        <time>2020-08-27T08:53:23Z</time>
      </trkpt>
      <trkpt lat="48.60044" lon="1.97576">
        <ele>115.5</ele>
        <time>2020-08-27T08:53:24Z</time>
      </trkpt>
      <trkpt lat="48.60046" lon="1.97574">
        <ele>115.5</ele>
        <time>2020-08-27T08:53:25Z</time>
      </trkpt>
      <trkpt lat="48.60047" lon="1.97572">
        <ele>115.5</ele>
        <time>2020-08-27T08:53:26Z</time>
      </trkpt>
      <trkpt lat="48.60048" lon="1.97571">
        <ele>115.98</ele>
        <time>2020-08-27T08:53:27Z</time>
      </trkpt>
      <trkpt lat="48.6005" lon="1.97569">
        <ele>115.5</ele>
        <time>2020-08-27T08:53:28Z</time>
      </trkpt>
      <trkpt lat="48.60051" lon="1.97567">
        <ele>115.5</ele>
        <time>2020-08-27T08:53:29Z</time>
      </trkpt>
      <trkpt lat="48.60052" lon="1.97565">
        <ele>115.98</ele>
        <time>2020-08-27T08:53:30Z</time>
      </trkpt>
      <trkpt lat="48.60053" lon="1.97563">
        <ele>116.46</ele>
        <time>2020-08-27T08:53:31Z</time>
      </trkpt>
      <trkpt lat="48.60054" lon="1.97561">
        <ele>115.98</ele>
        <time>2020-08-27T08:53:32Z</time>
      </trkpt>
      <trkpt lat="48.60054" lon="1.97559">
        <ele>115.98</ele>
        <time>2020-08-27T08:53:33Z</time>
      </trkpt>
      <trkpt lat="48.60055" lon="1.97557">
        <ele>116.46</ele>
        <time>2020-08-27T08:53:34Z</time>
      </trkpt>
      <trkpt lat="48.60056" lon="1.97556">
        <ele>116.46</ele>
        <time>2020-08-27T08:53:35Z</time>
      </trkpt>
      <trkpt lat="48.60056" lon="1.97555">
        <ele>116.46</ele>
        <time>2020-08-27T08:53:36Z</time>
      </trkpt>
      <trkpt lat="48.60057" lon="1.97553">
        <ele>117.42</ele>
        <time>2020-08-27T08:53:37Z</time>
      </trkpt>
      <trkpt lat="48.60057" lon="1.97551">
        <ele>116.46</ele>
        <time>2020-08-27T08:53:38Z</time>
      </trkpt>
      <trkpt lat="48.60057" lon="1.97549">
        <ele>116.46</ele>
        <time>2020-08-27T08:53:39Z</time>
      </trkpt>
      <trkpt lat="48.60057" lon="1.97548">
        <ele>116.94</ele>
        <time>2020-08-27T08:53:40Z</time>
      </trkpt>
      <trkpt lat="48.60058" lon="1.97547">
        <ele>116.94</ele>
        <time>2020-08-27T08:53:41Z</time>
      </trkpt>
      <trkpt lat="48.60058" lon="1.97546">
        <ele>116.94</ele>
        <time>2020-08-27T08:53:42Z</time>
      </trkpt>
      <trkpt lat="48.60058" lon="1.97544">
        <ele>116.94</ele>
        <time>2020-08-27T08:53:43Z</time>
      </trkpt>
      <trkpt lat="48.60059" lon="1.97543">
        <ele>116.46</ele>
        <time>2020-08-27T08:53:44Z</time>
      </trkpt>
      <trkpt lat="48.60059" lon="1.97541">
        <ele>116.94</ele>
        <time>2020-08-27T08:53:45Z</time>
      </trkpt>
      <trkpt lat="48.60059" lon="1.9754">
        <ele>117.42</ele>
        <time>2020-08-27T08:53:46Z</time>
      </trkpt>
      <trkpt lat="48.6006" lon="1.97538">
        <ele>117.42</ele>
        <time>2020-08-27T08:53:47Z</time>
      </trkpt>
      <trkpt lat="48.60061" lon="1.97536">
        <ele>117.9</ele>
        <time>2020-08-27T08:53:48Z</time>
      </trkpt>
      <trkpt lat="48.60061" lon="1.97535">
        <ele>117.42</ele>
        <time>2020-08-27T08:53:49Z</time>
      </trkpt>
      <trkpt lat="48.60062" lon="1.97533">
        <ele>117.42</ele>
        <time>2020-08-27T08:53:50Z</time>
      </trkpt>
      <trkpt lat="48.60063" lon="1.97531">
        <ele>117.42</ele>
        <time>2020-08-27T08:53:51Z</time>
      </trkpt>
      <trkpt lat="48.60065" lon="1.97529">
        <ele>117.9</ele>
        <time>2020-08-27T08:53:52Z</time>
      </trkpt>
      <trkpt lat="48.60066" lon="1.97527">
        <ele>117.9</ele>
        <time>2020-08-27T08:53:53Z</time>
      </trkpt>
      <trkpt lat="48.60067" lon="1.97525">
        <ele>117.9</ele>
        <time>2020-08-27T08:53:54Z</time>
      </trkpt>
      <trkpt lat="48.60068" lon="1.97523">
        <ele>117.42</ele>
        <time>2020-08-27T08:53:55Z</time>
      </trkpt>
      <trkpt lat="48.6007" lon="1.97521">
        <ele>117.9</ele>
        <time>2020-08-27T08:53:56Z</time>
      </trkpt>
      <trkpt lat="48.60071" lon="1.97519">
        <ele>118.38</ele>
        <time>2020-08-27T08:53:57Z</time>
      </trkpt>
      <trkpt lat="48.60072" lon="1.97516">
        <ele>117.9</ele>
        <time>2020-08-27T08:53:58Z</time>
      </trkpt>
      <trkpt lat="48.60073" lon="1.97514">
        <ele>118.38</ele>
        <time>2020-08-27T08:53:59Z</time>
      </trkpt>
      <trkpt lat="48.60074" lon="1.97512">
        <ele>118.38</ele>
        <time>2020-08-27T08:54:00Z</time>
      </trkpt>
      <trkpt lat="48.60075" lon="1.9751">
        <ele>118.38</ele>
        <time>2020-08-27T08:54:01Z</time>
      </trkpt>
      <trkpt lat="48.60076" lon="1.97508">
        <ele>118.38</ele>
        <time>2020-08-27T08:54:02Z</time>
      </trkpt>
      <trkpt lat="48.60077" lon="1.97506">
        <ele>118.38</ele>
        <time>2020-08-27T08:54:03Z</time>
      </trkpt>
      <trkpt lat="48.60078" lon="1.97503">
        <ele>118.86</ele>
        <time>2020-08-27T08:54:04Z</time>
      </trkpt>
      <trkpt lat="48.60079" lon="1.97501">
        <ele>118.86</ele>
        <time>2020-08-27T08:54:05Z</time>
      </trkpt>
      <trkpt lat="48.6008" lon="1.97499">
        <ele>118.86</ele>
        <time>2020-08-27T08:54:06Z</time>
      </trkpt>
      <trkpt lat="48.60081" lon="1.97498">
        <ele>118.86</ele>
        <time>2020-08-27T08:54:07Z</time>
      </trkpt>
      <trkpt lat="48.60082" lon="1.97496">
        <ele>119.34</ele>
        <time>2020-08-27T08:54:08Z</time>
      </trkpt>
      <trkpt lat="48.60083" lon="1.97495">
        <ele>119.34</ele>
        <time>2020-08-27T08:54:09Z</time>
      </trkpt>
      <trkpt lat="48.60084" lon="1.97494">
        <ele>119.34</ele>
        <time>2020-08-27T08:54:10Z</time>
      </trkpt>
      <trkpt lat="48.60085" lon="1.97492">
        <ele>119.34</ele>
        <time>2020-08-27T08:54:11Z</time>
      </trkpt>
      <trkpt lat="48.60086" lon="1.9749">
        <ele>120.3</ele>
        <time>2020-08-27T08:54:12Z</time>
      </trkpt>
      <trkpt lat="48.60087" lon="1.97487">
        <ele>119.82</ele>
        <time>2020-08-27T08:54:13Z</time>
      </trkpt>
      <trkpt lat="48.60087" lon="1.97483">
        <ele>119.82</ele>
        <time>2020-08-27T08:54:14Z</time>
      </trkpt>
      <trkpt lat="48.60088" lon="1.97481">
        <ele>119.82</ele>
        <time>2020-08-27T08:54:15Z</time>
      </trkpt>
      <trkpt lat="48.60088" lon="1.9748">
        <ele>120.3</ele>
        <time>2020-08-27T08:54:16Z</time>
      </trkpt>
      <trkpt lat="48.60089" lon="1.97478">
        <ele>119.82</ele>
        <time>2020-08-27T08:54:17Z</time>
      </trkpt>
      <trkpt lat="48.60089" lon="1.97476">
        <ele>120.3</ele>
        <time>2020-08-27T08:54:18Z</time>
      </trkpt>
      <trkpt lat="48.6009" lon="1.97475">
        <ele>120.78</ele>
        <time>2020-08-27T08:54:19Z</time>
      </trkpt>
      <trkpt lat="48.6009" lon="1.97474">
        <ele>120.78</ele>
        <time>2020-08-27T08:54:20Z</time>
      </trkpt>
      <trkpt lat="48.60091" lon="1.97472">
        <ele>120.3</ele>
        <time>2020-08-27T08:54:21Z</time>
      </trkpt>
      <trkpt lat="48.60092" lon="1.9747">
        <ele>120.78</ele>
        <time>2020-08-27T08:54:22Z</time>
      </trkpt>
      <trkpt lat="48.60093" lon="1.97468">
        <ele>121.26</ele>
        <time>2020-08-27T08:54:23Z</time>
      </trkpt>
      <trkpt lat="48.60093" lon="1.97467">
        <ele>121.26</ele>
        <time>2020-08-27T08:54:24Z</time>
      </trkpt>
      <trkpt lat="48.60093" lon="1.97465">
        <ele>121.26</ele>
        <time>2020-08-27T08:54:25Z</time>
      </trkpt>
      <trkpt lat="48.60093" lon="1.97464">
        <ele>121.74</ele>
        <time>2020-08-27T08:54:26Z</time>
      </trkpt>
      <trkpt lat="48.60093" lon="1.97463">
        <ele>121.74</ele>
        <time>2020-08-27T08:54:27Z</time>
      </trkpt>
      <trkpt lat="48.60094" lon="1.97461">
        <ele>121.74</ele>
        <time>2020-08-27T08:54:28Z</time>
      </trkpt>
      <trkpt lat="48.60094" lon="1.9746">
        <ele>121.74</ele>
        <time>2020-08-27T08:54:29Z</time>
      </trkpt>
      <trkpt lat="48.60095" lon="1.97458">
        <ele>121.74</ele>
        <time>2020-08-27T08:54:30Z</time>
      </trkpt>
      <trkpt lat="48.60095" lon="1.97457">
        <ele>122.22</ele>
        <time>2020-08-27T08:54:31Z</time>
      </trkpt>
      <trkpt lat="48.60096" lon="1.97455">
        <ele>122.22</ele>
        <time>2020-08-27T08:54:32Z</time>
      </trkpt>
      <trkpt lat="48.60097" lon="1.97454">
        <ele>122.22</ele>
        <time>2020-08-27T08:54:33Z</time>
      </trkpt>
      <trkpt lat="48.60097" lon="1.97452">
        <ele>123.19</ele>
        <time>2020-08-27T08:54:34Z</time>
      </trkpt>
      <trkpt lat="48.60098" lon="1.97451">
        <ele>123.19</ele>
        <time>2020-08-27T08:54:35Z</time>
      </trkpt>
      <trkpt lat="48.60099" lon="1.97449">
        <ele>123.67</ele>
        <time>2020-08-27T08:54:36Z</time>
      </trkpt>
      <trkpt lat="48.601" lon="1.97448">
        <ele>123.67</ele>
        <time>2020-08-27T08:54:37Z</time>
      </trkpt>
      <trkpt lat="48.601" lon="1.97446">
        <ele>123.67</ele>
        <time>2020-08-27T08:54:38Z</time>
      </trkpt>
      <trkpt lat="48.60101" lon="1.97445">
        <ele>123.67</ele>
        <time>2020-08-27T08:54:39Z</time>
      </trkpt>
      <trkpt lat="48.60101" lon="1.97443">
        <ele>124.15</ele>
        <time>2020-08-27T08:54:40Z</time>
      </trkpt>
      <trkpt lat="48.60101" lon="1.97441">
        <ele>124.15</ele>
        <time>2020-08-27T08:54:41Z</time>
      </trkpt>
      <trkpt lat="48.60101" lon="1.9744">
        <ele>124.15</ele>
        <time>2020-08-27T08:54:42Z</time>
      </trkpt>
      <trkpt lat="48.60102" lon="1.97438">
        <ele>125.11</ele>
        <time>2020-08-27T08:54:43Z</time>
      </trkpt>
      <trkpt lat="48.60104" lon="1.97436">
        <ele>124.63</ele>
        <time>2020-08-27T08:54:44Z</time>
      </trkpt>
      <trkpt lat="48.60105" lon="1.97434">
        <ele>125.11</ele>
        <time>2020-08-27T08:54:45Z</time>
      </trkpt>
      <trkpt lat="48.60106" lon="1.97433">
        <ele>125.11</ele>
        <time>2020-08-27T08:54:46Z</time>
      </trkpt>
      <trkpt lat="48.60108" lon="1.97431">
        <ele>126.07</ele>
        <time>2020-08-27T08:54:47Z</time>
      </trkpt>
      <trkpt lat="48.60109" lon="1.9743">
        <ele>126.07</ele>
        <time>2020-08-27T08:54:48Z</time>
      </trkpt>
      <trkpt lat="48.60111" lon="1.97428">
        <ele>125.59</ele>
        <time>2020-08-27T08:54:49Z</time>
      </trkpt>
      <trkpt lat="48.60112" lon="1.97426">
        <ele>126.07</ele>
        <time>2020-08-27T08:54:50Z</time>
      </trkpt>
      <trkpt lat="48.60114" lon="1.97424">
        <ele>126.55</ele>
        <time>2020-08-27T08:54:51Z</time>
      </trkpt>
      <trkpt lat="48.60115" lon="1.97423">
        <ele>126.55</ele>
        <time>2020-08-27T08:54:52Z</time>
      </trkpt>
      <trkpt lat="48.60115" lon="1.97422">
        <ele>126.55</ele>
        <time>2020-08-27T08:54:53Z</time>
      </trkpt>
      <trkpt lat="48.60116" lon="1.97421">
        <ele>127.03</ele>
        <time>2020-08-27T08:54:54Z</time>
      </trkpt>
      <trkpt lat="48.60116" lon="1.9742">
        <ele>127.03</ele>
        <time>2020-08-27T08:54:55Z</time>
      </trkpt>
      <trkpt lat="48.60117" lon="1.97419">
        <ele>127.51</ele>
        <time>2020-08-27T08:54:56Z</time>
      </trkpt>
      <trkpt lat="48.60118" lon="1.97418">
        <ele>127.99</ele>
        <time>2020-08-27T08:54:57Z</time>
      </trkpt>
      <trkpt lat="48.60119" lon="1.97416">
        <ele>127.99</ele>
        <time>2020-08-27T08:54:58Z</time>
      </trkpt>
      <trkpt lat="48.60119" lon="1.97413">
        <ele>128.47</ele>
        <time>2020-08-27T08:54:59Z</time>
      </trkpt>
      <trkpt lat="48.6012" lon="1.97412">
        <ele>128.47</ele>
        <time>2020-08-27T08:55:00Z</time>
      </trkpt>
      <trkpt lat="48.6012" lon="1.9741">
        <ele>128.95</ele>
        <time>2020-08-27T08:55:01Z</time>
      </trkpt>
      <trkpt lat="48.60121" lon="1.97409">
        <ele>128.95</ele>
        <time>2020-08-27T08:55:02Z</time>
      </trkpt>
      <trkpt lat="48.60122" lon="1.97408">
        <ele>128.95</ele>
        <time>2020-08-27T08:55:03Z</time>
      </trkpt>
      <trkpt lat="48.60122" lon="1.97407">
        <ele>129.92</ele>
        <time>2020-08-27T08:55:04Z</time>
      </trkpt>
      <trkpt lat="48.60122" lon="1.97406">
        <ele>129.43</ele>
        <time>2020-08-27T08:55:05Z</time>
      </trkpt>
      <trkpt lat="48.60123" lon="1.97405">
        <ele>129.92</ele>
        <time>2020-08-27T08:55:06Z</time>
      </trkpt>
      <trkpt lat="48.60123" lon="1.97404">
        <ele>130.4</ele>
        <time>2020-08-27T08:55:07Z</time>
      </trkpt>
      <trkpt lat="48.60123" lon="1.97403">
        <ele>130.4</ele>
        <time>2020-08-27T08:55:08Z</time>
      </trkpt>
      <trkpt lat="48.60123" lon="1.97402">
        <ele>130.88</ele>
        <time>2020-08-27T08:55:09Z</time>
      </trkpt>
      <trkpt lat="48.60124" lon="1.97401">
        <ele>131.36</ele>
        <time>2020-08-27T08:55:10Z</time>
      </trkpt>
      <trkpt lat="48.60124" lon="1.97399">
        <ele>130.88</ele>
        <time>2020-08-27T08:55:11Z</time>
      </trkpt>
      <trkpt lat="48.60125" lon="1.97398">
        <ele>131.36</ele>
        <time>2020-08-27T08:55:12Z</time>
      </trkpt>
      <trkpt lat="48.60126" lon="1.97396">
        <ele>131.36</ele>
        <time>2020-08-27T08:55:13Z</time>
      </trkpt>
      <trkpt lat="48.60127" lon="1.97395">
        <ele>131.36</ele>
        <time>2020-08-27T08:55:14Z</time>
      </trkpt>
      <trkpt lat="48.60128" lon="1.97394">
        <ele>131.84</ele>
        <time>2020-08-27T08:55:15Z</time>
      </trkpt>
      <trkpt lat="48.60128" lon="1.97393">
        <ele>132.32</ele>
        <time>2020-08-27T08:55:16Z</time>
      </trkpt>
      <trkpt lat="48.60129" lon="1.97392">
        <ele>132.32</ele>
        <time>2020-08-27T08:55:17Z</time>
      </trkpt>
      <trkpt lat="48.60129" lon="1.97391">
        <ele>132.8</ele>
        <time>2020-08-27T08:55:18Z</time>
      </trkpt>
      <trkpt lat="48.6013" lon="1.9739">
        <ele>132.32</ele>
        <time>2020-08-27T08:55:19Z</time>
      </trkpt>
      <trkpt lat="48.60131" lon="1.9739">
        <ele>133.28</ele>
        <time>2020-08-27T08:55:20Z</time>
      </trkpt>
      <trkpt lat="48.60131" lon="1.97388">
        <ele>133.28</ele>
        <time>2020-08-27T08:55:21Z</time>
      </trkpt>
      <trkpt lat="48.60132" lon="1.97387">
        <ele>133.28</ele>
        <time>2020-08-27T08:55:22Z</time>
      </trkpt>
      <trkpt lat="48.60133" lon="1.97386">
        <ele>133.76</ele>
        <time>2020-08-27T08:55:23Z</time>
      </trkpt>
      <trkpt lat="48.60134" lon="1.97384">
        <ele>133.76</ele>
        <time>2020-08-27T08:55:24Z</time>
      </trkpt>
      <trkpt lat="48.60135" lon="1.97382">
        <ele>134.24</ele>
        <time>2020-08-27T08:55:25Z</time>
      </trkpt>
      <trkpt lat="48.60136" lon="1.9738">
        <ele>134.24</ele>
        <time>2020-08-27T08:55:26Z</time>
      </trkpt>
      <trkpt lat="48.60136" lon="1.97379">
        <ele>134.72</ele>
        <time>2020-08-27T08:55:27Z</time>
      </trkpt>
      <trkpt lat="48.60137" lon="1.97377">
        <ele>134.24</ele>
        <time>2020-08-27T08:55:28Z</time>
      </trkpt>
      <trkpt lat="48.60138" lon="1.97375">
        <ele>134.72</ele>
        <time>2020-08-27T08:55:29Z</time>
      </trkpt>
      <trkpt lat="48.6014" lon="1.97373">
        <ele>134.72</ele>
        <time>2020-08-27T08:55:30Z</time>
      </trkpt>
      <trkpt lat="48.6014" lon="1.97371">
        <ele>134.72</ele>
        <time>2020-08-27T08:55:31Z</time>
      </trkpt>
      <trkpt lat="48.60141" lon="1.9737">
        <ele>135.2</ele>
        <time>2020-08-27T08:55:32Z</time>
      </trkpt>
      <trkpt lat="48.60141" lon="1.97369">
        <ele>134.72</ele>
        <time>2020-08-27T08:55:33Z</time>
      </trkpt>
      <trkpt lat="48.60142" lon="1.97367">
        <ele>135.2</ele>
        <time>2020-08-27T08:55:34Z</time>
      </trkpt>
      <trkpt lat="48.60143" lon="1.97365">
        <ele>135.68</ele>
        <time>2020-08-27T08:55:35Z</time>
      </trkpt>
      <trkpt lat="48.60143" lon="1.97364">
        <ele>135.2</ele>
        <time>2020-08-27T08:55:36Z</time>
      </trkpt>
      <trkpt lat="48.60144" lon="1.97362">
        <ele>136.64</ele>
        <time>2020-08-27T08:55:37Z</time>
      </trkpt>
      <trkpt lat="48.60144" lon="1.9736">
        <ele>135.68</ele>
        <time>2020-08-27T08:55:38Z</time>
      </trkpt>
      <trkpt lat="48.60144" lon="1.97358">
        <ele>135.68</ele>
        <time>2020-08-27T08:55:39Z</time>
      </trkpt>
      <trkpt lat="48.60144" lon="1.97357">
        <ele>136.16</ele>
        <time>2020-08-27T08:55:40Z</time>
      </trkpt>
      <trkpt lat="48.60145" lon="1.97355">
        <ele>136.16</ele>
        <time>2020-08-27T08:55:41Z</time>
      </trkpt>
      <trkpt lat="48.60146" lon="1.97353">
        <ele>136.16</ele>
        <time>2020-08-27T08:55:42Z</time>
      </trkpt>
      <trkpt lat="48.60146" lon="1.97352">
        <ele>136.16</ele>
        <time>2020-08-27T08:55:43Z</time>
      </trkpt>
      <trkpt lat="48.60146" lon="1.9735">
        <ele>136.16</ele>
        <time>2020-08-27T08:55:44Z</time>
      </trkpt>
      <trkpt lat="48.60147" lon="1.97348">
        <ele>136.16</ele>
        <time>2020-08-27T08:55:45Z</time>
      </trkpt>
      <trkpt lat="48.60148" lon="1.97346">
        <ele>136.64</ele>
        <time>2020-08-27T08:55:46Z</time>
      </trkpt>
      <trkpt lat="48.60149" lon="1.97345">
        <ele>136.64</ele>
        <time>2020-08-27T08:55:47Z</time>
      </trkpt>
      <trkpt lat="48.6015" lon="1.97344">
        <ele>136.64</ele>
        <time>2020-08-27T08:55:48Z</time>
      </trkpt>
      <trkpt lat="48.6015" lon="1.97343">
        <ele>136.64</ele>
        <time>2020-08-27T08:55:49Z</time>
      </trkpt>
      <trkpt lat="48.60151" lon="1.97341">
        <ele>136.64</ele>
        <time>2020-08-27T08:55:50Z</time>
      </trkpt>
      <trkpt lat="48.60151" lon="1.9734">
        <ele>136.16</ele>
        <time>2020-08-27T08:55:51Z</time>
      </trkpt>
      <trkpt lat="48.60152" lon="1.97338">
        <ele>136.64</ele>
        <time>2020-08-27T08:55:52Z</time>
      </trkpt>
      <trkpt lat="48.60151" lon="1.97337">
        <ele>136.64</ele>
        <time>2020-08-27T08:55:53Z</time>
      </trkpt>
      <trkpt lat="48.6015" lon="1.97335">
        <ele>136.16</ele>
        <time>2020-08-27T08:55:54Z</time>
      </trkpt>
      <trkpt lat="48.6015" lon="1.97333">
        <ele>137.61</ele>
        <time>2020-08-27T08:55:55Z</time>
      </trkpt>
      <trkpt lat="48.6015" lon="1.97331">
        <ele>137.13</ele>
        <time>2020-08-27T08:55:56Z</time>
      </trkpt>
      <trkpt lat="48.6015" lon="1.9733">
        <ele>137.13</ele>
        <time>2020-08-27T08:55:57Z</time>
      </trkpt>
      <trkpt lat="48.6015" lon="1.97329">
        <ele>137.13</ele>
        <time>2020-08-27T08:55:58Z</time>
      </trkpt>
      <trkpt lat="48.60151" lon="1.97328">
        <ele>137.61</ele>
        <time>2020-08-27T08:55:59Z</time>
      </trkpt>
      <trkpt lat="48.60151" lon="1.97327">
        <ele>136.64</ele>
        <time>2020-08-27T08:56:00Z</time>
      </trkpt>
      <trkpt lat="48.60152" lon="1.97326">
        <ele>138.09</ele>
        <time>2020-08-27T08:56:01Z</time>
      </trkpt>
      <trkpt lat="48.60153" lon="1.97324">
        <ele>137.61</ele>
        <time>2020-08-27T08:56:02Z</time>
      </trkpt>
      <trkpt lat="48.60153" lon="1.97323">
        <ele>137.61</ele>
        <time>2020-08-27T08:56:03Z</time>
      </trkpt>
      <trkpt lat="48.60154" lon="1.97322">
        <ele>137.61</ele>
        <time>2020-08-27T08:56:04Z</time>
      </trkpt>
      <trkpt lat="48.60155" lon="1.97322">
        <ele>137.61</ele>
        <time>2020-08-27T08:56:05Z</time>
      </trkpt>
      <trkpt lat="48.60156" lon="1.97322">
        <ele>137.61</ele>
        <time>2020-08-27T08:56:06Z</time>
      </trkpt>
      <trkpt lat="48.60157" lon="1.97321">
        <ele>137.61</ele>
        <time>2020-08-27T08:56:07Z</time>
      </trkpt>
      <trkpt lat="48.60158" lon="1.97321">
        <ele>137.13</ele>
        <time>2020-08-27T08:56:08Z</time>
      </trkpt>
      <trkpt lat="48.6016" lon="1.97321">
        <ele>137.13</ele>
        <time>2020-08-27T08:56:09Z</time>
      </trkpt>
      <trkpt lat="48.60161" lon="1.9732">
        <ele>137.13</ele>
        <time>2020-08-27T08:56:10Z</time>
      </trkpt>
      <trkpt lat="48.60161" lon="1.97319">
        <ele>137.61</ele>
        <time>2020-08-27T08:56:11Z</time>
      </trkpt>
      <trkpt lat="48.60162" lon="1.97318">
        <ele>137.61</ele>
        <time>2020-08-27T08:56:12Z</time>
      </trkpt>
      <trkpt lat="48.60162" lon="1.97317">
        <ele>137.13</ele>
        <time>2020-08-27T08:56:13Z</time>
      </trkpt>
      <trkpt lat="48.60162" lon="1.97316">
        <ele>137.13</ele>
        <time>2020-08-27T08:56:14Z</time>
      </trkpt>
      <trkpt lat="48.60163" lon="1.97315">
        <ele>137.13</ele>
        <time>2020-08-27T08:56:15Z</time>
      </trkpt>
      <trkpt lat="48.60163" lon="1.97314">
        <ele>137.13</ele>
        <time>2020-08-27T08:56:16Z</time>
      </trkpt>
      <trkpt lat="48.60163" lon="1.97313">
        <ele>137.61</ele>
        <time>2020-08-27T08:56:17Z</time>
      </trkpt>
      <trkpt lat="48.60163" lon="1.97312">
        <ele>137.61</ele>
        <time>2020-08-27T08:56:18Z</time>
      </trkpt>
      <trkpt lat="48.60164" lon="1.9731">
        <ele>137.61</ele>
        <time>2020-08-27T08:56:19Z</time>
      </trkpt>
      <trkpt lat="48.60165" lon="1.97309">
        <ele>137.13</ele>
        <time>2020-08-27T08:56:20Z</time>
      </trkpt>
      <trkpt lat="48.60165" lon="1.97307">
        <ele>137.61</ele>
        <time>2020-08-27T08:56:21Z</time>
      </trkpt>
      <trkpt lat="48.60166" lon="1.97306">
        <ele>137.61</ele>
        <time>2020-08-27T08:56:22Z</time>
      </trkpt>
      <trkpt lat="48.60167" lon="1.97304">
        <ele>137.61</ele>
        <time>2020-08-27T08:56:23Z</time>
      </trkpt>
      <trkpt lat="48.60167" lon="1.97302">
        <ele>137.61</ele>
        <time>2020-08-27T08:56:24Z</time>
      </trkpt>
      <trkpt lat="48.60168" lon="1.97301">
        <ele>137.13</ele>
        <time>2020-08-27T08:56:25Z</time>
      </trkpt>
      <trkpt lat="48.60168" lon="1.97299">
        <ele>137.13</ele>
        <time>2020-08-27T08:56:26Z</time>
      </trkpt>
      <trkpt lat="48.60169" lon="1.97298">
        <ele>137.61</ele>
        <time>2020-08-27T08:56:27Z</time>
      </trkpt>
      <trkpt lat="48.6017" lon="1.97296">
        <ele>137.61</ele>
        <time>2020-08-27T08:56:28Z</time>
      </trkpt>
      <trkpt lat="48.60172" lon="1.97294">
        <ele>137.61</ele>
        <time>2020-08-27T08:56:29Z</time>
      </trkpt>
      <trkpt lat="48.60173" lon="1.97292">
        <ele>137.61</ele>
        <time>2020-08-27T08:56:30Z</time>
      </trkpt>
      <trkpt lat="48.60174" lon="1.97291">
        <ele>137.61</ele>
        <time>2020-08-27T08:56:31Z</time>
      </trkpt>
      <trkpt lat="48.60174" lon="1.97289">
        <ele>137.13</ele>
        <time>2020-08-27T08:56:32Z</time>
      </trkpt>
      <trkpt lat="48.60175" lon="1.97287">
        <ele>137.13</ele>
        <time>2020-08-27T08:56:33Z</time>
      </trkpt>
      <trkpt lat="48.60176" lon="1.97285">
        <ele>137.13</ele>
        <time>2020-08-27T08:56:34Z</time>
      </trkpt>
      <trkpt lat="48.60177" lon="1.97283">
        <ele>137.13</ele>
        <time>2020-08-27T08:56:35Z</time>
      </trkpt>
      <trkpt lat="48.60178" lon="1.97282">
        <ele>137.13</ele>
        <time>2020-08-27T08:56:36Z</time>
      </trkpt>
      <trkpt lat="48.60178" lon="1.9728">
        <ele>137.13</ele>
        <time>2020-08-27T08:56:37Z</time>
      </trkpt>
      <trkpt lat="48.60179" lon="1.97278">
        <ele>137.13</ele>
        <time>2020-08-27T08:56:38Z</time>
      </trkpt>
      <trkpt lat="48.6018" lon="1.97276">
        <ele>137.13</ele>
        <time>2020-08-27T08:56:39Z</time>
      </trkpt>
      <trkpt lat="48.60181" lon="1.97274">
        <ele>137.13</ele>
        <time>2020-08-27T08:56:40Z</time>
      </trkpt>
      <trkpt lat="48.60181" lon="1.97272">
        <ele>136.64</ele>
        <time>2020-08-27T08:56:41Z</time>
      </trkpt>
      <trkpt lat="48.60182" lon="1.97269">
        <ele>136.64</ele>
        <time>2020-08-27T08:56:42Z</time>
      </trkpt>
      <trkpt lat="48.60183" lon="1.97268">
        <ele>136.64</ele>
        <time>2020-08-27T08:56:43Z</time>
      </trkpt>
      <trkpt lat="48.60184" lon="1.97266">
        <ele>136.64</ele>
        <time>2020-08-27T08:56:44Z</time>
      </trkpt>
      <trkpt lat="48.60185" lon="1.97265">
        <ele>136.64</ele>
        <time>2020-08-27T08:56:45Z</time>
      </trkpt>
      <trkpt lat="48.60186" lon="1.97263">
        <ele>136.16</ele>
        <time>2020-08-27T08:56:46Z</time>
      </trkpt>
      <trkpt lat="48.60187" lon="1.97262">
        <ele>136.16</ele>
        <time>2020-08-27T08:56:47Z</time>
      </trkpt>
      <trkpt lat="48.60188" lon="1.97262">
        <ele>136.16</ele>
        <time>2020-08-27T08:56:48Z</time>
      </trkpt>
      <trkpt lat="48.60188" lon="1.97262">
        <ele>136.16</ele>
        <time>2020-08-27T08:56:49Z</time>
      </trkpt>
      <trkpt lat="48.60189" lon="1.97261">
        <ele>136.16</ele>
        <time>2020-08-27T08:56:50Z</time>
      </trkpt>
      <trkpt lat="48.60189" lon="1.97261">
        <ele>136.16</ele>
        <time>2020-08-27T08:56:51Z</time>
      </trkpt>
      <trkpt lat="48.60189" lon="1.9726">
        <ele>136.16</ele>
        <time>2020-08-27T08:56:52Z</time>
      </trkpt>
      <trkpt lat="48.6019" lon="1.97259">
        <ele>136.16</ele>
        <time>2020-08-27T08:56:53Z</time>
      </trkpt>
      <trkpt lat="48.60191" lon="1.97258">
        <ele>135.68</ele>
        <time>2020-08-27T08:56:54Z</time>
      </trkpt>
      <trkpt lat="48.60191" lon="1.97256">
        <ele>135.68</ele>
        <time>2020-08-27T08:56:55Z</time>
      </trkpt>
      <trkpt lat="48.60191" lon="1.97255">
        <ele>135.68</ele>
        <time>2020-08-27T08:56:56Z</time>
      </trkpt>
      <trkpt lat="48.60191" lon="1.97255">
        <ele>135.68</ele>
        <time>2020-08-27T08:56:57Z</time>
      </trkpt>
      <trkpt lat="48.60191" lon="1.97254">
        <ele>135.68</ele>
        <time>2020-08-27T08:56:59Z</time>
      </trkpt>
      <trkpt lat="48.60191" lon="1.97254">
        <ele>135.68</ele>
        <time>2020-08-27T08:57:00Z</time>
      </trkpt>
      <trkpt lat="48.60191" lon="1.97254">
        <ele>135.2</ele>
        <time>2020-08-27T08:57:01Z</time>
      </trkpt>
      <trkpt lat="48.60191" lon="1.97254">
        <ele>135.68</ele>
        <time>2020-08-27T08:57:02Z</time>
      </trkpt>
      <trkpt lat="48.60192" lon="1.97253">
        <ele>135.2</ele>
        <time>2020-08-27T08:57:03Z</time>
      </trkpt>
      <trkpt lat="48.60192" lon="1.97253">
        <ele>134.72</ele>
        <time>2020-08-27T08:57:04Z</time>
      </trkpt>
      <trkpt lat="48.60192" lon="1.97253">
        <ele>134.72</ele>
        <time>2020-08-27T08:57:05Z</time>
      </trkpt>
      <trkpt lat="48.60193" lon="1.97253">
        <ele>134.72</ele>
        <time>2020-08-27T08:57:06Z</time>
      </trkpt>
      <trkpt lat="48.60194" lon="1.97252">
        <ele>134.24</ele>
        <time>2020-08-27T08:57:07Z</time>
      </trkpt>
      <trkpt lat="48.60194" lon="1.97251">
        <ele>134.24</ele>
        <time>2020-08-27T08:57:08Z</time>
      </trkpt>
      <trkpt lat="48.60195" lon="1.9725">
        <ele>133.76</ele>
        <time>2020-08-27T08:57:09Z</time>
      </trkpt>
      <trkpt lat="48.60195" lon="1.97249">
        <ele>133.76</ele>
        <time>2020-08-27T08:57:10Z</time>
      </trkpt>
      <trkpt lat="48.60196" lon="1.97248">
        <ele>133.28</ele>
        <time>2020-08-27T08:57:11Z</time>
      </trkpt>
      <trkpt lat="48.60196" lon="1.97246">
        <ele>133.28</ele>
        <time>2020-08-27T08:57:12Z</time>
      </trkpt>
      <trkpt lat="48.60196" lon="1.97245">
        <ele>132.8</ele>
        <time>2020-08-27T08:57:13Z</time>
      </trkpt>
      <trkpt lat="48.60196" lon="1.97245">
        <ele>132.8</ele>
        <time>2020-08-27T08:57:14Z</time>
      </trkpt>
      <trkpt lat="48.60196" lon="1.97243">
        <ele>132.32</ele>
        <time>2020-08-27T08:57:15Z</time>
      </trkpt>
      <trkpt lat="48.60197" lon="1.97242">
        <ele>132.32</ele>
        <time>2020-08-27T08:57:16Z</time>
      </trkpt>
      <trkpt lat="48.60197" lon="1.97241">
        <ele>131.84</ele>
        <time>2020-08-27T08:57:17Z</time>
      </trkpt>
      <trkpt lat="48.60197" lon="1.9724">
        <ele>131.84</ele>
        <time>2020-08-27T08:57:18Z</time>
      </trkpt>
      <trkpt lat="48.60198" lon="1.97239">
        <ele>131.84</ele>
        <time>2020-08-27T08:57:19Z</time>
      </trkpt>
      <trkpt lat="48.60198" lon="1.97238">
        <ele>131.36</ele>
        <time>2020-08-27T08:57:20Z</time>
      </trkpt>
      <trkpt lat="48.60199" lon="1.97237">
        <ele>130.88</ele>
        <time>2020-08-27T08:57:21Z</time>
      </trkpt>
      <trkpt lat="48.602" lon="1.97235">
        <ele>130.88</ele>
        <time>2020-08-27T08:57:22Z</time>
      </trkpt>
      <trkpt lat="48.60201" lon="1.97234">
        <ele>130.88</ele>
        <time>2020-08-27T08:57:23Z</time>
      </trkpt>
      <trkpt lat="48.60203" lon="1.97232">
        <ele>130.4</ele>
        <time>2020-08-27T08:57:24Z</time>
      </trkpt>
      <trkpt lat="48.60204" lon="1.97231">
        <ele>130.4</ele>
        <time>2020-08-27T08:57:25Z</time>
      </trkpt>
      <trkpt lat="48.60205" lon="1.97229">
        <ele>130.4</ele>
        <time>2020-08-27T08:57:26Z</time>
      </trkpt>
      <trkpt lat="48.60206" lon="1.97228">
        <ele>129.92</ele>
        <time>2020-08-27T08:57:27Z</time>
      </trkpt>
      <trkpt lat="48.60207" lon="1.97226">
        <ele>129.92</ele>
        <time>2020-08-27T08:57:28Z</time>
      </trkpt>
      <trkpt lat="48.60208" lon="1.97224">
        <ele>129.92</ele>
        <time>2020-08-27T08:57:29Z</time>
      </trkpt>
      <trkpt lat="48.6021" lon="1.97222">
        <ele>129.43</ele>
        <time>2020-08-27T08:57:30Z</time>
      </trkpt>
      <trkpt lat="48.6021" lon="1.97221">
        <ele>128.95</ele>
        <time>2020-08-27T08:57:31Z</time>
      </trkpt>
      <trkpt lat="48.60211" lon="1.9722">
        <ele>128.95</ele>
        <time>2020-08-27T08:57:32Z</time>
      </trkpt>
      <trkpt lat="48.60212" lon="1.97219">
        <ele>128.47</ele>
        <time>2020-08-27T08:57:33Z</time>
      </trkpt>
      <trkpt lat="48.60213" lon="1.97218">
        <ele>128.47</ele>
        <time>2020-08-27T08:57:34Z</time>
      </trkpt>
      <trkpt lat="48.60214" lon="1.97217">
        <ele>128.47</ele>
        <time>2020-08-27T08:57:35Z</time>
      </trkpt>
      <trkpt lat="48.60215" lon="1.97216">
        <ele>127.99</ele>
        <time>2020-08-27T08:57:36Z</time>
      </trkpt>
      <trkpt lat="48.60216" lon="1.97215">
        <ele>128.47</ele>
        <time>2020-08-27T08:57:37Z</time>
      </trkpt>
      <trkpt lat="48.60216" lon="1.97213">
        <ele>127.99</ele>
        <time>2020-08-27T08:57:38Z</time>
      </trkpt>
      <trkpt lat="48.60217" lon="1.97212">
        <ele>127.51</ele>
        <time>2020-08-27T08:57:39Z</time>
      </trkpt>
      <trkpt lat="48.60217" lon="1.97211">
        <ele>127.03</ele>
        <time>2020-08-27T08:57:40Z</time>
      </trkpt>
      <trkpt lat="48.60218" lon="1.9721">
        <ele>127.51</ele>
        <time>2020-08-27T08:57:41Z</time>
      </trkpt>
      <trkpt lat="48.60218" lon="1.97209">
        <ele>127.03</ele>
        <time>2020-08-27T08:57:42Z</time>
      </trkpt>
      <trkpt lat="48.60218" lon="1.97208">
        <ele>127.03</ele>
        <time>2020-08-27T08:57:43Z</time>
      </trkpt>
      <trkpt lat="48.60218" lon="1.97207">
        <ele>127.03</ele>
        <time>2020-08-27T08:57:44Z</time>
      </trkpt>
      <trkpt lat="48.60219" lon="1.97206">
        <ele>126.55</ele>
        <time>2020-08-27T08:57:45Z</time>
      </trkpt>
      <trkpt lat="48.60219" lon="1.97205">
        <ele>126.55</ele>
        <time>2020-08-27T08:57:46Z</time>
      </trkpt>
      <trkpt lat="48.6022" lon="1.97205">
        <ele>126.07</ele>
        <time>2020-08-27T08:57:47Z</time>
      </trkpt>
      <trkpt lat="48.60221" lon="1.97203">
        <ele>126.07</ele>
        <time>2020-08-27T08:57:48Z</time>
      </trkpt>
      <trkpt lat="48.60221" lon="1.97202">
        <ele>126.07</ele>
        <time>2020-08-27T08:57:49Z</time>
      </trkpt>
      <trkpt lat="48.60222" lon="1.97201">
        <ele>125.59</ele>
        <time>2020-08-27T08:57:50Z</time>
      </trkpt>
      <trkpt lat="48.60223" lon="1.972">
        <ele>125.59</ele>
        <time>2020-08-27T08:57:51Z</time>
      </trkpt>
      <trkpt lat="48.60223" lon="1.97198">
        <ele>125.11</ele>
        <time>2020-08-27T08:57:52Z</time>
      </trkpt>
      <trkpt lat="48.60224" lon="1.97197">
        <ele>125.11</ele>
        <time>2020-08-27T08:57:53Z</time>
      </trkpt>
      <trkpt lat="48.60225" lon="1.97195">
        <ele>125.11</ele>
        <time>2020-08-27T08:57:54Z</time>
      </trkpt>
      <trkpt lat="48.60226" lon="1.97194">
        <ele>124.63</ele>
        <time>2020-08-27T08:57:55Z</time>
      </trkpt>
      <trkpt lat="48.60226" lon="1.97192">
        <ele>124.63</ele>
        <time>2020-08-27T08:57:56Z</time>
      </trkpt>
      <trkpt lat="48.60226" lon="1.97191">
        <ele>124.15</ele>
        <time>2020-08-27T08:57:57Z</time>
      </trkpt>
      <trkpt lat="48.60226" lon="1.97189">
        <ele>124.15</ele>
        <time>2020-08-27T08:57:58Z</time>
      </trkpt>
      <trkpt lat="48.60227" lon="1.97188">
        <ele>123.67</ele>
        <time>2020-08-27T08:57:59Z</time>
      </trkpt>
      <trkpt lat="48.60227" lon="1.97186">
        <ele>123.19</ele>
        <time>2020-08-27T08:58:00Z</time>
      </trkpt>
      <trkpt lat="48.60227" lon="1.97185">
        <ele>123.19</ele>
        <time>2020-08-27T08:58:01Z</time>
      </trkpt>
      <trkpt lat="48.60228" lon="1.97183">
        <ele>123.19</ele>
        <time>2020-08-27T08:58:02Z</time>
      </trkpt>
      <trkpt lat="48.60228" lon="1.97181">
        <ele>123.19</ele>
        <time>2020-08-27T08:58:03Z</time>
      </trkpt>
      <trkpt lat="48.60228" lon="1.97179">
        <ele>123.19</ele>
        <time>2020-08-27T08:58:04Z</time>
      </trkpt>
      <trkpt lat="48.60229" lon="1.97178">
        <ele>122.71</ele>
        <time>2020-08-27T08:58:05Z</time>
      </trkpt>
      <trkpt lat="48.6023" lon="1.97177">
        <ele>122.71</ele>
        <time>2020-08-27T08:58:06Z</time>
      </trkpt>
      <trkpt lat="48.60231" lon="1.97176">
        <ele>122.71</ele>
        <time>2020-08-27T08:58:07Z</time>
      </trkpt>
      <trkpt lat="48.60233" lon="1.97176">
        <ele>122.71</ele>
        <time>2020-08-27T08:58:08Z</time>
      </trkpt>
      <trkpt lat="48.60233" lon="1.97175">
        <ele>122.71</ele>
        <time>2020-08-27T08:58:09Z</time>
      </trkpt>
      <trkpt lat="48.60233" lon="1.97174">
        <ele>122.22</ele>
        <time>2020-08-27T08:58:10Z</time>
      </trkpt>
      <trkpt lat="48.60234" lon="1.97171">
        <ele>122.22</ele>
        <time>2020-08-27T08:58:11Z</time>
      </trkpt>
      <trkpt lat="48.60235" lon="1.97169">
        <ele>121.74</ele>
        <time>2020-08-27T08:58:12Z</time>
      </trkpt>
      <trkpt lat="48.60235" lon="1.97168">
        <ele>121.74</ele>
        <time>2020-08-27T08:58:13Z</time>
      </trkpt>
      <trkpt lat="48.60236" lon="1.97166">
        <ele>122.22</ele>
        <time>2020-08-27T08:58:14Z</time>
      </trkpt>
      <trkpt lat="48.60236" lon="1.97164">
        <ele>122.22</ele>
        <time>2020-08-27T08:58:15Z</time>
      </trkpt>
      <trkpt lat="48.60237" lon="1.97163">
        <ele>121.26</ele>
        <time>2020-08-27T08:58:16Z</time>
      </trkpt>
      <trkpt lat="48.60237" lon="1.97161">
        <ele>121.74</ele>
        <time>2020-08-27T08:58:17Z</time>
      </trkpt>
      <trkpt lat="48.60237" lon="1.9716">
        <ele>121.26</ele>
        <time>2020-08-27T08:58:18Z</time>
      </trkpt>
      <trkpt lat="48.60238" lon="1.97158">
        <ele>121.26</ele>
        <time>2020-08-27T08:58:19Z</time>
      </trkpt>
      <trkpt lat="48.60239" lon="1.97156">
        <ele>121.26</ele>
        <time>2020-08-27T08:58:20Z</time>
      </trkpt>
      <trkpt lat="48.60239" lon="1.97154">
        <ele>121.26</ele>
        <time>2020-08-27T08:58:21Z</time>
      </trkpt>
      <trkpt lat="48.6024" lon="1.97153">
        <ele>120.78</ele>
        <time>2020-08-27T08:58:22Z</time>
      </trkpt>
      <trkpt lat="48.60241" lon="1.97151">
        <ele>120.78</ele>
        <time>2020-08-27T08:58:23Z</time>
      </trkpt>
      <trkpt lat="48.60241" lon="1.97149">
        <ele>120.3</ele>
        <time>2020-08-27T08:58:24Z</time>
      </trkpt>
      <trkpt lat="48.60242" lon="1.97147">
        <ele>120.3</ele>
        <time>2020-08-27T08:58:25Z</time>
      </trkpt>
      <trkpt lat="48.60243" lon="1.97146">
        <ele>120.3</ele>
        <time>2020-08-27T08:58:26Z</time>
      </trkpt>
      <trkpt lat="48.60245" lon="1.97144">
        <ele>120.3</ele>
        <time>2020-08-27T08:58:27Z</time>
      </trkpt>
      <trkpt lat="48.60246" lon="1.97142">
        <ele>119.82</ele>
        <time>2020-08-27T08:58:28Z</time>
      </trkpt>
      <trkpt lat="48.60247" lon="1.9714">
        <ele>119.82</ele>
        <time>2020-08-27T08:58:29Z</time>
      </trkpt>
      <trkpt lat="48.60248" lon="1.97139">
        <ele>119.82</ele>
        <time>2020-08-27T08:58:30Z</time>
      </trkpt>
      <trkpt lat="48.60249" lon="1.97136">
        <ele>119.82</ele>
        <time>2020-08-27T08:58:31Z</time>
      </trkpt>
      <trkpt lat="48.6025" lon="1.97135">
        <ele>119.82</ele>
        <time>2020-08-27T08:58:32Z</time>
      </trkpt>
      <trkpt lat="48.60251" lon="1.97133">
        <ele>119.82</ele>
        <time>2020-08-27T08:58:33Z</time>
      </trkpt>
      <trkpt lat="48.60252" lon="1.97132">
        <ele>119.34</ele>
        <time>2020-08-27T08:58:34Z</time>
      </trkpt>
      <trkpt lat="48.60254" lon="1.9713">
        <ele>119.34</ele>
        <time>2020-08-27T08:58:35Z</time>
      </trkpt>
      <trkpt lat="48.60255" lon="1.97128">
        <ele>119.34</ele>
        <time>2020-08-27T08:58:36Z</time>
      </trkpt>
      <trkpt lat="48.60256" lon="1.97127">
        <ele>119.34</ele>
        <time>2020-08-27T08:58:37Z</time>
      </trkpt>
      <trkpt lat="48.60257" lon="1.97126">
        <ele>118.86</ele>
        <time>2020-08-27T08:58:38Z</time>
      </trkpt>
      <trkpt lat="48.60258" lon="1.97124">
        <ele>119.34</ele>
        <time>2020-08-27T08:58:39Z</time>
      </trkpt>
      <trkpt lat="48.60259" lon="1.97122">
        <ele>119.34</ele>
        <time>2020-08-27T08:58:40Z</time>
      </trkpt>
      <trkpt lat="48.6026" lon="1.97121">
        <ele>118.86</ele>
        <time>2020-08-27T08:58:41Z</time>
      </trkpt>
      <trkpt lat="48.60261" lon="1.97118">
        <ele>118.86</ele>
        <time>2020-08-27T08:58:42Z</time>
      </trkpt>
      <trkpt lat="48.60262" lon="1.97116">
        <ele>118.86</ele>
        <time>2020-08-27T08:58:43Z</time>
      </trkpt>
      <trkpt lat="48.60263" lon="1.97115">
        <ele>118.86</ele>
        <time>2020-08-27T08:58:44Z</time>
      </trkpt>
      <trkpt lat="48.60263" lon="1.97113">
        <ele>118.86</ele>
        <time>2020-08-27T08:58:45Z</time>
      </trkpt>
      <trkpt lat="48.60263" lon="1.97111">
        <ele>118.86</ele>
        <time>2020-08-27T08:58:46Z</time>
      </trkpt>
      <trkpt lat="48.60263" lon="1.97109">
        <ele>118.38</ele>
        <time>2020-08-27T08:58:47Z</time>
      </trkpt>
      <trkpt lat="48.60262" lon="1.97108">
        <ele>118.86</ele>
        <time>2020-08-27T08:58:48Z</time>
      </trkpt>
      <trkpt lat="48.60262" lon="1.97108">
        <ele>118.86</ele>
        <time>2020-08-27T08:58:49Z</time>
      </trkpt>
      <trkpt lat="48.60262" lon="1.97108">
        <ele>118.86</ele>
        <time>2020-08-27T08:58:50Z</time>
      </trkpt>
      <trkpt lat="48.60261" lon="1.97107">
        <ele>119.34</ele>
        <time>2020-08-27T08:58:51Z</time>
      </trkpt>
      <trkpt lat="48.6026" lon="1.97107">
        <ele>119.34</ele>
        <time>2020-08-27T08:58:52Z</time>
      </trkpt>
      <trkpt lat="48.60258" lon="1.97105">
        <ele>119.34</ele>
        <time>2020-08-27T08:58:53Z</time>
      </trkpt>
      <trkpt lat="48.60257" lon="1.97104">
        <ele>119.34</ele>
        <time>2020-08-27T08:58:54Z</time>
      </trkpt>
      <trkpt lat="48.60255" lon="1.97102">
        <ele>118.86</ele>
        <time>2020-08-27T08:58:55Z</time>
      </trkpt>
      <trkpt lat="48.60254" lon="1.97101">
        <ele>119.82</ele>
        <time>2020-08-27T08:58:56Z</time>
      </trkpt>
      <trkpt lat="48.60253" lon="1.971">
        <ele>119.82</ele>
        <time>2020-08-27T08:58:57Z</time>
      </trkpt>
      <trkpt lat="48.60251" lon="1.97099">
        <ele>119.82</ele>
        <time>2020-08-27T08:58:58Z</time>
      </trkpt>
      <trkpt lat="48.6025" lon="1.97098">
        <ele>119.34</ele>
        <time>2020-08-27T08:58:59Z</time>
      </trkpt>
      <trkpt lat="48.60248" lon="1.97097">
        <ele>119.82</ele>
        <time>2020-08-27T08:59:00Z</time>
      </trkpt>
      <trkpt lat="48.60247" lon="1.97096">
        <ele>119.82</ele>
        <time>2020-08-27T08:59:01Z</time>
      </trkpt>
      <trkpt lat="48.60245" lon="1.97095">
        <ele>119.82</ele>
        <time>2020-08-27T08:59:02Z</time>
      </trkpt>
      <trkpt lat="48.60243" lon="1.97095">
        <ele>119.82</ele>
        <time>2020-08-27T08:59:03Z</time>
      </trkpt>
      <trkpt lat="48.60242" lon="1.97094">
        <ele>119.82</ele>
        <time>2020-08-27T08:59:04Z</time>
      </trkpt>
      <trkpt lat="48.6024" lon="1.97093">
        <ele>119.82</ele>
        <time>2020-08-27T08:59:05Z</time>
      </trkpt>
      <trkpt lat="48.60239" lon="1.97092">
        <ele>120.3</ele>
        <time>2020-08-27T08:59:06Z</time>
      </trkpt>
      <trkpt lat="48.60238" lon="1.97092">
        <ele>120.3</ele>
        <time>2020-08-27T08:59:07Z</time>
      </trkpt>
      <trkpt lat="48.60236" lon="1.97091">
        <ele>120.3</ele>
        <time>2020-08-27T08:59:08Z</time>
      </trkpt>
      <trkpt lat="48.60234" lon="1.9709">
        <ele>120.3</ele>
        <time>2020-08-27T08:59:09Z</time>
      </trkpt>
      <trkpt lat="48.60232" lon="1.97089">
        <ele>120.78</ele>
        <time>2020-08-27T08:59:10Z</time>
      </trkpt>
      <trkpt lat="48.60231" lon="1.97088">
        <ele>120.78</ele>
        <time>2020-08-27T08:59:11Z</time>
      </trkpt>
      <trkpt lat="48.6023" lon="1.97087">
        <ele>120.78</ele>
        <time>2020-08-27T08:59:12Z</time>
      </trkpt>
      <trkpt lat="48.60229" lon="1.97086">
        <ele>121.26</ele>
        <time>2020-08-27T08:59:13Z</time>
      </trkpt>
      <trkpt lat="48.60228" lon="1.97085">
        <ele>121.26</ele>
        <time>2020-08-27T08:59:14Z</time>
      </trkpt>
      <trkpt lat="48.60227" lon="1.97084">
        <ele>121.26</ele>
        <time>2020-08-27T08:59:15Z</time>
      </trkpt>
      <trkpt lat="48.60224" lon="1.97084">
        <ele>121.26</ele>
        <time>2020-08-27T08:59:16Z</time>
      </trkpt>
      <trkpt lat="48.60223" lon="1.97084">
        <ele>120.78</ele>
        <time>2020-08-27T08:59:17Z</time>
      </trkpt>
      <trkpt lat="48.60221" lon="1.97083">
        <ele>121.26</ele>
        <time>2020-08-27T08:59:18Z</time>
      </trkpt>
      <trkpt lat="48.60219" lon="1.97082">
        <ele>121.74</ele>
        <time>2020-08-27T08:59:19Z</time>
      </trkpt>
      <trkpt lat="48.60218" lon="1.97081">
        <ele>121.74</ele>
        <time>2020-08-27T08:59:20Z</time>
      </trkpt>
      <trkpt lat="48.60216" lon="1.9708">
        <ele>121.74</ele>
        <time>2020-08-27T08:59:21Z</time>
      </trkpt>
      <trkpt lat="48.60215" lon="1.97079">
        <ele>121.74</ele>
        <time>2020-08-27T08:59:22Z</time>
      </trkpt>
      <trkpt lat="48.60213" lon="1.97079">
        <ele>121.74</ele>
        <time>2020-08-27T08:59:23Z</time>
      </trkpt>
      <trkpt lat="48.60211" lon="1.97078">
        <ele>121.74</ele>
        <time>2020-08-27T08:59:24Z</time>
      </trkpt>
      <trkpt lat="48.60209" lon="1.97077">
        <ele>121.74</ele>
        <time>2020-08-27T08:59:25Z</time>
      </trkpt>
      <trkpt lat="48.60208" lon="1.97077">
        <ele>121.74</ele>
        <time>2020-08-27T08:59:26Z</time>
      </trkpt>
      <trkpt lat="48.60207" lon="1.97076">
        <ele>122.22</ele>
        <time>2020-08-27T08:59:27Z</time>
      </trkpt>
      <trkpt lat="48.60205" lon="1.97076">
        <ele>122.71</ele>
        <time>2020-08-27T08:59:28Z</time>
      </trkpt>
      <trkpt lat="48.60204" lon="1.97076">
        <ele>122.71</ele>
        <time>2020-08-27T08:59:29Z</time>
      </trkpt>
      <trkpt lat="48.60203" lon="1.97076">
        <ele>122.71</ele>
        <time>2020-08-27T08:59:30Z</time>
      </trkpt>
      <trkpt lat="48.60201" lon="1.97076">
        <ele>122.71</ele>
        <time>2020-08-27T08:59:31Z</time>
      </trkpt>
      <trkpt lat="48.60199" lon="1.97076">
        <ele>122.71</ele>
        <time>2020-08-27T08:59:32Z</time>
      </trkpt>
      <trkpt lat="48.60197" lon="1.97076">
        <ele>122.71</ele>
        <time>2020-08-27T08:59:33Z</time>
      </trkpt>
      <trkpt lat="48.60196" lon="1.97075">
        <ele>122.71</ele>
        <time>2020-08-27T08:59:34Z</time>
      </trkpt>
      <trkpt lat="48.60195" lon="1.97075">
        <ele>123.67</ele>
        <time>2020-08-27T08:59:35Z</time>
      </trkpt>
      <trkpt lat="48.60193" lon="1.97075">
        <ele>123.67</ele>
        <time>2020-08-27T08:59:36Z</time>
      </trkpt>
      <trkpt lat="48.60192" lon="1.97076">
        <ele>123.19</ele>
        <time>2020-08-27T08:59:37Z</time>
      </trkpt>
      <trkpt lat="48.60191" lon="1.97076">
        <ele>125.11</ele>
        <time>2020-08-27T08:59:38Z</time>
      </trkpt>
      <trkpt lat="48.6019" lon="1.97076">
        <ele>124.15</ele>
        <time>2020-08-27T08:59:39Z</time>
      </trkpt>
      <trkpt lat="48.60188" lon="1.97075">
        <ele>123.67</ele>
        <time>2020-08-27T08:59:40Z</time>
      </trkpt>
      <trkpt lat="48.60187" lon="1.97075">
        <ele>124.15</ele>
        <time>2020-08-27T08:59:41Z</time>
      </trkpt>
      <trkpt lat="48.60185" lon="1.97074">
        <ele>124.15</ele>
        <time>2020-08-27T08:59:42Z</time>
      </trkpt>
      <trkpt lat="48.60184" lon="1.97073">
        <ele>124.15</ele>
        <time>2020-08-27T08:59:43Z</time>
      </trkpt>
      <trkpt lat="48.60182" lon="1.97072">
        <ele>124.15</ele>
        <time>2020-08-27T08:59:44Z</time>
      </trkpt>
      <trkpt lat="48.6018" lon="1.97071">
        <ele>124.63</ele>
        <time>2020-08-27T08:59:45Z</time>
      </trkpt>
      <trkpt lat="48.60179" lon="1.97072">
        <ele>124.63</ele>
        <time>2020-08-27T08:59:46Z</time>
      </trkpt>
      <trkpt lat="48.60177" lon="1.97071">
        <ele>124.63</ele>
        <time>2020-08-27T08:59:47Z</time>
      </trkpt>
      <trkpt lat="48.60176" lon="1.97071">
        <ele>125.11</ele>
        <time>2020-08-27T08:59:48Z</time>
      </trkpt>
      <trkpt lat="48.60175" lon="1.97071">
        <ele>125.11</ele>
        <time>2020-08-27T08:59:49Z</time>
      </trkpt>
      <trkpt lat="48.60173" lon="1.97071">
        <ele>125.11</ele>
        <time>2020-08-27T08:59:50Z</time>
      </trkpt>
      <trkpt lat="48.60172" lon="1.97071">
        <ele>125.59</ele>
        <time>2020-08-27T08:59:51Z</time>
      </trkpt>
      <trkpt lat="48.6017" lon="1.97071">
        <ele>125.59</ele>
        <time>2020-08-27T08:59:52Z</time>
      </trkpt>
      <trkpt lat="48.60168" lon="1.9707">
        <ele>125.59</ele>
        <time>2020-08-27T08:59:53Z</time>
      </trkpt>
      <trkpt lat="48.60166" lon="1.97071">
        <ele>125.59</ele>
        <time>2020-08-27T08:59:54Z</time>
      </trkpt>
      <trkpt lat="48.60164" lon="1.97071">
        <ele>125.59</ele>
        <time>2020-08-27T08:59:55Z</time>
      </trkpt>
      <trkpt lat="48.60162" lon="1.97071">
        <ele>125.59</ele>
        <time>2020-08-27T08:59:56Z</time>
      </trkpt>
      <trkpt lat="48.60161" lon="1.97071">
        <ele>125.59</ele>
        <time>2020-08-27T08:59:57Z</time>
      </trkpt>
      <trkpt lat="48.6016" lon="1.97071">
        <ele>126.07</ele>
        <time>2020-08-27T08:59:58Z</time>
      </trkpt>
      <trkpt lat="48.60159" lon="1.97071">
        <ele>126.07</ele>
        <time>2020-08-27T08:59:59Z</time>
      </trkpt>
      <trkpt lat="48.60158" lon="1.97071">
        <ele>126.07</ele>
        <time>2020-08-27T09:00:00Z</time>
      </trkpt>
      <trkpt lat="48.60157" lon="1.9707">
        <ele>126.07</ele>
        <time>2020-08-27T09:00:01Z</time>
      </trkpt>
      <trkpt lat="48.60155" lon="1.97071">
        <ele>126.55</ele>
        <time>2020-08-27T09:00:02Z</time>
      </trkpt>
      <trkpt lat="48.60154" lon="1.97071">
        <ele>126.55</ele>
        <time>2020-08-27T09:00:03Z</time>
      </trkpt>
      <trkpt lat="48.60152" lon="1.97071">
        <ele>126.07</ele>
        <time>2020-08-27T09:00:04Z</time>
      </trkpt>
      <trkpt lat="48.6015" lon="1.97072">
        <ele>126.55</ele>
        <time>2020-08-27T09:00:05Z</time>
      </trkpt>
      <trkpt lat="48.60149" lon="1.97073">
        <ele>127.51</ele>
        <time>2020-08-27T09:00:06Z</time>
      </trkpt>
      <trkpt lat="48.60148" lon="1.97074">
        <ele>127.03</ele>
        <time>2020-08-27T09:00:07Z</time>
      </trkpt>
      <trkpt lat="48.60147" lon="1.97074">
        <ele>127.51</ele>
        <time>2020-08-27T09:00:08Z</time>
      </trkpt>
      <trkpt lat="48.60146" lon="1.97075">
        <ele>127.03</ele>
        <time>2020-08-27T09:00:09Z</time>
      </trkpt>
      <trkpt lat="48.60145" lon="1.97074">
        <ele>127.51</ele>
        <time>2020-08-27T09:00:10Z</time>
      </trkpt>
      <trkpt lat="48.60144" lon="1.97074">
        <ele>127.51</ele>
        <time>2020-08-27T09:00:11Z</time>
      </trkpt>
      <trkpt lat="48.60143" lon="1.97074">
        <ele>128.47</ele>
        <time>2020-08-27T09:00:12Z</time>
      </trkpt>
      <trkpt lat="48.60142" lon="1.97074">
        <ele>127.99</ele>
        <time>2020-08-27T09:00:13Z</time>
      </trkpt>
      <trkpt lat="48.60141" lon="1.97073">
        <ele>128.47</ele>
        <time>2020-08-27T09:00:14Z</time>
      </trkpt>
      <trkpt lat="48.6014" lon="1.97072">
        <ele>128.47</ele>
        <time>2020-08-27T09:00:15Z</time>
      </trkpt>
      <trkpt lat="48.60138" lon="1.97072">
        <ele>127.99</ele>
        <time>2020-08-27T09:00:16Z</time>
      </trkpt>
      <trkpt lat="48.60137" lon="1.97071">
        <ele>128.47</ele>
        <time>2020-08-27T09:00:17Z</time>
      </trkpt>
      <trkpt lat="48.60136" lon="1.9707">
        <ele>128.95</ele>
        <time>2020-08-27T09:00:18Z</time>
      </trkpt>
      <trkpt lat="48.60134" lon="1.97069">
        <ele>128.95</ele>
        <time>2020-08-27T09:00:19Z</time>
      </trkpt>
      <trkpt lat="48.60133" lon="1.97068">
        <ele>128.95</ele>
        <time>2020-08-27T09:00:20Z</time>
      </trkpt>
      <trkpt lat="48.60131" lon="1.97068">
        <ele>128.95</ele>
        <time>2020-08-27T09:00:21Z</time>
      </trkpt>
      <trkpt lat="48.6013" lon="1.97068">
        <ele>128.95</ele>
        <time>2020-08-27T09:00:22Z</time>
      </trkpt>
      <trkpt lat="48.60128" lon="1.97068">
        <ele>128.95</ele>
        <time>2020-08-27T09:00:23Z</time>
      </trkpt>
      <trkpt lat="48.60127" lon="1.97068">
        <ele>128.95</ele>
        <time>2020-08-27T09:00:24Z</time>
      </trkpt>
      <trkpt lat="48.60126" lon="1.97068">
        <ele>129.43</ele>
        <time>2020-08-27T09:00:25Z</time>
      </trkpt>
      <trkpt lat="48.60124" lon="1.97068">
        <ele>129.92</ele>
        <time>2020-08-27T09:00:26Z</time>
      </trkpt>
      <trkpt lat="48.60123" lon="1.97068">
        <ele>129.92</ele>
        <time>2020-08-27T09:00:27Z</time>
      </trkpt>
      <trkpt lat="48.60122" lon="1.97069">
        <ele>129.43</ele>
        <time>2020-08-27T09:00:28Z</time>
      </trkpt>
      <trkpt lat="48.60121" lon="1.97069">
        <ele>129.92</ele>
        <time>2020-08-27T09:00:29Z</time>
      </trkpt>
      <trkpt lat="48.60119" lon="1.97068">
        <ele>129.92</ele>
        <time>2020-08-27T09:00:30Z</time>
      </trkpt>
      <trkpt lat="48.60117" lon="1.97068">
        <ele>130.4</ele>
        <time>2020-08-27T09:00:31Z</time>
      </trkpt>
      <trkpt lat="48.60116" lon="1.97068">
        <ele>130.88</ele>
        <time>2020-08-27T09:00:32Z</time>
      </trkpt>
      <trkpt lat="48.60115" lon="1.97068">
        <ele>130.4</ele>
        <time>2020-08-27T09:00:33Z</time>
      </trkpt>
      <trkpt lat="48.60113" lon="1.97069">
        <ele>130.4</ele>
        <time>2020-08-27T09:00:34Z</time>
      </trkpt>
      <trkpt lat="48.60112" lon="1.97069">
        <ele>130.88</ele>
        <time>2020-08-27T09:00:35Z</time>
      </trkpt>
      <trkpt lat="48.6011" lon="1.97068">
        <ele>131.36</ele>
        <time>2020-08-27T09:00:36Z</time>
      </trkpt>
      <trkpt lat="48.60108" lon="1.97069">
        <ele>131.36</ele>
        <time>2020-08-27T09:00:37Z</time>
      </trkpt>
      <trkpt lat="48.60107" lon="1.97068">
        <ele>130.88</ele>
        <time>2020-08-27T09:00:38Z</time>
      </trkpt>
      <trkpt lat="48.60105" lon="1.97068">
        <ele>131.36</ele>
        <time>2020-08-27T09:00:39Z</time>
      </trkpt>
      <trkpt lat="48.60104" lon="1.97067">
        <ele>131.36</ele>
        <time>2020-08-27T09:00:40Z</time>
      </trkpt>
      <trkpt lat="48.60102" lon="1.97067">
        <ele>131.36</ele>
        <time>2020-08-27T09:00:41Z</time>
      </trkpt>
      <trkpt lat="48.60101" lon="1.97066">
        <ele>131.84</ele>
        <time>2020-08-27T09:00:42Z</time>
      </trkpt>
      <trkpt lat="48.601" lon="1.97066">
        <ele>131.84</ele>
        <time>2020-08-27T09:00:43Z</time>
      </trkpt>
      <trkpt lat="48.60098" lon="1.97065">
        <ele>131.84</ele>
        <time>2020-08-27T09:00:44Z</time>
      </trkpt>
      <trkpt lat="48.60097" lon="1.97065">
        <ele>131.84</ele>
        <time>2020-08-27T09:00:45Z</time>
      </trkpt>
      <trkpt lat="48.60095" lon="1.97065">
        <ele>132.32</ele>
        <time>2020-08-27T09:00:46Z</time>
      </trkpt>
      <trkpt lat="48.60094" lon="1.97066">
        <ele>132.32</ele>
        <time>2020-08-27T09:00:47Z</time>
      </trkpt>
      <trkpt lat="48.60093" lon="1.97066">
        <ele>132.32</ele>
        <time>2020-08-27T09:00:48Z</time>
      </trkpt>
      <trkpt lat="48.60092" lon="1.97066">
        <ele>132.32</ele>
        <time>2020-08-27T09:00:49Z</time>
      </trkpt>
      <trkpt lat="48.60092" lon="1.97067">
        <ele>132.8</ele>
        <time>2020-08-27T09:00:50Z</time>
      </trkpt>
      <trkpt lat="48.60091" lon="1.97067">
        <ele>132.32</ele>
        <time>2020-08-27T09:00:51Z</time>
      </trkpt>
      <trkpt lat="48.60091" lon="1.97067">
        <ele>132.8</ele>
        <time>2020-08-27T09:00:52Z</time>
      </trkpt>
      <trkpt lat="48.6009" lon="1.97067">
        <ele>132.8</ele>
        <time>2020-08-27T09:00:53Z</time>
      </trkpt>
      <trkpt lat="48.60089" lon="1.97067">
        <ele>132.8</ele>
        <time>2020-08-27T09:00:54Z</time>
      </trkpt>
      <trkpt lat="48.60088" lon="1.97067">
        <ele>132.8</ele>
        <time>2020-08-27T09:00:55Z</time>
      </trkpt>
      <trkpt lat="48.60086" lon="1.97068">
        <ele>133.28</ele>
        <time>2020-08-27T09:00:56Z</time>
      </trkpt>
      <trkpt lat="48.60084" lon="1.9707">
        <ele>133.28</ele>
        <time>2020-08-27T09:00:57Z</time>
      </trkpt>
      <trkpt lat="48.60083" lon="1.97071">
        <ele>133.28</ele>
        <time>2020-08-27T09:00:58Z</time>
      </trkpt>
      <trkpt lat="48.60081" lon="1.97072">
        <ele>133.28</ele>
        <time>2020-08-27T09:00:59Z</time>
      </trkpt>
      <trkpt lat="48.60079" lon="1.97072">
        <ele>133.28</ele>
        <time>2020-08-27T09:01:00Z</time>
      </trkpt>
      <trkpt lat="48.60077" lon="1.97072">
        <ele>133.76</ele>
        <time>2020-08-27T09:01:01Z</time>
      </trkpt>
      <trkpt lat="48.60076" lon="1.97072">
        <ele>133.76</ele>
        <time>2020-08-27T09:01:02Z</time>
      </trkpt>
      <trkpt lat="48.60074" lon="1.97073">
        <ele>133.28</ele>
        <time>2020-08-27T09:01:03Z</time>
      </trkpt>
      <trkpt lat="48.60072" lon="1.97074">
        <ele>133.28</ele>
        <time>2020-08-27T09:01:04Z</time>
      </trkpt>
      <trkpt lat="48.60071" lon="1.97075">
        <ele>133.76</ele>
        <time>2020-08-27T09:01:05Z</time>
      </trkpt>
      <trkpt lat="48.60069" lon="1.97077">
        <ele>133.76</ele>
        <time>2020-08-27T09:01:06Z</time>
      </trkpt>
      <trkpt lat="48.60068" lon="1.97078">
        <ele>133.76</ele>
        <time>2020-08-27T09:01:07Z</time>
      </trkpt>
      <trkpt lat="48.60067" lon="1.97079">
        <ele>133.76</ele>
        <time>2020-08-27T09:01:08Z</time>
      </trkpt>
      <trkpt lat="48.60066" lon="1.9708">
        <ele>133.76</ele>
        <time>2020-08-27T09:01:09Z</time>
      </trkpt>
      <trkpt lat="48.60064" lon="1.9708">
        <ele>133.76</ele>
        <time>2020-08-27T09:01:10Z</time>
      </trkpt>
      <trkpt lat="48.60063" lon="1.97081">
        <ele>133.76</ele>
        <time>2020-08-27T09:01:11Z</time>
      </trkpt>
      <trkpt lat="48.60061" lon="1.97082">
        <ele>133.76</ele>
        <time>2020-08-27T09:01:12Z</time>
      </trkpt>
      <trkpt lat="48.6006" lon="1.97083">
        <ele>133.76</ele>
        <time>2020-08-27T09:01:13Z</time>
      </trkpt>
      <trkpt lat="48.60058" lon="1.97084">
        <ele>133.76</ele>
        <time>2020-08-27T09:01:14Z</time>
      </trkpt>
      <trkpt lat="48.60057" lon="1.97085">
        <ele>133.76</ele>
        <time>2020-08-27T09:01:15Z</time>
      </trkpt>
      <trkpt lat="48.60056" lon="1.97087">
        <ele>133.76</ele>
        <time>2020-08-27T09:01:16Z</time>
      </trkpt>
      <trkpt lat="48.60054" lon="1.97088">
        <ele>133.76</ele>
        <time>2020-08-27T09:01:17Z</time>
      </trkpt>
      <trkpt lat="48.60053" lon="1.97089">
        <ele>133.76</ele>
        <time>2020-08-27T09:01:18Z</time>
      </trkpt>
      <trkpt lat="48.60052" lon="1.9709">
        <ele>133.76</ele>
        <time>2020-08-27T09:01:19Z</time>
      </trkpt>
      <trkpt lat="48.60051" lon="1.9709">
        <ele>133.76</ele>
        <time>2020-08-27T09:01:20Z</time>
      </trkpt>
      <trkpt lat="48.6005" lon="1.97091">
        <ele>133.76</ele>
        <time>2020-08-27T09:01:21Z</time>
      </trkpt>
      <trkpt lat="48.60049" lon="1.97092">
        <ele>133.76</ele>
        <time>2020-08-27T09:01:22Z</time>
      </trkpt>
      <trkpt lat="48.60048" lon="1.97093">
        <ele>133.28</ele>
        <time>2020-08-27T09:01:23Z</time>
      </trkpt>
      <trkpt lat="48.60046" lon="1.97094">
        <ele>134.24</ele>
        <time>2020-08-27T09:01:24Z</time>
      </trkpt>
      <trkpt lat="48.60046" lon="1.97095">
        <ele>134.24</ele>
        <time>2020-08-27T09:01:25Z</time>
      </trkpt>
      <trkpt lat="48.60045" lon="1.97098">
        <ele>134.24</ele>
        <time>2020-08-27T09:01:26Z</time>
      </trkpt>
      <trkpt lat="48.60044" lon="1.971">
        <ele>134.24</ele>
        <time>2020-08-27T09:01:27Z</time>
      </trkpt>
      <trkpt lat="48.60043" lon="1.97103">
        <ele>134.24</ele>
        <time>2020-08-27T09:01:28Z</time>
      </trkpt>
      <trkpt lat="48.60043" lon="1.97104">
        <ele>134.24</ele>
        <time>2020-08-27T09:01:29Z</time>
      </trkpt>
      <trkpt lat="48.60042" lon="1.97105">
        <ele>133.76</ele>
        <time>2020-08-27T09:01:30Z</time>
      </trkpt>
      <trkpt lat="48.60041" lon="1.97106">
        <ele>134.24</ele>
        <time>2020-08-27T09:01:31Z</time>
      </trkpt>
      <trkpt lat="48.60041" lon="1.97107">
        <ele>134.24</ele>
        <time>2020-08-27T09:01:32Z</time>
      </trkpt>
      <trkpt lat="48.6004" lon="1.97108">
        <ele>134.24</ele>
        <time>2020-08-27T09:01:33Z</time>
      </trkpt>
      <trkpt lat="48.6004" lon="1.97108">
        <ele>134.24</ele>
        <time>2020-08-27T09:01:34Z</time>
      </trkpt>
      <trkpt lat="48.60039" lon="1.97109">
        <ele>134.24</ele>
        <time>2020-08-27T09:01:35Z</time>
      </trkpt>
      <trkpt lat="48.60038" lon="1.9711">
        <ele>133.76</ele>
        <time>2020-08-27T09:01:36Z</time>
      </trkpt>
      <trkpt lat="48.60036" lon="1.97111">
        <ele>134.24</ele>
        <time>2020-08-27T09:01:37Z</time>
      </trkpt>
      <trkpt lat="48.60035" lon="1.97113">
        <ele>135.2</ele>
        <time>2020-08-27T09:01:38Z</time>
      </trkpt>
      <trkpt lat="48.60034" lon="1.97114">
        <ele>134.24</ele>
        <time>2020-08-27T09:01:39Z</time>
      </trkpt>
      <trkpt lat="48.60033" lon="1.97115">
        <ele>134.72</ele>
        <time>2020-08-27T09:01:40Z</time>
      </trkpt>
      <trkpt lat="48.60031" lon="1.97116">
        <ele>134.72</ele>
        <time>2020-08-27T09:01:41Z</time>
      </trkpt>
      <trkpt lat="48.6003" lon="1.97118">
        <ele>134.24</ele>
        <time>2020-08-27T09:01:42Z</time>
      </trkpt>
      <trkpt lat="48.60029" lon="1.97119">
        <ele>134.24</ele>
        <time>2020-08-27T09:01:43Z</time>
      </trkpt>
      <trkpt lat="48.60028" lon="1.9712">
        <ele>134.72</ele>
        <time>2020-08-27T09:01:44Z</time>
      </trkpt>
      <trkpt lat="48.60026" lon="1.9712">
        <ele>134.72</ele>
        <time>2020-08-27T09:01:45Z</time>
      </trkpt>
      <trkpt lat="48.60025" lon="1.97121">
        <ele>134.72</ele>
        <time>2020-08-27T09:01:46Z</time>
      </trkpt>
      <trkpt lat="48.60024" lon="1.97121">
        <ele>134.24</ele>
        <time>2020-08-27T09:01:47Z</time>
      </trkpt>
      <trkpt lat="48.60023" lon="1.97122">
        <ele>134.72</ele>
        <time>2020-08-27T09:01:48Z</time>
      </trkpt>
      <trkpt lat="48.60022" lon="1.97123">
        <ele>134.72</ele>
        <time>2020-08-27T09:01:49Z</time>
      </trkpt>
      <trkpt lat="48.60021" lon="1.97124">
        <ele>134.72</ele>
        <time>2020-08-27T09:01:50Z</time>
      </trkpt>
      <trkpt lat="48.6002" lon="1.97125">
        <ele>134.72</ele>
        <time>2020-08-27T09:01:51Z</time>
      </trkpt>
      <trkpt lat="48.6002" lon="1.97126">
        <ele>134.72</ele>
        <time>2020-08-27T09:01:52Z</time>
      </trkpt>
      <trkpt lat="48.60019" lon="1.97127">
        <ele>134.72</ele>
        <time>2020-08-27T09:01:53Z</time>
      </trkpt>
      <trkpt lat="48.60018" lon="1.97127">
        <ele>134.72</ele>
        <time>2020-08-27T09:01:54Z</time>
      </trkpt>
      <trkpt lat="48.60017" lon="1.97127">
        <ele>134.72</ele>
        <time>2020-08-27T09:01:55Z</time>
      </trkpt>
      <trkpt lat="48.60016" lon="1.97127">
        <ele>134.72</ele>
        <time>2020-08-27T09:01:56Z</time>
      </trkpt>
      <trkpt lat="48.60014" lon="1.97127">
        <ele>134.72</ele>
        <time>2020-08-27T09:01:57Z</time>
      </trkpt>
      <trkpt lat="48.60013" lon="1.97127">
        <ele>134.72</ele>
        <time>2020-08-27T09:01:58Z</time>
      </trkpt>
      <trkpt lat="48.60011" lon="1.97127">
        <ele>134.72</ele>
        <time>2020-08-27T09:01:59Z</time>
      </trkpt>
      <trkpt lat="48.60009" lon="1.97127">
        <ele>134.72</ele>
        <time>2020-08-27T09:02:00Z</time>
      </trkpt>
      <trkpt lat="48.60008" lon="1.97128">
        <ele>134.72</ele>
        <time>2020-08-27T09:02:01Z</time>
      </trkpt>
      <trkpt lat="48.60006" lon="1.97128">
        <ele>134.72</ele>
        <time>2020-08-27T09:02:02Z</time>
      </trkpt>
      <trkpt lat="48.60005" lon="1.97129">
        <ele>135.2</ele>
        <time>2020-08-27T09:02:03Z</time>
      </trkpt>
      <trkpt lat="48.60003" lon="1.97129">
        <ele>135.2</ele>
        <time>2020-08-27T09:02:04Z</time>
      </trkpt>
      <trkpt lat="48.60002" lon="1.9713">
        <ele>134.72</ele>
        <time>2020-08-27T09:02:05Z</time>
      </trkpt>
      <trkpt lat="48.60001" lon="1.9713">
        <ele>134.72</ele>
        <time>2020-08-27T09:02:06Z</time>
      </trkpt>
      <trkpt lat="48.59999" lon="1.9713">
        <ele>134.72</ele>
        <time>2020-08-27T09:02:07Z</time>
      </trkpt>
      <trkpt lat="48.59998" lon="1.97131">
        <ele>134.72</ele>
        <time>2020-08-27T09:02:08Z</time>
      </trkpt>
      <trkpt lat="48.59997" lon="1.97131">
        <ele>134.72</ele>
        <time>2020-08-27T09:02:09Z</time>
      </trkpt>
      <trkpt lat="48.59996" lon="1.97131">
        <ele>135.2</ele>
        <time>2020-08-27T09:02:10Z</time>
      </trkpt>
      <trkpt lat="48.59995" lon="1.97131">
        <ele>135.2</ele>
        <time>2020-08-27T09:02:11Z</time>
      </trkpt>
      <trkpt lat="48.59994" lon="1.97132">
        <ele>134.72</ele>
        <time>2020-08-27T09:02:12Z</time>
      </trkpt>
      <trkpt lat="48.59993" lon="1.97132">
        <ele>134.72</ele>
        <time>2020-08-27T09:02:13Z</time>
      </trkpt>
      <trkpt lat="48.59992" lon="1.97133">
        <ele>134.72</ele>
        <time>2020-08-27T09:02:14Z</time>
      </trkpt>
      <trkpt lat="48.59992" lon="1.97133">
        <ele>135.2</ele>
        <time>2020-08-27T09:02:15Z</time>
      </trkpt>
      <trkpt lat="48.59991" lon="1.97133">
        <ele>135.2</ele>
        <time>2020-08-27T09:02:16Z</time>
      </trkpt>
      <trkpt lat="48.5999" lon="1.97133">
        <ele>135.2</ele>
        <time>2020-08-27T09:02:17Z</time>
      </trkpt>
      <trkpt lat="48.59989" lon="1.97133">
        <ele>135.2</ele>
        <time>2020-08-27T09:02:18Z</time>
      </trkpt>
      <trkpt lat="48.59987" lon="1.97134">
        <ele>134.72</ele>
        <time>2020-08-27T09:02:19Z</time>
      </trkpt>
      <trkpt lat="48.59986" lon="1.97134">
        <ele>135.2</ele>
        <time>2020-08-27T09:02:20Z</time>
      </trkpt>
      <trkpt lat="48.59985" lon="1.97134">
        <ele>134.72</ele>
        <time>2020-08-27T09:02:21Z</time>
      </trkpt>
      <trkpt lat="48.59983" lon="1.97134">
        <ele>134.72</ele>
        <time>2020-08-27T09:02:22Z</time>
      </trkpt>
      <trkpt lat="48.59982" lon="1.97133">
        <ele>135.2</ele>
        <time>2020-08-27T09:02:23Z</time>
      </trkpt>
      <trkpt lat="48.5998" lon="1.97133">
        <ele>134.72</ele>
        <time>2020-08-27T09:02:24Z</time>
      </trkpt>
      <trkpt lat="48.59979" lon="1.97133">
        <ele>134.72</ele>
        <time>2020-08-27T09:02:25Z</time>
      </trkpt>
      <trkpt lat="48.59977" lon="1.97133">
        <ele>134.72</ele>
        <time>2020-08-27T09:02:26Z</time>
      </trkpt>
      <trkpt lat="48.59975" lon="1.97133">
        <ele>134.72</ele>
        <time>2020-08-27T09:02:27Z</time>
      </trkpt>
      <trkpt lat="48.59974" lon="1.97133">
        <ele>134.72</ele>
        <time>2020-08-27T09:02:28Z</time>
      </trkpt>
      <trkpt lat="48.59972" lon="1.97133">
        <ele>134.72</ele>
        <time>2020-08-27T09:02:29Z</time>
      </trkpt>
      <trkpt lat="48.59971" lon="1.97133">
        <ele>134.72</ele>
        <time>2020-08-27T09:02:30Z</time>
      </trkpt>
      <trkpt lat="48.5997" lon="1.97133">
        <ele>134.72</ele>
        <time>2020-08-27T09:02:31Z</time>
      </trkpt>
      <trkpt lat="48.59969" lon="1.97134">
        <ele>134.72</ele>
        <time>2020-08-27T09:02:32Z</time>
      </trkpt>
      <trkpt lat="48.59968" lon="1.97135">
        <ele>134.72</ele>
        <time>2020-08-27T09:02:33Z</time>
      </trkpt>
      <trkpt lat="48.59968" lon="1.97136">
        <ele>134.72</ele>
        <time>2020-08-27T09:02:34Z</time>
      </trkpt>
      <trkpt lat="48.59968" lon="1.97138">
        <ele>134.72</ele>
        <time>2020-08-27T09:02:48Z</time>
      </trkpt>
      <trkpt lat="48.59967" lon="1.97138">
        <ele>135.2</ele>
        <time>2020-08-27T09:02:49Z</time>
      </trkpt>
      <trkpt lat="48.59967" lon="1.97138">
        <ele>134.72</ele>
        <time>2020-08-27T09:02:52Z</time>
      </trkpt>
      <trkpt lat="48.59967" lon="1.97138">
        <ele>134.72</ele>
        <time>2020-08-27T09:02:53Z</time>
      </trkpt>
      <trkpt lat="48.59966" lon="1.97138">
        <ele>134.72</ele>
        <time>2020-08-27T09:02:54Z</time>
      </trkpt>
      <trkpt lat="48.59966" lon="1.97138">
        <ele>134.72</ele>
        <time>2020-08-27T09:02:55Z</time>
      </trkpt>
      <trkpt lat="48.59966" lon="1.97138">
        <ele>134.72</ele>
        <time>2020-08-27T09:02:56Z</time>
      </trkpt>
      <trkpt lat="48.59965" lon="1.97139">
        <ele>135.2</ele>
        <time>2020-08-27T09:02:57Z</time>
      </trkpt>
      <trkpt lat="48.59965" lon="1.97138">
        <ele>134.72</ele>
        <time>2020-08-27T09:02:58Z</time>
      </trkpt>
      <trkpt lat="48.59965" lon="1.97138">
        <ele>134.72</ele>
        <time>2020-08-27T09:02:59Z</time>
      </trkpt>
      <trkpt lat="48.59964" lon="1.97138">
        <ele>135.2</ele>
        <time>2020-08-27T09:03:00Z</time>
      </trkpt>
      <trkpt lat="48.59964" lon="1.97138">
        <ele>134.72</ele>
        <time>2020-08-27T09:03:01Z</time>
      </trkpt>
      <trkpt lat="48.59964" lon="1.97138">
        <ele>134.72</ele>
        <time>2020-08-27T09:03:02Z</time>
      </trkpt>
      <trkpt lat="48.59963" lon="1.97138">
        <ele>135.2</ele>
        <time>2020-08-27T09:03:03Z</time>
      </trkpt>
      <trkpt lat="48.59963" lon="1.97138">
        <ele>134.72</ele>
        <time>2020-08-27T09:03:04Z</time>
      </trkpt>
      <trkpt lat="48.59963" lon="1.97137">
        <ele>135.2</ele>
        <time>2020-08-27T09:03:05Z</time>
      </trkpt>
      <trkpt lat="48.59962" lon="1.97137">
        <ele>134.72</ele>
        <time>2020-08-27T09:03:06Z</time>
      </trkpt>
      <trkpt lat="48.59962" lon="1.97136">
        <ele>134.72</ele>
        <time>2020-08-27T09:03:07Z</time>
      </trkpt>
      <trkpt lat="48.59962" lon="1.97135">
        <ele>135.2</ele>
        <time>2020-08-27T09:03:08Z</time>
      </trkpt>
      <trkpt lat="48.59962" lon="1.97135">
        <ele>134.72</ele>
        <time>2020-08-27T09:03:09Z</time>
      </trkpt>
      <trkpt lat="48.59961" lon="1.97135">
        <ele>134.72</ele>
        <time>2020-08-27T09:03:10Z</time>
      </trkpt>
      <trkpt lat="48.59961" lon="1.97135">
        <ele>134.72</ele>
        <time>2020-08-27T09:03:24Z</time>
      </trkpt>
      <trkpt lat="48.59961" lon="1.97135">
        <ele>135.2</ele>
        <time>2020-08-27T09:03:25Z</time>
      </trkpt>
      <trkpt lat="48.59961" lon="1.97135">
        <ele>135.2</ele>
        <time>2020-08-27T09:03:26Z</time>
      </trkpt>
      <trkpt lat="48.5996" lon="1.97136">
        <ele>134.72</ele>
        <time>2020-08-27T09:03:27Z</time>
      </trkpt>
      <trkpt lat="48.5996" lon="1.97136">
        <ele>134.72</ele>
        <time>2020-08-27T09:03:28Z</time>
      </trkpt>
      <trkpt lat="48.5996" lon="1.97138">
        <ele>134.72</ele>
        <time>2020-08-27T09:03:29Z</time>
      </trkpt>
      <trkpt lat="48.5996" lon="1.97139">
        <ele>134.72</ele>
        <time>2020-08-27T09:03:30Z</time>
      </trkpt>
      <trkpt lat="48.5996" lon="1.97141">
        <ele>134.72</ele>
        <time>2020-08-27T09:03:31Z</time>
      </trkpt>
      <trkpt lat="48.5996" lon="1.97141">
        <ele>134.72</ele>
        <time>2020-08-27T09:03:32Z</time>
      </trkpt>
      <trkpt lat="48.5996" lon="1.97141">
        <ele>134.72</ele>
        <time>2020-08-27T09:03:34Z</time>
      </trkpt>
      <trkpt lat="48.5996" lon="1.97141">
        <ele>134.72</ele>
        <time>2020-08-27T09:03:35Z</time>
      </trkpt>
      <trkpt lat="48.59959" lon="1.97142">
        <ele>134.72</ele>
        <time>2020-08-27T09:03:36Z</time>
      </trkpt>
      <trkpt lat="48.59959" lon="1.97142">
        <ele>134.72</ele>
        <time>2020-08-27T09:03:37Z</time>
      </trkpt>
      <trkpt lat="48.59958" lon="1.97142">
        <ele>135.2</ele>
        <time>2020-08-27T09:03:38Z</time>
      </trkpt>
      <trkpt lat="48.59957" lon="1.97142">
        <ele>134.72</ele>
        <time>2020-08-27T09:03:39Z</time>
      </trkpt>
      <trkpt lat="48.59956" lon="1.97141">
        <ele>134.24</ele>
        <time>2020-08-27T09:03:40Z</time>
      </trkpt>
      <trkpt lat="48.59955" lon="1.97142">
        <ele>134.24</ele>
        <time>2020-08-27T09:03:41Z</time>
      </trkpt>
      <trkpt lat="48.59953" lon="1.97142">
        <ele>134.24</ele>
        <time>2020-08-27T09:03:42Z</time>
      </trkpt>
      <trkpt lat="48.59952" lon="1.97142">
        <ele>134.24</ele>
        <time>2020-08-27T09:03:43Z</time>
      </trkpt>
      <trkpt lat="48.59951" lon="1.97143">
        <ele>134.24</ele>
        <time>2020-08-27T09:03:44Z</time>
      </trkpt>
      <trkpt lat="48.59949" lon="1.97143">
        <ele>134.24</ele>
        <time>2020-08-27T09:03:45Z</time>
      </trkpt>
      <trkpt lat="48.59948" lon="1.97144">
        <ele>133.76</ele>
        <time>2020-08-27T09:03:46Z</time>
      </trkpt>
      <trkpt lat="48.59947" lon="1.97145">
        <ele>133.76</ele>
        <time>2020-08-27T09:03:47Z</time>
      </trkpt>
      <trkpt lat="48.59946" lon="1.97146">
        <ele>133.76</ele>
        <time>2020-08-27T09:03:48Z</time>
      </trkpt>
      <trkpt lat="48.59944" lon="1.97146">
        <ele>133.76</ele>
        <time>2020-08-27T09:03:49Z</time>
      </trkpt>
      <trkpt lat="48.59942" lon="1.97147">
        <ele>133.28</ele>
        <time>2020-08-27T09:03:50Z</time>
      </trkpt>
      <trkpt lat="48.59941" lon="1.97147">
        <ele>133.28</ele>
        <time>2020-08-27T09:03:51Z</time>
      </trkpt>
      <trkpt lat="48.59939" lon="1.97147">
        <ele>133.28</ele>
        <time>2020-08-27T09:03:52Z</time>
      </trkpt>
      <trkpt lat="48.59938" lon="1.97147">
        <ele>133.28</ele>
        <time>2020-08-27T09:03:53Z</time>
      </trkpt>
      <trkpt lat="48.59937" lon="1.97147">
        <ele>133.28</ele>
        <time>2020-08-27T09:03:54Z</time>
      </trkpt>
      <trkpt lat="48.59936" lon="1.97148">
        <ele>132.8</ele>
        <time>2020-08-27T09:03:55Z</time>
      </trkpt>
      <trkpt lat="48.59934" lon="1.97148">
        <ele>132.8</ele>
        <time>2020-08-27T09:03:56Z</time>
      </trkpt>
      <trkpt lat="48.59934" lon="1.97149">
        <ele>132.8</ele>
        <time>2020-08-27T09:03:57Z</time>
      </trkpt>
      <trkpt lat="48.59933" lon="1.9715">
        <ele>132.8</ele>
        <time>2020-08-27T09:03:58Z</time>
      </trkpt>
      <trkpt lat="48.59932" lon="1.9715">
        <ele>132.8</ele>
        <time>2020-08-27T09:03:59Z</time>
      </trkpt>
      <trkpt lat="48.59932" lon="1.97151">
        <ele>132.8</ele>
        <time>2020-08-27T09:04:00Z</time>
      </trkpt>
      <trkpt lat="48.59931" lon="1.97152">
        <ele>132.8</ele>
        <time>2020-08-27T09:04:01Z</time>
      </trkpt>
      <trkpt lat="48.5993" lon="1.97152">
        <ele>132.8</ele>
        <time>2020-08-27T09:04:02Z</time>
      </trkpt>
      <trkpt lat="48.59929" lon="1.97152">
        <ele>132.8</ele>
        <time>2020-08-27T09:04:03Z</time>
      </trkpt>
      <trkpt lat="48.59928" lon="1.97152">
        <ele>132.8</ele>
        <time>2020-08-27T09:04:04Z</time>
      </trkpt>
      <trkpt lat="48.59927" lon="1.97152">
        <ele>132.32</ele>
        <time>2020-08-27T09:04:05Z</time>
      </trkpt>
      <trkpt lat="48.59925" lon="1.97153">
        <ele>132.32</ele>
        <time>2020-08-27T09:04:06Z</time>
      </trkpt>
      <trkpt lat="48.59924" lon="1.97153">
        <ele>131.84</ele>
        <time>2020-08-27T09:04:07Z</time>
      </trkpt>
      <trkpt lat="48.59922" lon="1.97153">
        <ele>131.84</ele>
        <time>2020-08-27T09:04:08Z</time>
      </trkpt>
      <trkpt lat="48.59921" lon="1.97154">
        <ele>132.32</ele>
        <time>2020-08-27T09:04:09Z</time>
      </trkpt>
      <trkpt lat="48.5992" lon="1.97155">
        <ele>131.84</ele>
        <time>2020-08-27T09:04:10Z</time>
      </trkpt>
      <trkpt lat="48.59918" lon="1.97155">
        <ele>131.84</ele>
        <time>2020-08-27T09:04:11Z</time>
      </trkpt>
      <trkpt lat="48.59917" lon="1.97156">
        <ele>131.84</ele>
        <time>2020-08-27T09:04:12Z</time>
      </trkpt>
      <trkpt lat="48.59916" lon="1.97157">
        <ele>131.36</ele>
        <time>2020-08-27T09:04:13Z</time>
      </trkpt>
      <trkpt lat="48.59915" lon="1.97157">
        <ele>131.84</ele>
        <time>2020-08-27T09:04:14Z</time>
      </trkpt>
      <trkpt lat="48.59914" lon="1.97158">
        <ele>131.36</ele>
        <time>2020-08-27T09:04:15Z</time>
      </trkpt>
      <trkpt lat="48.59913" lon="1.97159">
        <ele>131.36</ele>
        <time>2020-08-27T09:04:16Z</time>
      </trkpt>
      <trkpt lat="48.59912" lon="1.97159">
        <ele>131.84</ele>
        <time>2020-08-27T09:04:17Z</time>
      </trkpt>
      <trkpt lat="48.5991" lon="1.9716">
        <ele>131.36</ele>
        <time>2020-08-27T09:04:18Z</time>
      </trkpt>
      <trkpt lat="48.59909" lon="1.9716">
        <ele>131.36</ele>
        <time>2020-08-27T09:04:19Z</time>
      </trkpt>
      <trkpt lat="48.59908" lon="1.9716">
        <ele>130.88</ele>
        <time>2020-08-27T09:04:20Z</time>
      </trkpt>
      <trkpt lat="48.59907" lon="1.97161">
        <ele>130.88</ele>
        <time>2020-08-27T09:04:21Z</time>
      </trkpt>
      <trkpt lat="48.59906" lon="1.97161">
        <ele>131.36</ele>
        <time>2020-08-27T09:04:22Z</time>
      </trkpt>
      <trkpt lat="48.59905" lon="1.97161">
        <ele>130.88</ele>
        <time>2020-08-27T09:04:23Z</time>
      </trkpt>
      <trkpt lat="48.59904" lon="1.97162">
        <ele>130.88</ele>
        <time>2020-08-27T09:04:24Z</time>
      </trkpt>
      <trkpt lat="48.59902" lon="1.97162">
        <ele>131.36</ele>
        <time>2020-08-27T09:04:25Z</time>
      </trkpt>
      <trkpt lat="48.599" lon="1.97162">
        <ele>130.88</ele>
        <time>2020-08-27T09:04:26Z</time>
      </trkpt>
      <trkpt lat="48.59898" lon="1.97162">
        <ele>130.4</ele>
        <time>2020-08-27T09:04:27Z</time>
      </trkpt>
      <trkpt lat="48.59896" lon="1.97162">
        <ele>130.88</ele>
        <time>2020-08-27T09:04:28Z</time>
      </trkpt>
      <trkpt lat="48.59894" lon="1.97163">
        <ele>130.88</ele>
        <time>2020-08-27T09:04:29Z</time>
      </trkpt>
      <trkpt lat="48.59892" lon="1.97163">
        <ele>130.4</ele>
        <time>2020-08-27T09:04:30Z</time>
      </trkpt>
      <trkpt lat="48.59891" lon="1.97163">
        <ele>130.88</ele>
        <time>2020-08-27T09:04:31Z</time>
      </trkpt>
      <trkpt lat="48.59889" lon="1.97164">
        <ele>130.88</ele>
        <time>2020-08-27T09:04:32Z</time>
      </trkpt>
      <trkpt lat="48.59888" lon="1.97164">
        <ele>130.88</ele>
        <time>2020-08-27T09:04:33Z</time>
      </trkpt>
      <trkpt lat="48.59887" lon="1.97165">
        <ele>130.4</ele>
        <time>2020-08-27T09:04:34Z</time>
      </trkpt>
      <trkpt lat="48.59886" lon="1.97165">
        <ele>130.4</ele>
        <time>2020-08-27T09:04:35Z</time>
      </trkpt>
      <trkpt lat="48.59885" lon="1.97166">
        <ele>130.4</ele>
        <time>2020-08-27T09:04:36Z</time>
      </trkpt>
      <trkpt lat="48.59885" lon="1.97167">
        <ele>130.4</ele>
        <time>2020-08-27T09:04:37Z</time>
      </trkpt>
      <trkpt lat="48.59885" lon="1.97167">
        <ele>129.92</ele>
        <time>2020-08-27T09:04:38Z</time>
      </trkpt>
      <trkpt lat="48.59884" lon="1.97168">
        <ele>130.4</ele>
        <time>2020-08-27T09:04:39Z</time>
      </trkpt>
      <trkpt lat="48.59883" lon="1.97169">
        <ele>130.4</ele>
        <time>2020-08-27T09:04:40Z</time>
      </trkpt>
      <trkpt lat="48.59882" lon="1.97169">
        <ele>130.4</ele>
        <time>2020-08-27T09:04:41Z</time>
      </trkpt>
      <trkpt lat="48.5988" lon="1.9717">
        <ele>130.4</ele>
        <time>2020-08-27T09:04:42Z</time>
      </trkpt>
      <trkpt lat="48.59879" lon="1.9717">
        <ele>130.4</ele>
        <time>2020-08-27T09:04:43Z</time>
      </trkpt>
      <trkpt lat="48.59878" lon="1.97171">
        <ele>130.4</ele>
        <time>2020-08-27T09:04:44Z</time>
      </trkpt>
      <trkpt lat="48.59877" lon="1.97171">
        <ele>130.4</ele>
        <time>2020-08-27T09:04:45Z</time>
      </trkpt>
      <trkpt lat="48.59876" lon="1.97171">
        <ele>129.92</ele>
        <time>2020-08-27T09:04:46Z</time>
      </trkpt>
      <trkpt lat="48.59875" lon="1.97171">
        <ele>130.4</ele>
        <time>2020-08-27T09:04:47Z</time>
      </trkpt>
      <trkpt lat="48.59874" lon="1.97171">
        <ele>130.4</ele>
        <time>2020-08-27T09:04:48Z</time>
      </trkpt>
      <trkpt lat="48.59873" lon="1.97171">
        <ele>130.4</ele>
        <time>2020-08-27T09:04:49Z</time>
      </trkpt>
      <trkpt lat="48.59872" lon="1.97172">
        <ele>130.4</ele>
        <time>2020-08-27T09:04:50Z</time>
      </trkpt>
      <trkpt lat="48.59871" lon="1.97172">
        <ele>129.92</ele>
        <time>2020-08-27T09:04:51Z</time>
      </trkpt>
      <trkpt lat="48.59871" lon="1.97172">
        <ele>129.92</ele>
        <time>2020-08-27T09:04:52Z</time>
      </trkpt>
      <trkpt lat="48.59871" lon="1.97172">
        <ele>129.92</ele>
        <time>2020-08-27T09:04:53Z</time>
      </trkpt>
      <trkpt lat="48.59871" lon="1.97172">
        <ele>129.92</ele>
        <time>2020-08-27T09:04:54Z</time>
      </trkpt>
      <trkpt lat="48.5987" lon="1.97173">
        <ele>129.92</ele>
        <time>2020-08-27T09:04:55Z</time>
      </trkpt>
      <trkpt lat="48.59868" lon="1.97174">
        <ele>129.92</ele>
        <time>2020-08-27T09:04:56Z</time>
      </trkpt>
      <trkpt lat="48.59866" lon="1.97174">
        <ele>129.92</ele>
        <time>2020-08-27T09:04:57Z</time>
      </trkpt>
      <trkpt lat="48.59864" lon="1.97174">
        <ele>129.92</ele>
        <time>2020-08-27T09:04:58Z</time>
      </trkpt>
      <trkpt lat="48.59863" lon="1.97174">
        <ele>129.92</ele>
        <time>2020-08-27T09:04:59Z</time>
      </trkpt>
      <trkpt lat="48.59861" lon="1.97175">
        <ele>129.92</ele>
        <time>2020-08-27T09:05:00Z</time>
      </trkpt>
      <trkpt lat="48.59859" lon="1.97176">
        <ele>129.92</ele>
        <time>2020-08-27T09:05:01Z</time>
      </trkpt>
      <trkpt lat="48.59857" lon="1.97177">
        <ele>129.92</ele>
        <time>2020-08-27T09:05:02Z</time>
      </trkpt>
      <trkpt lat="48.59855" lon="1.97178">
        <ele>129.92</ele>
        <time>2020-08-27T09:05:03Z</time>
      </trkpt>
      <trkpt lat="48.59854" lon="1.9718">
        <ele>129.92</ele>
        <time>2020-08-27T09:05:04Z</time>
      </trkpt>
      <trkpt lat="48.59853" lon="1.97181">
        <ele>129.92</ele>
        <time>2020-08-27T09:05:05Z</time>
      </trkpt>
      <trkpt lat="48.59851" lon="1.97182">
        <ele>129.92</ele>
        <time>2020-08-27T09:05:06Z</time>
      </trkpt>
      <trkpt lat="48.59849" lon="1.97184">
        <ele>129.92</ele>
        <time>2020-08-27T09:05:07Z</time>
      </trkpt>
      <trkpt lat="48.59848" lon="1.97184">
        <ele>129.92</ele>
        <time>2020-08-27T09:05:08Z</time>
      </trkpt>
      <trkpt lat="48.59847" lon="1.97186">
        <ele>129.92</ele>
        <time>2020-08-27T09:05:09Z</time>
      </trkpt>
      <trkpt lat="48.59846" lon="1.97186">
        <ele>129.92</ele>
        <time>2020-08-27T09:05:10Z</time>
      </trkpt>
      <trkpt lat="48.59844" lon="1.97187">
        <ele>129.92</ele>
        <time>2020-08-27T09:05:11Z</time>
      </trkpt>
      <trkpt lat="48.59843" lon="1.97188">
        <ele>129.92</ele>
        <time>2020-08-27T09:05:12Z</time>
      </trkpt>
      <trkpt lat="48.59841" lon="1.97188">
        <ele>129.92</ele>
        <time>2020-08-27T09:05:13Z</time>
      </trkpt>
      <trkpt lat="48.5984" lon="1.97189">
        <ele>129.92</ele>
        <time>2020-08-27T09:05:14Z</time>
      </trkpt>
      <trkpt lat="48.59839" lon="1.9719">
        <ele>129.43</ele>
        <time>2020-08-27T09:05:15Z</time>
      </trkpt>
      <trkpt lat="48.59837" lon="1.97191">
        <ele>129.43</ele>
        <time>2020-08-27T09:05:16Z</time>
      </trkpt>
      <trkpt lat="48.59836" lon="1.97191">
        <ele>129.43</ele>
        <time>2020-08-27T09:05:17Z</time>
      </trkpt>
      <trkpt lat="48.59834" lon="1.97191">
        <ele>129.43</ele>
        <time>2020-08-27T09:05:18Z</time>
      </trkpt>
      <trkpt lat="48.59833" lon="1.97191">
        <ele>129.43</ele>
        <time>2020-08-27T09:05:19Z</time>
      </trkpt>
      <trkpt lat="48.59832" lon="1.97192">
        <ele>129.43</ele>
        <time>2020-08-27T09:05:20Z</time>
      </trkpt>
      <trkpt lat="48.59831" lon="1.97192">
        <ele>129.92</ele>
        <time>2020-08-27T09:05:21Z</time>
      </trkpt>
      <trkpt lat="48.5983" lon="1.97193">
        <ele>129.43</ele>
        <time>2020-08-27T09:05:22Z</time>
      </trkpt>
      <trkpt lat="48.59829" lon="1.97194">
        <ele>129.43</ele>
        <time>2020-08-27T09:05:23Z</time>
      </trkpt>
      <trkpt lat="48.59828" lon="1.97195">
        <ele>129.43</ele>
        <time>2020-08-27T09:05:24Z</time>
      </trkpt>
      <trkpt lat="48.59826" lon="1.97196">
        <ele>129.43</ele>
        <time>2020-08-27T09:05:25Z</time>
      </trkpt>
      <trkpt lat="48.59825" lon="1.97197">
        <ele>129.43</ele>
        <time>2020-08-27T09:05:26Z</time>
      </trkpt>
      <trkpt lat="48.59824" lon="1.97198">
        <ele>129.43</ele>
        <time>2020-08-27T09:05:27Z</time>
      </trkpt>
      <trkpt lat="48.59822" lon="1.97198">
        <ele>129.43</ele>
        <time>2020-08-27T09:05:28Z</time>
      </trkpt>
      <trkpt lat="48.59821" lon="1.97199">
        <ele>128.95</ele>
        <time>2020-08-27T09:05:29Z</time>
      </trkpt>
      <trkpt lat="48.5982" lon="1.97199">
        <ele>129.92</ele>
        <time>2020-08-27T09:05:30Z</time>
      </trkpt>
      <trkpt lat="48.59818" lon="1.972">
        <ele>129.43</ele>
        <time>2020-08-27T09:05:31Z</time>
      </trkpt>
      <trkpt lat="48.59817" lon="1.97201">
        <ele>129.43</ele>
        <time>2020-08-27T09:05:32Z</time>
      </trkpt>
      <trkpt lat="48.59815" lon="1.97202">
        <ele>129.43</ele>
        <time>2020-08-27T09:05:33Z</time>
      </trkpt>
      <trkpt lat="48.59814" lon="1.97202">
        <ele>129.43</ele>
        <time>2020-08-27T09:05:34Z</time>
      </trkpt>
      <trkpt lat="48.59812" lon="1.97203">
        <ele>129.43</ele>
        <time>2020-08-27T09:05:35Z</time>
      </trkpt>
      <trkpt lat="48.59811" lon="1.97203">
        <ele>129.43</ele>
        <time>2020-08-27T09:05:36Z</time>
      </trkpt>
      <trkpt lat="48.59809" lon="1.97204">
        <ele>129.43</ele>
        <time>2020-08-27T09:05:37Z</time>
      </trkpt>
      <trkpt lat="48.59808" lon="1.97204">
        <ele>129.43</ele>
        <time>2020-08-27T09:05:38Z</time>
      </trkpt>
      <trkpt lat="48.59806" lon="1.97205">
        <ele>130.88</ele>
        <time>2020-08-27T09:05:39Z</time>
      </trkpt>
      <trkpt lat="48.59805" lon="1.97206">
        <ele>129.43</ele>
        <time>2020-08-27T09:05:40Z</time>
      </trkpt>
      <trkpt lat="48.59804" lon="1.97207">
        <ele>129.43</ele>
        <time>2020-08-27T09:05:41Z</time>
      </trkpt>
      <trkpt lat="48.59803" lon="1.97207">
        <ele>129.43</ele>
        <time>2020-08-27T09:05:42Z</time>
      </trkpt>
      <trkpt lat="48.59802" lon="1.97208">
        <ele>129.43</ele>
        <time>2020-08-27T09:05:43Z</time>
      </trkpt>
      <trkpt lat="48.598" lon="1.97208">
        <ele>129.43</ele>
        <time>2020-08-27T09:05:44Z</time>
      </trkpt>
      <trkpt lat="48.59799" lon="1.97208">
        <ele>129.43</ele>
        <time>2020-08-27T09:05:45Z</time>
      </trkpt>
      <trkpt lat="48.59797" lon="1.97209">
        <ele>129.92</ele>
        <time>2020-08-27T09:05:46Z</time>
      </trkpt>
      <trkpt lat="48.59796" lon="1.9721">
        <ele>129.92</ele>
        <time>2020-08-27T09:05:47Z</time>
      </trkpt>
      <trkpt lat="48.59794" lon="1.97211">
        <ele>129.92</ele>
        <time>2020-08-27T09:05:48Z</time>
      </trkpt>
      <trkpt lat="48.59793" lon="1.97211">
        <ele>129.92</ele>
        <time>2020-08-27T09:05:49Z</time>
      </trkpt>
      <trkpt lat="48.59792" lon="1.97211">
        <ele>129.92</ele>
        <time>2020-08-27T09:05:50Z</time>
      </trkpt>
      <trkpt lat="48.5979" lon="1.97212">
        <ele>129.43</ele>
        <time>2020-08-27T09:05:51Z</time>
      </trkpt>
      <trkpt lat="48.59789" lon="1.97212">
        <ele>129.92</ele>
        <time>2020-08-27T09:05:52Z</time>
      </trkpt>
      <trkpt lat="48.59787" lon="1.97212">
        <ele>129.92</ele>
        <time>2020-08-27T09:05:53Z</time>
      </trkpt>
      <trkpt lat="48.59786" lon="1.97212">
        <ele>129.92</ele>
        <time>2020-08-27T09:05:54Z</time>
      </trkpt>
      <trkpt lat="48.59784" lon="1.97212">
        <ele>129.92</ele>
        <time>2020-08-27T09:05:55Z</time>
      </trkpt>
      <trkpt lat="48.59783" lon="1.97211">
        <ele>129.92</ele>
        <time>2020-08-27T09:05:56Z</time>
      </trkpt>
      <trkpt lat="48.59781" lon="1.97211">
        <ele>129.92</ele>
        <time>2020-08-27T09:05:57Z</time>
      </trkpt>
      <trkpt lat="48.5978" lon="1.97211">
        <ele>130.4</ele>
        <time>2020-08-27T09:05:58Z</time>
      </trkpt>
      <trkpt lat="48.59778" lon="1.97211">
        <ele>129.92</ele>
        <time>2020-08-27T09:05:59Z</time>
      </trkpt>
      <trkpt lat="48.59777" lon="1.97211">
        <ele>129.92</ele>
        <time>2020-08-27T09:06:00Z</time>
      </trkpt>
      <trkpt lat="48.59775" lon="1.97212">
        <ele>129.92</ele>
        <time>2020-08-27T09:06:01Z</time>
      </trkpt>
      <trkpt lat="48.59774" lon="1.97212">
        <ele>130.4</ele>
        <time>2020-08-27T09:06:02Z</time>
      </trkpt>
      <trkpt lat="48.59772" lon="1.97212">
        <ele>130.4</ele>
        <time>2020-08-27T09:06:03Z</time>
      </trkpt>
      <trkpt lat="48.59771" lon="1.97212">
        <ele>130.4</ele>
        <time>2020-08-27T09:06:04Z</time>
      </trkpt>
      <trkpt lat="48.5977" lon="1.97213">
        <ele>129.92</ele>
        <time>2020-08-27T09:06:05Z</time>
      </trkpt>
      <trkpt lat="48.59769" lon="1.97213">
        <ele>130.4</ele>
        <time>2020-08-27T09:06:06Z</time>
      </trkpt>
      <trkpt lat="48.59766" lon="1.97213">
        <ele>129.92</ele>
        <time>2020-08-27T09:06:07Z</time>
      </trkpt>
      <trkpt lat="48.59764" lon="1.97214">
        <ele>129.43</ele>
        <time>2020-08-27T09:06:08Z</time>
      </trkpt>
      <trkpt lat="48.59763" lon="1.97215">
        <ele>129.92</ele>
        <time>2020-08-27T09:06:09Z</time>
      </trkpt>
      <trkpt lat="48.59762" lon="1.97217">
        <ele>129.43</ele>
        <time>2020-08-27T09:06:10Z</time>
      </trkpt>
      <trkpt lat="48.5976" lon="1.97219">
        <ele>130.4</ele>
        <time>2020-08-27T09:06:11Z</time>
      </trkpt>
      <trkpt lat="48.59759" lon="1.97222">
        <ele>129.92</ele>
        <time>2020-08-27T09:06:12Z</time>
      </trkpt>
      <trkpt lat="48.59759" lon="1.97223">
        <ele>129.92</ele>
        <time>2020-08-27T09:06:13Z</time>
      </trkpt>
      <trkpt lat="48.59758" lon="1.97224">
        <ele>129.92</ele>
        <time>2020-08-27T09:06:14Z</time>
      </trkpt>
      <trkpt lat="48.59757" lon="1.97226">
        <ele>129.92</ele>
        <time>2020-08-27T09:06:15Z</time>
      </trkpt>
      <trkpt lat="48.59756" lon="1.97228">
        <ele>129.43</ele>
        <time>2020-08-27T09:06:16Z</time>
      </trkpt>
      <trkpt lat="48.59755" lon="1.97229">
        <ele>129.92</ele>
        <time>2020-08-27T09:06:17Z</time>
      </trkpt>
      <trkpt lat="48.59753" lon="1.9723">
        <ele>129.43</ele>
        <time>2020-08-27T09:06:18Z</time>
      </trkpt>
      <trkpt lat="48.59752" lon="1.97231">
        <ele>129.43</ele>
        <time>2020-08-27T09:06:19Z</time>
      </trkpt>
      <trkpt lat="48.59751" lon="1.97232">
        <ele>129.43</ele>
        <time>2020-08-27T09:06:20Z</time>
      </trkpt>
      <trkpt lat="48.5975" lon="1.97234">
        <ele>129.43</ele>
        <time>2020-08-27T09:06:21Z</time>
      </trkpt>
      <trkpt lat="48.59749" lon="1.97235">
        <ele>129.92</ele>
        <time>2020-08-27T09:06:22Z</time>
      </trkpt>
      <trkpt lat="48.59748" lon="1.97235">
        <ele>129.92</ele>
        <time>2020-08-27T09:06:23Z</time>
      </trkpt>
      <trkpt lat="48.59748" lon="1.97236">
        <ele>129.92</ele>
        <time>2020-08-27T09:06:24Z</time>
      </trkpt>
      <trkpt lat="48.59748" lon="1.97236">
        <ele>129.92</ele>
        <time>2020-08-27T09:06:25Z</time>
      </trkpt>
      <trkpt lat="48.59748" lon="1.97237">
        <ele>129.43</ele>
        <time>2020-08-27T09:06:26Z</time>
      </trkpt>
      <trkpt lat="48.59748" lon="1.97237">
        <ele>130.88</ele>
        <time>2020-08-27T09:06:27Z</time>
      </trkpt>
      <trkpt lat="48.59747" lon="1.97237">
        <ele>129.92</ele>
        <time>2020-08-27T09:06:28Z</time>
      </trkpt>
      <trkpt lat="48.59746" lon="1.97238">
        <ele>129.92</ele>
        <time>2020-08-27T09:06:29Z</time>
      </trkpt>
      <trkpt lat="48.59745" lon="1.97238">
        <ele>129.92</ele>
        <time>2020-08-27T09:06:30Z</time>
      </trkpt>
      <trkpt lat="48.59745" lon="1.97239">
        <ele>129.43</ele>
        <time>2020-08-27T09:06:31Z</time>
      </trkpt>
      <trkpt lat="48.59744" lon="1.97239">
        <ele>129.92</ele>
        <time>2020-08-27T09:06:32Z</time>
      </trkpt>
      <trkpt lat="48.59744" lon="1.97239">
        <ele>129.92</ele>
        <time>2020-08-27T09:06:33Z</time>
      </trkpt>
      <trkpt lat="48.59743" lon="1.97239">
        <ele>129.92</ele>
        <time>2020-08-27T09:06:34Z</time>
      </trkpt>
      <trkpt lat="48.59743" lon="1.9724">
        <ele>129.43</ele>
        <time>2020-08-27T09:06:35Z</time>
      </trkpt>
      <trkpt lat="48.59742" lon="1.9724">
        <ele>129.92</ele>
        <time>2020-08-27T09:06:36Z</time>
      </trkpt>
      <trkpt lat="48.59741" lon="1.97241">
        <ele>129.43</ele>
        <time>2020-08-27T09:06:37Z</time>
      </trkpt>
      <trkpt lat="48.5974" lon="1.97242">
        <ele>129.43</ele>
        <time>2020-08-27T09:06:38Z</time>
      </trkpt>
      <trkpt lat="48.59739" lon="1.97242">
        <ele>129.43</ele>
        <time>2020-08-27T09:06:39Z</time>
      </trkpt>
      <trkpt lat="48.59737" lon="1.97243">
        <ele>129.43</ele>
        <time>2020-08-27T09:06:40Z</time>
      </trkpt>
      <trkpt lat="48.59736" lon="1.97243">
        <ele>129.92</ele>
        <time>2020-08-27T09:06:41Z</time>
      </trkpt>
      <trkpt lat="48.59735" lon="1.97244">
        <ele>129.43</ele>
        <time>2020-08-27T09:06:42Z</time>
      </trkpt>
      <trkpt lat="48.59733" lon="1.97244">
        <ele>128.95</ele>
        <time>2020-08-27T09:06:43Z</time>
      </trkpt>
      <trkpt lat="48.59732" lon="1.97245">
        <ele>129.92</ele>
        <time>2020-08-27T09:06:44Z</time>
      </trkpt>
      <trkpt lat="48.59731" lon="1.97246">
        <ele>129.43</ele>
        <time>2020-08-27T09:06:45Z</time>
      </trkpt>
      <trkpt lat="48.5973" lon="1.97246">
        <ele>129.43</ele>
        <time>2020-08-27T09:06:46Z</time>
      </trkpt>
      <trkpt lat="48.59728" lon="1.97247">
        <ele>129.43</ele>
        <time>2020-08-27T09:06:47Z</time>
      </trkpt>
      <trkpt lat="48.59727" lon="1.97248">
        <ele>128.95</ele>
        <time>2020-08-27T09:06:48Z</time>
      </trkpt>
      <trkpt lat="48.59727" lon="1.97248">
        <ele>129.43</ele>
        <time>2020-08-27T09:06:49Z</time>
      </trkpt>
      <trkpt lat="48.59726" lon="1.97249">
        <ele>129.43</ele>
        <time>2020-08-27T09:06:50Z</time>
      </trkpt>
      <trkpt lat="48.59725" lon="1.9725">
        <ele>128.95</ele>
        <time>2020-08-27T09:06:51Z</time>
      </trkpt>
      <trkpt lat="48.59724" lon="1.9725">
        <ele>128.95</ele>
        <time>2020-08-27T09:06:52Z</time>
      </trkpt>
      <trkpt lat="48.59723" lon="1.97251">
        <ele>128.95</ele>
        <time>2020-08-27T09:06:53Z</time>
      </trkpt>
      <trkpt lat="48.59723" lon="1.97252">
        <ele>128.95</ele>
        <time>2020-08-27T09:06:54Z</time>
      </trkpt>
      <trkpt lat="48.59722" lon="1.97252">
        <ele>128.95</ele>
        <time>2020-08-27T09:06:55Z</time>
      </trkpt>
      <trkpt lat="48.59721" lon="1.97253">
        <ele>128.95</ele>
        <time>2020-08-27T09:06:56Z</time>
      </trkpt>
      <trkpt lat="48.59719" lon="1.97253">
        <ele>128.47</ele>
        <time>2020-08-27T09:06:57Z</time>
      </trkpt>
      <trkpt lat="48.59718" lon="1.97254">
        <ele>128.47</ele>
        <time>2020-08-27T09:06:58Z</time>
      </trkpt>
      <trkpt lat="48.59717" lon="1.97254">
        <ele>128.47</ele>
        <time>2020-08-27T09:06:59Z</time>
      </trkpt>
      <trkpt lat="48.59716" lon="1.97254">
        <ele>128.47</ele>
        <time>2020-08-27T09:07:00Z</time>
      </trkpt>
      <trkpt lat="48.59714" lon="1.97254">
        <ele>128.47</ele>
        <time>2020-08-27T09:07:01Z</time>
      </trkpt>
      <trkpt lat="48.59712" lon="1.97254">
        <ele>127.99</ele>
        <time>2020-08-27T09:07:02Z</time>
      </trkpt>
      <trkpt lat="48.5971" lon="1.97253">
        <ele>127.99</ele>
        <time>2020-08-27T09:07:03Z</time>
      </trkpt>
      <trkpt lat="48.59709" lon="1.97254">
        <ele>127.99</ele>
        <time>2020-08-27T09:07:04Z</time>
      </trkpt>
      <trkpt lat="48.59707" lon="1.97255">
        <ele>127.99</ele>
        <time>2020-08-27T09:07:05Z</time>
      </trkpt>
      <trkpt lat="48.59706" lon="1.97255">
        <ele>127.99</ele>
        <time>2020-08-27T09:07:06Z</time>
      </trkpt>
      <trkpt lat="48.59705" lon="1.97255">
        <ele>127.99</ele>
        <time>2020-08-27T09:07:07Z</time>
      </trkpt>
      <trkpt lat="48.59704" lon="1.97256">
        <ele>127.51</ele>
        <time>2020-08-27T09:07:08Z</time>
      </trkpt>
      <trkpt lat="48.59702" lon="1.97256">
        <ele>127.99</ele>
        <time>2020-08-27T09:07:09Z</time>
      </trkpt>
      <trkpt lat="48.59701" lon="1.97257">
        <ele>127.99</ele>
        <time>2020-08-27T09:07:10Z</time>
      </trkpt>
      <trkpt lat="48.597" lon="1.97257">
        <ele>127.99</ele>
        <time>2020-08-27T09:07:11Z</time>
      </trkpt>
      <trkpt lat="48.59699" lon="1.97258">
        <ele>127.51</ele>
        <time>2020-08-27T09:07:12Z</time>
      </trkpt>
      <trkpt lat="48.59698" lon="1.97258">
        <ele>127.99</ele>
        <time>2020-08-27T09:07:13Z</time>
      </trkpt>
      <trkpt lat="48.59696" lon="1.97258">
        <ele>127.51</ele>
        <time>2020-08-27T09:07:14Z</time>
      </trkpt>
      <trkpt lat="48.59695" lon="1.97259">
        <ele>127.51</ele>
        <time>2020-08-27T09:07:15Z</time>
      </trkpt>
      <trkpt lat="48.59693" lon="1.97259">
        <ele>127.99</ele>
        <time>2020-08-27T09:07:16Z</time>
      </trkpt>
      <trkpt lat="48.59692" lon="1.9726">
        <ele>127.51</ele>
        <time>2020-08-27T09:07:17Z</time>
      </trkpt>
      <trkpt lat="48.59691" lon="1.9726">
        <ele>127.51</ele>
        <time>2020-08-27T09:07:18Z</time>
      </trkpt>
      <trkpt lat="48.59689" lon="1.97261">
        <ele>127.51</ele>
        <time>2020-08-27T09:07:19Z</time>
      </trkpt>
      <trkpt lat="48.59688" lon="1.97262">
        <ele>127.51</ele>
        <time>2020-08-27T09:07:20Z</time>
      </trkpt>
      <trkpt lat="48.59687" lon="1.97263">
        <ele>127.99</ele>
        <time>2020-08-27T09:07:21Z</time>
      </trkpt>
      <trkpt lat="48.59686" lon="1.97264">
        <ele>127.99</ele>
        <time>2020-08-27T09:07:22Z</time>
      </trkpt>
      <trkpt lat="48.59684" lon="1.97264">
        <ele>128.47</ele>
        <time>2020-08-27T09:07:23Z</time>
      </trkpt>
      <trkpt lat="48.59682" lon="1.97265">
        <ele>128.47</ele>
        <time>2020-08-27T09:07:24Z</time>
      </trkpt>
      <trkpt lat="48.5968" lon="1.97266">
        <ele>128.47</ele>
        <time>2020-08-27T09:07:25Z</time>
      </trkpt>
      <trkpt lat="48.59678" lon="1.97268">
        <ele>127.99</ele>
        <time>2020-08-27T09:07:26Z</time>
      </trkpt>
      <trkpt lat="48.59676" lon="1.97269">
        <ele>128.47</ele>
        <time>2020-08-27T09:07:27Z</time>
      </trkpt>
      <trkpt lat="48.59675" lon="1.9727">
        <ele>127.99</ele>
        <time>2020-08-27T09:07:28Z</time>
      </trkpt>
      <trkpt lat="48.59673" lon="1.97271">
        <ele>127.99</ele>
        <time>2020-08-27T09:07:29Z</time>
      </trkpt>
      <trkpt lat="48.59671" lon="1.97272">
        <ele>128.95</ele>
        <time>2020-08-27T09:07:30Z</time>
      </trkpt>
      <trkpt lat="48.59669" lon="1.97273">
        <ele>128.95</ele>
        <time>2020-08-27T09:07:31Z</time>
      </trkpt>
      <trkpt lat="48.59667" lon="1.97273">
        <ele>128.95</ele>
        <time>2020-08-27T09:07:32Z</time>
      </trkpt>
      <trkpt lat="48.59665" lon="1.97274">
        <ele>128.47</ele>
        <time>2020-08-27T09:07:33Z</time>
      </trkpt>
      <trkpt lat="48.59663" lon="1.97274">
        <ele>128.95</ele>
        <time>2020-08-27T09:07:34Z</time>
      </trkpt>
      <trkpt lat="48.59661" lon="1.97275">
        <ele>128.95</ele>
        <time>2020-08-27T09:07:35Z</time>
      </trkpt>
      <trkpt lat="48.5966" lon="1.97276">
        <ele>128.47</ele>
        <time>2020-08-27T09:07:36Z</time>
      </trkpt>
      <trkpt lat="48.59659" lon="1.97278">
        <ele>128.47</ele>
        <time>2020-08-27T09:07:37Z</time>
      </trkpt>
      <trkpt lat="48.59657" lon="1.97279">
        <ele>128.47</ele>
        <time>2020-08-27T09:07:38Z</time>
      </trkpt>
      <trkpt lat="48.59657" lon="1.97281">
        <ele>129.43</ele>
        <time>2020-08-27T09:07:39Z</time>
      </trkpt>
      <trkpt lat="48.59656" lon="1.97282">
        <ele>129.43</ele>
        <time>2020-08-27T09:07:40Z</time>
      </trkpt>
      <trkpt lat="48.59656" lon="1.97283">
        <ele>128.95</ele>
        <time>2020-08-27T09:07:41Z</time>
      </trkpt>
      <trkpt lat="48.59655" lon="1.97283">
        <ele>129.43</ele>
        <time>2020-08-27T09:07:42Z</time>
      </trkpt>
      <trkpt lat="48.59654" lon="1.97283">
        <ele>129.43</ele>
        <time>2020-08-27T09:07:43Z</time>
      </trkpt>
      <trkpt lat="48.59653" lon="1.97284">
        <ele>128.95</ele>
        <time>2020-08-27T09:07:44Z</time>
      </trkpt>
      <trkpt lat="48.59652" lon="1.97284">
        <ele>128.95</ele>
        <time>2020-08-27T09:07:45Z</time>
      </trkpt>
      <trkpt lat="48.59651" lon="1.97285">
        <ele>128.95</ele>
        <time>2020-08-27T09:07:46Z</time>
      </trkpt>
      <trkpt lat="48.5965" lon="1.97286">
        <ele>129.43</ele>
        <time>2020-08-27T09:07:47Z</time>
      </trkpt>
      <trkpt lat="48.59648" lon="1.97288">
        <ele>129.92</ele>
        <time>2020-08-27T09:07:48Z</time>
      </trkpt>
      <trkpt lat="48.59647" lon="1.97288">
        <ele>129.43</ele>
        <time>2020-08-27T09:07:49Z</time>
      </trkpt>
      <trkpt lat="48.59646" lon="1.97289">
        <ele>129.92</ele>
        <time>2020-08-27T09:07:50Z</time>
      </trkpt>
      <trkpt lat="48.59644" lon="1.97289">
        <ele>130.4</ele>
        <time>2020-08-27T09:07:51Z</time>
      </trkpt>
      <trkpt lat="48.59643" lon="1.9729">
        <ele>129.92</ele>
        <time>2020-08-27T09:07:52Z</time>
      </trkpt>
      <trkpt lat="48.59642" lon="1.97291">
        <ele>129.43</ele>
        <time>2020-08-27T09:07:53Z</time>
      </trkpt>
      <trkpt lat="48.59641" lon="1.97291">
        <ele>129.92</ele>
        <time>2020-08-27T09:07:54Z</time>
      </trkpt>
      <trkpt lat="48.59639" lon="1.97292">
        <ele>130.88</ele>
        <time>2020-08-27T09:07:55Z</time>
      </trkpt>
      <trkpt lat="48.59638" lon="1.97293">
        <ele>130.4</ele>
        <time>2020-08-27T09:07:56Z</time>
      </trkpt>
      <trkpt lat="48.59636" lon="1.97295">
        <ele>130.4</ele>
        <time>2020-08-27T09:07:57Z</time>
      </trkpt>
      <trkpt lat="48.59634" lon="1.97296">
        <ele>130.88</ele>
        <time>2020-08-27T09:07:58Z</time>
      </trkpt>
      <trkpt lat="48.59632" lon="1.97298">
        <ele>130.88</ele>
        <time>2020-08-27T09:07:59Z</time>
      </trkpt>
      <trkpt lat="48.59631" lon="1.97299">
        <ele>130.4</ele>
        <time>2020-08-27T09:08:00Z</time>
      </trkpt>
      <trkpt lat="48.5963" lon="1.973">
        <ele>130.88</ele>
        <time>2020-08-27T09:08:01Z</time>
      </trkpt>
      <trkpt lat="48.59628" lon="1.973">
        <ele>131.84</ele>
        <time>2020-08-27T09:08:02Z</time>
      </trkpt>
      <trkpt lat="48.59626" lon="1.97301">
        <ele>131.36</ele>
        <time>2020-08-27T09:08:03Z</time>
      </trkpt>
      <trkpt lat="48.59625" lon="1.97302">
        <ele>130.88</ele>
        <time>2020-08-27T09:08:04Z</time>
      </trkpt>
      <trkpt lat="48.59623" lon="1.97303">
        <ele>131.36</ele>
        <time>2020-08-27T09:08:05Z</time>
      </trkpt>
      <trkpt lat="48.59622" lon="1.97304">
        <ele>131.36</ele>
        <time>2020-08-27T09:08:06Z</time>
      </trkpt>
      <trkpt lat="48.5962" lon="1.97304">
        <ele>131.36</ele>
        <time>2020-08-27T09:08:07Z</time>
      </trkpt>
      <trkpt lat="48.59619" lon="1.97305">
        <ele>131.36</ele>
        <time>2020-08-27T09:08:08Z</time>
      </trkpt>
      <trkpt lat="48.59618" lon="1.97305">
        <ele>132.32</ele>
        <time>2020-08-27T09:08:09Z</time>
      </trkpt>
      <trkpt lat="48.59617" lon="1.97305">
        <ele>131.84</ele>
        <time>2020-08-27T09:08:10Z</time>
      </trkpt>
      <trkpt lat="48.59616" lon="1.97305">
        <ele>132.32</ele>
        <time>2020-08-27T09:08:11Z</time>
      </trkpt>
      <trkpt lat="48.59615" lon="1.97305">
        <ele>132.32</ele>
        <time>2020-08-27T09:08:12Z</time>
      </trkpt>
      <trkpt lat="48.59614" lon="1.97306">
        <ele>131.84</ele>
        <time>2020-08-27T09:08:13Z</time>
      </trkpt>
      <trkpt lat="48.59613" lon="1.97306">
        <ele>133.28</ele>
        <time>2020-08-27T09:08:14Z</time>
      </trkpt>
      <trkpt lat="48.59612" lon="1.97307">
        <ele>132.32</ele>
        <time>2020-08-27T09:08:15Z</time>
      </trkpt>
      <trkpt lat="48.59611" lon="1.97307">
        <ele>132.8</ele>
        <time>2020-08-27T09:08:16Z</time>
      </trkpt>
      <trkpt lat="48.5961" lon="1.97308">
        <ele>132.8</ele>
        <time>2020-08-27T09:08:17Z</time>
      </trkpt>
      <trkpt lat="48.59609" lon="1.97308">
        <ele>132.32</ele>
        <time>2020-08-27T09:08:18Z</time>
      </trkpt>
      <trkpt lat="48.59608" lon="1.97309">
        <ele>132.8</ele>
        <time>2020-08-27T09:08:19Z</time>
      </trkpt>
      <trkpt lat="48.59607" lon="1.9731">
        <ele>132.8</ele>
        <time>2020-08-27T09:08:20Z</time>
      </trkpt>
      <trkpt lat="48.59606" lon="1.97312">
        <ele>132.8</ele>
        <time>2020-08-27T09:08:21Z</time>
      </trkpt>
      <trkpt lat="48.59606" lon="1.97314">
        <ele>133.28</ele>
        <time>2020-08-27T09:08:22Z</time>
      </trkpt>
      <trkpt lat="48.59605" lon="1.97315">
        <ele>132.8</ele>
        <time>2020-08-27T09:08:23Z</time>
      </trkpt>
      <trkpt lat="48.59603" lon="1.97316">
        <ele>132.8</ele>
        <time>2020-08-27T09:08:24Z</time>
      </trkpt>
      <trkpt lat="48.59602" lon="1.97316">
        <ele>132.8</ele>
        <time>2020-08-27T09:08:25Z</time>
      </trkpt>
      <trkpt lat="48.59601" lon="1.97317">
        <ele>133.28</ele>
        <time>2020-08-27T09:08:26Z</time>
      </trkpt>
      <trkpt lat="48.596" lon="1.97318">
        <ele>133.28</ele>
        <time>2020-08-27T09:08:27Z</time>
      </trkpt>
      <trkpt lat="48.59598" lon="1.97318">
        <ele>133.28</ele>
        <time>2020-08-27T09:08:28Z</time>
      </trkpt>
      <trkpt lat="48.59597" lon="1.97319">
        <ele>133.28</ele>
        <time>2020-08-27T09:08:29Z</time>
      </trkpt>
      <trkpt lat="48.59595" lon="1.9732">
        <ele>133.28</ele>
        <time>2020-08-27T09:08:30Z</time>
      </trkpt>
      <trkpt lat="48.59594" lon="1.97321">
        <ele>132.8</ele>
        <time>2020-08-27T09:08:31Z</time>
      </trkpt>
      <trkpt lat="48.59593" lon="1.97321">
        <ele>133.76</ele>
        <time>2020-08-27T09:08:32Z</time>
      </trkpt>
      <trkpt lat="48.59591" lon="1.97321">
        <ele>134.24</ele>
        <time>2020-08-27T09:08:33Z</time>
      </trkpt>
      <trkpt lat="48.59589" lon="1.97321">
        <ele>133.76</ele>
        <time>2020-08-27T09:08:34Z</time>
      </trkpt>
      <trkpt lat="48.59588" lon="1.97321">
        <ele>133.76</ele>
        <time>2020-08-27T09:08:35Z</time>
      </trkpt>
      <trkpt lat="48.59587" lon="1.97322">
        <ele>133.76</ele>
        <time>2020-08-27T09:08:36Z</time>
      </trkpt>
      <trkpt lat="48.59586" lon="1.97323">
        <ele>133.76</ele>
        <time>2020-08-27T09:08:37Z</time>
      </trkpt>
      <trkpt lat="48.59585" lon="1.97323">
        <ele>134.24</ele>
        <time>2020-08-27T09:08:38Z</time>
      </trkpt>
      <trkpt lat="48.59584" lon="1.97324">
        <ele>134.24</ele>
        <time>2020-08-27T09:08:39Z</time>
      </trkpt>
      <trkpt lat="48.59582" lon="1.97324">
        <ele>134.24</ele>
        <time>2020-08-27T09:08:40Z</time>
      </trkpt>
      <trkpt lat="48.59581" lon="1.97324">
        <ele>134.24</ele>
        <time>2020-08-27T09:08:41Z</time>
      </trkpt>
      <trkpt lat="48.5958" lon="1.97325">
        <ele>134.24</ele>
        <time>2020-08-27T09:08:42Z</time>
      </trkpt>
      <trkpt lat="48.59579" lon="1.97326">
        <ele>134.24</ele>
        <time>2020-08-27T09:08:43Z</time>
      </trkpt>
      <trkpt lat="48.59578" lon="1.97327">
        <ele>134.24</ele>
        <time>2020-08-27T09:08:44Z</time>
      </trkpt>
      <trkpt lat="48.59577" lon="1.97328">
        <ele>134.72</ele>
        <time>2020-08-27T09:08:45Z</time>
      </trkpt>
      <trkpt lat="48.59576" lon="1.97328">
        <ele>134.24</ele>
        <time>2020-08-27T09:08:46Z</time>
      </trkpt>
      <trkpt lat="48.59576" lon="1.97329">
        <ele>134.24</ele>
        <time>2020-08-27T09:08:47Z</time>
      </trkpt>
      <trkpt lat="48.59575" lon="1.97329">
        <ele>134.24</ele>
        <time>2020-08-27T09:08:48Z</time>
      </trkpt>
      <trkpt lat="48.59574" lon="1.9733">
        <ele>134.72</ele>
        <time>2020-08-27T09:08:49Z</time>
      </trkpt>
      <trkpt lat="48.59573" lon="1.9733">
        <ele>134.24</ele>
        <time>2020-08-27T09:08:50Z</time>
      </trkpt>
      <trkpt lat="48.59572" lon="1.9733">
        <ele>134.72</ele>
        <time>2020-08-27T09:08:51Z</time>
      </trkpt>
      <trkpt lat="48.5957" lon="1.9733">
        <ele>135.2</ele>
        <time>2020-08-27T09:08:52Z</time>
      </trkpt>
      <trkpt lat="48.59569" lon="1.97331">
        <ele>134.72</ele>
        <time>2020-08-27T09:08:53Z</time>
      </trkpt>
      <trkpt lat="48.59568" lon="1.97331">
        <ele>134.24</ele>
        <time>2020-08-27T09:08:54Z</time>
      </trkpt>
      <trkpt lat="48.59566" lon="1.97332">
        <ele>134.72</ele>
        <time>2020-08-27T09:08:55Z</time>
      </trkpt>
      <trkpt lat="48.59565" lon="1.97333">
        <ele>134.72</ele>
        <time>2020-08-27T09:08:56Z</time>
      </trkpt>
      <trkpt lat="48.59563" lon="1.97334">
        <ele>134.24</ele>
        <time>2020-08-27T09:08:57Z</time>
      </trkpt>
      <trkpt lat="48.59562" lon="1.97335">
        <ele>134.24</ele>
        <time>2020-08-27T09:08:58Z</time>
      </trkpt>
      <trkpt lat="48.5956" lon="1.97336">
        <ele>134.72</ele>
        <time>2020-08-27T09:08:59Z</time>
      </trkpt>
      <trkpt lat="48.5956" lon="1.97336">
        <ele>134.24</ele>
        <time>2020-08-27T09:09:00Z</time>
      </trkpt>
      <trkpt lat="48.59559" lon="1.97337">
        <ele>134.24</ele>
        <time>2020-08-27T09:09:01Z</time>
      </trkpt>
      <trkpt lat="48.59557" lon="1.97337">
        <ele>134.24</ele>
        <time>2020-08-27T09:09:02Z</time>
      </trkpt>
      <trkpt lat="48.59556" lon="1.97338">
        <ele>133.76</ele>
        <time>2020-08-27T09:09:03Z</time>
      </trkpt>
      <trkpt lat="48.59554" lon="1.97338">
        <ele>133.28</ele>
        <time>2020-08-27T09:09:04Z</time>
      </trkpt>
      <trkpt lat="48.59553" lon="1.97339">
        <ele>133.76</ele>
        <time>2020-08-27T09:09:05Z</time>
      </trkpt>
      <trkpt lat="48.59551" lon="1.9734">
        <ele>134.24</ele>
        <time>2020-08-27T09:09:06Z</time>
      </trkpt>
      <trkpt lat="48.5955" lon="1.9734">
        <ele>134.24</ele>
        <time>2020-08-27T09:09:07Z</time>
      </trkpt>
      <trkpt lat="48.59549" lon="1.97341">
        <ele>134.24</ele>
        <time>2020-08-27T09:09:08Z</time>
      </trkpt>
      <trkpt lat="48.59548" lon="1.97341">
        <ele>133.76</ele>
        <time>2020-08-27T09:09:09Z</time>
      </trkpt>
      <trkpt lat="48.59547" lon="1.97342">
        <ele>133.28</ele>
        <time>2020-08-27T09:09:10Z</time>
      </trkpt>
      <trkpt lat="48.59546" lon="1.97343">
        <ele>133.76</ele>
        <time>2020-08-27T09:09:11Z</time>
      </trkpt>
      <trkpt lat="48.59545" lon="1.97343">
        <ele>133.76</ele>
        <time>2020-08-27T09:09:12Z</time>
      </trkpt>
      <trkpt lat="48.59544" lon="1.97344">
        <ele>133.76</ele>
        <time>2020-08-27T09:09:13Z</time>
      </trkpt>
      <trkpt lat="48.59542" lon="1.97345">
        <ele>134.24</ele>
        <time>2020-08-27T09:09:14Z</time>
      </trkpt>
      <trkpt lat="48.5954" lon="1.97346">
        <ele>133.76</ele>
        <time>2020-08-27T09:09:15Z</time>
      </trkpt>
      <trkpt lat="48.59539" lon="1.97348">
        <ele>134.24</ele>
        <time>2020-08-27T09:09:16Z</time>
      </trkpt>
      <trkpt lat="48.59538" lon="1.97349">
        <ele>134.24</ele>
        <time>2020-08-27T09:09:17Z</time>
      </trkpt>
      <trkpt lat="48.59537" lon="1.97351">
        <ele>133.76</ele>
        <time>2020-08-27T09:09:18Z</time>
      </trkpt>
      <trkpt lat="48.59536" lon="1.97352">
        <ele>133.76</ele>
        <time>2020-08-27T09:09:19Z</time>
      </trkpt>
      <trkpt lat="48.59534" lon="1.97354">
        <ele>133.76</ele>
        <time>2020-08-27T09:09:20Z</time>
      </trkpt>
      <trkpt lat="48.59533" lon="1.97355">
        <ele>134.24</ele>
        <time>2020-08-27T09:09:21Z</time>
      </trkpt>
      <trkpt lat="48.59532" lon="1.97356">
        <ele>134.72</ele>
        <time>2020-08-27T09:09:22Z</time>
      </trkpt>
      <trkpt lat="48.59531" lon="1.97357">
        <ele>134.24</ele>
        <time>2020-08-27T09:09:23Z</time>
      </trkpt>
      <trkpt lat="48.5953" lon="1.97357">
        <ele>134.24</ele>
        <time>2020-08-27T09:09:24Z</time>
      </trkpt>
      <trkpt lat="48.59529" lon="1.97358">
        <ele>134.72</ele>
        <time>2020-08-27T09:09:25Z</time>
      </trkpt>
      <trkpt lat="48.59527" lon="1.97359">
        <ele>134.24</ele>
        <time>2020-08-27T09:09:26Z</time>
      </trkpt>
      <trkpt lat="48.59526" lon="1.97361">
        <ele>134.24</ele>
        <time>2020-08-27T09:09:27Z</time>
      </trkpt>
      <trkpt lat="48.59525" lon="1.97362">
        <ele>134.72</ele>
        <time>2020-08-27T09:09:28Z</time>
      </trkpt>
      <trkpt lat="48.59524" lon="1.97364">
        <ele>135.2</ele>
        <time>2020-08-27T09:09:29Z</time>
      </trkpt>
      <trkpt lat="48.59523" lon="1.97365">
        <ele>134.72</ele>
        <time>2020-08-27T09:09:30Z</time>
      </trkpt>
      <trkpt lat="48.59521" lon="1.97366">
        <ele>134.72</ele>
        <time>2020-08-27T09:09:31Z</time>
      </trkpt>
      <trkpt lat="48.5952" lon="1.97368">
        <ele>134.72</ele>
        <time>2020-08-27T09:09:32Z</time>
      </trkpt>
      <trkpt lat="48.5952" lon="1.97368">
        <ele>134.24</ele>
        <time>2020-08-27T09:09:33Z</time>
      </trkpt>
      <trkpt lat="48.59519" lon="1.97369">
        <ele>134.72</ele>
        <time>2020-08-27T09:09:34Z</time>
      </trkpt>
      <trkpt lat="48.59518" lon="1.9737">
        <ele>135.68</ele>
        <time>2020-08-27T09:09:35Z</time>
      </trkpt>
      <trkpt lat="48.59516" lon="1.9737">
        <ele>135.68</ele>
        <time>2020-08-27T09:09:36Z</time>
      </trkpt>
      <trkpt lat="48.59515" lon="1.97372">
        <ele>135.2</ele>
        <time>2020-08-27T09:09:37Z</time>
      </trkpt>
      <trkpt lat="48.59513" lon="1.97373">
        <ele>135.2</ele>
        <time>2020-08-27T09:09:38Z</time>
      </trkpt>
      <trkpt lat="48.59512" lon="1.97374">
        <ele>136.16</ele>
        <time>2020-08-27T09:09:39Z</time>
      </trkpt>
      <trkpt lat="48.5951" lon="1.97376">
        <ele>135.68</ele>
        <time>2020-08-27T09:09:40Z</time>
      </trkpt>
      <trkpt lat="48.5951" lon="1.97377">
        <ele>135.68</ele>
        <time>2020-08-27T09:09:41Z</time>
      </trkpt>
      <trkpt lat="48.59509" lon="1.97378">
        <ele>135.68</ele>
        <time>2020-08-27T09:09:42Z</time>
      </trkpt>
      <trkpt lat="48.59508" lon="1.9738">
        <ele>136.16</ele>
        <time>2020-08-27T09:09:43Z</time>
      </trkpt>
      <trkpt lat="48.59507" lon="1.97381">
        <ele>136.64</ele>
        <time>2020-08-27T09:09:44Z</time>
      </trkpt>
      <trkpt lat="48.59506" lon="1.97382">
        <ele>136.16</ele>
        <time>2020-08-27T09:09:45Z</time>
      </trkpt>
      <trkpt lat="48.59505" lon="1.97383">
        <ele>136.64</ele>
        <time>2020-08-27T09:09:46Z</time>
      </trkpt>
      <trkpt lat="48.59504" lon="1.97384">
        <ele>136.64</ele>
        <time>2020-08-27T09:09:47Z</time>
      </trkpt>
      <trkpt lat="48.59503" lon="1.97384">
        <ele>136.16</ele>
        <time>2020-08-27T09:09:48Z</time>
      </trkpt>
      <trkpt lat="48.59503" lon="1.97384">
        <ele>137.13</ele>
        <time>2020-08-27T09:09:49Z</time>
      </trkpt>
      <trkpt lat="48.59503" lon="1.97382">
        <ele>137.61</ele>
        <time>2020-08-27T09:09:50Z</time>
      </trkpt>
      <trkpt lat="48.59504" lon="1.9738">
        <ele>137.13</ele>
        <time>2020-08-27T09:09:51Z</time>
      </trkpt>
      <trkpt lat="48.59504" lon="1.97379">
        <ele>137.13</ele>
        <time>2020-08-27T09:09:52Z</time>
      </trkpt>
      <trkpt lat="48.59505" lon="1.97377">
        <ele>137.61</ele>
        <time>2020-08-27T09:09:53Z</time>
      </trkpt>
      <trkpt lat="48.59506" lon="1.97376">
        <ele>137.61</ele>
        <time>2020-08-27T09:09:54Z</time>
      </trkpt>
      <trkpt lat="48.59507" lon="1.97374">
        <ele>137.13</ele>
        <time>2020-08-27T09:09:55Z</time>
      </trkpt>
      <trkpt lat="48.59508" lon="1.97372">
        <ele>137.13</ele>
        <time>2020-08-27T09:09:56Z</time>
      </trkpt>
      <trkpt lat="48.59509" lon="1.97371">
        <ele>136.64</ele>
        <time>2020-08-27T09:09:57Z</time>
      </trkpt>
      <trkpt lat="48.5951" lon="1.9737">
        <ele>136.64</ele>
        <time>2020-08-27T09:09:58Z</time>
      </trkpt>
      <trkpt lat="48.59511" lon="1.97369">
        <ele>136.64</ele>
        <time>2020-08-27T09:09:59Z</time>
      </trkpt>
      <trkpt lat="48.59511" lon="1.97369">
        <ele>136.64</ele>
        <time>2020-08-27T09:10:00Z</time>
      </trkpt>
      <trkpt lat="48.59511" lon="1.9737">
        <ele>136.64</ele>
        <time>2020-08-27T09:10:04Z</time>
      </trkpt>
      <trkpt lat="48.59511" lon="1.9737">
        <ele>136.64</ele>
        <time>2020-08-27T09:10:05Z</time>
      </trkpt>
      <trkpt lat="48.59511" lon="1.97368">
        <ele>136.16</ele>
        <time>2020-08-27T09:10:06Z</time>
      </trkpt>
      <trkpt lat="48.59511" lon="1.97368">
        <ele>136.16</ele>
        <time>2020-08-27T09:10:07Z</time>
      </trkpt>
      <trkpt lat="48.59511" lon="1.97367">
        <ele>136.16</ele>
        <time>2020-08-27T09:10:08Z</time>
      </trkpt>
      <trkpt lat="48.59512" lon="1.97365">
        <ele>136.16</ele>
        <time>2020-08-27T09:10:09Z</time>
      </trkpt>
      <trkpt lat="48.59512" lon="1.97363">
        <ele>136.16</ele>
        <time>2020-08-27T09:10:10Z</time>
      </trkpt>
      <trkpt lat="48.59513" lon="1.97361">
        <ele>136.16</ele>
        <time>2020-08-27T09:10:11Z</time>
      </trkpt>
      <trkpt lat="48.59514" lon="1.97359">
        <ele>136.16</ele>
        <time>2020-08-27T09:10:12Z</time>
      </trkpt>
      <trkpt lat="48.59515" lon="1.97357">
        <ele>135.68</ele>
        <time>2020-08-27T09:10:13Z</time>
      </trkpt>
      <trkpt lat="48.59516" lon="1.97355">
        <ele>136.16</ele>
        <time>2020-08-27T09:10:14Z</time>
      </trkpt>
      <trkpt lat="48.59517" lon="1.97354">
        <ele>136.16</ele>
        <time>2020-08-27T09:10:15Z</time>
      </trkpt>
      <trkpt lat="48.59518" lon="1.97352">
        <ele>136.16</ele>
        <time>2020-08-27T09:10:16Z</time>
      </trkpt>
      <trkpt lat="48.59519" lon="1.9735">
        <ele>136.16</ele>
        <time>2020-08-27T09:10:17Z</time>
      </trkpt>
      <trkpt lat="48.5952" lon="1.97348">
        <ele>135.68</ele>
        <time>2020-08-27T09:10:18Z</time>
      </trkpt>
      <trkpt lat="48.5952" lon="1.97346">
        <ele>135.68</ele>
        <time>2020-08-27T09:10:19Z</time>
      </trkpt>
      <trkpt lat="48.59521" lon="1.97344">
        <ele>136.16</ele>
        <time>2020-08-27T09:10:20Z</time>
      </trkpt>
      <trkpt lat="48.59522" lon="1.97343">
        <ele>136.16</ele>
        <time>2020-08-27T09:10:21Z</time>
      </trkpt>
      <trkpt lat="48.59522" lon="1.97342">
        <ele>136.16</ele>
        <time>2020-08-27T09:10:22Z</time>
      </trkpt>
      <trkpt lat="48.59522" lon="1.97341">
        <ele>136.16</ele>
        <time>2020-08-27T09:10:23Z</time>
      </trkpt>
      <trkpt lat="48.59523" lon="1.9734">
        <ele>136.16</ele>
        <time>2020-08-27T09:10:24Z</time>
      </trkpt>
      <trkpt lat="48.59523" lon="1.97339">
        <ele>136.16</ele>
        <time>2020-08-27T09:10:25Z</time>
      </trkpt>
      <trkpt lat="48.59524" lon="1.97337">
        <ele>137.13</ele>
        <time>2020-08-27T09:10:26Z</time>
      </trkpt>
      <trkpt lat="48.59524" lon="1.97336">
        <ele>136.64</ele>
        <time>2020-08-27T09:10:27Z</time>
      </trkpt>
      <trkpt lat="48.59525" lon="1.97335">
        <ele>136.64</ele>
        <time>2020-08-27T09:10:28Z</time>
      </trkpt>
      <trkpt lat="48.59525" lon="1.97333">
        <ele>136.64</ele>
        <time>2020-08-27T09:10:29Z</time>
      </trkpt>
      <trkpt lat="48.59526" lon="1.97331">
        <ele>136.64</ele>
        <time>2020-08-27T09:10:30Z</time>
      </trkpt>
      <trkpt lat="48.59527" lon="1.9733">
        <ele>136.64</ele>
        <time>2020-08-27T09:10:31Z</time>
      </trkpt>
      <trkpt lat="48.59528" lon="1.9733">
        <ele>136.16</ele>
        <time>2020-08-27T09:10:32Z</time>
      </trkpt>
      <trkpt lat="48.59529" lon="1.97329">
        <ele>136.64</ele>
        <time>2020-08-27T09:10:33Z</time>
      </trkpt>
      <trkpt lat="48.5953" lon="1.97328">
        <ele>137.61</ele>
        <time>2020-08-27T09:10:34Z</time>
      </trkpt>
      <trkpt lat="48.59531" lon="1.97326">
        <ele>137.13</ele>
        <time>2020-08-27T09:10:35Z</time>
      </trkpt>
      <trkpt lat="48.59532" lon="1.97325">
        <ele>137.13</ele>
        <time>2020-08-27T09:10:36Z</time>
      </trkpt>
      <trkpt lat="48.59533" lon="1.97324">
        <ele>137.61</ele>
        <time>2020-08-27T09:10:37Z</time>
      </trkpt>
      <trkpt lat="48.59534" lon="1.97322">
        <ele>137.13</ele>
        <time>2020-08-27T09:10:38Z</time>
      </trkpt>
      <trkpt lat="48.59535" lon="1.9732">
        <ele>137.13</ele>
        <time>2020-08-27T09:10:39Z</time>
      </trkpt>
      <trkpt lat="48.59536" lon="1.97318">
        <ele>137.61</ele>
        <time>2020-08-27T09:10:40Z</time>
      </trkpt>
      <trkpt lat="48.59537" lon="1.97317">
        <ele>138.09</ele>
        <time>2020-08-27T09:10:41Z</time>
      </trkpt>
      <trkpt lat="48.59538" lon="1.97315">
        <ele>138.09</ele>
        <time>2020-08-27T09:10:42Z</time>
      </trkpt>
      <trkpt lat="48.59539" lon="1.97314">
        <ele>138.09</ele>
        <time>2020-08-27T09:10:43Z</time>
      </trkpt>
      <trkpt lat="48.5954" lon="1.97312">
        <ele>138.09</ele>
        <time>2020-08-27T09:10:44Z</time>
      </trkpt>
      <trkpt lat="48.59541" lon="1.9731">
        <ele>138.57</ele>
        <time>2020-08-27T09:10:45Z</time>
      </trkpt>
      <trkpt lat="48.59541" lon="1.97308">
        <ele>138.57</ele>
        <time>2020-08-27T09:10:46Z</time>
      </trkpt>
      <trkpt lat="48.59542" lon="1.97306">
        <ele>138.57</ele>
        <time>2020-08-27T09:10:47Z</time>
      </trkpt>
      <trkpt lat="48.59543" lon="1.97305">
        <ele>139.05</ele>
        <time>2020-08-27T09:10:48Z</time>
      </trkpt>
      <trkpt lat="48.59544" lon="1.97303">
        <ele>138.57</ele>
        <time>2020-08-27T09:10:49Z</time>
      </trkpt>
      <trkpt lat="48.59544" lon="1.97302">
        <ele>138.57</ele>
        <time>2020-08-27T09:10:50Z</time>
      </trkpt>
      <trkpt lat="48.59545" lon="1.973">
        <ele>139.05</ele>
        <time>2020-08-27T09:10:51Z</time>
      </trkpt>
      <trkpt lat="48.59546" lon="1.97299">
        <ele>139.05</ele>
        <time>2020-08-27T09:10:52Z</time>
      </trkpt>
      <trkpt lat="48.59547" lon="1.97298">
        <ele>139.05</ele>
        <time>2020-08-27T09:10:53Z</time>
      </trkpt>
      <trkpt lat="48.59548" lon="1.97296">
        <ele>138.57</ele>
        <time>2020-08-27T09:10:54Z</time>
      </trkpt>
      <trkpt lat="48.59548" lon="1.97295">
        <ele>139.05</ele>
        <time>2020-08-27T09:10:55Z</time>
      </trkpt>
      <trkpt lat="48.59549" lon="1.97294">
        <ele>138.57</ele>
        <time>2020-08-27T09:10:56Z</time>
      </trkpt>
      <trkpt lat="48.59549" lon="1.97292">
        <ele>139.53</ele>
        <time>2020-08-27T09:10:57Z</time>
      </trkpt>
      <trkpt lat="48.5955" lon="1.97291">
        <ele>139.05</ele>
        <time>2020-08-27T09:10:58Z</time>
      </trkpt>
      <trkpt lat="48.5955" lon="1.97289">
        <ele>139.05</ele>
        <time>2020-08-27T09:10:59Z</time>
      </trkpt>
      <trkpt lat="48.59551" lon="1.97287">
        <ele>139.53</ele>
        <time>2020-08-27T09:11:00Z</time>
      </trkpt>
      <trkpt lat="48.59551" lon="1.97285">
        <ele>139.53</ele>
        <time>2020-08-27T09:11:01Z</time>
      </trkpt>
      <trkpt lat="48.59552" lon="1.97284">
        <ele>139.05</ele>
        <time>2020-08-27T09:11:02Z</time>
      </trkpt>
      <trkpt lat="48.59553" lon="1.97282">
        <ele>139.05</ele>
        <time>2020-08-27T09:11:03Z</time>
      </trkpt>
      <trkpt lat="48.59554" lon="1.97281">
        <ele>139.53</ele>
        <time>2020-08-27T09:11:04Z</time>
      </trkpt>
      <trkpt lat="48.59555" lon="1.97279">
        <ele>139.53</ele>
        <time>2020-08-27T09:11:05Z</time>
      </trkpt>
      <trkpt lat="48.59555" lon="1.97278">
        <ele>139.53</ele>
        <time>2020-08-27T09:11:06Z</time>
      </trkpt>
      <trkpt lat="48.59556" lon="1.97276">
        <ele>139.05</ele>
        <time>2020-08-27T09:11:07Z</time>
      </trkpt>
      <trkpt lat="48.59557" lon="1.97275">
        <ele>139.53</ele>
        <time>2020-08-27T09:11:08Z</time>
      </trkpt>
      <trkpt lat="48.59558" lon="1.97274">
        <ele>139.05</ele>
        <time>2020-08-27T09:11:09Z</time>
      </trkpt>
      <trkpt lat="48.59559" lon="1.97273">
        <ele>138.57</ele>
        <time>2020-08-27T09:11:10Z</time>
      </trkpt>
      <trkpt lat="48.5956" lon="1.97271">
        <ele>139.05</ele>
        <time>2020-08-27T09:11:11Z</time>
      </trkpt>
      <trkpt lat="48.59561" lon="1.9727">
        <ele>139.05</ele>
        <time>2020-08-27T09:11:12Z</time>
      </trkpt>
      <trkpt lat="48.59562" lon="1.97268">
        <ele>139.05</ele>
        <time>2020-08-27T09:11:13Z</time>
      </trkpt>
      <trkpt lat="48.59563" lon="1.97266">
        <ele>138.57</ele>
        <time>2020-08-27T09:11:14Z</time>
      </trkpt>
      <trkpt lat="48.59565" lon="1.97264">
        <ele>139.05</ele>
        <time>2020-08-27T09:11:15Z</time>
      </trkpt>
      <trkpt lat="48.59566" lon="1.97262">
        <ele>138.57</ele>
        <time>2020-08-27T09:11:16Z</time>
      </trkpt>
      <trkpt lat="48.59566" lon="1.9726">
        <ele>138.57</ele>
        <time>2020-08-27T09:11:17Z</time>
      </trkpt>
      <trkpt lat="48.59567" lon="1.97259">
        <ele>138.57</ele>
        <time>2020-08-27T09:11:18Z</time>
      </trkpt>
      <trkpt lat="48.59568" lon="1.97257">
        <ele>138.09</ele>
        <time>2020-08-27T09:11:19Z</time>
      </trkpt>
      <trkpt lat="48.59568" lon="1.97255">
        <ele>138.09</ele>
        <time>2020-08-27T09:11:20Z</time>
      </trkpt>
      <trkpt lat="48.59569" lon="1.97254">
        <ele>138.09</ele>
        <time>2020-08-27T09:11:21Z</time>
      </trkpt>
      <trkpt lat="48.59569" lon="1.97253">
        <ele>138.09</ele>
        <time>2020-08-27T09:11:22Z</time>
      </trkpt>
      <trkpt lat="48.5957" lon="1.97251">
        <ele>137.61</ele>
        <time>2020-08-27T09:11:23Z</time>
      </trkpt>
      <trkpt lat="48.5957" lon="1.9725">
        <ele>137.61</ele>
        <time>2020-08-27T09:11:24Z</time>
      </trkpt>
      <trkpt lat="48.59571" lon="1.97248">
        <ele>137.61</ele>
        <time>2020-08-27T09:11:25Z</time>
      </trkpt>
      <trkpt lat="48.59572" lon="1.97246">
        <ele>137.61</ele>
        <time>2020-08-27T09:11:26Z</time>
      </trkpt>
      <trkpt lat="48.59572" lon="1.97244">
        <ele>137.13</ele>
        <time>2020-08-27T09:11:27Z</time>
      </trkpt>
      <trkpt lat="48.59573" lon="1.97242">
        <ele>137.13</ele>
        <time>2020-08-27T09:11:28Z</time>
      </trkpt>
      <trkpt lat="48.59574" lon="1.9724">
        <ele>137.13</ele>
        <time>2020-08-27T09:11:29Z</time>
      </trkpt>
      <trkpt lat="48.59576" lon="1.97239">
        <ele>136.64</ele>
        <time>2020-08-27T09:11:30Z</time>
      </trkpt>
      <trkpt lat="48.59577" lon="1.97238">
        <ele>136.64</ele>
        <time>2020-08-27T09:11:31Z</time>
      </trkpt>
      <trkpt lat="48.59578" lon="1.97237">
        <ele>136.64</ele>
        <time>2020-08-27T09:11:32Z</time>
      </trkpt>
      <trkpt lat="48.59578" lon="1.97235">
        <ele>137.13</ele>
        <time>2020-08-27T09:11:33Z</time>
      </trkpt>
      <trkpt lat="48.59579" lon="1.97234">
        <ele>137.13</ele>
        <time>2020-08-27T09:11:34Z</time>
      </trkpt>
      <trkpt lat="48.5958" lon="1.97232">
        <ele>136.64</ele>
        <time>2020-08-27T09:11:35Z</time>
      </trkpt>
      <trkpt lat="48.59581" lon="1.9723">
        <ele>136.64</ele>
        <time>2020-08-27T09:11:36Z</time>
      </trkpt>
      <trkpt lat="48.59582" lon="1.97228">
        <ele>136.64</ele>
        <time>2020-08-27T09:11:37Z</time>
      </trkpt>
      <trkpt lat="48.59583" lon="1.97227">
        <ele>136.64</ele>
        <time>2020-08-27T09:11:38Z</time>
      </trkpt>
      <trkpt lat="48.59583" lon="1.97225">
        <ele>137.13</ele>
        <time>2020-08-27T09:11:39Z</time>
      </trkpt>
      <trkpt lat="48.59584" lon="1.97224">
        <ele>136.16</ele>
        <time>2020-08-27T09:11:40Z</time>
      </trkpt>
      <trkpt lat="48.59584" lon="1.97222">
        <ele>136.16</ele>
        <time>2020-08-27T09:11:41Z</time>
      </trkpt>
      <trkpt lat="48.59585" lon="1.9722">
        <ele>136.16</ele>
        <time>2020-08-27T09:11:42Z</time>
      </trkpt>
      <trkpt lat="48.59586" lon="1.97219">
        <ele>135.68</ele>
        <time>2020-08-27T09:11:43Z</time>
      </trkpt>
      <trkpt lat="48.59586" lon="1.97217">
        <ele>136.16</ele>
        <time>2020-08-27T09:11:44Z</time>
      </trkpt>
      <trkpt lat="48.59587" lon="1.97216">
        <ele>136.16</ele>
        <time>2020-08-27T09:11:45Z</time>
      </trkpt>
      <trkpt lat="48.59588" lon="1.97214">
        <ele>136.16</ele>
        <time>2020-08-27T09:11:46Z</time>
      </trkpt>
      <trkpt lat="48.59589" lon="1.97212">
        <ele>135.68</ele>
        <time>2020-08-27T09:11:47Z</time>
      </trkpt>
      <trkpt lat="48.5959" lon="1.9721">
        <ele>135.68</ele>
        <time>2020-08-27T09:11:48Z</time>
      </trkpt>
      <trkpt lat="48.59591" lon="1.97208">
        <ele>135.68</ele>
        <time>2020-08-27T09:11:49Z</time>
      </trkpt>
      <trkpt lat="48.59592" lon="1.97207">
        <ele>135.68</ele>
        <time>2020-08-27T09:11:50Z</time>
      </trkpt>
      <trkpt lat="48.59593" lon="1.97205">
        <ele>135.68</ele>
        <time>2020-08-27T09:11:51Z</time>
      </trkpt>
      <trkpt lat="48.59594" lon="1.97203">
        <ele>135.68</ele>
        <time>2020-08-27T09:11:52Z</time>
      </trkpt>
      <trkpt lat="48.59595" lon="1.97201">
        <ele>135.2</ele>
        <time>2020-08-27T09:11:53Z</time>
      </trkpt>
      <trkpt lat="48.59596" lon="1.97199">
        <ele>135.2</ele>
        <time>2020-08-27T09:11:54Z</time>
      </trkpt>
      <trkpt lat="48.59596" lon="1.97197">
        <ele>135.2</ele>
        <time>2020-08-27T09:11:55Z</time>
      </trkpt>
      <trkpt lat="48.59597" lon="1.97195">
        <ele>135.2</ele>
        <time>2020-08-27T09:11:56Z</time>
      </trkpt>
      <trkpt lat="48.59597" lon="1.97193">
        <ele>135.68</ele>
        <time>2020-08-27T09:11:57Z</time>
      </trkpt>
      <trkpt lat="48.59598" lon="1.97192">
        <ele>135.2</ele>
        <time>2020-08-27T09:11:58Z</time>
      </trkpt>
      <trkpt lat="48.59598" lon="1.9719">
        <ele>135.2</ele>
        <time>2020-08-27T09:11:59Z</time>
      </trkpt>
      <trkpt lat="48.596" lon="1.97189">
        <ele>135.2</ele>
        <time>2020-08-27T09:12:00Z</time>
      </trkpt>
      <trkpt lat="48.59601" lon="1.97188">
        <ele>135.2</ele>
        <time>2020-08-27T09:12:01Z</time>
      </trkpt>
      <trkpt lat="48.59602" lon="1.97187">
        <ele>135.2</ele>
        <time>2020-08-27T09:12:02Z</time>
      </trkpt>
      <trkpt lat="48.59603" lon="1.97185">
        <ele>135.2</ele>
        <time>2020-08-27T09:12:03Z</time>
      </trkpt>
      <trkpt lat="48.59603" lon="1.97183">
        <ele>135.2</ele>
        <time>2020-08-27T09:12:04Z</time>
      </trkpt>
      <trkpt lat="48.59604" lon="1.97182">
        <ele>134.72</ele>
        <time>2020-08-27T09:12:05Z</time>
      </trkpt>
      <trkpt lat="48.59605" lon="1.97181">
        <ele>135.2</ele>
        <time>2020-08-27T09:12:06Z</time>
      </trkpt>
      <trkpt lat="48.59606" lon="1.9718">
        <ele>135.2</ele>
        <time>2020-08-27T09:12:07Z</time>
      </trkpt>
      <trkpt lat="48.59607" lon="1.97178">
        <ele>134.72</ele>
        <time>2020-08-27T09:12:08Z</time>
      </trkpt>
      <trkpt lat="48.59608" lon="1.97176">
        <ele>135.2</ele>
        <time>2020-08-27T09:12:09Z</time>
      </trkpt>
      <trkpt lat="48.59609" lon="1.97175">
        <ele>134.72</ele>
        <time>2020-08-27T09:12:10Z</time>
      </trkpt>
      <trkpt lat="48.5961" lon="1.97173">
        <ele>135.2</ele>
        <time>2020-08-27T09:12:11Z</time>
      </trkpt>
      <trkpt lat="48.59611" lon="1.97171">
        <ele>134.72</ele>
        <time>2020-08-27T09:12:12Z</time>
      </trkpt>
      <trkpt lat="48.59612" lon="1.97169">
        <ele>134.72</ele>
        <time>2020-08-27T09:12:13Z</time>
      </trkpt>
      <trkpt lat="48.59613" lon="1.97167">
        <ele>134.72</ele>
        <time>2020-08-27T09:12:14Z</time>
      </trkpt>
      <trkpt lat="48.59614" lon="1.97166">
        <ele>134.72</ele>
        <time>2020-08-27T09:12:15Z</time>
      </trkpt>
      <trkpt lat="48.59615" lon="1.97165">
        <ele>134.72</ele>
        <time>2020-08-27T09:12:16Z</time>
      </trkpt>
      <trkpt lat="48.59616" lon="1.97164">
        <ele>134.72</ele>
        <time>2020-08-27T09:12:17Z</time>
      </trkpt>
      <trkpt lat="48.59617" lon="1.97162">
        <ele>135.2</ele>
        <time>2020-08-27T09:12:18Z</time>
      </trkpt>
      <trkpt lat="48.59617" lon="1.97161">
        <ele>134.72</ele>
        <time>2020-08-27T09:12:19Z</time>
      </trkpt>
      <trkpt lat="48.59618" lon="1.9716">
        <ele>134.72</ele>
        <time>2020-08-27T09:12:20Z</time>
      </trkpt>
      <trkpt lat="48.59619" lon="1.97158">
        <ele>134.72</ele>
        <time>2020-08-27T09:12:21Z</time>
      </trkpt>
      <trkpt lat="48.5962" lon="1.97156">
        <ele>134.72</ele>
        <time>2020-08-27T09:12:22Z</time>
      </trkpt>
      <trkpt lat="48.59621" lon="1.97154">
        <ele>134.24</ele>
        <time>2020-08-27T09:12:23Z</time>
      </trkpt>
      <trkpt lat="48.59622" lon="1.97152">
        <ele>134.72</ele>
        <time>2020-08-27T09:12:24Z</time>
      </trkpt>
      <trkpt lat="48.59623" lon="1.9715">
        <ele>134.24</ele>
        <time>2020-08-27T09:12:25Z</time>
      </trkpt>
      <trkpt lat="48.59623" lon="1.97148">
        <ele>134.72</ele>
        <time>2020-08-27T09:12:26Z</time>
      </trkpt>
      <trkpt lat="48.59624" lon="1.97146">
        <ele>134.72</ele>
        <time>2020-08-27T09:12:27Z</time>
      </trkpt>
      <trkpt lat="48.59625" lon="1.97144">
        <ele>134.24</ele>
        <time>2020-08-27T09:12:28Z</time>
      </trkpt>
      <trkpt lat="48.59625" lon="1.97143">
        <ele>134.72</ele>
        <time>2020-08-27T09:12:29Z</time>
      </trkpt>
      <trkpt lat="48.59625" lon="1.97141">
        <ele>134.72</ele>
        <time>2020-08-27T09:12:30Z</time>
      </trkpt>
      <trkpt lat="48.59625" lon="1.9714">
        <ele>134.24</ele>
        <time>2020-08-27T09:12:31Z</time>
      </trkpt>
      <trkpt lat="48.59626" lon="1.97138">
        <ele>134.24</ele>
        <time>2020-08-27T09:12:32Z</time>
      </trkpt>
      <trkpt lat="48.59626" lon="1.97137">
        <ele>133.76</ele>
        <time>2020-08-27T09:12:33Z</time>
      </trkpt>
      <trkpt lat="48.59627" lon="1.97135">
        <ele>134.72</ele>
        <time>2020-08-27T09:12:34Z</time>
      </trkpt>
      <trkpt lat="48.59627" lon="1.97133">
        <ele>134.24</ele>
        <time>2020-08-27T09:12:35Z</time>
      </trkpt>
      <trkpt lat="48.59628" lon="1.97131">
        <ele>134.24</ele>
        <time>2020-08-27T09:12:36Z</time>
      </trkpt>
      <trkpt lat="48.59628" lon="1.9713">
        <ele>133.76</ele>
        <time>2020-08-27T09:12:37Z</time>
      </trkpt>
      <trkpt lat="48.59629" lon="1.97128">
        <ele>134.24</ele>
        <time>2020-08-27T09:12:38Z</time>
      </trkpt>
      <trkpt lat="48.5963" lon="1.97126">
        <ele>133.76</ele>
        <time>2020-08-27T09:12:39Z</time>
      </trkpt>
      <trkpt lat="48.59631" lon="1.97125">
        <ele>134.24</ele>
        <time>2020-08-27T09:12:40Z</time>
      </trkpt>
      <trkpt lat="48.59631" lon="1.97123">
        <ele>133.76</ele>
        <time>2020-08-27T09:12:41Z</time>
      </trkpt>
      <trkpt lat="48.59632" lon="1.97121">
        <ele>133.76</ele>
        <time>2020-08-27T09:12:42Z</time>
      </trkpt>
      <trkpt lat="48.59632" lon="1.9712">
        <ele>133.76</ele>
        <time>2020-08-27T09:12:43Z</time>
      </trkpt>
      <trkpt lat="48.59633" lon="1.97119">
        <ele>134.24</ele>
        <time>2020-08-27T09:12:44Z</time>
      </trkpt>
      <trkpt lat="48.59633" lon="1.97117">
        <ele>133.76</ele>
        <time>2020-08-27T09:12:45Z</time>
      </trkpt>
      <trkpt lat="48.59634" lon="1.97115">
        <ele>133.76</ele>
        <time>2020-08-27T09:12:46Z</time>
      </trkpt>
      <trkpt lat="48.59635" lon="1.97113">
        <ele>132.8</ele>
        <time>2020-08-27T09:12:47Z</time>
      </trkpt>
      <trkpt lat="48.59637" lon="1.97112">
        <ele>133.28</ele>
        <time>2020-08-27T09:12:48Z</time>
      </trkpt>
      <trkpt lat="48.59638" lon="1.97111">
        <ele>132.8</ele>
        <time>2020-08-27T09:12:49Z</time>
      </trkpt>
      <trkpt lat="48.59639" lon="1.97109">
        <ele>132.8</ele>
        <time>2020-08-27T09:12:50Z</time>
      </trkpt>
      <trkpt lat="48.5964" lon="1.97108">
        <ele>133.28</ele>
        <time>2020-08-27T09:12:51Z</time>
      </trkpt>
      <trkpt lat="48.5964" lon="1.97107">
        <ele>132.8</ele>
        <time>2020-08-27T09:12:52Z</time>
      </trkpt>
      <trkpt lat="48.59641" lon="1.97105">
        <ele>133.28</ele>
        <time>2020-08-27T09:12:53Z</time>
      </trkpt>
      <trkpt lat="48.59641" lon="1.97103">
        <ele>132.8</ele>
        <time>2020-08-27T09:12:54Z</time>
      </trkpt>
      <trkpt lat="48.59643" lon="1.97101">
        <ele>133.28</ele>
        <time>2020-08-27T09:12:55Z</time>
      </trkpt>
      <trkpt lat="48.59644" lon="1.97099">
        <ele>132.8</ele>
        <time>2020-08-27T09:12:56Z</time>
      </trkpt>
      <trkpt lat="48.59645" lon="1.97098">
        <ele>132.8</ele>
        <time>2020-08-27T09:12:57Z</time>
      </trkpt>
      <trkpt lat="48.59647" lon="1.97096">
        <ele>132.8</ele>
        <time>2020-08-27T09:12:58Z</time>
      </trkpt>
      <trkpt lat="48.59648" lon="1.97094">
        <ele>132.8</ele>
        <time>2020-08-27T09:12:59Z</time>
      </trkpt>
      <trkpt lat="48.59648" lon="1.97092">
        <ele>132.32</ele>
        <time>2020-08-27T09:13:00Z</time>
      </trkpt>
      <trkpt lat="48.59649" lon="1.9709">
        <ele>132.32</ele>
        <time>2020-08-27T09:13:01Z</time>
      </trkpt>
      <trkpt lat="48.59649" lon="1.97088">
        <ele>132.8</ele>
        <time>2020-08-27T09:13:02Z</time>
      </trkpt>
      <trkpt lat="48.59649" lon="1.97086">
        <ele>133.28</ele>
        <time>2020-08-27T09:13:03Z</time>
      </trkpt>
      <trkpt lat="48.5965" lon="1.97084">
        <ele>132.8</ele>
        <time>2020-08-27T09:13:04Z</time>
      </trkpt>
      <trkpt lat="48.5965" lon="1.97082">
        <ele>132.8</ele>
        <time>2020-08-27T09:13:05Z</time>
      </trkpt>
      <trkpt lat="48.59651" lon="1.9708">
        <ele>132.8</ele>
        <time>2020-08-27T09:13:06Z</time>
      </trkpt>
      <trkpt lat="48.59651" lon="1.97078">
        <ele>132.8</ele>
        <time>2020-08-27T09:13:07Z</time>
      </trkpt>
      <trkpt lat="48.59652" lon="1.97076">
        <ele>132.8</ele>
        <time>2020-08-27T09:13:08Z</time>
      </trkpt>
      <trkpt lat="48.59653" lon="1.97074">
        <ele>132.32</ele>
        <time>2020-08-27T09:13:09Z</time>
      </trkpt>
      <trkpt lat="48.59653" lon="1.97072">
        <ele>132.32</ele>
        <time>2020-08-27T09:13:10Z</time>
      </trkpt>
      <trkpt lat="48.59654" lon="1.97071">
        <ele>132.32</ele>
        <time>2020-08-27T09:13:11Z</time>
      </trkpt>
      <trkpt lat="48.59654" lon="1.97069">
        <ele>133.28</ele>
        <time>2020-08-27T09:13:12Z</time>
      </trkpt>
      <trkpt lat="48.59655" lon="1.97068">
        <ele>132.8</ele>
        <time>2020-08-27T09:13:13Z</time>
      </trkpt>
      <trkpt lat="48.59656" lon="1.97067">
        <ele>132.8</ele>
        <time>2020-08-27T09:13:14Z</time>
      </trkpt>
      <trkpt lat="48.59657" lon="1.97066">
        <ele>132.8</ele>
        <time>2020-08-27T09:13:15Z</time>
      </trkpt>
      <trkpt lat="48.59658" lon="1.97064">
        <ele>132.8</ele>
        <time>2020-08-27T09:13:16Z</time>
      </trkpt>
      <trkpt lat="48.59659" lon="1.97063">
        <ele>132.8</ele>
        <time>2020-08-27T09:13:17Z</time>
      </trkpt>
      <trkpt lat="48.5966" lon="1.97061">
        <ele>132.8</ele>
        <time>2020-08-27T09:13:18Z</time>
      </trkpt>
      <trkpt lat="48.59662" lon="1.9706">
        <ele>132.8</ele>
        <time>2020-08-27T09:13:19Z</time>
      </trkpt>
      <trkpt lat="48.59663" lon="1.97059">
        <ele>133.28</ele>
        <time>2020-08-27T09:13:20Z</time>
      </trkpt>
      <trkpt lat="48.59664" lon="1.97058">
        <ele>132.8</ele>
        <time>2020-08-27T09:13:21Z</time>
      </trkpt>
      <trkpt lat="48.59665" lon="1.97056">
        <ele>133.28</ele>
        <time>2020-08-27T09:13:22Z</time>
      </trkpt>
      <trkpt lat="48.59666" lon="1.97055">
        <ele>133.28</ele>
        <time>2020-08-27T09:13:23Z</time>
      </trkpt>
      <trkpt lat="48.59666" lon="1.97053">
        <ele>133.28</ele>
        <time>2020-08-27T09:13:24Z</time>
      </trkpt>
      <trkpt lat="48.59667" lon="1.97051">
        <ele>133.28</ele>
        <time>2020-08-27T09:13:25Z</time>
      </trkpt>
      <trkpt lat="48.59668" lon="1.97049">
        <ele>133.28</ele>
        <time>2020-08-27T09:13:26Z</time>
      </trkpt>
      <trkpt lat="48.59669" lon="1.97047">
        <ele>133.28</ele>
        <time>2020-08-27T09:13:27Z</time>
      </trkpt>
      <trkpt lat="48.5967" lon="1.97046">
        <ele>133.28</ele>
        <time>2020-08-27T09:13:28Z</time>
      </trkpt>
      <trkpt lat="48.59671" lon="1.97045">
        <ele>133.76</ele>
        <time>2020-08-27T09:13:29Z</time>
      </trkpt>
      <trkpt lat="48.59672" lon="1.97044">
        <ele>134.24</ele>
        <time>2020-08-27T09:13:30Z</time>
      </trkpt>
      <trkpt lat="48.59672" lon="1.97042">
        <ele>134.24</ele>
        <time>2020-08-27T09:13:31Z</time>
      </trkpt>
      <trkpt lat="48.59673" lon="1.97041">
        <ele>133.76</ele>
        <time>2020-08-27T09:13:32Z</time>
      </trkpt>
      <trkpt lat="48.59673" lon="1.9704">
        <ele>133.76</ele>
        <time>2020-08-27T09:13:33Z</time>
      </trkpt>
      <trkpt lat="48.59674" lon="1.97038">
        <ele>133.76</ele>
        <time>2020-08-27T09:13:34Z</time>
      </trkpt>
      <trkpt lat="48.59674" lon="1.97036">
        <ele>133.76</ele>
        <time>2020-08-27T09:13:35Z</time>
      </trkpt>
      <trkpt lat="48.59675" lon="1.97034">
        <ele>133.76</ele>
        <time>2020-08-27T09:13:36Z</time>
      </trkpt>
      <trkpt lat="48.59675" lon="1.97031">
        <ele>133.76</ele>
        <time>2020-08-27T09:13:37Z</time>
      </trkpt>
      <trkpt lat="48.59677" lon="1.97029">
        <ele>134.24</ele>
        <time>2020-08-27T09:13:38Z</time>
      </trkpt>
      <trkpt lat="48.59678" lon="1.97028">
        <ele>133.76</ele>
        <time>2020-08-27T09:13:39Z</time>
      </trkpt>
      <trkpt lat="48.59679" lon="1.97026">
        <ele>135.2</ele>
        <time>2020-08-27T09:13:40Z</time>
      </trkpt>
      <trkpt lat="48.59681" lon="1.97025">
        <ele>134.24</ele>
        <time>2020-08-27T09:13:41Z</time>
      </trkpt>
      <trkpt lat="48.59681" lon="1.97024">
        <ele>134.24</ele>
        <time>2020-08-27T09:13:42Z</time>
      </trkpt>
      <trkpt lat="48.59682" lon="1.97022">
        <ele>134.72</ele>
        <time>2020-08-27T09:13:43Z</time>
      </trkpt>
      <trkpt lat="48.59683" lon="1.97021">
        <ele>134.24</ele>
        <time>2020-08-27T09:13:44Z</time>
      </trkpt>
      <trkpt lat="48.59684" lon="1.97019">
        <ele>135.2</ele>
        <time>2020-08-27T09:13:45Z</time>
      </trkpt>
      <trkpt lat="48.59685" lon="1.97017">
        <ele>134.72</ele>
        <time>2020-08-27T09:13:46Z</time>
      </trkpt>
      <trkpt lat="48.59685" lon="1.97015">
        <ele>134.72</ele>
        <time>2020-08-27T09:13:47Z</time>
      </trkpt>
      <trkpt lat="48.59686" lon="1.97013">
        <ele>135.2</ele>
        <time>2020-08-27T09:13:48Z</time>
      </trkpt>
      <trkpt lat="48.59687" lon="1.97011">
        <ele>134.72</ele>
        <time>2020-08-27T09:13:49Z</time>
      </trkpt>
      <trkpt lat="48.59688" lon="1.9701">
        <ele>134.72</ele>
        <time>2020-08-27T09:13:50Z</time>
      </trkpt>
      <trkpt lat="48.59689" lon="1.97008">
        <ele>135.2</ele>
        <time>2020-08-27T09:13:51Z</time>
      </trkpt>
      <trkpt lat="48.5969" lon="1.97006">
        <ele>135.68</ele>
        <time>2020-08-27T09:13:52Z</time>
      </trkpt>
      <trkpt lat="48.59691" lon="1.97005">
        <ele>135.2</ele>
        <time>2020-08-27T09:13:53Z</time>
      </trkpt>
      <trkpt lat="48.59693" lon="1.97003">
        <ele>135.2</ele>
        <time>2020-08-27T09:13:54Z</time>
      </trkpt>
      <trkpt lat="48.59694" lon="1.97002">
        <ele>135.68</ele>
        <time>2020-08-27T09:13:55Z</time>
      </trkpt>
      <trkpt lat="48.59695" lon="1.97001">
        <ele>135.68</ele>
        <time>2020-08-27T09:13:56Z</time>
      </trkpt>
      <trkpt lat="48.59695" lon="1.96999">
        <ele>135.2</ele>
        <time>2020-08-27T09:13:57Z</time>
      </trkpt>
      <trkpt lat="48.59696" lon="1.96998">
        <ele>135.2</ele>
        <time>2020-08-27T09:13:58Z</time>
      </trkpt>
      <trkpt lat="48.59696" lon="1.96996">
        <ele>136.16</ele>
        <time>2020-08-27T09:13:59Z</time>
      </trkpt>
      <trkpt lat="48.59697" lon="1.96995">
        <ele>136.16</ele>
        <time>2020-08-27T09:14:00Z</time>
      </trkpt>
      <trkpt lat="48.59698" lon="1.96994">
        <ele>135.68</ele>
        <time>2020-08-27T09:14:01Z</time>
      </trkpt>
      <trkpt lat="48.59698" lon="1.96992">
        <ele>136.16</ele>
        <time>2020-08-27T09:14:02Z</time>
      </trkpt>
      <trkpt lat="48.59699" lon="1.96991">
        <ele>135.68</ele>
        <time>2020-08-27T09:14:03Z</time>
      </trkpt>
      <trkpt lat="48.59699" lon="1.96989">
        <ele>136.64</ele>
        <time>2020-08-27T09:14:04Z</time>
      </trkpt>
      <trkpt lat="48.597" lon="1.96988">
        <ele>137.13</ele>
        <time>2020-08-27T09:14:05Z</time>
      </trkpt>
      <trkpt lat="48.59701" lon="1.96986">
        <ele>136.16</ele>
        <time>2020-08-27T09:14:06Z</time>
      </trkpt>
      <trkpt lat="48.59701" lon="1.96984">
        <ele>136.64</ele>
        <time>2020-08-27T09:14:07Z</time>
      </trkpt>
      <trkpt lat="48.59701" lon="1.96982">
        <ele>136.64</ele>
        <time>2020-08-27T09:14:08Z</time>
      </trkpt>
      <trkpt lat="48.59701" lon="1.9698">
        <ele>136.16</ele>
        <time>2020-08-27T09:14:09Z</time>
      </trkpt>
      <trkpt lat="48.59702" lon="1.96979">
        <ele>137.13</ele>
        <time>2020-08-27T09:14:10Z</time>
      </trkpt>
      <trkpt lat="48.59703" lon="1.96978">
        <ele>137.13</ele>
        <time>2020-08-27T09:14:11Z</time>
      </trkpt>
      <trkpt lat="48.59704" lon="1.96976">
        <ele>137.13</ele>
        <time>2020-08-27T09:14:12Z</time>
      </trkpt>
      <trkpt lat="48.59705" lon="1.96974">
        <ele>136.64</ele>
        <time>2020-08-27T09:14:13Z</time>
      </trkpt>
      <trkpt lat="48.59705" lon="1.96972">
        <ele>137.13</ele>
        <time>2020-08-27T09:14:14Z</time>
      </trkpt>
      <trkpt lat="48.59706" lon="1.9697">
        <ele>136.64</ele>
        <time>2020-08-27T09:14:15Z</time>
      </trkpt>
      <trkpt lat="48.59707" lon="1.96968">
        <ele>137.13</ele>
        <time>2020-08-27T09:14:16Z</time>
      </trkpt>
      <trkpt lat="48.59707" lon="1.96967">
        <ele>137.61</ele>
        <time>2020-08-27T09:14:17Z</time>
      </trkpt>
      <trkpt lat="48.59708" lon="1.96965">
        <ele>137.61</ele>
        <time>2020-08-27T09:14:18Z</time>
      </trkpt>
      <trkpt lat="48.59708" lon="1.96963">
        <ele>137.61</ele>
        <time>2020-08-27T09:14:19Z</time>
      </trkpt>
      <trkpt lat="48.59709" lon="1.96961">
        <ele>137.13</ele>
        <time>2020-08-27T09:14:20Z</time>
      </trkpt>
      <trkpt lat="48.59709" lon="1.9696">
        <ele>136.64</ele>
        <time>2020-08-27T09:14:21Z</time>
      </trkpt>
      <trkpt lat="48.5971" lon="1.96958">
        <ele>138.09</ele>
        <time>2020-08-27T09:14:22Z</time>
      </trkpt>
      <trkpt lat="48.5971" lon="1.96957">
        <ele>138.09</ele>
        <time>2020-08-27T09:14:23Z</time>
      </trkpt>
      <trkpt lat="48.5971" lon="1.96955">
        <ele>137.61</ele>
        <time>2020-08-27T09:14:24Z</time>
      </trkpt>
      <trkpt lat="48.59711" lon="1.96953">
        <ele>138.09</ele>
        <time>2020-08-27T09:14:25Z</time>
      </trkpt>
      <trkpt lat="48.59711" lon="1.96951">
        <ele>138.09</ele>
        <time>2020-08-27T09:14:26Z</time>
      </trkpt>
      <trkpt lat="48.59711" lon="1.96949">
        <ele>137.61</ele>
        <time>2020-08-27T09:14:27Z</time>
      </trkpt>
      <trkpt lat="48.59711" lon="1.96948">
        <ele>137.61</ele>
        <time>2020-08-27T09:14:28Z</time>
      </trkpt>
      <trkpt lat="48.59712" lon="1.96947">
        <ele>139.05</ele>
        <time>2020-08-27T09:14:29Z</time>
      </trkpt>
      <trkpt lat="48.59712" lon="1.96946">
        <ele>138.57</ele>
        <time>2020-08-27T09:14:30Z</time>
      </trkpt>
      <trkpt lat="48.59713" lon="1.96944">
        <ele>138.57</ele>
        <time>2020-08-27T09:14:31Z</time>
      </trkpt>
      <trkpt lat="48.59713" lon="1.96943">
        <ele>138.57</ele>
        <time>2020-08-27T09:14:32Z</time>
      </trkpt>
      <trkpt lat="48.59714" lon="1.96942">
        <ele>138.57</ele>
        <time>2020-08-27T09:14:33Z</time>
      </trkpt>
      <trkpt lat="48.59715" lon="1.9694">
        <ele>139.53</ele>
        <time>2020-08-27T09:14:34Z</time>
      </trkpt>
      <trkpt lat="48.59716" lon="1.96939">
        <ele>139.05</ele>
        <time>2020-08-27T09:14:35Z</time>
      </trkpt>
      <trkpt lat="48.59717" lon="1.96938">
        <ele>139.05</ele>
        <time>2020-08-27T09:14:36Z</time>
      </trkpt>
      <trkpt lat="48.59717" lon="1.96937">
        <ele>139.05</ele>
        <time>2020-08-27T09:14:37Z</time>
      </trkpt>
      <trkpt lat="48.59718" lon="1.96936">
        <ele>138.57</ele>
        <time>2020-08-27T09:14:38Z</time>
      </trkpt>
      <trkpt lat="48.59719" lon="1.96935">
        <ele>139.53</ele>
        <time>2020-08-27T09:14:39Z</time>
      </trkpt>
      <trkpt lat="48.59719" lon="1.96934">
        <ele>140.01</ele>
        <time>2020-08-27T09:14:40Z</time>
      </trkpt>
      <trkpt lat="48.5972" lon="1.96932">
        <ele>139.53</ele>
        <time>2020-08-27T09:14:41Z</time>
      </trkpt>
      <trkpt lat="48.59721" lon="1.96931">
        <ele>139.53</ele>
        <time>2020-08-27T09:14:42Z</time>
      </trkpt>
      <trkpt lat="48.59722" lon="1.9693">
        <ele>139.53</ele>
        <time>2020-08-27T09:14:43Z</time>
      </trkpt>
      <trkpt lat="48.59722" lon="1.96928">
        <ele>139.53</ele>
        <time>2020-08-27T09:14:44Z</time>
      </trkpt>
      <trkpt lat="48.59723" lon="1.96927">
        <ele>140.49</ele>
        <time>2020-08-27T09:14:45Z</time>
      </trkpt>
      <trkpt lat="48.59723" lon="1.96925">
        <ele>140.49</ele>
        <time>2020-08-27T09:14:46Z</time>
      </trkpt>
      <trkpt lat="48.59724" lon="1.96923">
        <ele>140.01</ele>
        <time>2020-08-27T09:14:47Z</time>
      </trkpt>
      <trkpt lat="48.59725" lon="1.96922">
        <ele>140.49</ele>
        <time>2020-08-27T09:14:48Z</time>
      </trkpt>
      <trkpt lat="48.59725" lon="1.9692">
        <ele>140.49</ele>
        <time>2020-08-27T09:14:49Z</time>
      </trkpt>
      <trkpt lat="48.59725" lon="1.96919">
        <ele>140.49</ele>
        <time>2020-08-27T09:14:50Z</time>
      </trkpt>
      <trkpt lat="48.59725" lon="1.96917">
        <ele>141.45</ele>
        <time>2020-08-27T09:14:51Z</time>
      </trkpt>
      <trkpt lat="48.59725" lon="1.96916">
        <ele>140.97</ele>
        <time>2020-08-27T09:14:52Z</time>
      </trkpt>
      <trkpt lat="48.59726" lon="1.96914">
        <ele>140.97</ele>
        <time>2020-08-27T09:14:53Z</time>
      </trkpt>
      <trkpt lat="48.59727" lon="1.96913">
        <ele>140.97</ele>
        <time>2020-08-27T09:14:54Z</time>
      </trkpt>
      <trkpt lat="48.59728" lon="1.96911">
        <ele>141.45</ele>
        <time>2020-08-27T09:14:55Z</time>
      </trkpt>
      <trkpt lat="48.59728" lon="1.9691">
        <ele>140.97</ele>
        <time>2020-08-27T09:14:56Z</time>
      </trkpt>
      <trkpt lat="48.59729" lon="1.9691">
        <ele>141.93</ele>
        <time>2020-08-27T09:14:57Z</time>
      </trkpt>
      <trkpt lat="48.59729" lon="1.96908">
        <ele>141.45</ele>
        <time>2020-08-27T09:14:58Z</time>
      </trkpt>
      <trkpt lat="48.5973" lon="1.96908">
        <ele>141.45</ele>
        <time>2020-08-27T09:14:59Z</time>
      </trkpt>
      <trkpt lat="48.5973" lon="1.96906">
        <ele>141.45</ele>
        <time>2020-08-27T09:15:00Z</time>
      </trkpt>
      <trkpt lat="48.5973" lon="1.96906">
        <ele>141.45</ele>
        <time>2020-08-27T09:15:01Z</time>
      </trkpt>
      <trkpt lat="48.59731" lon="1.96905">
        <ele>141.45</ele>
        <time>2020-08-27T09:15:02Z</time>
      </trkpt>
      <trkpt lat="48.59731" lon="1.96904">
        <ele>141.45</ele>
        <time>2020-08-27T09:15:03Z</time>
      </trkpt>
      <trkpt lat="48.59731" lon="1.96904">
        <ele>141.45</ele>
        <time>2020-08-27T09:15:04Z</time>
      </trkpt>
      <trkpt lat="48.5973" lon="1.96903">
        <ele>141.45</ele>
        <time>2020-08-27T09:15:05Z</time>
      </trkpt>
      <trkpt lat="48.59729" lon="1.96902">
        <ele>141.45</ele>
        <time>2020-08-27T09:15:06Z</time>
      </trkpt>
      <trkpt lat="48.59728" lon="1.96901">
        <ele>141.45</ele>
        <time>2020-08-27T09:15:07Z</time>
      </trkpt>
      <trkpt lat="48.59727" lon="1.969">
        <ele>141.45</ele>
        <time>2020-08-27T09:15:08Z</time>
      </trkpt>
      <trkpt lat="48.59726" lon="1.96899">
        <ele>141.45</ele>
        <time>2020-08-27T09:15:09Z</time>
      </trkpt>
      <trkpt lat="48.59725" lon="1.96898">
        <ele>141.45</ele>
        <time>2020-08-27T09:15:10Z</time>
      </trkpt>
      <trkpt lat="48.59724" lon="1.96897">
        <ele>140.97</ele>
        <time>2020-08-27T09:15:11Z</time>
      </trkpt>
      <trkpt lat="48.59723" lon="1.96896">
        <ele>140.97</ele>
        <time>2020-08-27T09:15:12Z</time>
      </trkpt>
      <trkpt lat="48.59722" lon="1.96894">
        <ele>140.97</ele>
        <time>2020-08-27T09:15:13Z</time>
      </trkpt>
      <trkpt lat="48.59721" lon="1.96893">
        <ele>140.97</ele>
        <time>2020-08-27T09:15:14Z</time>
      </trkpt>
      <trkpt lat="48.59719" lon="1.96891">
        <ele>140.97</ele>
        <time>2020-08-27T09:15:15Z</time>
      </trkpt>
      <trkpt lat="48.59718" lon="1.96889">
        <ele>140.97</ele>
        <time>2020-08-27T09:15:16Z</time>
      </trkpt>
      <trkpt lat="48.59717" lon="1.96887">
        <ele>140.49</ele>
        <time>2020-08-27T09:15:17Z</time>
      </trkpt>
      <trkpt lat="48.59716" lon="1.96884">
        <ele>140.97</ele>
        <time>2020-08-27T09:15:18Z</time>
      </trkpt>
      <trkpt lat="48.59715" lon="1.96883">
        <ele>140.97</ele>
        <time>2020-08-27T09:15:19Z</time>
      </trkpt>
      <trkpt lat="48.59714" lon="1.96882">
        <ele>140.49</ele>
        <time>2020-08-27T09:15:20Z</time>
      </trkpt>
      <trkpt lat="48.59713" lon="1.9688">
        <ele>140.49</ele>
        <time>2020-08-27T09:15:21Z</time>
      </trkpt>
      <trkpt lat="48.59711" lon="1.96878">
        <ele>140.49</ele>
        <time>2020-08-27T09:15:22Z</time>
      </trkpt>
      <trkpt lat="48.5971" lon="1.96877">
        <ele>140.49</ele>
        <time>2020-08-27T09:15:23Z</time>
      </trkpt>
      <trkpt lat="48.59708" lon="1.96876">
        <ele>140.01</ele>
        <time>2020-08-27T09:15:24Z</time>
      </trkpt>
      <trkpt lat="48.59707" lon="1.96875">
        <ele>140.49</ele>
        <time>2020-08-27T09:15:25Z</time>
      </trkpt>
      <trkpt lat="48.59706" lon="1.96874">
        <ele>140.01</ele>
        <time>2020-08-27T09:15:26Z</time>
      </trkpt>
      <trkpt lat="48.59705" lon="1.96873">
        <ele>140.01</ele>
        <time>2020-08-27T09:15:27Z</time>
      </trkpt>
      <trkpt lat="48.59704" lon="1.96871">
        <ele>140.01</ele>
        <time>2020-08-27T09:15:28Z</time>
      </trkpt>
      <trkpt lat="48.59703" lon="1.9687">
        <ele>139.53</ele>
        <time>2020-08-27T09:15:29Z</time>
      </trkpt>
      <trkpt lat="48.59702" lon="1.96868">
        <ele>139.53</ele>
        <time>2020-08-27T09:15:30Z</time>
      </trkpt>
      <trkpt lat="48.59702" lon="1.96867">
        <ele>139.53</ele>
        <time>2020-08-27T09:15:31Z</time>
      </trkpt>
      <trkpt lat="48.59701" lon="1.96867">
        <ele>139.53</ele>
        <time>2020-08-27T09:15:32Z</time>
      </trkpt>
      <trkpt lat="48.597" lon="1.96866">
        <ele>139.53</ele>
        <time>2020-08-27T09:15:33Z</time>
      </trkpt>
      <trkpt lat="48.59699" lon="1.96865">
        <ele>139.53</ele>
        <time>2020-08-27T09:15:34Z</time>
      </trkpt>
      <trkpt lat="48.59698" lon="1.96865">
        <ele>139.53</ele>
        <time>2020-08-27T09:15:35Z</time>
      </trkpt>
      <trkpt lat="48.59696" lon="1.96864">
        <ele>139.53</ele>
        <time>2020-08-27T09:15:36Z</time>
      </trkpt>
      <trkpt lat="48.59695" lon="1.96863">
        <ele>139.05</ele>
        <time>2020-08-27T09:15:37Z</time>
      </trkpt>
      <trkpt lat="48.59694" lon="1.96861">
        <ele>139.05</ele>
        <time>2020-08-27T09:15:38Z</time>
      </trkpt>
      <trkpt lat="48.59693" lon="1.9686">
        <ele>139.05</ele>
        <time>2020-08-27T09:15:39Z</time>
      </trkpt>
      <trkpt lat="48.59692" lon="1.96859">
        <ele>140.01</ele>
        <time>2020-08-27T09:15:40Z</time>
      </trkpt>
      <trkpt lat="48.59692" lon="1.96858">
        <ele>139.05</ele>
        <time>2020-08-27T09:15:41Z</time>
      </trkpt>
      <trkpt lat="48.59691" lon="1.96858">
        <ele>139.05</ele>
        <time>2020-08-27T09:15:42Z</time>
      </trkpt>
      <trkpt lat="48.5969" lon="1.96857">
        <ele>139.53</ele>
        <time>2020-08-27T09:15:43Z</time>
      </trkpt>
      <trkpt lat="48.59689" lon="1.96857">
        <ele>139.53</ele>
        <time>2020-08-27T09:15:44Z</time>
      </trkpt>
      <trkpt lat="48.59688" lon="1.96856">
        <ele>139.05</ele>
        <time>2020-08-27T09:15:45Z</time>
      </trkpt>
      <trkpt lat="48.59687" lon="1.96854">
        <ele>139.05</ele>
        <time>2020-08-27T09:15:46Z</time>
      </trkpt>
      <trkpt lat="48.59686" lon="1.96853">
        <ele>139.05</ele>
        <time>2020-08-27T09:15:47Z</time>
      </trkpt>
      <trkpt lat="48.59684" lon="1.96851">
        <ele>139.05</ele>
        <time>2020-08-27T09:15:48Z</time>
      </trkpt>
      <trkpt lat="48.59683" lon="1.96849">
        <ele>138.57</ele>
        <time>2020-08-27T09:15:49Z</time>
      </trkpt>
      <trkpt lat="48.59682" lon="1.96848">
        <ele>139.53</ele>
        <time>2020-08-27T09:15:50Z</time>
      </trkpt>
      <trkpt lat="48.59682" lon="1.96846">
        <ele>139.05</ele>
        <time>2020-08-27T09:15:51Z</time>
      </trkpt>
      <trkpt lat="48.59681" lon="1.96846">
        <ele>139.05</ele>
        <time>2020-08-27T09:15:52Z</time>
      </trkpt>
      <trkpt lat="48.59681" lon="1.96844">
        <ele>139.05</ele>
        <time>2020-08-27T09:15:53Z</time>
      </trkpt>
      <trkpt lat="48.5968" lon="1.96843">
        <ele>139.05</ele>
        <time>2020-08-27T09:15:54Z</time>
      </trkpt>
      <trkpt lat="48.59679" lon="1.96843">
        <ele>139.53</ele>
        <time>2020-08-27T09:15:55Z</time>
      </trkpt>
      <trkpt lat="48.59678" lon="1.96842">
        <ele>139.05</ele>
        <time>2020-08-27T09:15:56Z</time>
      </trkpt>
      <trkpt lat="48.59677" lon="1.96841">
        <ele>139.05</ele>
        <time>2020-08-27T09:15:57Z</time>
      </trkpt>
      <trkpt lat="48.59675" lon="1.9684">
        <ele>139.53</ele>
        <time>2020-08-27T09:15:58Z</time>
      </trkpt>
      <trkpt lat="48.59673" lon="1.96839">
        <ele>140.01</ele>
        <time>2020-08-27T09:15:59Z</time>
      </trkpt>
      <trkpt lat="48.59672" lon="1.96838">
        <ele>139.53</ele>
        <time>2020-08-27T09:16:00Z</time>
      </trkpt>
      <trkpt lat="48.5967" lon="1.96837">
        <ele>140.01</ele>
        <time>2020-08-27T09:16:01Z</time>
      </trkpt>
      <trkpt lat="48.59669" lon="1.96836">
        <ele>140.01</ele>
        <time>2020-08-27T09:16:02Z</time>
      </trkpt>
      <trkpt lat="48.59667" lon="1.96835">
        <ele>140.01</ele>
        <time>2020-08-27T09:16:03Z</time>
      </trkpt>
      <trkpt lat="48.59666" lon="1.96834">
        <ele>140.01</ele>
        <time>2020-08-27T09:16:04Z</time>
      </trkpt>
      <trkpt lat="48.59665" lon="1.96833">
        <ele>140.01</ele>
        <time>2020-08-27T09:16:05Z</time>
      </trkpt>
      <trkpt lat="48.59664" lon="1.96832">
        <ele>140.97</ele>
        <time>2020-08-27T09:16:06Z</time>
      </trkpt>
      <trkpt lat="48.59663" lon="1.96831">
        <ele>140.49</ele>
        <time>2020-08-27T09:16:07Z</time>
      </trkpt>
      <trkpt lat="48.59662" lon="1.9683">
        <ele>140.49</ele>
        <time>2020-08-27T09:16:08Z</time>
      </trkpt>
      <trkpt lat="48.59661" lon="1.96829">
        <ele>140.49</ele>
        <time>2020-08-27T09:16:09Z</time>
      </trkpt>
      <trkpt lat="48.5966" lon="1.96828">
        <ele>140.49</ele>
        <time>2020-08-27T09:16:10Z</time>
      </trkpt>
      <trkpt lat="48.59659" lon="1.96826">
        <ele>140.49</ele>
        <time>2020-08-27T09:16:11Z</time>
      </trkpt>
      <trkpt lat="48.59658" lon="1.96826">
        <ele>140.97</ele>
        <time>2020-08-27T09:16:12Z</time>
      </trkpt>
      <trkpt lat="48.59657" lon="1.96825">
        <ele>141.45</ele>
        <time>2020-08-27T09:16:13Z</time>
      </trkpt>
      <trkpt lat="48.59656" lon="1.96825">
        <ele>140.97</ele>
        <time>2020-08-27T09:16:14Z</time>
      </trkpt>
      <trkpt lat="48.59655" lon="1.96824">
        <ele>140.97</ele>
        <time>2020-08-27T09:16:15Z</time>
      </trkpt>
      <trkpt lat="48.59654" lon="1.96823">
        <ele>140.97</ele>
        <time>2020-08-27T09:16:16Z</time>
      </trkpt>
      <trkpt lat="48.59653" lon="1.96822">
        <ele>140.97</ele>
        <time>2020-08-27T09:16:17Z</time>
      </trkpt>
      <trkpt lat="48.59651" lon="1.96821">
        <ele>141.93</ele>
        <time>2020-08-27T09:16:18Z</time>
      </trkpt>
      <trkpt lat="48.5965" lon="1.9682">
        <ele>141.93</ele>
        <time>2020-08-27T09:16:19Z</time>
      </trkpt>
      <trkpt lat="48.59649" lon="1.96819">
        <ele>141.45</ele>
        <time>2020-08-27T09:16:20Z</time>
      </trkpt>
      <trkpt lat="48.59647" lon="1.96818">
        <ele>141.93</ele>
        <time>2020-08-27T09:16:21Z</time>
      </trkpt>
      <trkpt lat="48.59646" lon="1.96818">
        <ele>141.45</ele>
        <time>2020-08-27T09:16:22Z</time>
      </trkpt>
      <trkpt lat="48.59645" lon="1.96817">
        <ele>140.97</ele>
        <time>2020-08-27T09:16:23Z</time>
      </trkpt>
      <trkpt lat="48.59644" lon="1.96815">
        <ele>142.41</ele>
        <time>2020-08-27T09:16:24Z</time>
      </trkpt>
      <trkpt lat="48.59643" lon="1.96814">
        <ele>141.93</ele>
        <time>2020-08-27T09:16:25Z</time>
      </trkpt>
      <trkpt lat="48.59642" lon="1.96812">
        <ele>142.41</ele>
        <time>2020-08-27T09:16:26Z</time>
      </trkpt>
      <trkpt lat="48.59641" lon="1.96811">
        <ele>141.93</ele>
        <time>2020-08-27T09:16:27Z</time>
      </trkpt>
      <trkpt lat="48.5964" lon="1.9681">
        <ele>141.45</ele>
        <time>2020-08-27T09:16:28Z</time>
      </trkpt>
      <trkpt lat="48.59639" lon="1.9681">
        <ele>141.93</ele>
        <time>2020-08-27T09:16:29Z</time>
      </trkpt>
      <trkpt lat="48.59638" lon="1.96809">
        <ele>141.45</ele>
        <time>2020-08-27T09:16:30Z</time>
      </trkpt>
      <trkpt lat="48.59636" lon="1.96807">
        <ele>141.45</ele>
        <time>2020-08-27T09:16:31Z</time>
      </trkpt>
      <trkpt lat="48.59635" lon="1.96806">
        <ele>142.41</ele>
        <time>2020-08-27T09:16:32Z</time>
      </trkpt>
      <trkpt lat="48.59634" lon="1.96805">
        <ele>142.41</ele>
        <time>2020-08-27T09:16:33Z</time>
      </trkpt>
      <trkpt lat="48.59633" lon="1.96804">
        <ele>142.41</ele>
        <time>2020-08-27T09:16:34Z</time>
      </trkpt>
      <trkpt lat="48.59632" lon="1.96802">
        <ele>141.93</ele>
        <time>2020-08-27T09:16:35Z</time>
      </trkpt>
      <trkpt lat="48.59631" lon="1.96801">
        <ele>141.93</ele>
        <time>2020-08-27T09:16:36Z</time>
      </trkpt>
      <trkpt lat="48.5963" lon="1.96799">
        <ele>141.93</ele>
        <time>2020-08-27T09:16:37Z</time>
      </trkpt>
      <trkpt lat="48.59629" lon="1.96798">
        <ele>141.93</ele>
        <time>2020-08-27T09:16:38Z</time>
      </trkpt>
      <trkpt lat="48.59629" lon="1.96797">
        <ele>142.41</ele>
        <time>2020-08-27T09:16:39Z</time>
      </trkpt>
      <trkpt lat="48.59628" lon="1.96795">
        <ele>142.41</ele>
        <time>2020-08-27T09:16:40Z</time>
      </trkpt>
      <trkpt lat="48.59627" lon="1.96794">
        <ele>141.93</ele>
        <time>2020-08-27T09:16:41Z</time>
      </trkpt>
      <trkpt lat="48.59626" lon="1.96793">
        <ele>142.41</ele>
        <time>2020-08-27T09:16:42Z</time>
      </trkpt>
      <trkpt lat="48.59624" lon="1.96792">
        <ele>142.41</ele>
        <time>2020-08-27T09:16:43Z</time>
      </trkpt>
      <trkpt lat="48.59623" lon="1.96791">
        <ele>142.41</ele>
        <time>2020-08-27T09:16:44Z</time>
      </trkpt>
      <trkpt lat="48.59622" lon="1.9679">
        <ele>141.93</ele>
        <time>2020-08-27T09:16:45Z</time>
      </trkpt>
      <trkpt lat="48.5962" lon="1.96788">
        <ele>142.41</ele>
        <time>2020-08-27T09:16:46Z</time>
      </trkpt>
      <trkpt lat="48.59619" lon="1.96787">
        <ele>142.41</ele>
        <time>2020-08-27T09:16:47Z</time>
      </trkpt>
      <trkpt lat="48.59618" lon="1.96786">
        <ele>142.41</ele>
        <time>2020-08-27T09:16:48Z</time>
      </trkpt>
      <trkpt lat="48.59616" lon="1.96785">
        <ele>142.41</ele>
        <time>2020-08-27T09:16:49Z</time>
      </trkpt>
      <trkpt lat="48.59615" lon="1.96784">
        <ele>142.41</ele>
        <time>2020-08-27T09:16:50Z</time>
      </trkpt>
      <trkpt lat="48.59614" lon="1.96783">
        <ele>142.41</ele>
        <time>2020-08-27T09:16:51Z</time>
      </trkpt>
      <trkpt lat="48.59613" lon="1.96782">
        <ele>142.41</ele>
        <time>2020-08-27T09:16:52Z</time>
      </trkpt>
      <trkpt lat="48.59612" lon="1.96781">
        <ele>142.41</ele>
        <time>2020-08-27T09:16:53Z</time>
      </trkpt>
      <trkpt lat="48.59611" lon="1.9678">
        <ele>142.89</ele>
        <time>2020-08-27T09:16:54Z</time>
      </trkpt>
      <trkpt lat="48.5961" lon="1.96778">
        <ele>142.89</ele>
        <time>2020-08-27T09:16:55Z</time>
      </trkpt>
      <trkpt lat="48.59609" lon="1.96777">
        <ele>142.41</ele>
        <time>2020-08-27T09:16:56Z</time>
      </trkpt>
      <trkpt lat="48.59608" lon="1.96776">
        <ele>142.41</ele>
        <time>2020-08-27T09:16:57Z</time>
      </trkpt>
      <trkpt lat="48.59607" lon="1.96775">
        <ele>142.41</ele>
        <time>2020-08-27T09:16:58Z</time>
      </trkpt>
      <trkpt lat="48.59606" lon="1.96774">
        <ele>142.41</ele>
        <time>2020-08-27T09:16:59Z</time>
      </trkpt>
      <trkpt lat="48.59604" lon="1.96773">
        <ele>142.41</ele>
        <time>2020-08-27T09:17:00Z</time>
      </trkpt>
      <trkpt lat="48.59603" lon="1.96771">
        <ele>142.89</ele>
        <time>2020-08-27T09:17:01Z</time>
      </trkpt>
      <trkpt lat="48.59601" lon="1.9677">
        <ele>142.89</ele>
        <time>2020-08-27T09:17:02Z</time>
      </trkpt>
      <trkpt lat="48.596" lon="1.96768">
        <ele>142.41</ele>
        <time>2020-08-27T09:17:03Z</time>
      </trkpt>
      <trkpt lat="48.59599" lon="1.96767">
        <ele>142.41</ele>
        <time>2020-08-27T09:17:04Z</time>
      </trkpt>
      <trkpt lat="48.59598" lon="1.96765">
        <ele>142.41</ele>
        <time>2020-08-27T09:17:05Z</time>
      </trkpt>
      <trkpt lat="48.59596" lon="1.96764">
        <ele>142.41</ele>
        <time>2020-08-27T09:17:06Z</time>
      </trkpt>
      <trkpt lat="48.59595" lon="1.96763">
        <ele>141.93</ele>
        <time>2020-08-27T09:17:07Z</time>
      </trkpt>
      <trkpt lat="48.59594" lon="1.96762">
        <ele>142.89</ele>
        <time>2020-08-27T09:17:08Z</time>
      </trkpt>
      <trkpt lat="48.59593" lon="1.9676">
        <ele>142.89</ele>
        <time>2020-08-27T09:17:09Z</time>
      </trkpt>
      <trkpt lat="48.59593" lon="1.96759">
        <ele>142.41</ele>
        <time>2020-08-27T09:17:10Z</time>
      </trkpt>
      <trkpt lat="48.59592" lon="1.96758">
        <ele>142.41</ele>
        <time>2020-08-27T09:17:11Z</time>
      </trkpt>
      <trkpt lat="48.59591" lon="1.96756">
        <ele>142.41</ele>
        <time>2020-08-27T09:17:12Z</time>
      </trkpt>
      <trkpt lat="48.59591" lon="1.96756">
        <ele>142.41</ele>
        <time>2020-08-27T09:17:13Z</time>
      </trkpt>
      <trkpt lat="48.5959" lon="1.96755">
        <ele>142.41</ele>
        <time>2020-08-27T09:17:14Z</time>
      </trkpt>
      <trkpt lat="48.5959" lon="1.96754">
        <ele>143.37</ele>
        <time>2020-08-27T09:17:15Z</time>
      </trkpt>
      <trkpt lat="48.59589" lon="1.96753">
        <ele>142.89</ele>
        <time>2020-08-27T09:17:16Z</time>
      </trkpt>
      <trkpt lat="48.59588" lon="1.96752">
        <ele>142.41</ele>
        <time>2020-08-27T09:17:17Z</time>
      </trkpt>
      <trkpt lat="48.59587" lon="1.96751">
        <ele>142.41</ele>
        <time>2020-08-27T09:17:18Z</time>
      </trkpt>
      <trkpt lat="48.59586" lon="1.9675">
        <ele>142.41</ele>
        <time>2020-08-27T09:17:19Z</time>
      </trkpt>
      <trkpt lat="48.59584" lon="1.96748">
        <ele>142.41</ele>
        <time>2020-08-27T09:17:20Z</time>
      </trkpt>
      <trkpt lat="48.59583" lon="1.96747">
        <ele>142.41</ele>
        <time>2020-08-27T09:17:21Z</time>
      </trkpt>
      <trkpt lat="48.59582" lon="1.96746">
        <ele>142.41</ele>
        <time>2020-08-27T09:17:22Z</time>
      </trkpt>
      <trkpt lat="48.59581" lon="1.96745">
        <ele>142.89</ele>
        <time>2020-08-27T09:17:23Z</time>
      </trkpt>
      <trkpt lat="48.5958" lon="1.96744">
        <ele>142.89</ele>
        <time>2020-08-27T09:17:24Z</time>
      </trkpt>
      <trkpt lat="48.59579" lon="1.96743">
        <ele>142.89</ele>
        <time>2020-08-27T09:17:25Z</time>
      </trkpt>
      <trkpt lat="48.59578" lon="1.96742">
        <ele>142.41</ele>
        <time>2020-08-27T09:17:26Z</time>
      </trkpt>
      <trkpt lat="48.59576" lon="1.96741">
        <ele>142.89</ele>
        <time>2020-08-27T09:17:27Z</time>
      </trkpt>
      <trkpt lat="48.59575" lon="1.9674">
        <ele>142.41</ele>
        <time>2020-08-27T09:17:28Z</time>
      </trkpt>
      <trkpt lat="48.59574" lon="1.96739">
        <ele>142.89</ele>
        <time>2020-08-27T09:17:29Z</time>
      </trkpt>
      <trkpt lat="48.59573" lon="1.96737">
        <ele>143.37</ele>
        <time>2020-08-27T09:17:30Z</time>
      </trkpt>
      <trkpt lat="48.59572" lon="1.96736">
        <ele>143.37</ele>
        <time>2020-08-27T09:17:31Z</time>
      </trkpt>
      <trkpt lat="48.59572" lon="1.96735">
        <ele>143.37</ele>
        <time>2020-08-27T09:17:32Z</time>
      </trkpt>
      <trkpt lat="48.59571" lon="1.96734">
        <ele>142.89</ele>
        <time>2020-08-27T09:17:33Z</time>
      </trkpt>
      <trkpt lat="48.5957" lon="1.96733">
        <ele>142.89</ele>
        <time>2020-08-27T09:17:34Z</time>
      </trkpt>
      <trkpt lat="48.5957" lon="1.96732">
        <ele>143.37</ele>
        <time>2020-08-27T09:17:35Z</time>
      </trkpt>
      <trkpt lat="48.59568" lon="1.96731">
        <ele>143.37</ele>
        <time>2020-08-27T09:17:36Z</time>
      </trkpt>
      <trkpt lat="48.59567" lon="1.9673">
        <ele>143.37</ele>
        <time>2020-08-27T09:17:37Z</time>
      </trkpt>
      <trkpt lat="48.59566" lon="1.96729">
        <ele>143.85</ele>
        <time>2020-08-27T09:17:38Z</time>
      </trkpt>
      <trkpt lat="48.59564" lon="1.96728">
        <ele>143.37</ele>
        <time>2020-08-27T09:17:39Z</time>
      </trkpt>
      <trkpt lat="48.59563" lon="1.96727">
        <ele>144.34</ele>
        <time>2020-08-27T09:17:40Z</time>
      </trkpt>
      <trkpt lat="48.59562" lon="1.96726">
        <ele>143.85</ele>
        <time>2020-08-27T09:17:41Z</time>
      </trkpt>
      <trkpt lat="48.5956" lon="1.96725">
        <ele>143.37</ele>
        <time>2020-08-27T09:17:42Z</time>
      </trkpt>
      <trkpt lat="48.59559" lon="1.96724">
        <ele>143.85</ele>
        <time>2020-08-27T09:17:43Z</time>
      </trkpt>
      <trkpt lat="48.59558" lon="1.96723">
        <ele>144.34</ele>
        <time>2020-08-27T09:17:44Z</time>
      </trkpt>
      <trkpt lat="48.59557" lon="1.96721">
        <ele>143.85</ele>
        <time>2020-08-27T09:17:45Z</time>
      </trkpt>
      <trkpt lat="48.59556" lon="1.9672">
        <ele>144.34</ele>
        <time>2020-08-27T09:17:46Z</time>
      </trkpt>
      <trkpt lat="48.59556" lon="1.96719">
        <ele>144.34</ele>
        <time>2020-08-27T09:17:47Z</time>
      </trkpt>
      <trkpt lat="48.59555" lon="1.96718">
        <ele>143.85</ele>
        <time>2020-08-27T09:17:48Z</time>
      </trkpt>
      <trkpt lat="48.59553" lon="1.96718">
        <ele>144.34</ele>
        <time>2020-08-27T09:17:49Z</time>
      </trkpt>
      <trkpt lat="48.59552" lon="1.96717">
        <ele>144.82</ele>
        <time>2020-08-27T09:17:50Z</time>
      </trkpt>
      <trkpt lat="48.59551" lon="1.96716">
        <ele>144.82</ele>
        <time>2020-08-27T09:17:51Z</time>
      </trkpt>
      <trkpt lat="48.59549" lon="1.96715">
        <ele>144.34</ele>
        <time>2020-08-27T09:17:52Z</time>
      </trkpt>
      <trkpt lat="48.59548" lon="1.96714">
        <ele>144.34</ele>
        <time>2020-08-27T09:17:53Z</time>
      </trkpt>
      <trkpt lat="48.59547" lon="1.96713">
        <ele>144.34</ele>
        <time>2020-08-27T09:17:54Z</time>
      </trkpt>
      <trkpt lat="48.59546" lon="1.96712">
        <ele>144.82</ele>
        <time>2020-08-27T09:17:55Z</time>
      </trkpt>
      <trkpt lat="48.59545" lon="1.9671">
        <ele>144.82</ele>
        <time>2020-08-27T09:17:56Z</time>
      </trkpt>
      <trkpt lat="48.59543" lon="1.96709">
        <ele>144.34</ele>
        <time>2020-08-27T09:17:57Z</time>
      </trkpt>
      <trkpt lat="48.59542" lon="1.96708">
        <ele>144.82</ele>
        <time>2020-08-27T09:17:58Z</time>
      </trkpt>
      <trkpt lat="48.59541" lon="1.96707">
        <ele>144.34</ele>
        <time>2020-08-27T09:17:59Z</time>
      </trkpt>
      <trkpt lat="48.5954" lon="1.96706">
        <ele>144.34</ele>
        <time>2020-08-27T09:18:00Z</time>
      </trkpt>
      <trkpt lat="48.59539" lon="1.96705">
        <ele>144.82</ele>
        <time>2020-08-27T09:18:01Z</time>
      </trkpt>
      <trkpt lat="48.59538" lon="1.96704">
        <ele>145.3</ele>
        <time>2020-08-27T09:18:02Z</time>
      </trkpt>
      <trkpt lat="48.59537" lon="1.96703">
        <ele>144.82</ele>
        <time>2020-08-27T09:18:03Z</time>
      </trkpt>
      <trkpt lat="48.59536" lon="1.96702">
        <ele>144.82</ele>
        <time>2020-08-27T09:18:04Z</time>
      </trkpt>
      <trkpt lat="48.59535" lon="1.96702">
        <ele>144.82</ele>
        <time>2020-08-27T09:18:05Z</time>
      </trkpt>
      <trkpt lat="48.59534" lon="1.96701">
        <ele>144.82</ele>
        <time>2020-08-27T09:18:06Z</time>
      </trkpt>
      <trkpt lat="48.59533" lon="1.967">
        <ele>144.82</ele>
        <time>2020-08-27T09:18:07Z</time>
      </trkpt>
      <trkpt lat="48.59532" lon="1.96699">
        <ele>145.3</ele>
        <time>2020-08-27T09:18:08Z</time>
      </trkpt>
      <trkpt lat="48.59532" lon="1.96698">
        <ele>144.82</ele>
        <time>2020-08-27T09:18:09Z</time>
      </trkpt>
      <trkpt lat="48.5953" lon="1.96697">
        <ele>144.82</ele>
        <time>2020-08-27T09:18:10Z</time>
      </trkpt>
      <trkpt lat="48.59529" lon="1.96696">
        <ele>145.3</ele>
        <time>2020-08-27T09:18:11Z</time>
      </trkpt>
      <trkpt lat="48.59528" lon="1.96694">
        <ele>144.82</ele>
        <time>2020-08-27T09:18:12Z</time>
      </trkpt>
      <trkpt lat="48.59527" lon="1.96693">
        <ele>144.82</ele>
        <time>2020-08-27T09:18:13Z</time>
      </trkpt>
      <trkpt lat="48.59526" lon="1.96692">
        <ele>145.3</ele>
        <time>2020-08-27T09:18:14Z</time>
      </trkpt>
      <trkpt lat="48.59525" lon="1.96691">
        <ele>145.3</ele>
        <time>2020-08-27T09:18:15Z</time>
      </trkpt>
      <trkpt lat="48.59524" lon="1.9669">
        <ele>145.3</ele>
        <time>2020-08-27T09:18:16Z</time>
      </trkpt>
      <trkpt lat="48.59523" lon="1.96689">
        <ele>145.78</ele>
        <time>2020-08-27T09:18:17Z</time>
      </trkpt>
      <trkpt lat="48.59522" lon="1.96688">
        <ele>145.3</ele>
        <time>2020-08-27T09:18:18Z</time>
      </trkpt>
      <trkpt lat="48.5952" lon="1.96687">
        <ele>145.3</ele>
        <time>2020-08-27T09:18:19Z</time>
      </trkpt>
      <trkpt lat="48.59519" lon="1.96685">
        <ele>145.78</ele>
        <time>2020-08-27T09:18:20Z</time>
      </trkpt>
      <trkpt lat="48.59518" lon="1.96684">
        <ele>145.3</ele>
        <time>2020-08-27T09:18:21Z</time>
      </trkpt>
      <trkpt lat="48.59517" lon="1.96683">
        <ele>145.3</ele>
        <time>2020-08-27T09:18:22Z</time>
      </trkpt>
      <trkpt lat="48.59516" lon="1.96682">
        <ele>145.3</ele>
        <time>2020-08-27T09:18:23Z</time>
      </trkpt>
      <trkpt lat="48.59515" lon="1.9668">
        <ele>145.3</ele>
        <time>2020-08-27T09:18:24Z</time>
      </trkpt>
      <trkpt lat="48.59514" lon="1.96679">
        <ele>145.78</ele>
        <time>2020-08-27T09:18:25Z</time>
      </trkpt>
      <trkpt lat="48.59513" lon="1.96678">
        <ele>145.78</ele>
        <time>2020-08-27T09:18:26Z</time>
      </trkpt>
      <trkpt lat="48.59511" lon="1.96677">
        <ele>145.78</ele>
        <time>2020-08-27T09:18:27Z</time>
      </trkpt>
      <trkpt lat="48.5951" lon="1.96676">
        <ele>145.78</ele>
        <time>2020-08-27T09:18:28Z</time>
      </trkpt>
      <trkpt lat="48.59509" lon="1.96674">
        <ele>145.78</ele>
        <time>2020-08-27T09:18:29Z</time>
      </trkpt>
      <trkpt lat="48.59508" lon="1.96672">
        <ele>145.3</ele>
        <time>2020-08-27T09:18:30Z</time>
      </trkpt>
      <trkpt lat="48.59507" lon="1.96671">
        <ele>146.26</ele>
        <time>2020-08-27T09:18:31Z</time>
      </trkpt>
      <trkpt lat="48.59506" lon="1.9667">
        <ele>146.26</ele>
        <time>2020-08-27T09:18:32Z</time>
      </trkpt>
      <trkpt lat="48.59505" lon="1.96668">
        <ele>146.26</ele>
        <time>2020-08-27T09:18:33Z</time>
      </trkpt>
      <trkpt lat="48.59504" lon="1.96668">
        <ele>146.26</ele>
        <time>2020-08-27T09:18:34Z</time>
      </trkpt>
      <trkpt lat="48.59503" lon="1.96667">
        <ele>145.78</ele>
        <time>2020-08-27T09:18:35Z</time>
      </trkpt>
      <trkpt lat="48.59503" lon="1.96667">
        <ele>146.74</ele>
        <time>2020-08-27T09:18:36Z</time>
      </trkpt>
      <trkpt lat="48.59502" lon="1.96666">
        <ele>146.74</ele>
        <time>2020-08-27T09:18:37Z</time>
      </trkpt>
      <trkpt lat="48.59501" lon="1.96664">
        <ele>146.74</ele>
        <time>2020-08-27T09:18:38Z</time>
      </trkpt>
      <trkpt lat="48.595" lon="1.96663">
        <ele>146.74</ele>
        <time>2020-08-27T09:18:39Z</time>
      </trkpt>
      <trkpt lat="48.59499" lon="1.96663">
        <ele>146.74</ele>
        <time>2020-08-27T09:18:40Z</time>
      </trkpt>
      <trkpt lat="48.59498" lon="1.96662">
        <ele>146.74</ele>
        <time>2020-08-27T09:18:41Z</time>
      </trkpt>
      <trkpt lat="48.59497" lon="1.96662">
        <ele>147.22</ele>
        <time>2020-08-27T09:18:42Z</time>
      </trkpt>
      <trkpt lat="48.59496" lon="1.96661">
        <ele>146.74</ele>
        <time>2020-08-27T09:18:43Z</time>
      </trkpt>
      <trkpt lat="48.59495" lon="1.9666">
        <ele>146.74</ele>
        <time>2020-08-27T09:18:44Z</time>
      </trkpt>
      <trkpt lat="48.59494" lon="1.9666">
        <ele>146.74</ele>
        <time>2020-08-27T09:18:45Z</time>
      </trkpt>
      <trkpt lat="48.59493" lon="1.96659">
        <ele>146.74</ele>
        <time>2020-08-27T09:18:46Z</time>
      </trkpt>
      <trkpt lat="48.59492" lon="1.96659">
        <ele>146.74</ele>
        <time>2020-08-27T09:18:47Z</time>
      </trkpt>
      <trkpt lat="48.59491" lon="1.96658">
        <ele>146.74</ele>
        <time>2020-08-27T09:18:48Z</time>
      </trkpt>
      <trkpt lat="48.59489" lon="1.96656">
        <ele>146.26</ele>
        <time>2020-08-27T09:18:49Z</time>
      </trkpt>
      <trkpt lat="48.59488" lon="1.96655">
        <ele>146.26</ele>
        <time>2020-08-27T09:18:50Z</time>
      </trkpt>
      <trkpt lat="48.59486" lon="1.96654">
        <ele>146.26</ele>
        <time>2020-08-27T09:18:51Z</time>
      </trkpt>
      <trkpt lat="48.59485" lon="1.96653">
        <ele>145.3</ele>
        <time>2020-08-27T09:18:52Z</time>
      </trkpt>
      <trkpt lat="48.59484" lon="1.96653">
        <ele>145.78</ele>
        <time>2020-08-27T09:18:53Z</time>
      </trkpt>
      <trkpt lat="48.59483" lon="1.96652">
        <ele>146.26</ele>
        <time>2020-08-27T09:18:54Z</time>
      </trkpt>
      <trkpt lat="48.59482" lon="1.96651">
        <ele>145.78</ele>
        <time>2020-08-27T09:18:55Z</time>
      </trkpt>
      <trkpt lat="48.59481" lon="1.9665">
        <ele>145.78</ele>
        <time>2020-08-27T09:18:56Z</time>
      </trkpt>
      <trkpt lat="48.5948" lon="1.9665">
        <ele>145.78</ele>
        <time>2020-08-27T09:18:57Z</time>
      </trkpt>
      <trkpt lat="48.59479" lon="1.96649">
        <ele>145.78</ele>
        <time>2020-08-27T09:18:58Z</time>
      </trkpt>
      <trkpt lat="48.59477" lon="1.96648">
        <ele>145.3</ele>
        <time>2020-08-27T09:18:59Z</time>
      </trkpt>
      <trkpt lat="48.59476" lon="1.96647">
        <ele>145.3</ele>
        <time>2020-08-27T09:19:00Z</time>
      </trkpt>
      <trkpt lat="48.59475" lon="1.96646">
        <ele>145.3</ele>
        <time>2020-08-27T09:19:01Z</time>
      </trkpt>
      <trkpt lat="48.59474" lon="1.96646">
        <ele>144.82</ele>
        <time>2020-08-27T09:19:02Z</time>
      </trkpt>
      <trkpt lat="48.59473" lon="1.96646">
        <ele>145.3</ele>
        <time>2020-08-27T09:19:03Z</time>
      </trkpt>
      <trkpt lat="48.59473" lon="1.96646">
        <ele>145.3</ele>
        <time>2020-08-27T09:19:04Z</time>
      </trkpt>
      <trkpt lat="48.59472" lon="1.96645">
        <ele>144.82</ele>
        <time>2020-08-27T09:19:05Z</time>
      </trkpt>
      <trkpt lat="48.59471" lon="1.96645">
        <ele>144.82</ele>
        <time>2020-08-27T09:19:06Z</time>
      </trkpt>
      <trkpt lat="48.59469" lon="1.96644">
        <ele>143.85</ele>
        <time>2020-08-27T09:19:07Z</time>
      </trkpt>
      <trkpt lat="48.59468" lon="1.96643">
        <ele>144.34</ele>
        <time>2020-08-27T09:19:08Z</time>
      </trkpt>
      <trkpt lat="48.59467" lon="1.96642">
        <ele>143.85</ele>
        <time>2020-08-27T09:19:09Z</time>
      </trkpt>
      <trkpt lat="48.59465" lon="1.96642">
        <ele>143.85</ele>
        <time>2020-08-27T09:19:10Z</time>
      </trkpt>
      <trkpt lat="48.59464" lon="1.96641">
        <ele>143.85</ele>
        <time>2020-08-27T09:19:11Z</time>
      </trkpt>
      <trkpt lat="48.59463" lon="1.96641">
        <ele>143.85</ele>
        <time>2020-08-27T09:19:12Z</time>
      </trkpt>
      <trkpt lat="48.59462" lon="1.9664">
        <ele>143.37</ele>
        <time>2020-08-27T09:19:13Z</time>
      </trkpt>
      <trkpt lat="48.5946" lon="1.96639">
        <ele>143.37</ele>
        <time>2020-08-27T09:19:14Z</time>
      </trkpt>
      <trkpt lat="48.59459" lon="1.96637">
        <ele>143.37</ele>
        <time>2020-08-27T09:19:15Z</time>
      </trkpt>
      <trkpt lat="48.59458" lon="1.96637">
        <ele>143.37</ele>
        <time>2020-08-27T09:19:16Z</time>
      </trkpt>
      <trkpt lat="48.59456" lon="1.96636">
        <ele>142.89</ele>
        <time>2020-08-27T09:19:17Z</time>
      </trkpt>
      <trkpt lat="48.59455" lon="1.96635">
        <ele>142.89</ele>
        <time>2020-08-27T09:19:18Z</time>
      </trkpt>
      <trkpt lat="48.59454" lon="1.96634">
        <ele>143.37</ele>
        <time>2020-08-27T09:19:19Z</time>
      </trkpt>
      <trkpt lat="48.59453" lon="1.96632">
        <ele>143.37</ele>
        <time>2020-08-27T09:19:20Z</time>
      </trkpt>
      <trkpt lat="48.59452" lon="1.96631">
        <ele>142.89</ele>
        <time>2020-08-27T09:19:21Z</time>
      </trkpt>
      <trkpt lat="48.59451" lon="1.96631">
        <ele>142.89</ele>
        <time>2020-08-27T09:19:22Z</time>
      </trkpt>
      <trkpt lat="48.59449" lon="1.9663">
        <ele>142.89</ele>
        <time>2020-08-27T09:19:23Z</time>
      </trkpt>
      <trkpt lat="48.59448" lon="1.96629">
        <ele>142.89</ele>
        <time>2020-08-27T09:19:24Z</time>
      </trkpt>
      <trkpt lat="48.59447" lon="1.96629">
        <ele>142.89</ele>
        <time>2020-08-27T09:19:25Z</time>
      </trkpt>
      <trkpt lat="48.59446" lon="1.96628">
        <ele>142.89</ele>
        <time>2020-08-27T09:19:26Z</time>
      </trkpt>
      <trkpt lat="48.59445" lon="1.96626">
        <ele>142.89</ele>
        <time>2020-08-27T09:19:27Z</time>
      </trkpt>
      <trkpt lat="48.59444" lon="1.96625">
        <ele>142.41</ele>
        <time>2020-08-27T09:19:28Z</time>
      </trkpt>
      <trkpt lat="48.59443" lon="1.96623">
        <ele>142.41</ele>
        <time>2020-08-27T09:19:29Z</time>
      </trkpt>
      <trkpt lat="48.59442" lon="1.96621">
        <ele>141.93</ele>
        <time>2020-08-27T09:19:30Z</time>
      </trkpt>
      <trkpt lat="48.59441" lon="1.96619">
        <ele>142.41</ele>
        <time>2020-08-27T09:19:31Z</time>
      </trkpt>
      <trkpt lat="48.5944" lon="1.96618">
        <ele>142.41</ele>
        <time>2020-08-27T09:19:32Z</time>
      </trkpt>
      <trkpt lat="48.59439" lon="1.96619">
        <ele>142.41</ele>
        <time>2020-08-27T09:19:33Z</time>
      </trkpt>
      <trkpt lat="48.59439" lon="1.9662">
        <ele>141.93</ele>
        <time>2020-08-27T09:19:34Z</time>
      </trkpt>
      <trkpt lat="48.59439" lon="1.96622">
        <ele>142.41</ele>
        <time>2020-08-27T09:19:35Z</time>
      </trkpt>
      <trkpt lat="48.59439" lon="1.96623">
        <ele>142.41</ele>
        <time>2020-08-27T09:19:36Z</time>
      </trkpt>
      <trkpt lat="48.59439" lon="1.96623">
        <ele>141.93</ele>
        <time>2020-08-27T09:19:38Z</time>
      </trkpt>
      <trkpt lat="48.59439" lon="1.96622">
        <ele>142.41</ele>
        <time>2020-08-27T09:19:39Z</time>
      </trkpt>
      <trkpt lat="48.59438" lon="1.96622">
        <ele>142.89</ele>
        <time>2020-08-27T09:19:40Z</time>
      </trkpt>
      <trkpt lat="48.59438" lon="1.96621">
        <ele>142.41</ele>
        <time>2020-08-27T09:19:41Z</time>
      </trkpt>
      <trkpt lat="48.59437" lon="1.96621">
        <ele>142.41</ele>
        <time>2020-08-27T09:19:42Z</time>
      </trkpt>
      <trkpt lat="48.59437" lon="1.96621">
        <ele>141.93</ele>
        <time>2020-08-27T09:19:48Z</time>
      </trkpt>
      <trkpt lat="48.59437" lon="1.96622">
        <ele>142.41</ele>
        <time>2020-08-27T09:19:49Z</time>
      </trkpt>
      <trkpt lat="48.59437" lon="1.96623">
        <ele>141.93</ele>
        <time>2020-08-27T09:19:50Z</time>
      </trkpt>
      <trkpt lat="48.59436" lon="1.96624">
        <ele>141.93</ele>
        <time>2020-08-27T09:19:51Z</time>
      </trkpt>
      <trkpt lat="48.59435" lon="1.96625">
        <ele>142.41</ele>
        <time>2020-08-27T09:19:52Z</time>
      </trkpt>
      <trkpt lat="48.59434" lon="1.96626">
        <ele>142.41</ele>
        <time>2020-08-27T09:19:53Z</time>
      </trkpt>
      <trkpt lat="48.59433" lon="1.96626">
        <ele>142.41</ele>
        <time>2020-08-27T09:19:54Z</time>
      </trkpt>
      <trkpt lat="48.59433" lon="1.96628">
        <ele>141.93</ele>
        <time>2020-08-27T09:19:55Z</time>
      </trkpt>
      <trkpt lat="48.59432" lon="1.96629">
        <ele>141.93</ele>
        <time>2020-08-27T09:19:56Z</time>
      </trkpt>
      <trkpt lat="48.59431" lon="1.96631">
        <ele>141.45</ele>
        <time>2020-08-27T09:19:57Z</time>
      </trkpt>
      <trkpt lat="48.59431" lon="1.96633">
        <ele>141.45</ele>
        <time>2020-08-27T09:19:58Z</time>
      </trkpt>
      <trkpt lat="48.5943" lon="1.96634">
        <ele>141.45</ele>
        <time>2020-08-27T09:19:59Z</time>
      </trkpt>
      <trkpt lat="48.59429" lon="1.96636">
        <ele>141.45</ele>
        <time>2020-08-27T09:20:00Z</time>
      </trkpt>
      <trkpt lat="48.59428" lon="1.96639">
        <ele>141.93</ele>
        <time>2020-08-27T09:20:01Z</time>
      </trkpt>
      <trkpt lat="48.59427" lon="1.96641">
        <ele>141.45</ele>
        <time>2020-08-27T09:20:02Z</time>
      </trkpt>
      <trkpt lat="48.59426" lon="1.96643">
        <ele>141.45</ele>
        <time>2020-08-27T09:20:03Z</time>
      </trkpt>
      <trkpt lat="48.59426" lon="1.96644">
        <ele>141.45</ele>
        <time>2020-08-27T09:20:04Z</time>
      </trkpt>
      <trkpt lat="48.59425" lon="1.96646">
        <ele>141.45</ele>
        <time>2020-08-27T09:20:05Z</time>
      </trkpt>
      <trkpt lat="48.59424" lon="1.96647">
        <ele>140.97</ele>
        <time>2020-08-27T09:20:06Z</time>
      </trkpt>
      <trkpt lat="48.59423" lon="1.96648">
        <ele>140.97</ele>
        <time>2020-08-27T09:20:07Z</time>
      </trkpt>
      <trkpt lat="48.59422" lon="1.9665">
        <ele>141.45</ele>
        <time>2020-08-27T09:20:08Z</time>
      </trkpt>
      <trkpt lat="48.59421" lon="1.96652">
        <ele>141.93</ele>
        <time>2020-08-27T09:20:09Z</time>
      </trkpt>
      <trkpt lat="48.59421" lon="1.96654">
        <ele>140.97</ele>
        <time>2020-08-27T09:20:10Z</time>
      </trkpt>
      <trkpt lat="48.5942" lon="1.96656">
        <ele>141.45</ele>
        <time>2020-08-27T09:20:11Z</time>
      </trkpt>
      <trkpt lat="48.59419" lon="1.96658">
        <ele>141.45</ele>
        <time>2020-08-27T09:20:12Z</time>
      </trkpt>
      <trkpt lat="48.59418" lon="1.96659">
        <ele>141.45</ele>
        <time>2020-08-27T09:20:13Z</time>
      </trkpt>
      <trkpt lat="48.59417" lon="1.96661">
        <ele>140.97</ele>
        <time>2020-08-27T09:20:14Z</time>
      </trkpt>
      <trkpt lat="48.59417" lon="1.96663">
        <ele>141.45</ele>
        <time>2020-08-27T09:20:15Z</time>
      </trkpt>
      <trkpt lat="48.59416" lon="1.96664">
        <ele>141.93</ele>
        <time>2020-08-27T09:20:16Z</time>
      </trkpt>
      <trkpt lat="48.59415" lon="1.96666">
        <ele>142.41</ele>
        <time>2020-08-27T09:20:17Z</time>
      </trkpt>
      <trkpt lat="48.59414" lon="1.96667">
        <ele>141.93</ele>
        <time>2020-08-27T09:20:18Z</time>
      </trkpt>
      <trkpt lat="48.59413" lon="1.96669">
        <ele>141.45</ele>
        <time>2020-08-27T09:20:19Z</time>
      </trkpt>
      <trkpt lat="48.59412" lon="1.96671">
        <ele>141.45</ele>
        <time>2020-08-27T09:20:20Z</time>
      </trkpt>
      <trkpt lat="48.59411" lon="1.96673">
        <ele>141.93</ele>
        <time>2020-08-27T09:20:21Z</time>
      </trkpt>
      <trkpt lat="48.5941" lon="1.96675">
        <ele>141.45</ele>
        <time>2020-08-27T09:20:22Z</time>
      </trkpt>
      <trkpt lat="48.5941" lon="1.96677">
        <ele>141.93</ele>
        <time>2020-08-27T09:20:23Z</time>
      </trkpt>
      <trkpt lat="48.59409" lon="1.96679">
        <ele>141.93</ele>
        <time>2020-08-27T09:20:24Z</time>
      </trkpt>
      <trkpt lat="48.59408" lon="1.9668">
        <ele>142.41</ele>
        <time>2020-08-27T09:20:25Z</time>
      </trkpt>
      <trkpt lat="48.59407" lon="1.96682">
        <ele>141.93</ele>
        <time>2020-08-27T09:20:26Z</time>
      </trkpt>
      <trkpt lat="48.59405" lon="1.96684">
        <ele>141.93</ele>
        <time>2020-08-27T09:20:27Z</time>
      </trkpt>
      <trkpt lat="48.59404" lon="1.96686">
        <ele>141.45</ele>
        <time>2020-08-27T09:20:28Z</time>
      </trkpt>
      <trkpt lat="48.59403" lon="1.96687">
        <ele>141.45</ele>
        <time>2020-08-27T09:20:29Z</time>
      </trkpt>
      <trkpt lat="48.59403" lon="1.96689">
        <ele>141.45</ele>
        <time>2020-08-27T09:20:30Z</time>
      </trkpt>
      <trkpt lat="48.59402" lon="1.96691">
        <ele>141.45</ele>
        <time>2020-08-27T09:20:31Z</time>
      </trkpt>
      <trkpt lat="48.59402" lon="1.96692">
        <ele>140.97</ele>
        <time>2020-08-27T09:20:32Z</time>
      </trkpt>
      <trkpt lat="48.59401" lon="1.96694">
        <ele>141.93</ele>
        <time>2020-08-27T09:20:33Z</time>
      </trkpt>
      <trkpt lat="48.594" lon="1.96696">
        <ele>141.93</ele>
        <time>2020-08-27T09:20:34Z</time>
      </trkpt>
      <trkpt lat="48.59399" lon="1.96697">
        <ele>141.45</ele>
        <time>2020-08-27T09:20:35Z</time>
      </trkpt>
      <trkpt lat="48.59398" lon="1.96699">
        <ele>141.45</ele>
        <time>2020-08-27T09:20:36Z</time>
      </trkpt>
      <trkpt lat="48.59397" lon="1.96701">
        <ele>140.97</ele>
        <time>2020-08-27T09:20:37Z</time>
      </trkpt>
      <trkpt lat="48.59396" lon="1.96703">
        <ele>141.45</ele>
        <time>2020-08-27T09:20:38Z</time>
      </trkpt>
      <trkpt lat="48.59396" lon="1.96704">
        <ele>141.45</ele>
        <time>2020-08-27T09:20:39Z</time>
      </trkpt>
      <trkpt lat="48.59395" lon="1.96706">
        <ele>140.97</ele>
        <time>2020-08-27T09:20:40Z</time>
      </trkpt>
      <trkpt lat="48.59394" lon="1.96708">
        <ele>140.97</ele>
        <time>2020-08-27T09:20:41Z</time>
      </trkpt>
      <trkpt lat="48.59394" lon="1.9671">
        <ele>141.45</ele>
        <time>2020-08-27T09:20:42Z</time>
      </trkpt>
      <trkpt lat="48.59393" lon="1.96712">
        <ele>142.41</ele>
        <time>2020-08-27T09:20:43Z</time>
      </trkpt>
      <trkpt lat="48.59392" lon="1.96713">
        <ele>141.93</ele>
        <time>2020-08-27T09:20:44Z</time>
      </trkpt>
      <trkpt lat="48.59391" lon="1.96714">
        <ele>141.45</ele>
        <time>2020-08-27T09:20:45Z</time>
      </trkpt>
      <trkpt lat="48.5939" lon="1.96716">
        <ele>141.93</ele>
        <time>2020-08-27T09:20:46Z</time>
      </trkpt>
      <trkpt lat="48.5939" lon="1.96717">
        <ele>141.93</ele>
        <time>2020-08-27T09:20:47Z</time>
      </trkpt>
      <trkpt lat="48.59389" lon="1.96719">
        <ele>141.93</ele>
        <time>2020-08-27T09:20:48Z</time>
      </trkpt>
      <trkpt lat="48.59388" lon="1.96721">
        <ele>141.45</ele>
        <time>2020-08-27T09:20:49Z</time>
      </trkpt>
      <trkpt lat="48.59387" lon="1.96723">
        <ele>142.41</ele>
        <time>2020-08-27T09:20:50Z</time>
      </trkpt>
      <trkpt lat="48.59387" lon="1.96725">
        <ele>142.41</ele>
        <time>2020-08-27T09:20:51Z</time>
      </trkpt>
      <trkpt lat="48.59386" lon="1.96726">
        <ele>142.41</ele>
        <time>2020-08-27T09:20:52Z</time>
      </trkpt>
      <trkpt lat="48.59385" lon="1.96728">
        <ele>141.93</ele>
        <time>2020-08-27T09:20:53Z</time>
      </trkpt>
      <trkpt lat="48.59385" lon="1.96729">
        <ele>142.41</ele>
        <time>2020-08-27T09:20:54Z</time>
      </trkpt>
      <trkpt lat="48.59384" lon="1.9673">
        <ele>141.93</ele>
        <time>2020-08-27T09:20:55Z</time>
      </trkpt>
      <trkpt lat="48.59383" lon="1.96732">
        <ele>142.41</ele>
        <time>2020-08-27T09:20:56Z</time>
      </trkpt>
      <trkpt lat="48.59382" lon="1.96733">
        <ele>142.41</ele>
        <time>2020-08-27T09:20:57Z</time>
      </trkpt>
      <trkpt lat="48.59381" lon="1.96735">
        <ele>142.89</ele>
        <time>2020-08-27T09:20:58Z</time>
      </trkpt>
      <trkpt lat="48.59381" lon="1.96737">
        <ele>142.41</ele>
        <time>2020-08-27T09:20:59Z</time>
      </trkpt>
      <trkpt lat="48.5938" lon="1.96738">
        <ele>142.41</ele>
        <time>2020-08-27T09:21:00Z</time>
      </trkpt>
      <trkpt lat="48.59379" lon="1.9674">
        <ele>142.41</ele>
        <time>2020-08-27T09:21:01Z</time>
      </trkpt>
      <trkpt lat="48.59379" lon="1.96741">
        <ele>142.89</ele>
        <time>2020-08-27T09:21:02Z</time>
      </trkpt>
      <trkpt lat="48.59378" lon="1.96742">
        <ele>142.89</ele>
        <time>2020-08-27T09:21:03Z</time>
      </trkpt>
      <trkpt lat="48.59377" lon="1.96744">
        <ele>142.89</ele>
        <time>2020-08-27T09:21:04Z</time>
      </trkpt>
      <trkpt lat="48.59377" lon="1.96745">
        <ele>142.89</ele>
        <time>2020-08-27T09:21:05Z</time>
      </trkpt>
      <trkpt lat="48.59376" lon="1.96747">
        <ele>142.89</ele>
        <time>2020-08-27T09:21:06Z</time>
      </trkpt>
      <trkpt lat="48.59375" lon="1.96749">
        <ele>142.41</ele>
        <time>2020-08-27T09:21:07Z</time>
      </trkpt>
      <trkpt lat="48.59374" lon="1.9675">
        <ele>142.41</ele>
        <time>2020-08-27T09:21:08Z</time>
      </trkpt>
      <trkpt lat="48.59373" lon="1.96752">
        <ele>142.89</ele>
        <time>2020-08-27T09:21:09Z</time>
      </trkpt>
      <trkpt lat="48.59373" lon="1.96753">
        <ele>142.89</ele>
        <time>2020-08-27T09:21:10Z</time>
      </trkpt>
      <trkpt lat="48.59372" lon="1.96755">
        <ele>142.89</ele>
        <time>2020-08-27T09:21:11Z</time>
      </trkpt>
      <trkpt lat="48.59371" lon="1.96757">
        <ele>142.89</ele>
        <time>2020-08-27T09:21:12Z</time>
      </trkpt>
      <trkpt lat="48.5937" lon="1.96759">
        <ele>142.89</ele>
        <time>2020-08-27T09:21:13Z</time>
      </trkpt>
      <trkpt lat="48.59369" lon="1.96761">
        <ele>142.89</ele>
        <time>2020-08-27T09:21:14Z</time>
      </trkpt>
      <trkpt lat="48.59368" lon="1.96763">
        <ele>143.37</ele>
        <time>2020-08-27T09:21:15Z</time>
      </trkpt>
      <trkpt lat="48.59367" lon="1.96765">
        <ele>143.37</ele>
        <time>2020-08-27T09:21:16Z</time>
      </trkpt>
      <trkpt lat="48.59366" lon="1.96767">
        <ele>142.89</ele>
        <time>2020-08-27T09:21:17Z</time>
      </trkpt>
      <trkpt lat="48.59366" lon="1.96769">
        <ele>143.37</ele>
        <time>2020-08-27T09:21:18Z</time>
      </trkpt>
      <trkpt lat="48.59365" lon="1.9677">
        <ele>143.37</ele>
        <time>2020-08-27T09:21:19Z</time>
      </trkpt>
      <trkpt lat="48.59365" lon="1.96772">
        <ele>142.89</ele>
        <time>2020-08-27T09:21:20Z</time>
      </trkpt>
      <trkpt lat="48.59364" lon="1.96773">
        <ele>142.89</ele>
        <time>2020-08-27T09:21:21Z</time>
      </trkpt>
      <trkpt lat="48.59363" lon="1.96775">
        <ele>143.37</ele>
        <time>2020-08-27T09:21:22Z</time>
      </trkpt>
      <trkpt lat="48.59363" lon="1.96776">
        <ele>143.85</ele>
        <time>2020-08-27T09:21:23Z</time>
      </trkpt>
      <trkpt lat="48.59362" lon="1.96778">
        <ele>143.37</ele>
        <time>2020-08-27T09:21:24Z</time>
      </trkpt>
      <trkpt lat="48.59361" lon="1.9678">
        <ele>142.89</ele>
        <time>2020-08-27T09:21:25Z</time>
      </trkpt>
      <trkpt lat="48.59361" lon="1.9678">
        <ele>142.89</ele>
        <time>2020-08-27T09:21:26Z</time>
      </trkpt>
      <trkpt lat="48.5936" lon="1.96781">
        <ele>143.37</ele>
        <time>2020-08-27T09:21:27Z</time>
      </trkpt>
      <trkpt lat="48.59359" lon="1.96782">
        <ele>143.85</ele>
        <time>2020-08-27T09:21:28Z</time>
      </trkpt>
      <trkpt lat="48.59358" lon="1.96783">
        <ele>143.37</ele>
        <time>2020-08-27T09:21:29Z</time>
      </trkpt>
      <trkpt lat="48.59358" lon="1.96784">
        <ele>143.37</ele>
        <time>2020-08-27T09:21:30Z</time>
      </trkpt>
      <trkpt lat="48.59357" lon="1.96786">
        <ele>142.89</ele>
        <time>2020-08-27T09:21:31Z</time>
      </trkpt>
      <trkpt lat="48.59356" lon="1.96788">
        <ele>143.37</ele>
        <time>2020-08-27T09:21:32Z</time>
      </trkpt>
      <trkpt lat="48.59355" lon="1.96789">
        <ele>142.89</ele>
        <time>2020-08-27T09:21:33Z</time>
      </trkpt>
      <trkpt lat="48.59354" lon="1.96791">
        <ele>142.89</ele>
        <time>2020-08-27T09:21:34Z</time>
      </trkpt>
      <trkpt lat="48.59354" lon="1.96793">
        <ele>142.89</ele>
        <time>2020-08-27T09:21:35Z</time>
      </trkpt>
      <trkpt lat="48.59353" lon="1.96796">
        <ele>142.41</ele>
        <time>2020-08-27T09:21:36Z</time>
      </trkpt>
      <trkpt lat="48.59352" lon="1.96798">
        <ele>142.89</ele>
        <time>2020-08-27T09:21:37Z</time>
      </trkpt>
      <trkpt lat="48.59351" lon="1.968">
        <ele>142.41</ele>
        <time>2020-08-27T09:21:38Z</time>
      </trkpt>
      <trkpt lat="48.59351" lon="1.96801">
        <ele>142.41</ele>
        <time>2020-08-27T09:21:39Z</time>
      </trkpt>
      <trkpt lat="48.5935" lon="1.96802">
        <ele>142.41</ele>
        <time>2020-08-27T09:21:40Z</time>
      </trkpt>
      <trkpt lat="48.5935" lon="1.96802">
        <ele>142.89</ele>
        <time>2020-08-27T09:21:41Z</time>
      </trkpt>
      <trkpt lat="48.59349" lon="1.96804">
        <ele>142.41</ele>
        <time>2020-08-27T09:21:42Z</time>
      </trkpt>
      <trkpt lat="48.59349" lon="1.96805">
        <ele>141.93</ele>
        <time>2020-08-27T09:21:43Z</time>
      </trkpt>
      <trkpt lat="48.59348" lon="1.96806">
        <ele>141.93</ele>
        <time>2020-08-27T09:21:44Z</time>
      </trkpt>
      <trkpt lat="48.59347" lon="1.96807">
        <ele>141.45</ele>
        <time>2020-08-27T09:21:45Z</time>
      </trkpt>
      <trkpt lat="48.59347" lon="1.96808">
        <ele>141.45</ele>
        <time>2020-08-27T09:21:46Z</time>
      </trkpt>
      <trkpt lat="48.59346" lon="1.9681">
        <ele>140.97</ele>
        <time>2020-08-27T09:21:47Z</time>
      </trkpt>
      <trkpt lat="48.59345" lon="1.96812">
        <ele>140.97</ele>
        <time>2020-08-27T09:21:48Z</time>
      </trkpt>
      <trkpt lat="48.59345" lon="1.96814">
        <ele>140.97</ele>
        <time>2020-08-27T09:21:49Z</time>
      </trkpt>
      <trkpt lat="48.59344" lon="1.96816">
        <ele>140.49</ele>
        <time>2020-08-27T09:21:50Z</time>
      </trkpt>
      <trkpt lat="48.59343" lon="1.96818">
        <ele>140.49</ele>
        <time>2020-08-27T09:21:51Z</time>
      </trkpt>
      <trkpt lat="48.59342" lon="1.9682">
        <ele>140.01</ele>
        <time>2020-08-27T09:21:52Z</time>
      </trkpt>
      <trkpt lat="48.59341" lon="1.96822">
        <ele>140.01</ele>
        <time>2020-08-27T09:21:53Z</time>
      </trkpt>
      <trkpt lat="48.59341" lon="1.96824">
        <ele>140.01</ele>
        <time>2020-08-27T09:21:54Z</time>
      </trkpt>
      <trkpt lat="48.5934" lon="1.96825">
        <ele>139.53</ele>
        <time>2020-08-27T09:21:55Z</time>
      </trkpt>
      <trkpt lat="48.59339" lon="1.96826">
        <ele>139.53</ele>
        <time>2020-08-27T09:21:56Z</time>
      </trkpt>
      <trkpt lat="48.59339" lon="1.96827">
        <ele>139.53</ele>
        <time>2020-08-27T09:21:57Z</time>
      </trkpt>
      <trkpt lat="48.59338" lon="1.96828">
        <ele>138.57</ele>
        <time>2020-08-27T09:21:58Z</time>
      </trkpt>
      <trkpt lat="48.59337" lon="1.9683">
        <ele>139.05</ele>
        <time>2020-08-27T09:21:59Z</time>
      </trkpt>
      <trkpt lat="48.59336" lon="1.96831">
        <ele>139.05</ele>
        <time>2020-08-27T09:22:00Z</time>
      </trkpt>
      <trkpt lat="48.59336" lon="1.96832">
        <ele>138.57</ele>
        <time>2020-08-27T09:22:01Z</time>
      </trkpt>
      <trkpt lat="48.59335" lon="1.96833">
        <ele>138.57</ele>
        <time>2020-08-27T09:22:02Z</time>
      </trkpt>
      <trkpt lat="48.59335" lon="1.96834">
        <ele>138.09</ele>
        <time>2020-08-27T09:22:03Z</time>
      </trkpt>
      <trkpt lat="48.59334" lon="1.96835">
        <ele>138.09</ele>
        <time>2020-08-27T09:22:04Z</time>
      </trkpt>
      <trkpt lat="48.59333" lon="1.96837">
        <ele>138.57</ele>
        <time>2020-08-27T09:22:05Z</time>
      </trkpt>
      <trkpt lat="48.59333" lon="1.96838">
        <ele>138.09</ele>
        <time>2020-08-27T09:22:06Z</time>
      </trkpt>
      <trkpt lat="48.59332" lon="1.9684">
        <ele>138.09</ele>
        <time>2020-08-27T09:22:07Z</time>
      </trkpt>
      <trkpt lat="48.59331" lon="1.96841">
        <ele>138.09</ele>
        <time>2020-08-27T09:22:08Z</time>
      </trkpt>
      <trkpt lat="48.59331" lon="1.96842">
        <ele>137.61</ele>
        <time>2020-08-27T09:22:09Z</time>
      </trkpt>
      <trkpt lat="48.5933" lon="1.96843">
        <ele>137.61</ele>
        <time>2020-08-27T09:22:10Z</time>
      </trkpt>
      <trkpt lat="48.59329" lon="1.96845">
        <ele>138.09</ele>
        <time>2020-08-27T09:22:11Z</time>
      </trkpt>
      <trkpt lat="48.59329" lon="1.96846">
        <ele>138.09</ele>
        <time>2020-08-27T09:22:12Z</time>
      </trkpt>
      <trkpt lat="48.59328" lon="1.96848">
        <ele>137.61</ele>
        <time>2020-08-27T09:22:13Z</time>
      </trkpt>
      <trkpt lat="48.59328" lon="1.9685">
        <ele>137.61</ele>
        <time>2020-08-27T09:22:14Z</time>
      </trkpt>
      <trkpt lat="48.59327" lon="1.96852">
        <ele>137.13</ele>
        <time>2020-08-27T09:22:15Z</time>
      </trkpt>
      <trkpt lat="48.59326" lon="1.96853">
        <ele>136.64</ele>
        <time>2020-08-27T09:22:16Z</time>
      </trkpt>
      <trkpt lat="48.59326" lon="1.96854">
        <ele>137.13</ele>
        <time>2020-08-27T09:22:17Z</time>
      </trkpt>
      <trkpt lat="48.59325" lon="1.96855">
        <ele>137.13</ele>
        <time>2020-08-27T09:22:18Z</time>
      </trkpt>
      <trkpt lat="48.59324" lon="1.96855">
        <ele>136.64</ele>
        <time>2020-08-27T09:22:19Z</time>
      </trkpt>
      <trkpt lat="48.59323" lon="1.96856">
        <ele>136.64</ele>
        <time>2020-08-27T09:22:20Z</time>
      </trkpt>
      <trkpt lat="48.59322" lon="1.96857">
        <ele>136.64</ele>
        <time>2020-08-27T09:22:21Z</time>
      </trkpt>
      <trkpt lat="48.59321" lon="1.96859">
        <ele>136.16</ele>
        <time>2020-08-27T09:22:22Z</time>
      </trkpt>
      <trkpt lat="48.59321" lon="1.96861">
        <ele>136.16</ele>
        <time>2020-08-27T09:22:23Z</time>
      </trkpt>
      <trkpt lat="48.59321" lon="1.96863">
        <ele>136.16</ele>
        <time>2020-08-27T09:22:24Z</time>
      </trkpt>
      <trkpt lat="48.5932" lon="1.96865">
        <ele>135.68</ele>
        <time>2020-08-27T09:22:25Z</time>
      </trkpt>
      <trkpt lat="48.5932" lon="1.96866">
        <ele>135.68</ele>
        <time>2020-08-27T09:22:26Z</time>
      </trkpt>
      <trkpt lat="48.59319" lon="1.96868">
        <ele>135.2</ele>
        <time>2020-08-27T09:22:27Z</time>
      </trkpt>
      <trkpt lat="48.59318" lon="1.96869">
        <ele>135.2</ele>
        <time>2020-08-27T09:22:28Z</time>
      </trkpt>
      <trkpt lat="48.59318" lon="1.96871">
        <ele>135.2</ele>
        <time>2020-08-27T09:22:29Z</time>
      </trkpt>
      <trkpt lat="48.59317" lon="1.96873">
        <ele>134.72</ele>
        <time>2020-08-27T09:22:30Z</time>
      </trkpt>
      <trkpt lat="48.59316" lon="1.96874">
        <ele>134.72</ele>
        <time>2020-08-27T09:22:31Z</time>
      </trkpt>
      <trkpt lat="48.59315" lon="1.96876">
        <ele>134.24</ele>
        <time>2020-08-27T09:22:32Z</time>
      </trkpt>
      <trkpt lat="48.59315" lon="1.96877">
        <ele>133.76</ele>
        <time>2020-08-27T09:22:33Z</time>
      </trkpt>
      <trkpt lat="48.59314" lon="1.96878">
        <ele>133.76</ele>
        <time>2020-08-27T09:22:34Z</time>
      </trkpt>
      <trkpt lat="48.59313" lon="1.96879">
        <ele>133.28</ele>
        <time>2020-08-27T09:22:35Z</time>
      </trkpt>
      <trkpt lat="48.59313" lon="1.96881">
        <ele>133.28</ele>
        <time>2020-08-27T09:22:36Z</time>
      </trkpt>
      <trkpt lat="48.59312" lon="1.96882">
        <ele>132.8</ele>
        <time>2020-08-27T09:22:37Z</time>
      </trkpt>
      <trkpt lat="48.59312" lon="1.96882">
        <ele>132.8</ele>
        <time>2020-08-27T09:22:38Z</time>
      </trkpt>
      <trkpt lat="48.59311" lon="1.96883">
        <ele>132.8</ele>
        <time>2020-08-27T09:22:39Z</time>
      </trkpt>
      <trkpt lat="48.5931" lon="1.96885">
        <ele>132.32</ele>
        <time>2020-08-27T09:22:40Z</time>
      </trkpt>
      <trkpt lat="48.5931" lon="1.96886">
        <ele>132.32</ele>
        <time>2020-08-27T09:22:41Z</time>
      </trkpt>
      <trkpt lat="48.59309" lon="1.96888">
        <ele>132.32</ele>
        <time>2020-08-27T09:22:42Z</time>
      </trkpt>
      <trkpt lat="48.59308" lon="1.96889">
        <ele>131.84</ele>
        <time>2020-08-27T09:22:43Z</time>
      </trkpt>
      <trkpt lat="48.59307" lon="1.96891">
        <ele>131.84</ele>
        <time>2020-08-27T09:22:44Z</time>
      </trkpt>
      <trkpt lat="48.59306" lon="1.96893">
        <ele>131.36</ele>
        <time>2020-08-27T09:22:45Z</time>
      </trkpt>
      <trkpt lat="48.59305" lon="1.96895">
        <ele>131.36</ele>
        <time>2020-08-27T09:22:46Z</time>
      </trkpt>
      <trkpt lat="48.59304" lon="1.96897">
        <ele>130.88</ele>
        <time>2020-08-27T09:22:47Z</time>
      </trkpt>
      <trkpt lat="48.59303" lon="1.96898">
        <ele>130.88</ele>
        <time>2020-08-27T09:22:48Z</time>
      </trkpt>
      <trkpt lat="48.59303" lon="1.969">
        <ele>130.88</ele>
        <time>2020-08-27T09:22:49Z</time>
      </trkpt>
      <trkpt lat="48.59301" lon="1.96901">
        <ele>130.4</ele>
        <time>2020-08-27T09:22:50Z</time>
      </trkpt>
      <trkpt lat="48.59301" lon="1.96903">
        <ele>130.88</ele>
        <time>2020-08-27T09:22:51Z</time>
      </trkpt>
      <trkpt lat="48.593" lon="1.96905">
        <ele>130.4</ele>
        <time>2020-08-27T09:22:52Z</time>
      </trkpt>
      <trkpt lat="48.593" lon="1.96906">
        <ele>129.92</ele>
        <time>2020-08-27T09:22:53Z</time>
      </trkpt>
      <trkpt lat="48.59299" lon="1.96907">
        <ele>129.92</ele>
        <time>2020-08-27T09:22:54Z</time>
      </trkpt>
      <trkpt lat="48.59299" lon="1.96909">
        <ele>129.92</ele>
        <time>2020-08-27T09:22:55Z</time>
      </trkpt>
      <trkpt lat="48.59298" lon="1.9691">
        <ele>129.43</ele>
        <time>2020-08-27T09:22:56Z</time>
      </trkpt>
      <trkpt lat="48.59297" lon="1.96912">
        <ele>129.92</ele>
        <time>2020-08-27T09:22:57Z</time>
      </trkpt>
      <trkpt lat="48.59297" lon="1.96914">
        <ele>129.43</ele>
        <time>2020-08-27T09:22:58Z</time>
      </trkpt>
      <trkpt lat="48.59296" lon="1.96915">
        <ele>129.43</ele>
        <time>2020-08-27T09:22:59Z</time>
      </trkpt>
      <trkpt lat="48.59295" lon="1.96917">
        <ele>129.43</ele>
        <time>2020-08-27T09:23:00Z</time>
      </trkpt>
      <trkpt lat="48.59294" lon="1.96919">
        <ele>129.43</ele>
        <time>2020-08-27T09:23:01Z</time>
      </trkpt>
      <trkpt lat="48.59293" lon="1.96922">
        <ele>129.43</ele>
        <time>2020-08-27T09:23:02Z</time>
      </trkpt>
      <trkpt lat="48.59292" lon="1.96924">
        <ele>129.43</ele>
        <time>2020-08-27T09:23:03Z</time>
      </trkpt>
      <trkpt lat="48.59291" lon="1.96926">
        <ele>128.95</ele>
        <time>2020-08-27T09:23:04Z</time>
      </trkpt>
      <trkpt lat="48.5929" lon="1.96927">
        <ele>128.95</ele>
        <time>2020-08-27T09:23:05Z</time>
      </trkpt>
      <trkpt lat="48.59289" lon="1.96929">
        <ele>128.47</ele>
        <time>2020-08-27T09:23:06Z</time>
      </trkpt>
      <trkpt lat="48.59288" lon="1.96931">
        <ele>129.43</ele>
        <time>2020-08-27T09:23:07Z</time>
      </trkpt>
      <trkpt lat="48.59288" lon="1.96933">
        <ele>128.47</ele>
        <time>2020-08-27T09:23:08Z</time>
      </trkpt>
      <trkpt lat="48.59287" lon="1.96934">
        <ele>128.47</ele>
        <time>2020-08-27T09:23:09Z</time>
      </trkpt>
      <trkpt lat="48.59286" lon="1.96936">
        <ele>127.99</ele>
        <time>2020-08-27T09:23:10Z</time>
      </trkpt>
      <trkpt lat="48.59285" lon="1.96937">
        <ele>127.99</ele>
        <time>2020-08-27T09:23:11Z</time>
      </trkpt>
      <trkpt lat="48.59285" lon="1.96939">
        <ele>127.51</ele>
        <time>2020-08-27T09:23:12Z</time>
      </trkpt>
      <trkpt lat="48.59284" lon="1.96941">
        <ele>127.51</ele>
        <time>2020-08-27T09:23:13Z</time>
      </trkpt>
      <trkpt lat="48.59283" lon="1.96942">
        <ele>127.51</ele>
        <time>2020-08-27T09:23:14Z</time>
      </trkpt>
      <trkpt lat="48.59283" lon="1.96944">
        <ele>127.03</ele>
        <time>2020-08-27T09:23:15Z</time>
      </trkpt>
      <trkpt lat="48.59282" lon="1.96945">
        <ele>127.51</ele>
        <time>2020-08-27T09:23:16Z</time>
      </trkpt>
      <trkpt lat="48.59281" lon="1.96947">
        <ele>126.55</ele>
        <time>2020-08-27T09:23:17Z</time>
      </trkpt>
      <trkpt lat="48.5928" lon="1.96949">
        <ele>127.03</ele>
        <time>2020-08-27T09:23:18Z</time>
      </trkpt>
      <trkpt lat="48.5928" lon="1.9695">
        <ele>126.55</ele>
        <time>2020-08-27T09:23:19Z</time>
      </trkpt>
      <trkpt lat="48.59279" lon="1.96952">
        <ele>126.55</ele>
        <time>2020-08-27T09:23:20Z</time>
      </trkpt>
      <trkpt lat="48.59278" lon="1.96954">
        <ele>126.07</ele>
        <time>2020-08-27T09:23:21Z</time>
      </trkpt>
      <trkpt lat="48.59277" lon="1.96955">
        <ele>125.59</ele>
        <time>2020-08-27T09:23:22Z</time>
      </trkpt>
      <trkpt lat="48.59276" lon="1.96957">
        <ele>125.59</ele>
        <time>2020-08-27T09:23:23Z</time>
      </trkpt>
      <trkpt lat="48.59276" lon="1.96958">
        <ele>125.11</ele>
        <time>2020-08-27T09:23:24Z</time>
      </trkpt>
      <trkpt lat="48.59275" lon="1.96959">
        <ele>125.59</ele>
        <time>2020-08-27T09:23:25Z</time>
      </trkpt>
      <trkpt lat="48.59275" lon="1.96961">
        <ele>125.11</ele>
        <time>2020-08-27T09:23:26Z</time>
      </trkpt>
      <trkpt lat="48.59274" lon="1.96963">
        <ele>125.11</ele>
        <time>2020-08-27T09:23:27Z</time>
      </trkpt>
      <trkpt lat="48.59274" lon="1.96964">
        <ele>124.15</ele>
        <time>2020-08-27T09:23:28Z</time>
      </trkpt>
      <trkpt lat="48.59273" lon="1.96967">
        <ele>125.11</ele>
        <time>2020-08-27T09:23:29Z</time>
      </trkpt>
      <trkpt lat="48.59272" lon="1.96969">
        <ele>124.63</ele>
        <time>2020-08-27T09:23:30Z</time>
      </trkpt>
      <trkpt lat="48.59271" lon="1.96971">
        <ele>124.63</ele>
        <time>2020-08-27T09:23:31Z</time>
      </trkpt>
      <trkpt lat="48.5927" lon="1.96974">
        <ele>124.15</ele>
        <time>2020-08-27T09:23:32Z</time>
      </trkpt>
      <trkpt lat="48.59269" lon="1.96976">
        <ele>124.15</ele>
        <time>2020-08-27T09:23:33Z</time>
      </trkpt>
      <trkpt lat="48.59268" lon="1.96978">
        <ele>123.67</ele>
        <time>2020-08-27T09:23:34Z</time>
      </trkpt>
      <trkpt lat="48.59267" lon="1.96979">
        <ele>123.67</ele>
        <time>2020-08-27T09:23:35Z</time>
      </trkpt>
      <trkpt lat="48.59267" lon="1.96981">
        <ele>123.19</ele>
        <time>2020-08-27T09:23:36Z</time>
      </trkpt>
      <trkpt lat="48.59267" lon="1.96982">
        <ele>123.67</ele>
        <time>2020-08-27T09:23:37Z</time>
      </trkpt>
      <trkpt lat="48.59266" lon="1.96983">
        <ele>123.19</ele>
        <time>2020-08-27T09:23:38Z</time>
      </trkpt>
      <trkpt lat="48.59266" lon="1.96984">
        <ele>123.67</ele>
        <time>2020-08-27T09:23:39Z</time>
      </trkpt>
      <trkpt lat="48.59265" lon="1.96986">
        <ele>123.19</ele>
        <time>2020-08-27T09:23:40Z</time>
      </trkpt>
      <trkpt lat="48.59264" lon="1.96987">
        <ele>124.15</ele>
        <time>2020-08-27T09:23:41Z</time>
      </trkpt>
      <trkpt lat="48.59263" lon="1.96988">
        <ele>122.71</ele>
        <time>2020-08-27T09:23:42Z</time>
      </trkpt>
      <trkpt lat="48.59262" lon="1.96989">
        <ele>122.71</ele>
        <time>2020-08-27T09:23:43Z</time>
      </trkpt>
      <trkpt lat="48.59261" lon="1.96991">
        <ele>122.71</ele>
        <time>2020-08-27T09:23:44Z</time>
      </trkpt>
      <trkpt lat="48.5926" lon="1.96993">
        <ele>122.22</ele>
        <time>2020-08-27T09:23:45Z</time>
      </trkpt>
      <trkpt lat="48.59259" lon="1.96995">
        <ele>122.22</ele>
        <time>2020-08-27T09:23:46Z</time>
      </trkpt>
      <trkpt lat="48.59258" lon="1.96997">
        <ele>122.22</ele>
        <time>2020-08-27T09:23:47Z</time>
      </trkpt>
      <trkpt lat="48.59256" lon="1.96999">
        <ele>122.71</ele>
        <time>2020-08-27T09:23:48Z</time>
      </trkpt>
      <trkpt lat="48.59255" lon="1.97001">
        <ele>122.22</ele>
        <time>2020-08-27T09:23:49Z</time>
      </trkpt>
      <trkpt lat="48.59253" lon="1.97002">
        <ele>122.22</ele>
        <time>2020-08-27T09:23:50Z</time>
      </trkpt>
      <trkpt lat="48.59252" lon="1.97004">
        <ele>121.74</ele>
        <time>2020-08-27T09:23:51Z</time>
      </trkpt>
      <trkpt lat="48.59251" lon="1.97005">
        <ele>122.22</ele>
        <time>2020-08-27T09:23:52Z</time>
      </trkpt>
      <trkpt lat="48.5925" lon="1.97007">
        <ele>122.22</ele>
        <time>2020-08-27T09:23:53Z</time>
      </trkpt>
      <trkpt lat="48.5925" lon="1.97009">
        <ele>121.74</ele>
        <time>2020-08-27T09:23:54Z</time>
      </trkpt>
      <trkpt lat="48.59249" lon="1.9701">
        <ele>121.74</ele>
        <time>2020-08-27T09:23:55Z</time>
      </trkpt>
      <trkpt lat="48.59249" lon="1.97012">
        <ele>121.74</ele>
        <time>2020-08-27T09:23:56Z</time>
      </trkpt>
      <trkpt lat="48.59248" lon="1.97014">
        <ele>121.74</ele>
        <time>2020-08-27T09:23:57Z</time>
      </trkpt>
      <trkpt lat="48.59248" lon="1.97015">
        <ele>122.22</ele>
        <time>2020-08-27T09:23:58Z</time>
      </trkpt>
      <trkpt lat="48.59247" lon="1.97017">
        <ele>122.22</ele>
        <time>2020-08-27T09:23:59Z</time>
      </trkpt>
      <trkpt lat="48.59247" lon="1.97019">
        <ele>122.22</ele>
        <time>2020-08-27T09:24:00Z</time>
      </trkpt>
      <trkpt lat="48.59246" lon="1.9702">
        <ele>121.74</ele>
        <time>2020-08-27T09:24:01Z</time>
      </trkpt>
      <trkpt lat="48.59245" lon="1.97022">
        <ele>121.74</ele>
        <time>2020-08-27T09:24:02Z</time>
      </trkpt>
      <trkpt lat="48.59245" lon="1.97024">
        <ele>121.74</ele>
        <time>2020-08-27T09:24:03Z</time>
      </trkpt>
      <trkpt lat="48.59244" lon="1.97026">
        <ele>121.74</ele>
        <time>2020-08-27T09:24:04Z</time>
      </trkpt>
      <trkpt lat="48.59243" lon="1.97028">
        <ele>121.74</ele>
        <time>2020-08-27T09:24:05Z</time>
      </trkpt>
      <trkpt lat="48.59242" lon="1.97031">
        <ele>122.22</ele>
        <time>2020-08-27T09:24:06Z</time>
      </trkpt>
      <trkpt lat="48.59242" lon="1.97032">
        <ele>122.22</ele>
        <time>2020-08-27T09:24:07Z</time>
      </trkpt>
      <trkpt lat="48.59242" lon="1.97033">
        <ele>121.74</ele>
        <time>2020-08-27T09:24:08Z</time>
      </trkpt>
      <trkpt lat="48.59241" lon="1.97034">
        <ele>121.74</ele>
        <time>2020-08-27T09:24:09Z</time>
      </trkpt>
      <trkpt lat="48.59241" lon="1.97035">
        <ele>121.74</ele>
        <time>2020-08-27T09:24:10Z</time>
      </trkpt>
      <trkpt lat="48.5924" lon="1.97037">
        <ele>121.74</ele>
        <time>2020-08-27T09:24:11Z</time>
      </trkpt>
      <trkpt lat="48.5924" lon="1.97038">
        <ele>121.74</ele>
        <time>2020-08-27T09:24:12Z</time>
      </trkpt>
      <trkpt lat="48.5924" lon="1.9704">
        <ele>121.74</ele>
        <time>2020-08-27T09:24:13Z</time>
      </trkpt>
      <trkpt lat="48.59239" lon="1.97042">
        <ele>121.74</ele>
        <time>2020-08-27T09:24:14Z</time>
      </trkpt>
      <trkpt lat="48.59239" lon="1.97043">
        <ele>121.74</ele>
        <time>2020-08-27T09:24:15Z</time>
      </trkpt>
      <trkpt lat="48.59238" lon="1.97044">
        <ele>121.26</ele>
        <time>2020-08-27T09:24:16Z</time>
      </trkpt>
      <trkpt lat="48.59237" lon="1.97046">
        <ele>121.26</ele>
        <time>2020-08-27T09:24:17Z</time>
      </trkpt>
      <trkpt lat="48.59236" lon="1.97047">
        <ele>121.26</ele>
        <time>2020-08-27T09:24:18Z</time>
      </trkpt>
      <trkpt lat="48.59235" lon="1.97048">
        <ele>120.78</ele>
        <time>2020-08-27T09:24:19Z</time>
      </trkpt>
      <trkpt lat="48.59234" lon="1.97048">
        <ele>121.26</ele>
        <time>2020-08-27T09:24:20Z</time>
      </trkpt>
      <trkpt lat="48.59234" lon="1.9705">
        <ele>121.74</ele>
        <time>2020-08-27T09:24:21Z</time>
      </trkpt>
      <trkpt lat="48.59233" lon="1.97051">
        <ele>121.26</ele>
        <time>2020-08-27T09:24:22Z</time>
      </trkpt>
      <trkpt lat="48.59232" lon="1.97052">
        <ele>121.26</ele>
        <time>2020-08-27T09:24:23Z</time>
      </trkpt>
      <trkpt lat="48.59231" lon="1.97054">
        <ele>121.26</ele>
        <time>2020-08-27T09:24:24Z</time>
      </trkpt>
      <trkpt lat="48.5923" lon="1.97055">
        <ele>120.78</ele>
        <time>2020-08-27T09:24:25Z</time>
      </trkpt>
      <trkpt lat="48.5923" lon="1.97058">
        <ele>120.78</ele>
        <time>2020-08-27T09:24:26Z</time>
      </trkpt>
      <trkpt lat="48.59229" lon="1.97059">
        <ele>120.78</ele>
        <time>2020-08-27T09:24:27Z</time>
      </trkpt>
      <trkpt lat="48.59228" lon="1.97061">
        <ele>120.78</ele>
        <time>2020-08-27T09:24:28Z</time>
      </trkpt>
      <trkpt lat="48.59228" lon="1.97063">
        <ele>121.26</ele>
        <time>2020-08-27T09:24:29Z</time>
      </trkpt>
      <trkpt lat="48.59227" lon="1.97066">
        <ele>121.26</ele>
        <time>2020-08-27T09:24:30Z</time>
      </trkpt>
      <trkpt lat="48.59226" lon="1.97068">
        <ele>121.26</ele>
        <time>2020-08-27T09:24:31Z</time>
      </trkpt>
      <trkpt lat="48.59225" lon="1.9707">
        <ele>120.78</ele>
        <time>2020-08-27T09:24:32Z</time>
      </trkpt>
      <trkpt lat="48.59225" lon="1.97073">
        <ele>120.78</ele>
        <time>2020-08-27T09:24:33Z</time>
      </trkpt>
      <trkpt lat="48.59224" lon="1.97075">
        <ele>120.78</ele>
        <time>2020-08-27T09:24:34Z</time>
      </trkpt>
      <trkpt lat="48.59223" lon="1.97077">
        <ele>120.78</ele>
        <time>2020-08-27T09:24:35Z</time>
      </trkpt>
      <trkpt lat="48.59222" lon="1.97078">
        <ele>120.78</ele>
        <time>2020-08-27T09:24:36Z</time>
      </trkpt>
      <trkpt lat="48.59221" lon="1.9708">
        <ele>120.78</ele>
        <time>2020-08-27T09:24:37Z</time>
      </trkpt>
      <trkpt lat="48.5922" lon="1.97082">
        <ele>120.78</ele>
        <time>2020-08-27T09:24:38Z</time>
      </trkpt>
      <trkpt lat="48.5922" lon="1.97083">
        <ele>120.78</ele>
        <time>2020-08-27T09:24:39Z</time>
      </trkpt>
      <trkpt lat="48.59219" lon="1.97085">
        <ele>120.3</ele>
        <time>2020-08-27T09:24:40Z</time>
      </trkpt>
      <trkpt lat="48.59219" lon="1.97087">
        <ele>120.3</ele>
        <time>2020-08-27T09:24:41Z</time>
      </trkpt>
      <trkpt lat="48.59218" lon="1.97089">
        <ele>120.3</ele>
        <time>2020-08-27T09:24:42Z</time>
      </trkpt>
      <trkpt lat="48.59217" lon="1.97091">
        <ele>120.3</ele>
        <time>2020-08-27T09:24:43Z</time>
      </trkpt>
      <trkpt lat="48.59217" lon="1.97093">
        <ele>120.3</ele>
        <time>2020-08-27T09:24:44Z</time>
      </trkpt>
      <trkpt lat="48.59216" lon="1.97095">
        <ele>120.3</ele>
        <time>2020-08-27T09:24:45Z</time>
      </trkpt>
      <trkpt lat="48.59215" lon="1.97097">
        <ele>120.78</ele>
        <time>2020-08-27T09:24:46Z</time>
      </trkpt>
      <trkpt lat="48.59214" lon="1.97098">
        <ele>120.3</ele>
        <time>2020-08-27T09:24:47Z</time>
      </trkpt>
      <trkpt lat="48.59213" lon="1.971">
        <ele>120.3</ele>
        <time>2020-08-27T09:24:48Z</time>
      </trkpt>
      <trkpt lat="48.59212" lon="1.97102">
        <ele>120.3</ele>
        <time>2020-08-27T09:24:49Z</time>
      </trkpt>
      <trkpt lat="48.59212" lon="1.97103">
        <ele>119.82</ele>
        <time>2020-08-27T09:24:50Z</time>
      </trkpt>
      <trkpt lat="48.59211" lon="1.97105">
        <ele>120.3</ele>
        <time>2020-08-27T09:24:51Z</time>
      </trkpt>
      <trkpt lat="48.5921" lon="1.97106">
        <ele>119.82</ele>
        <time>2020-08-27T09:24:52Z</time>
      </trkpt>
      <trkpt lat="48.5921" lon="1.97107">
        <ele>119.82</ele>
        <time>2020-08-27T09:24:53Z</time>
      </trkpt>
      <trkpt lat="48.59209" lon="1.97109">
        <ele>120.3</ele>
        <time>2020-08-27T09:24:54Z</time>
      </trkpt>
      <trkpt lat="48.59208" lon="1.9711">
        <ele>120.3</ele>
        <time>2020-08-27T09:24:55Z</time>
      </trkpt>
      <trkpt lat="48.59207" lon="1.97112">
        <ele>119.82</ele>
        <time>2020-08-27T09:24:56Z</time>
      </trkpt>
      <trkpt lat="48.59206" lon="1.97114">
        <ele>119.82</ele>
        <time>2020-08-27T09:24:57Z</time>
      </trkpt>
      <trkpt lat="48.59205" lon="1.97115">
        <ele>119.82</ele>
        <time>2020-08-27T09:24:58Z</time>
      </trkpt>
      <trkpt lat="48.59204" lon="1.97116">
        <ele>119.82</ele>
        <time>2020-08-27T09:24:59Z</time>
      </trkpt>
      <trkpt lat="48.59203" lon="1.97117">
        <ele>119.82</ele>
        <time>2020-08-27T09:25:00Z</time>
      </trkpt>
      <trkpt lat="48.59203" lon="1.97119">
        <ele>119.82</ele>
        <time>2020-08-27T09:25:01Z</time>
      </trkpt>
      <trkpt lat="48.59202" lon="1.9712">
        <ele>120.3</ele>
        <time>2020-08-27T09:25:02Z</time>
      </trkpt>
      <trkpt lat="48.59201" lon="1.97122">
        <ele>119.82</ele>
        <time>2020-08-27T09:25:03Z</time>
      </trkpt>
      <trkpt lat="48.592" lon="1.97124">
        <ele>119.82</ele>
        <time>2020-08-27T09:25:04Z</time>
      </trkpt>
      <trkpt lat="48.592" lon="1.97125">
        <ele>119.82</ele>
        <time>2020-08-27T09:25:05Z</time>
      </trkpt>
      <trkpt lat="48.59199" lon="1.97127">
        <ele>119.82</ele>
        <time>2020-08-27T09:25:06Z</time>
      </trkpt>
      <trkpt lat="48.59198" lon="1.97128">
        <ele>119.34</ele>
        <time>2020-08-27T09:25:07Z</time>
      </trkpt>
      <trkpt lat="48.59198" lon="1.9713">
        <ele>119.34</ele>
        <time>2020-08-27T09:25:08Z</time>
      </trkpt>
      <trkpt lat="48.59197" lon="1.97132">
        <ele>119.34</ele>
        <time>2020-08-27T09:25:09Z</time>
      </trkpt>
      <trkpt lat="48.59196" lon="1.97134">
        <ele>119.82</ele>
        <time>2020-08-27T09:25:10Z</time>
      </trkpt>
      <trkpt lat="48.59196" lon="1.97136">
        <ele>118.86</ele>
        <time>2020-08-27T09:25:11Z</time>
      </trkpt>
      <trkpt lat="48.59196" lon="1.97138">
        <ele>119.34</ele>
        <time>2020-08-27T09:25:12Z</time>
      </trkpt>
      <trkpt lat="48.59195" lon="1.9714">
        <ele>118.86</ele>
        <time>2020-08-27T09:25:13Z</time>
      </trkpt>
      <trkpt lat="48.59194" lon="1.97142">
        <ele>118.38</ele>
        <time>2020-08-27T09:25:14Z</time>
      </trkpt>
      <trkpt lat="48.59194" lon="1.97144">
        <ele>118.38</ele>
        <time>2020-08-27T09:25:15Z</time>
      </trkpt>
      <trkpt lat="48.59193" lon="1.97145">
        <ele>118.38</ele>
        <time>2020-08-27T09:25:16Z</time>
      </trkpt>
      <trkpt lat="48.59192" lon="1.97146">
        <ele>118.86</ele>
        <time>2020-08-27T09:25:17Z</time>
      </trkpt>
      <trkpt lat="48.59191" lon="1.97147">
        <ele>118.38</ele>
        <time>2020-08-27T09:25:18Z</time>
      </trkpt>
      <trkpt lat="48.59191" lon="1.97149">
        <ele>118.38</ele>
        <time>2020-08-27T09:25:19Z</time>
      </trkpt>
      <trkpt lat="48.5919" lon="1.9715">
        <ele>118.38</ele>
        <time>2020-08-27T09:25:20Z</time>
      </trkpt>
      <trkpt lat="48.59189" lon="1.97151">
        <ele>117.9</ele>
        <time>2020-08-27T09:25:21Z</time>
      </trkpt>
      <trkpt lat="48.59188" lon="1.97153">
        <ele>118.38</ele>
        <time>2020-08-27T09:25:22Z</time>
      </trkpt>
      <trkpt lat="48.59187" lon="1.97154">
        <ele>117.9</ele>
        <time>2020-08-27T09:25:23Z</time>
      </trkpt>
      <trkpt lat="48.59186" lon="1.97155">
        <ele>117.42</ele>
        <time>2020-08-27T09:25:24Z</time>
      </trkpt>
      <trkpt lat="48.59185" lon="1.97156">
        <ele>117.9</ele>
        <time>2020-08-27T09:25:25Z</time>
      </trkpt>
      <trkpt lat="48.59184" lon="1.97157">
        <ele>117.9</ele>
        <time>2020-08-27T09:25:26Z</time>
      </trkpt>
      <trkpt lat="48.59183" lon="1.97158">
        <ele>117.42</ele>
        <time>2020-08-27T09:25:27Z</time>
      </trkpt>
      <trkpt lat="48.59181" lon="1.9716">
        <ele>116.94</ele>
        <time>2020-08-27T09:25:28Z</time>
      </trkpt>
      <trkpt lat="48.5918" lon="1.97162">
        <ele>117.42</ele>
        <time>2020-08-27T09:25:29Z</time>
      </trkpt>
      <trkpt lat="48.59179" lon="1.97165">
        <ele>117.42</ele>
        <time>2020-08-27T09:25:30Z</time>
      </trkpt>
      <trkpt lat="48.59179" lon="1.97166">
        <ele>116.94</ele>
        <time>2020-08-27T09:25:31Z</time>
      </trkpt>
      <trkpt lat="48.59178" lon="1.97168">
        <ele>116.94</ele>
        <time>2020-08-27T09:25:32Z</time>
      </trkpt>
      <trkpt lat="48.59178" lon="1.97171">
        <ele>116.94</ele>
        <time>2020-08-27T09:25:33Z</time>
      </trkpt>
      <trkpt lat="48.59177" lon="1.97173">
        <ele>116.94</ele>
        <time>2020-08-27T09:25:34Z</time>
      </trkpt>
      <trkpt lat="48.59177" lon="1.97175">
        <ele>116.94</ele>
        <time>2020-08-27T09:25:35Z</time>
      </trkpt>
      <trkpt lat="48.59176" lon="1.97177">
        <ele>116.94</ele>
        <time>2020-08-27T09:25:36Z</time>
      </trkpt>
      <trkpt lat="48.59176" lon="1.97179">
        <ele>116.94</ele>
        <time>2020-08-27T09:25:37Z</time>
      </trkpt>
      <trkpt lat="48.59175" lon="1.97182">
        <ele>116.46</ele>
        <time>2020-08-27T09:25:38Z</time>
      </trkpt>
      <trkpt lat="48.59174" lon="1.97184">
        <ele>116.46</ele>
        <time>2020-08-27T09:25:39Z</time>
      </trkpt>
      <trkpt lat="48.59174" lon="1.97186">
        <ele>116.46</ele>
        <time>2020-08-27T09:25:40Z</time>
      </trkpt>
      <trkpt lat="48.59174" lon="1.97189">
        <ele>116.94</ele>
        <time>2020-08-27T09:25:41Z</time>
      </trkpt>
      <trkpt lat="48.59173" lon="1.97192">
        <ele>116.46</ele>
        <time>2020-08-27T09:25:42Z</time>
      </trkpt>
      <trkpt lat="48.59173" lon="1.97195">
        <ele>115.98</ele>
        <time>2020-08-27T09:25:43Z</time>
      </trkpt>
      <trkpt lat="48.59173" lon="1.97197">
        <ele>115.98</ele>
        <time>2020-08-27T09:25:44Z</time>
      </trkpt>
      <trkpt lat="48.59172" lon="1.97198">
        <ele>115.5</ele>
        <time>2020-08-27T09:25:45Z</time>
      </trkpt>
      <trkpt lat="48.59171" lon="1.97199">
        <ele>116.46</ele>
        <time>2020-08-27T09:25:46Z</time>
      </trkpt>
      <trkpt lat="48.5917" lon="1.97201">
        <ele>116.46</ele>
        <time>2020-08-27T09:25:47Z</time>
      </trkpt>
      <trkpt lat="48.59169" lon="1.97202">
        <ele>115.98</ele>
        <time>2020-08-27T09:25:48Z</time>
      </trkpt>
      <trkpt lat="48.59169" lon="1.97203">
        <ele>115.98</ele>
        <time>2020-08-27T09:25:49Z</time>
      </trkpt>
      <trkpt lat="48.59167" lon="1.97204">
        <ele>115.98</ele>
        <time>2020-08-27T09:25:50Z</time>
      </trkpt>
      <trkpt lat="48.59166" lon="1.97206">
        <ele>115.98</ele>
        <time>2020-08-27T09:25:51Z</time>
      </trkpt>
      <trkpt lat="48.59165" lon="1.97208">
        <ele>115.5</ele>
        <time>2020-08-27T09:25:52Z</time>
      </trkpt>
      <trkpt lat="48.59164" lon="1.9721">
        <ele>115.98</ele>
        <time>2020-08-27T09:25:53Z</time>
      </trkpt>
      <trkpt lat="48.59164" lon="1.97212">
        <ele>115.5</ele>
        <time>2020-08-27T09:25:54Z</time>
      </trkpt>
      <trkpt lat="48.59163" lon="1.97213">
        <ele>115.5</ele>
        <time>2020-08-27T09:25:55Z</time>
      </trkpt>
      <trkpt lat="48.59162" lon="1.97215">
        <ele>115.5</ele>
        <time>2020-08-27T09:25:56Z</time>
      </trkpt>
      <trkpt lat="48.5916" lon="1.97217">
        <ele>115.5</ele>
        <time>2020-08-27T09:25:57Z</time>
      </trkpt>
      <trkpt lat="48.59159" lon="1.97218">
        <ele>115.5</ele>
        <time>2020-08-27T09:25:58Z</time>
      </trkpt>
      <trkpt lat="48.59158" lon="1.97219">
        <ele>115.01</ele>
        <time>2020-08-27T09:25:59Z</time>
      </trkpt>
      <trkpt lat="48.59158" lon="1.97221">
        <ele>115.5</ele>
        <time>2020-08-27T09:26:00Z</time>
      </trkpt>
      <trkpt lat="48.59157" lon="1.97223">
        <ele>115.01</ele>
        <time>2020-08-27T09:26:01Z</time>
      </trkpt>
      <trkpt lat="48.59156" lon="1.97224">
        <ele>115.01</ele>
        <time>2020-08-27T09:26:02Z</time>
      </trkpt>
      <trkpt lat="48.59155" lon="1.97226">
        <ele>115.01</ele>
        <time>2020-08-27T09:26:03Z</time>
      </trkpt>
      <trkpt lat="48.59154" lon="1.97227">
        <ele>115.5</ele>
        <time>2020-08-27T09:26:04Z</time>
      </trkpt>
      <trkpt lat="48.59153" lon="1.97228">
        <ele>115.5</ele>
        <time>2020-08-27T09:26:05Z</time>
      </trkpt>
      <trkpt lat="48.59153" lon="1.9723">
        <ele>115.5</ele>
        <time>2020-08-27T09:26:06Z</time>
      </trkpt>
      <trkpt lat="48.59152" lon="1.97232">
        <ele>115.5</ele>
        <time>2020-08-27T09:26:07Z</time>
      </trkpt>
      <trkpt lat="48.59151" lon="1.97235">
        <ele>115.5</ele>
        <time>2020-08-27T09:26:08Z</time>
      </trkpt>
      <trkpt lat="48.5915" lon="1.97237">
        <ele>114.53</ele>
        <time>2020-08-27T09:26:09Z</time>
      </trkpt>
      <trkpt lat="48.59149" lon="1.9724">
        <ele>115.01</ele>
        <time>2020-08-27T09:26:10Z</time>
      </trkpt>
      <trkpt lat="48.59148" lon="1.97242">
        <ele>115.5</ele>
        <time>2020-08-27T09:26:11Z</time>
      </trkpt>
      <trkpt lat="48.59147" lon="1.97243">
        <ele>115.5</ele>
        <time>2020-08-27T09:26:12Z</time>
      </trkpt>
      <trkpt lat="48.59146" lon="1.97245">
        <ele>115.5</ele>
        <time>2020-08-27T09:26:13Z</time>
      </trkpt>
      <trkpt lat="48.59146" lon="1.97246">
        <ele>115.5</ele>
        <time>2020-08-27T09:26:14Z</time>
      </trkpt>
      <trkpt lat="48.59145" lon="1.97247">
        <ele>115.5</ele>
        <time>2020-08-27T09:26:15Z</time>
      </trkpt>
      <trkpt lat="48.59144" lon="1.97249">
        <ele>115.01</ele>
        <time>2020-08-27T09:26:16Z</time>
      </trkpt>
      <trkpt lat="48.59142" lon="1.97249">
        <ele>115.01</ele>
        <time>2020-08-27T09:26:17Z</time>
      </trkpt>
      <trkpt lat="48.59141" lon="1.9725">
        <ele>114.53</ele>
        <time>2020-08-27T09:26:18Z</time>
      </trkpt>
      <trkpt lat="48.59141" lon="1.97252">
        <ele>115.5</ele>
        <time>2020-08-27T09:26:19Z</time>
      </trkpt>
      <trkpt lat="48.59141" lon="1.97253">
        <ele>115.01</ele>
        <time>2020-08-27T09:26:20Z</time>
      </trkpt>
      <trkpt lat="48.59141" lon="1.97255">
        <ele>115.01</ele>
        <time>2020-08-27T09:26:21Z</time>
      </trkpt>
      <trkpt lat="48.5914" lon="1.97256">
        <ele>115.01</ele>
        <time>2020-08-27T09:26:22Z</time>
      </trkpt>
      <trkpt lat="48.59139" lon="1.97257">
        <ele>115.01</ele>
        <time>2020-08-27T09:26:23Z</time>
      </trkpt>
      <trkpt lat="48.59139" lon="1.97259">
        <ele>115.01</ele>
        <time>2020-08-27T09:26:24Z</time>
      </trkpt>
      <trkpt lat="48.59139" lon="1.9726">
        <ele>115.01</ele>
        <time>2020-08-27T09:26:25Z</time>
      </trkpt>
      <trkpt lat="48.59138" lon="1.97262">
        <ele>114.53</ele>
        <time>2020-08-27T09:26:26Z</time>
      </trkpt>
      <trkpt lat="48.59136" lon="1.97264">
        <ele>115.01</ele>
        <time>2020-08-27T09:26:27Z</time>
      </trkpt>
      <trkpt lat="48.59136" lon="1.97266">
        <ele>115.01</ele>
        <time>2020-08-27T09:26:28Z</time>
      </trkpt>
      <trkpt lat="48.59135" lon="1.97268">
        <ele>115.01</ele>
        <time>2020-08-27T09:26:29Z</time>
      </trkpt>
      <trkpt lat="48.59135" lon="1.97269">
        <ele>115.01</ele>
        <time>2020-08-27T09:26:30Z</time>
      </trkpt>
      <trkpt lat="48.59134" lon="1.9727">
        <ele>115.01</ele>
        <time>2020-08-27T09:26:31Z</time>
      </trkpt>
      <trkpt lat="48.59134" lon="1.97272">
        <ele>115.01</ele>
        <time>2020-08-27T09:26:32Z</time>
      </trkpt>
      <trkpt lat="48.59133" lon="1.97273">
        <ele>114.53</ele>
        <time>2020-08-27T09:26:33Z</time>
      </trkpt>
      <trkpt lat="48.59132" lon="1.97275">
        <ele>115.01</ele>
        <time>2020-08-27T09:26:34Z</time>
      </trkpt>
      <trkpt lat="48.59132" lon="1.97277">
        <ele>114.53</ele>
        <time>2020-08-27T09:26:35Z</time>
      </trkpt>
      <trkpt lat="48.59131" lon="1.97279">
        <ele>115.01</ele>
        <time>2020-08-27T09:26:36Z</time>
      </trkpt>
      <trkpt lat="48.5913" lon="1.97281">
        <ele>115.01</ele>
        <time>2020-08-27T09:26:37Z</time>
      </trkpt>
      <trkpt lat="48.59129" lon="1.97282">
        <ele>114.53</ele>
        <time>2020-08-27T09:26:38Z</time>
      </trkpt>
      <trkpt lat="48.59128" lon="1.97284">
        <ele>114.53</ele>
        <time>2020-08-27T09:26:39Z</time>
      </trkpt>
      <trkpt lat="48.59127" lon="1.97286">
        <ele>114.53</ele>
        <time>2020-08-27T09:26:40Z</time>
      </trkpt>
      <trkpt lat="48.59126" lon="1.97288">
        <ele>114.53</ele>
        <time>2020-08-27T09:26:41Z</time>
      </trkpt>
      <trkpt lat="48.59125" lon="1.9729">
        <ele>114.53</ele>
        <time>2020-08-27T09:26:42Z</time>
      </trkpt>
      <trkpt lat="48.59124" lon="1.97292">
        <ele>114.05</ele>
        <time>2020-08-27T09:26:43Z</time>
      </trkpt>
      <trkpt lat="48.59124" lon="1.97293">
        <ele>114.05</ele>
        <time>2020-08-27T09:26:44Z</time>
      </trkpt>
      <trkpt lat="48.59123" lon="1.97295">
        <ele>114.53</ele>
        <time>2020-08-27T09:26:45Z</time>
      </trkpt>
      <trkpt lat="48.59123" lon="1.97296">
        <ele>114.05</ele>
        <time>2020-08-27T09:26:46Z</time>
      </trkpt>
      <trkpt lat="48.59123" lon="1.97298">
        <ele>114.05</ele>
        <time>2020-08-27T09:26:47Z</time>
      </trkpt>
      <trkpt lat="48.59122" lon="1.97299">
        <ele>114.05</ele>
        <time>2020-08-27T09:26:48Z</time>
      </trkpt>
      <trkpt lat="48.59122" lon="1.973">
        <ele>113.57</ele>
        <time>2020-08-27T09:26:49Z</time>
      </trkpt>
      <trkpt lat="48.59121" lon="1.97301">
        <ele>114.05</ele>
        <time>2020-08-27T09:26:50Z</time>
      </trkpt>
      <trkpt lat="48.5912" lon="1.97302">
        <ele>113.57</ele>
        <time>2020-08-27T09:26:51Z</time>
      </trkpt>
      <trkpt lat="48.59119" lon="1.97303">
        <ele>113.57</ele>
        <time>2020-08-27T09:26:52Z</time>
      </trkpt>
      <trkpt lat="48.59119" lon="1.97305">
        <ele>113.57</ele>
        <time>2020-08-27T09:26:53Z</time>
      </trkpt>
      <trkpt lat="48.59118" lon="1.97307">
        <ele>113.57</ele>
        <time>2020-08-27T09:26:54Z</time>
      </trkpt>
      <trkpt lat="48.59116" lon="1.97308">
        <ele>113.57</ele>
        <time>2020-08-27T09:26:55Z</time>
      </trkpt>
      <trkpt lat="48.59115" lon="1.9731">
        <ele>113.57</ele>
        <time>2020-08-27T09:26:56Z</time>
      </trkpt>
      <trkpt lat="48.59114" lon="1.97311">
        <ele>113.09</ele>
        <time>2020-08-27T09:26:57Z</time>
      </trkpt>
      <trkpt lat="48.59114" lon="1.97312">
        <ele>114.05</ele>
        <time>2020-08-27T09:26:58Z</time>
      </trkpt>
      <trkpt lat="48.59113" lon="1.97314">
        <ele>113.57</ele>
        <time>2020-08-27T09:26:59Z</time>
      </trkpt>
      <trkpt lat="48.59112" lon="1.97316">
        <ele>113.57</ele>
        <time>2020-08-27T09:27:00Z</time>
      </trkpt>
      <trkpt lat="48.59111" lon="1.97317">
        <ele>113.57</ele>
        <time>2020-08-27T09:27:01Z</time>
      </trkpt>
      <trkpt lat="48.5911" lon="1.97318">
        <ele>113.57</ele>
        <time>2020-08-27T09:27:02Z</time>
      </trkpt>
      <trkpt lat="48.59109" lon="1.97319">
        <ele>113.57</ele>
        <time>2020-08-27T09:27:03Z</time>
      </trkpt>
      <trkpt lat="48.59108" lon="1.97319">
        <ele>113.57</ele>
        <time>2020-08-27T09:27:04Z</time>
      </trkpt>
      <trkpt lat="48.59107" lon="1.97319">
        <ele>113.57</ele>
        <time>2020-08-27T09:27:05Z</time>
      </trkpt>
      <trkpt lat="48.59106" lon="1.97318">
        <ele>113.57</ele>
        <time>2020-08-27T09:27:06Z</time>
      </trkpt>
      <trkpt lat="48.59105" lon="1.97318">
        <ele>113.57</ele>
        <time>2020-08-27T09:27:07Z</time>
      </trkpt>
      <trkpt lat="48.59103" lon="1.97318">
        <ele>113.09</ele>
        <time>2020-08-27T09:27:08Z</time>
      </trkpt>
      <trkpt lat="48.59102" lon="1.97317">
        <ele>113.09</ele>
        <time>2020-08-27T09:27:09Z</time>
      </trkpt>
      <trkpt lat="48.59102" lon="1.97316">
        <ele>113.09</ele>
        <time>2020-08-27T09:27:10Z</time>
      </trkpt>
      <trkpt lat="48.591" lon="1.97315">
        <ele>113.09</ele>
        <time>2020-08-27T09:27:11Z</time>
      </trkpt>
      <trkpt lat="48.591" lon="1.97314">
        <ele>112.61</ele>
        <time>2020-08-27T09:27:12Z</time>
      </trkpt>
      <trkpt lat="48.59099" lon="1.97313">
        <ele>113.09</ele>
        <time>2020-08-27T09:27:13Z</time>
      </trkpt>
      <trkpt lat="48.59098" lon="1.97311">
        <ele>113.09</ele>
        <time>2020-08-27T09:27:14Z</time>
      </trkpt>
      <trkpt lat="48.59097" lon="1.9731">
        <ele>113.09</ele>
        <time>2020-08-27T09:27:15Z</time>
      </trkpt>
      <trkpt lat="48.59095" lon="1.97309">
        <ele>112.61</ele>
        <time>2020-08-27T09:27:16Z</time>
      </trkpt>
      <trkpt lat="48.59093" lon="1.97308">
        <ele>113.09</ele>
        <time>2020-08-27T09:27:17Z</time>
      </trkpt>
      <trkpt lat="48.59092" lon="1.97307">
        <ele>112.61</ele>
        <time>2020-08-27T09:27:18Z</time>
      </trkpt>
      <trkpt lat="48.59089" lon="1.97305">
        <ele>112.61</ele>
        <time>2020-08-27T09:27:19Z</time>
      </trkpt>
      <trkpt lat="48.59088" lon="1.97303">
        <ele>112.61</ele>
        <time>2020-08-27T09:27:20Z</time>
      </trkpt>
      <trkpt lat="48.59086" lon="1.97301">
        <ele>113.09</ele>
        <time>2020-08-27T09:27:21Z</time>
      </trkpt>
      <trkpt lat="48.59085" lon="1.97299">
        <ele>113.09</ele>
        <time>2020-08-27T09:27:22Z</time>
      </trkpt>
      <trkpt lat="48.59084" lon="1.97297">
        <ele>112.61</ele>
        <time>2020-08-27T09:27:23Z</time>
      </trkpt>
      <trkpt lat="48.59083" lon="1.97296">
        <ele>112.61</ele>
        <time>2020-08-27T09:27:24Z</time>
      </trkpt>
      <trkpt lat="48.59081" lon="1.97295">
        <ele>112.61</ele>
        <time>2020-08-27T09:27:25Z</time>
      </trkpt>
      <trkpt lat="48.59079" lon="1.97293">
        <ele>112.13</ele>
        <time>2020-08-27T09:27:26Z</time>
      </trkpt>
      <trkpt lat="48.59077" lon="1.97292">
        <ele>112.13</ele>
        <time>2020-08-27T09:27:27Z</time>
      </trkpt>
      <trkpt lat="48.59076" lon="1.97292">
        <ele>111.65</ele>
        <time>2020-08-27T09:27:28Z</time>
      </trkpt>
      <trkpt lat="48.59074" lon="1.97291">
        <ele>112.13</ele>
        <time>2020-08-27T09:27:29Z</time>
      </trkpt>
      <trkpt lat="48.59073" lon="1.9729">
        <ele>112.61</ele>
        <time>2020-08-27T09:27:30Z</time>
      </trkpt>
      <trkpt lat="48.59073" lon="1.97289">
        <ele>112.13</ele>
        <time>2020-08-27T09:27:31Z</time>
      </trkpt>
      <trkpt lat="48.59072" lon="1.97288">
        <ele>112.13</ele>
        <time>2020-08-27T09:27:32Z</time>
      </trkpt>
      <trkpt lat="48.59071" lon="1.97287">
        <ele>112.13</ele>
        <time>2020-08-27T09:27:33Z</time>
      </trkpt>
      <trkpt lat="48.5907" lon="1.97285">
        <ele>112.13</ele>
        <time>2020-08-27T09:27:34Z</time>
      </trkpt>
      <trkpt lat="48.59069" lon="1.97284">
        <ele>112.13</ele>
        <time>2020-08-27T09:27:35Z</time>
      </trkpt>
      <trkpt lat="48.59068" lon="1.97284">
        <ele>111.65</ele>
        <time>2020-08-27T09:27:36Z</time>
      </trkpt>
      <trkpt lat="48.59067" lon="1.97284">
        <ele>111.65</ele>
        <time>2020-08-27T09:27:37Z</time>
      </trkpt>
      <trkpt lat="48.59067" lon="1.97282">
        <ele>112.13</ele>
        <time>2020-08-27T09:27:38Z</time>
      </trkpt>
      <trkpt lat="48.59066" lon="1.97281">
        <ele>112.13</ele>
        <time>2020-08-27T09:27:39Z</time>
      </trkpt>
      <trkpt lat="48.59065" lon="1.9728">
        <ele>112.13</ele>
        <time>2020-08-27T09:27:40Z</time>
      </trkpt>
      <trkpt lat="48.59064" lon="1.97278">
        <ele>113.09</ele>
        <time>2020-08-27T09:27:41Z</time>
      </trkpt>
      <trkpt lat="48.59063" lon="1.97277">
        <ele>112.13</ele>
        <time>2020-08-27T09:27:42Z</time>
      </trkpt>
      <trkpt lat="48.59062" lon="1.97276">
        <ele>111.65</ele>
        <time>2020-08-27T09:27:43Z</time>
      </trkpt>
      <trkpt lat="48.59061" lon="1.97274">
        <ele>111.65</ele>
        <time>2020-08-27T09:27:44Z</time>
      </trkpt>
      <trkpt lat="48.5906" lon="1.97274">
        <ele>111.65</ele>
        <time>2020-08-27T09:27:45Z</time>
      </trkpt>
      <trkpt lat="48.59059" lon="1.97273">
        <ele>111.65</ele>
        <time>2020-08-27T09:27:46Z</time>
      </trkpt>
      <trkpt lat="48.59058" lon="1.97273">
        <ele>111.65</ele>
        <time>2020-08-27T09:27:47Z</time>
      </trkpt>
      <trkpt lat="48.59056" lon="1.97272">
        <ele>111.65</ele>
        <time>2020-08-27T09:27:48Z</time>
      </trkpt>
      <trkpt lat="48.59056" lon="1.97272">
        <ele>111.65</ele>
        <time>2020-08-27T09:27:49Z</time>
      </trkpt>
      <trkpt lat="48.59055" lon="1.97272">
        <ele>111.65</ele>
        <time>2020-08-27T09:27:50Z</time>
      </trkpt>
      <trkpt lat="48.59053" lon="1.97271">
        <ele>112.13</ele>
        <time>2020-08-27T09:27:51Z</time>
      </trkpt>
      <trkpt lat="48.59052" lon="1.97271">
        <ele>111.65</ele>
        <time>2020-08-27T09:27:52Z</time>
      </trkpt>
      <trkpt lat="48.59051" lon="1.97269">
        <ele>111.65</ele>
        <time>2020-08-27T09:27:53Z</time>
      </trkpt>
      <trkpt lat="48.5905" lon="1.97268">
        <ele>111.65</ele>
        <time>2020-08-27T09:27:54Z</time>
      </trkpt>
      <trkpt lat="48.59048" lon="1.97267">
        <ele>111.65</ele>
        <time>2020-08-27T09:27:55Z</time>
      </trkpt>
      <trkpt lat="48.59047" lon="1.97265">
        <ele>111.17</ele>
        <time>2020-08-27T09:27:56Z</time>
      </trkpt>
      <trkpt lat="48.59046" lon="1.97265">
        <ele>111.65</ele>
        <time>2020-08-27T09:27:57Z</time>
      </trkpt>
      <trkpt lat="48.59044" lon="1.97263">
        <ele>111.17</ele>
        <time>2020-08-27T09:27:58Z</time>
      </trkpt>
      <trkpt lat="48.59043" lon="1.97262">
        <ele>111.65</ele>
        <time>2020-08-27T09:27:59Z</time>
      </trkpt>
      <trkpt lat="48.59042" lon="1.97261">
        <ele>111.65</ele>
        <time>2020-08-27T09:28:00Z</time>
      </trkpt>
      <trkpt lat="48.59042" lon="1.9726">
        <ele>111.65</ele>
        <time>2020-08-27T09:28:01Z</time>
      </trkpt>
      <trkpt lat="48.59041" lon="1.9726">
        <ele>111.17</ele>
        <time>2020-08-27T09:28:02Z</time>
      </trkpt>
      <trkpt lat="48.5904" lon="1.97259">
        <ele>111.17</ele>
        <time>2020-08-27T09:28:03Z</time>
      </trkpt>
      <trkpt lat="48.59039" lon="1.97258">
        <ele>111.17</ele>
        <time>2020-08-27T09:28:04Z</time>
      </trkpt>
      <trkpt lat="48.59037" lon="1.97256">
        <ele>111.17</ele>
        <time>2020-08-27T09:28:05Z</time>
      </trkpt>
      <trkpt lat="48.59036" lon="1.97255">
        <ele>111.65</ele>
        <time>2020-08-27T09:28:06Z</time>
      </trkpt>
      <trkpt lat="48.59035" lon="1.97254">
        <ele>111.65</ele>
        <time>2020-08-27T09:28:07Z</time>
      </trkpt>
      <trkpt lat="48.59033" lon="1.97252">
        <ele>111.17</ele>
        <time>2020-08-27T09:28:08Z</time>
      </trkpt>
      <trkpt lat="48.59032" lon="1.9725">
        <ele>111.65</ele>
        <time>2020-08-27T09:28:09Z</time>
      </trkpt>
      <trkpt lat="48.59031" lon="1.97247">
        <ele>111.17</ele>
        <time>2020-08-27T09:28:10Z</time>
      </trkpt>
      <trkpt lat="48.5903" lon="1.97245">
        <ele>111.17</ele>
        <time>2020-08-27T09:28:11Z</time>
      </trkpt>
      <trkpt lat="48.59029" lon="1.97243">
        <ele>111.17</ele>
        <time>2020-08-27T09:28:12Z</time>
      </trkpt>
      <trkpt lat="48.59028" lon="1.97241">
        <ele>110.69</ele>
        <time>2020-08-27T09:28:13Z</time>
      </trkpt>
      <trkpt lat="48.59028" lon="1.9724">
        <ele>110.69</ele>
        <time>2020-08-27T09:28:14Z</time>
      </trkpt>
      <trkpt lat="48.59027" lon="1.97238">
        <ele>110.69</ele>
        <time>2020-08-27T09:28:15Z</time>
      </trkpt>
      <trkpt lat="48.59027" lon="1.97237">
        <ele>110.69</ele>
        <time>2020-08-27T09:28:16Z</time>
      </trkpt>
      <trkpt lat="48.59026" lon="1.97236">
        <ele>111.17</ele>
        <time>2020-08-27T09:28:17Z</time>
      </trkpt>
      <trkpt lat="48.59025" lon="1.97235">
        <ele>111.17</ele>
        <time>2020-08-27T09:28:18Z</time>
      </trkpt>
      <trkpt lat="48.59024" lon="1.97234">
        <ele>110.69</ele>
        <time>2020-08-27T09:28:19Z</time>
      </trkpt>
      <trkpt lat="48.59023" lon="1.97232">
        <ele>111.17</ele>
        <time>2020-08-27T09:28:20Z</time>
      </trkpt>
      <trkpt lat="48.59023" lon="1.9723">
        <ele>111.17</ele>
        <time>2020-08-27T09:28:21Z</time>
      </trkpt>
      <trkpt lat="48.59024" lon="1.97229">
        <ele>111.17</ele>
        <time>2020-08-27T09:28:22Z</time>
      </trkpt>
      <trkpt lat="48.59025" lon="1.97227">
        <ele>110.21</ele>
        <time>2020-08-27T09:28:23Z</time>
      </trkpt>
      <trkpt lat="48.59026" lon="1.97226">
        <ele>110.69</ele>
        <time>2020-08-27T09:28:24Z</time>
      </trkpt>
      <trkpt lat="48.59025" lon="1.97224">
        <ele>111.17</ele>
        <time>2020-08-27T09:28:25Z</time>
      </trkpt>
      <trkpt lat="48.59025" lon="1.97223">
        <ele>111.17</ele>
        <time>2020-08-27T09:28:26Z</time>
      </trkpt>
      <trkpt lat="48.59027" lon="1.97222">
        <ele>110.69</ele>
        <time>2020-08-27T09:28:27Z</time>
      </trkpt>
      <trkpt lat="48.59027" lon="1.97219">
        <ele>111.17</ele>
        <time>2020-08-27T09:28:28Z</time>
      </trkpt>
      <trkpt lat="48.59027" lon="1.97216">
        <ele>111.17</ele>
        <time>2020-08-27T09:28:29Z</time>
      </trkpt>
      <trkpt lat="48.59029" lon="1.97213">
        <ele>110.69</ele>
        <time>2020-08-27T09:28:30Z</time>
      </trkpt>
      <trkpt lat="48.59029" lon="1.97211">
        <ele>110.69</ele>
        <time>2020-08-27T09:28:31Z</time>
      </trkpt>
      <trkpt lat="48.5903" lon="1.97209">
        <ele>110.69</ele>
        <time>2020-08-27T09:28:32Z</time>
      </trkpt>
      <trkpt lat="48.5903" lon="1.97207">
        <ele>110.69</ele>
        <time>2020-08-27T09:28:33Z</time>
      </trkpt>
      <trkpt lat="48.59032" lon="1.97204">
        <ele>111.65</ele>
        <time>2020-08-27T09:28:34Z</time>
      </trkpt>
      <trkpt lat="48.59033" lon="1.97201">
        <ele>111.17</ele>
        <time>2020-08-27T09:28:35Z</time>
      </trkpt>
      <trkpt lat="48.59035" lon="1.97199">
        <ele>111.17</ele>
        <time>2020-08-27T09:28:36Z</time>
      </trkpt>
      <trkpt lat="48.59036" lon="1.97196">
        <ele>111.17</ele>
        <time>2020-08-27T09:28:37Z</time>
      </trkpt>
      <trkpt lat="48.59037" lon="1.97193">
        <ele>111.17</ele>
        <time>2020-08-27T09:28:38Z</time>
      </trkpt>
      <trkpt lat="48.59037" lon="1.97191">
        <ele>111.17</ele>
        <time>2020-08-27T09:28:39Z</time>
      </trkpt>
      <trkpt lat="48.59038" lon="1.97188">
        <ele>111.17</ele>
        <time>2020-08-27T09:28:40Z</time>
      </trkpt>
      <trkpt lat="48.59038" lon="1.97187">
        <ele>111.17</ele>
        <time>2020-08-27T09:28:41Z</time>
      </trkpt>
      <trkpt lat="48.59038" lon="1.97185">
        <ele>110.69</ele>
        <time>2020-08-27T09:28:42Z</time>
      </trkpt>
      <trkpt lat="48.59039" lon="1.97183">
        <ele>111.17</ele>
        <time>2020-08-27T09:28:43Z</time>
      </trkpt>
      <trkpt lat="48.5904" lon="1.97181">
        <ele>111.17</ele>
        <time>2020-08-27T09:28:44Z</time>
      </trkpt>
      <trkpt lat="48.5904" lon="1.97179">
        <ele>111.17</ele>
        <time>2020-08-27T09:28:45Z</time>
      </trkpt>
      <trkpt lat="48.5904" lon="1.97178">
        <ele>111.17</ele>
        <time>2020-08-27T09:28:46Z</time>
      </trkpt>
      <trkpt lat="48.5904" lon="1.97176">
        <ele>111.17</ele>
        <time>2020-08-27T09:28:47Z</time>
      </trkpt>
      <trkpt lat="48.59041" lon="1.97175">
        <ele>111.17</ele>
        <time>2020-08-27T09:28:48Z</time>
      </trkpt>
      <trkpt lat="48.59041" lon="1.97173">
        <ele>111.17</ele>
        <time>2020-08-27T09:28:49Z</time>
      </trkpt>
      <trkpt lat="48.59041" lon="1.97171">
        <ele>111.17</ele>
        <time>2020-08-27T09:28:50Z</time>
      </trkpt>
      <trkpt lat="48.59041" lon="1.9717">
        <ele>111.17</ele>
        <time>2020-08-27T09:28:51Z</time>
      </trkpt>
      <trkpt lat="48.59042" lon="1.97168">
        <ele>110.69</ele>
        <time>2020-08-27T09:28:52Z</time>
      </trkpt>
      <trkpt lat="48.59042" lon="1.97166">
        <ele>111.17</ele>
        <time>2020-08-27T09:28:53Z</time>
      </trkpt>
      <trkpt lat="48.59042" lon="1.97164">
        <ele>111.17</ele>
        <time>2020-08-27T09:28:54Z</time>
      </trkpt>
      <trkpt lat="48.59043" lon="1.97162">
        <ele>111.17</ele>
        <time>2020-08-27T09:28:55Z</time>
      </trkpt>
      <trkpt lat="48.59043" lon="1.9716">
        <ele>111.17</ele>
        <time>2020-08-27T09:28:56Z</time>
      </trkpt>
      <trkpt lat="48.59043" lon="1.97157">
        <ele>111.17</ele>
        <time>2020-08-27T09:28:57Z</time>
      </trkpt>
      <trkpt lat="48.59043" lon="1.97156">
        <ele>111.17</ele>
        <time>2020-08-27T09:28:58Z</time>
      </trkpt>
      <trkpt lat="48.59044" lon="1.97153">
        <ele>111.17</ele>
        <time>2020-08-27T09:28:59Z</time>
      </trkpt>
      <trkpt lat="48.59045" lon="1.97151">
        <ele>110.69</ele>
        <time>2020-08-27T09:29:00Z</time>
      </trkpt>
      <trkpt lat="48.59046" lon="1.97149">
        <ele>111.17</ele>
        <time>2020-08-27T09:29:01Z</time>
      </trkpt>
      <trkpt lat="48.59047" lon="1.97147">
        <ele>111.65</ele>
        <time>2020-08-27T09:29:02Z</time>
      </trkpt>
      <trkpt lat="48.59048" lon="1.97146">
        <ele>111.17</ele>
        <time>2020-08-27T09:29:03Z</time>
      </trkpt>
      <trkpt lat="48.5905" lon="1.97144">
        <ele>111.17</ele>
        <time>2020-08-27T09:29:04Z</time>
      </trkpt>
      <trkpt lat="48.59051" lon="1.97142">
        <ele>111.17</ele>
        <time>2020-08-27T09:29:05Z</time>
      </trkpt>
      <trkpt lat="48.59051" lon="1.9714">
        <ele>111.17</ele>
        <time>2020-08-27T09:29:06Z</time>
      </trkpt>
      <trkpt lat="48.59052" lon="1.97137">
        <ele>111.17</ele>
        <time>2020-08-27T09:29:07Z</time>
      </trkpt>
      <trkpt lat="48.59053" lon="1.97135">
        <ele>111.65</ele>
        <time>2020-08-27T09:29:08Z</time>
      </trkpt>
      <trkpt lat="48.59054" lon="1.97132">
        <ele>111.17</ele>
        <time>2020-08-27T09:29:09Z</time>
      </trkpt>
      <trkpt lat="48.59054" lon="1.9713">
        <ele>110.69</ele>
        <time>2020-08-27T09:29:10Z</time>
      </trkpt>
      <trkpt lat="48.59055" lon="1.97128">
        <ele>111.65</ele>
        <time>2020-08-27T09:29:11Z</time>
      </trkpt>
      <trkpt lat="48.59055" lon="1.97125">
        <ele>111.65</ele>
        <time>2020-08-27T09:29:12Z</time>
      </trkpt>
      <trkpt lat="48.59055" lon="1.97124">
        <ele>111.65</ele>
        <time>2020-08-27T09:29:13Z</time>
      </trkpt>
      <trkpt lat="48.59055" lon="1.97122">
        <ele>111.17</ele>
        <time>2020-08-27T09:29:14Z</time>
      </trkpt>
      <trkpt lat="48.59054" lon="1.9712">
        <ele>111.65</ele>
        <time>2020-08-27T09:29:15Z</time>
      </trkpt>
      <trkpt lat="48.59055" lon="1.97118">
        <ele>111.17</ele>
        <time>2020-08-27T09:29:16Z</time>
      </trkpt>
      <trkpt lat="48.59054" lon="1.97116">
        <ele>111.17</ele>
        <time>2020-08-27T09:29:17Z</time>
      </trkpt>
      <trkpt lat="48.59054" lon="1.97114">
        <ele>111.17</ele>
        <time>2020-08-27T09:29:18Z</time>
      </trkpt>
      <trkpt lat="48.59054" lon="1.97112">
        <ele>110.69</ele>
        <time>2020-08-27T09:29:19Z</time>
      </trkpt>
      <trkpt lat="48.59054" lon="1.97111">
        <ele>112.13</ele>
        <time>2020-08-27T09:29:20Z</time>
      </trkpt>
      <trkpt lat="48.59054" lon="1.97108">
        <ele>111.65</ele>
        <time>2020-08-27T09:29:21Z</time>
      </trkpt>
      <trkpt lat="48.59054" lon="1.97106">
        <ele>111.65</ele>
        <time>2020-08-27T09:29:22Z</time>
      </trkpt>
      <trkpt lat="48.59055" lon="1.97103">
        <ele>111.17</ele>
        <time>2020-08-27T09:29:23Z</time>
      </trkpt>
      <trkpt lat="48.59055" lon="1.97101">
        <ele>111.65</ele>
        <time>2020-08-27T09:29:24Z</time>
      </trkpt>
      <trkpt lat="48.59056" lon="1.97099">
        <ele>112.13</ele>
        <time>2020-08-27T09:29:25Z</time>
      </trkpt>
      <trkpt lat="48.59056" lon="1.97096">
        <ele>111.65</ele>
        <time>2020-08-27T09:29:26Z</time>
      </trkpt>
      <trkpt lat="48.59057" lon="1.97094">
        <ele>111.17</ele>
        <time>2020-08-27T09:29:27Z</time>
      </trkpt>
      <trkpt lat="48.59057" lon="1.97092">
        <ele>111.17</ele>
        <time>2020-08-27T09:29:28Z</time>
      </trkpt>
      <trkpt lat="48.59058" lon="1.9709">
        <ele>111.65</ele>
        <time>2020-08-27T09:29:29Z</time>
      </trkpt>
      <trkpt lat="48.59058" lon="1.97089">
        <ele>112.13</ele>
        <time>2020-08-27T09:29:30Z</time>
      </trkpt>
      <trkpt lat="48.59059" lon="1.97087">
        <ele>112.13</ele>
        <time>2020-08-27T09:29:31Z</time>
      </trkpt>
      <trkpt lat="48.59059" lon="1.97085">
        <ele>111.65</ele>
        <time>2020-08-27T09:29:32Z</time>
      </trkpt>
      <trkpt lat="48.59059" lon="1.97084">
        <ele>111.65</ele>
        <time>2020-08-27T09:29:33Z</time>
      </trkpt>
      <trkpt lat="48.5906" lon="1.97082">
        <ele>111.65</ele>
        <time>2020-08-27T09:29:34Z</time>
      </trkpt>
      <trkpt lat="48.5906" lon="1.97081">
        <ele>112.13</ele>
        <time>2020-08-27T09:29:35Z</time>
      </trkpt>
      <trkpt lat="48.59061" lon="1.97079">
        <ele>111.65</ele>
        <time>2020-08-27T09:29:36Z</time>
      </trkpt>
      <trkpt lat="48.59062" lon="1.97077">
        <ele>111.65</ele>
        <time>2020-08-27T09:29:37Z</time>
      </trkpt>
      <trkpt lat="48.59062" lon="1.97075">
        <ele>112.13</ele>
        <time>2020-08-27T09:29:38Z</time>
      </trkpt>
      <trkpt lat="48.59062" lon="1.97073">
        <ele>112.13</ele>
        <time>2020-08-27T09:29:39Z</time>
      </trkpt>
      <trkpt lat="48.59063" lon="1.97071">
        <ele>112.13</ele>
        <time>2020-08-27T09:29:40Z</time>
      </trkpt>
      <trkpt lat="48.59062" lon="1.97069">
        <ele>112.13</ele>
        <time>2020-08-27T09:29:41Z</time>
      </trkpt>
      <trkpt lat="48.59063" lon="1.97066">
        <ele>113.09</ele>
        <time>2020-08-27T09:29:42Z</time>
      </trkpt>
      <trkpt lat="48.59063" lon="1.97064">
        <ele>112.13</ele>
        <time>2020-08-27T09:29:43Z</time>
      </trkpt>
      <trkpt lat="48.59064" lon="1.97061">
        <ele>112.13</ele>
        <time>2020-08-27T09:29:44Z</time>
      </trkpt>
      <trkpt lat="48.59065" lon="1.97058">
        <ele>112.13</ele>
        <time>2020-08-27T09:29:45Z</time>
      </trkpt>
      <trkpt lat="48.59065" lon="1.97056">
        <ele>112.13</ele>
        <time>2020-08-27T09:29:46Z</time>
      </trkpt>
      <trkpt lat="48.59065" lon="1.97054">
        <ele>112.13</ele>
        <time>2020-08-27T09:29:47Z</time>
      </trkpt>
      <trkpt lat="48.59065" lon="1.97051">
        <ele>112.61</ele>
        <time>2020-08-27T09:29:48Z</time>
      </trkpt>
      <trkpt lat="48.59065" lon="1.97049">
        <ele>112.13</ele>
        <time>2020-08-27T09:29:49Z</time>
      </trkpt>
      <trkpt lat="48.59066" lon="1.97047">
        <ele>112.13</ele>
        <time>2020-08-27T09:29:50Z</time>
      </trkpt>
      <trkpt lat="48.59067" lon="1.97045">
        <ele>112.13</ele>
        <time>2020-08-27T09:29:51Z</time>
      </trkpt>
      <trkpt lat="48.59067" lon="1.97043">
        <ele>112.13</ele>
        <time>2020-08-27T09:29:52Z</time>
      </trkpt>
      <trkpt lat="48.59068" lon="1.97041">
        <ele>112.13</ele>
        <time>2020-08-27T09:29:53Z</time>
      </trkpt>
      <trkpt lat="48.59069" lon="1.97039">
        <ele>112.13</ele>
        <time>2020-08-27T09:29:54Z</time>
      </trkpt>
      <trkpt lat="48.5907" lon="1.97038">
        <ele>112.13</ele>
        <time>2020-08-27T09:29:55Z</time>
      </trkpt>
      <trkpt lat="48.5907" lon="1.97036">
        <ele>112.61</ele>
        <time>2020-08-27T09:29:56Z</time>
      </trkpt>
      <trkpt lat="48.59071" lon="1.97034">
        <ele>113.09</ele>
        <time>2020-08-27T09:29:57Z</time>
      </trkpt>
      <trkpt lat="48.59071" lon="1.97032">
        <ele>112.61</ele>
        <time>2020-08-27T09:29:58Z</time>
      </trkpt>
      <trkpt lat="48.59072" lon="1.9703">
        <ele>112.61</ele>
        <time>2020-08-27T09:29:59Z</time>
      </trkpt>
      <trkpt lat="48.59072" lon="1.97028">
        <ele>112.61</ele>
        <time>2020-08-27T09:30:00Z</time>
      </trkpt>
      <trkpt lat="48.59073" lon="1.97025">
        <ele>113.09</ele>
        <time>2020-08-27T09:30:01Z</time>
      </trkpt>
      <trkpt lat="48.59073" lon="1.97023">
        <ele>112.13</ele>
        <time>2020-08-27T09:30:02Z</time>
      </trkpt>
      <trkpt lat="48.59074" lon="1.97021">
        <ele>112.61</ele>
        <time>2020-08-27T09:30:03Z</time>
      </trkpt>
      <trkpt lat="48.59074" lon="1.97019">
        <ele>112.61</ele>
        <time>2020-08-27T09:30:04Z</time>
      </trkpt>
      <trkpt lat="48.59075" lon="1.97016">
        <ele>113.09</ele>
        <time>2020-08-27T09:30:05Z</time>
      </trkpt>
      <trkpt lat="48.59076" lon="1.97014">
        <ele>113.09</ele>
        <time>2020-08-27T09:30:06Z</time>
      </trkpt>
      <trkpt lat="48.59076" lon="1.97012">
        <ele>113.09</ele>
        <time>2020-08-27T09:30:07Z</time>
      </trkpt>
      <trkpt lat="48.59076" lon="1.9701">
        <ele>112.61</ele>
        <time>2020-08-27T09:30:08Z</time>
      </trkpt>
      <trkpt lat="48.59076" lon="1.97009">
        <ele>112.61</ele>
        <time>2020-08-27T09:30:09Z</time>
      </trkpt>
      <trkpt lat="48.59076" lon="1.97006">
        <ele>112.61</ele>
        <time>2020-08-27T09:30:10Z</time>
      </trkpt>
      <trkpt lat="48.59076" lon="1.97004">
        <ele>112.61</ele>
        <time>2020-08-27T09:30:11Z</time>
      </trkpt>
      <trkpt lat="48.59076" lon="1.97002">
        <ele>112.61</ele>
        <time>2020-08-27T09:30:12Z</time>
      </trkpt>
      <trkpt lat="48.59076" lon="1.97">
        <ele>113.09</ele>
        <time>2020-08-27T09:30:13Z</time>
      </trkpt>
      <trkpt lat="48.59076" lon="1.96998">
        <ele>113.09</ele>
        <time>2020-08-27T09:30:14Z</time>
      </trkpt>
      <trkpt lat="48.59076" lon="1.96995">
        <ele>112.61</ele>
        <time>2020-08-27T09:30:15Z</time>
      </trkpt>
      <trkpt lat="48.59076" lon="1.96993">
        <ele>112.61</ele>
        <time>2020-08-27T09:30:16Z</time>
      </trkpt>
      <trkpt lat="48.59076" lon="1.96991">
        <ele>113.09</ele>
        <time>2020-08-27T09:30:17Z</time>
      </trkpt>
      <trkpt lat="48.59076" lon="1.96989">
        <ele>113.09</ele>
        <time>2020-08-27T09:30:18Z</time>
      </trkpt>
      <trkpt lat="48.59076" lon="1.96986">
        <ele>112.61</ele>
        <time>2020-08-27T09:30:19Z</time>
      </trkpt>
      <trkpt lat="48.59076" lon="1.96984">
        <ele>112.13</ele>
        <time>2020-08-27T09:30:20Z</time>
      </trkpt>
      <trkpt lat="48.59077" lon="1.96982">
        <ele>112.61</ele>
        <time>2020-08-27T09:30:21Z</time>
      </trkpt>
      <trkpt lat="48.59077" lon="1.9698">
        <ele>113.57</ele>
        <time>2020-08-27T09:30:22Z</time>
      </trkpt>
      <trkpt lat="48.59078" lon="1.96978">
        <ele>113.09</ele>
        <time>2020-08-27T09:30:23Z</time>
      </trkpt>
      <trkpt lat="48.59079" lon="1.96977">
        <ele>113.09</ele>
        <time>2020-08-27T09:30:24Z</time>
      </trkpt>
      <trkpt lat="48.5908" lon="1.96975">
        <ele>112.61</ele>
        <time>2020-08-27T09:30:25Z</time>
      </trkpt>
      <trkpt lat="48.59081" lon="1.96973">
        <ele>112.61</ele>
        <time>2020-08-27T09:30:26Z</time>
      </trkpt>
      <trkpt lat="48.59082" lon="1.96972">
        <ele>112.61</ele>
        <time>2020-08-27T09:30:27Z</time>
      </trkpt>
      <trkpt lat="48.59083" lon="1.9697">
        <ele>112.61</ele>
        <time>2020-08-27T09:30:28Z</time>
      </trkpt>
      <trkpt lat="48.59083" lon="1.96969">
        <ele>112.61</ele>
        <time>2020-08-27T09:30:29Z</time>
      </trkpt>
      <trkpt lat="48.59083" lon="1.96967">
        <ele>112.61</ele>
        <time>2020-08-27T09:30:30Z</time>
      </trkpt>
      <trkpt lat="48.59084" lon="1.96966">
        <ele>113.09</ele>
        <time>2020-08-27T09:30:31Z</time>
      </trkpt>
      <trkpt lat="48.59085" lon="1.96965">
        <ele>113.09</ele>
        <time>2020-08-27T09:30:32Z</time>
      </trkpt>
      <trkpt lat="48.59085" lon="1.96963">
        <ele>112.61</ele>
        <time>2020-08-27T09:30:33Z</time>
      </trkpt>
      <trkpt lat="48.59086" lon="1.96961">
        <ele>112.61</ele>
        <time>2020-08-27T09:30:34Z</time>
      </trkpt>
      <trkpt lat="48.59087" lon="1.96959">
        <ele>112.61</ele>
        <time>2020-08-27T09:30:35Z</time>
      </trkpt>
      <trkpt lat="48.59088" lon="1.96957">
        <ele>112.61</ele>
        <time>2020-08-27T09:30:36Z</time>
      </trkpt>
      <trkpt lat="48.59089" lon="1.96955">
        <ele>112.61</ele>
        <time>2020-08-27T09:30:37Z</time>
      </trkpt>
      <trkpt lat="48.5909" lon="1.96954">
        <ele>112.61</ele>
        <time>2020-08-27T09:30:38Z</time>
      </trkpt>
      <trkpt lat="48.5909" lon="1.96951">
        <ele>112.61</ele>
        <time>2020-08-27T09:30:39Z</time>
      </trkpt>
      <trkpt lat="48.59091" lon="1.96949">
        <ele>112.13</ele>
        <time>2020-08-27T09:30:40Z</time>
      </trkpt>
      <trkpt lat="48.59092" lon="1.96947">
        <ele>113.09</ele>
        <time>2020-08-27T09:30:41Z</time>
      </trkpt>
      <trkpt lat="48.59093" lon="1.96945">
        <ele>112.61</ele>
        <time>2020-08-27T09:30:42Z</time>
      </trkpt>
      <trkpt lat="48.59093" lon="1.96943">
        <ele>112.61</ele>
        <time>2020-08-27T09:30:43Z</time>
      </trkpt>
      <trkpt lat="48.59094" lon="1.96941">
        <ele>112.13</ele>
        <time>2020-08-27T09:30:44Z</time>
      </trkpt>
      <trkpt lat="48.59094" lon="1.9694">
        <ele>112.61</ele>
        <time>2020-08-27T09:30:45Z</time>
      </trkpt>
      <trkpt lat="48.59094" lon="1.96938">
        <ele>112.13</ele>
        <time>2020-08-27T09:30:46Z</time>
      </trkpt>
      <trkpt lat="48.59094" lon="1.96936">
        <ele>112.61</ele>
        <time>2020-08-27T09:30:47Z</time>
      </trkpt>
      <trkpt lat="48.59094" lon="1.96935">
        <ele>112.13</ele>
        <time>2020-08-27T09:30:48Z</time>
      </trkpt>
      <trkpt lat="48.59094" lon="1.96933">
        <ele>112.13</ele>
        <time>2020-08-27T09:30:49Z</time>
      </trkpt>
      <trkpt lat="48.59095" lon="1.9693">
        <ele>112.61</ele>
        <time>2020-08-27T09:30:50Z</time>
      </trkpt>
      <trkpt lat="48.59095" lon="1.96927">
        <ele>112.61</ele>
        <time>2020-08-27T09:30:51Z</time>
      </trkpt>
      <trkpt lat="48.59096" lon="1.96925">
        <ele>112.61</ele>
        <time>2020-08-27T09:30:52Z</time>
      </trkpt>
      <trkpt lat="48.59097" lon="1.96923">
        <ele>112.13</ele>
        <time>2020-08-27T09:30:53Z</time>
      </trkpt>
      <trkpt lat="48.59097" lon="1.96923">
        <ele>112.13</ele>
        <time>2020-08-27T09:30:54Z</time>
      </trkpt>
      <trkpt lat="48.59097" lon="1.96923">
        <ele>112.61</ele>
        <time>2020-08-27T09:30:55Z</time>
      </trkpt>
      <trkpt lat="48.59097" lon="1.96923">
        <ele>112.61</ele>
        <time>2020-08-27T09:30:56Z</time>
      </trkpt>
      <trkpt lat="48.59098" lon="1.96923">
        <ele>112.61</ele>
        <time>2020-08-27T09:30:57Z</time>
      </trkpt>
      <trkpt lat="48.59099" lon="1.96921">
        <ele>113.09</ele>
        <time>2020-08-27T09:30:58Z</time>
      </trkpt>
      <trkpt lat="48.59099" lon="1.96919">
        <ele>113.09</ele>
        <time>2020-08-27T09:30:59Z</time>
      </trkpt>
      <trkpt lat="48.591" lon="1.96917">
        <ele>113.09</ele>
        <time>2020-08-27T09:31:00Z</time>
      </trkpt>
      <trkpt lat="48.59101" lon="1.96915">
        <ele>113.09</ele>
        <time>2020-08-27T09:31:01Z</time>
      </trkpt>
      <trkpt lat="48.59101" lon="1.96913">
        <ele>113.09</ele>
        <time>2020-08-27T09:31:02Z</time>
      </trkpt>
      <trkpt lat="48.59102" lon="1.96911">
        <ele>112.61</ele>
        <time>2020-08-27T09:31:03Z</time>
      </trkpt>
      <trkpt lat="48.59102" lon="1.96908">
        <ele>112.61</ele>
        <time>2020-08-27T09:31:04Z</time>
      </trkpt>
      <trkpt lat="48.59103" lon="1.96906">
        <ele>113.09</ele>
        <time>2020-08-27T09:31:05Z</time>
      </trkpt>
      <trkpt lat="48.59103" lon="1.96903">
        <ele>113.57</ele>
        <time>2020-08-27T09:31:06Z</time>
      </trkpt>
      <trkpt lat="48.59103" lon="1.96902">
        <ele>113.09</ele>
        <time>2020-08-27T09:31:07Z</time>
      </trkpt>
      <trkpt lat="48.59103" lon="1.969">
        <ele>112.61</ele>
        <time>2020-08-27T09:31:08Z</time>
      </trkpt>
      <trkpt lat="48.59104" lon="1.96899">
        <ele>113.09</ele>
        <time>2020-08-27T09:31:09Z</time>
      </trkpt>
      <trkpt lat="48.59104" lon="1.96898">
        <ele>113.09</ele>
        <time>2020-08-27T09:31:10Z</time>
      </trkpt>
      <trkpt lat="48.59105" lon="1.96896">
        <ele>113.09</ele>
        <time>2020-08-27T09:31:11Z</time>
      </trkpt>
      <trkpt lat="48.59106" lon="1.96892">
        <ele>112.61</ele>
        <time>2020-08-27T09:31:12Z</time>
      </trkpt>
      <trkpt lat="48.59107" lon="1.96889">
        <ele>113.57</ele>
        <time>2020-08-27T09:31:13Z</time>
      </trkpt>
      <trkpt lat="48.59108" lon="1.96887">
        <ele>114.05</ele>
        <time>2020-08-27T09:31:14Z</time>
      </trkpt>
      <trkpt lat="48.59109" lon="1.96884">
        <ele>113.09</ele>
        <time>2020-08-27T09:31:15Z</time>
      </trkpt>
      <trkpt lat="48.59109" lon="1.96881">
        <ele>113.09</ele>
        <time>2020-08-27T09:31:16Z</time>
      </trkpt>
      <trkpt lat="48.5911" lon="1.96878">
        <ele>113.09</ele>
        <time>2020-08-27T09:31:17Z</time>
      </trkpt>
      <trkpt lat="48.59111" lon="1.96876">
        <ele>113.09</ele>
        <time>2020-08-27T09:31:18Z</time>
      </trkpt>
      <trkpt lat="48.59112" lon="1.96875">
        <ele>113.09</ele>
        <time>2020-08-27T09:31:19Z</time>
      </trkpt>
      <trkpt lat="48.59113" lon="1.96872">
        <ele>113.57</ele>
        <time>2020-08-27T09:31:20Z</time>
      </trkpt>
      <trkpt lat="48.59113" lon="1.9687">
        <ele>113.57</ele>
        <time>2020-08-27T09:31:21Z</time>
      </trkpt>
      <trkpt lat="48.59114" lon="1.96868">
        <ele>113.57</ele>
        <time>2020-08-27T09:31:22Z</time>
      </trkpt>
      <trkpt lat="48.59115" lon="1.96866">
        <ele>113.57</ele>
        <time>2020-08-27T09:31:23Z</time>
      </trkpt>
      <trkpt lat="48.59116" lon="1.96863">
        <ele>113.57</ele>
        <time>2020-08-27T09:31:24Z</time>
      </trkpt>
      <trkpt lat="48.59116" lon="1.96861">
        <ele>113.57</ele>
        <time>2020-08-27T09:31:25Z</time>
      </trkpt>
      <trkpt lat="48.59117" lon="1.96859">
        <ele>113.09</ele>
        <time>2020-08-27T09:31:26Z</time>
      </trkpt>
      <trkpt lat="48.59118" lon="1.96857">
        <ele>113.09</ele>
        <time>2020-08-27T09:31:27Z</time>
      </trkpt>
      <trkpt lat="48.59119" lon="1.96855">
        <ele>113.57</ele>
        <time>2020-08-27T09:31:28Z</time>
      </trkpt>
      <trkpt lat="48.59119" lon="1.96853">
        <ele>113.09</ele>
        <time>2020-08-27T09:31:29Z</time>
      </trkpt>
      <trkpt lat="48.5912" lon="1.96851">
        <ele>113.57</ele>
        <time>2020-08-27T09:31:30Z</time>
      </trkpt>
      <trkpt lat="48.5912" lon="1.9685">
        <ele>113.57</ele>
        <time>2020-08-27T09:31:31Z</time>
      </trkpt>
      <trkpt lat="48.59121" lon="1.96848">
        <ele>113.09</ele>
        <time>2020-08-27T09:31:32Z</time>
      </trkpt>
      <trkpt lat="48.59122" lon="1.96846">
        <ele>113.09</ele>
        <time>2020-08-27T09:31:33Z</time>
      </trkpt>
      <trkpt lat="48.59122" lon="1.96844">
        <ele>113.57</ele>
        <time>2020-08-27T09:31:34Z</time>
      </trkpt>
      <trkpt lat="48.59123" lon="1.96843">
        <ele>113.57</ele>
        <time>2020-08-27T09:31:35Z</time>
      </trkpt>
      <trkpt lat="48.59123" lon="1.9684">
        <ele>113.09</ele>
        <time>2020-08-27T09:31:36Z</time>
      </trkpt>
      <trkpt lat="48.59124" lon="1.96838">
        <ele>113.57</ele>
        <time>2020-08-27T09:31:37Z</time>
      </trkpt>
      <trkpt lat="48.59124" lon="1.96836">
        <ele>113.57</ele>
        <time>2020-08-27T09:31:38Z</time>
      </trkpt>
      <trkpt lat="48.59124" lon="1.96835">
        <ele>113.57</ele>
        <time>2020-08-27T09:31:39Z</time>
      </trkpt>
      <trkpt lat="48.59124" lon="1.96834">
        <ele>113.57</ele>
        <time>2020-08-27T09:31:40Z</time>
      </trkpt>
      <trkpt lat="48.59124" lon="1.96833">
        <ele>113.57</ele>
        <time>2020-08-27T09:31:41Z</time>
      </trkpt>
      <trkpt lat="48.59124" lon="1.96833">
        <ele>114.05</ele>
        <time>2020-08-27T09:31:42Z</time>
      </trkpt>
      <trkpt lat="48.59124" lon="1.96831">
        <ele>113.57</ele>
        <time>2020-08-27T09:31:43Z</time>
      </trkpt>
      <trkpt lat="48.59124" lon="1.96829">
        <ele>113.57</ele>
        <time>2020-08-27T09:31:44Z</time>
      </trkpt>
      <trkpt lat="48.59125" lon="1.96827">
        <ele>113.57</ele>
        <time>2020-08-27T09:31:45Z</time>
      </trkpt>
      <trkpt lat="48.59125" lon="1.96825">
        <ele>113.57</ele>
        <time>2020-08-27T09:31:46Z</time>
      </trkpt>
      <trkpt lat="48.59126" lon="1.96822">
        <ele>113.57</ele>
        <time>2020-08-27T09:31:47Z</time>
      </trkpt>
      <trkpt lat="48.59127" lon="1.9682">
        <ele>113.57</ele>
        <time>2020-08-27T09:31:48Z</time>
      </trkpt>
      <trkpt lat="48.59128" lon="1.96818">
        <ele>113.57</ele>
        <time>2020-08-27T09:31:49Z</time>
      </trkpt>
      <trkpt lat="48.59129" lon="1.96816">
        <ele>113.57</ele>
        <time>2020-08-27T09:31:50Z</time>
      </trkpt>
      <trkpt lat="48.5913" lon="1.96813">
        <ele>113.09</ele>
        <time>2020-08-27T09:31:51Z</time>
      </trkpt>
      <trkpt lat="48.59131" lon="1.96811">
        <ele>113.57</ele>
        <time>2020-08-27T09:31:52Z</time>
      </trkpt>
      <trkpt lat="48.59131" lon="1.9681">
        <ele>114.05</ele>
        <time>2020-08-27T09:31:53Z</time>
      </trkpt>
      <trkpt lat="48.59132" lon="1.96808">
        <ele>113.57</ele>
        <time>2020-08-27T09:31:54Z</time>
      </trkpt>
      <trkpt lat="48.59132" lon="1.96806">
        <ele>114.05</ele>
        <time>2020-08-27T09:31:55Z</time>
      </trkpt>
      <trkpt lat="48.59133" lon="1.96804">
        <ele>113.57</ele>
        <time>2020-08-27T09:31:56Z</time>
      </trkpt>
      <trkpt lat="48.59133" lon="1.96802">
        <ele>113.57</ele>
        <time>2020-08-27T09:31:57Z</time>
      </trkpt>
      <trkpt lat="48.59133" lon="1.968">
        <ele>114.05</ele>
        <time>2020-08-27T09:31:58Z</time>
      </trkpt>
      <trkpt lat="48.59133" lon="1.96798">
        <ele>113.57</ele>
        <time>2020-08-27T09:31:59Z</time>
      </trkpt>
      <trkpt lat="48.59133" lon="1.96797">
        <ele>114.53</ele>
        <time>2020-08-27T09:32:00Z</time>
      </trkpt>
      <trkpt lat="48.59133" lon="1.96795">
        <ele>114.05</ele>
        <time>2020-08-27T09:32:01Z</time>
      </trkpt>
      <trkpt lat="48.59134" lon="1.96793">
        <ele>114.05</ele>
        <time>2020-08-27T09:32:02Z</time>
      </trkpt>
      <trkpt lat="48.59133" lon="1.96791">
        <ele>114.05</ele>
        <time>2020-08-27T09:32:03Z</time>
      </trkpt>
      <trkpt lat="48.59133" lon="1.96789">
        <ele>113.57</ele>
        <time>2020-08-27T09:32:04Z</time>
      </trkpt>
      <trkpt lat="48.59133" lon="1.96787">
        <ele>114.05</ele>
        <time>2020-08-27T09:32:05Z</time>
      </trkpt>
      <trkpt lat="48.59134" lon="1.96785">
        <ele>114.53</ele>
        <time>2020-08-27T09:32:06Z</time>
      </trkpt>
      <trkpt lat="48.59134" lon="1.96783">
        <ele>114.53</ele>
        <time>2020-08-27T09:32:07Z</time>
      </trkpt>
      <trkpt lat="48.59134" lon="1.9678">
        <ele>114.53</ele>
        <time>2020-08-27T09:32:08Z</time>
      </trkpt>
      <trkpt lat="48.59135" lon="1.96778">
        <ele>114.05</ele>
        <time>2020-08-27T09:32:09Z</time>
      </trkpt>
      <trkpt lat="48.59136" lon="1.96776">
        <ele>114.53</ele>
        <time>2020-08-27T09:32:10Z</time>
      </trkpt>
      <trkpt lat="48.59137" lon="1.96774">
        <ele>114.53</ele>
        <time>2020-08-27T09:32:11Z</time>
      </trkpt>
      <trkpt lat="48.59138" lon="1.96772">
        <ele>114.53</ele>
        <time>2020-08-27T09:32:12Z</time>
      </trkpt>
      <trkpt lat="48.59139" lon="1.96771">
        <ele>115.5</ele>
        <time>2020-08-27T09:32:13Z</time>
      </trkpt>
      <trkpt lat="48.59139" lon="1.96769">
        <ele>115.01</ele>
        <time>2020-08-27T09:32:14Z</time>
      </trkpt>
      <trkpt lat="48.5914" lon="1.96767">
        <ele>114.53</ele>
        <time>2020-08-27T09:32:15Z</time>
      </trkpt>
      <trkpt lat="48.59141" lon="1.96765">
        <ele>114.53</ele>
        <time>2020-08-27T09:32:16Z</time>
      </trkpt>
      <trkpt lat="48.59142" lon="1.96763">
        <ele>114.53</ele>
        <time>2020-08-27T09:32:17Z</time>
      </trkpt>
      <trkpt lat="48.59143" lon="1.96762">
        <ele>115.01</ele>
        <time>2020-08-27T09:32:18Z</time>
      </trkpt>
      <trkpt lat="48.59143" lon="1.9676">
        <ele>114.53</ele>
        <time>2020-08-27T09:32:19Z</time>
      </trkpt>
      <trkpt lat="48.59144" lon="1.96758">
        <ele>115.01</ele>
        <time>2020-08-27T09:32:20Z</time>
      </trkpt>
      <trkpt lat="48.59145" lon="1.96756">
        <ele>115.01</ele>
        <time>2020-08-27T09:32:21Z</time>
      </trkpt>
      <trkpt lat="48.59146" lon="1.96754">
        <ele>115.5</ele>
        <time>2020-08-27T09:32:22Z</time>
      </trkpt>
      <trkpt lat="48.59147" lon="1.96752">
        <ele>115.5</ele>
        <time>2020-08-27T09:32:23Z</time>
      </trkpt>
      <trkpt lat="48.59148" lon="1.9675">
        <ele>115.5</ele>
        <time>2020-08-27T09:32:24Z</time>
      </trkpt>
      <trkpt lat="48.59148" lon="1.96748">
        <ele>115.01</ele>
        <time>2020-08-27T09:32:25Z</time>
      </trkpt>
      <trkpt lat="48.59149" lon="1.96746">
        <ele>115.01</ele>
        <time>2020-08-27T09:32:26Z</time>
      </trkpt>
      <trkpt lat="48.59149" lon="1.96744">
        <ele>115.5</ele>
        <time>2020-08-27T09:32:27Z</time>
      </trkpt>
      <trkpt lat="48.5915" lon="1.96742">
        <ele>115.01</ele>
        <time>2020-08-27T09:32:28Z</time>
      </trkpt>
      <trkpt lat="48.59149" lon="1.9674">
        <ele>115.01</ele>
        <time>2020-08-27T09:32:29Z</time>
      </trkpt>
      <trkpt lat="48.5915" lon="1.96738">
        <ele>115.5</ele>
        <time>2020-08-27T09:32:30Z</time>
      </trkpt>
      <trkpt lat="48.59151" lon="1.96736">
        <ele>115.5</ele>
        <time>2020-08-27T09:32:31Z</time>
      </trkpt>
      <trkpt lat="48.59152" lon="1.96735">
        <ele>115.5</ele>
        <time>2020-08-27T09:32:32Z</time>
      </trkpt>
      <trkpt lat="48.59153" lon="1.96733">
        <ele>115.5</ele>
        <time>2020-08-27T09:32:33Z</time>
      </trkpt>
      <trkpt lat="48.59154" lon="1.96731">
        <ele>115.5</ele>
        <time>2020-08-27T09:32:34Z</time>
      </trkpt>
      <trkpt lat="48.59155" lon="1.96729">
        <ele>115.5</ele>
        <time>2020-08-27T09:32:35Z</time>
      </trkpt>
      <trkpt lat="48.59156" lon="1.96727">
        <ele>115.5</ele>
        <time>2020-08-27T09:32:36Z</time>
      </trkpt>
      <trkpt lat="48.59156" lon="1.96725">
        <ele>115.5</ele>
        <time>2020-08-27T09:32:37Z</time>
      </trkpt>
      <trkpt lat="48.59157" lon="1.96723">
        <ele>115.01</ele>
        <time>2020-08-27T09:32:38Z</time>
      </trkpt>
      <trkpt lat="48.59158" lon="1.96721">
        <ele>115.5</ele>
        <time>2020-08-27T09:32:39Z</time>
      </trkpt>
      <trkpt lat="48.59158" lon="1.96719">
        <ele>115.98</ele>
        <time>2020-08-27T09:32:40Z</time>
      </trkpt>
      <trkpt lat="48.59159" lon="1.96716">
        <ele>115.5</ele>
        <time>2020-08-27T09:32:41Z</time>
      </trkpt>
      <trkpt lat="48.59159" lon="1.96715">
        <ele>115.5</ele>
        <time>2020-08-27T09:32:42Z</time>
      </trkpt>
      <trkpt lat="48.5916" lon="1.96713">
        <ele>115.98</ele>
        <time>2020-08-27T09:32:43Z</time>
      </trkpt>
      <trkpt lat="48.5916" lon="1.9671">
        <ele>115.98</ele>
        <time>2020-08-27T09:32:44Z</time>
      </trkpt>
      <trkpt lat="48.59161" lon="1.96709">
        <ele>115.98</ele>
        <time>2020-08-27T09:32:45Z</time>
      </trkpt>
      <trkpt lat="48.59161" lon="1.96707">
        <ele>115.5</ele>
        <time>2020-08-27T09:32:46Z</time>
      </trkpt>
      <trkpt lat="48.59161" lon="1.96705">
        <ele>115.01</ele>
        <time>2020-08-27T09:32:47Z</time>
      </trkpt>
      <trkpt lat="48.59162" lon="1.96703">
        <ele>115.98</ele>
        <time>2020-08-27T09:32:48Z</time>
      </trkpt>
      <trkpt lat="48.59162" lon="1.96701">
        <ele>115.98</ele>
        <time>2020-08-27T09:32:49Z</time>
      </trkpt>
      <trkpt lat="48.59162" lon="1.96698">
        <ele>115.98</ele>
        <time>2020-08-27T09:32:50Z</time>
      </trkpt>
      <trkpt lat="48.59161" lon="1.96696">
        <ele>115.98</ele>
        <time>2020-08-27T09:32:51Z</time>
      </trkpt>
      <trkpt lat="48.5916" lon="1.96694">
        <ele>115.98</ele>
        <time>2020-08-27T09:32:52Z</time>
      </trkpt>
      <trkpt lat="48.5916" lon="1.96691">
        <ele>115.5</ele>
        <time>2020-08-27T09:32:53Z</time>
      </trkpt>
      <trkpt lat="48.5916" lon="1.96689">
        <ele>115.98</ele>
        <time>2020-08-27T09:32:54Z</time>
      </trkpt>
      <trkpt lat="48.5916" lon="1.96686">
        <ele>115.98</ele>
        <time>2020-08-27T09:32:55Z</time>
      </trkpt>
      <trkpt lat="48.59159" lon="1.96683">
        <ele>115.5</ele>
        <time>2020-08-27T09:32:56Z</time>
      </trkpt>
      <trkpt lat="48.59159" lon="1.96681">
        <ele>115.5</ele>
        <time>2020-08-27T09:32:57Z</time>
      </trkpt>
      <trkpt lat="48.59158" lon="1.96679">
        <ele>115.98</ele>
        <time>2020-08-27T09:32:58Z</time>
      </trkpt>
      <trkpt lat="48.59158" lon="1.96677">
        <ele>115.98</ele>
        <time>2020-08-27T09:32:59Z</time>
      </trkpt>
      <trkpt lat="48.59158" lon="1.96675">
        <ele>115.98</ele>
        <time>2020-08-27T09:33:00Z</time>
      </trkpt>
      <trkpt lat="48.59158" lon="1.96673">
        <ele>115.5</ele>
        <time>2020-08-27T09:33:01Z</time>
      </trkpt>
      <trkpt lat="48.59158" lon="1.9667">
        <ele>115.98</ele>
        <time>2020-08-27T09:33:02Z</time>
      </trkpt>
      <trkpt lat="48.59158" lon="1.96668">
        <ele>115.5</ele>
        <time>2020-08-27T09:33:03Z</time>
      </trkpt>
      <trkpt lat="48.59158" lon="1.96665">
        <ele>115.98</ele>
        <time>2020-08-27T09:33:04Z</time>
      </trkpt>
      <trkpt lat="48.59158" lon="1.96663">
        <ele>115.5</ele>
        <time>2020-08-27T09:33:05Z</time>
      </trkpt>
      <trkpt lat="48.59159" lon="1.9666">
        <ele>115.98</ele>
        <time>2020-08-27T09:33:06Z</time>
      </trkpt>
      <trkpt lat="48.59159" lon="1.96657">
        <ele>116.46</ele>
        <time>2020-08-27T09:33:07Z</time>
      </trkpt>
      <trkpt lat="48.59159" lon="1.96654">
        <ele>116.46</ele>
        <time>2020-08-27T09:33:08Z</time>
      </trkpt>
      <trkpt lat="48.59159" lon="1.96652">
        <ele>116.46</ele>
        <time>2020-08-27T09:33:09Z</time>
      </trkpt>
      <trkpt lat="48.59159" lon="1.96649">
        <ele>115.98</ele>
        <time>2020-08-27T09:33:10Z</time>
      </trkpt>
      <trkpt lat="48.59159" lon="1.96647">
        <ele>115.98</ele>
        <time>2020-08-27T09:33:11Z</time>
      </trkpt>
      <trkpt lat="48.5916" lon="1.96645">
        <ele>115.98</ele>
        <time>2020-08-27T09:33:12Z</time>
      </trkpt>
      <trkpt lat="48.5916" lon="1.96643">
        <ele>115.5</ele>
        <time>2020-08-27T09:33:13Z</time>
      </trkpt>
      <trkpt lat="48.5916" lon="1.96641">
        <ele>115.98</ele>
        <time>2020-08-27T09:33:14Z</time>
      </trkpt>
      <trkpt lat="48.5916" lon="1.9664">
        <ele>116.46</ele>
        <time>2020-08-27T09:33:15Z</time>
      </trkpt>
      <trkpt lat="48.59161" lon="1.96638">
        <ele>115.98</ele>
        <time>2020-08-27T09:33:16Z</time>
      </trkpt>
      <trkpt lat="48.59161" lon="1.96636">
        <ele>115.98</ele>
        <time>2020-08-27T09:33:17Z</time>
      </trkpt>
      <trkpt lat="48.59161" lon="1.96634">
        <ele>115.98</ele>
        <time>2020-08-27T09:33:18Z</time>
      </trkpt>
      <trkpt lat="48.59161" lon="1.96632">
        <ele>115.98</ele>
        <time>2020-08-27T09:33:19Z</time>
      </trkpt>
      <trkpt lat="48.59162" lon="1.9663">
        <ele>115.98</ele>
        <time>2020-08-27T09:33:20Z</time>
      </trkpt>
      <trkpt lat="48.59162" lon="1.96628">
        <ele>115.98</ele>
        <time>2020-08-27T09:33:21Z</time>
      </trkpt>
      <trkpt lat="48.59163" lon="1.96627">
        <ele>116.46</ele>
        <time>2020-08-27T09:33:22Z</time>
      </trkpt>
      <trkpt lat="48.59163" lon="1.96625">
        <ele>116.94</ele>
        <time>2020-08-27T09:33:23Z</time>
      </trkpt>
      <trkpt lat="48.59163" lon="1.96624">
        <ele>116.46</ele>
        <time>2020-08-27T09:33:24Z</time>
      </trkpt>
      <trkpt lat="48.59165" lon="1.96624">
        <ele>115.98</ele>
        <time>2020-08-27T09:33:25Z</time>
      </trkpt>
      <trkpt lat="48.59166" lon="1.96623">
        <ele>116.46</ele>
        <time>2020-08-27T09:33:26Z</time>
      </trkpt>
      <trkpt lat="48.59167" lon="1.96623">
        <ele>116.46</ele>
        <time>2020-08-27T09:33:27Z</time>
      </trkpt>
      <trkpt lat="48.59169" lon="1.96622">
        <ele>116.94</ele>
        <time>2020-08-27T09:33:28Z</time>
      </trkpt>
      <trkpt lat="48.5917" lon="1.96622">
        <ele>116.94</ele>
        <time>2020-08-27T09:33:29Z</time>
      </trkpt>
      <trkpt lat="48.59171" lon="1.96621">
        <ele>116.46</ele>
        <time>2020-08-27T09:33:30Z</time>
      </trkpt>
      <trkpt lat="48.59171" lon="1.96622">
        <ele>116.94</ele>
        <time>2020-08-27T09:33:31Z</time>
      </trkpt>
      <trkpt lat="48.59173" lon="1.96621">
        <ele>117.42</ele>
        <time>2020-08-27T09:33:32Z</time>
      </trkpt>
      <trkpt lat="48.59173" lon="1.9662">
        <ele>116.46</ele>
        <time>2020-08-27T09:33:33Z</time>
      </trkpt>
      <trkpt lat="48.59173" lon="1.9662">
        <ele>116.94</ele>
        <time>2020-08-27T09:33:34Z</time>
      </trkpt>
      <trkpt lat="48.59173" lon="1.96619">
        <ele>115.98</ele>
        <time>2020-08-27T09:33:35Z</time>
      </trkpt>
      <trkpt lat="48.59174" lon="1.96618">
        <ele>117.42</ele>
        <time>2020-08-27T09:33:36Z</time>
      </trkpt>
      <trkpt lat="48.59175" lon="1.96616">
        <ele>116.94</ele>
        <time>2020-08-27T09:33:37Z</time>
      </trkpt>
      <trkpt lat="48.59175" lon="1.96616">
        <ele>116.94</ele>
        <time>2020-08-27T09:33:38Z</time>
      </trkpt>
      <trkpt lat="48.59176" lon="1.96615">
        <ele>117.42</ele>
        <time>2020-08-27T09:33:39Z</time>
      </trkpt>
      <trkpt lat="48.59177" lon="1.96614">
        <ele>116.94</ele>
        <time>2020-08-27T09:33:40Z</time>
      </trkpt>
      <trkpt lat="48.59177" lon="1.96614">
        <ele>116.94</ele>
        <time>2020-08-27T09:33:41Z</time>
      </trkpt>
      <trkpt lat="48.59177" lon="1.96614">
        <ele>118.38</ele>
        <time>2020-08-27T09:33:42Z</time>
      </trkpt>
      <trkpt lat="48.59177" lon="1.96614">
        <ele>116.94</ele>
        <time>2020-08-27T09:33:43Z</time>
      </trkpt>
      <trkpt lat="48.59177" lon="1.96614">
        <ele>117.42</ele>
        <time>2020-08-27T09:33:44Z</time>
      </trkpt>
      <trkpt lat="48.59179" lon="1.96614">
        <ele>117.42</ele>
        <time>2020-08-27T09:33:45Z</time>
      </trkpt>
      <trkpt lat="48.5918" lon="1.96613">
        <ele>117.42</ele>
        <time>2020-08-27T09:33:46Z</time>
      </trkpt>
      <trkpt lat="48.59182" lon="1.96613">
        <ele>117.42</ele>
        <time>2020-08-27T09:33:47Z</time>
      </trkpt>
      <trkpt lat="48.59182" lon="1.96613">
        <ele>117.42</ele>
        <time>2020-08-27T09:33:48Z</time>
      </trkpt>
      <trkpt lat="48.59183" lon="1.96612">
        <ele>117.42</ele>
        <time>2020-08-27T09:33:49Z</time>
      </trkpt>
      <trkpt lat="48.59183" lon="1.96613">
        <ele>117.42</ele>
        <time>2020-08-27T09:33:50Z</time>
      </trkpt>
      <trkpt lat="48.59183" lon="1.96613">
        <ele>117.42</ele>
        <time>2020-08-27T09:33:51Z</time>
      </trkpt>
      <trkpt lat="48.59184" lon="1.96613">
        <ele>116.94</ele>
        <time>2020-08-27T09:33:52Z</time>
      </trkpt>
      <trkpt lat="48.59184" lon="1.96612">
        <ele>117.42</ele>
        <time>2020-08-27T09:34:00Z</time>
      </trkpt>
      <trkpt lat="48.59184" lon="1.96612">
        <ele>117.9</ele>
        <time>2020-08-27T09:34:01Z</time>
      </trkpt>
      <trkpt lat="48.59184" lon="1.96612">
        <ele>117.42</ele>
        <time>2020-08-27T09:34:02Z</time>
      </trkpt>
      <trkpt lat="48.59184" lon="1.96612">
        <ele>117.42</ele>
        <time>2020-08-27T09:34:03Z</time>
      </trkpt>
      <trkpt lat="48.59184" lon="1.96609">
        <ele>117.42</ele>
        <time>2020-08-27T09:34:18Z</time>
      </trkpt>
      <trkpt lat="48.59184" lon="1.96609">
        <ele>117.42</ele>
        <time>2020-08-27T09:34:19Z</time>
      </trkpt>
      <trkpt lat="48.59185" lon="1.96609">
        <ele>117.42</ele>
        <time>2020-08-27T09:34:27Z</time>
      </trkpt>
      <trkpt lat="48.59185" lon="1.96609">
        <ele>117.9</ele>
        <time>2020-08-27T09:34:28Z</time>
      </trkpt>
      <trkpt lat="48.59185" lon="1.9661">
        <ele>117.42</ele>
        <time>2020-08-27T09:34:29Z</time>
      </trkpt>
      <trkpt lat="48.59185" lon="1.9661">
        <ele>117.9</ele>
        <time>2020-08-27T09:34:30Z</time>
      </trkpt>
      <trkpt lat="48.59185" lon="1.9661">
        <ele>117.42</ele>
        <time>2020-08-27T09:34:31Z</time>
      </trkpt>
      <trkpt lat="48.59185" lon="1.9661">
        <ele>117.42</ele>
        <time>2020-08-27T09:34:39Z</time>
      </trkpt>
      <trkpt lat="48.59185" lon="1.96611">
        <ele>117.42</ele>
        <time>2020-08-27T09:34:40Z</time>
      </trkpt>
      <trkpt lat="48.59185" lon="1.9661">
        <ele>117.42</ele>
        <time>2020-08-27T09:34:41Z</time>
      </trkpt>
      <trkpt lat="48.59184" lon="1.96609">
        <ele>117.9</ele>
        <time>2020-08-27T09:34:49Z</time>
      </trkpt>
      <trkpt lat="48.59184" lon="1.96609">
        <ele>117.42</ele>
        <time>2020-08-27T09:34:50Z</time>
      </trkpt>
      <trkpt lat="48.59184" lon="1.96609">
        <ele>117.9</ele>
        <time>2020-08-27T09:34:51Z</time>
      </trkpt>
      <trkpt lat="48.59185" lon="1.96607">
        <ele>117.42</ele>
        <time>2020-08-27T09:35:33Z</time>
      </trkpt>
      <trkpt lat="48.59185" lon="1.96607">
        <ele>118.38</ele>
        <time>2020-08-27T09:35:34Z</time>
      </trkpt>
      <trkpt lat="48.59185" lon="1.96607">
        <ele>117.42</ele>
        <time>2020-08-27T09:35:35Z</time>
      </trkpt>
      <trkpt lat="48.59185" lon="1.96607">
        <ele>117.9</ele>
        <time>2020-08-27T09:35:36Z</time>
      </trkpt>
      <trkpt lat="48.59184" lon="1.96607">
        <ele>118.38</ele>
        <time>2020-08-27T09:35:50Z</time>
      </trkpt>
      <trkpt lat="48.59184" lon="1.96607">
        <ele>118.38</ele>
        <time>2020-08-27T09:35:51Z</time>
      </trkpt>
      <trkpt lat="48.59184" lon="1.96608">
        <ele>117.9</ele>
        <time>2020-08-27T09:35:52Z</time>
      </trkpt>
      <trkpt lat="48.59184" lon="1.96608">
        <ele>118.38</ele>
        <time>2020-08-27T09:35:53Z</time>
      </trkpt>
      <trkpt lat="48.59185" lon="1.96608">
        <ele>117.9</ele>
        <time>2020-08-27T09:35:54Z</time>
      </trkpt>
      <trkpt lat="48.59185" lon="1.96607">
        <ele>118.38</ele>
        <time>2020-08-27T09:35:55Z</time>
      </trkpt>
      <trkpt lat="48.59185" lon="1.96607">
        <ele>118.38</ele>
        <time>2020-08-27T09:35:56Z</time>
      </trkpt>
      <trkpt lat="48.59186" lon="1.96607">
        <ele>118.86</ele>
        <time>2020-08-27T09:36:05Z</time>
      </trkpt>
      <trkpt lat="48.59186" lon="1.96607">
        <ele>118.38</ele>
        <time>2020-08-27T09:36:06Z</time>
      </trkpt>
    </trkseg>
  </trk>
</gpx>